<?xml version='1.0' encoding='UTF-8'?><gpx version="1.1" creator="JPX - https://github.com/jenetics/jpx" xmlns="http://www.topografix.com/GPX/1/1"><trk><trkseg><trkpt lat="43.5543133" lon="10.7110617"><ele>45.0</ele><time>2026-04-05T07:39:08.103Z</time></trkpt><trkpt lat="43.5542467" lon="10.71104"><ele>45.0</ele><time>2026-04-05T07:39:10.103Z</time></trkpt><trkpt lat="43.5541433" lon="10.711075"><ele>45.0</ele><time>2026-04-05T07:39:12.103Z</time></trkpt><trkpt lat="43.55408" lon="10.7111067"><ele>45.0</ele><time>2026-04-05T07:39:13.103Z</time></trkpt><trkpt lat="43.55401" lon="10.711135"><ele>45.0</ele><time>2026-04-05T07:39:14.103Z</time></trkpt><trkpt lat="43.553935" lon="10.711165"><ele>45.0</ele><time>2026-04-05T07:39:15.103Z</time></trkpt><trkpt lat="43.55386" lon="10.7111967"><ele>45.2</ele><time>2026-04-05T07:39:16.103Z</time></trkpt><trkpt lat="43.5537783" lon="10.7112217"><ele>45.4</ele><time>2026-04-05T07:39:17.102Z</time></trkpt><trkpt lat="43.55369" lon="10.7112467"><ele>45.599999999999994</ele><time>2026-04-05T07:39:18.103Z</time></trkpt><trkpt lat="43.5535983" lon="10.7112717"><ele>45.8</ele><time>2026-04-05T07:39:19.103Z</time></trkpt><trkpt lat="43.553505" lon="10.7113033"><ele>46.0</ele><time>2026-04-05T07:39:20.102Z</time></trkpt><trkpt lat="43.5534117" lon="10.7113383"><ele>46.0</ele><time>2026-04-05T07:39:21.103Z</time></trkpt><trkpt lat="43.553315" lon="10.711375"><ele>46.0</ele><time>2026-04-05T07:39:22.103Z</time></trkpt><trkpt lat="43.5532167" lon="10.7114117"><ele>46.0</ele><time>2026-04-05T07:39:23.103Z</time></trkpt><trkpt lat="43.5531167" lon="10.7114417"><ele>46.0</ele><time>2026-04-05T07:39:24.103Z</time></trkpt><trkpt lat="43.5530117" lon="10.7114683"><ele>46.0</ele><time>2026-04-05T07:39:25.102Z</time></trkpt><trkpt lat="43.5529083" lon="10.7115"><ele>46.0</ele><time>2026-04-05T07:39:26.103Z</time></trkpt><trkpt lat="43.5528033" lon="10.7115367"><ele>46.0</ele><time>2026-04-05T07:39:27.102Z</time></trkpt><trkpt lat="43.5527033" lon="10.7115717"><ele>46.0</ele><time>2026-04-05T07:39:28.103Z</time></trkpt><trkpt lat="43.5526067" lon="10.7116083"><ele>46.0</ele><time>2026-04-05T07:39:29.103Z</time></trkpt><trkpt lat="43.552515" lon="10.7116583"><ele>46.0</ele><time>2026-04-05T07:39:30.103Z</time></trkpt><trkpt lat="43.552375" lon="10.7118283"><ele>46.199999999999996</ele><time>2026-04-05T07:39:32.103Z</time></trkpt><trkpt lat="43.5523283" lon="10.7119417"><ele>46.4</ele><time>2026-04-05T07:39:33.103Z</time></trkpt><trkpt lat="43.5522967" lon="10.712065"><ele>46.6</ele><time>2026-04-05T07:39:34.103Z</time></trkpt><trkpt lat="43.5522733" lon="10.712195"><ele>46.8</ele><time>2026-04-05T07:39:35.103Z</time></trkpt><trkpt lat="43.552255" lon="10.7123283"><ele>47.0</ele><time>2026-04-05T07:39:36.102Z</time></trkpt><trkpt lat="43.55224" lon="10.712455"><ele>47.0</ele><time>2026-04-05T07:39:37.103Z</time></trkpt><trkpt lat="43.5522367" lon="10.7125667"><ele>47.0</ele><time>2026-04-05T07:39:38.103Z</time></trkpt><trkpt lat="43.552235" lon="10.7126667"><ele>47.0</ele><time>2026-04-05T07:39:39.103Z</time></trkpt><trkpt lat="43.5522417" lon="10.7127683"><ele>47.0</ele><time>2026-04-05T07:39:41.103Z</time></trkpt><trkpt lat="43.5523283" lon="10.7128417"><ele>47.0</ele><time>2026-04-05T07:39:47.103Z</time></trkpt><trkpt lat="43.5524467" lon="10.71284"><ele>47.0</ele><time>2026-04-05T07:39:49.103Z</time></trkpt><trkpt lat="43.55253" lon="10.7128117"><ele>47.0</ele><time>2026-04-05T07:39:50.103Z</time></trkpt><trkpt lat="43.5526183" lon="10.7127833"><ele>47.0</ele><time>2026-04-05T07:39:51.103Z</time></trkpt><trkpt lat="43.5527083" lon="10.71276"><ele>47.0</ele><time>2026-04-05T07:39:52.103Z</time></trkpt><trkpt lat="43.5528067" lon="10.7127417"><ele>47.0</ele><time>2026-04-05T07:39:53.103Z</time></trkpt><trkpt lat="43.5529083" lon="10.7127283"><ele>47.0</ele><time>2026-04-05T07:39:54.103Z</time></trkpt><trkpt lat="43.5530167" lon="10.7127183"><ele>47.0</ele><time>2026-04-05T07:39:55.103Z</time></trkpt><trkpt lat="43.5531283" lon="10.7127083"><ele>47.0</ele><time>2026-04-05T07:39:56.103Z</time></trkpt><trkpt lat="43.5532433" lon="10.7126983"><ele>47.0</ele><time>2026-04-05T07:39:57.103Z</time></trkpt><trkpt lat="43.553365" lon="10.7126833"><ele>47.0</ele><time>2026-04-05T07:39:58.103Z</time></trkpt><trkpt lat="43.5534883" lon="10.7126717"><ele>47.0</ele><time>2026-04-05T07:39:59.103Z</time></trkpt><trkpt lat="43.55361" lon="10.71266"><ele>47.0</ele><time>2026-04-05T07:40:00.103Z</time></trkpt><trkpt lat="43.5537333" lon="10.7126467"><ele>47.0</ele><time>2026-04-05T07:40:01.103Z</time></trkpt><trkpt lat="43.5538567" lon="10.7126383"><ele>47.0</ele><time>2026-04-05T07:40:02.102Z</time></trkpt><trkpt lat="43.5539817" lon="10.7126267"><ele>47.0</ele><time>2026-04-05T07:40:03.103Z</time></trkpt><trkpt lat="43.5541083" lon="10.712615"><ele>47.0</ele><time>2026-04-05T07:40:04.103Z</time></trkpt><trkpt lat="43.5542333" lon="10.7126017"><ele>47.0</ele><time>2026-04-05T07:40:05.103Z</time></trkpt><trkpt lat="43.5543617" lon="10.7125933"><ele>47.0</ele><time>2026-04-05T07:40:06.103Z</time></trkpt><trkpt lat="43.5544917" lon="10.7125817"><ele>47.0</ele><time>2026-04-05T07:40:07.103Z</time></trkpt><trkpt lat="43.5546217" lon="10.712575"><ele>47.0</ele><time>2026-04-05T07:40:08.103Z</time></trkpt><trkpt lat="43.5547517" lon="10.71257"><ele>47.0</ele><time>2026-04-05T07:40:09.103Z</time></trkpt><trkpt lat="43.5548817" lon="10.71256"><ele>47.0</ele><time>2026-04-05T07:40:10.102Z</time></trkpt><trkpt lat="43.555015" lon="10.7125533"><ele>47.0</ele><time>2026-04-05T07:40:11.103Z</time></trkpt><trkpt lat="43.55515" lon="10.7125467"><ele>47.0</ele><time>2026-04-05T07:40:12.103Z</time></trkpt><trkpt lat="43.5552867" lon="10.7125417"><ele>47.0</ele><time>2026-04-05T07:40:13.103Z</time></trkpt><trkpt lat="43.5554283" lon="10.7125333"><ele>47.0</ele><time>2026-04-05T07:40:14.103Z</time></trkpt><trkpt lat="43.55557" lon="10.7125267"><ele>47.0</ele><time>2026-04-05T07:40:15.103Z</time></trkpt><trkpt lat="43.5557117" lon="10.712515"><ele>47.0</ele><time>2026-04-05T07:40:16.103Z</time></trkpt><trkpt lat="43.5558567" lon="10.7125033"><ele>47.0</ele><time>2026-04-05T07:40:17.103Z</time></trkpt><trkpt lat="43.5560033" lon="10.7124917"><ele>47.0</ele><time>2026-04-05T07:40:18.103Z</time></trkpt><trkpt lat="43.5561583" lon="10.7124817"><ele>46.666666666666664</ele><time>2026-04-05T07:40:19.103Z</time></trkpt><trkpt lat="43.556315" lon="10.7124717"><ele>46.333333333333336</ele><time>2026-04-05T07:40:20.103Z</time></trkpt><trkpt lat="43.5564717" lon="10.7124617"><ele>46.0</ele><time>2026-04-05T07:40:21.103Z</time></trkpt><trkpt lat="43.5566283" lon="10.71245"><ele>46.0</ele><time>2026-04-05T07:40:22.103Z</time></trkpt><trkpt lat="43.556785" lon="10.7124383"><ele>46.0</ele><time>2026-04-05T07:40:23.103Z</time></trkpt><trkpt lat="43.556945" lon="10.7124283"><ele>46.0</ele><time>2026-04-05T07:40:24.102Z</time></trkpt><trkpt lat="43.5571067" lon="10.7124183"><ele>45.66666666666667</ele><time>2026-04-05T07:40:25.103Z</time></trkpt><trkpt lat="43.5572717" lon="10.71241"><ele>45.333333333333336</ele><time>2026-04-05T07:40:26.103Z</time></trkpt><trkpt lat="43.55744" lon="10.7124"><ele>45.0</ele><time>2026-04-05T07:40:27.103Z</time></trkpt><trkpt lat="43.5576067" lon="10.71239"><ele>45.0</ele><time>2026-04-05T07:40:28.103Z</time></trkpt><trkpt lat="43.557775" lon="10.71238"><ele>45.0</ele><time>2026-04-05T07:40:29.102Z</time></trkpt><trkpt lat="43.5579417" lon="10.7123667"><ele>45.0</ele><time>2026-04-05T07:40:30.103Z</time></trkpt><trkpt lat="43.55811" lon="10.712355"><ele>44.666666666666664</ele><time>2026-04-05T07:40:31.103Z</time></trkpt><trkpt lat="43.5582817" lon="10.712345"><ele>44.33333333333333</ele><time>2026-04-05T07:40:32.102Z</time></trkpt><trkpt lat="43.5584483" lon="10.7123317"><ele>44.0</ele><time>2026-04-05T07:40:33.103Z</time></trkpt><trkpt lat="43.5586117" lon="10.7123183"><ele>44.0</ele><time>2026-04-05T07:40:34.103Z</time></trkpt><trkpt lat="43.5587767" lon="10.7123067"><ele>44.0</ele><time>2026-04-05T07:40:35.103Z</time></trkpt><trkpt lat="43.55894" lon="10.712295"><ele>44.0</ele><time>2026-04-05T07:40:36.103Z</time></trkpt><trkpt lat="43.5591067" lon="10.7122833"><ele>44.0</ele><time>2026-04-05T07:40:37.103Z</time></trkpt><trkpt lat="43.5592733" lon="10.7122733"><ele>44.0</ele><time>2026-04-05T07:40:38.103Z</time></trkpt><trkpt lat="43.55944" lon="10.712265"><ele>44.0</ele><time>2026-04-05T07:40:39.103Z</time></trkpt><trkpt lat="43.5596033" lon="10.7122583"><ele>44.0</ele><time>2026-04-05T07:40:40.103Z</time></trkpt><trkpt lat="43.5597667" lon="10.7122533"><ele>44.0</ele><time>2026-04-05T07:40:41.103Z</time></trkpt><trkpt lat="43.55993" lon="10.7122483"><ele>44.0</ele><time>2026-04-05T07:40:42.102Z</time></trkpt><trkpt lat="43.5600933" lon="10.712245"><ele>44.0</ele><time>2026-04-05T07:40:43.103Z</time></trkpt><trkpt lat="43.5602583" lon="10.7122367"><ele>44.0</ele><time>2026-04-05T07:40:44.102Z</time></trkpt><trkpt lat="43.5604217" lon="10.712225"><ele>44.0</ele><time>2026-04-05T07:40:45.102Z</time></trkpt><trkpt lat="43.560585" lon="10.7122033"><ele>43.666666666666664</ele><time>2026-04-05T07:40:46.103Z</time></trkpt><trkpt lat="43.5607517" lon="10.7121717"><ele>43.333333333333336</ele><time>2026-04-05T07:40:47.103Z</time></trkpt><trkpt lat="43.560915" lon="10.7121283"><ele>43.0</ele><time>2026-04-05T07:40:48.103Z</time></trkpt><trkpt lat="43.5610767" lon="10.712075"><ele>43.0</ele><time>2026-04-05T07:40:49.103Z</time></trkpt><trkpt lat="43.5612367" lon="10.71201"><ele>43.0</ele><time>2026-04-05T07:40:50.103Z</time></trkpt><trkpt lat="43.5614033" lon="10.7119433"><ele>43.0</ele><time>2026-04-05T07:40:51.103Z</time></trkpt><trkpt lat="43.56157" lon="10.7118767"><ele>43.0</ele><time>2026-04-05T07:40:52.103Z</time></trkpt><trkpt lat="43.5617383" lon="10.71181"><ele>43.0</ele><time>2026-04-05T07:40:53.103Z</time></trkpt><trkpt lat="43.5619067" lon="10.711745"><ele>43.0</ele><time>2026-04-05T07:40:54.103Z</time></trkpt><trkpt lat="43.5620733" lon="10.7116817"><ele>43.0</ele><time>2026-04-05T07:40:55.103Z</time></trkpt><trkpt lat="43.5622417" lon="10.7116183"><ele>43.0</ele><time>2026-04-05T07:40:56.103Z</time></trkpt><trkpt lat="43.5624083" lon="10.711555"><ele>43.0</ele><time>2026-04-05T07:40:57.103Z</time></trkpt><trkpt lat="43.562575" lon="10.71149"><ele>43.0</ele><time>2026-04-05T07:40:58.102Z</time></trkpt><trkpt lat="43.5627417" lon="10.7114267"><ele>43.0</ele><time>2026-04-05T07:40:59.103Z</time></trkpt><trkpt lat="43.5629083" lon="10.7113633"><ele>43.0</ele><time>2026-04-05T07:41:00.103Z</time></trkpt><trkpt lat="43.563075" lon="10.7112983"><ele>42.66666666666667</ele><time>2026-04-05T07:41:01.102Z</time></trkpt><trkpt lat="43.5632417" lon="10.7112367"><ele>42.333333333333336</ele><time>2026-04-05T07:41:02.103Z</time></trkpt><trkpt lat="43.5634083" lon="10.7111733"><ele>42.0</ele><time>2026-04-05T07:41:03.103Z</time></trkpt><trkpt lat="43.563575" lon="10.7111083"><ele>42.0</ele><time>2026-04-05T07:41:04.103Z</time></trkpt><trkpt lat="43.5637433" lon="10.711045"><ele>42.0</ele><time>2026-04-05T07:41:05.103Z</time></trkpt><trkpt lat="43.5639117" lon="10.7109833"><ele>42.0</ele><time>2026-04-05T07:41:06.103Z</time></trkpt><trkpt lat="43.5640767" lon="10.71092"><ele>42.0</ele><time>2026-04-05T07:41:07.103Z</time></trkpt><trkpt lat="43.5642433" lon="10.7108533"><ele>42.0</ele><time>2026-04-05T07:41:08.103Z</time></trkpt><trkpt lat="43.56441" lon="10.7107867"><ele>42.0</ele><time>2026-04-05T07:41:09.103Z</time></trkpt><trkpt lat="43.5645767" lon="10.7107183"><ele>41.666666666666664</ele><time>2026-04-05T07:41:10.103Z</time></trkpt><trkpt lat="43.5647433" lon="10.7106517"><ele>41.33333333333333</ele><time>2026-04-05T07:41:11.103Z</time></trkpt><trkpt lat="43.5649083" lon="10.710585"><ele>41.0</ele><time>2026-04-05T07:41:12.103Z</time></trkpt><trkpt lat="43.565075" lon="10.7105217"><ele>41.0</ele><time>2026-04-05T07:41:13.103Z</time></trkpt><trkpt lat="43.56524" lon="10.7104567"><ele>41.0</ele><time>2026-04-05T07:41:14.103Z</time></trkpt><trkpt lat="43.565405" lon="10.7103933"><ele>41.0</ele><time>2026-04-05T07:41:15.103Z</time></trkpt><trkpt lat="43.56557" lon="10.71033"><ele>41.33333333333333</ele><time>2026-04-05T07:41:16.103Z</time></trkpt><trkpt lat="43.5657367" lon="10.7102667"><ele>41.666666666666664</ele><time>2026-04-05T07:41:17.103Z</time></trkpt><trkpt lat="43.565905" lon="10.7102017"><ele>42.0</ele><time>2026-04-05T07:41:18.103Z</time></trkpt><trkpt lat="43.566075" lon="10.7101367"><ele>42.0</ele><time>2026-04-05T07:41:19.103Z</time></trkpt><trkpt lat="43.5662433" lon="10.7100683"><ele>42.0</ele><time>2026-04-05T07:41:20.102Z</time></trkpt><trkpt lat="43.5664117" lon="10.71"><ele>42.0</ele><time>2026-04-05T07:41:21.103Z</time></trkpt><trkpt lat="43.5665817" lon="10.7099317"><ele>42.0</ele><time>2026-04-05T07:41:22.103Z</time></trkpt><trkpt lat="43.5667517" lon="10.7098617"><ele>42.0</ele><time>2026-04-05T07:41:23.103Z</time></trkpt><trkpt lat="43.5669217" lon="10.709795"><ele>42.0</ele><time>2026-04-05T07:41:24.103Z</time></trkpt><trkpt lat="43.5670917" lon="10.7097283"><ele>41.0</ele><time>2026-04-05T07:41:25.103Z</time></trkpt><trkpt lat="43.56726" lon="10.7096617"><ele>40.0</ele><time>2026-04-05T07:41:26.103Z</time></trkpt><trkpt lat="43.56743" lon="10.7095933"><ele>39.0</ele><time>2026-04-05T07:41:27.103Z</time></trkpt><trkpt lat="43.5676" lon="10.7095267"><ele>39.0</ele><time>2026-04-05T07:41:28.103Z</time></trkpt><trkpt lat="43.56777" lon="10.7094567"><ele>39.0</ele><time>2026-04-05T07:41:29.103Z</time></trkpt><trkpt lat="43.5679383" lon="10.7093867"><ele>39.0</ele><time>2026-04-05T07:41:30.103Z</time></trkpt><trkpt lat="43.56811" lon="10.7093183"><ele>39.333333333333336</ele><time>2026-04-05T07:41:31.103Z</time></trkpt><trkpt lat="43.5682783" lon="10.70925"><ele>39.66666666666667</ele><time>2026-04-05T07:41:32.103Z</time></trkpt><trkpt lat="43.5684483" lon="10.7091817"><ele>40.0</ele><time>2026-04-05T07:41:33.103Z</time></trkpt><trkpt lat="43.5686167" lon="10.7091133"><ele>40.333333333333336</ele><time>2026-04-05T07:41:34.103Z</time></trkpt><trkpt lat="43.5687867" lon="10.7090467"><ele>40.666666666666664</ele><time>2026-04-05T07:41:35.103Z</time></trkpt><trkpt lat="43.5689567" lon="10.70898"><ele>41.0</ele><time>2026-04-05T07:41:36.103Z</time></trkpt><trkpt lat="43.5691267" lon="10.7089133"><ele>41.0</ele><time>2026-04-05T07:41:37.103Z</time></trkpt><trkpt lat="43.5692983" lon="10.7088433"><ele>41.0</ele><time>2026-04-05T07:41:38.103Z</time></trkpt><trkpt lat="43.5694717" lon="10.708775"><ele>41.0</ele><time>2026-04-05T07:41:39.103Z</time></trkpt><trkpt lat="43.5696417" lon="10.708705"><ele>40.666666666666664</ele><time>2026-04-05T07:41:40.103Z</time></trkpt><trkpt lat="43.5698133" lon="10.70864"><ele>40.333333333333336</ele><time>2026-04-05T07:41:41.103Z</time></trkpt><trkpt lat="43.569985" lon="10.7085733"><ele>40.0</ele><time>2026-04-05T07:41:42.102Z</time></trkpt><trkpt lat="43.5701567" lon="10.7085067"><ele>40.0</ele><time>2026-04-05T07:41:43.103Z</time></trkpt><trkpt lat="43.57033" lon="10.70844"><ele>40.0</ele><time>2026-04-05T07:41:44.103Z</time></trkpt><trkpt lat="43.5705" lon="10.7083717"><ele>40.0</ele><time>2026-04-05T07:41:45.102Z</time></trkpt><trkpt lat="43.5706733" lon="10.7083"><ele>39.333333333333336</ele><time>2026-04-05T07:41:46.103Z</time></trkpt><trkpt lat="43.570845" lon="10.70823"><ele>38.666666666666664</ele><time>2026-04-05T07:41:47.103Z</time></trkpt><trkpt lat="43.5710167" lon="10.7081617"><ele>38.0</ele><time>2026-04-05T07:41:48.103Z</time></trkpt><trkpt lat="43.571185" lon="10.70809"><ele>38.0</ele><time>2026-04-05T07:41:49.103Z</time></trkpt><trkpt lat="43.571355" lon="10.7080233"><ele>38.0</ele><time>2026-04-05T07:41:50.103Z</time></trkpt><trkpt lat="43.5715233" lon="10.7079583"><ele>38.0</ele><time>2026-04-05T07:41:51.103Z</time></trkpt><trkpt lat="43.57169" lon="10.7078883"><ele>38.0</ele><time>2026-04-05T07:41:52.103Z</time></trkpt><trkpt lat="43.5718583" lon="10.70782"><ele>38.0</ele><time>2026-04-05T07:41:53.102Z</time></trkpt><trkpt lat="43.5720267" lon="10.7077533"><ele>38.0</ele><time>2026-04-05T07:41:54.103Z</time></trkpt><trkpt lat="43.572195" lon="10.7076883"><ele>38.666666666666664</ele><time>2026-04-05T07:41:55.103Z</time></trkpt><trkpt lat="43.5723617" lon="10.7076217"><ele>39.333333333333336</ele><time>2026-04-05T07:41:56.102Z</time></trkpt><trkpt lat="43.57253" lon="10.707555"><ele>40.0</ele><time>2026-04-05T07:41:57.102Z</time></trkpt><trkpt lat="43.5727017" lon="10.7074883"><ele>39.66666666666667</ele><time>2026-04-05T07:41:58.103Z</time></trkpt><trkpt lat="43.57287" lon="10.70742"><ele>39.333333333333336</ele><time>2026-04-05T07:41:59.103Z</time></trkpt><trkpt lat="43.5730383" lon="10.7073517"><ele>39.0</ele><time>2026-04-05T07:42:00.103Z</time></trkpt><trkpt lat="43.573205" lon="10.7072833"><ele>39.0</ele><time>2026-04-05T07:42:01.103Z</time></trkpt><trkpt lat="43.5733717" lon="10.707215"><ele>39.0</ele><time>2026-04-05T07:42:02.103Z</time></trkpt><trkpt lat="43.5735383" lon="10.70715"><ele>39.0</ele><time>2026-04-05T07:42:03.103Z</time></trkpt><trkpt lat="43.5737067" lon="10.707085"><ele>38.333333333333336</ele><time>2026-04-05T07:42:04.103Z</time></trkpt><trkpt lat="43.5738733" lon="10.70702"><ele>37.66666666666667</ele><time>2026-04-05T07:42:05.102Z</time></trkpt><trkpt lat="43.5740417" lon="10.7069567"><ele>37.0</ele><time>2026-04-05T07:42:06.103Z</time></trkpt><trkpt lat="43.5742067" lon="10.70689"><ele>37.0</ele><time>2026-04-05T07:42:07.102Z</time></trkpt><trkpt lat="43.5743717" lon="10.706825"><ele>37.0</ele><time>2026-04-05T07:42:08.102Z</time></trkpt><trkpt lat="43.5745367" lon="10.7067583"><ele>37.0</ele><time>2026-04-05T07:42:09.103Z</time></trkpt><trkpt lat="43.5747" lon="10.7066917"><ele>37.5</ele><time>2026-04-05T07:42:10.103Z</time></trkpt><trkpt lat="43.5750267" lon="10.7065617"><ele>38.0</ele><time>2026-04-05T07:42:12.103Z</time></trkpt><trkpt lat="43.5751883" lon="10.7064967"><ele>38.0</ele><time>2026-04-05T07:42:13.103Z</time></trkpt><trkpt lat="43.5753533" lon="10.7064317"><ele>38.0</ele><time>2026-04-05T07:42:14.103Z</time></trkpt><trkpt lat="43.5755183" lon="10.7063667"><ele>38.0</ele><time>2026-04-05T07:42:15.103Z</time></trkpt><trkpt lat="43.5756833" lon="10.7063"><ele>38.0</ele><time>2026-04-05T07:42:16.103Z</time></trkpt><trkpt lat="43.575845" lon="10.7062317"><ele>38.0</ele><time>2026-04-05T07:42:17.102Z</time></trkpt><trkpt lat="43.5760083" lon="10.7061633"><ele>38.0</ele><time>2026-04-05T07:42:18.103Z</time></trkpt><trkpt lat="43.5761683" lon="10.7060983"><ele>38.0</ele><time>2026-04-05T07:42:19.103Z</time></trkpt><trkpt lat="43.57633" lon="10.7060333"><ele>38.0</ele><time>2026-04-05T07:42:20.103Z</time></trkpt><trkpt lat="43.5764933" lon="10.7059717"><ele>38.0</ele><time>2026-04-05T07:42:21.103Z</time></trkpt><trkpt lat="43.576655" lon="10.7059083"><ele>38.0</ele><time>2026-04-05T07:42:22.103Z</time></trkpt><trkpt lat="43.5768167" lon="10.7058417"><ele>38.0</ele><time>2026-04-05T07:42:23.103Z</time></trkpt><trkpt lat="43.576975" lon="10.70577"><ele>38.0</ele><time>2026-04-05T07:42:24.103Z</time></trkpt><trkpt lat="43.5771367" lon="10.7057083"><ele>37.666666666666664</ele><time>2026-04-05T07:42:25.103Z</time></trkpt><trkpt lat="43.5772967" lon="10.70565"><ele>37.333333333333336</ele><time>2026-04-05T07:42:26.103Z</time></trkpt><trkpt lat="43.5774567" lon="10.70559"><ele>37.0</ele><time>2026-04-05T07:42:27.103Z</time></trkpt><trkpt lat="43.5776133" lon="10.7055267"><ele>37.0</ele><time>2026-04-05T07:42:28.103Z</time></trkpt><trkpt lat="43.57777" lon="10.705465"><ele>37.0</ele><time>2026-04-05T07:42:29.103Z</time></trkpt><trkpt lat="43.5779267" lon="10.7054033"><ele>37.0</ele><time>2026-04-05T07:42:30.102Z</time></trkpt><trkpt lat="43.578405" lon="10.70522"><ele>36.66666666666667</ele><time>2026-04-05T07:42:33.102Z</time></trkpt><trkpt lat="43.5785633" lon="10.7051583"><ele>36.333333333333336</ele><time>2026-04-05T07:42:34.103Z</time></trkpt><trkpt lat="43.5787233" lon="10.7050983"><ele>36.0</ele><time>2026-04-05T07:42:35.103Z</time></trkpt><trkpt lat="43.5788817" lon="10.705035"><ele>36.0</ele><time>2026-04-05T07:42:36.103Z</time></trkpt><trkpt lat="43.57904" lon="10.7049717"><ele>36.0</ele><time>2026-04-05T07:42:37.103Z</time></trkpt><trkpt lat="43.5791933" lon="10.70491"><ele>36.0</ele><time>2026-04-05T07:42:38.103Z</time></trkpt><trkpt lat="43.5793483" lon="10.7048567"><ele>36.0</ele><time>2026-04-05T07:42:39.103Z</time></trkpt><trkpt lat="43.5794967" lon="10.7048067"><ele>36.0</ele><time>2026-04-05T07:42:40.103Z</time></trkpt><trkpt lat="43.5796417" lon="10.704765"><ele>36.0</ele><time>2026-04-05T07:42:41.103Z</time></trkpt><trkpt lat="43.5797833" lon="10.7047367"><ele>36.0</ele><time>2026-04-05T07:42:42.103Z</time></trkpt><trkpt lat="43.5799167" lon="10.7047167"><ele>36.25</ele><time>2026-04-05T07:42:43.103Z</time></trkpt><trkpt lat="43.580045" lon="10.7047033"><ele>36.5</ele><time>2026-04-05T07:42:44.103Z</time></trkpt><trkpt lat="43.5801683" lon="10.7046933"><ele>36.75</ele><time>2026-04-05T07:42:45.103Z</time></trkpt><trkpt lat="43.58028" lon="10.704695"><ele>37.0</ele><time>2026-04-05T07:42:46.103Z</time></trkpt><trkpt lat="43.58038" lon="10.7047233"><ele>37.0</ele><time>2026-04-05T07:42:47.103Z</time></trkpt><trkpt lat="43.5804583" lon="10.70478"><ele>37.0</ele><time>2026-04-05T07:42:48.103Z</time></trkpt><trkpt lat="43.5805217" lon="10.704855"><ele>37.0</ele><time>2026-04-05T07:42:49.103Z</time></trkpt><trkpt lat="43.5805583" lon="10.704955"><ele>37.0</ele><time>2026-04-05T07:42:50.103Z</time></trkpt><trkpt lat="43.5805517" lon="10.705415"><ele>37.0</ele><time>2026-04-05T07:42:53.103Z</time></trkpt><trkpt lat="43.5805383" lon="10.7056"><ele>37.0</ele><time>2026-04-05T07:42:54.103Z</time></trkpt><trkpt lat="43.58053" lon="10.7058"><ele>37.0</ele><time>2026-04-05T07:42:55.103Z</time></trkpt><trkpt lat="43.5805267" lon="10.7060033"><ele>37.0</ele><time>2026-04-05T07:42:56.103Z</time></trkpt><trkpt lat="43.58052" lon="10.706205"><ele>37.0</ele><time>2026-04-05T07:42:57.103Z</time></trkpt><trkpt lat="43.5805117" lon="10.7064083"><ele>37.0</ele><time>2026-04-05T07:42:58.103Z</time></trkpt><trkpt lat="43.580505" lon="10.7066183"><ele>37.0</ele><time>2026-04-05T07:42:59.103Z</time></trkpt><trkpt lat="43.5805" lon="10.7068383"><ele>37.333333333333336</ele><time>2026-04-05T07:43:00.103Z</time></trkpt><trkpt lat="43.5804933" lon="10.7070683"><ele>37.666666666666664</ele><time>2026-04-05T07:43:01.103Z</time></trkpt><trkpt lat="43.58049" lon="10.7073"><ele>38.0</ele><time>2026-04-05T07:43:02.103Z</time></trkpt><trkpt lat="43.580485" lon="10.7075333"><ele>37.33333333333333</ele><time>2026-04-05T07:43:03.103Z</time></trkpt><trkpt lat="43.58048" lon="10.7077683"><ele>36.666666666666664</ele><time>2026-04-05T07:43:04.103Z</time></trkpt><trkpt lat="43.5804733" lon="10.7080033"><ele>36.0</ele><time>2026-04-05T07:43:05.103Z</time></trkpt><trkpt lat="43.5804717" lon="10.7082417"><ele>36.0</ele><time>2026-04-05T07:43:06.103Z</time></trkpt><trkpt lat="43.5804683" lon="10.7084817"><ele>36.0</ele><time>2026-04-05T07:43:07.103Z</time></trkpt><trkpt lat="43.5804667" lon="10.7087217"><ele>36.0</ele><time>2026-04-05T07:43:08.103Z</time></trkpt><trkpt lat="43.5804617" lon="10.7089667"><ele>35.5</ele><time>2026-04-05T07:43:09.103Z</time></trkpt><trkpt lat="43.5804567" lon="10.7092133"><ele>35.0</ele><time>2026-04-05T07:43:10.103Z</time></trkpt><trkpt lat="43.580445" lon="10.7099667"><ele>35.0</ele><time>2026-04-05T07:43:13.103Z</time></trkpt><trkpt lat="43.5804417" lon="10.7102183"><ele>35.0</ele><time>2026-04-05T07:43:14.103Z</time></trkpt><trkpt lat="43.5804383" lon="10.7104683"><ele>35.0</ele><time>2026-04-05T07:43:15.103Z</time></trkpt><trkpt lat="43.5804333" lon="10.7107133"><ele>35.33333333333333</ele><time>2026-04-05T07:43:16.103Z</time></trkpt><trkpt lat="43.58043" lon="10.7109583"><ele>35.666666666666664</ele><time>2026-04-05T07:43:17.103Z</time></trkpt><trkpt lat="43.5804283" lon="10.711205"><ele>36.0</ele><time>2026-04-05T07:43:18.103Z</time></trkpt><trkpt lat="43.5804283" lon="10.7114533"><ele>36.0</ele><time>2026-04-05T07:43:19.103Z</time></trkpt><trkpt lat="43.580425" lon="10.7117017"><ele>36.0</ele><time>2026-04-05T07:43:20.103Z</time></trkpt><trkpt lat="43.5804217" lon="10.71195"><ele>36.0</ele><time>2026-04-05T07:43:21.103Z</time></trkpt><trkpt lat="43.5804183" lon="10.7121983"><ele>36.0</ele><time>2026-04-05T07:43:22.103Z</time></trkpt><trkpt lat="43.580415" lon="10.7124467"><ele>36.0</ele><time>2026-04-05T07:43:23.103Z</time></trkpt><trkpt lat="43.5804117" lon="10.7126933"><ele>36.0</ele><time>2026-04-05T07:43:24.102Z</time></trkpt><trkpt lat="43.58041" lon="10.71294"><ele>36.666666666666664</ele><time>2026-04-05T07:43:25.103Z</time></trkpt><trkpt lat="43.5804067" lon="10.7131867"><ele>37.33333333333333</ele><time>2026-04-05T07:43:26.102Z</time></trkpt><trkpt lat="43.5804033" lon="10.7134333"><ele>38.0</ele><time>2026-04-05T07:43:27.103Z</time></trkpt><trkpt lat="43.5804017" lon="10.7136817"><ele>38.33333333333333</ele><time>2026-04-05T07:43:28.103Z</time></trkpt><trkpt lat="43.5804" lon="10.7139283"><ele>38.666666666666664</ele><time>2026-04-05T07:43:29.103Z</time></trkpt><trkpt lat="43.5803967" lon="10.7141767"><ele>39.0</ele><time>2026-04-05T07:43:30.103Z</time></trkpt><trkpt lat="43.5803917" lon="10.714425"><ele>39.333333333333336</ele><time>2026-04-05T07:43:31.103Z</time></trkpt><trkpt lat="43.5803883" lon="10.7146717"><ele>39.66666666666667</ele><time>2026-04-05T07:43:32.103Z</time></trkpt><trkpt lat="43.580385" lon="10.71492"><ele>40.0</ele><time>2026-04-05T07:43:33.103Z</time></trkpt><trkpt lat="43.5803817" lon="10.715165"><ele>40.0</ele><time>2026-04-05T07:43:34.103Z</time></trkpt><trkpt lat="43.58038" lon="10.71541"><ele>40.0</ele><time>2026-04-05T07:43:35.103Z</time></trkpt><trkpt lat="43.5803767" lon="10.7156583"><ele>40.0</ele><time>2026-04-05T07:43:36.103Z</time></trkpt><trkpt lat="43.5803733" lon="10.7159017"><ele>40.0</ele><time>2026-04-05T07:43:37.103Z</time></trkpt><trkpt lat="43.5803717" lon="10.7161433"><ele>40.0</ele><time>2026-04-05T07:43:38.103Z</time></trkpt><trkpt lat="43.5803667" lon="10.7163833"><ele>40.0</ele><time>2026-04-05T07:43:39.103Z</time></trkpt><trkpt lat="43.5803633" lon="10.7166217"><ele>40.0</ele><time>2026-04-05T07:43:40.103Z</time></trkpt><trkpt lat="43.58036" lon="10.7168617"><ele>40.0</ele><time>2026-04-05T07:43:41.103Z</time></trkpt><trkpt lat="43.580355" lon="10.7171033"><ele>40.0</ele><time>2026-04-05T07:43:42.103Z</time></trkpt><trkpt lat="43.5803517" lon="10.7173467"><ele>40.0</ele><time>2026-04-05T07:43:43.103Z</time></trkpt><trkpt lat="43.58035" lon="10.7175883"><ele>40.0</ele><time>2026-04-05T07:43:44.103Z</time></trkpt><trkpt lat="43.5803467" lon="10.7178283"><ele>40.0</ele><time>2026-04-05T07:43:45.103Z</time></trkpt><trkpt lat="43.5803467" lon="10.7180667"><ele>40.0</ele><time>2026-04-05T07:43:46.103Z</time></trkpt><trkpt lat="43.5803517" lon="10.7183017"><ele>40.0</ele><time>2026-04-05T07:43:47.103Z</time></trkpt><trkpt lat="43.5803683" lon="10.718535"><ele>40.0</ele><time>2026-04-05T07:43:48.103Z</time></trkpt><trkpt lat="43.5804" lon="10.718765"><ele>40.0</ele><time>2026-04-05T07:43:49.103Z</time></trkpt><trkpt lat="43.5804483" lon="10.718995"><ele>40.0</ele><time>2026-04-05T07:43:50.103Z</time></trkpt><trkpt lat="43.5805083" lon="10.71922"><ele>40.0</ele><time>2026-04-05T07:43:51.103Z</time></trkpt><trkpt lat="43.58058" lon="10.7194383"><ele>40.0</ele><time>2026-04-05T07:43:52.103Z</time></trkpt><trkpt lat="43.5806617" lon="10.7196483"><ele>40.0</ele><time>2026-04-05T07:43:53.103Z</time></trkpt><trkpt lat="43.5807533" lon="10.7198483"><ele>40.0</ele><time>2026-04-05T07:43:54.103Z</time></trkpt><trkpt lat="43.5808567" lon="10.7200417"><ele>40.0</ele><time>2026-04-05T07:43:55.103Z</time></trkpt><trkpt lat="43.5809667" lon="10.7202267"><ele>40.0</ele><time>2026-04-05T07:43:56.103Z</time></trkpt><trkpt lat="43.58108" lon="10.7204017"><ele>40.0</ele><time>2026-04-05T07:43:57.103Z</time></trkpt><trkpt lat="43.581195" lon="10.7205817"><ele>40.0</ele><time>2026-04-05T07:43:58.103Z</time></trkpt><trkpt lat="43.5813133" lon="10.7207617"><ele>40.0</ele><time>2026-04-05T07:43:59.103Z</time></trkpt><trkpt lat="43.581435" lon="10.720945"><ele>40.0</ele><time>2026-04-05T07:44:00.103Z</time></trkpt><trkpt lat="43.5815583" lon="10.7211333"><ele>40.0</ele><time>2026-04-05T07:44:01.103Z</time></trkpt><trkpt lat="43.5816817" lon="10.721325"><ele>40.0</ele><time>2026-04-05T07:44:02.103Z</time></trkpt><trkpt lat="43.5818033" lon="10.7215083"><ele>40.0</ele><time>2026-04-05T07:44:03.102Z</time></trkpt><trkpt lat="43.5819217" lon="10.7216917"><ele>39.66666666666667</ele><time>2026-04-05T07:44:04.103Z</time></trkpt><trkpt lat="43.5820383" lon="10.72187"><ele>39.333333333333336</ele><time>2026-04-05T07:44:05.103Z</time></trkpt><trkpt lat="43.5821483" lon="10.72204"><ele>39.0</ele><time>2026-04-05T07:44:06.103Z</time></trkpt><trkpt lat="43.5822517" lon="10.7222"><ele>39.5</ele><time>2026-04-05T07:44:07.103Z</time></trkpt><trkpt lat="43.5823517" lon="10.7223517"><ele>40.0</ele><time>2026-04-05T07:44:08.103Z</time></trkpt><trkpt lat="43.5824417" lon="10.722485"><ele>40.5</ele><time>2026-04-05T07:44:09.103Z</time></trkpt><trkpt lat="43.58252" lon="10.722605"><ele>41.0</ele><time>2026-04-05T07:44:10.103Z</time></trkpt><trkpt lat="43.5825767" lon="10.7227167"><ele>42.199999999999996</ele><time>2026-04-05T07:44:11.103Z</time></trkpt><trkpt lat="43.5826133" lon="10.722815"><ele>43.4</ele><time>2026-04-05T07:44:12.103Z</time></trkpt><trkpt lat="43.5826333" lon="10.7229067"><ele>44.6</ele><time>2026-04-05T07:44:13.103Z</time></trkpt><trkpt lat="43.5826267" lon="10.7230733"><ele>45.8</ele><time>2026-04-05T07:44:15.103Z</time></trkpt><trkpt lat="43.5825467" lon="10.7232133"><ele>47.0</ele><time>2026-04-05T07:44:17.103Z</time></trkpt><trkpt lat="43.5824717" lon="10.7232917"><ele>47.0</ele><time>2026-04-05T07:44:18.102Z</time></trkpt><trkpt lat="43.5823817" lon="10.7233733"><ele>47.0</ele><time>2026-04-05T07:44:19.103Z</time></trkpt><trkpt lat="43.582275" lon="10.7234567"><ele>47.0</ele><time>2026-04-05T07:44:20.103Z</time></trkpt><trkpt lat="43.5821733" lon="10.723545"><ele>47.0</ele><time>2026-04-05T07:44:21.103Z</time></trkpt><trkpt lat="43.5820717" lon="10.72364"><ele>47.0</ele><time>2026-04-05T07:44:22.103Z</time></trkpt><trkpt lat="43.581965" lon="10.7237467"><ele>47.0</ele><time>2026-04-05T07:44:23.103Z</time></trkpt><trkpt lat="43.5818617" lon="10.7238633"><ele>47.0</ele><time>2026-04-05T07:44:24.103Z</time></trkpt><trkpt lat="43.5817583" lon="10.723995"><ele>47.0</ele><time>2026-04-05T07:44:25.103Z</time></trkpt><trkpt lat="43.58166" lon="10.724135"><ele>47.0</ele><time>2026-04-05T07:44:26.103Z</time></trkpt><trkpt lat="43.5815617" lon="10.724285"><ele>47.0</ele><time>2026-04-05T07:44:27.103Z</time></trkpt><trkpt lat="43.5814683" lon="10.7244433"><ele>47.0</ele><time>2026-04-05T07:44:28.103Z</time></trkpt><trkpt lat="43.58138" lon="10.72461"><ele>47.0</ele><time>2026-04-05T07:44:29.102Z</time></trkpt><trkpt lat="43.5812933" lon="10.7247833"><ele>47.33333333333333</ele><time>2026-04-05T07:44:30.103Z</time></trkpt><trkpt lat="43.5812067" lon="10.72496"><ele>47.666666666666664</ele><time>2026-04-05T07:44:31.103Z</time></trkpt><trkpt lat="43.58112" lon="10.7251417"><ele>48.0</ele><time>2026-04-05T07:44:32.103Z</time></trkpt><trkpt lat="43.5810317" lon="10.725325"><ele>48.0</ele><time>2026-04-05T07:44:33.103Z</time></trkpt><trkpt lat="43.58094" lon="10.7255083"><ele>48.0</ele><time>2026-04-05T07:44:34.103Z</time></trkpt><trkpt lat="43.58085" lon="10.725695"><ele>48.0</ele><time>2026-04-05T07:44:35.103Z</time></trkpt><trkpt lat="43.58076" lon="10.7258767"><ele>48.33333333333333</ele><time>2026-04-05T07:44:36.103Z</time></trkpt><trkpt lat="43.5806717" lon="10.7260617"><ele>48.666666666666664</ele><time>2026-04-05T07:44:37.103Z</time></trkpt><trkpt lat="43.58058" lon="10.7262417"><ele>49.0</ele><time>2026-04-05T07:44:38.103Z</time></trkpt><trkpt lat="43.5804817" lon="10.7264117"><ele>49.0</ele><time>2026-04-05T07:44:39.103Z</time></trkpt><trkpt lat="43.5803683" lon="10.7265617"><ele>49.0</ele><time>2026-04-05T07:44:40.103Z</time></trkpt><trkpt lat="43.5802383" lon="10.7266917"><ele>49.0</ele><time>2026-04-05T07:44:41.103Z</time></trkpt><trkpt lat="43.5800917" lon="10.726795"><ele>47.666666666666664</ele><time>2026-04-05T07:44:42.103Z</time></trkpt><trkpt lat="43.5799333" lon="10.7268733"><ele>46.33333333333333</ele><time>2026-04-05T07:44:43.103Z</time></trkpt><trkpt lat="43.5797633" lon="10.7269267"><ele>45.0</ele><time>2026-04-05T07:44:44.103Z</time></trkpt><trkpt lat="43.5795833" lon="10.7269567"><ele>44.333333333333336</ele><time>2026-04-05T07:44:45.103Z</time></trkpt><trkpt lat="43.5794033" lon="10.7269733"><ele>43.66666666666667</ele><time>2026-04-05T07:44:46.103Z</time></trkpt><trkpt lat="43.579225" lon="10.72699"><ele>43.0</ele><time>2026-04-05T07:44:47.103Z</time></trkpt><trkpt lat="43.5790433" lon="10.7270067"><ele>43.0</ele><time>2026-04-05T07:44:48.103Z</time></trkpt><trkpt lat="43.5788617" lon="10.7270267"><ele>43.0</ele><time>2026-04-05T07:44:49.103Z</time></trkpt><trkpt lat="43.57868" lon="10.72705"><ele>43.0</ele><time>2026-04-05T07:44:50.103Z</time></trkpt><trkpt lat="43.5785" lon="10.7270717"><ele>43.0</ele><time>2026-04-05T07:44:51.103Z</time></trkpt><trkpt lat="43.5783183" lon="10.727095"><ele>43.0</ele><time>2026-04-05T07:44:52.103Z</time></trkpt><trkpt lat="43.5781383" lon="10.727115"><ele>43.0</ele><time>2026-04-05T07:44:53.103Z</time></trkpt><trkpt lat="43.57796" lon="10.7271317"><ele>44.0</ele><time>2026-04-05T07:44:54.103Z</time></trkpt><trkpt lat="43.5777817" lon="10.7271483"><ele>45.0</ele><time>2026-04-05T07:44:55.103Z</time></trkpt><trkpt lat="43.5776067" lon="10.727155"><ele>46.0</ele><time>2026-04-05T07:44:56.103Z</time></trkpt><trkpt lat="43.5774283" lon="10.7271483"><ele>46.0</ele><time>2026-04-05T07:44:57.103Z</time></trkpt><trkpt lat="43.57725" lon="10.72712"><ele>46.0</ele><time>2026-04-05T07:44:58.103Z</time></trkpt><trkpt lat="43.5770767" lon="10.7270767"><ele>46.0</ele><time>2026-04-05T07:44:59.103Z</time></trkpt><trkpt lat="43.5769083" lon="10.7270233"><ele>47.333333333333336</ele><time>2026-04-05T07:45:00.103Z</time></trkpt><trkpt lat="43.5767417" lon="10.7269717"><ele>48.66666666666667</ele><time>2026-04-05T07:45:01.103Z</time></trkpt><trkpt lat="43.5765717" lon="10.7269283"><ele>50.0</ele><time>2026-04-05T07:45:02.103Z</time></trkpt><trkpt lat="43.5763983" lon="10.72689"><ele>50.0</ele><time>2026-04-05T07:45:03.103Z</time></trkpt><trkpt lat="43.5762283" lon="10.72686"><ele>50.0</ele><time>2026-04-05T07:45:04.103Z</time></trkpt><trkpt lat="43.5760583" lon="10.7268467"><ele>50.0</ele><time>2026-04-05T07:45:05.103Z</time></trkpt><trkpt lat="43.5758833" lon="10.7268533"><ele>50.333333333333336</ele><time>2026-04-05T07:45:06.103Z</time></trkpt><trkpt lat="43.5757083" lon="10.7268667"><ele>50.66666666666667</ele><time>2026-04-05T07:45:07.103Z</time></trkpt><trkpt lat="43.575535" lon="10.7268867"><ele>51.0</ele><time>2026-04-05T07:45:08.103Z</time></trkpt><trkpt lat="43.57536" lon="10.7269083"><ele>56.33333333333333</ele><time>2026-04-05T07:45:09.103Z</time></trkpt><trkpt lat="43.575185" lon="10.72693"><ele>61.666666666666664</ele><time>2026-04-05T07:45:10.103Z</time></trkpt><trkpt lat="43.5750067" lon="10.72695"><ele>67.0</ele><time>2026-04-05T07:45:11.103Z</time></trkpt><trkpt lat="43.57483" lon="10.726975"><ele>67.0</ele><time>2026-04-05T07:45:12.103Z</time></trkpt><trkpt lat="43.5746533" lon="10.7270017"><ele>67.0</ele><time>2026-04-05T07:45:13.103Z</time></trkpt><trkpt lat="43.5744733" lon="10.7270233"><ele>67.0</ele><time>2026-04-05T07:45:14.102Z</time></trkpt><trkpt lat="43.5742967" lon="10.727045"><ele>67.0</ele><time>2026-04-05T07:45:15.103Z</time></trkpt><trkpt lat="43.5741183" lon="10.7270683"><ele>67.0</ele><time>2026-04-05T07:45:16.103Z</time></trkpt><trkpt lat="43.5739417" lon="10.7270917"><ele>67.0</ele><time>2026-04-05T07:45:17.102Z</time></trkpt><trkpt lat="43.5737617" lon="10.7271117"><ele>67.66666666666666</ele><time>2026-04-05T07:45:18.102Z</time></trkpt><trkpt lat="43.5735833" lon="10.7271383"><ele>68.33333333333333</ele><time>2026-04-05T07:45:19.103Z</time></trkpt><trkpt lat="43.5734017" lon="10.727165"><ele>69.0</ele><time>2026-04-05T07:45:20.103Z</time></trkpt><trkpt lat="43.5732333" lon="10.7271917"><ele>69.0</ele><time>2026-04-05T07:45:21.103Z</time></trkpt><trkpt lat="43.5730617" lon="10.7272233"><ele>69.0</ele><time>2026-04-05T07:45:22.102Z</time></trkpt><trkpt lat="43.57289" lon="10.7272467"><ele>69.0</ele><time>2026-04-05T07:45:23.103Z</time></trkpt><trkpt lat="43.5727217" lon="10.7272667"><ele>67.33333333333333</ele><time>2026-04-05T07:45:24.103Z</time></trkpt><trkpt lat="43.57255" lon="10.7272883"><ele>65.66666666666666</ele><time>2026-04-05T07:45:25.103Z</time></trkpt><trkpt lat="43.5723817" lon="10.7273117"><ele>64.0</ele><time>2026-04-05T07:45:26.102Z</time></trkpt><trkpt lat="43.5722133" lon="10.7273433"><ele>64.0</ele><time>2026-04-05T07:45:27.103Z</time></trkpt><trkpt lat="43.5720467" lon="10.7273867"><ele>64.0</ele><time>2026-04-05T07:45:28.103Z</time></trkpt><trkpt lat="43.57188" lon="10.7274367"><ele>64.0</ele><time>2026-04-05T07:45:29.103Z</time></trkpt><trkpt lat="43.5717183" lon="10.7275"><ele>62.666666666666664</ele><time>2026-04-05T07:45:30.103Z</time></trkpt><trkpt lat="43.571555" lon="10.7275767"><ele>61.33333333333333</ele><time>2026-04-05T07:45:31.103Z</time></trkpt><trkpt lat="43.571395" lon="10.7276633"><ele>60.0</ele><time>2026-04-05T07:45:32.103Z</time></trkpt><trkpt lat="43.5712367" lon="10.7277517"><ele>58.66666666666667</ele><time>2026-04-05T07:45:33.103Z</time></trkpt><trkpt lat="43.57108" lon="10.72784"><ele>57.333333333333336</ele><time>2026-04-05T07:45:34.103Z</time></trkpt><trkpt lat="43.5709183" lon="10.7279267"><ele>56.0</ele><time>2026-04-05T07:45:35.103Z</time></trkpt><trkpt lat="43.5707533" lon="10.7280083"><ele>56.0</ele><time>2026-04-05T07:45:36.103Z</time></trkpt><trkpt lat="43.5705867" lon="10.728095"><ele>56.0</ele><time>2026-04-05T07:45:37.103Z</time></trkpt><trkpt lat="43.5704217" lon="10.7281817"><ele>56.0</ele><time>2026-04-05T07:45:38.102Z</time></trkpt><trkpt lat="43.5702533" lon="10.728265"><ele>53.333333333333336</ele><time>2026-04-05T07:45:39.103Z</time></trkpt><trkpt lat="43.5700867" lon="10.72835"><ele>50.66666666666667</ele><time>2026-04-05T07:45:40.103Z</time></trkpt><trkpt lat="43.5699233" lon="10.7284417"><ele>48.0</ele><time>2026-04-05T07:45:41.103Z</time></trkpt><trkpt lat="43.56976" lon="10.72853"><ele>48.0</ele><time>2026-04-05T07:45:42.103Z</time></trkpt><trkpt lat="43.5695933" lon="10.7286183"><ele>48.0</ele><time>2026-04-05T07:45:43.103Z</time></trkpt><trkpt lat="43.56943" lon="10.728705"><ele>48.0</ele><time>2026-04-05T07:45:44.103Z</time></trkpt><trkpt lat="43.56927" lon="10.7287967"><ele>48.33333333333333</ele><time>2026-04-05T07:45:45.103Z</time></trkpt><trkpt lat="43.5691117" lon="10.7288983"><ele>48.666666666666664</ele><time>2026-04-05T07:45:46.103Z</time></trkpt><trkpt lat="43.5689583" lon="10.72901"><ele>49.0</ele><time>2026-04-05T07:45:47.103Z</time></trkpt><trkpt lat="43.568815" lon="10.7291317"><ele>48.33333333333333</ele><time>2026-04-05T07:45:48.103Z</time></trkpt><trkpt lat="43.5686783" lon="10.72927"><ele>47.666666666666664</ele><time>2026-04-05T07:45:49.103Z</time></trkpt><trkpt lat="43.56855" lon="10.7294283"><ele>47.0</ele><time>2026-04-05T07:45:50.103Z</time></trkpt><trkpt lat="43.56843" lon="10.7295983"><ele>49.0</ele><time>2026-04-05T07:45:51.103Z</time></trkpt><trkpt lat="43.5683167" lon="10.7297817"><ele>51.0</ele><time>2026-04-05T07:45:52.103Z</time></trkpt><trkpt lat="43.568205" lon="10.729965"><ele>53.0</ele><time>2026-04-05T07:45:53.103Z</time></trkpt><trkpt lat="43.5680983" lon="10.73015"><ele>54.333333333333336</ele><time>2026-04-05T07:45:54.103Z</time></trkpt><trkpt lat="43.5679983" lon="10.73034"><ele>55.66666666666667</ele><time>2026-04-05T07:45:55.103Z</time></trkpt><trkpt lat="43.5679083" lon="10.7305383"><ele>57.0</ele><time>2026-04-05T07:45:56.103Z</time></trkpt><trkpt lat="43.56783" lon="10.7307467"><ele>54.66666666666667</ele><time>2026-04-05T07:45:57.103Z</time></trkpt><trkpt lat="43.5677633" lon="10.7309617"><ele>52.333333333333336</ele><time>2026-04-05T07:45:58.103Z</time></trkpt><trkpt lat="43.567715" lon="10.7311833"><ele>50.0</ele><time>2026-04-05T07:45:59.103Z</time></trkpt><trkpt lat="43.5676017" lon="10.7318767"><ele>50.0</ele><time>2026-04-05T07:46:02.103Z</time></trkpt><trkpt lat="43.5675767" lon="10.7321117"><ele>50.0</ele><time>2026-04-05T07:46:03.102Z</time></trkpt><trkpt lat="43.567555" lon="10.73235"><ele>50.0</ele><time>2026-04-05T07:46:04.103Z</time></trkpt><trkpt lat="43.56753" lon="10.7325833"><ele>49.66666666666667</ele><time>2026-04-05T07:46:05.103Z</time></trkpt><trkpt lat="43.5675017" lon="10.732815"><ele>49.33333333333333</ele><time>2026-04-05T07:46:06.103Z</time></trkpt><trkpt lat="43.5674717" lon="10.7330467"><ele>49.0</ele><time>2026-04-05T07:46:07.103Z</time></trkpt><trkpt lat="43.5674433" lon="10.7332783"><ele>49.0</ele><time>2026-04-05T07:46:08.103Z</time></trkpt><trkpt lat="43.567415" lon="10.73351"><ele>49.0</ele><time>2026-04-05T07:46:09.103Z</time></trkpt><trkpt lat="43.5673867" lon="10.73374"><ele>49.0</ele><time>2026-04-05T07:46:10.103Z</time></trkpt><trkpt lat="43.5673583" lon="10.7339733"><ele>50.0</ele><time>2026-04-05T07:46:11.103Z</time></trkpt><trkpt lat="43.5673317" lon="10.7342067"><ele>51.0</ele><time>2026-04-05T07:46:12.103Z</time></trkpt><trkpt lat="43.567305" lon="10.73444"><ele>52.0</ele><time>2026-04-05T07:46:13.103Z</time></trkpt><trkpt lat="43.5672783" lon="10.7346733"><ele>53.0</ele><time>2026-04-05T07:46:14.103Z</time></trkpt><trkpt lat="43.5672533" lon="10.7349067"><ele>54.0</ele><time>2026-04-05T07:46:15.103Z</time></trkpt><trkpt lat="43.5672233" lon="10.7351383"><ele>55.0</ele><time>2026-04-05T07:46:16.103Z</time></trkpt><trkpt lat="43.5671867" lon="10.735365"><ele>55.0</ele><time>2026-04-05T07:46:17.103Z</time></trkpt><trkpt lat="43.5671367" lon="10.73559"><ele>55.0</ele><time>2026-04-05T07:46:18.103Z</time></trkpt><trkpt lat="43.5670733" lon="10.73581"><ele>55.0</ele><time>2026-04-05T07:46:19.103Z</time></trkpt><trkpt lat="43.5669983" lon="10.73602"><ele>53.0</ele><time>2026-04-05T07:46:20.102Z</time></trkpt><trkpt lat="43.566905" lon="10.7362217"><ele>51.0</ele><time>2026-04-05T07:46:21.103Z</time></trkpt><trkpt lat="43.5668" lon="10.7364167"><ele>49.0</ele><time>2026-04-05T07:46:22.103Z</time></trkpt><trkpt lat="43.566695" lon="10.7366033"><ele>49.0</ele><time>2026-04-05T07:46:23.103Z</time></trkpt><trkpt lat="43.5665817" lon="10.7367983"><ele>49.0</ele><time>2026-04-05T07:46:24.103Z</time></trkpt><trkpt lat="43.566475" lon="10.73699"><ele>49.0</ele><time>2026-04-05T07:46:25.103Z</time></trkpt><trkpt lat="43.566365" lon="10.7371833"><ele>48.666666666666664</ele><time>2026-04-05T07:46:26.103Z</time></trkpt><trkpt lat="43.5662533" lon="10.737375"><ele>48.33333333333333</ele><time>2026-04-05T07:46:27.103Z</time></trkpt><trkpt lat="43.5661417" lon="10.7375667"><ele>48.0</ele><time>2026-04-05T07:46:28.103Z</time></trkpt><trkpt lat="43.5660317" lon="10.73776"><ele>49.0</ele><time>2026-04-05T07:46:29.103Z</time></trkpt><trkpt lat="43.5659217" lon="10.7379517"><ele>50.0</ele><time>2026-04-05T07:46:30.103Z</time></trkpt><trkpt lat="43.5658133" lon="10.7381433"><ele>51.0</ele><time>2026-04-05T07:46:31.103Z</time></trkpt><trkpt lat="43.565705" lon="10.7383333"><ele>51.0</ele><time>2026-04-05T07:46:32.103Z</time></trkpt><trkpt lat="43.5655967" lon="10.7385233"><ele>51.0</ele><time>2026-04-05T07:46:33.102Z</time></trkpt><trkpt lat="43.5654883" lon="10.73871"><ele>51.0</ele><time>2026-04-05T07:46:34.103Z</time></trkpt><trkpt lat="43.5653833" lon="10.7388967"><ele>51.0</ele><time>2026-04-05T07:46:35.102Z</time></trkpt><trkpt lat="43.56528" lon="10.7390833"><ele>51.0</ele><time>2026-04-05T07:46:36.103Z</time></trkpt><trkpt lat="43.565175" lon="10.7392683"><ele>51.0</ele><time>2026-04-05T07:46:37.103Z</time></trkpt><trkpt lat="43.56507" lon="10.7394533"><ele>52.0</ele><time>2026-04-05T07:46:38.103Z</time></trkpt><trkpt lat="43.5649667" lon="10.73964"><ele>53.0</ele><time>2026-04-05T07:46:39.103Z</time></trkpt><trkpt lat="43.5646533" lon="10.7402017"><ele>53.0</ele><time>2026-04-05T07:46:42.103Z</time></trkpt><trkpt lat="43.56455" lon="10.7403917"><ele>53.0</ele><time>2026-04-05T07:46:43.103Z</time></trkpt><trkpt lat="43.5644433" lon="10.7405867"><ele>53.0</ele><time>2026-04-05T07:46:44.103Z</time></trkpt><trkpt lat="43.5643317" lon="10.7407817"><ele>52.333333333333336</ele><time>2026-04-05T07:46:45.103Z</time></trkpt><trkpt lat="43.5642233" lon="10.74098"><ele>51.66666666666667</ele><time>2026-04-05T07:46:46.103Z</time></trkpt><trkpt lat="43.5641117" lon="10.7411733"><ele>51.0</ele><time>2026-04-05T07:46:47.102Z</time></trkpt><trkpt lat="43.5640017" lon="10.74137"><ele>52.33333333333333</ele><time>2026-04-05T07:46:48.102Z</time></trkpt><trkpt lat="43.563895" lon="10.7415617"><ele>53.666666666666664</ele><time>2026-04-05T07:46:49.103Z</time></trkpt><trkpt lat="43.5637883" lon="10.7417533"><ele>55.0</ele><time>2026-04-05T07:46:50.103Z</time></trkpt><trkpt lat="43.5636783" lon="10.741945"><ele>55.0</ele><time>2026-04-05T07:46:51.103Z</time></trkpt><trkpt lat="43.56357" lon="10.7421417"><ele>55.0</ele><time>2026-04-05T07:46:52.103Z</time></trkpt><trkpt lat="43.56346" lon="10.7423367"><ele>55.0</ele><time>2026-04-05T07:46:53.103Z</time></trkpt><trkpt lat="43.5633533" lon="10.7425333"><ele>56.0</ele><time>2026-04-05T07:46:54.103Z</time></trkpt><trkpt lat="43.5632467" lon="10.7427283"><ele>57.0</ele><time>2026-04-05T07:46:55.103Z</time></trkpt><trkpt lat="43.5631417" lon="10.7429183"><ele>58.0</ele><time>2026-04-05T07:46:56.103Z</time></trkpt><trkpt lat="43.5630333" lon="10.7431117"><ele>58.0</ele><time>2026-04-05T07:46:57.103Z</time></trkpt><trkpt lat="43.5629233" lon="10.7433017"><ele>58.0</ele><time>2026-04-05T07:46:58.102Z</time></trkpt><trkpt lat="43.5628133" lon="10.743495"><ele>58.0</ele><time>2026-04-05T07:46:59.103Z</time></trkpt><trkpt lat="43.562705" lon="10.7436867"><ele>57.0</ele><time>2026-04-05T07:47:00.103Z</time></trkpt><trkpt lat="43.5626" lon="10.7438833"><ele>56.0</ele><time>2026-04-05T07:47:01.103Z</time></trkpt><trkpt lat="43.5625" lon="10.7440833"><ele>55.0</ele><time>2026-04-05T07:47:02.103Z</time></trkpt><trkpt lat="43.5624117" lon="10.744295"><ele>56.0</ele><time>2026-04-05T07:47:03.103Z</time></trkpt><trkpt lat="43.56234" lon="10.7445183"><ele>57.0</ele><time>2026-04-05T07:47:04.103Z</time></trkpt><trkpt lat="43.5622783" lon="10.7447483"><ele>58.0</ele><time>2026-04-05T07:47:05.103Z</time></trkpt><trkpt lat="43.56223" lon="10.744985"><ele>58.0</ele><time>2026-04-05T07:47:06.102Z</time></trkpt><trkpt lat="43.562195" lon="10.7452267"><ele>58.0</ele><time>2026-04-05T07:47:07.103Z</time></trkpt><trkpt lat="43.56217" lon="10.7454683"><ele>58.0</ele><time>2026-04-05T07:47:08.103Z</time></trkpt><trkpt lat="43.562155" lon="10.7457117"><ele>58.0</ele><time>2026-04-05T07:47:09.103Z</time></trkpt><trkpt lat="43.562145" lon="10.7459583"><ele>58.0</ele><time>2026-04-05T07:47:10.103Z</time></trkpt><trkpt lat="43.5621433" lon="10.746205"><ele>58.0</ele><time>2026-04-05T07:47:11.103Z</time></trkpt><trkpt lat="43.5621533" lon="10.7464483"><ele>56.666666666666664</ele><time>2026-04-05T07:47:12.103Z</time></trkpt><trkpt lat="43.56218" lon="10.7466883"><ele>55.33333333333333</ele><time>2026-04-05T07:47:13.103Z</time></trkpt><trkpt lat="43.5622217" lon="10.7469217"><ele>54.0</ele><time>2026-04-05T07:47:14.102Z</time></trkpt><trkpt lat="43.562275" lon="10.747155"><ele>53.66666666666667</ele><time>2026-04-05T07:47:15.103Z</time></trkpt><trkpt lat="43.5623383" lon="10.7473817"><ele>53.333333333333336</ele><time>2026-04-05T07:47:16.103Z</time></trkpt><trkpt lat="43.56241" lon="10.7476"><ele>53.0</ele><time>2026-04-05T07:47:17.103Z</time></trkpt><trkpt lat="43.5624833" lon="10.7478217"><ele>53.0</ele><time>2026-04-05T07:47:18.103Z</time></trkpt><trkpt lat="43.56256" lon="10.7480433"><ele>53.0</ele><time>2026-04-05T07:47:19.103Z</time></trkpt><trkpt lat="43.562635" lon="10.748265"><ele>53.0</ele><time>2026-04-05T07:47:20.103Z</time></trkpt><trkpt lat="43.5627117" lon="10.7484883"><ele>52.5</ele><time>2026-04-05T07:47:21.103Z</time></trkpt><trkpt lat="43.5628633" lon="10.7489267"><ele>52.0</ele><time>2026-04-05T07:47:23.102Z</time></trkpt><trkpt lat="43.5629383" lon="10.7491483"><ele>53.33333333333333</ele><time>2026-04-05T07:47:24.103Z</time></trkpt><trkpt lat="43.5630133" lon="10.7493717"><ele>54.66666666666667</ele><time>2026-04-05T07:47:25.103Z</time></trkpt><trkpt lat="43.56309" lon="10.7495933"><ele>56.0</ele><time>2026-04-05T07:47:26.103Z</time></trkpt><trkpt lat="43.563165" lon="10.7498133"><ele>56.333333333333336</ele><time>2026-04-05T07:47:27.103Z</time></trkpt><trkpt lat="43.5632367" lon="10.750035"><ele>56.66666666666667</ele><time>2026-04-05T07:47:28.103Z</time></trkpt><trkpt lat="43.5633117" lon="10.7502533"><ele>57.0</ele><time>2026-04-05T07:47:29.103Z</time></trkpt><trkpt lat="43.5633867" lon="10.75047"><ele>55.66666666666667</ele><time>2026-04-05T07:47:30.103Z</time></trkpt><trkpt lat="43.5634617" lon="10.7506833"><ele>54.333333333333336</ele><time>2026-04-05T07:47:31.102Z</time></trkpt><trkpt lat="43.563535" lon="10.7508917"><ele>53.0</ele><time>2026-04-05T07:47:32.103Z</time></trkpt><trkpt lat="43.5636067" lon="10.7511017"><ele>53.0</ele><time>2026-04-05T07:47:33.103Z</time></trkpt><trkpt lat="43.5636767" lon="10.7513133"><ele>53.0</ele><time>2026-04-05T07:47:34.103Z</time></trkpt><trkpt lat="43.5637467" lon="10.7515267"><ele>53.0</ele><time>2026-04-05T07:47:35.103Z</time></trkpt><trkpt lat="43.5638167" lon="10.75174"><ele>55.333333333333336</ele><time>2026-04-05T07:47:36.103Z</time></trkpt><trkpt lat="43.563885" lon="10.7519517"><ele>57.66666666666667</ele><time>2026-04-05T07:47:37.103Z</time></trkpt><trkpt lat="43.5639517" lon="10.752165"><ele>60.0</ele><time>2026-04-05T07:47:38.103Z</time></trkpt><trkpt lat="43.56402" lon="10.7523767"><ele>60.0</ele><time>2026-04-05T07:47:39.103Z</time></trkpt><trkpt lat="43.5640933" lon="10.752585"><ele>60.0</ele><time>2026-04-05T07:47:40.103Z</time></trkpt><trkpt lat="43.5641767" lon="10.7527867"><ele>60.0</ele><time>2026-04-05T07:47:41.103Z</time></trkpt><trkpt lat="43.5642683" lon="10.7529833"><ele>58.0</ele><time>2026-04-05T07:47:42.103Z</time></trkpt><trkpt lat="43.56437" lon="10.753175"><ele>56.0</ele><time>2026-04-05T07:47:43.103Z</time></trkpt><trkpt lat="43.5644817" lon="10.7533567"><ele>54.0</ele><time>2026-04-05T07:47:44.103Z</time></trkpt><trkpt lat="43.564605" lon="10.7535233"><ele>55.0</ele><time>2026-04-05T07:47:45.103Z</time></trkpt><trkpt lat="43.564735" lon="10.7536817"><ele>56.0</ele><time>2026-04-05T07:47:46.103Z</time></trkpt><trkpt lat="43.5648767" lon="10.7538267"><ele>57.0</ele><time>2026-04-05T07:47:47.103Z</time></trkpt><trkpt lat="43.565025" lon="10.7539633"><ele>57.0</ele><time>2026-04-05T07:47:48.103Z</time></trkpt><trkpt lat="43.5651783" lon="10.75409"><ele>57.0</ele><time>2026-04-05T07:47:49.103Z</time></trkpt><trkpt lat="43.56533" lon="10.7542167"><ele>57.0</ele><time>2026-04-05T07:47:50.103Z</time></trkpt><trkpt lat="43.5654817" lon="10.7543483"><ele>56.66666666666667</ele><time>2026-04-05T07:47:51.103Z</time></trkpt><trkpt lat="43.565635" lon="10.7544783"><ele>56.333333333333336</ele><time>2026-04-05T07:47:52.103Z</time></trkpt><trkpt lat="43.5657883" lon="10.7546"><ele>56.0</ele><time>2026-04-05T07:47:53.102Z</time></trkpt><trkpt lat="43.5659433" lon="10.7547183"><ele>56.0</ele><time>2026-04-05T07:47:54.103Z</time></trkpt><trkpt lat="43.5660967" lon="10.754845"><ele>56.0</ele><time>2026-04-05T07:47:55.102Z</time></trkpt><trkpt lat="43.5662517" lon="10.7549717"><ele>56.0</ele><time>2026-04-05T07:47:56.103Z</time></trkpt><trkpt lat="43.5664067" lon="10.7551"><ele>55.333333333333336</ele><time>2026-04-05T07:47:57.103Z</time></trkpt><trkpt lat="43.5665617" lon="10.755225"><ele>54.66666666666667</ele><time>2026-04-05T07:47:58.103Z</time></trkpt><trkpt lat="43.5667167" lon="10.7553517"><ele>54.0</ele><time>2026-04-05T07:47:59.103Z</time></trkpt><trkpt lat="43.5668683" lon="10.75548"><ele>54.0</ele><time>2026-04-05T07:48:00.103Z</time></trkpt><trkpt lat="43.56702" lon="10.75561"><ele>54.0</ele><time>2026-04-05T07:48:01.103Z</time></trkpt><trkpt lat="43.5671717" lon="10.7557417"><ele>54.0</ele><time>2026-04-05T07:48:02.102Z</time></trkpt><trkpt lat="43.5673233" lon="10.7558717"><ele>54.66666666666667</ele><time>2026-04-05T07:48:03.103Z</time></trkpt><trkpt lat="43.567475" lon="10.756"><ele>55.333333333333336</ele><time>2026-04-05T07:48:04.103Z</time></trkpt><trkpt lat="43.5676267" lon="10.7561283"><ele>56.0</ele><time>2026-04-05T07:48:05.103Z</time></trkpt><trkpt lat="43.567775" lon="10.756255"><ele>57.0</ele><time>2026-04-05T07:48:06.103Z</time></trkpt><trkpt lat="43.567925" lon="10.75638"><ele>58.0</ele><time>2026-04-05T07:48:07.103Z</time></trkpt><trkpt lat="43.5680733" lon="10.7565033"><ele>59.0</ele><time>2026-04-05T07:48:08.103Z</time></trkpt><trkpt lat="43.568225" lon="10.7566267"><ele>59.0</ele><time>2026-04-05T07:48:09.103Z</time></trkpt><trkpt lat="43.568375" lon="10.75675"><ele>59.0</ele><time>2026-04-05T07:48:10.103Z</time></trkpt><trkpt lat="43.568525" lon="10.7568733"><ele>59.0</ele><time>2026-04-05T07:48:11.103Z</time></trkpt><trkpt lat="43.5686717" lon="10.7570017"><ele>58.333333333333336</ele><time>2026-04-05T07:48:12.103Z</time></trkpt><trkpt lat="43.5688217" lon="10.757125"><ele>57.66666666666667</ele><time>2026-04-05T07:48:13.103Z</time></trkpt><trkpt lat="43.5689733" lon="10.7572433"><ele>57.0</ele><time>2026-04-05T07:48:14.103Z</time></trkpt><trkpt lat="43.5691233" lon="10.7573667"><ele>57.0</ele><time>2026-04-05T07:48:15.103Z</time></trkpt><trkpt lat="43.5692717" lon="10.7574917"><ele>57.0</ele><time>2026-04-05T07:48:16.103Z</time></trkpt><trkpt lat="43.5694217" lon="10.7576183"><ele>57.0</ele><time>2026-04-05T07:48:17.103Z</time></trkpt><trkpt lat="43.5695717" lon="10.757745"><ele>58.0</ele><time>2026-04-05T07:48:18.103Z</time></trkpt><trkpt lat="43.5697183" lon="10.7578683"><ele>59.0</ele><time>2026-04-05T07:48:19.103Z</time></trkpt><trkpt lat="43.5698667" lon="10.7579917"><ele>60.0</ele><time>2026-04-05T07:48:20.103Z</time></trkpt><trkpt lat="43.5700133" lon="10.7581167"><ele>60.0</ele><time>2026-04-05T07:48:21.103Z</time></trkpt><trkpt lat="43.570165" lon="10.7582417"><ele>60.0</ele><time>2026-04-05T07:48:22.103Z</time></trkpt><trkpt lat="43.5703167" lon="10.758365"><ele>60.0</ele><time>2026-04-05T07:48:23.103Z</time></trkpt><trkpt lat="43.5704683" lon="10.7584883"><ele>59.33333333333333</ele><time>2026-04-05T07:48:24.103Z</time></trkpt><trkpt lat="43.5706217" lon="10.7586133"><ele>58.666666666666664</ele><time>2026-04-05T07:48:25.103Z</time></trkpt><trkpt lat="43.5707717" lon="10.7587433"><ele>58.0</ele><time>2026-04-05T07:48:26.103Z</time></trkpt><trkpt lat="43.57092" lon="10.7588733"><ele>58.0</ele><time>2026-04-05T07:48:27.103Z</time></trkpt><trkpt lat="43.5710667" lon="10.7590117"><ele>58.0</ele><time>2026-04-05T07:48:28.103Z</time></trkpt><trkpt lat="43.5712083" lon="10.75916"><ele>58.0</ele><time>2026-04-05T07:48:29.103Z</time></trkpt><trkpt lat="43.5713467" lon="10.7593183"><ele>58.33333333333333</ele><time>2026-04-05T07:48:30.103Z</time></trkpt><trkpt lat="43.5714817" lon="10.7594833"><ele>58.66666666666667</ele><time>2026-04-05T07:48:31.103Z</time></trkpt><trkpt lat="43.57161" lon="10.7596567"><ele>59.0</ele><time>2026-04-05T07:48:32.103Z</time></trkpt><trkpt lat="43.5717283" lon="10.7598317"><ele>59.0</ele><time>2026-04-05T07:48:33.102Z</time></trkpt><trkpt lat="43.571845" lon="10.7600083"><ele>59.0</ele><time>2026-04-05T07:48:34.103Z</time></trkpt><trkpt lat="43.571965" lon="10.760185"><ele>59.0</ele><time>2026-04-05T07:48:35.103Z</time></trkpt><trkpt lat="43.572085" lon="10.76036"><ele>59.333333333333336</ele><time>2026-04-05T07:48:36.103Z</time></trkpt><trkpt lat="43.572205" lon="10.7605367"><ele>59.66666666666667</ele><time>2026-04-05T07:48:37.103Z</time></trkpt><trkpt lat="43.5723283" lon="10.7607117"><ele>60.0</ele><time>2026-04-05T07:48:38.103Z</time></trkpt><trkpt lat="43.5724483" lon="10.760885"><ele>59.33333333333333</ele><time>2026-04-05T07:48:39.103Z</time></trkpt><trkpt lat="43.5725667" lon="10.7610617"><ele>58.666666666666664</ele><time>2026-04-05T07:48:40.103Z</time></trkpt><trkpt lat="43.5726867" lon="10.7612383"><ele>58.0</ele><time>2026-04-05T07:48:41.103Z</time></trkpt><trkpt lat="43.572805" lon="10.761415"><ele>58.0</ele><time>2026-04-05T07:48:42.103Z</time></trkpt><trkpt lat="43.572925" lon="10.7615883"><ele>58.0</ele><time>2026-04-05T07:48:43.103Z</time></trkpt><trkpt lat="43.5730433" lon="10.7617667"><ele>58.0</ele><time>2026-04-05T07:48:44.103Z</time></trkpt><trkpt lat="43.573165" lon="10.76194"><ele>58.0</ele><time>2026-04-05T07:48:45.103Z</time></trkpt><trkpt lat="43.573285" lon="10.762115"><ele>58.0</ele><time>2026-04-05T07:48:46.103Z</time></trkpt><trkpt lat="43.5734017" lon="10.76229"><ele>58.0</ele><time>2026-04-05T07:48:47.103Z</time></trkpt><trkpt lat="43.5735233" lon="10.7624633"><ele>58.0</ele><time>2026-04-05T07:48:48.103Z</time></trkpt><trkpt lat="43.5736433" lon="10.7626367"><ele>58.0</ele><time>2026-04-05T07:48:49.102Z</time></trkpt><trkpt lat="43.5737633" lon="10.7628117"><ele>58.0</ele><time>2026-04-05T07:48:50.103Z</time></trkpt><trkpt lat="43.573885" lon="10.7629833"><ele>60.0</ele><time>2026-04-05T07:48:51.103Z</time></trkpt><trkpt lat="43.5740067" lon="10.7631533"><ele>62.0</ele><time>2026-04-05T07:48:52.102Z</time></trkpt><trkpt lat="43.5741267" lon="10.7633267"><ele>64.0</ele><time>2026-04-05T07:48:53.103Z</time></trkpt><trkpt lat="43.574245" lon="10.7635017"><ele>64.0</ele><time>2026-04-05T07:48:54.103Z</time></trkpt><trkpt lat="43.5743617" lon="10.7636783"><ele>64.0</ele><time>2026-04-05T07:48:55.103Z</time></trkpt><trkpt lat="43.57448" lon="10.7638517"><ele>64.0</ele><time>2026-04-05T07:48:56.103Z</time></trkpt><trkpt lat="43.5746017" lon="10.7640233"><ele>64.0</ele><time>2026-04-05T07:48:57.102Z</time></trkpt><trkpt lat="43.574725" lon="10.7641917"><ele>64.0</ele><time>2026-04-05T07:48:58.103Z</time></trkpt><trkpt lat="43.57485" lon="10.76436"><ele>64.0</ele><time>2026-04-05T07:48:59.103Z</time></trkpt><trkpt lat="43.5749783" lon="10.764525"><ele>63.0</ele><time>2026-04-05T07:49:00.103Z</time></trkpt><trkpt lat="43.5751067" lon="10.7646933"><ele>62.0</ele><time>2026-04-05T07:49:01.103Z</time></trkpt><trkpt lat="43.5752367" lon="10.76486"><ele>61.0</ele><time>2026-04-05T07:49:02.103Z</time></trkpt><trkpt lat="43.5753683" lon="10.76503"><ele>60.666666666666664</ele><time>2026-04-05T07:49:03.103Z</time></trkpt><trkpt lat="43.5755017" lon="10.7652"><ele>60.33333333333333</ele><time>2026-04-05T07:49:04.103Z</time></trkpt><trkpt lat="43.5756333" lon="10.76537"><ele>60.0</ele><time>2026-04-05T07:49:05.103Z</time></trkpt><trkpt lat="43.5757633" lon="10.765535"><ele>60.0</ele><time>2026-04-05T07:49:06.103Z</time></trkpt><trkpt lat="43.5758933" lon="10.7656983"><ele>60.0</ele><time>2026-04-05T07:49:07.103Z</time></trkpt><trkpt lat="43.5760217" lon="10.765865"><ele>60.0</ele><time>2026-04-05T07:49:08.103Z</time></trkpt><trkpt lat="43.5761483" lon="10.76603"><ele>60.0</ele><time>2026-04-05T07:49:09.103Z</time></trkpt><trkpt lat="43.576275" lon="10.7661917"><ele>60.0</ele><time>2026-04-05T07:49:10.103Z</time></trkpt><trkpt lat="43.5763983" lon="10.7663583"><ele>60.0</ele><time>2026-04-05T07:49:11.103Z</time></trkpt><trkpt lat="43.576525" lon="10.7665183"><ele>60.0</ele><time>2026-04-05T07:49:12.103Z</time></trkpt><trkpt lat="43.57665" lon="10.7666783"><ele>60.0</ele><time>2026-04-05T07:49:13.103Z</time></trkpt><trkpt lat="43.576775" lon="10.76684"><ele>60.0</ele><time>2026-04-05T07:49:14.103Z</time></trkpt><trkpt lat="43.5769" lon="10.767"><ele>61.0</ele><time>2026-04-05T07:49:15.103Z</time></trkpt><trkpt lat="43.5770283" lon="10.7671617"><ele>62.0</ele><time>2026-04-05T07:49:16.103Z</time></trkpt><trkpt lat="43.5771567" lon="10.7673233"><ele>63.0</ele><time>2026-04-05T07:49:17.103Z</time></trkpt><trkpt lat="43.577285" lon="10.7674833"><ele>63.0</ele><time>2026-04-05T07:49:18.103Z</time></trkpt><trkpt lat="43.5774183" lon="10.7676433"><ele>63.0</ele><time>2026-04-05T07:49:19.103Z</time></trkpt><trkpt lat="43.5775467" lon="10.7678033"><ele>63.0</ele><time>2026-04-05T07:49:20.103Z</time></trkpt><trkpt lat="43.577675" lon="10.76797"><ele>63.0</ele><time>2026-04-05T07:49:21.103Z</time></trkpt><trkpt lat="43.5777983" lon="10.76815"><ele>63.0</ele><time>2026-04-05T07:49:22.102Z</time></trkpt><trkpt lat="43.5779133" lon="10.7683417"><ele>63.0</ele><time>2026-04-05T07:49:23.103Z</time></trkpt><trkpt lat="43.5780217" lon="10.7685417"><ele>63.0</ele><time>2026-04-05T07:49:24.103Z</time></trkpt><trkpt lat="43.5781183" lon="10.7687483"><ele>63.0</ele><time>2026-04-05T07:49:25.103Z</time></trkpt><trkpt lat="43.578215" lon="10.7689583"><ele>63.0</ele><time>2026-04-05T07:49:26.103Z</time></trkpt><trkpt lat="43.5783067" lon="10.7691717"><ele>62.33333333333333</ele><time>2026-04-05T07:49:27.102Z</time></trkpt><trkpt lat="43.5784033" lon="10.7693817"><ele>61.666666666666664</ele><time>2026-04-05T07:49:28.103Z</time></trkpt><trkpt lat="43.5784967" lon="10.7695883"><ele>61.0</ele><time>2026-04-05T07:49:29.103Z</time></trkpt><trkpt lat="43.5785867" lon="10.769795"><ele>61.0</ele><time>2026-04-05T07:49:30.103Z</time></trkpt><trkpt lat="43.5786783" lon="10.7699983"><ele>61.0</ele><time>2026-04-05T07:49:31.103Z</time></trkpt><trkpt lat="43.57877" lon="10.770205"><ele>61.0</ele><time>2026-04-05T07:49:32.103Z</time></trkpt><trkpt lat="43.57886" lon="10.7704117"><ele>61.666666666666664</ele><time>2026-04-05T07:49:33.103Z</time></trkpt><trkpt lat="43.5789517" lon="10.770615"><ele>62.33333333333333</ele><time>2026-04-05T07:49:34.103Z</time></trkpt><trkpt lat="43.5790483" lon="10.7708117"><ele>63.0</ele><time>2026-04-05T07:49:35.103Z</time></trkpt><trkpt lat="43.57914" lon="10.7710183"><ele>63.0</ele><time>2026-04-05T07:49:36.103Z</time></trkpt><trkpt lat="43.5792317" lon="10.7712233"><ele>63.0</ele><time>2026-04-05T07:49:37.102Z</time></trkpt><trkpt lat="43.5793233" lon="10.7714283"><ele>63.0</ele><time>2026-04-05T07:49:38.103Z</time></trkpt><trkpt lat="43.579415" lon="10.771635"><ele>63.0</ele><time>2026-04-05T07:49:39.103Z</time></trkpt><trkpt lat="43.5795033" lon="10.77184"><ele>63.0</ele><time>2026-04-05T07:49:40.103Z</time></trkpt><trkpt lat="43.5795967" lon="10.7720467"><ele>63.0</ele><time>2026-04-05T07:49:41.103Z</time></trkpt><trkpt lat="43.579695" lon="10.7722533"><ele>63.0</ele><time>2026-04-05T07:49:42.103Z</time></trkpt><trkpt lat="43.5797933" lon="10.7724583"><ele>63.0</ele><time>2026-04-05T07:49:43.103Z</time></trkpt><trkpt lat="43.5798917" lon="10.7726717"><ele>63.0</ele><time>2026-04-05T07:49:44.103Z</time></trkpt><trkpt lat="43.5799933" lon="10.7728767"><ele>63.0</ele><time>2026-04-05T07:49:45.103Z</time></trkpt><trkpt lat="43.5800967" lon="10.7730817"><ele>63.0</ele><time>2026-04-05T07:49:46.103Z</time></trkpt><trkpt lat="43.5802" lon="10.7732867"><ele>63.0</ele><time>2026-04-05T07:49:47.103Z</time></trkpt><trkpt lat="43.5803017" lon="10.7734967"><ele>64.0</ele><time>2026-04-05T07:49:48.103Z</time></trkpt><trkpt lat="43.5804067" lon="10.7737017"><ele>65.0</ele><time>2026-04-05T07:49:49.103Z</time></trkpt><trkpt lat="43.5805117" lon="10.7739083"><ele>66.0</ele><time>2026-04-05T07:49:50.103Z</time></trkpt><trkpt lat="43.580615" lon="10.774115"><ele>66.0</ele><time>2026-04-05T07:49:51.103Z</time></trkpt><trkpt lat="43.5807167" lon="10.77432"><ele>66.0</ele><time>2026-04-05T07:49:52.103Z</time></trkpt><trkpt lat="43.5808167" lon="10.7745267"><ele>66.0</ele><time>2026-04-05T07:49:53.103Z</time></trkpt><trkpt lat="43.5809133" lon="10.7747317"><ele>66.33333333333333</ele><time>2026-04-05T07:49:54.103Z</time></trkpt><trkpt lat="43.5810133" lon="10.7749333"><ele>66.66666666666666</ele><time>2026-04-05T07:49:55.103Z</time></trkpt><trkpt lat="43.581115" lon="10.7751383"><ele>67.0</ele><time>2026-04-05T07:49:56.103Z</time></trkpt><trkpt lat="43.58122" lon="10.77534"><ele>67.0</ele><time>2026-04-05T07:49:57.103Z</time></trkpt><trkpt lat="43.5813233" lon="10.7755433"><ele>67.0</ele><time>2026-04-05T07:49:58.103Z</time></trkpt><trkpt lat="43.5814233" lon="10.7757467"><ele>67.0</ele><time>2026-04-05T07:49:59.103Z</time></trkpt><trkpt lat="43.5815233" lon="10.7759517"><ele>66.0</ele><time>2026-04-05T07:50:00.103Z</time></trkpt><trkpt lat="43.5816267" lon="10.7761567"><ele>65.0</ele><time>2026-04-05T07:50:01.103Z</time></trkpt><trkpt lat="43.5817317" lon="10.7763633"><ele>64.0</ele><time>2026-04-05T07:50:02.103Z</time></trkpt><trkpt lat="43.5818367" lon="10.7765683"><ele>64.0</ele><time>2026-04-05T07:50:03.103Z</time></trkpt><trkpt lat="43.5819367" lon="10.7767783"><ele>64.0</ele><time>2026-04-05T07:50:04.103Z</time></trkpt><trkpt lat="43.5820367" lon="10.776985"><ele>64.0</ele><time>2026-04-05T07:50:05.103Z</time></trkpt><trkpt lat="43.5821267" lon="10.7771933"><ele>63.33333333333333</ele><time>2026-04-05T07:50:06.103Z</time></trkpt><trkpt lat="43.5822217" lon="10.7773933"><ele>62.66666666666667</ele><time>2026-04-05T07:50:07.103Z</time></trkpt><trkpt lat="43.58231" lon="10.77761"><ele>62.0</ele><time>2026-04-05T07:50:08.103Z</time></trkpt><trkpt lat="43.5823983" lon="10.77783"><ele>61.66666666666667</ele><time>2026-04-05T07:50:09.103Z</time></trkpt><trkpt lat="43.5824867" lon="10.7780467"><ele>61.33333333333333</ele><time>2026-04-05T07:50:10.103Z</time></trkpt><trkpt lat="43.5825733" lon="10.7782617"><ele>61.0</ele><time>2026-04-05T07:50:11.103Z</time></trkpt><trkpt lat="43.5826617" lon="10.7784783"><ele>61.666666666666664</ele><time>2026-04-05T07:50:12.103Z</time></trkpt><trkpt lat="43.5827517" lon="10.778695"><ele>62.33333333333333</ele><time>2026-04-05T07:50:13.103Z</time></trkpt><trkpt lat="43.58284" lon="10.7789133"><ele>63.0</ele><time>2026-04-05T07:50:14.103Z</time></trkpt><trkpt lat="43.5829267" lon="10.7791283"><ele>63.33333333333333</ele><time>2026-04-05T07:50:15.103Z</time></trkpt><trkpt lat="43.583015" lon="10.779345"><ele>63.666666666666664</ele><time>2026-04-05T07:50:16.103Z</time></trkpt><trkpt lat="43.5831017" lon="10.77956"><ele>64.0</ele><time>2026-04-05T07:50:17.103Z</time></trkpt><trkpt lat="43.5831883" lon="10.7797783"><ele>64.0</ele><time>2026-04-05T07:50:18.102Z</time></trkpt><trkpt lat="43.5832767" lon="10.779995"><ele>64.0</ele><time>2026-04-05T07:50:19.103Z</time></trkpt><trkpt lat="43.583365" lon="10.7802067"><ele>64.0</ele><time>2026-04-05T07:50:20.103Z</time></trkpt><trkpt lat="43.5834517" lon="10.7804217"><ele>63.666666666666664</ele><time>2026-04-05T07:50:21.102Z</time></trkpt><trkpt lat="43.5835417" lon="10.780635"><ele>63.33333333333333</ele><time>2026-04-05T07:50:22.103Z</time></trkpt><trkpt lat="43.5836283" lon="10.78085"><ele>63.0</ele><time>2026-04-05T07:50:23.103Z</time></trkpt><trkpt lat="43.583715" lon="10.78107"><ele>64.0</ele><time>2026-04-05T07:50:24.103Z</time></trkpt><trkpt lat="43.5838033" lon="10.7812867"><ele>65.0</ele><time>2026-04-05T07:50:25.103Z</time></trkpt><trkpt lat="43.5838883" lon="10.7815033"><ele>66.0</ele><time>2026-04-05T07:50:26.103Z</time></trkpt><trkpt lat="43.58397" lon="10.78172"><ele>66.33333333333333</ele><time>2026-04-05T07:50:27.103Z</time></trkpt><trkpt lat="43.58404" lon="10.7819467"><ele>66.66666666666666</ele><time>2026-04-05T07:50:28.103Z</time></trkpt><trkpt lat="43.58409" lon="10.7821783"><ele>67.0</ele><time>2026-04-05T07:50:29.102Z</time></trkpt><trkpt lat="43.5841017" lon="10.782425"><ele>67.0</ele><time>2026-04-05T07:50:30.103Z</time></trkpt><trkpt lat="43.5840783" lon="10.7826717"><ele>67.0</ele><time>2026-04-05T07:50:31.103Z</time></trkpt><trkpt lat="43.5840483" lon="10.782915"><ele>67.0</ele><time>2026-04-05T07:50:32.103Z</time></trkpt><trkpt lat="43.584015" lon="10.7831567"><ele>66.66666666666666</ele><time>2026-04-05T07:50:33.103Z</time></trkpt><trkpt lat="43.5839833" lon="10.7833983"><ele>66.33333333333333</ele><time>2026-04-05T07:50:34.103Z</time></trkpt><trkpt lat="43.5839567" lon="10.783635"><ele>66.0</ele><time>2026-04-05T07:50:35.102Z</time></trkpt><trkpt lat="43.5839283" lon="10.7838733"><ele>66.0</ele><time>2026-04-05T07:50:36.103Z</time></trkpt><trkpt lat="43.5839" lon="10.7841183"><ele>66.0</ele><time>2026-04-05T07:50:37.103Z</time></trkpt><trkpt lat="43.5838717" lon="10.7843617"><ele>66.0</ele><time>2026-04-05T07:50:38.103Z</time></trkpt><trkpt lat="43.5838433" lon="10.7846083"><ele>66.0</ele><time>2026-04-05T07:50:39.103Z</time></trkpt><trkpt lat="43.5838133" lon="10.78485"><ele>66.0</ele><time>2026-04-05T07:50:40.103Z</time></trkpt><trkpt lat="43.5837867" lon="10.78509"><ele>66.0</ele><time>2026-04-05T07:50:41.102Z</time></trkpt><trkpt lat="43.5837633" lon="10.78533"><ele>66.0</ele><time>2026-04-05T07:50:42.103Z</time></trkpt><trkpt lat="43.583735" lon="10.7855667"><ele>66.0</ele><time>2026-04-05T07:50:43.103Z</time></trkpt><trkpt lat="43.5837083" lon="10.7858"><ele>66.0</ele><time>2026-04-05T07:50:44.102Z</time></trkpt><trkpt lat="43.5836783" lon="10.7860333"><ele>66.0</ele><time>2026-04-05T07:50:45.103Z</time></trkpt><trkpt lat="43.583645" lon="10.78627"><ele>66.0</ele><time>2026-04-05T07:50:46.103Z</time></trkpt><trkpt lat="43.583615" lon="10.786505"><ele>66.0</ele><time>2026-04-05T07:50:47.103Z</time></trkpt><trkpt lat="43.5835883" lon="10.786745"><ele>66.33333333333333</ele><time>2026-04-05T07:50:48.103Z</time></trkpt><trkpt lat="43.5835667" lon="10.7869867"><ele>66.66666666666666</ele><time>2026-04-05T07:50:49.103Z</time></trkpt><trkpt lat="43.5835417" lon="10.7872333"><ele>67.0</ele><time>2026-04-05T07:50:50.103Z</time></trkpt><trkpt lat="43.5835133" lon="10.7874733"><ele>67.0</ele><time>2026-04-05T07:50:51.103Z</time></trkpt><trkpt lat="43.5834867" lon="10.7877133"><ele>67.0</ele><time>2026-04-05T07:50:52.102Z</time></trkpt><trkpt lat="43.58346" lon="10.7879533"><ele>67.0</ele><time>2026-04-05T07:50:53.103Z</time></trkpt><trkpt lat="43.583435" lon="10.7881933"><ele>67.0</ele><time>2026-04-05T07:50:54.103Z</time></trkpt><trkpt lat="43.58341" lon="10.7884333"><ele>67.0</ele><time>2026-04-05T07:50:55.103Z</time></trkpt><trkpt lat="43.58338" lon="10.7886733"><ele>67.0</ele><time>2026-04-05T07:50:56.103Z</time></trkpt><trkpt lat="43.5833533" lon="10.788915"><ele>67.33333333333333</ele><time>2026-04-05T07:50:57.102Z</time></trkpt><trkpt lat="43.583325" lon="10.7891583"><ele>67.66666666666667</ele><time>2026-04-05T07:50:58.103Z</time></trkpt><trkpt lat="43.5832983" lon="10.7893983"><ele>68.0</ele><time>2026-04-05T07:50:59.102Z</time></trkpt><trkpt lat="43.5832633" lon="10.7896333"><ele>69.0</ele><time>2026-04-05T07:51:00.103Z</time></trkpt><trkpt lat="43.583215" lon="10.7898667"><ele>70.0</ele><time>2026-04-05T07:51:01.103Z</time></trkpt><trkpt lat="43.58316" lon="10.7900933"><ele>71.0</ele><time>2026-04-05T07:51:02.103Z</time></trkpt><trkpt lat="43.5830983" lon="10.790315"><ele>72.33333333333334</ele><time>2026-04-05T07:51:03.103Z</time></trkpt><trkpt lat="43.5830383" lon="10.7905383"><ele>73.66666666666667</ele><time>2026-04-05T07:51:04.103Z</time></trkpt><trkpt lat="43.5829767" lon="10.7907617"><ele>75.0</ele><time>2026-04-05T07:51:05.103Z</time></trkpt><trkpt lat="43.5829183" lon="10.79098"><ele>73.66666666666667</ele><time>2026-04-05T07:51:06.103Z</time></trkpt><trkpt lat="43.5828583" lon="10.7912"><ele>72.33333333333334</ele><time>2026-04-05T07:51:07.103Z</time></trkpt><trkpt lat="43.5827983" lon="10.79142"><ele>71.0</ele><time>2026-04-05T07:51:08.103Z</time></trkpt><trkpt lat="43.5827367" lon="10.7916383"><ele>71.66666666666667</ele><time>2026-04-05T07:51:09.103Z</time></trkpt><trkpt lat="43.5826733" lon="10.7918583"><ele>72.33333333333333</ele><time>2026-04-05T07:51:10.102Z</time></trkpt><trkpt lat="43.5826117" lon="10.7920833"><ele>73.0</ele><time>2026-04-05T07:51:11.103Z</time></trkpt><trkpt lat="43.58255" lon="10.7923083"><ele>73.0</ele><time>2026-04-05T07:51:12.103Z</time></trkpt><trkpt lat="43.5824917" lon="10.7925383"><ele>73.0</ele><time>2026-04-05T07:51:13.103Z</time></trkpt><trkpt lat="43.5824283" lon="10.7927683"><ele>73.0</ele><time>2026-04-05T07:51:14.103Z</time></trkpt><trkpt lat="43.5823667" lon="10.7930017"><ele>72.66666666666666</ele><time>2026-04-05T07:51:15.103Z</time></trkpt><trkpt lat="43.582305" lon="10.79323"><ele>72.33333333333333</ele><time>2026-04-05T07:51:16.102Z</time></trkpt><trkpt lat="43.58224" lon="10.79346"><ele>72.0</ele><time>2026-04-05T07:51:17.103Z</time></trkpt><trkpt lat="43.5821733" lon="10.7936883"><ele>72.66666666666667</ele><time>2026-04-05T07:51:18.103Z</time></trkpt><trkpt lat="43.5821083" lon="10.793915"><ele>73.33333333333334</ele><time>2026-04-05T07:51:19.103Z</time></trkpt><trkpt lat="43.5820433" lon="10.7941367"><ele>74.0</ele><time>2026-04-05T07:51:20.103Z</time></trkpt><trkpt lat="43.581965" lon="10.7943533"><ele>74.0</ele><time>2026-04-05T07:51:21.102Z</time></trkpt><trkpt lat="43.5818617" lon="10.7945483"><ele>74.0</ele><time>2026-04-05T07:51:22.103Z</time></trkpt><trkpt lat="43.5817433" lon="10.79472"><ele>74.0</ele><time>2026-04-05T07:51:23.103Z</time></trkpt><trkpt lat="43.581605" lon="10.7948767"><ele>74.0</ele><time>2026-04-05T07:51:24.103Z</time></trkpt><trkpt lat="43.58146" lon="10.7950183"><ele>74.0</ele><time>2026-04-05T07:51:25.103Z</time></trkpt><trkpt lat="43.5813133" lon="10.7951633"><ele>74.0</ele><time>2026-04-05T07:51:26.103Z</time></trkpt><trkpt lat="43.581165" lon="10.79531"><ele>74.0</ele><time>2026-04-05T07:51:27.103Z</time></trkpt><trkpt lat="43.5810167" lon="10.7954583"><ele>74.0</ele><time>2026-04-05T07:51:28.103Z</time></trkpt><trkpt lat="43.58087" lon="10.7956033"><ele>74.0</ele><time>2026-04-05T07:51:29.103Z</time></trkpt><trkpt lat="43.5807267" lon="10.795755"><ele>74.0</ele><time>2026-04-05T07:51:30.103Z</time></trkpt><trkpt lat="43.580585" lon="10.795905"><ele>74.0</ele><time>2026-04-05T07:51:31.103Z</time></trkpt><trkpt lat="43.580445" lon="10.7960617"><ele>74.0</ele><time>2026-04-05T07:51:32.103Z</time></trkpt><trkpt lat="43.580315" lon="10.7962283"><ele>75.0</ele><time>2026-04-05T07:51:33.103Z</time></trkpt><trkpt lat="43.5801883" lon="10.7964083"><ele>76.0</ele><time>2026-04-05T07:51:34.102Z</time></trkpt><trkpt lat="43.5800683" lon="10.7966"><ele>77.0</ele><time>2026-04-05T07:51:35.103Z</time></trkpt><trkpt lat="43.5799533" lon="10.7967917"><ele>81.66666666666667</ele><time>2026-04-05T07:51:36.103Z</time></trkpt><trkpt lat="43.5798333" lon="10.796985"><ele>86.33333333333333</ele><time>2026-04-05T07:51:37.103Z</time></trkpt><trkpt lat="43.5797133" lon="10.7971767"><ele>91.0</ele><time>2026-04-05T07:51:38.103Z</time></trkpt><trkpt lat="43.579595" lon="10.79737"><ele>86.33333333333333</ele><time>2026-04-05T07:51:39.103Z</time></trkpt><trkpt lat="43.5794767" lon="10.7975633"><ele>81.66666666666667</ele><time>2026-04-05T07:51:40.103Z</time></trkpt><trkpt lat="43.5793617" lon="10.7977583"><ele>77.0</ele><time>2026-04-05T07:51:41.103Z</time></trkpt><trkpt lat="43.57925" lon="10.7979567"><ele>77.0</ele><time>2026-04-05T07:51:42.103Z</time></trkpt><trkpt lat="43.579155" lon="10.79817"><ele>77.0</ele><time>2026-04-05T07:51:43.103Z</time></trkpt><trkpt lat="43.579085" lon="10.7983967"><ele>77.0</ele><time>2026-04-05T07:51:44.103Z</time></trkpt><trkpt lat="43.57903" lon="10.7986367"><ele>78.0</ele><time>2026-04-05T07:51:45.103Z</time></trkpt><trkpt lat="43.578985" lon="10.7988867"><ele>79.0</ele><time>2026-04-05T07:51:46.103Z</time></trkpt><trkpt lat="43.5789433" lon="10.799135"><ele>80.0</ele><time>2026-04-05T07:51:47.104Z</time></trkpt><trkpt lat="43.5789017" lon="10.7993833"><ele>80.0</ele><time>2026-04-05T07:51:48.103Z</time></trkpt><trkpt lat="43.5788583" lon="10.7996333"><ele>80.0</ele><time>2026-04-05T07:51:49.103Z</time></trkpt><trkpt lat="43.5788083" lon="10.7998833"><ele>80.0</ele><time>2026-04-05T07:51:50.104Z</time></trkpt><trkpt lat="43.5787483" lon="10.8001283"><ele>79.66666666666667</ele><time>2026-04-05T07:51:51.104Z</time></trkpt><trkpt lat="43.5786783" lon="10.800365"><ele>79.33333333333333</ele><time>2026-04-05T07:51:52.104Z</time></trkpt><trkpt lat="43.5785933" lon="10.800595"><ele>79.0</ele><time>2026-04-05T07:51:53.104Z</time></trkpt><trkpt lat="43.5784983" lon="10.8008217"><ele>80.33333333333333</ele><time>2026-04-05T07:51:54.103Z</time></trkpt><trkpt lat="43.5784017" lon="10.8010417"><ele>81.66666666666667</ele><time>2026-04-05T07:51:55.104Z</time></trkpt><trkpt lat="43.5783067" lon="10.8012617"><ele>83.0</ele><time>2026-04-05T07:51:56.104Z</time></trkpt><trkpt lat="43.5782117" lon="10.8014783"><ele>83.0</ele><time>2026-04-05T07:51:57.104Z</time></trkpt><trkpt lat="43.5781117" lon="10.8016933"><ele>83.0</ele><time>2026-04-05T07:51:58.103Z</time></trkpt><trkpt lat="43.5780167" lon="10.8019067"><ele>83.0</ele><time>2026-04-05T07:51:59.104Z</time></trkpt><trkpt lat="43.57792" lon="10.802125"><ele>84.0</ele><time>2026-04-05T07:52:00.104Z</time></trkpt><trkpt lat="43.5778233" lon="10.8023433"><ele>85.0</ele><time>2026-04-05T07:52:01.103Z</time></trkpt><trkpt lat="43.5777283" lon="10.80256"><ele>86.0</ele><time>2026-04-05T07:52:02.104Z</time></trkpt><trkpt lat="43.5776317" lon="10.8027733"><ele>86.0</ele><time>2026-04-05T07:52:03.104Z</time></trkpt><trkpt lat="43.577535" lon="10.8029817"><ele>86.0</ele><time>2026-04-05T07:52:04.104Z</time></trkpt><trkpt lat="43.5774417" lon="10.8031867"><ele>86.0</ele><time>2026-04-05T07:52:05.104Z</time></trkpt><trkpt lat="43.5773617" lon="10.8033933"><ele>87.0</ele><time>2026-04-05T07:52:06.104Z</time></trkpt><trkpt lat="43.5773" lon="10.8036067"><ele>88.0</ele><time>2026-04-05T07:52:07.104Z</time></trkpt><trkpt lat="43.5772617" lon="10.80383"><ele>89.0</ele><time>2026-04-05T07:52:08.104Z</time></trkpt><trkpt lat="43.5772483" lon="10.8040533"><ele>89.0</ele><time>2026-04-05T07:52:09.104Z</time></trkpt><trkpt lat="43.5772583" lon="10.804285"><ele>89.0</ele><time>2026-04-05T07:52:10.104Z</time></trkpt><trkpt lat="43.57728" lon="10.8045183"><ele>89.0</ele><time>2026-04-05T07:52:11.104Z</time></trkpt><trkpt lat="43.5773067" lon="10.8047583"><ele>88.66666666666667</ele><time>2026-04-05T07:52:12.104Z</time></trkpt><trkpt lat="43.57733" lon="10.8049983"><ele>88.33333333333333</ele><time>2026-04-05T07:52:13.104Z</time></trkpt><trkpt lat="43.5773567" lon="10.8052333"><ele>88.0</ele><time>2026-04-05T07:52:14.103Z</time></trkpt><trkpt lat="43.577385" lon="10.80547"><ele>87.0</ele><time>2026-04-05T07:52:15.104Z</time></trkpt><trkpt lat="43.57741" lon="10.8057133"><ele>86.0</ele><time>2026-04-05T07:52:16.103Z</time></trkpt><trkpt lat="43.5774383" lon="10.8059567"><ele>85.0</ele><time>2026-04-05T07:52:17.104Z</time></trkpt><trkpt lat="43.577465" lon="10.806205"><ele>83.66666666666666</ele><time>2026-04-05T07:52:18.104Z</time></trkpt><trkpt lat="43.5774867" lon="10.8064583"><ele>82.33333333333333</ele><time>2026-04-05T07:52:19.103Z</time></trkpt><trkpt lat="43.577505" lon="10.8067133"><ele>81.0</ele><time>2026-04-05T07:52:20.104Z</time></trkpt><trkpt lat="43.577515" lon="10.80697"><ele>80.0</ele><time>2026-04-05T07:52:21.104Z</time></trkpt><trkpt lat="43.577505" lon="10.8072317"><ele>79.0</ele><time>2026-04-05T07:52:22.104Z</time></trkpt><trkpt lat="43.57748" lon="10.80749"><ele>78.0</ele><time>2026-04-05T07:52:23.104Z</time></trkpt><trkpt lat="43.5774367" lon="10.807745"><ele>77.66666666666667</ele><time>2026-04-05T07:52:24.104Z</time></trkpt><trkpt lat="43.577385" lon="10.808"><ele>77.33333333333334</ele><time>2026-04-05T07:52:25.104Z</time></trkpt><trkpt lat="43.5773333" lon="10.8082533"><ele>77.0</ele><time>2026-04-05T07:52:26.104Z</time></trkpt><trkpt lat="43.5772783" lon="10.8085083"><ele>76.66666666666667</ele><time>2026-04-05T07:52:27.104Z</time></trkpt><trkpt lat="43.577225" lon="10.8087633"><ele>76.33333333333333</ele><time>2026-04-05T07:52:28.104Z</time></trkpt><trkpt lat="43.5771683" lon="10.8090167"><ele>76.0</ele><time>2026-04-05T07:52:29.104Z</time></trkpt><trkpt lat="43.5771117" lon="10.8092717"><ele>76.33333333333333</ele><time>2026-04-05T07:52:30.104Z</time></trkpt><trkpt lat="43.5770517" lon="10.809525"><ele>76.66666666666667</ele><time>2026-04-05T07:52:31.103Z</time></trkpt><trkpt lat="43.5769883" lon="10.8097733"><ele>77.0</ele><time>2026-04-05T07:52:32.104Z</time></trkpt><trkpt lat="43.576905" lon="10.8100083"><ele>77.0</ele><time>2026-04-05T07:52:33.104Z</time></trkpt><trkpt lat="43.5768083" lon="10.810225"><ele>77.0</ele><time>2026-04-05T07:52:34.104Z</time></trkpt><trkpt lat="43.576705" lon="10.8104283"><ele>77.0</ele><time>2026-04-05T07:52:35.104Z</time></trkpt><trkpt lat="43.576595" lon="10.8106267"><ele>77.0</ele><time>2026-04-05T07:52:36.104Z</time></trkpt><trkpt lat="43.5764867" lon="10.810825"><ele>77.0</ele><time>2026-04-05T07:52:37.104Z</time></trkpt><trkpt lat="43.5763733" lon="10.8110217"><ele>77.0</ele><time>2026-04-05T07:52:38.104Z</time></trkpt><trkpt lat="43.576265" lon="10.8112167"><ele>79.66666666666667</ele><time>2026-04-05T07:52:39.103Z</time></trkpt><trkpt lat="43.5761567" lon="10.8114133"><ele>82.33333333333333</ele><time>2026-04-05T07:52:40.104Z</time></trkpt><trkpt lat="43.57605" lon="10.8116067"><ele>85.0</ele><time>2026-04-05T07:52:41.104Z</time></trkpt><trkpt lat="43.5759417" lon="10.8118"><ele>83.33333333333333</ele><time>2026-04-05T07:52:42.103Z</time></trkpt><trkpt lat="43.575835" lon="10.8119917"><ele>81.66666666666667</ele><time>2026-04-05T07:52:43.104Z</time></trkpt><trkpt lat="43.57573" lon="10.8121833"><ele>80.0</ele><time>2026-04-05T07:52:44.104Z</time></trkpt><trkpt lat="43.5756267" lon="10.8123783"><ele>80.0</ele><time>2026-04-05T07:52:45.104Z</time></trkpt><trkpt lat="43.5755217" lon="10.8125683"><ele>80.0</ele><time>2026-04-05T07:52:46.104Z</time></trkpt><trkpt lat="43.5754167" lon="10.812755"><ele>80.0</ele><time>2026-04-05T07:52:47.104Z</time></trkpt><trkpt lat="43.5753117" lon="10.8129417"><ele>80.33333333333334</ele><time>2026-04-05T07:52:48.104Z</time></trkpt><trkpt lat="43.5752067" lon="10.8131283"><ele>80.66666666666667</ele><time>2026-04-05T07:52:49.104Z</time></trkpt><trkpt lat="43.5751033" lon="10.8133167"><ele>81.0</ele><time>2026-04-05T07:52:50.104Z</time></trkpt><trkpt lat="43.574995" lon="10.8135033"><ele>81.0</ele><time>2026-04-05T07:52:51.104Z</time></trkpt><trkpt lat="43.5748883" lon="10.8136883"><ele>81.0</ele><time>2026-04-05T07:52:52.104Z</time></trkpt><trkpt lat="43.5747817" lon="10.81387"><ele>81.0</ele><time>2026-04-05T07:52:53.104Z</time></trkpt><trkpt lat="43.5746783" lon="10.8140567"><ele>81.0</ele><time>2026-04-05T07:52:54.104Z</time></trkpt><trkpt lat="43.5745733" lon="10.81424"><ele>81.0</ele><time>2026-04-05T07:52:55.104Z</time></trkpt><trkpt lat="43.5744717" lon="10.81442"><ele>81.0</ele><time>2026-04-05T07:52:56.104Z</time></trkpt><trkpt lat="43.5743717" lon="10.8145983"><ele>83.66666666666667</ele><time>2026-04-05T07:52:57.104Z</time></trkpt><trkpt lat="43.5742733" lon="10.8147717"><ele>86.33333333333334</ele><time>2026-04-05T07:52:58.103Z</time></trkpt><trkpt lat="43.5741733" lon="10.8149433"><ele>89.0</ele><time>2026-04-05T07:52:59.104Z</time></trkpt><trkpt lat="43.5740717" lon="10.8151167"><ele>89.66666666666667</ele><time>2026-04-05T07:53:00.103Z</time></trkpt><trkpt lat="43.57397" lon="10.81529"><ele>90.33333333333333</ele><time>2026-04-05T07:53:01.104Z</time></trkpt><trkpt lat="43.57387" lon="10.815465"><ele>91.0</ele><time>2026-04-05T07:53:02.104Z</time></trkpt><trkpt lat="43.573775" lon="10.815645"><ele>93.0</ele><time>2026-04-05T07:53:03.104Z</time></trkpt><trkpt lat="43.5736817" lon="10.8158267"><ele>95.0</ele><time>2026-04-05T07:53:04.104Z</time></trkpt><trkpt lat="43.5735983" lon="10.8160183"><ele>97.0</ele><time>2026-04-05T07:53:05.104Z</time></trkpt><trkpt lat="43.5735283" lon="10.8162283"><ele>97.0</ele><time>2026-04-05T07:53:06.104Z</time></trkpt><trkpt lat="43.5734717" lon="10.8164533"><ele>97.0</ele><time>2026-04-05T07:53:07.104Z</time></trkpt><trkpt lat="43.5734267" lon="10.8166867"><ele>97.0</ele><time>2026-04-05T07:53:08.104Z</time></trkpt><trkpt lat="43.5733833" lon="10.81692"><ele>98.0</ele><time>2026-04-05T07:53:09.104Z</time></trkpt><trkpt lat="43.5733467" lon="10.8171583"><ele>99.0</ele><time>2026-04-05T07:53:10.104Z</time></trkpt><trkpt lat="43.5733033" lon="10.8174017"><ele>100.0</ele><time>2026-04-05T07:53:11.104Z</time></trkpt><trkpt lat="43.57326" lon="10.8176233"><ele>101.66666666666667</ele><time>2026-04-05T07:53:12.104Z</time></trkpt><trkpt lat="43.5732183" lon="10.8178467"><ele>103.33333333333334</ele><time>2026-04-05T07:53:13.104Z</time></trkpt><trkpt lat="43.573175" lon="10.81807"><ele>105.0</ele><time>2026-04-05T07:53:14.104Z</time></trkpt><trkpt lat="43.57313" lon="10.8182933"><ele>106.33333333333334</ele><time>2026-04-05T07:53:15.104Z</time></trkpt><trkpt lat="43.5730867" lon="10.8185183"><ele>107.66666666666667</ele><time>2026-04-05T07:53:16.104Z</time></trkpt><trkpt lat="43.5730367" lon="10.8187433"><ele>109.0</ele><time>2026-04-05T07:53:17.104Z</time></trkpt><trkpt lat="43.5729883" lon="10.818965"><ele>109.0</ele><time>2026-04-05T07:53:18.104Z</time></trkpt><trkpt lat="43.5729433" lon="10.8191867"><ele>109.0</ele><time>2026-04-05T07:53:19.104Z</time></trkpt><trkpt lat="43.5728983" lon="10.8194017"><ele>109.0</ele><time>2026-04-05T07:53:20.104Z</time></trkpt><trkpt lat="43.5728467" lon="10.8196033"><ele>112.0</ele><time>2026-04-05T07:53:21.104Z</time></trkpt><trkpt lat="43.57277" lon="10.8197867"><ele>115.0</ele><time>2026-04-05T07:53:22.104Z</time></trkpt><trkpt lat="43.572665" lon="10.8199467"><ele>118.0</ele><time>2026-04-05T07:53:23.104Z</time></trkpt><trkpt lat="43.572535" lon="10.8200717"><ele>115.66666666666667</ele><time>2026-04-05T07:53:24.104Z</time></trkpt><trkpt lat="43.5723883" lon="10.8201517"><ele>113.33333333333334</ele><time>2026-04-05T07:53:25.104Z</time></trkpt><trkpt lat="43.5722367" lon="10.8202"><ele>111.0</ele><time>2026-04-05T07:53:26.104Z</time></trkpt><trkpt lat="43.5720783" lon="10.8202183"><ele>111.33333333333334</ele><time>2026-04-05T07:53:27.104Z</time></trkpt><trkpt lat="43.5719133" lon="10.8202267"><ele>111.66666666666667</ele><time>2026-04-05T07:53:28.104Z</time></trkpt><trkpt lat="43.5717433" lon="10.8202367"><ele>112.0</ele><time>2026-04-05T07:53:29.104Z</time></trkpt><trkpt lat="43.5715717" lon="10.8202517"><ele>112.0</ele><time>2026-04-05T07:53:30.104Z</time></trkpt><trkpt lat="43.5713983" lon="10.8202683"><ele>112.0</ele><time>2026-04-05T07:53:31.104Z</time></trkpt><trkpt lat="43.5712267" lon="10.8202883"><ele>112.0</ele><time>2026-04-05T07:53:32.104Z</time></trkpt><trkpt lat="43.5710567" lon="10.8203083"><ele>116.0</ele><time>2026-04-05T07:53:33.104Z</time></trkpt><trkpt lat="43.5708883" lon="10.8203417"><ele>120.0</ele><time>2026-04-05T07:53:34.103Z</time></trkpt><trkpt lat="43.57073" lon="10.8204233"><ele>124.0</ele><time>2026-04-05T07:53:35.104Z</time></trkpt><trkpt lat="43.57059" lon="10.8205417"><ele>124.0</ele><time>2026-04-05T07:53:36.104Z</time></trkpt><trkpt lat="43.57047" lon="10.8206783"><ele>124.0</ele><time>2026-04-05T07:53:37.103Z</time></trkpt><trkpt lat="43.5703517" lon="10.8208533"><ele>124.0</ele><time>2026-04-05T07:53:38.104Z</time></trkpt><trkpt lat="43.57026" lon="10.82105"><ele>128.33333333333334</ele><time>2026-04-05T07:53:39.104Z</time></trkpt><trkpt lat="43.5701833" lon="10.82126"><ele>132.66666666666666</ele><time>2026-04-05T07:53:40.104Z</time></trkpt><trkpt lat="43.5701183" lon="10.8214767"><ele>137.0</ele><time>2026-04-05T07:53:41.104Z</time></trkpt><trkpt lat="43.5700583" lon="10.8216967"><ele>136.66666666666666</ele><time>2026-04-05T07:53:42.104Z</time></trkpt><trkpt lat="43.5700067" lon="10.8219217"><ele>136.33333333333334</ele><time>2026-04-05T07:53:43.104Z</time></trkpt><trkpt lat="43.5699617" lon="10.8221483"><ele>136.0</ele><time>2026-04-05T07:53:44.104Z</time></trkpt><trkpt lat="43.5699233" lon="10.8223783"><ele>136.0</ele><time>2026-04-05T07:53:45.103Z</time></trkpt><trkpt lat="43.5698833" lon="10.82261"><ele>136.0</ele><time>2026-04-05T07:53:46.104Z</time></trkpt><trkpt lat="43.5698333" lon="10.822835"><ele>136.0</ele><time>2026-04-05T07:53:47.104Z</time></trkpt><trkpt lat="43.569775" lon="10.823055"><ele>135.66666666666669</ele><time>2026-04-05T07:53:48.104Z</time></trkpt><trkpt lat="43.5697083" lon="10.82327"><ele>135.33333333333334</ele><time>2026-04-05T07:53:49.104Z</time></trkpt><trkpt lat="43.56963" lon="10.8234783"><ele>135.0</ele><time>2026-04-05T07:53:50.104Z</time></trkpt><trkpt lat="43.56954" lon="10.8236767"><ele>137.0</ele><time>2026-04-05T07:53:51.104Z</time></trkpt><trkpt lat="43.5694417" lon="10.82387"><ele>139.0</ele><time>2026-04-05T07:53:52.104Z</time></trkpt><trkpt lat="43.56933" lon="10.8240633"><ele>141.0</ele><time>2026-04-05T07:53:53.103Z</time></trkpt><trkpt lat="43.5692167" lon="10.8242483"><ele>139.66666666666666</ele><time>2026-04-05T07:53:54.104Z</time></trkpt><trkpt lat="43.5691017" lon="10.8244267"><ele>138.33333333333331</ele><time>2026-04-05T07:53:55.104Z</time></trkpt><trkpt lat="43.5689967" lon="10.8245917"><ele>137.0</ele><time>2026-04-05T07:53:56.104Z</time></trkpt><trkpt lat="43.5689117" lon="10.82472"><ele>137.0</ele><time>2026-04-05T07:53:57.104Z</time></trkpt><trkpt lat="43.56885" lon="10.8248033"><ele>137.0</ele><time>2026-04-05T07:53:58.104Z</time></trkpt><trkpt lat="43.5687983" lon="10.8248583"><ele>137.0</ele><time>2026-04-05T07:53:59.104Z</time></trkpt><trkpt lat="43.568735" lon="10.8249"><ele>137.0</ele><time>2026-04-05T07:54:01.104Z</time></trkpt><trkpt lat="43.56874" lon="10.824795"><ele>137.0</ele><time>2026-04-05T07:54:14.104Z</time></trkpt><trkpt lat="43.5687483" lon="10.82467"><ele>137.0</ele><time>2026-04-05T07:54:16.104Z</time></trkpt><trkpt lat="43.5687733" lon="10.82458"><ele>137.0</ele><time>2026-04-05T07:54:17.103Z</time></trkpt><trkpt lat="43.5688" lon="10.8244783"><ele>137.0</ele><time>2026-04-05T07:54:18.104Z</time></trkpt><trkpt lat="43.5688233" lon="10.8243617"><ele>137.0</ele><time>2026-04-05T07:54:19.104Z</time></trkpt><trkpt lat="43.568845" lon="10.82423"><ele>137.0</ele><time>2026-04-05T07:54:20.104Z</time></trkpt><trkpt lat="43.5688683" lon="10.8240933"><ele>137.0</ele><time>2026-04-05T07:54:21.104Z</time></trkpt><trkpt lat="43.5688933" lon="10.8239483"><ele>138.0</ele><time>2026-04-05T07:54:22.103Z</time></trkpt><trkpt lat="43.56892" lon="10.8237967"><ele>139.0</ele><time>2026-04-05T07:54:23.104Z</time></trkpt><trkpt lat="43.5689417" lon="10.82364"><ele>140.0</ele><time>2026-04-05T07:54:24.104Z</time></trkpt><trkpt lat="43.5689633" lon="10.82348"><ele>141.0</ele><time>2026-04-05T07:54:25.103Z</time></trkpt><trkpt lat="43.5689867" lon="10.8233083"><ele>142.25</ele><time>2026-04-05T07:54:26.104Z</time></trkpt><trkpt lat="43.5690083" lon="10.8231283"><ele>143.5</ele><time>2026-04-05T07:54:27.103Z</time></trkpt><trkpt lat="43.5690283" lon="10.8229417"><ele>144.75</ele><time>2026-04-05T07:54:28.104Z</time></trkpt><trkpt lat="43.569045" lon="10.822755"><ele>146.0</ele><time>2026-04-05T07:54:29.104Z</time></trkpt><trkpt lat="43.5690583" lon="10.8225667"><ele>146.5</ele><time>2026-04-05T07:54:30.104Z</time></trkpt><trkpt lat="43.5690733" lon="10.8223783"><ele>147.0</ele><time>2026-04-05T07:54:31.104Z</time></trkpt><trkpt lat="43.5690833" lon="10.82219"><ele>147.5</ele><time>2026-04-05T07:54:32.104Z</time></trkpt><trkpt lat="43.5690833" lon="10.8220033"><ele>148.0</ele><time>2026-04-05T07:54:33.104Z</time></trkpt><trkpt lat="43.5690667" lon="10.82182"><ele>149.25</ele><time>2026-04-05T07:54:34.104Z</time></trkpt><trkpt lat="43.569035" lon="10.8216417"><ele>150.5</ele><time>2026-04-05T07:54:35.104Z</time></trkpt><trkpt lat="43.569" lon="10.8214667"><ele>151.75</ele><time>2026-04-05T07:54:36.104Z</time></trkpt><trkpt lat="43.5689617" lon="10.8212933"><ele>153.0</ele><time>2026-04-05T07:54:37.104Z</time></trkpt><trkpt lat="43.5689317" lon="10.8211267"><ele>154.8</ele><time>2026-04-05T07:54:38.104Z</time></trkpt><trkpt lat="43.56891" lon="10.8209633"><ele>156.60000000000002</ele><time>2026-04-05T07:54:39.104Z</time></trkpt><trkpt lat="43.56889" lon="10.820805"><ele>158.39999999999998</ele><time>2026-04-05T07:54:40.104Z</time></trkpt><trkpt lat="43.568875" lon="10.820655"><ele>160.2</ele><time>2026-04-05T07:54:41.104Z</time></trkpt><trkpt lat="43.5688767" lon="10.8205167"><ele>162.0</ele><time>2026-04-05T07:54:42.104Z</time></trkpt><trkpt lat="43.5689" lon="10.82038"><ele>162.0</ele><time>2026-04-05T07:54:43.104Z</time></trkpt><trkpt lat="43.568945" lon="10.820245"><ele>162.0</ele><time>2026-04-05T07:54:44.104Z</time></trkpt><trkpt lat="43.569" lon="10.8201067"><ele>162.0</ele><time>2026-04-05T07:54:45.104Z</time></trkpt><trkpt lat="43.5690567" lon="10.8199617"><ele>162.0</ele><time>2026-04-05T07:54:46.104Z</time></trkpt><trkpt lat="43.5691167" lon="10.819815"><ele>163.75</ele><time>2026-04-05T07:54:47.104Z</time></trkpt><trkpt lat="43.56918" lon="10.81967"><ele>165.5</ele><time>2026-04-05T07:54:48.104Z</time></trkpt><trkpt lat="43.56925" lon="10.819525"><ele>167.25</ele><time>2026-04-05T07:54:49.104Z</time></trkpt><trkpt lat="43.569325" lon="10.8193833"><ele>169.0</ele><time>2026-04-05T07:54:50.104Z</time></trkpt><trkpt lat="43.569395" lon="10.819245"><ele>169.25</ele><time>2026-04-05T07:54:51.104Z</time></trkpt><trkpt lat="43.5694533" lon="10.8191"><ele>169.5</ele><time>2026-04-05T07:54:52.104Z</time></trkpt><trkpt lat="43.56948" lon="10.8189467"><ele>169.75</ele><time>2026-04-05T07:54:53.104Z</time></trkpt><trkpt lat="43.5694883" lon="10.8187783"><ele>170.0</ele><time>2026-04-05T07:54:54.104Z</time></trkpt><trkpt lat="43.569475" lon="10.8186067"><ele>170.5</ele><time>2026-04-05T07:54:55.104Z</time></trkpt><trkpt lat="43.569445" lon="10.818435"><ele>171.0</ele><time>2026-04-05T07:54:56.104Z</time></trkpt><trkpt lat="43.5694" lon="10.8182667"><ele>171.5</ele><time>2026-04-05T07:54:57.104Z</time></trkpt><trkpt lat="43.5693433" lon="10.8181117"><ele>172.0</ele><time>2026-04-05T07:54:58.103Z</time></trkpt><trkpt lat="43.5692783" lon="10.8179583"><ele>172.0</ele><time>2026-04-05T07:54:59.104Z</time></trkpt><trkpt lat="43.5692133" lon="10.8178"><ele>172.0</ele><time>2026-04-05T07:55:00.104Z</time></trkpt><trkpt lat="43.56915" lon="10.817635"><ele>172.0</ele><time>2026-04-05T07:55:01.104Z</time></trkpt><trkpt lat="43.569085" lon="10.8174683"><ele>172.0</ele><time>2026-04-05T07:55:02.104Z</time></trkpt><trkpt lat="43.5690133" lon="10.8173033"><ele>174.5</ele><time>2026-04-05T07:55:03.104Z</time></trkpt><trkpt lat="43.5689417" lon="10.81714"><ele>177.0</ele><time>2026-04-05T07:55:04.104Z</time></trkpt><trkpt lat="43.5688667" lon="10.81698"><ele>179.5</ele><time>2026-04-05T07:55:05.104Z</time></trkpt><trkpt lat="43.5687883" lon="10.816825"><ele>182.0</ele><time>2026-04-05T07:55:06.104Z</time></trkpt><trkpt lat="43.5687117" lon="10.816665"><ele>181.0</ele><time>2026-04-05T07:55:07.104Z</time></trkpt><trkpt lat="43.568635" lon="10.8165133"><ele>180.0</ele><time>2026-04-05T07:55:08.104Z</time></trkpt><trkpt lat="43.5685617" lon="10.81636"><ele>179.0</ele><time>2026-04-05T07:55:09.104Z</time></trkpt><trkpt lat="43.56849" lon="10.8162083"><ele>178.0</ele><time>2026-04-05T07:55:10.104Z</time></trkpt><trkpt lat="43.5684167" lon="10.8160617"><ele>178.75</ele><time>2026-04-05T07:55:11.103Z</time></trkpt><trkpt lat="43.5683483" lon="10.81591"><ele>179.5</ele><time>2026-04-05T07:55:12.104Z</time></trkpt><trkpt lat="43.568285" lon="10.8157517"><ele>180.25</ele><time>2026-04-05T07:55:13.104Z</time></trkpt><trkpt lat="43.56823" lon="10.8155867"><ele>181.0</ele><time>2026-04-05T07:55:14.104Z</time></trkpt><trkpt lat="43.5681867" lon="10.81542"><ele>181.0</ele><time>2026-04-05T07:55:15.104Z</time></trkpt><trkpt lat="43.568155" lon="10.8152467"><ele>181.0</ele><time>2026-04-05T07:55:16.104Z</time></trkpt><trkpt lat="43.5681317" lon="10.8150633"><ele>181.0</ele><time>2026-04-05T07:55:17.104Z</time></trkpt><trkpt lat="43.5681117" lon="10.8148783"><ele>181.0</ele><time>2026-04-05T07:55:18.104Z</time></trkpt><trkpt lat="43.5680933" lon="10.8146917"><ele>180.25</ele><time>2026-04-05T07:55:19.104Z</time></trkpt><trkpt lat="43.5680717" lon="10.8145033"><ele>179.5</ele><time>2026-04-05T07:55:20.104Z</time></trkpt><trkpt lat="43.5680483" lon="10.8143133"><ele>178.75</ele><time>2026-04-05T07:55:21.104Z</time></trkpt><trkpt lat="43.5680267" lon="10.8141233"><ele>178.0</ele><time>2026-04-05T07:55:22.104Z</time></trkpt><trkpt lat="43.5680083" lon="10.813935"><ele>176.75</ele><time>2026-04-05T07:55:23.104Z</time></trkpt><trkpt lat="43.567995" lon="10.8137483"><ele>175.5</ele><time>2026-04-05T07:55:24.104Z</time></trkpt><trkpt lat="43.5679967" lon="10.8135617"><ele>174.25</ele><time>2026-04-05T07:55:25.104Z</time></trkpt><trkpt lat="43.568025" lon="10.813385"><ele>173.0</ele><time>2026-04-05T07:55:26.104Z</time></trkpt><trkpt lat="43.568075" lon="10.8132267"><ele>172.75</ele><time>2026-04-05T07:55:27.104Z</time></trkpt><trkpt lat="43.5681383" lon="10.81308"><ele>172.5</ele><time>2026-04-05T07:55:28.104Z</time></trkpt><trkpt lat="43.5681933" lon="10.8129333"><ele>172.25</ele><time>2026-04-05T07:55:29.104Z</time></trkpt><trkpt lat="43.5682183" lon="10.8127867"><ele>172.0</ele><time>2026-04-05T07:55:30.104Z</time></trkpt><trkpt lat="43.5682133" lon="10.8126333"><ele>173.0</ele><time>2026-04-05T07:55:31.104Z</time></trkpt><trkpt lat="43.568185" lon="10.812475"><ele>174.0</ele><time>2026-04-05T07:55:32.104Z</time></trkpt><trkpt lat="43.5681483" lon="10.812315"><ele>175.0</ele><time>2026-04-05T07:55:33.104Z</time></trkpt><trkpt lat="43.5681033" lon="10.8121533"><ele>176.0</ele><time>2026-04-05T07:55:34.103Z</time></trkpt><trkpt lat="43.5680567" lon="10.81199"><ele>173.75</ele><time>2026-04-05T07:55:35.104Z</time></trkpt><trkpt lat="43.5680083" lon="10.8118233"><ele>171.5</ele><time>2026-04-05T07:55:36.104Z</time></trkpt><trkpt lat="43.5679667" lon="10.8116567"><ele>169.25</ele><time>2026-04-05T07:55:37.104Z</time></trkpt><trkpt lat="43.5679217" lon="10.811495"><ele>167.0</ele><time>2026-04-05T07:55:38.104Z</time></trkpt><trkpt lat="43.5678733" lon="10.8113383"><ele>168.39999999999998</ele><time>2026-04-05T07:55:39.104Z</time></trkpt><trkpt lat="43.567825" lon="10.81119"><ele>169.79999999999998</ele><time>2026-04-05T07:55:40.104Z</time></trkpt><trkpt lat="43.5677833" lon="10.8110517"><ele>171.2</ele><time>2026-04-05T07:55:41.104Z</time></trkpt><trkpt lat="43.5677533" lon="10.8109083"><ele>172.6</ele><time>2026-04-05T07:55:42.104Z</time></trkpt><trkpt lat="43.5677433" lon="10.810765"><ele>174.0</ele><time>2026-04-05T07:55:43.104Z</time></trkpt><trkpt lat="43.5677567" lon="10.810625"><ele>174.0</ele><time>2026-04-05T07:55:44.104Z</time></trkpt><trkpt lat="43.5677967" lon="10.81049"><ele>174.0</ele><time>2026-04-05T07:55:45.104Z</time></trkpt><trkpt lat="43.5678533" lon="10.8103583"><ele>174.0</ele><time>2026-04-05T07:55:46.104Z</time></trkpt><trkpt lat="43.5679217" lon="10.8102333"><ele>174.0</ele><time>2026-04-05T07:55:47.104Z</time></trkpt><trkpt lat="43.5679967" lon="10.8101183"><ele>174.0</ele><time>2026-04-05T07:55:48.104Z</time></trkpt><trkpt lat="43.5680833" lon="10.8100233"><ele>173.0</ele><time>2026-04-05T07:55:49.104Z</time></trkpt><trkpt lat="43.5681783" lon="10.8099633"><ele>172.0</ele><time>2026-04-05T07:55:50.104Z</time></trkpt><trkpt lat="43.5682783" lon="10.8099233"><ele>171.0</ele><time>2026-04-05T07:55:51.104Z</time></trkpt><trkpt lat="43.5683783" lon="10.8098817"><ele>170.0</ele><time>2026-04-05T07:55:52.104Z</time></trkpt><trkpt lat="43.5684767" lon="10.8098367"><ele>169.0</ele><time>2026-04-05T07:55:53.104Z</time></trkpt><trkpt lat="43.56857" lon="10.8097617"><ele>169.0</ele><time>2026-04-05T07:55:54.104Z</time></trkpt><trkpt lat="43.5686517" lon="10.8096567"><ele>169.0</ele><time>2026-04-05T07:55:55.104Z</time></trkpt><trkpt lat="43.5687317" lon="10.8095317"><ele>169.0</ele><time>2026-04-05T07:55:56.104Z</time></trkpt><trkpt lat="43.56881" lon="10.809395"><ele>169.0</ele><time>2026-04-05T07:55:57.104Z</time></trkpt><trkpt lat="43.5688917" lon="10.8092567"><ele>168.75</ele><time>2026-04-05T07:55:58.104Z</time></trkpt><trkpt lat="43.5689817" lon="10.8091183"><ele>168.5</ele><time>2026-04-05T07:55:59.104Z</time></trkpt><trkpt lat="43.5690733" lon="10.8089917"><ele>168.25</ele><time>2026-04-05T07:56:00.104Z</time></trkpt><trkpt lat="43.56917" lon="10.8088767"><ele>168.0</ele><time>2026-04-05T07:56:01.103Z</time></trkpt><trkpt lat="43.5692783" lon="10.8087733"><ele>168.0</ele><time>2026-04-05T07:56:02.104Z</time></trkpt><trkpt lat="43.569395" lon="10.808695"><ele>168.0</ele><time>2026-04-05T07:56:03.104Z</time></trkpt><trkpt lat="43.5695133" lon="10.8086567"><ele>168.0</ele><time>2026-04-05T07:56:04.104Z</time></trkpt><trkpt lat="43.5696333" lon="10.8086517"><ele>168.0</ele><time>2026-04-05T07:56:05.104Z</time></trkpt><trkpt lat="43.56975" lon="10.8086867"><ele>168.5</ele><time>2026-04-05T07:56:06.104Z</time></trkpt><trkpt lat="43.5698617" lon="10.80875"><ele>169.0</ele><time>2026-04-05T07:56:07.104Z</time></trkpt><trkpt lat="43.569975" lon="10.8088117"><ele>169.5</ele><time>2026-04-05T07:56:08.104Z</time></trkpt><trkpt lat="43.5700917" lon="10.80885"><ele>170.0</ele><time>2026-04-05T07:56:09.104Z</time></trkpt><trkpt lat="43.570205" lon="10.8088583"><ele>170.0</ele><time>2026-04-05T07:56:10.104Z</time></trkpt><trkpt lat="43.5703133" lon="10.8088267"><ele>170.0</ele><time>2026-04-05T07:56:11.104Z</time></trkpt><trkpt lat="43.5704133" lon="10.80876"><ele>170.0</ele><time>2026-04-05T07:56:12.104Z</time></trkpt><trkpt lat="43.570505" lon="10.8086583"><ele>170.0</ele><time>2026-04-05T07:56:13.104Z</time></trkpt><trkpt lat="43.5705917" lon="10.8085333"><ele>171.5</ele><time>2026-04-05T07:56:14.104Z</time></trkpt><trkpt lat="43.5706783" lon="10.8083967"><ele>173.0</ele><time>2026-04-05T07:56:15.104Z</time></trkpt><trkpt lat="43.570765" lon="10.8082533"><ele>174.5</ele><time>2026-04-05T07:56:16.104Z</time></trkpt><trkpt lat="43.5708567" lon="10.8081117"><ele>176.0</ele><time>2026-04-05T07:56:17.104Z</time></trkpt><trkpt lat="43.570945" lon="10.8079717"><ele>176.0</ele><time>2026-04-05T07:56:18.104Z</time></trkpt><trkpt lat="43.5710317" lon="10.8078333"><ele>176.0</ele><time>2026-04-05T07:56:19.104Z</time></trkpt><trkpt lat="43.5711033" lon="10.80769"><ele>176.0</ele><time>2026-04-05T07:56:20.104Z</time></trkpt><trkpt lat="43.5711583" lon="10.8075367"><ele>176.0</ele><time>2026-04-05T07:56:21.104Z</time></trkpt><trkpt lat="43.57118" lon="10.8073717"><ele>176.0</ele><time>2026-04-05T07:56:22.104Z</time></trkpt><trkpt lat="43.5711767" lon="10.8071983"><ele>176.0</ele><time>2026-04-05T07:56:23.104Z</time></trkpt><trkpt lat="43.5711567" lon="10.8070183"><ele>176.0</ele><time>2026-04-05T07:56:24.104Z</time></trkpt><trkpt lat="43.5711283" lon="10.806835"><ele>176.0</ele><time>2026-04-05T07:56:25.104Z</time></trkpt><trkpt lat="43.5711" lon="10.80665"><ele>176.0</ele><time>2026-04-05T07:56:26.104Z</time></trkpt><trkpt lat="43.5710717" lon="10.80647"><ele>176.0</ele><time>2026-04-05T07:56:27.104Z</time></trkpt><trkpt lat="43.5710417" lon="10.8062883"><ele>176.0</ele><time>2026-04-05T07:56:28.104Z</time></trkpt><trkpt lat="43.5710117" lon="10.80611"><ele>176.0</ele><time>2026-04-05T07:56:29.104Z</time></trkpt><trkpt lat="43.57099" lon="10.8059333"><ele>177.25</ele><time>2026-04-05T07:56:30.104Z</time></trkpt><trkpt lat="43.57098" lon="10.805755"><ele>178.5</ele><time>2026-04-05T07:56:31.103Z</time></trkpt><trkpt lat="43.570985" lon="10.805575"><ele>179.75</ele><time>2026-04-05T07:56:32.104Z</time></trkpt><trkpt lat="43.5710017" lon="10.8053883"><ele>181.0</ele><time>2026-04-05T07:56:33.104Z</time></trkpt><trkpt lat="43.5710233" lon="10.8051967"><ele>183.75</ele><time>2026-04-05T07:56:34.103Z</time></trkpt><trkpt lat="43.5710433" lon="10.8050033"><ele>186.5</ele><time>2026-04-05T07:56:35.104Z</time></trkpt><trkpt lat="43.5710617" lon="10.8048083"><ele>189.25</ele><time>2026-04-05T07:56:36.104Z</time></trkpt><trkpt lat="43.5710733" lon="10.8046133"><ele>192.0</ele><time>2026-04-05T07:56:37.104Z</time></trkpt><trkpt lat="43.57107" lon="10.8044183"><ele>194.5</ele><time>2026-04-05T07:56:38.104Z</time></trkpt><trkpt lat="43.571055" lon="10.804225"><ele>197.0</ele><time>2026-04-05T07:56:39.104Z</time></trkpt><trkpt lat="43.5710233" lon="10.8040383"><ele>199.5</ele><time>2026-04-05T07:56:40.104Z</time></trkpt><trkpt lat="43.570965" lon="10.803875"><ele>202.0</ele><time>2026-04-05T07:56:41.104Z</time></trkpt><trkpt lat="43.5708817" lon="10.80373"><ele>202.0</ele><time>2026-04-05T07:56:42.104Z</time></trkpt><trkpt lat="43.5707733" lon="10.8036167"><ele>202.0</ele><time>2026-04-05T07:56:43.103Z</time></trkpt><trkpt lat="43.5706517" lon="10.8035283"><ele>202.0</ele><time>2026-04-05T07:56:44.104Z</time></trkpt><trkpt lat="43.570525" lon="10.8034533"><ele>202.0</ele><time>2026-04-05T07:56:45.104Z</time></trkpt><trkpt lat="43.5704017" lon="10.8033883"><ele>202.6</ele><time>2026-04-05T07:56:46.104Z</time></trkpt><trkpt lat="43.5702917" lon="10.8033217"><ele>203.2</ele><time>2026-04-05T07:56:47.104Z</time></trkpt><trkpt lat="43.570195" lon="10.8032467"><ele>203.8</ele><time>2026-04-05T07:56:48.104Z</time></trkpt><trkpt lat="43.5701033" lon="10.803165"><ele>204.4</ele><time>2026-04-05T07:56:49.104Z</time></trkpt><trkpt lat="43.57003" lon="10.803055"><ele>205.0</ele><time>2026-04-05T07:56:50.104Z</time></trkpt><trkpt lat="43.5699683" lon="10.8029267"><ele>205.0</ele><time>2026-04-05T07:56:51.104Z</time></trkpt><trkpt lat="43.5699083" lon="10.8027917"><ele>205.0</ele><time>2026-04-05T07:56:52.104Z</time></trkpt><trkpt lat="43.5698517" lon="10.8026617"><ele>205.0</ele><time>2026-04-05T07:56:53.104Z</time></trkpt><trkpt lat="43.5698083" lon="10.8025433"><ele>205.0</ele><time>2026-04-05T07:56:54.104Z</time></trkpt><trkpt lat="43.5697617" lon="10.8024433"><ele>205.0</ele><time>2026-04-05T07:56:55.104Z</time></trkpt><trkpt lat="43.5697133" lon="10.8023467"><ele>202.8</ele><time>2026-04-05T07:56:56.104Z</time></trkpt><trkpt lat="43.5696667" lon="10.8022433"><ele>200.6</ele><time>2026-04-05T07:56:57.104Z</time></trkpt><trkpt lat="43.56962" lon="10.802135"><ele>198.39999999999998</ele><time>2026-04-05T07:56:58.103Z</time></trkpt><trkpt lat="43.5695667" lon="10.8020283"><ele>196.2</ele><time>2026-04-05T07:56:59.103Z</time></trkpt><trkpt lat="43.5695" lon="10.8019367"><ele>194.0</ele><time>2026-04-05T07:57:00.104Z</time></trkpt><trkpt lat="43.5694217" lon="10.8018567"><ele>194.0</ele><time>2026-04-05T07:57:01.104Z</time></trkpt><trkpt lat="43.5693417" lon="10.8018067"><ele>194.0</ele><time>2026-04-05T07:57:02.104Z</time></trkpt><trkpt lat="43.5692583" lon="10.80179"><ele>194.0</ele><time>2026-04-05T07:57:03.104Z</time></trkpt><trkpt lat="43.56917" lon="10.8018033"><ele>194.0</ele><time>2026-04-05T07:57:04.104Z</time></trkpt><trkpt lat="43.5690733" lon="10.8018417"><ele>194.0</ele><time>2026-04-05T07:57:05.104Z</time></trkpt><trkpt lat="43.5689733" lon="10.8018817"><ele>194.0</ele><time>2026-04-05T07:57:06.104Z</time></trkpt><trkpt lat="43.5688717" lon="10.8019083"><ele>194.0</ele><time>2026-04-05T07:57:07.104Z</time></trkpt><trkpt lat="43.5687717" lon="10.8019167"><ele>194.0</ele><time>2026-04-05T07:57:08.104Z</time></trkpt><trkpt lat="43.5686667" lon="10.8019233"><ele>194.0</ele><time>2026-04-05T07:57:09.104Z</time></trkpt><trkpt lat="43.568565" lon="10.8019233"><ele>194.0</ele><time>2026-04-05T07:57:10.104Z</time></trkpt><trkpt lat="43.568465" lon="10.80192"><ele>191.39999999999998</ele><time>2026-04-05T07:57:11.104Z</time></trkpt><trkpt lat="43.5683633" lon="10.8019117"><ele>188.8</ele><time>2026-04-05T07:57:12.104Z</time></trkpt><trkpt lat="43.5682617" lon="10.8019083"><ele>186.2</ele><time>2026-04-05T07:57:13.104Z</time></trkpt><trkpt lat="43.56816" lon="10.801905"><ele>183.60000000000002</ele><time>2026-04-05T07:57:14.103Z</time></trkpt><trkpt lat="43.5680533" lon="10.8019017"><ele>181.0</ele><time>2026-04-05T07:57:15.104Z</time></trkpt><trkpt lat="43.5679433" lon="10.8018933"><ele>181.4</ele><time>2026-04-05T07:57:16.104Z</time></trkpt><trkpt lat="43.5678317" lon="10.8018867"><ele>181.8</ele><time>2026-04-05T07:57:17.104Z</time></trkpt><trkpt lat="43.5677217" lon="10.80188"><ele>182.20000000000002</ele><time>2026-04-05T07:57:18.104Z</time></trkpt><trkpt lat="43.56761" lon="10.801865"><ele>182.60000000000002</ele><time>2026-04-05T07:57:19.104Z</time></trkpt><trkpt lat="43.5674967" lon="10.801845"><ele>183.0</ele><time>2026-04-05T07:57:20.103Z</time></trkpt><trkpt lat="43.56738" lon="10.8018133"><ele>183.0</ele><time>2026-04-05T07:57:21.104Z</time></trkpt><trkpt lat="43.56726" lon="10.80177"><ele>183.0</ele><time>2026-04-05T07:57:22.104Z</time></trkpt><trkpt lat="43.567135" lon="10.8017133"><ele>183.0</ele><time>2026-04-05T07:57:23.104Z</time></trkpt><trkpt lat="43.567015" lon="10.8016433"><ele>183.0</ele><time>2026-04-05T07:57:24.104Z</time></trkpt><trkpt lat="43.5669033" lon="10.8015717"><ele>183.0</ele><time>2026-04-05T07:57:25.104Z</time></trkpt><trkpt lat="43.566795" lon="10.8015033"><ele>183.0</ele><time>2026-04-05T07:57:26.104Z</time></trkpt><trkpt lat="43.5666867" lon="10.8014383"><ele>183.0</ele><time>2026-04-05T07:57:27.104Z</time></trkpt><trkpt lat="43.566585" lon="10.8013783"><ele>183.0</ele><time>2026-04-05T07:57:28.104Z</time></trkpt><trkpt lat="43.5664883" lon="10.8013183"><ele>183.0</ele><time>2026-04-05T07:57:29.103Z</time></trkpt><trkpt lat="43.566395" lon="10.80126"><ele>183.0</ele><time>2026-04-05T07:57:30.104Z</time></trkpt><trkpt lat="43.5663117" lon="10.8012067"><ele>183.0</ele><time>2026-04-05T07:57:31.104Z</time></trkpt><trkpt lat="43.56624" lon="10.8011567"><ele>183.0</ele><time>2026-04-05T07:57:32.103Z</time></trkpt><trkpt lat="43.5661783" lon="10.8011117"><ele>183.0</ele><time>2026-04-05T07:57:33.104Z</time></trkpt><trkpt lat="43.5661167" lon="10.8010717"><ele>183.0</ele><time>2026-04-05T07:57:34.104Z</time></trkpt><trkpt lat="43.5660583" lon="10.8010317"><ele>182.8</ele><time>2026-04-05T07:57:35.104Z</time></trkpt><trkpt lat="43.566" lon="10.8009967"><ele>182.60000000000002</ele><time>2026-04-05T07:57:36.104Z</time></trkpt><trkpt lat="43.56589" lon="10.8009233"><ele>182.39999999999998</ele><time>2026-04-05T07:57:38.104Z</time></trkpt><trkpt lat="43.5657917" lon="10.8008267"><ele>182.2</ele><time>2026-04-05T07:57:40.104Z</time></trkpt><trkpt lat="43.5657017" lon="10.8007133"><ele>182.0</ele><time>2026-04-05T07:57:42.104Z</time></trkpt><trkpt lat="43.565625" lon="10.8006"><ele>182.0</ele><time>2026-04-05T07:57:44.103Z</time></trkpt><trkpt lat="43.5655433" lon="10.8005067"><ele>182.0</ele><time>2026-04-05T07:57:46.104Z</time></trkpt><trkpt lat="43.565455" lon="10.800445"><ele>182.0</ele><time>2026-04-05T07:57:48.104Z</time></trkpt><trkpt lat="43.565355" lon="10.800415"><ele>182.0</ele><time>2026-04-05T07:57:50.104Z</time></trkpt><trkpt lat="43.5652483" lon="10.8004117"><ele>182.0</ele><time>2026-04-05T07:57:52.103Z</time></trkpt><trkpt lat="43.5651433" lon="10.8004267"><ele>181.6</ele><time>2026-04-05T07:57:54.104Z</time></trkpt><trkpt lat="43.56504" lon="10.8004283"><ele>181.2</ele><time>2026-04-05T07:57:56.103Z</time></trkpt><trkpt lat="43.56493" lon="10.8004017"><ele>180.8</ele><time>2026-04-05T07:57:58.104Z</time></trkpt><trkpt lat="43.5648333" lon="10.8003967"><ele>180.4</ele><time>2026-04-05T07:58:00.103Z</time></trkpt><trkpt lat="43.56476" lon="10.8004133"><ele>180.0</ele><time>2026-04-05T07:58:02.104Z</time></trkpt><trkpt lat="43.5648233" lon="10.8003717"><ele>180.0</ele><time>2026-04-05T08:04:20.103Z</time></trkpt><trkpt lat="43.56494" lon="10.80041"><ele>180.0</ele><time>2026-04-05T08:05:01.103Z</time></trkpt><trkpt lat="43.5650317" lon="10.80042"><ele>180.0</ele><time>2026-04-05T08:05:03.103Z</time></trkpt><trkpt lat="43.5651383" lon="10.8004233"><ele>180.0</ele><time>2026-04-05T08:05:05.103Z</time></trkpt><trkpt lat="43.56524" lon="10.8004083"><ele>180.0</ele><time>2026-04-05T08:05:07.103Z</time></trkpt><trkpt lat="43.5653433" lon="10.8004067"><ele>180.4</ele><time>2026-04-05T08:05:09.103Z</time></trkpt><trkpt lat="43.5654483" lon="10.8004317"><ele>180.8</ele><time>2026-04-05T08:05:11.103Z</time></trkpt><trkpt lat="43.56554" lon="10.80048"><ele>181.2</ele><time>2026-04-05T08:05:13.103Z</time></trkpt><trkpt lat="43.56562" lon="10.8005533"><ele>181.6</ele><time>2026-04-05T08:05:15.103Z</time></trkpt><trkpt lat="43.5656833" lon="10.8006567"><ele>182.0</ele><time>2026-04-05T08:05:17.103Z</time></trkpt><trkpt lat="43.56575" lon="10.8007717"><ele>182.0</ele><time>2026-04-05T08:05:19.103Z</time></trkpt><trkpt lat="43.5658283" lon="10.8008733"><ele>182.0</ele><time>2026-04-05T08:05:21.103Z</time></trkpt><trkpt lat="43.565925" lon="10.8009567"><ele>182.0</ele><time>2026-04-05T08:05:23.103Z</time></trkpt><trkpt lat="43.5661067" lon="10.8010867"><ele>182.0</ele><time>2026-04-05T08:05:26.103Z</time></trkpt><trkpt lat="43.5661783" lon="10.8011317"><ele>182.16666666666666</ele><time>2026-04-05T08:05:27.103Z</time></trkpt><trkpt lat="43.5662533" lon="10.80118"><ele>182.33333333333331</ele><time>2026-04-05T08:05:28.103Z</time></trkpt><trkpt lat="43.5663267" lon="10.80122"><ele>182.5</ele><time>2026-04-05T08:05:29.103Z</time></trkpt><trkpt lat="43.5663967" lon="10.8012633"><ele>182.66666666666666</ele><time>2026-04-05T08:05:30.103Z</time></trkpt><trkpt lat="43.5664733" lon="10.80131"><ele>182.83333333333334</ele><time>2026-04-05T08:05:31.103Z</time></trkpt><trkpt lat="43.5665533" lon="10.80136"><ele>183.0</ele><time>2026-04-05T08:05:32.103Z</time></trkpt><trkpt lat="43.56663" lon="10.8014117"><ele>183.0</ele><time>2026-04-05T08:05:33.102Z</time></trkpt><trkpt lat="43.5667117" lon="10.8014633"><ele>183.0</ele><time>2026-04-05T08:05:34.103Z</time></trkpt><trkpt lat="43.566795" lon="10.8015167"><ele>183.0</ele><time>2026-04-05T08:05:35.103Z</time></trkpt><trkpt lat="43.5668833" lon="10.801565"><ele>183.0</ele><time>2026-04-05T08:05:36.103Z</time></trkpt><trkpt lat="43.5669733" lon="10.801615"><ele>183.0</ele><time>2026-04-05T08:05:37.103Z</time></trkpt><trkpt lat="43.5670683" lon="10.80167"><ele>183.0</ele><time>2026-04-05T08:05:38.103Z</time></trkpt><trkpt lat="43.5671683" lon="10.80173"><ele>183.0</ele><time>2026-04-05T08:05:39.102Z</time></trkpt><trkpt lat="43.567275" lon="10.8017817"><ele>183.0</ele><time>2026-04-05T08:05:40.103Z</time></trkpt><trkpt lat="43.5673833" lon="10.8018217"><ele>183.0</ele><time>2026-04-05T08:05:41.103Z</time></trkpt><trkpt lat="43.5674883" lon="10.8018483"><ele>183.0</ele><time>2026-04-05T08:05:42.103Z</time></trkpt><trkpt lat="43.5675867" lon="10.801865"><ele>183.0</ele><time>2026-04-05T08:05:43.103Z</time></trkpt><trkpt lat="43.567685" lon="10.801875"><ele>183.0</ele><time>2026-04-05T08:05:44.103Z</time></trkpt><trkpt lat="43.56778" lon="10.8018817"><ele>183.0</ele><time>2026-04-05T08:05:45.103Z</time></trkpt><trkpt lat="43.567875" lon="10.8018933"><ele>183.0</ele><time>2026-04-05T08:05:46.103Z</time></trkpt><trkpt lat="43.567975" lon="10.8018983"><ele>183.0</ele><time>2026-04-05T08:05:47.103Z</time></trkpt><trkpt lat="43.5680767" lon="10.8019083"><ele>182.5</ele><time>2026-04-05T08:05:48.103Z</time></trkpt><trkpt lat="43.568185" lon="10.8019133"><ele>182.0</ele><time>2026-04-05T08:05:49.103Z</time></trkpt><trkpt lat="43.5682983" lon="10.801915"><ele>181.5</ele><time>2026-04-05T08:05:50.103Z</time></trkpt><trkpt lat="43.5684167" lon="10.801925"><ele>181.0</ele><time>2026-04-05T08:05:51.102Z</time></trkpt><trkpt lat="43.568535" lon="10.8019317"><ele>181.0</ele><time>2026-04-05T08:05:52.102Z</time></trkpt><trkpt lat="43.568655" lon="10.80194"><ele>181.0</ele><time>2026-04-05T08:05:53.103Z</time></trkpt><trkpt lat="43.5687733" lon="10.8019417"><ele>181.0</ele><time>2026-04-05T08:05:54.103Z</time></trkpt><trkpt lat="43.5688867" lon="10.8019333"><ele>181.0</ele><time>2026-04-05T08:05:55.103Z</time></trkpt><trkpt lat="43.5689967" lon="10.8019083"><ele>183.60000000000002</ele><time>2026-04-05T08:05:56.103Z</time></trkpt><trkpt lat="43.5690983" lon="10.8018717"><ele>186.2</ele><time>2026-04-05T08:05:57.103Z</time></trkpt><trkpt lat="43.5691917" lon="10.8018333"><ele>188.8</ele><time>2026-04-05T08:05:58.103Z</time></trkpt><trkpt lat="43.56928" lon="10.8018117"><ele>191.39999999999998</ele><time>2026-04-05T08:05:59.103Z</time></trkpt><trkpt lat="43.5693617" lon="10.801805"><ele>194.0</ele><time>2026-04-05T08:06:00.102Z</time></trkpt><trkpt lat="43.5694383" lon="10.80182"><ele>194.00000000000003</ele><time>2026-04-05T08:06:01.103Z</time></trkpt><trkpt lat="43.5695117" lon="10.8018367"><ele>194.0</ele><time>2026-04-05T08:06:02.103Z</time></trkpt><trkpt lat="43.5695717" lon="10.8019133"><ele>194.0</ele><time>2026-04-05T08:06:03.103Z</time></trkpt><trkpt lat="43.5696283" lon="10.8019967"><ele>194.0</ele><time>2026-04-05T08:06:04.103Z</time></trkpt><trkpt lat="43.5696783" lon="10.8021183"><ele>194.00000000000003</ele><time>2026-04-05T08:06:05.103Z</time></trkpt><trkpt lat="43.5697333" lon="10.8022383"><ele>194.0</ele><time>2026-04-05T08:06:06.103Z</time></trkpt><trkpt lat="43.56978" lon="10.8023583"><ele>196.2</ele><time>2026-04-05T08:06:07.103Z</time></trkpt><trkpt lat="43.5698233" lon="10.802485"><ele>198.39999999999998</ele><time>2026-04-05T08:06:08.103Z</time></trkpt><trkpt lat="43.5698667" lon="10.802595"><ele>200.6</ele><time>2026-04-05T08:06:09.103Z</time></trkpt><trkpt lat="43.5699117" lon="10.8027267"><ele>202.8</ele><time>2026-04-05T08:06:10.102Z</time></trkpt><trkpt lat="43.5699533" lon="10.8028483"><ele>205.0</ele><time>2026-04-05T08:06:11.103Z</time></trkpt><trkpt lat="43.56999" lon="10.8029483"><ele>204.99999999999997</ele><time>2026-04-05T08:06:12.103Z</time></trkpt><trkpt lat="43.5700317" lon="10.8030767"><ele>205.0</ele><time>2026-04-05T08:06:14.103Z</time></trkpt><trkpt lat="43.5701017" lon="10.8032017"><ele>205.0</ele><time>2026-04-05T08:06:43.103Z</time></trkpt><trkpt lat="43.570155" lon="10.803255"><ele>205.0</ele><time>2026-04-05T08:06:44.103Z</time></trkpt><trkpt lat="43.5702167" lon="10.8033083"><ele>204.99999999999997</ele><time>2026-04-05T08:06:45.103Z</time></trkpt><trkpt lat="43.5702883" lon="10.8033567"><ele>205.0</ele><time>2026-04-05T08:06:46.102Z</time></trkpt><trkpt lat="43.5703667" lon="10.8034017"><ele>204.4</ele><time>2026-04-05T08:06:47.103Z</time></trkpt><trkpt lat="43.57045" lon="10.80345"><ele>203.8</ele><time>2026-04-05T08:06:48.103Z</time></trkpt><trkpt lat="43.5705383" lon="10.8035033"><ele>203.2</ele><time>2026-04-05T08:06:49.103Z</time></trkpt><trkpt lat="43.5706283" lon="10.8035633"><ele>202.6</ele><time>2026-04-05T08:06:50.103Z</time></trkpt><trkpt lat="43.5707233" lon="10.8036233"><ele>202.0</ele><time>2026-04-05T08:06:51.103Z</time></trkpt><trkpt lat="43.570815" lon="10.8037"><ele>202.0</ele><time>2026-04-05T08:06:52.103Z</time></trkpt><trkpt lat="43.5708933" lon="10.8037983"><ele>202.0</ele><time>2026-04-05T08:06:53.103Z</time></trkpt><trkpt lat="43.570955" lon="10.803915"><ele>202.0</ele><time>2026-04-05T08:06:54.103Z</time></trkpt><trkpt lat="43.571005" lon="10.8040483"><ele>202.0</ele><time>2026-04-05T08:06:55.103Z</time></trkpt><trkpt lat="43.5710367" lon="10.804195"><ele>202.0</ele><time>2026-04-05T08:06:56.103Z</time></trkpt><trkpt lat="43.5710517" lon="10.8043483"><ele>199.5</ele><time>2026-04-05T08:06:57.103Z</time></trkpt><trkpt lat="43.5710583" lon="10.804505"><ele>197.0</ele><time>2026-04-05T08:06:58.102Z</time></trkpt><trkpt lat="43.5710567" lon="10.8046717"><ele>194.5</ele><time>2026-04-05T08:06:59.103Z</time></trkpt><trkpt lat="43.571045" lon="10.8048417"><ele>192.0</ele><time>2026-04-05T08:07:00.103Z</time></trkpt><trkpt lat="43.57103" lon="10.805015"><ele>189.25</ele><time>2026-04-05T08:07:01.103Z</time></trkpt><trkpt lat="43.57101" lon="10.8051867"><ele>186.5</ele><time>2026-04-05T08:07:02.103Z</time></trkpt><trkpt lat="43.5709917" lon="10.80536"><ele>183.75</ele><time>2026-04-05T08:07:03.103Z</time></trkpt><trkpt lat="43.5709783" lon="10.8055317"><ele>181.0</ele><time>2026-04-05T08:07:04.103Z</time></trkpt><trkpt lat="43.5709683" lon="10.805705"><ele>181.0</ele><time>2026-04-05T08:07:05.103Z</time></trkpt><trkpt lat="43.57097" lon="10.8058733"><ele>181.0</ele><time>2026-04-05T08:07:06.103Z</time></trkpt><trkpt lat="43.5709867" lon="10.8060367"><ele>181.0</ele><time>2026-04-05T08:07:07.103Z</time></trkpt><trkpt lat="43.57101" lon="10.8061967"><ele>181.0</ele><time>2026-04-05T08:07:08.103Z</time></trkpt><trkpt lat="43.5710333" lon="10.8063567"><ele>180.75</ele><time>2026-04-05T08:07:09.103Z</time></trkpt><trkpt lat="43.5710567" lon="10.8065183"><ele>180.5</ele><time>2026-04-05T08:07:10.103Z</time></trkpt><trkpt lat="43.5710767" lon="10.8066767"><ele>180.25</ele><time>2026-04-05T08:07:11.103Z</time></trkpt><trkpt lat="43.5710967" lon="10.8068267"><ele>180.0</ele><time>2026-04-05T08:07:12.103Z</time></trkpt><trkpt lat="43.5711167" lon="10.8069767"><ele>180.0</ele><time>2026-04-05T08:07:13.103Z</time></trkpt><trkpt lat="43.5711333" lon="10.8071267"><ele>180.0</ele><time>2026-04-05T08:07:14.103Z</time></trkpt><trkpt lat="43.5711367" lon="10.8072767"><ele>180.0</ele><time>2026-04-05T08:07:15.103Z</time></trkpt><trkpt lat="43.5711217" lon="10.80742"><ele>180.0</ele><time>2026-04-05T08:07:16.103Z</time></trkpt><trkpt lat="43.5710917" lon="10.8075583"><ele>180.0</ele><time>2026-04-05T08:07:17.103Z</time></trkpt><trkpt lat="43.57105" lon="10.8076883"><ele>179.0</ele><time>2026-04-05T08:07:18.103Z</time></trkpt><trkpt lat="43.5709967" lon="10.807815"><ele>178.0</ele><time>2026-04-05T08:07:19.103Z</time></trkpt><trkpt lat="43.570935" lon="10.8079367"><ele>177.0</ele><time>2026-04-05T08:07:20.103Z</time></trkpt><trkpt lat="43.5708617" lon="10.8080617"><ele>176.0</ele><time>2026-04-05T08:07:21.103Z</time></trkpt><trkpt lat="43.5707833" lon="10.8081867"><ele>176.0</ele><time>2026-04-05T08:07:22.103Z</time></trkpt><trkpt lat="43.5707033" lon="10.8083117"><ele>176.0</ele><time>2026-04-05T08:07:23.103Z</time></trkpt><trkpt lat="43.5706267" lon="10.808435"><ele>176.0</ele><time>2026-04-05T08:07:24.103Z</time></trkpt><trkpt lat="43.57055" lon="10.8085517"><ele>176.0</ele><time>2026-04-05T08:07:25.103Z</time></trkpt><trkpt lat="43.5704683" lon="10.8086567"><ele>174.8</ele><time>2026-04-05T08:07:26.103Z</time></trkpt><trkpt lat="43.57038" lon="10.8087367"><ele>173.60000000000002</ele><time>2026-04-05T08:07:27.103Z</time></trkpt><trkpt lat="43.570285" lon="10.8087883"><ele>172.4</ele><time>2026-04-05T08:07:28.103Z</time></trkpt><trkpt lat="43.5701833" lon="10.8088133"><ele>171.2</ele><time>2026-04-05T08:07:29.103Z</time></trkpt><trkpt lat="43.5700767" lon="10.8088083"><ele>170.0</ele><time>2026-04-05T08:07:30.102Z</time></trkpt><trkpt lat="43.56997" lon="10.8087717"><ele>170.0</ele><time>2026-04-05T08:07:31.103Z</time></trkpt><trkpt lat="43.5698617" lon="10.808725"><ele>170.0</ele><time>2026-04-05T08:07:32.103Z</time></trkpt><trkpt lat="43.56975" lon="10.8086767"><ele>170.0</ele><time>2026-04-05T08:07:33.103Z</time></trkpt><trkpt lat="43.5696283" lon="10.80865"><ele>170.0</ele><time>2026-04-05T08:07:34.102Z</time></trkpt><trkpt lat="43.5695" lon="10.8086717"><ele>169.5</ele><time>2026-04-05T08:07:35.103Z</time></trkpt><trkpt lat="43.5693817" lon="10.8087033"><ele>169.0</ele><time>2026-04-05T08:07:36.103Z</time></trkpt><trkpt lat="43.5692733" lon="10.8087717"><ele>168.5</ele><time>2026-04-05T08:07:37.103Z</time></trkpt><trkpt lat="43.5691733" lon="10.8088733"><ele>168.0</ele><time>2026-04-05T08:07:38.103Z</time></trkpt><trkpt lat="43.56908" lon="10.80898"><ele>168.0</ele><time>2026-04-05T08:07:39.103Z</time></trkpt><trkpt lat="43.5689917" lon="10.8090933"><ele>168.0</ele><time>2026-04-05T08:07:40.103Z</time></trkpt><trkpt lat="43.5689083" lon="10.809215"><ele>168.0</ele><time>2026-04-05T08:07:41.103Z</time></trkpt><trkpt lat="43.56883" lon="10.809345"><ele>168.0</ele><time>2026-04-05T08:07:42.103Z</time></trkpt><trkpt lat="43.5687483" lon="10.80947"><ele>168.25</ele><time>2026-04-05T08:07:43.103Z</time></trkpt><trkpt lat="43.5686633" lon="10.8095967"><ele>168.5</ele><time>2026-04-05T08:07:44.103Z</time></trkpt><trkpt lat="43.5685683" lon="10.809715"><ele>168.75</ele><time>2026-04-05T08:07:45.103Z</time></trkpt><trkpt lat="43.56847" lon="10.809805"><ele>169.0</ele><time>2026-04-05T08:07:46.103Z</time></trkpt><trkpt lat="43.568365" lon="10.8098633"><ele>169.0</ele><time>2026-04-05T08:07:47.103Z</time></trkpt><trkpt lat="43.568255" lon="10.8098983"><ele>169.0</ele><time>2026-04-05T08:07:48.103Z</time></trkpt><trkpt lat="43.5681483" lon="10.80995"><ele>169.0</ele><time>2026-04-05T08:07:49.103Z</time></trkpt><trkpt lat="43.5680433" lon="10.8100167"><ele>169.0</ele><time>2026-04-05T08:07:50.102Z</time></trkpt><trkpt lat="43.56795" lon="10.8101133"><ele>167.75</ele><time>2026-04-05T08:07:51.103Z</time></trkpt><trkpt lat="43.567875" lon="10.810235"><ele>166.5</ele><time>2026-04-05T08:07:52.103Z</time></trkpt><trkpt lat="43.5678083" lon="10.8103633"><ele>165.25</ele><time>2026-04-05T08:07:53.103Z</time></trkpt><trkpt lat="43.567755" lon="10.810505"><ele>164.0</ele><time>2026-04-05T08:07:54.103Z</time></trkpt><trkpt lat="43.5677167" lon="10.8106617"><ele>166.5</ele><time>2026-04-05T08:07:55.103Z</time></trkpt><trkpt lat="43.5677083" lon="10.8108233"><ele>169.0</ele><time>2026-04-05T08:07:56.103Z</time></trkpt><trkpt lat="43.56772" lon="10.8109867"><ele>171.5</ele><time>2026-04-05T08:07:57.102Z</time></trkpt><trkpt lat="43.5677617" lon="10.8111383"><ele>174.0</ele><time>2026-04-05T08:07:58.103Z</time></trkpt><trkpt lat="43.5678117" lon="10.8112867"><ele>174.5</ele><time>2026-04-05T08:07:59.103Z</time></trkpt><trkpt lat="43.567855" lon="10.811435"><ele>175.0</ele><time>2026-04-05T08:08:00.103Z</time></trkpt><trkpt lat="43.5678983" lon="10.8115833"><ele>175.5</ele><time>2026-04-05T08:08:01.103Z</time></trkpt><trkpt lat="43.5679383" lon="10.811735"><ele>176.0</ele><time>2026-04-05T08:08:02.102Z</time></trkpt><trkpt lat="43.56798" lon="10.811885"><ele>176.0</ele><time>2026-04-05T08:08:03.103Z</time></trkpt><trkpt lat="43.5680167" lon="10.812055"><ele>176.0</ele><time>2026-04-05T08:08:04.103Z</time></trkpt><trkpt lat="43.5680583" lon="10.8122083"><ele>176.0</ele><time>2026-04-05T08:08:05.103Z</time></trkpt><trkpt lat="43.5680967" lon="10.81235"><ele>176.0</ele><time>2026-04-05T08:08:06.103Z</time></trkpt><trkpt lat="43.5681333" lon="10.8124933"><ele>176.0</ele><time>2026-04-05T08:08:07.103Z</time></trkpt><trkpt lat="43.5681617" lon="10.812635"><ele>176.0</ele><time>2026-04-05T08:08:08.103Z</time></trkpt><trkpt lat="43.5681767" lon="10.8127733"><ele>176.0</ele><time>2026-04-05T08:08:09.103Z</time></trkpt><trkpt lat="43.56817" lon="10.81291"><ele>176.0</ele><time>2026-04-05T08:08:10.103Z</time></trkpt><trkpt lat="43.5681417" lon="10.8130483"><ele>176.0</ele><time>2026-04-05T08:08:11.103Z</time></trkpt><trkpt lat="43.568095" lon="10.8131833"><ele>175.25</ele><time>2026-04-05T08:08:12.103Z</time></trkpt><trkpt lat="43.5680483" lon="10.8133167"><ele>174.5</ele><time>2026-04-05T08:08:13.103Z</time></trkpt><trkpt lat="43.5680083" lon="10.8134633"><ele>173.75</ele><time>2026-04-05T08:08:14.103Z</time></trkpt><trkpt lat="43.56799" lon="10.8136167"><ele>173.0</ele><time>2026-04-05T08:08:15.103Z</time></trkpt><trkpt lat="43.56799" lon="10.8137817"><ele>173.0</ele><time>2026-04-05T08:08:16.103Z</time></trkpt><trkpt lat="43.568" lon="10.813955"><ele>173.0</ele><time>2026-04-05T08:08:17.103Z</time></trkpt><trkpt lat="43.568015" lon="10.81413"><ele>173.0</ele><time>2026-04-05T08:08:18.103Z</time></trkpt><trkpt lat="43.5680333" lon="10.814305"><ele>173.0</ele><time>2026-04-05T08:08:19.103Z</time></trkpt><trkpt lat="43.5680533" lon="10.8144783"><ele>174.25</ele><time>2026-04-05T08:08:20.103Z</time></trkpt><trkpt lat="43.5680733" lon="10.814655"><ele>175.5</ele><time>2026-04-05T08:08:21.103Z</time></trkpt><trkpt lat="43.5680917" lon="10.81483"><ele>176.75</ele><time>2026-04-05T08:08:22.103Z</time></trkpt><trkpt lat="43.5681133" lon="10.8150017"><ele>178.0</ele><time>2026-04-05T08:08:23.103Z</time></trkpt><trkpt lat="43.5681317" lon="10.8151633"><ele>178.75</ele><time>2026-04-05T08:08:24.103Z</time></trkpt><trkpt lat="43.56815" lon="10.8153167"><ele>179.5</ele><time>2026-04-05T08:08:25.103Z</time></trkpt><trkpt lat="43.568175" lon="10.8154617"><ele>180.25</ele><time>2026-04-05T08:08:26.103Z</time></trkpt><trkpt lat="43.5682083" lon="10.8156083"><ele>181.0</ele><time>2026-04-05T08:08:27.103Z</time></trkpt><trkpt lat="43.5682567" lon="10.8157567"><ele>181.0</ele><time>2026-04-05T08:08:28.103Z</time></trkpt><trkpt lat="43.568315" lon="10.8159067"><ele>181.0</ele><time>2026-04-05T08:08:29.103Z</time></trkpt><trkpt lat="43.5683767" lon="10.816055"><ele>181.0</ele><time>2026-04-05T08:08:30.103Z</time></trkpt><trkpt lat="43.5684433" lon="10.816205"><ele>181.0</ele><time>2026-04-05T08:08:31.103Z</time></trkpt><trkpt lat="43.5685133" lon="10.8163567"><ele>181.25</ele><time>2026-04-05T08:08:32.103Z</time></trkpt><trkpt lat="43.5685817" lon="10.8165067"><ele>181.5</ele><time>2026-04-05T08:08:33.103Z</time></trkpt><trkpt lat="43.5686517" lon="10.8166583"><ele>181.75</ele><time>2026-04-05T08:08:34.103Z</time></trkpt><trkpt lat="43.5687233" lon="10.8168083"><ele>182.0</ele><time>2026-04-05T08:08:35.103Z</time></trkpt><trkpt lat="43.5687983" lon="10.8169567"><ele>182.0</ele><time>2026-04-05T08:08:36.103Z</time></trkpt><trkpt lat="43.56887" lon="10.8171117"><ele>182.0</ele><time>2026-04-05T08:08:37.103Z</time></trkpt><trkpt lat="43.56894" lon="10.8172683"><ele>182.0</ele><time>2026-04-05T08:08:38.103Z</time></trkpt><trkpt lat="43.5690067" lon="10.8174217"><ele>182.0</ele><time>2026-04-05T08:08:39.103Z</time></trkpt><trkpt lat="43.5690717" lon="10.8175717"><ele>179.5</ele><time>2026-04-05T08:08:40.103Z</time></trkpt><trkpt lat="43.5691333" lon="10.81772"><ele>177.0</ele><time>2026-04-05T08:08:41.103Z</time></trkpt><trkpt lat="43.569185" lon="10.8178617"><ele>174.5</ele><time>2026-04-05T08:08:42.103Z</time></trkpt><trkpt lat="43.5692417" lon="10.8179983"><ele>172.0</ele><time>2026-04-05T08:08:43.103Z</time></trkpt><trkpt lat="43.5693033" lon="10.818145"><ele>172.0</ele><time>2026-04-05T08:08:44.103Z</time></trkpt><trkpt lat="43.56936" lon="10.8182983"><ele>172.0</ele><time>2026-04-05T08:08:45.103Z</time></trkpt><trkpt lat="43.56941" lon="10.81846"><ele>172.0</ele><time>2026-04-05T08:08:46.103Z</time></trkpt><trkpt lat="43.56945" lon="10.818625"><ele>172.0</ele><time>2026-04-05T08:08:47.103Z</time></trkpt><trkpt lat="43.5694633" lon="10.8187967"><ele>171.5</ele><time>2026-04-05T08:08:48.103Z</time></trkpt><trkpt lat="43.5694617" lon="10.8189617"><ele>171.0</ele><time>2026-04-05T08:08:49.103Z</time></trkpt><trkpt lat="43.5694333" lon="10.81912"><ele>170.5</ele><time>2026-04-05T08:08:50.103Z</time></trkpt><trkpt lat="43.5693883" lon="10.819265"><ele>170.0</ele><time>2026-04-05T08:08:51.103Z</time></trkpt><trkpt lat="43.5693283" lon="10.8193983"><ele>169.75</ele><time>2026-04-05T08:08:52.103Z</time></trkpt><trkpt lat="43.56926" lon="10.8195267"><ele>169.5</ele><time>2026-04-05T08:08:53.103Z</time></trkpt><trkpt lat="43.569195" lon="10.81966"><ele>169.25</ele><time>2026-04-05T08:08:54.103Z</time></trkpt><trkpt lat="43.56913" lon="10.8197917"><ele>169.0</ele><time>2026-04-05T08:08:55.103Z</time></trkpt><trkpt lat="43.5690633" lon="10.8199267"><ele>169.0</ele><time>2026-04-05T08:08:56.102Z</time></trkpt><trkpt lat="43.5690017" lon="10.8200633"><ele>169.0</ele><time>2026-04-05T08:08:57.103Z</time></trkpt><trkpt lat="43.5689467" lon="10.8202017"><ele>169.0</ele><time>2026-04-05T08:08:58.103Z</time></trkpt><trkpt lat="43.5689" lon="10.820345"><ele>169.0</ele><time>2026-04-05T08:08:59.103Z</time></trkpt><trkpt lat="43.56887" lon="10.820495"><ele>167.25</ele><time>2026-04-05T08:09:00.103Z</time></trkpt><trkpt lat="43.5688633" lon="10.8206517"><ele>165.5</ele><time>2026-04-05T08:09:01.103Z</time></trkpt><trkpt lat="43.568875" lon="10.820805"><ele>163.75</ele><time>2026-04-05T08:09:02.103Z</time></trkpt><trkpt lat="43.5689017" lon="10.820965"><ele>162.0</ele><time>2026-04-05T08:09:03.103Z</time></trkpt><trkpt lat="43.56893" lon="10.8211367"><ele>159.75</ele><time>2026-04-05T08:09:04.103Z</time></trkpt><trkpt lat="43.5689617" lon="10.821315"><ele>157.5</ele><time>2026-04-05T08:09:05.102Z</time></trkpt><trkpt lat="43.56899" lon="10.8215"><ele>155.25</ele><time>2026-04-05T08:09:06.103Z</time></trkpt><trkpt lat="43.5690183" lon="10.8216833"><ele>153.0</ele><time>2026-04-05T08:09:07.103Z</time></trkpt><trkpt lat="43.5690433" lon="10.8218633"><ele>151.75</ele><time>2026-04-05T08:09:08.103Z</time></trkpt><trkpt lat="43.5690617" lon="10.82205"><ele>150.5</ele><time>2026-04-05T08:09:09.103Z</time></trkpt><trkpt lat="43.569065" lon="10.8222367"><ele>149.25</ele><time>2026-04-05T08:09:10.102Z</time></trkpt><trkpt lat="43.5690617" lon="10.8224217"><ele>148.0</ele><time>2026-04-05T08:09:11.103Z</time></trkpt><trkpt lat="43.5690483" lon="10.82261"><ele>147.5</ele><time>2026-04-05T08:09:12.103Z</time></trkpt><trkpt lat="43.5690317" lon="10.8227933"><ele>147.0</ele><time>2026-04-05T08:09:13.103Z</time></trkpt><trkpt lat="43.56901" lon="10.8229783"><ele>146.5</ele><time>2026-04-05T08:09:14.102Z</time></trkpt><trkpt lat="43.56899" lon="10.8231583"><ele>146.0</ele><time>2026-04-05T08:09:15.103Z</time></trkpt><trkpt lat="43.5689667" lon="10.82334"><ele>144.75</ele><time>2026-04-05T08:09:16.103Z</time></trkpt><trkpt lat="43.568945" lon="10.82352"><ele>143.5</ele><time>2026-04-05T08:09:17.102Z</time></trkpt><trkpt lat="43.568925" lon="10.8236933"><ele>142.25</ele><time>2026-04-05T08:09:18.103Z</time></trkpt><trkpt lat="43.568905" lon="10.8238583"><ele>141.0</ele><time>2026-04-05T08:09:19.102Z</time></trkpt><trkpt lat="43.56888" lon="10.82402"><ele>141.0</ele><time>2026-04-05T08:09:20.102Z</time></trkpt><trkpt lat="43.5688517" lon="10.8241783"><ele>141.0</ele><time>2026-04-05T08:09:21.103Z</time></trkpt><trkpt lat="43.5688217" lon="10.824335"><ele>141.0</ele><time>2026-04-05T08:09:22.103Z</time></trkpt><trkpt lat="43.5687933" lon="10.8244867"><ele>141.0</ele><time>2026-04-05T08:09:23.103Z</time></trkpt><trkpt lat="43.5687667" lon="10.8246267"><ele>141.16666666666666</ele><time>2026-04-05T08:09:24.103Z</time></trkpt><trkpt lat="43.568745" lon="10.8247467"><ele>141.33333333333334</ele><time>2026-04-05T08:09:25.103Z</time></trkpt><trkpt lat="43.5687283" lon="10.8248433"><ele>141.5</ele><time>2026-04-05T08:09:26.103Z</time></trkpt><trkpt lat="43.5686983" lon="10.8249783"><ele>141.66666666666669</ele><time>2026-04-05T08:09:28.103Z</time></trkpt><trkpt lat="43.568655" lon="10.8250433"><ele>141.83333333333334</ele><time>2026-04-05T08:09:34.103Z</time></trkpt><trkpt lat="43.5685983" lon="10.8251567"><ele>142.0</ele><time>2026-04-05T08:09:36.102Z</time></trkpt><trkpt lat="43.5685633" lon="10.82523"><ele>142.0</ele><time>2026-04-05T08:09:37.103Z</time></trkpt><trkpt lat="43.5685233" lon="10.8253217"><ele>142.0</ele><time>2026-04-05T08:09:38.103Z</time></trkpt><trkpt lat="43.56848" lon="10.8254217"><ele>142.0</ele><time>2026-04-05T08:09:39.103Z</time></trkpt><trkpt lat="43.56844" lon="10.8255317"><ele>142.0</ele><time>2026-04-05T08:09:40.103Z</time></trkpt><trkpt lat="43.5684017" lon="10.8256633"><ele>142.0</ele><time>2026-04-05T08:09:41.103Z</time></trkpt><trkpt lat="43.5683733" lon="10.8258083"><ele>142.0</ele><time>2026-04-05T08:09:42.103Z</time></trkpt><trkpt lat="43.5683517" lon="10.82596"><ele>142.0</ele><time>2026-04-05T08:09:43.103Z</time></trkpt><trkpt lat="43.5683267" lon="10.8261183"><ele>142.0</ele><time>2026-04-05T08:09:44.102Z</time></trkpt><trkpt lat="43.5682967" lon="10.82628"><ele>142.0</ele><time>2026-04-05T08:09:45.103Z</time></trkpt><trkpt lat="43.5682683" lon="10.8264467"><ele>143.75</ele><time>2026-04-05T08:09:46.103Z</time></trkpt><trkpt lat="43.5682383" lon="10.8266217"><ele>145.5</ele><time>2026-04-05T08:09:47.103Z</time></trkpt><trkpt lat="43.5682067" lon="10.8268033"><ele>147.25</ele><time>2026-04-05T08:09:48.103Z</time></trkpt><trkpt lat="43.5681767" lon="10.82698"><ele>149.0</ele><time>2026-04-05T08:09:49.102Z</time></trkpt><trkpt lat="43.5681467" lon="10.8271533"><ele>150.25</ele><time>2026-04-05T08:09:50.103Z</time></trkpt><trkpt lat="43.568115" lon="10.8273317"><ele>151.5</ele><time>2026-04-05T08:09:51.103Z</time></trkpt><trkpt lat="43.568085" lon="10.8275117"><ele>152.75</ele><time>2026-04-05T08:09:52.103Z</time></trkpt><trkpt lat="43.5680517" lon="10.8276983"><ele>154.0</ele><time>2026-04-05T08:09:53.103Z</time></trkpt><trkpt lat="43.5680067" lon="10.827885"><ele>153.66666666666669</ele><time>2026-04-05T08:09:54.103Z</time></trkpt><trkpt lat="43.567965" lon="10.82808"><ele>153.33333333333334</ele><time>2026-04-05T08:09:55.103Z</time></trkpt><trkpt lat="43.56792" lon="10.8282783"><ele>153.0</ele><time>2026-04-05T08:09:56.103Z</time></trkpt><trkpt lat="43.5678733" lon="10.8284817"><ele>150.33333333333334</ele><time>2026-04-05T08:09:57.103Z</time></trkpt><trkpt lat="43.5678233" lon="10.8286783"><ele>147.66666666666669</ele><time>2026-04-05T08:09:58.103Z</time></trkpt><trkpt lat="43.5677683" lon="10.828875"><ele>145.0</ele><time>2026-04-05T08:09:59.103Z</time></trkpt><trkpt lat="43.56769" lon="10.8290567"><ele>145.0</ele><time>2026-04-05T08:10:00.103Z</time></trkpt><trkpt lat="43.5675933" lon="10.8292217"><ele>145.0</ele><time>2026-04-05T08:10:01.103Z</time></trkpt><trkpt lat="43.567475" lon="10.8293617"><ele>145.0</ele><time>2026-04-05T08:10:02.103Z</time></trkpt><trkpt lat="43.567345" lon="10.8294917"><ele>145.33333333333334</ele><time>2026-04-05T08:10:03.103Z</time></trkpt><trkpt lat="43.5672083" lon="10.829615"><ele>145.66666666666666</ele><time>2026-04-05T08:10:04.103Z</time></trkpt><trkpt lat="43.5670717" lon="10.8297433"><ele>146.0</ele><time>2026-04-05T08:10:05.103Z</time></trkpt><trkpt lat="43.56693" lon="10.829875"><ele>145.0</ele><time>2026-04-05T08:10:06.103Z</time></trkpt><trkpt lat="43.56679" lon="10.83001"><ele>144.0</ele><time>2026-04-05T08:10:07.102Z</time></trkpt><trkpt lat="43.5666517" lon="10.8301467"><ele>143.0</ele><time>2026-04-05T08:10:08.102Z</time></trkpt><trkpt lat="43.566525" lon="10.8303033"><ele>143.0</ele><time>2026-04-05T08:10:09.103Z</time></trkpt><trkpt lat="43.56641" lon="10.8304817"><ele>143.0</ele><time>2026-04-05T08:10:10.103Z</time></trkpt><trkpt lat="43.5663017" lon="10.8306717"><ele>143.0</ele><time>2026-04-05T08:10:11.103Z</time></trkpt><trkpt lat="43.5661967" lon="10.83086"><ele>145.66666666666666</ele><time>2026-04-05T08:10:12.103Z</time></trkpt><trkpt lat="43.56609" lon="10.831045"><ele>148.33333333333334</ele><time>2026-04-05T08:10:13.103Z</time></trkpt><trkpt lat="43.5659867" lon="10.8312267"><ele>151.0</ele><time>2026-04-05T08:10:14.103Z</time></trkpt><trkpt lat="43.5658933" lon="10.8314133"><ele>151.0</ele><time>2026-04-05T08:10:15.103Z</time></trkpt><trkpt lat="43.5658017" lon="10.8315967"><ele>151.0</ele><time>2026-04-05T08:10:16.103Z</time></trkpt><trkpt lat="43.5657167" lon="10.8317767"><ele>151.0</ele><time>2026-04-05T08:10:17.103Z</time></trkpt><trkpt lat="43.5656317" lon="10.8319583"><ele>152.66666666666669</ele><time>2026-04-05T08:10:18.102Z</time></trkpt><trkpt lat="43.5655617" lon="10.8321417"><ele>154.33333333333334</ele><time>2026-04-05T08:10:19.103Z</time></trkpt><trkpt lat="43.5655017" lon="10.8323317"><ele>156.0</ele><time>2026-04-05T08:10:20.103Z</time></trkpt><trkpt lat="43.5654383" lon="10.8325267"><ele>155.66666666666666</ele><time>2026-04-05T08:10:21.103Z</time></trkpt><trkpt lat="43.56537" lon="10.8327233"><ele>155.33333333333331</ele><time>2026-04-05T08:10:22.103Z</time></trkpt><trkpt lat="43.56531" lon="10.8329267"><ele>155.0</ele><time>2026-04-05T08:10:23.103Z</time></trkpt><trkpt lat="43.5652483" lon="10.8331333"><ele>155.0</ele><time>2026-04-05T08:10:24.103Z</time></trkpt><trkpt lat="43.5651867" lon="10.8333417"><ele>155.0</ele><time>2026-04-05T08:10:25.103Z</time></trkpt><trkpt lat="43.565125" lon="10.8335517"><ele>155.0</ele><time>2026-04-05T08:10:26.103Z</time></trkpt><trkpt lat="43.5650583" lon="10.83376"><ele>156.66666666666666</ele><time>2026-04-05T08:10:27.102Z</time></trkpt><trkpt lat="43.5649867" lon="10.83397"><ele>158.33333333333334</ele><time>2026-04-05T08:10:28.103Z</time></trkpt><trkpt lat="43.5649167" lon="10.8341783"><ele>160.0</ele><time>2026-04-05T08:10:29.103Z</time></trkpt><trkpt lat="43.5648533" lon="10.8343883"><ele>162.66666666666669</ele><time>2026-04-05T08:10:30.103Z</time></trkpt><trkpt lat="43.5647917" lon="10.8346"><ele>165.33333333333334</ele><time>2026-04-05T08:10:31.103Z</time></trkpt><trkpt lat="43.56473" lon="10.8348067"><ele>168.0</ele><time>2026-04-05T08:10:32.103Z</time></trkpt><trkpt lat="43.5646667" lon="10.835015"><ele>169.66666666666666</ele><time>2026-04-05T08:10:33.102Z</time></trkpt><trkpt lat="43.56462" lon="10.8352283"><ele>171.33333333333331</ele><time>2026-04-05T08:10:34.103Z</time></trkpt><trkpt lat="43.5645917" lon="10.8354417"><ele>173.0</ele><time>2026-04-05T08:10:35.103Z</time></trkpt><trkpt lat="43.564575" lon="10.8356533"><ele>173.0</ele><time>2026-04-05T08:10:36.103Z</time></trkpt><trkpt lat="43.5645633" lon="10.8358633"><ele>173.0</ele><time>2026-04-05T08:10:37.103Z</time></trkpt><trkpt lat="43.5645517" lon="10.836065"><ele>173.0</ele><time>2026-04-05T08:10:38.103Z</time></trkpt><trkpt lat="43.56454" lon="10.83626"><ele>173.0</ele><time>2026-04-05T08:10:39.103Z</time></trkpt><trkpt lat="43.5645167" lon="10.8364533"><ele>175.0</ele><time>2026-04-05T08:10:40.103Z</time></trkpt><trkpt lat="43.564475" lon="10.8366467"><ele>177.0</ele><time>2026-04-05T08:10:41.103Z</time></trkpt><trkpt lat="43.56442" lon="10.8368333"><ele>179.0</ele><time>2026-04-05T08:10:42.103Z</time></trkpt><trkpt lat="43.564345" lon="10.8370117"><ele>181.0</ele><time>2026-04-05T08:10:43.103Z</time></trkpt><trkpt lat="43.5642767" lon="10.8371917"><ele>181.0</ele><time>2026-04-05T08:10:44.103Z</time></trkpt><trkpt lat="43.5642067" lon="10.837375"><ele>181.0</ele><time>2026-04-05T08:10:45.103Z</time></trkpt><trkpt lat="43.56413" lon="10.8375583"><ele>181.0</ele><time>2026-04-05T08:10:46.103Z</time></trkpt><trkpt lat="43.564055" lon="10.8377483"><ele>179.33333333333334</ele><time>2026-04-05T08:10:47.103Z</time></trkpt><trkpt lat="43.563985" lon="10.837945"><ele>177.66666666666666</ele><time>2026-04-05T08:10:48.103Z</time></trkpt><trkpt lat="43.5639217" lon="10.8381417"><ele>176.0</ele><time>2026-04-05T08:10:49.103Z</time></trkpt><trkpt lat="43.563865" lon="10.83834"><ele>178.0</ele><time>2026-04-05T08:10:50.102Z</time></trkpt><trkpt lat="43.56382" lon="10.8385467"><ele>180.0</ele><time>2026-04-05T08:10:51.103Z</time></trkpt><trkpt lat="43.563785" lon="10.8387567"><ele>182.0</ele><time>2026-04-05T08:10:52.103Z</time></trkpt><trkpt lat="43.5637517" lon="10.838965"><ele>182.0</ele><time>2026-04-05T08:10:53.103Z</time></trkpt><trkpt lat="43.5637217" lon="10.8391733"><ele>182.0</ele><time>2026-04-05T08:10:54.103Z</time></trkpt><trkpt lat="43.5636883" lon="10.839385"><ele>182.0</ele><time>2026-04-05T08:10:55.103Z</time></trkpt><trkpt lat="43.5636533" lon="10.8395933"><ele>183.66666666666666</ele><time>2026-04-05T08:10:56.103Z</time></trkpt><trkpt lat="43.563615" lon="10.8397983"><ele>185.33333333333334</ele><time>2026-04-05T08:10:57.103Z</time></trkpt><trkpt lat="43.5635717" lon="10.8400017"><ele>187.0</ele><time>2026-04-05T08:10:58.103Z</time></trkpt><trkpt lat="43.563515" lon="10.8402"><ele>188.33333333333334</ele><time>2026-04-05T08:10:59.103Z</time></trkpt><trkpt lat="43.563445" lon="10.8403933"><ele>189.66666666666666</ele><time>2026-04-05T08:11:00.103Z</time></trkpt><trkpt lat="43.5633683" lon="10.8405817"><ele>191.0</ele><time>2026-04-05T08:11:01.103Z</time></trkpt><trkpt lat="43.563285" lon="10.8407683"><ele>191.0</ele><time>2026-04-05T08:11:02.103Z</time></trkpt><trkpt lat="43.5632" lon="10.8409533"><ele>191.0</ele><time>2026-04-05T08:11:03.103Z</time></trkpt><trkpt lat="43.5631167" lon="10.8411433"><ele>191.0</ele><time>2026-04-05T08:11:04.103Z</time></trkpt><trkpt lat="43.5630333" lon="10.8413333"><ele>191.33333333333331</ele><time>2026-04-05T08:11:05.102Z</time></trkpt><trkpt lat="43.56295" lon="10.84152"><ele>191.66666666666666</ele><time>2026-04-05T08:11:06.103Z</time></trkpt><trkpt lat="43.5628683" lon="10.8417067"><ele>192.0</ele><time>2026-04-05T08:11:07.103Z</time></trkpt><trkpt lat="43.5627883" lon="10.8418883"><ele>193.75</ele><time>2026-04-05T08:11:08.103Z</time></trkpt><trkpt lat="43.5627" lon="10.8420583"><ele>195.5</ele><time>2026-04-05T08:11:09.103Z</time></trkpt><trkpt lat="43.5626067" lon="10.8422133"><ele>197.25</ele><time>2026-04-05T08:11:10.103Z</time></trkpt><trkpt lat="43.5624983" lon="10.8423483"><ele>199.0</ele><time>2026-04-05T08:11:11.103Z</time></trkpt><trkpt lat="43.562375" lon="10.8424483"><ele>199.0</ele><time>2026-04-05T08:11:12.103Z</time></trkpt><trkpt lat="43.5622383" lon="10.8425283"><ele>199.0</ele><time>2026-04-05T08:11:13.103Z</time></trkpt><trkpt lat="43.5620867" lon="10.8426033"><ele>199.0</ele><time>2026-04-05T08:11:14.103Z</time></trkpt><trkpt lat="43.5619267" lon="10.8426733"><ele>196.33333333333331</ele><time>2026-04-05T08:11:15.103Z</time></trkpt><trkpt lat="43.5617667" lon="10.8427483"><ele>193.66666666666666</ele><time>2026-04-05T08:11:16.103Z</time></trkpt><trkpt lat="43.5616" lon="10.84283"><ele>191.0</ele><time>2026-04-05T08:11:17.102Z</time></trkpt><trkpt lat="43.5614317" lon="10.842915"><ele>191.0</ele><time>2026-04-05T08:11:18.103Z</time></trkpt><trkpt lat="43.5612667" lon="10.8430133"><ele>191.0</ele><time>2026-04-05T08:11:19.103Z</time></trkpt><trkpt lat="43.5611017" lon="10.8431217"><ele>191.0</ele><time>2026-04-05T08:11:20.103Z</time></trkpt><trkpt lat="43.5609417" lon="10.84324"><ele>190.66666666666666</ele><time>2026-04-05T08:11:21.103Z</time></trkpt><trkpt lat="43.56078" lon="10.8433633"><ele>190.33333333333334</ele><time>2026-04-05T08:11:22.103Z</time></trkpt><trkpt lat="43.5606233" lon="10.843485"><ele>190.0</ele><time>2026-04-05T08:11:23.103Z</time></trkpt><trkpt lat="43.5604683" lon="10.843605"><ele>191.33333333333334</ele><time>2026-04-05T08:11:24.103Z</time></trkpt><trkpt lat="43.5603117" lon="10.843725"><ele>192.66666666666669</ele><time>2026-04-05T08:11:25.103Z</time></trkpt><trkpt lat="43.56016" lon="10.84384"><ele>194.0</ele><time>2026-04-05T08:11:26.103Z</time></trkpt><trkpt lat="43.5600117" lon="10.843955"><ele>194.0</ele><time>2026-04-05T08:11:27.103Z</time></trkpt><trkpt lat="43.5598633" lon="10.84407"><ele>194.0</ele><time>2026-04-05T08:11:28.103Z</time></trkpt><trkpt lat="43.5597133" lon="10.8441867"><ele>194.0</ele><time>2026-04-05T08:11:29.103Z</time></trkpt><trkpt lat="43.5595667" lon="10.8443033"><ele>193.0</ele><time>2026-04-05T08:11:30.102Z</time></trkpt><trkpt lat="43.559425" lon="10.8444317"><ele>192.0</ele><time>2026-04-05T08:11:31.103Z</time></trkpt><trkpt lat="43.5593017" lon="10.8445867"><ele>191.0</ele><time>2026-04-05T08:11:32.103Z</time></trkpt><trkpt lat="43.5592117" lon="10.8447683"><ele>191.0</ele><time>2026-04-05T08:11:33.103Z</time></trkpt><trkpt lat="43.5591533" lon="10.84496"><ele>191.0</ele><time>2026-04-05T08:11:34.103Z</time></trkpt><trkpt lat="43.5591067" lon="10.8451783"><ele>191.0</ele><time>2026-04-05T08:11:35.102Z</time></trkpt><trkpt lat="43.5590683" lon="10.8454067"><ele>191.66666666666666</ele><time>2026-04-05T08:11:36.103Z</time></trkpt><trkpt lat="43.55903" lon="10.8456317"><ele>192.33333333333331</ele><time>2026-04-05T08:11:37.103Z</time></trkpt><trkpt lat="43.5589933" lon="10.8458617"><ele>193.0</ele><time>2026-04-05T08:11:38.103Z</time></trkpt><trkpt lat="43.5589583" lon="10.8460917"><ele>194.33333333333331</ele><time>2026-04-05T08:11:39.103Z</time></trkpt><trkpt lat="43.5589267" lon="10.84632"><ele>195.66666666666669</ele><time>2026-04-05T08:11:40.103Z</time></trkpt><trkpt lat="43.5588917" lon="10.8465483"><ele>197.0</ele><time>2026-04-05T08:11:41.103Z</time></trkpt><trkpt lat="43.5588533" lon="10.8467733"><ele>198.33333333333334</ele><time>2026-04-05T08:11:42.103Z</time></trkpt><trkpt lat="43.558825" lon="10.8470033"><ele>199.66666666666669</ele><time>2026-04-05T08:11:43.102Z</time></trkpt><trkpt lat="43.558795" lon="10.8472233"><ele>201.0</ele><time>2026-04-05T08:11:44.103Z</time></trkpt><trkpt lat="43.5587633" lon="10.8474417"><ele>200.66666666666669</ele><time>2026-04-05T08:11:45.103Z</time></trkpt><trkpt lat="43.55873" lon="10.8476533"><ele>200.33333333333334</ele><time>2026-04-05T08:11:46.103Z</time></trkpt><trkpt lat="43.558695" lon="10.8478617"><ele>200.0</ele><time>2026-04-05T08:11:47.102Z</time></trkpt><trkpt lat="43.5586483" lon="10.84806"><ele>200.0</ele><time>2026-04-05T08:11:48.103Z</time></trkpt><trkpt lat="43.5585767" lon="10.8482383"><ele>200.0</ele><time>2026-04-05T08:11:49.103Z</time></trkpt><trkpt lat="43.5584833" lon="10.8484067"><ele>200.0</ele><time>2026-04-05T08:11:50.103Z</time></trkpt><trkpt lat="43.55837" lon="10.84855"><ele>200.66666666666669</ele><time>2026-04-05T08:11:51.103Z</time></trkpt><trkpt lat="43.55824" lon="10.8486633"><ele>201.33333333333331</ele><time>2026-04-05T08:11:52.103Z</time></trkpt><trkpt lat="43.5580983" lon="10.8487367"><ele>202.0</ele><time>2026-04-05T08:11:53.103Z</time></trkpt><trkpt lat="43.5579483" lon="10.848765"><ele>204.66666666666666</ele><time>2026-04-05T08:11:54.103Z</time></trkpt><trkpt lat="43.557795" lon="10.8487567"><ele>207.33333333333331</ele><time>2026-04-05T08:11:55.103Z</time></trkpt><trkpt lat="43.557645" lon="10.8487233"><ele>210.0</ele><time>2026-04-05T08:11:56.103Z</time></trkpt><trkpt lat="43.5574933" lon="10.8486667"><ele>210.0</ele><time>2026-04-05T08:11:57.103Z</time></trkpt><trkpt lat="43.55734" lon="10.8486017"><ele>210.0</ele><time>2026-04-05T08:11:58.103Z</time></trkpt><trkpt lat="43.557185" lon="10.84854"><ele>210.0</ele><time>2026-04-05T08:11:59.103Z</time></trkpt><trkpt lat="43.5570317" lon="10.848475"><ele>211.33333333333331</ele><time>2026-04-05T08:12:00.103Z</time></trkpt><trkpt lat="43.5568783" lon="10.84842"><ele>212.66666666666666</ele><time>2026-04-05T08:12:01.103Z</time></trkpt><trkpt lat="43.5567183" lon="10.8484067"><ele>214.0</ele><time>2026-04-05T08:12:02.103Z</time></trkpt><trkpt lat="43.5565567" lon="10.8484217"><ele>214.66666666666666</ele><time>2026-04-05T08:12:03.103Z</time></trkpt><trkpt lat="43.5564" lon="10.84846"><ele>215.33333333333331</ele><time>2026-04-05T08:12:04.103Z</time></trkpt><trkpt lat="43.5562533" lon="10.84854"><ele>216.0</ele><time>2026-04-05T08:12:05.103Z</time></trkpt><trkpt lat="43.5561067" lon="10.8486317"><ele>216.0</ele><time>2026-04-05T08:12:06.102Z</time></trkpt><trkpt lat="43.5559683" lon="10.8487267"><ele>216.0</ele><time>2026-04-05T08:12:07.103Z</time></trkpt><trkpt lat="43.555845" lon="10.848835"><ele>216.0</ele><time>2026-04-05T08:12:08.103Z</time></trkpt><trkpt lat="43.55573" lon="10.8489617"><ele>216.0</ele><time>2026-04-05T08:12:09.103Z</time></trkpt><trkpt lat="43.5556317" lon="10.8491033"><ele>216.0</ele><time>2026-04-05T08:12:10.103Z</time></trkpt><trkpt lat="43.5555433" lon="10.849255"><ele>216.0</ele><time>2026-04-05T08:12:11.103Z</time></trkpt><trkpt lat="43.5554617" lon="10.8494217"><ele>216.0</ele><time>2026-04-05T08:12:12.103Z</time></trkpt><trkpt lat="43.5553767" lon="10.8495767"><ele>216.0</ele><time>2026-04-05T08:12:13.103Z</time></trkpt><trkpt lat="43.5552833" lon="10.8497283"><ele>215.0</ele><time>2026-04-05T08:12:14.103Z</time></trkpt><trkpt lat="43.5551767" lon="10.84987"><ele>214.0</ele><time>2026-04-05T08:12:15.103Z</time></trkpt><trkpt lat="43.5550583" lon="10.8499983"><ele>213.0</ele><time>2026-04-05T08:12:16.103Z</time></trkpt><trkpt lat="43.554935" lon="10.8501183"><ele>212.0</ele><time>2026-04-05T08:12:17.103Z</time></trkpt><trkpt lat="43.554805" lon="10.8502367"><ele>211.33333333333334</ele><time>2026-04-05T08:12:18.103Z</time></trkpt><trkpt lat="43.5546717" lon="10.8503533"><ele>210.66666666666669</ele><time>2026-04-05T08:12:19.103Z</time></trkpt><trkpt lat="43.5545367" lon="10.850465"><ele>210.0</ele><time>2026-04-05T08:12:20.103Z</time></trkpt><trkpt lat="43.5544017" lon="10.8505617"><ele>213.66666666666669</ele><time>2026-04-05T08:12:21.102Z</time></trkpt><trkpt lat="43.5542567" lon="10.850635"><ele>217.33333333333334</ele><time>2026-04-05T08:12:22.103Z</time></trkpt><trkpt lat="43.5541033" lon="10.8506717"><ele>221.0</ele><time>2026-04-05T08:12:23.103Z</time></trkpt><trkpt lat="43.5539517" lon="10.8506717"><ele>221.0</ele><time>2026-04-05T08:12:24.103Z</time></trkpt><trkpt lat="43.5538017" lon="10.8506517"><ele>221.0</ele><time>2026-04-05T08:12:25.103Z</time></trkpt><trkpt lat="43.5536517" lon="10.8506167"><ele>221.0</ele><time>2026-04-05T08:12:26.103Z</time></trkpt><trkpt lat="43.5535033" lon="10.85059"><ele>223.25</ele><time>2026-04-05T08:12:27.103Z</time></trkpt><trkpt lat="43.5533533" lon="10.85059"><ele>225.5</ele><time>2026-04-05T08:12:28.103Z</time></trkpt><trkpt lat="43.5532167" lon="10.850615"><ele>227.75</ele><time>2026-04-05T08:12:29.103Z</time></trkpt><trkpt lat="43.553095" lon="10.8506667"><ele>230.0</ele><time>2026-04-05T08:12:30.103Z</time></trkpt><trkpt lat="43.55298" lon="10.8507333"><ele>230.0</ele><time>2026-04-05T08:12:31.103Z</time></trkpt><trkpt lat="43.5528783" lon="10.850835"><ele>230.0</ele><time>2026-04-05T08:12:32.103Z</time></trkpt><trkpt lat="43.552785" lon="10.8509517"><ele>230.0</ele><time>2026-04-05T08:12:33.102Z</time></trkpt><trkpt lat="43.5527" lon="10.851085"><ele>230.0</ele><time>2026-04-05T08:12:34.103Z</time></trkpt><trkpt lat="43.5526133" lon="10.85123"><ele>231.5</ele><time>2026-04-05T08:12:35.103Z</time></trkpt><trkpt lat="43.5525267" lon="10.8513783"><ele>233.0</ele><time>2026-04-05T08:12:36.103Z</time></trkpt><trkpt lat="43.55244" lon="10.85152"><ele>234.5</ele><time>2026-04-05T08:12:37.103Z</time></trkpt><trkpt lat="43.5523583" lon="10.8516567"><ele>236.0</ele><time>2026-04-05T08:12:38.103Z</time></trkpt><trkpt lat="43.552275" lon="10.8517967"><ele>236.0</ele><time>2026-04-05T08:12:39.103Z</time></trkpt><trkpt lat="43.5521867" lon="10.851935"><ele>236.0</ele><time>2026-04-05T08:12:40.102Z</time></trkpt><trkpt lat="43.5521017" lon="10.852075"><ele>236.0</ele><time>2026-04-05T08:12:41.103Z</time></trkpt><trkpt lat="43.55202" lon="10.8522217"><ele>236.0</ele><time>2026-04-05T08:12:42.102Z</time></trkpt><trkpt lat="43.5519333" lon="10.852365"><ele>239.25</ele><time>2026-04-05T08:12:43.103Z</time></trkpt><trkpt lat="43.5518433" lon="10.8525"><ele>242.5</ele><time>2026-04-05T08:12:44.102Z</time></trkpt><trkpt lat="43.5517533" lon="10.852635"><ele>245.75</ele><time>2026-04-05T08:12:45.103Z</time></trkpt><trkpt lat="43.5516583" lon="10.8527717"><ele>249.0</ele><time>2026-04-05T08:12:46.103Z</time></trkpt><trkpt lat="43.551565" lon="10.8529133"><ele>249.0</ele><time>2026-04-05T08:12:47.103Z</time></trkpt><trkpt lat="43.5514733" lon="10.8530583"><ele>249.0</ele><time>2026-04-05T08:12:48.103Z</time></trkpt><trkpt lat="43.5513783" lon="10.8532083"><ele>249.0</ele><time>2026-04-05T08:12:49.103Z</time></trkpt><trkpt lat="43.5512833" lon="10.8533583"><ele>249.0</ele><time>2026-04-05T08:12:50.103Z</time></trkpt><trkpt lat="43.551185" lon="10.8535067"><ele>250.5</ele><time>2026-04-05T08:12:51.103Z</time></trkpt><trkpt lat="43.5510867" lon="10.8536567"><ele>252.0</ele><time>2026-04-05T08:12:52.103Z</time></trkpt><trkpt lat="43.5509883" lon="10.8538133"><ele>253.5</ele><time>2026-04-05T08:12:53.103Z</time></trkpt><trkpt lat="43.5508967" lon="10.8539767"><ele>255.0</ele><time>2026-04-05T08:12:54.102Z</time></trkpt><trkpt lat="43.550815" lon="10.854135"><ele>255.5</ele><time>2026-04-05T08:12:55.103Z</time></trkpt><trkpt lat="43.5507417" lon="10.8542917"><ele>256.0</ele><time>2026-04-05T08:12:56.103Z</time></trkpt><trkpt lat="43.5506717" lon="10.8544567"><ele>256.5</ele><time>2026-04-05T08:12:57.103Z</time></trkpt><trkpt lat="43.550605" lon="10.8546167"><ele>257.0</ele><time>2026-04-05T08:12:58.103Z</time></trkpt><trkpt lat="43.5505333" lon="10.854765"><ele>257.0</ele><time>2026-04-05T08:12:59.103Z</time></trkpt><trkpt lat="43.5504733" lon="10.854915"><ele>257.0</ele><time>2026-04-05T08:13:00.103Z</time></trkpt><trkpt lat="43.5504117" lon="10.855055"><ele>257.0</ele><time>2026-04-05T08:13:01.102Z</time></trkpt><trkpt lat="43.5503567" lon="10.855195"><ele>257.0</ele><time>2026-04-05T08:13:02.103Z</time></trkpt><trkpt lat="43.550305" lon="10.855325"><ele>256.25</ele><time>2026-04-05T08:13:03.103Z</time></trkpt><trkpt lat="43.5501617" lon="10.8556017"><ele>255.5</ele><time>2026-04-05T08:13:06.102Z</time></trkpt><trkpt lat="43.5501183" lon="10.8556717"><ele>254.75</ele><time>2026-04-05T08:13:07.103Z</time></trkpt><trkpt lat="43.5500683" lon="10.8557283"><ele>254.0</ele><time>2026-04-05T08:13:08.103Z</time></trkpt><trkpt lat="43.549975" lon="10.8558133"><ele>254.0</ele><time>2026-04-05T08:13:10.103Z</time></trkpt><trkpt lat="43.5498917" lon="10.855855"><ele>253.99999999999997</ele><time>2026-04-05T08:13:12.103Z</time></trkpt><trkpt lat="43.5497867" lon="10.8558883"><ele>253.99999999999997</ele><time>2026-04-05T08:13:14.103Z</time></trkpt><trkpt lat="43.54968" lon="10.8559417"><ele>254.0</ele><time>2026-04-05T08:13:16.103Z</time></trkpt><trkpt lat="43.5495767" lon="10.8560183"><ele>254.0</ele><time>2026-04-05T08:13:18.103Z</time></trkpt><trkpt lat="43.549525" lon="10.8560717"><ele>255.5</ele><time>2026-04-05T08:13:19.103Z</time></trkpt><trkpt lat="43.5494217" lon="10.85614"><ele>257.0</ele><time>2026-04-05T08:13:21.103Z</time></trkpt><trkpt lat="43.5493067" lon="10.8561817"><ele>258.5</ele><time>2026-04-05T08:13:23.103Z</time></trkpt><trkpt lat="43.5491883" lon="10.85625"><ele>260.0</ele><time>2026-04-05T08:13:25.103Z</time></trkpt><trkpt lat="43.54908" lon="10.8563267"><ele>260.0</ele><time>2026-04-05T08:13:27.103Z</time></trkpt><trkpt lat="43.5489683" lon="10.8563917"><ele>260.0</ele><time>2026-04-05T08:13:29.103Z</time></trkpt><trkpt lat="43.548865" lon="10.8564517"><ele>260.0</ele><time>2026-04-05T08:13:31.103Z</time></trkpt><trkpt lat="43.54877" lon="10.8565"><ele>260.0</ele><time>2026-04-05T08:13:33.103Z</time></trkpt><trkpt lat="43.54869" lon="10.8565433"><ele>260.0</ele><time>2026-04-05T08:13:35.103Z</time></trkpt><trkpt lat="43.5486233" lon="10.85656"><ele>260.1666666666667</ele><time>2026-04-05T08:13:37.103Z</time></trkpt><trkpt lat="43.5485417" lon="10.8565917"><ele>260.33333333333337</ele><time>2026-04-05T08:13:40.103Z</time></trkpt><trkpt lat="43.548515" lon="10.8566983"><ele>260.5</ele><time>2026-04-05T08:13:43.103Z</time></trkpt><trkpt lat="43.5485" lon="10.85682"><ele>260.6666666666667</ele><time>2026-04-05T08:13:45.103Z</time></trkpt><trkpt lat="43.5484867" lon="10.856925"><ele>260.8333333333333</ele><time>2026-04-05T08:13:47.103Z</time></trkpt><trkpt lat="43.5484767" lon="10.8568283"><ele>261.0</ele><time>2026-04-05T08:15:06.103Z</time></trkpt><trkpt lat="43.5484717" lon="10.8569267"><ele>261.57142857142856</ele><time>2026-04-05T08:15:07.103Z</time></trkpt><trkpt lat="43.5484733" lon="10.8570283"><ele>262.1428571428571</ele><time>2026-04-05T08:15:08.103Z</time></trkpt><trkpt lat="43.5484717" lon="10.8571233"><ele>262.71428571428567</ele><time>2026-04-05T08:15:09.103Z</time></trkpt><trkpt lat="43.5484683" lon="10.857215"><ele>263.2857142857143</ele><time>2026-04-05T08:15:10.103Z</time></trkpt><trkpt lat="43.5484633" lon="10.8573183"><ele>263.85714285714283</ele><time>2026-04-05T08:15:11.102Z</time></trkpt><trkpt lat="43.5484567" lon="10.8574233"><ele>264.4285714285714</ele><time>2026-04-05T08:15:12.103Z</time></trkpt><trkpt lat="43.5484567" lon="10.8575267"><ele>265.0</ele><time>2026-04-05T08:15:13.103Z</time></trkpt><trkpt lat="43.5484567" lon="10.8576333"><ele>265.16666666666663</ele><time>2026-04-05T08:15:14.103Z</time></trkpt><trkpt lat="43.548455" lon="10.8577433"><ele>265.3333333333333</ele><time>2026-04-05T08:15:15.103Z</time></trkpt><trkpt lat="43.54845" lon="10.857855"><ele>265.5</ele><time>2026-04-05T08:15:16.103Z</time></trkpt><trkpt lat="43.5484417" lon="10.8579717"><ele>265.6666666666667</ele><time>2026-04-05T08:15:17.103Z</time></trkpt><trkpt lat="43.5484367" lon="10.8580883"><ele>265.83333333333337</ele><time>2026-04-05T08:15:18.103Z</time></trkpt><trkpt lat="43.5484317" lon="10.8581967"><ele>266.0</ele><time>2026-04-05T08:15:19.103Z</time></trkpt><trkpt lat="43.54843" lon="10.8582983"><ele>266.0</ele><time>2026-04-05T08:15:20.103Z</time></trkpt><trkpt lat="43.5484267" lon="10.8583983"><ele>266.0</ele><time>2026-04-05T08:15:21.102Z</time></trkpt><trkpt lat="43.5484217" lon="10.8584933"><ele>266.0</ele><time>2026-04-05T08:15:22.103Z</time></trkpt><trkpt lat="43.54841" lon="10.8585833"><ele>266.0</ele><time>2026-04-05T08:15:23.103Z</time></trkpt><trkpt lat="43.548395" lon="10.8586733"><ele>266.0</ele><time>2026-04-05T08:15:24.102Z</time></trkpt><trkpt lat="43.54838" lon="10.8587617"><ele>266.0</ele><time>2026-04-05T08:15:25.103Z</time></trkpt><trkpt lat="43.54836" lon="10.8588533"><ele>266.0</ele><time>2026-04-05T08:15:26.103Z</time></trkpt><trkpt lat="43.5483333" lon="10.8589433"><ele>265.85714285714283</ele><time>2026-04-05T08:15:27.103Z</time></trkpt><trkpt lat="43.5483117" lon="10.8590267"><ele>265.7142857142857</ele><time>2026-04-05T08:15:28.103Z</time></trkpt><trkpt lat="43.5482917" lon="10.8591133"><ele>265.57142857142856</ele><time>2026-04-05T08:15:29.103Z</time></trkpt><trkpt lat="43.5482683" lon="10.859205"><ele>265.42857142857144</ele><time>2026-04-05T08:15:30.103Z</time></trkpt><trkpt lat="43.5482383" lon="10.859305"><ele>265.2857142857143</ele><time>2026-04-05T08:15:31.103Z</time></trkpt><trkpt lat="43.54821" lon="10.85941"><ele>265.1428571428571</ele><time>2026-04-05T08:15:32.103Z</time></trkpt><trkpt lat="43.54818" lon="10.8595117"><ele>265.0</ele><time>2026-04-05T08:15:33.103Z</time></trkpt><trkpt lat="43.5481533" lon="10.8596133"><ele>265.0</ele><time>2026-04-05T08:15:34.103Z</time></trkpt><trkpt lat="43.5481283" lon="10.8597133"><ele>265.0</ele><time>2026-04-05T08:15:35.103Z</time></trkpt><trkpt lat="43.5481017" lon="10.8598167"><ele>265.0</ele><time>2026-04-05T08:15:36.103Z</time></trkpt><trkpt lat="43.54808" lon="10.859925"><ele>265.0</ele><time>2026-04-05T08:15:37.103Z</time></trkpt><trkpt lat="43.54807" lon="10.8600333"><ele>265.0</ele><time>2026-04-05T08:15:38.103Z</time></trkpt><trkpt lat="43.5480733" lon="10.8601517"><ele>265.0</ele><time>2026-04-05T08:15:39.103Z</time></trkpt><trkpt lat="43.5480933" lon="10.8602783"><ele>265.0</ele><time>2026-04-05T08:15:40.102Z</time></trkpt><trkpt lat="43.5481183" lon="10.8604017"><ele>265.0</ele><time>2026-04-05T08:15:41.103Z</time></trkpt><trkpt lat="43.548135" lon="10.8605367"><ele>265.0</ele><time>2026-04-05T08:15:42.103Z</time></trkpt><trkpt lat="43.548135" lon="10.86068"><ele>265.0</ele><time>2026-04-05T08:15:43.103Z</time></trkpt><trkpt lat="43.548115" lon="10.8608267"><ele>265.0</ele><time>2026-04-05T08:15:44.103Z</time></trkpt><trkpt lat="43.5480783" lon="10.8609517"><ele>265.0</ele><time>2026-04-05T08:15:45.103Z</time></trkpt><trkpt lat="43.548035" lon="10.8610833"><ele>265.0</ele><time>2026-04-05T08:15:46.103Z</time></trkpt><trkpt lat="43.5480067" lon="10.8612317"><ele>265.0</ele><time>2026-04-05T08:15:47.103Z</time></trkpt><trkpt lat="43.5479933" lon="10.8613867"><ele>265.0</ele><time>2026-04-05T08:15:48.103Z</time></trkpt><trkpt lat="43.5479917" lon="10.86153"><ele>265.0</ele><time>2026-04-05T08:15:49.103Z</time></trkpt><trkpt lat="43.5480067" lon="10.8616583"><ele>265.0</ele><time>2026-04-05T08:15:50.103Z</time></trkpt><trkpt lat="43.5480167" lon="10.8617733"><ele>265.0</ele><time>2026-04-05T08:15:51.103Z</time></trkpt><trkpt lat="43.54803" lon="10.86192"><ele>265.0</ele><time>2026-04-05T08:15:53.103Z</time></trkpt><trkpt lat="43.5480267" lon="10.8620667"><ele>265.0</ele><time>2026-04-05T08:15:55.103Z</time></trkpt><trkpt lat="43.548005" lon="10.8621667"><ele>265.0</ele><time>2026-04-05T08:15:56.103Z</time></trkpt><trkpt lat="43.5479733" lon="10.8622783"><ele>265.8</ele><time>2026-04-05T08:15:57.103Z</time></trkpt><trkpt lat="43.5479367" lon="10.8624083"><ele>266.6</ele><time>2026-04-05T08:15:58.103Z</time></trkpt><trkpt lat="43.5478933" lon="10.8625483"><ele>267.4</ele><time>2026-04-05T08:15:59.103Z</time></trkpt><trkpt lat="43.5478467" lon="10.86269"><ele>268.2</ele><time>2026-04-05T08:16:00.102Z</time></trkpt><trkpt lat="43.5478" lon="10.8628283"><ele>269.0</ele><time>2026-04-05T08:16:01.103Z</time></trkpt><trkpt lat="43.5477517" lon="10.8629733"><ele>267.5</ele><time>2026-04-05T08:16:02.102Z</time></trkpt><trkpt lat="43.5477033" lon="10.8631217"><ele>266.0</ele><time>2026-04-05T08:16:03.103Z</time></trkpt><trkpt lat="43.5476517" lon="10.8632717"><ele>264.5</ele><time>2026-04-05T08:16:04.103Z</time></trkpt><trkpt lat="43.5476067" lon="10.8634217"><ele>263.0</ele><time>2026-04-05T08:16:05.103Z</time></trkpt><trkpt lat="43.5475617" lon="10.863575"><ele>263.0</ele><time>2026-04-05T08:16:06.103Z</time></trkpt><trkpt lat="43.5475017" lon="10.863735"><ele>263.0</ele><time>2026-04-05T08:16:07.103Z</time></trkpt><trkpt lat="43.5474283" lon="10.8638867"><ele>263.0</ele><time>2026-04-05T08:16:08.103Z</time></trkpt><trkpt lat="43.5473417" lon="10.864025"><ele>263.0</ele><time>2026-04-05T08:16:09.103Z</time></trkpt><trkpt lat="43.5472417" lon="10.8641517"><ele>263.0</ele><time>2026-04-05T08:16:10.103Z</time></trkpt><trkpt lat="43.547135" lon="10.86427"><ele>263.0</ele><time>2026-04-05T08:16:11.102Z</time></trkpt><trkpt lat="43.5470283" lon="10.8643883"><ele>263.0</ele><time>2026-04-05T08:16:12.103Z</time></trkpt><trkpt lat="43.54692" lon="10.8645033"><ele>263.0</ele><time>2026-04-05T08:16:13.103Z</time></trkpt><trkpt lat="43.5468167" lon="10.864615"><ele>265.5</ele><time>2026-04-05T08:16:14.103Z</time></trkpt><trkpt lat="43.5467117" lon="10.8647217"><ele>268.0</ele><time>2026-04-05T08:16:15.103Z</time></trkpt><trkpt lat="43.546605" lon="10.8648283"><ele>270.5</ele><time>2026-04-05T08:16:16.103Z</time></trkpt><trkpt lat="43.5465" lon="10.864935"><ele>273.0</ele><time>2026-04-05T08:16:17.103Z</time></trkpt><trkpt lat="43.546395" lon="10.8650433"><ele>273.75</ele><time>2026-04-05T08:16:18.103Z</time></trkpt><trkpt lat="43.54629" lon="10.8651533"><ele>274.5</ele><time>2026-04-05T08:16:19.103Z</time></trkpt><trkpt lat="43.5461817" lon="10.8652567"><ele>275.25</ele><time>2026-04-05T08:16:20.103Z</time></trkpt><trkpt lat="43.5460633" lon="10.8653567"><ele>276.0</ele><time>2026-04-05T08:16:21.102Z</time></trkpt><trkpt lat="43.545945" lon="10.8654567"><ele>276.0</ele><time>2026-04-05T08:16:22.103Z</time></trkpt><trkpt lat="43.545825" lon="10.8655533"><ele>276.0</ele><time>2026-04-05T08:16:23.103Z</time></trkpt><trkpt lat="43.5457033" lon="10.865655"><ele>276.0</ele><time>2026-04-05T08:16:24.103Z</time></trkpt><trkpt lat="43.5455817" lon="10.865755"><ele>276.0</ele><time>2026-04-05T08:16:25.103Z</time></trkpt><trkpt lat="43.545455" lon="10.8658517"><ele>276.5</ele><time>2026-04-05T08:16:26.103Z</time></trkpt><trkpt lat="43.5453283" lon="10.865945"><ele>277.0</ele><time>2026-04-05T08:16:27.103Z</time></trkpt><trkpt lat="43.545195" lon="10.8660467"><ele>277.5</ele><time>2026-04-05T08:16:28.103Z</time></trkpt><trkpt lat="43.5450633" lon="10.8661533"><ele>278.0</ele><time>2026-04-05T08:16:29.103Z</time></trkpt><trkpt lat="43.5449267" lon="10.866255"><ele>278.0</ele><time>2026-04-05T08:16:30.103Z</time></trkpt><trkpt lat="43.5447933" lon="10.866355"><ele>278.0</ele><time>2026-04-05T08:16:31.103Z</time></trkpt><trkpt lat="43.54466" lon="10.86645"><ele>278.0</ele><time>2026-04-05T08:16:32.103Z</time></trkpt><trkpt lat="43.5445283" lon="10.8665467"><ele>280.25</ele><time>2026-04-05T08:16:33.103Z</time></trkpt><trkpt lat="43.544395" lon="10.86664"><ele>282.5</ele><time>2026-04-05T08:16:34.103Z</time></trkpt><trkpt lat="43.5442733" lon="10.86675"><ele>284.75</ele><time>2026-04-05T08:16:35.103Z</time></trkpt><trkpt lat="43.5441733" lon="10.866885"><ele>287.0</ele><time>2026-04-05T08:16:36.103Z</time></trkpt><trkpt lat="43.5440983" lon="10.86704"><ele>287.0</ele><time>2026-04-05T08:16:37.103Z</time></trkpt><trkpt lat="43.54405" lon="10.8672133"><ele>287.0</ele><time>2026-04-05T08:16:38.103Z</time></trkpt><trkpt lat="43.544005" lon="10.8673883"><ele>287.0</ele><time>2026-04-05T08:16:39.103Z</time></trkpt><trkpt lat="43.543955" lon="10.8675683"><ele>287.0</ele><time>2026-04-05T08:16:40.103Z</time></trkpt><trkpt lat="43.5439067" lon="10.8677533"><ele>287.75</ele><time>2026-04-05T08:16:41.103Z</time></trkpt><trkpt lat="43.5438583" lon="10.8679383"><ele>288.5</ele><time>2026-04-05T08:16:42.103Z</time></trkpt><trkpt lat="43.54381" lon="10.8681233"><ele>289.25</ele><time>2026-04-05T08:16:43.103Z</time></trkpt><trkpt lat="43.5437667" lon="10.8683083"><ele>290.0</ele><time>2026-04-05T08:16:44.103Z</time></trkpt><trkpt lat="43.54374" lon="10.8684867"><ele>290.25</ele><time>2026-04-05T08:16:45.103Z</time></trkpt><trkpt lat="43.5437433" lon="10.8686683"><ele>290.5</ele><time>2026-04-05T08:16:46.103Z</time></trkpt><trkpt lat="43.5437583" lon="10.8688483"><ele>290.75</ele><time>2026-04-05T08:16:47.103Z</time></trkpt><trkpt lat="43.543795" lon="10.869035"><ele>291.0</ele><time>2026-04-05T08:16:48.102Z</time></trkpt><trkpt lat="43.5438433" lon="10.869225"><ele>289.0</ele><time>2026-04-05T08:16:49.103Z</time></trkpt><trkpt lat="43.5438933" lon="10.8694217"><ele>287.0</ele><time>2026-04-05T08:16:50.103Z</time></trkpt><trkpt lat="43.5439467" lon="10.8696133"><ele>285.0</ele><time>2026-04-05T08:16:51.103Z</time></trkpt><trkpt lat="43.5440017" lon="10.8698133"><ele>285.0</ele><time>2026-04-05T08:16:52.103Z</time></trkpt><trkpt lat="43.5440433" lon="10.870025"><ele>285.0</ele><time>2026-04-05T08:16:53.103Z</time></trkpt><trkpt lat="43.5440733" lon="10.8702383"><ele>285.0</ele><time>2026-04-05T08:16:54.102Z</time></trkpt><trkpt lat="43.54409" lon="10.870465"><ele>284.3333333333333</ele><time>2026-04-05T08:16:55.103Z</time></trkpt><trkpt lat="43.5441" lon="10.8706933"><ele>283.66666666666663</ele><time>2026-04-05T08:16:56.103Z</time></trkpt><trkpt lat="43.5441183" lon="10.8709233"><ele>283.0</ele><time>2026-04-05T08:16:57.103Z</time></trkpt><trkpt lat="43.5441333" lon="10.87115"><ele>283.0</ele><time>2026-04-05T08:16:58.103Z</time></trkpt><trkpt lat="43.5441517" lon="10.871365"><ele>283.0</ele><time>2026-04-05T08:16:59.103Z</time></trkpt><trkpt lat="43.54416" lon="10.8715833"><ele>283.0</ele><time>2026-04-05T08:17:00.103Z</time></trkpt><trkpt lat="43.5441633" lon="10.8718"><ele>283.66666666666663</ele><time>2026-04-05T08:17:01.103Z</time></trkpt><trkpt lat="43.5441583" lon="10.8720167"><ele>284.3333333333333</ele><time>2026-04-05T08:17:02.103Z</time></trkpt><trkpt lat="43.5441483" lon="10.8722267"><ele>285.0</ele><time>2026-04-05T08:17:03.103Z</time></trkpt><trkpt lat="43.5441383" lon="10.8724367"><ele>287.0</ele><time>2026-04-05T08:17:04.103Z</time></trkpt><trkpt lat="43.5441183" lon="10.872645"><ele>289.0</ele><time>2026-04-05T08:17:05.103Z</time></trkpt><trkpt lat="43.5440867" lon="10.872855"><ele>291.0</ele><time>2026-04-05T08:17:06.103Z</time></trkpt><trkpt lat="43.5440417" lon="10.87305"><ele>291.0</ele><time>2026-04-05T08:17:07.103Z</time></trkpt><trkpt lat="43.543985" lon="10.8732317"><ele>291.0</ele><time>2026-04-05T08:17:08.103Z</time></trkpt><trkpt lat="43.54393" lon="10.8734033"><ele>291.0</ele><time>2026-04-05T08:17:09.103Z</time></trkpt><trkpt lat="43.5438767" lon="10.87357"><ele>291.0</ele><time>2026-04-05T08:17:10.103Z</time></trkpt><trkpt lat="43.5438283" lon="10.873735"><ele>294.0</ele><time>2026-04-05T08:17:11.103Z</time></trkpt><trkpt lat="43.5438033" lon="10.8738983"><ele>297.0</ele><time>2026-04-05T08:17:12.103Z</time></trkpt><trkpt lat="43.5437933" lon="10.87407"><ele>300.0</ele><time>2026-04-05T08:17:13.103Z</time></trkpt><trkpt lat="43.5437917" lon="10.8742467"><ele>303.0</ele><time>2026-04-05T08:17:14.102Z</time></trkpt><trkpt lat="43.5437933" lon="10.8744267"><ele>303.0</ele><time>2026-04-05T08:17:15.103Z</time></trkpt><trkpt lat="43.5437967" lon="10.8746067"><ele>303.0</ele><time>2026-04-05T08:17:16.103Z</time></trkpt><trkpt lat="43.543805" lon="10.8747983"><ele>303.0</ele><time>2026-04-05T08:17:17.103Z</time></trkpt><trkpt lat="43.5438167" lon="10.8749883"><ele>303.0</ele><time>2026-04-05T08:17:18.103Z</time></trkpt><trkpt lat="43.5438183" lon="10.8751767"><ele>303.0</ele><time>2026-04-05T08:17:19.103Z</time></trkpt><trkpt lat="43.5438133" lon="10.8753617"><ele>303.0</ele><time>2026-04-05T08:17:20.103Z</time></trkpt><trkpt lat="43.5437983" lon="10.8755467"><ele>303.0</ele><time>2026-04-05T08:17:21.103Z</time></trkpt><trkpt lat="43.5437767" lon="10.8757333"><ele>303.0</ele><time>2026-04-05T08:17:22.103Z</time></trkpt><trkpt lat="43.54375" lon="10.8759233"><ele>303.25</ele><time>2026-04-05T08:17:23.103Z</time></trkpt><trkpt lat="43.543715" lon="10.87611"><ele>303.5</ele><time>2026-04-05T08:17:24.103Z</time></trkpt><trkpt lat="43.5436833" lon="10.876295"><ele>303.75</ele><time>2026-04-05T08:17:25.103Z</time></trkpt><trkpt lat="43.54365" lon="10.8764817"><ele>304.0</ele><time>2026-04-05T08:17:26.103Z</time></trkpt><trkpt lat="43.5436083" lon="10.87666"><ele>305.25</ele><time>2026-04-05T08:17:27.103Z</time></trkpt><trkpt lat="43.5435567" lon="10.876835"><ele>306.5</ele><time>2026-04-05T08:17:28.103Z</time></trkpt><trkpt lat="43.54349" lon="10.877005"><ele>307.75</ele><time>2026-04-05T08:17:29.103Z</time></trkpt><trkpt lat="43.54342" lon="10.8771683"><ele>309.0</ele><time>2026-04-05T08:17:30.103Z</time></trkpt><trkpt lat="43.5433433" lon="10.87733"><ele>309.0</ele><time>2026-04-05T08:17:31.103Z</time></trkpt><trkpt lat="43.5432683" lon="10.8774867"><ele>309.0</ele><time>2026-04-05T08:17:32.103Z</time></trkpt><trkpt lat="43.543195" lon="10.8776433"><ele>309.0</ele><time>2026-04-05T08:17:33.103Z</time></trkpt><trkpt lat="43.5431133" lon="10.8778017"><ele>309.0</ele><time>2026-04-05T08:17:34.103Z</time></trkpt><trkpt lat="43.5430317" lon="10.8779617"><ele>308.0</ele><time>2026-04-05T08:17:35.103Z</time></trkpt><trkpt lat="43.54295" lon="10.878125"><ele>307.0</ele><time>2026-04-05T08:17:36.103Z</time></trkpt><trkpt lat="43.5428717" lon="10.8782883"><ele>306.0</ele><time>2026-04-05T08:17:37.103Z</time></trkpt><trkpt lat="43.5427917" lon="10.87845"><ele>305.0</ele><time>2026-04-05T08:17:38.103Z</time></trkpt><trkpt lat="43.5427183" lon="10.8786133"><ele>308.0</ele><time>2026-04-05T08:17:39.103Z</time></trkpt><trkpt lat="43.5426433" lon="10.878775"><ele>311.0</ele><time>2026-04-05T08:17:40.103Z</time></trkpt><trkpt lat="43.5425633" lon="10.8789283"><ele>314.0</ele><time>2026-04-05T08:17:41.103Z</time></trkpt><trkpt lat="43.5424867" lon="10.8790867"><ele>317.0</ele><time>2026-04-05T08:17:42.103Z</time></trkpt><trkpt lat="43.5424117" lon="10.8792483"><ele>314.0</ele><time>2026-04-05T08:17:43.103Z</time></trkpt><trkpt lat="43.5423333" lon="10.879415"><ele>311.0</ele><time>2026-04-05T08:17:44.103Z</time></trkpt><trkpt lat="43.5422567" lon="10.8795817"><ele>308.0</ele><time>2026-04-05T08:17:45.103Z</time></trkpt><trkpt lat="43.5421667" lon="10.8797383"><ele>305.0</ele><time>2026-04-05T08:17:46.103Z</time></trkpt><trkpt lat="43.542065" lon="10.879885"><ele>309.5</ele><time>2026-04-05T08:17:47.103Z</time></trkpt><trkpt lat="43.54195" lon="10.8799967"><ele>314.0</ele><time>2026-04-05T08:17:48.103Z</time></trkpt><trkpt lat="43.5418267" lon="10.8800533"><ele>318.5</ele><time>2026-04-05T08:17:49.103Z</time></trkpt><trkpt lat="43.5417033" lon="10.8800667"><ele>323.0</ele><time>2026-04-05T08:17:50.103Z</time></trkpt><trkpt lat="43.541575" lon="10.880065"><ele>323.0</ele><time>2026-04-05T08:17:51.103Z</time></trkpt><trkpt lat="43.541445" lon="10.8800533"><ele>323.0</ele><time>2026-04-05T08:17:52.103Z</time></trkpt><trkpt lat="43.5413117" lon="10.8800517"><ele>323.0</ele><time>2026-04-05T08:17:53.103Z</time></trkpt><trkpt lat="43.5411717" lon="10.880075"><ele>323.0</ele><time>2026-04-05T08:17:54.103Z</time></trkpt><trkpt lat="43.54104" lon="10.8801133"><ele>320.75</ele><time>2026-04-05T08:17:55.103Z</time></trkpt><trkpt lat="43.5409183" lon="10.8801967"><ele>318.5</ele><time>2026-04-05T08:17:56.103Z</time></trkpt><trkpt lat="43.54081" lon="10.880305"><ele>316.25</ele><time>2026-04-05T08:17:57.103Z</time></trkpt><trkpt lat="43.540725" lon="10.8804467"><ele>314.0</ele><time>2026-04-05T08:17:58.102Z</time></trkpt><trkpt lat="43.5406667" lon="10.880605"><ele>314.0</ele><time>2026-04-05T08:17:59.103Z</time></trkpt><trkpt lat="43.54062" lon="10.88077"><ele>314.0</ele><time>2026-04-05T08:18:00.102Z</time></trkpt><trkpt lat="43.5405733" lon="10.880945"><ele>314.0</ele><time>2026-04-05T08:18:01.103Z</time></trkpt><trkpt lat="43.5405217" lon="10.88114"><ele>314.0</ele><time>2026-04-05T08:18:02.103Z</time></trkpt><trkpt lat="43.5404667" lon="10.8813467"><ele>313.6666666666667</ele><time>2026-04-05T08:18:03.102Z</time></trkpt><trkpt lat="43.5404133" lon="10.8815433"><ele>313.3333333333333</ele><time>2026-04-05T08:18:04.103Z</time></trkpt><trkpt lat="43.5403617" lon="10.881735"><ele>313.0</ele><time>2026-04-05T08:18:05.103Z</time></trkpt><trkpt lat="43.5403067" lon="10.8819283"><ele>313.0</ele><time>2026-04-05T08:18:06.103Z</time></trkpt><trkpt lat="43.5402583" lon="10.8821183"><ele>313.0</ele><time>2026-04-05T08:18:07.103Z</time></trkpt><trkpt lat="43.54021" lon="10.8823167"><ele>313.0</ele><time>2026-04-05T08:18:08.102Z</time></trkpt><trkpt lat="43.54015" lon="10.88251"><ele>315.3333333333333</ele><time>2026-04-05T08:18:09.103Z</time></trkpt><trkpt lat="43.5400867" lon="10.8827033"><ele>317.6666666666667</ele><time>2026-04-05T08:18:10.103Z</time></trkpt><trkpt lat="43.5400233" lon="10.8828983"><ele>320.0</ele><time>2026-04-05T08:18:11.103Z</time></trkpt><trkpt lat="43.53997" lon="10.8831"><ele>320.0</ele><time>2026-04-05T08:18:12.102Z</time></trkpt><trkpt lat="43.5399183" lon="10.8833017"><ele>320.0</ele><time>2026-04-05T08:18:13.103Z</time></trkpt><trkpt lat="43.53987" lon="10.8835017"><ele>320.0</ele><time>2026-04-05T08:18:14.103Z</time></trkpt><trkpt lat="43.539825" lon="10.8837033"><ele>320.6666666666667</ele><time>2026-04-05T08:18:15.103Z</time></trkpt><trkpt lat="43.5397917" lon="10.8839083"><ele>321.3333333333333</ele><time>2026-04-05T08:18:16.103Z</time></trkpt><trkpt lat="43.539765" lon="10.8841167"><ele>322.0</ele><time>2026-04-05T08:18:17.103Z</time></trkpt><trkpt lat="43.5397333" lon="10.8843217"><ele>321.0</ele><time>2026-04-05T08:18:18.103Z</time></trkpt><trkpt lat="43.5397033" lon="10.8845217"><ele>320.0</ele><time>2026-04-05T08:18:19.103Z</time></trkpt><trkpt lat="43.5396683" lon="10.8847217"><ele>319.0</ele><time>2026-04-05T08:18:20.103Z</time></trkpt><trkpt lat="43.5396183" lon="10.8849117"><ele>318.0</ele><time>2026-04-05T08:18:21.103Z</time></trkpt><trkpt lat="43.539555" lon="10.8850933"><ele>322.25</ele><time>2026-04-05T08:18:22.103Z</time></trkpt><trkpt lat="43.5394767" lon="10.8852633"><ele>326.5</ele><time>2026-04-05T08:18:23.103Z</time></trkpt><trkpt lat="43.5393883" lon="10.8854283"><ele>330.75</ele><time>2026-04-05T08:18:24.103Z</time></trkpt><trkpt lat="43.5392917" lon="10.885585"><ele>335.0</ele><time>2026-04-05T08:18:25.102Z</time></trkpt><trkpt lat="43.5391967" lon="10.8857333"><ele>335.0</ele><time>2026-04-05T08:18:26.103Z</time></trkpt><trkpt lat="43.5390933" lon="10.88587"><ele>335.0</ele><time>2026-04-05T08:18:27.103Z</time></trkpt><trkpt lat="43.5389833" lon="10.8859817"><ele>335.0</ele><time>2026-04-05T08:18:28.103Z</time></trkpt><trkpt lat="43.538855" lon="10.8860567"><ele>335.0</ele><time>2026-04-05T08:18:29.103Z</time></trkpt><trkpt lat="43.5387183" lon="10.88611"><ele>333.25</ele><time>2026-04-05T08:18:30.103Z</time></trkpt><trkpt lat="43.5385817" lon="10.8861433"><ele>331.5</ele><time>2026-04-05T08:18:31.103Z</time></trkpt><trkpt lat="43.538445" lon="10.8861733"><ele>329.75</ele><time>2026-04-05T08:18:32.103Z</time></trkpt><trkpt lat="43.53831" lon="10.886205"><ele>328.0</ele><time>2026-04-05T08:18:33.103Z</time></trkpt><trkpt lat="43.5381683" lon="10.8862417"><ele>328.0</ele><time>2026-04-05T08:18:34.103Z</time></trkpt><trkpt lat="43.5380267" lon="10.8862933"><ele>328.0</ele><time>2026-04-05T08:18:35.103Z</time></trkpt><trkpt lat="43.5379017" lon="10.8863767"><ele>328.0</ele><time>2026-04-05T08:18:36.103Z</time></trkpt><trkpt lat="43.5377917" lon="10.8864817"><ele>328.0</ele><time>2026-04-05T08:18:37.103Z</time></trkpt><trkpt lat="43.5377067" lon="10.8866233"><ele>330.0</ele><time>2026-04-05T08:18:38.102Z</time></trkpt><trkpt lat="43.5376567" lon="10.8867867"><ele>332.0</ele><time>2026-04-05T08:18:39.103Z</time></trkpt><trkpt lat="43.5376233" lon="10.8869767"><ele>334.0</ele><time>2026-04-05T08:18:40.103Z</time></trkpt><trkpt lat="43.5375983" lon="10.8871833"><ele>336.0</ele><time>2026-04-05T08:18:41.102Z</time></trkpt><trkpt lat="43.53757" lon="10.8873967"><ele>335.6666666666667</ele><time>2026-04-05T08:18:42.103Z</time></trkpt><trkpt lat="43.5375467" lon="10.8876117"><ele>335.33333333333337</ele><time>2026-04-05T08:18:43.103Z</time></trkpt><trkpt lat="43.5375067" lon="10.887825"><ele>335.0</ele><time>2026-04-05T08:18:44.103Z</time></trkpt><trkpt lat="43.5374533" lon="10.8880267"><ele>335.0</ele><time>2026-04-05T08:18:45.103Z</time></trkpt><trkpt lat="43.5373933" lon="10.8882117"><ele>335.0</ele><time>2026-04-05T08:18:46.103Z</time></trkpt><trkpt lat="43.53731" lon="10.8883867"><ele>335.0</ele><time>2026-04-05T08:18:47.103Z</time></trkpt><trkpt lat="43.53722" lon="10.8885467"><ele>335.0</ele><time>2026-04-05T08:18:48.103Z</time></trkpt><trkpt lat="43.5371233" lon="10.8886867"><ele>334.0</ele><time>2026-04-05T08:18:49.103Z</time></trkpt><trkpt lat="43.5369983" lon="10.8888067"><ele>333.0</ele><time>2026-04-05T08:18:50.103Z</time></trkpt><trkpt lat="43.53687" lon="10.88891"><ele>332.0</ele><time>2026-04-05T08:18:51.103Z</time></trkpt><trkpt lat="43.5367383" lon="10.8889983"><ele>331.0</ele><time>2026-04-05T08:18:52.103Z</time></trkpt><trkpt lat="43.536595" lon="10.8890967"><ele>331.0</ele><time>2026-04-05T08:18:53.103Z</time></trkpt><trkpt lat="43.5364517" lon="10.8891933"><ele>331.0</ele><time>2026-04-05T08:18:54.103Z</time></trkpt><trkpt lat="43.5363167" lon="10.8893"><ele>331.0</ele><time>2026-04-05T08:18:55.103Z</time></trkpt><trkpt lat="43.5361867" lon="10.889425"><ele>329.66666666666663</ele><time>2026-04-05T08:18:56.103Z</time></trkpt><trkpt lat="43.5360617" lon="10.889565"><ele>328.3333333333333</ele><time>2026-04-05T08:18:57.103Z</time></trkpt><trkpt lat="43.535945" lon="10.8897133"><ele>327.0</ele><time>2026-04-05T08:18:58.103Z</time></trkpt><trkpt lat="43.5358283" lon="10.8898617"><ele>327.0</ele><time>2026-04-05T08:18:59.103Z</time></trkpt><trkpt lat="43.5357117" lon="10.8900117"><ele>327.0</ele><time>2026-04-05T08:19:00.103Z</time></trkpt><trkpt lat="43.5356" lon="10.8901633"><ele>327.0</ele><time>2026-04-05T08:19:01.103Z</time></trkpt><trkpt lat="43.5354833" lon="10.8903167"><ele>326.3333333333333</ele><time>2026-04-05T08:19:02.103Z</time></trkpt><trkpt lat="43.5353667" lon="10.8904617"><ele>325.66666666666663</ele><time>2026-04-05T08:19:03.103Z</time></trkpt><trkpt lat="43.53525" lon="10.8906"><ele>325.0</ele><time>2026-04-05T08:19:04.103Z</time></trkpt><trkpt lat="43.5351317" lon="10.890745"><ele>325.0</ele><time>2026-04-05T08:19:05.102Z</time></trkpt><trkpt lat="43.535015" lon="10.8908883"><ele>325.0</ele><time>2026-04-05T08:19:06.103Z</time></trkpt><trkpt lat="43.5349" lon="10.89103"><ele>325.0</ele><time>2026-04-05T08:19:07.103Z</time></trkpt><trkpt lat="43.534785" lon="10.89117"><ele>323.3333333333333</ele><time>2026-04-05T08:19:08.103Z</time></trkpt><trkpt lat="43.5346717" lon="10.891315"><ele>321.6666666666667</ele><time>2026-04-05T08:19:09.103Z</time></trkpt><trkpt lat="43.5345583" lon="10.89146"><ele>320.0</ele><time>2026-04-05T08:19:10.103Z</time></trkpt><trkpt lat="43.53445" lon="10.8916033"><ele>322.25</ele><time>2026-04-05T08:19:11.103Z</time></trkpt><trkpt lat="43.5343383" lon="10.8917417"><ele>324.5</ele><time>2026-04-05T08:19:12.103Z</time></trkpt><trkpt lat="43.53423" lon="10.8918833"><ele>326.75</ele><time>2026-04-05T08:19:13.103Z</time></trkpt><trkpt lat="43.5341233" lon="10.89202"><ele>329.0</ele><time>2026-04-05T08:19:14.103Z</time></trkpt><trkpt lat="43.5340167" lon="10.8921533"><ele>329.0</ele><time>2026-04-05T08:19:15.103Z</time></trkpt><trkpt lat="43.533905" lon="10.89227"><ele>329.0</ele><time>2026-04-05T08:19:16.103Z</time></trkpt><trkpt lat="43.533775" lon="10.89235"><ele>329.0</ele><time>2026-04-05T08:19:17.102Z</time></trkpt><trkpt lat="43.5336367" lon="10.8923867"><ele>329.0</ele><time>2026-04-05T08:19:18.103Z</time></trkpt><trkpt lat="43.5335" lon="10.892385"><ele>331.75</ele><time>2026-04-05T08:19:19.103Z</time></trkpt><trkpt lat="43.5333667" lon="10.89236"><ele>334.5</ele><time>2026-04-05T08:19:20.103Z</time></trkpt><trkpt lat="43.53324" lon="10.8923233"><ele>337.25</ele><time>2026-04-05T08:19:21.103Z</time></trkpt><trkpt lat="43.533105" lon="10.892285"><ele>340.0</ele><time>2026-04-05T08:19:22.103Z</time></trkpt><trkpt lat="43.5329667" lon="10.8922433"><ele>340.0</ele><time>2026-04-05T08:19:23.103Z</time></trkpt><trkpt lat="43.5328233" lon="10.8921933"><ele>340.0</ele><time>2026-04-05T08:19:24.103Z</time></trkpt><trkpt lat="43.532675" lon="10.89214"><ele>340.0</ele><time>2026-04-05T08:19:25.103Z</time></trkpt><trkpt lat="43.5325217" lon="10.8920933"><ele>340.0</ele><time>2026-04-05T08:19:26.103Z</time></trkpt><trkpt lat="43.53236" lon="10.8920617"><ele>340.0</ele><time>2026-04-05T08:19:27.103Z</time></trkpt><trkpt lat="43.5322033" lon="10.892055"><ele>340.0</ele><time>2026-04-05T08:19:28.103Z</time></trkpt><trkpt lat="43.532055" lon="10.8920483"><ele>340.0</ele><time>2026-04-05T08:19:29.102Z</time></trkpt><trkpt lat="43.5319067" lon="10.89204"><ele>340.0</ele><time>2026-04-05T08:19:30.103Z</time></trkpt><trkpt lat="43.5317517" lon="10.8920517"><ele>340.0</ele><time>2026-04-05T08:19:31.103Z</time></trkpt><trkpt lat="43.5315967" lon="10.892065"><ele>340.0</ele><time>2026-04-05T08:19:32.103Z</time></trkpt><trkpt lat="43.5314417" lon="10.8920983"><ele>340.0</ele><time>2026-04-05T08:19:33.103Z</time></trkpt><trkpt lat="43.5312883" lon="10.892145"><ele>340.0</ele><time>2026-04-05T08:19:34.103Z</time></trkpt><trkpt lat="43.5311367" lon="10.8921917"><ele>342.3333333333333</ele><time>2026-04-05T08:19:35.103Z</time></trkpt><trkpt lat="43.53098" lon="10.8922333"><ele>344.6666666666667</ele><time>2026-04-05T08:19:36.103Z</time></trkpt><trkpt lat="43.530825" lon="10.8922867"><ele>347.0</ele><time>2026-04-05T08:19:37.103Z</time></trkpt><trkpt lat="43.5306717" lon="10.8923417"><ele>347.0</ele><time>2026-04-05T08:19:38.103Z</time></trkpt><trkpt lat="43.5305233" lon="10.8923883"><ele>347.0</ele><time>2026-04-05T08:19:39.103Z</time></trkpt><trkpt lat="43.530375" lon="10.8924333"><ele>347.0</ele><time>2026-04-05T08:19:40.103Z</time></trkpt><trkpt lat="43.53022" lon="10.8924717"><ele>346.33333333333337</ele><time>2026-04-05T08:19:41.103Z</time></trkpt><trkpt lat="43.530065" lon="10.8925117"><ele>345.6666666666667</ele><time>2026-04-05T08:19:42.103Z</time></trkpt><trkpt lat="43.5299083" lon="10.8925583"><ele>345.0</ele><time>2026-04-05T08:19:43.103Z</time></trkpt><trkpt lat="43.5297533" lon="10.8926083"><ele>345.0</ele><time>2026-04-05T08:19:44.102Z</time></trkpt><trkpt lat="43.5295983" lon="10.8926717"><ele>345.0</ele><time>2026-04-05T08:19:45.103Z</time></trkpt><trkpt lat="43.529445" lon="10.8927517"><ele>345.0</ele><time>2026-04-05T08:19:46.103Z</time></trkpt><trkpt lat="43.5292983" lon="10.892845"><ele>345.0</ele><time>2026-04-05T08:19:47.103Z</time></trkpt><trkpt lat="43.5291583" lon="10.8929533"><ele>345.0</ele><time>2026-04-05T08:19:48.102Z</time></trkpt><trkpt lat="43.5290217" lon="10.8930717"><ele>345.0</ele><time>2026-04-05T08:19:49.103Z</time></trkpt><trkpt lat="43.52889" lon="10.8932"><ele>345.0</ele><time>2026-04-05T08:19:50.103Z</time></trkpt><trkpt lat="43.5287583" lon="10.8933317"><ele>345.0</ele><time>2026-04-05T08:19:51.103Z</time></trkpt><trkpt lat="43.5286267" lon="10.8934617"><ele>345.0</ele><time>2026-04-05T08:19:52.103Z</time></trkpt><trkpt lat="43.5284967" lon="10.8935883"><ele>347.5</ele><time>2026-04-05T08:19:53.103Z</time></trkpt><trkpt lat="43.52837" lon="10.893715"><ele>350.0</ele><time>2026-04-05T08:19:54.103Z</time></trkpt><trkpt lat="43.5282517" lon="10.8938333"><ele>352.5</ele><time>2026-04-05T08:19:55.103Z</time></trkpt><trkpt lat="43.5281433" lon="10.8939383"><ele>355.0</ele><time>2026-04-05T08:19:56.103Z</time></trkpt><trkpt lat="43.5280517" lon="10.89405"><ele>355.0</ele><time>2026-04-05T08:19:57.103Z</time></trkpt><trkpt lat="43.5279783" lon="10.8941783"><ele>355.0</ele><time>2026-04-05T08:19:58.103Z</time></trkpt><trkpt lat="43.5279517" lon="10.8943183"><ele>355.0</ele><time>2026-04-05T08:19:59.103Z</time></trkpt><trkpt lat="43.5279583" lon="10.89447"><ele>355.0</ele><time>2026-04-05T08:20:00.103Z</time></trkpt><trkpt lat="43.52798" lon="10.894635"><ele>357.75</ele><time>2026-04-05T08:20:01.103Z</time></trkpt><trkpt lat="43.5280067" lon="10.8947983"><ele>360.5</ele><time>2026-04-05T08:20:02.103Z</time></trkpt><trkpt lat="43.528025" lon="10.8949767"><ele>363.25</ele><time>2026-04-05T08:20:03.103Z</time></trkpt><trkpt lat="43.528025" lon="10.89517"><ele>366.0</ele><time>2026-04-05T08:20:04.103Z</time></trkpt><trkpt lat="43.5280067" lon="10.89536"><ele>368.25</ele><time>2026-04-05T08:20:05.103Z</time></trkpt><trkpt lat="43.52796" lon="10.895525"><ele>370.5</ele><time>2026-04-05T08:20:06.103Z</time></trkpt><trkpt lat="43.52789" lon="10.89565"><ele>372.75</ele><time>2026-04-05T08:20:07.102Z</time></trkpt><trkpt lat="43.52777" lon="10.8957783"><ele>375.0</ele><time>2026-04-05T08:20:08.103Z</time></trkpt><trkpt lat="43.5276483" lon="10.895905"><ele>378.5</ele><time>2026-04-05T08:20:09.102Z</time></trkpt><trkpt lat="43.5275633" lon="10.8960517"><ele>382.0</ele><time>2026-04-05T08:20:10.103Z</time></trkpt><trkpt lat="43.5275117" lon="10.8962233"><ele>385.5</ele><time>2026-04-05T08:20:11.103Z</time></trkpt><trkpt lat="43.527455" lon="10.8963917"><ele>389.0</ele><time>2026-04-05T08:20:12.103Z</time></trkpt><trkpt lat="43.5273867" lon="10.8965317"><ele>389.0</ele><time>2026-04-05T08:20:13.103Z</time></trkpt><trkpt lat="43.5273033" lon="10.8966233"><ele>389.0</ele><time>2026-04-05T08:20:14.103Z</time></trkpt><trkpt lat="43.5272117" lon="10.89667"><ele>389.0</ele><time>2026-04-05T08:20:15.103Z</time></trkpt><trkpt lat="43.5271233" lon="10.8966933"><ele>389.0</ele><time>2026-04-05T08:20:16.103Z</time></trkpt><trkpt lat="43.5270283" lon="10.8966917"><ele>389.0</ele><time>2026-04-05T08:20:17.103Z</time></trkpt><trkpt lat="43.5269217" lon="10.8966717"><ele>390.0</ele><time>2026-04-05T08:20:18.103Z</time></trkpt><trkpt lat="43.5267883" lon="10.8966267"><ele>391.0</ele><time>2026-04-05T08:20:19.103Z</time></trkpt><trkpt lat="43.52666" lon="10.896585"><ele>392.0</ele><time>2026-04-05T08:20:20.103Z</time></trkpt><trkpt lat="43.5265367" lon="10.8965433"><ele>393.0</ele><time>2026-04-05T08:20:21.103Z</time></trkpt><trkpt lat="43.5264167" lon="10.89651"><ele>393.0</ele><time>2026-04-05T08:20:22.102Z</time></trkpt><trkpt lat="43.52631" lon="10.8965067"><ele>393.0</ele><time>2026-04-05T08:20:23.103Z</time></trkpt><trkpt lat="43.52621" lon="10.8965083"><ele>393.0</ele><time>2026-04-05T08:20:24.103Z</time></trkpt><trkpt lat="43.5261133" lon="10.8965133"><ele>393.0</ele><time>2026-04-05T08:20:25.103Z</time></trkpt><trkpt lat="43.52602" lon="10.8965117"><ele>393.0</ele><time>2026-04-05T08:20:26.102Z</time></trkpt><trkpt lat="43.5259233" lon="10.8964983"><ele>395.2</ele><time>2026-04-05T08:20:27.103Z</time></trkpt><trkpt lat="43.525825" lon="10.8964867"><ele>397.4</ele><time>2026-04-05T08:20:28.103Z</time></trkpt><trkpt lat="43.5257233" lon="10.8964867"><ele>399.59999999999997</ele><time>2026-04-05T08:20:29.102Z</time></trkpt><trkpt lat="43.5256233" lon="10.8965017"><ele>401.79999999999995</ele><time>2026-04-05T08:20:30.103Z</time></trkpt><trkpt lat="43.5255233" lon="10.8965433"><ele>404.0</ele><time>2026-04-05T08:20:31.103Z</time></trkpt><trkpt lat="43.5254333" lon="10.8966067"><ele>406.0</ele><time>2026-04-05T08:20:32.103Z</time></trkpt><trkpt lat="43.5253483" lon="10.8966733"><ele>408.0</ele><time>2026-04-05T08:20:33.103Z</time></trkpt><trkpt lat="43.5252717" lon="10.8967517"><ele>410.0</ele><time>2026-04-05T08:20:34.103Z</time></trkpt><trkpt lat="43.5251933" lon="10.8968367"><ele>412.0</ele><time>2026-04-05T08:20:35.103Z</time></trkpt><trkpt lat="43.5251117" lon="10.8969283"><ele>414.0</ele><time>2026-04-05T08:20:36.103Z</time></trkpt><trkpt lat="43.52504" lon="10.8970333"><ele>414.0</ele><time>2026-04-05T08:20:37.103Z</time></trkpt><trkpt lat="43.5249767" lon="10.89716"><ele>414.0</ele><time>2026-04-05T08:20:38.103Z</time></trkpt><trkpt lat="43.5249133" lon="10.8972917"><ele>414.0</ele><time>2026-04-05T08:20:39.103Z</time></trkpt><trkpt lat="43.52484" lon="10.8974267"><ele>414.0</ele><time>2026-04-05T08:20:40.103Z</time></trkpt><trkpt lat="43.5247667" lon="10.8975567"><ele>415.0</ele><time>2026-04-05T08:20:41.103Z</time></trkpt><trkpt lat="43.5246917" lon="10.89768"><ele>416.0</ele><time>2026-04-05T08:20:42.103Z</time></trkpt><trkpt lat="43.5246167" lon="10.8978"><ele>417.0</ele><time>2026-04-05T08:20:43.103Z</time></trkpt><trkpt lat="43.52454" lon="10.897915"><ele>418.0</ele><time>2026-04-05T08:20:44.103Z</time></trkpt><trkpt lat="43.5244633" lon="10.8980317"><ele>418.0</ele><time>2026-04-05T08:20:45.103Z</time></trkpt><trkpt lat="43.5243883" lon="10.8981417"><ele>418.0</ele><time>2026-04-05T08:20:46.103Z</time></trkpt><trkpt lat="43.5243117" lon="10.8982433"><ele>418.0</ele><time>2026-04-05T08:20:47.103Z</time></trkpt><trkpt lat="43.5242333" lon="10.8983417"><ele>418.0</ele><time>2026-04-05T08:20:48.103Z</time></trkpt><trkpt lat="43.5241567" lon="10.8984417"><ele>418.0</ele><time>2026-04-05T08:20:49.103Z</time></trkpt><trkpt lat="43.52408" lon="10.8985383"><ele>420.0</ele><time>2026-04-05T08:20:50.103Z</time></trkpt><trkpt lat="43.5239967" lon="10.8986317"><ele>422.0</ele><time>2026-04-05T08:20:51.103Z</time></trkpt><trkpt lat="43.5239117" lon="10.8987233"><ele>423.99999999999994</ele><time>2026-04-05T08:20:52.103Z</time></trkpt><trkpt lat="43.5238283" lon="10.8988217"><ele>426.0</ele><time>2026-04-05T08:20:53.103Z</time></trkpt><trkpt lat="43.5237433" lon="10.89892"><ele>428.0</ele><time>2026-04-05T08:20:54.103Z</time></trkpt><trkpt lat="43.523655" lon="10.8990117"><ele>427.59999999999997</ele><time>2026-04-05T08:20:55.103Z</time></trkpt><trkpt lat="43.5235683" lon="10.8991033"><ele>427.19999999999993</ele><time>2026-04-05T08:20:56.103Z</time></trkpt><trkpt lat="43.5234783" lon="10.89919"><ele>426.8</ele><time>2026-04-05T08:20:57.103Z</time></trkpt><trkpt lat="43.5233867" lon="10.899275"><ele>426.4</ele><time>2026-04-05T08:20:58.103Z</time></trkpt><trkpt lat="43.5232917" lon="10.8993583"><ele>426.0</ele><time>2026-04-05T08:20:59.103Z</time></trkpt><trkpt lat="43.5231867" lon="10.89943"><ele>426.0</ele><time>2026-04-05T08:21:00.103Z</time></trkpt><trkpt lat="43.5230733" lon="10.8994967"><ele>426.0</ele><time>2026-04-05T08:21:01.103Z</time></trkpt><trkpt lat="43.5229617" lon="10.8995683"><ele>426.0</ele><time>2026-04-05T08:21:02.103Z</time></trkpt><trkpt lat="43.5228467" lon="10.89963"><ele>426.0</ele><time>2026-04-05T08:21:03.102Z</time></trkpt><trkpt lat="43.522725" lon="10.899695"><ele>426.5</ele><time>2026-04-05T08:21:04.103Z</time></trkpt><trkpt lat="43.522595" lon="10.8997533"><ele>427.0</ele><time>2026-04-05T08:21:05.103Z</time></trkpt><trkpt lat="43.522465" lon="10.8998067"><ele>427.5</ele><time>2026-04-05T08:21:06.103Z</time></trkpt><trkpt lat="43.5223317" lon="10.8998617"><ele>428.0</ele><time>2026-04-05T08:21:07.103Z</time></trkpt><trkpt lat="43.5221933" lon="10.8999233"><ele>429.25</ele><time>2026-04-05T08:21:08.103Z</time></trkpt><trkpt lat="43.5220567" lon="10.8999967"><ele>430.5</ele><time>2026-04-05T08:21:09.103Z</time></trkpt><trkpt lat="43.521925" lon="10.900085"><ele>431.75</ele><time>2026-04-05T08:21:10.103Z</time></trkpt><trkpt lat="43.5217883" lon="10.90018"><ele>433.0</ele><time>2026-04-05T08:21:11.103Z</time></trkpt><trkpt lat="43.52166" lon="10.90029"><ele>433.0</ele><time>2026-04-05T08:21:12.103Z</time></trkpt><trkpt lat="43.5215333" lon="10.9004133"><ele>433.0</ele><time>2026-04-05T08:21:13.103Z</time></trkpt><trkpt lat="43.5214083" lon="10.9005417"><ele>433.0</ele><time>2026-04-05T08:21:14.103Z</time></trkpt><trkpt lat="43.5212817" lon="10.90067"><ele>435.0</ele><time>2026-04-05T08:21:15.103Z</time></trkpt><trkpt lat="43.5211617" lon="10.900795"><ele>437.0</ele><time>2026-04-05T08:21:16.103Z</time></trkpt><trkpt lat="43.5210383" lon="10.9009217"><ele>439.0</ele><time>2026-04-05T08:21:17.103Z</time></trkpt><trkpt lat="43.5209183" lon="10.901055"><ele>439.0</ele><time>2026-04-05T08:21:18.103Z</time></trkpt><trkpt lat="43.5207983" lon="10.9011833"><ele>439.0</ele><time>2026-04-05T08:21:19.103Z</time></trkpt><trkpt lat="43.5206767" lon="10.9013183"><ele>439.0</ele><time>2026-04-05T08:21:20.103Z</time></trkpt><trkpt lat="43.5205533" lon="10.901455"><ele>439.0</ele><time>2026-04-05T08:21:21.103Z</time></trkpt><trkpt lat="43.52043" lon="10.9015917"><ele>439.0</ele><time>2026-04-05T08:21:22.103Z</time></trkpt><trkpt lat="43.5203033" lon="10.9017367"><ele>439.0</ele><time>2026-04-05T08:21:23.103Z</time></trkpt><trkpt lat="43.5201733" lon="10.9018883"><ele>438.0</ele><time>2026-04-05T08:21:24.103Z</time></trkpt><trkpt lat="43.52004" lon="10.90204"><ele>437.0</ele><time>2026-04-05T08:21:25.103Z</time></trkpt><trkpt lat="43.5199067" lon="10.90218"><ele>436.0</ele><time>2026-04-05T08:21:26.103Z</time></trkpt><trkpt lat="43.5197683" lon="10.9023017"><ele>436.0</ele><time>2026-04-05T08:21:27.103Z</time></trkpt><trkpt lat="43.51962" lon="10.9024117"><ele>436.0</ele><time>2026-04-05T08:21:28.103Z</time></trkpt><trkpt lat="43.519465" lon="10.9025067"><ele>436.0</ele><time>2026-04-05T08:21:29.103Z</time></trkpt><trkpt lat="43.5193033" lon="10.9025833"><ele>438.0</ele><time>2026-04-05T08:21:30.103Z</time></trkpt><trkpt lat="43.5191417" lon="10.902645"><ele>440.0</ele><time>2026-04-05T08:21:31.103Z</time></trkpt><trkpt lat="43.51897" lon="10.902685"><ele>442.0</ele><time>2026-04-05T08:21:32.103Z</time></trkpt><trkpt lat="43.5188017" lon="10.902705"><ele>441.6666666666667</ele><time>2026-04-05T08:21:33.103Z</time></trkpt><trkpt lat="43.5186333" lon="10.9027183"><ele>441.33333333333337</ele><time>2026-04-05T08:21:34.103Z</time></trkpt><trkpt lat="43.5184617" lon="10.902725"><ele>441.0</ele><time>2026-04-05T08:21:35.103Z</time></trkpt><trkpt lat="43.5182883" lon="10.90273"><ele>441.0</ele><time>2026-04-05T08:21:36.103Z</time></trkpt><trkpt lat="43.5181183" lon="10.9027383"><ele>441.0</ele><time>2026-04-05T08:21:37.103Z</time></trkpt><trkpt lat="43.5179483" lon="10.902745"><ele>441.0</ele><time>2026-04-05T08:21:38.103Z</time></trkpt><trkpt lat="43.5177867" lon="10.9027467"><ele>444.0</ele><time>2026-04-05T08:21:39.103Z</time></trkpt><trkpt lat="43.5176283" lon="10.9027317"><ele>447.0</ele><time>2026-04-05T08:21:40.103Z</time></trkpt><trkpt lat="43.51748" lon="10.9027"><ele>450.0</ele><time>2026-04-05T08:21:41.103Z</time></trkpt><trkpt lat="43.5173367" lon="10.9026483"><ele>449.75</ele><time>2026-04-05T08:21:42.103Z</time></trkpt><trkpt lat="43.5172" lon="10.9025717"><ele>449.5</ele><time>2026-04-05T08:21:43.103Z</time></trkpt><trkpt lat="43.5170717" lon="10.9024717"><ele>449.25</ele><time>2026-04-05T08:21:44.102Z</time></trkpt><trkpt lat="43.5169517" lon="10.9023567"><ele>449.0</ele><time>2026-04-05T08:21:45.103Z</time></trkpt><trkpt lat="43.51684" lon="10.9022267"><ele>451.75</ele><time>2026-04-05T08:21:46.103Z</time></trkpt><trkpt lat="43.5167317" lon="10.9020933"><ele>454.5</ele><time>2026-04-05T08:21:47.103Z</time></trkpt><trkpt lat="43.516625" lon="10.9019617"><ele>457.25</ele><time>2026-04-05T08:21:48.103Z</time></trkpt><trkpt lat="43.516515" lon="10.9018283"><ele>460.0</ele><time>2026-04-05T08:21:49.103Z</time></trkpt><trkpt lat="43.5164" lon="10.9016967"><ele>460.0</ele><time>2026-04-05T08:21:50.103Z</time></trkpt><trkpt lat="43.5162833" lon="10.9015667"><ele>460.0</ele><time>2026-04-05T08:21:51.103Z</time></trkpt><trkpt lat="43.5161667" lon="10.9014483"><ele>460.0</ele><time>2026-04-05T08:21:52.103Z</time></trkpt><trkpt lat="43.51605" lon="10.9013383"><ele>460.0</ele><time>2026-04-05T08:21:53.103Z</time></trkpt><trkpt lat="43.5159317" lon="10.9012267"><ele>461.0</ele><time>2026-04-05T08:21:54.103Z</time></trkpt><trkpt lat="43.5158067" lon="10.90113"><ele>462.0</ele><time>2026-04-05T08:21:55.103Z</time></trkpt><trkpt lat="43.51568" lon="10.9010367"><ele>463.0</ele><time>2026-04-05T08:21:56.103Z</time></trkpt><trkpt lat="43.51555" lon="10.900955"><ele>464.0</ele><time>2026-04-05T08:21:57.103Z</time></trkpt><trkpt lat="43.5154167" lon="10.9008767"><ele>466.25</ele><time>2026-04-05T08:21:58.103Z</time></trkpt><trkpt lat="43.515285" lon="10.9007933"><ele>468.5</ele><time>2026-04-05T08:21:59.103Z</time></trkpt><trkpt lat="43.515155" lon="10.9007083"><ele>470.75</ele><time>2026-04-05T08:22:00.103Z</time></trkpt><trkpt lat="43.515025" lon="10.9006233"><ele>473.0</ele><time>2026-04-05T08:22:01.102Z</time></trkpt><trkpt lat="43.5148933" lon="10.9005367"><ele>473.0</ele><time>2026-04-05T08:22:02.103Z</time></trkpt><trkpt lat="43.5147617" lon="10.9004533"><ele>473.0</ele><time>2026-04-05T08:22:03.103Z</time></trkpt><trkpt lat="43.5146283" lon="10.9003717"><ele>473.0</ele><time>2026-04-05T08:22:04.102Z</time></trkpt><trkpt lat="43.5144983" lon="10.9002817"><ele>473.0</ele><time>2026-04-05T08:22:05.103Z</time></trkpt><trkpt lat="43.5143683" lon="10.9001867"><ele>474.66666666666663</ele><time>2026-04-05T08:22:06.103Z</time></trkpt><trkpt lat="43.5142433" lon="10.900075"><ele>476.33333333333337</ele><time>2026-04-05T08:22:07.103Z</time></trkpt><trkpt lat="43.5141183" lon="10.8999617"><ele>478.0</ele><time>2026-04-05T08:22:08.103Z</time></trkpt><trkpt lat="43.5139933" lon="10.8998433"><ele>478.0</ele><time>2026-04-05T08:22:09.103Z</time></trkpt><trkpt lat="43.5138733" lon="10.8997233"><ele>478.0</ele><time>2026-04-05T08:22:10.103Z</time></trkpt><trkpt lat="43.5137517" lon="10.8995933"><ele>478.0</ele><time>2026-04-05T08:22:11.103Z</time></trkpt><trkpt lat="43.5136317" lon="10.8994683"><ele>477.5</ele><time>2026-04-05T08:22:12.103Z</time></trkpt><trkpt lat="43.5135167" lon="10.8993433"><ele>477.0</ele><time>2026-04-05T08:22:13.103Z</time></trkpt><trkpt lat="43.5133933" lon="10.899225"><ele>476.5</ele><time>2026-04-05T08:22:14.103Z</time></trkpt><trkpt lat="43.513265" lon="10.899115"><ele>476.0</ele><time>2026-04-05T08:22:15.103Z</time></trkpt><trkpt lat="43.5131317" lon="10.899025"><ele>476.66666666666663</ele><time>2026-04-05T08:22:16.103Z</time></trkpt><trkpt lat="43.5129867" lon="10.8989667"><ele>477.33333333333337</ele><time>2026-04-05T08:22:17.103Z</time></trkpt><trkpt lat="43.512835" lon="10.898925"><ele>478.0</ele><time>2026-04-05T08:22:18.103Z</time></trkpt><trkpt lat="43.5126817" lon="10.8989117"><ele>478.0</ele><time>2026-04-05T08:22:19.103Z</time></trkpt><trkpt lat="43.5125317" lon="10.8989317"><ele>478.0</ele><time>2026-04-05T08:22:20.103Z</time></trkpt><trkpt lat="43.512385" lon="10.898985"><ele>478.0</ele><time>2026-04-05T08:22:21.103Z</time></trkpt><trkpt lat="43.5122467" lon="10.8990717"><ele>478.0</ele><time>2026-04-05T08:22:22.103Z</time></trkpt><trkpt lat="43.5121183" lon="10.8991817"><ele>478.0</ele><time>2026-04-05T08:22:23.103Z</time></trkpt><trkpt lat="43.5120033" lon="10.8993217"><ele>478.0</ele><time>2026-04-05T08:22:24.103Z</time></trkpt><trkpt lat="43.5119017" lon="10.899485"><ele>480.0</ele><time>2026-04-05T08:22:25.103Z</time></trkpt><trkpt lat="43.51182" lon="10.8996683"><ele>482.0</ele><time>2026-04-05T08:22:26.103Z</time></trkpt><trkpt lat="43.511765" lon="10.89987"><ele>484.0</ele><time>2026-04-05T08:22:27.103Z</time></trkpt><trkpt lat="43.5117367" lon="10.9000833"><ele>484.0</ele><time>2026-04-05T08:22:28.103Z</time></trkpt><trkpt lat="43.5117283" lon="10.9003017"><ele>484.0</ele><time>2026-04-05T08:22:29.103Z</time></trkpt><trkpt lat="43.51173" lon="10.900525"><ele>484.0</ele><time>2026-04-05T08:22:30.103Z</time></trkpt><trkpt lat="43.5117483" lon="10.900745"><ele>484.0</ele><time>2026-04-05T08:22:31.103Z</time></trkpt><trkpt lat="43.51178" lon="10.9009583"><ele>484.0</ele><time>2026-04-05T08:22:32.102Z</time></trkpt><trkpt lat="43.5118283" lon="10.9011633"><ele>484.0</ele><time>2026-04-05T08:22:33.103Z</time></trkpt><trkpt lat="43.5118883" lon="10.9013633"><ele>484.0</ele><time>2026-04-05T08:22:34.103Z</time></trkpt><trkpt lat="43.51196" lon="10.90156"><ele>484.0</ele><time>2026-04-05T08:22:35.103Z</time></trkpt><trkpt lat="43.5120267" lon="10.90176"><ele>484.0</ele><time>2026-04-05T08:22:36.103Z</time></trkpt><trkpt lat="43.5120883" lon="10.901965"><ele>484.0</ele><time>2026-04-05T08:22:37.102Z</time></trkpt><trkpt lat="43.5121383" lon="10.9021767"><ele>484.0</ele><time>2026-04-05T08:22:38.103Z</time></trkpt><trkpt lat="43.512175" lon="10.9023917"><ele>484.0</ele><time>2026-04-05T08:22:39.103Z</time></trkpt><trkpt lat="43.5122" lon="10.90261"><ele>484.0</ele><time>2026-04-05T08:22:40.103Z</time></trkpt><trkpt lat="43.5122017" lon="10.9028283"><ele>484.0</ele><time>2026-04-05T08:22:41.103Z</time></trkpt><trkpt lat="43.5121933" lon="10.9030483"><ele>484.0</ele><time>2026-04-05T08:22:42.103Z</time></trkpt><trkpt lat="43.5121767" lon="10.9032667"><ele>484.33333333333337</ele><time>2026-04-05T08:22:43.103Z</time></trkpt><trkpt lat="43.51216" lon="10.9034833"><ele>484.66666666666663</ele><time>2026-04-05T08:22:44.103Z</time></trkpt><trkpt lat="43.5121383" lon="10.9037083"><ele>485.0</ele><time>2026-04-05T08:22:45.103Z</time></trkpt><trkpt lat="43.512105" lon="10.9039333"><ele>485.0</ele><time>2026-04-05T08:22:46.103Z</time></trkpt><trkpt lat="43.5120533" lon="10.90415"><ele>485.0</ele><time>2026-04-05T08:22:47.103Z</time></trkpt><trkpt lat="43.5119783" lon="10.9043517"><ele>485.0</ele><time>2026-04-05T08:22:48.103Z</time></trkpt><trkpt lat="43.51187" lon="10.90453"><ele>486.66666666666663</ele><time>2026-04-05T08:22:49.103Z</time></trkpt><trkpt lat="43.5117367" lon="10.90467"><ele>488.33333333333337</ele><time>2026-04-05T08:22:50.103Z</time></trkpt><trkpt lat="43.5115767" lon="10.9047733"><ele>490.0</ele><time>2026-04-05T08:22:51.103Z</time></trkpt><trkpt lat="43.5114117" lon="10.9048567"><ele>489.33333333333337</ele><time>2026-04-05T08:22:52.103Z</time></trkpt><trkpt lat="43.5112367" lon="10.9049183"><ele>488.66666666666663</ele><time>2026-04-05T08:22:53.103Z</time></trkpt><trkpt lat="43.51106" lon="10.904975"><ele>488.0</ele><time>2026-04-05T08:22:54.103Z</time></trkpt><trkpt lat="43.5108817" lon="10.90504"><ele>487.0</ele><time>2026-04-05T08:22:55.103Z</time></trkpt><trkpt lat="43.5107033" lon="10.9051033"><ele>486.0</ele><time>2026-04-05T08:22:56.103Z</time></trkpt><trkpt lat="43.5105233" lon="10.9051667"><ele>485.0</ele><time>2026-04-05T08:22:57.103Z</time></trkpt><trkpt lat="43.510345" lon="10.90523"><ele>487.0</ele><time>2026-04-05T08:22:58.103Z</time></trkpt><trkpt lat="43.5101733" lon="10.905295"><ele>489.0</ele><time>2026-04-05T08:22:59.103Z</time></trkpt><trkpt lat="43.51" lon="10.9053533"><ele>491.0</ele><time>2026-04-05T08:23:00.103Z</time></trkpt><trkpt lat="43.50983" lon="10.90541"><ele>491.0</ele><time>2026-04-05T08:23:01.103Z</time></trkpt><trkpt lat="43.5096683" lon="10.905465"><ele>491.0</ele><time>2026-04-05T08:23:02.103Z</time></trkpt><trkpt lat="43.509515" lon="10.90552"><ele>491.0</ele><time>2026-04-05T08:23:03.103Z</time></trkpt><trkpt lat="43.5093633" lon="10.9055733"><ele>493.0</ele><time>2026-04-05T08:23:04.103Z</time></trkpt><trkpt lat="43.5092167" lon="10.90562"><ele>495.0</ele><time>2026-04-05T08:23:05.102Z</time></trkpt><trkpt lat="43.50908" lon="10.905665"><ele>497.0</ele><time>2026-04-05T08:23:06.103Z</time></trkpt><trkpt lat="43.5089533" lon="10.9057067"><ele>499.0</ele><time>2026-04-05T08:23:07.103Z</time></trkpt><trkpt lat="43.5088383" lon="10.9057467"><ele>500.2</ele><time>2026-04-05T08:23:08.103Z</time></trkpt><trkpt lat="43.5087333" lon="10.9057833"><ele>501.4</ele><time>2026-04-05T08:23:09.103Z</time></trkpt><trkpt lat="43.5086417" lon="10.9058183"><ele>502.6</ele><time>2026-04-05T08:23:10.103Z</time></trkpt><trkpt lat="43.508555" lon="10.9058583"><ele>503.8</ele><time>2026-04-05T08:23:11.103Z</time></trkpt><trkpt lat="43.5084617" lon="10.905895"><ele>505.0</ele><time>2026-04-05T08:23:12.103Z</time></trkpt><trkpt lat="43.5083533" lon="10.9059317"><ele>505.5</ele><time>2026-04-05T08:23:13.103Z</time></trkpt><trkpt lat="43.5082367" lon="10.905975"><ele>506.0</ele><time>2026-04-05T08:23:14.102Z</time></trkpt><trkpt lat="43.508115" lon="10.9060217"><ele>506.5</ele><time>2026-04-05T08:23:15.103Z</time></trkpt><trkpt lat="43.507985" lon="10.9060667"><ele>507.0</ele><time>2026-04-05T08:23:16.103Z</time></trkpt><trkpt lat="43.5078567" lon="10.9061133"><ele>507.75</ele><time>2026-04-05T08:23:17.103Z</time></trkpt><trkpt lat="43.50773" lon="10.9061733"><ele>508.5</ele><time>2026-04-05T08:23:18.103Z</time></trkpt><trkpt lat="43.5076033" lon="10.9062483"><ele>509.25</ele><time>2026-04-05T08:23:19.103Z</time></trkpt><trkpt lat="43.5074817" lon="10.9063433"><ele>510.0</ele><time>2026-04-05T08:23:20.103Z</time></trkpt><trkpt lat="43.5073583" lon="10.9064533"><ele>510.0</ele><time>2026-04-05T08:23:21.103Z</time></trkpt><trkpt lat="43.5072417" lon="10.9065783"><ele>510.0</ele><time>2026-04-05T08:23:22.103Z</time></trkpt><trkpt lat="43.5071283" lon="10.9067133"><ele>510.0</ele><time>2026-04-05T08:23:23.103Z</time></trkpt><trkpt lat="43.5070183" lon="10.9068533"><ele>510.0</ele><time>2026-04-05T08:23:24.102Z</time></trkpt><trkpt lat="43.5069033" lon="10.9069967"><ele>513.3333333333334</ele><time>2026-04-05T08:23:25.103Z</time></trkpt><trkpt lat="43.5067817" lon="10.9071367"><ele>516.6666666666667</ele><time>2026-04-05T08:23:26.103Z</time></trkpt><trkpt lat="43.506655" lon="10.9072817"><ele>520.0</ele><time>2026-04-05T08:23:27.103Z</time></trkpt><trkpt lat="43.5065283" lon="10.90743"><ele>520.0</ele><time>2026-04-05T08:23:28.103Z</time></trkpt><trkpt lat="43.5064017" lon="10.9075767"><ele>520.0</ele><time>2026-04-05T08:23:29.103Z</time></trkpt><trkpt lat="43.5062767" lon="10.9077183"><ele>520.0</ele><time>2026-04-05T08:23:30.103Z</time></trkpt><trkpt lat="43.50615" lon="10.907855"><ele>521.3333333333334</ele><time>2026-04-05T08:23:31.103Z</time></trkpt><trkpt lat="43.506015" lon="10.9079767"><ele>522.6666666666666</ele><time>2026-04-05T08:23:32.103Z</time></trkpt><trkpt lat="43.50587" lon="10.90808"><ele>524.0</ele><time>2026-04-05T08:23:33.103Z</time></trkpt><trkpt lat="43.5057167" lon="10.908155"><ele>524.0</ele><time>2026-04-05T08:23:34.103Z</time></trkpt><trkpt lat="43.5055567" lon="10.9081967"><ele>524.0</ele><time>2026-04-05T08:23:35.103Z</time></trkpt><trkpt lat="43.5053933" lon="10.9082117"><ele>524.0</ele><time>2026-04-05T08:23:36.103Z</time></trkpt><trkpt lat="43.50523" lon="10.908205"><ele>525.3333333333333</ele><time>2026-04-05T08:23:37.103Z</time></trkpt><trkpt lat="43.505065" lon="10.908175"><ele>526.6666666666666</ele><time>2026-04-05T08:23:38.103Z</time></trkpt><trkpt lat="43.5049017" lon="10.9081467"><ele>528.0</ele><time>2026-04-05T08:23:39.103Z</time></trkpt><trkpt lat="43.504735" lon="10.9081133"><ele>530.0</ele><time>2026-04-05T08:23:40.103Z</time></trkpt><trkpt lat="43.5045683" lon="10.9080817"><ele>532.0</ele><time>2026-04-05T08:23:41.103Z</time></trkpt><trkpt lat="43.5044" lon="10.908055"><ele>534.0</ele><time>2026-04-05T08:23:42.102Z</time></trkpt><trkpt lat="43.50423" lon="10.9080317"><ele>534.0</ele><time>2026-04-05T08:23:43.103Z</time></trkpt><trkpt lat="43.50406" lon="10.9080083"><ele>534.0</ele><time>2026-04-05T08:23:44.102Z</time></trkpt><trkpt lat="43.5038917" lon="10.9079833"><ele>534.0</ele><time>2026-04-05T08:23:45.103Z</time></trkpt><trkpt lat="43.5037267" lon="10.9079583"><ele>534.6666666666666</ele><time>2026-04-05T08:23:46.103Z</time></trkpt><trkpt lat="43.5035633" lon="10.907935"><ele>535.3333333333333</ele><time>2026-04-05T08:23:47.103Z</time></trkpt><trkpt lat="43.5034" lon="10.9079017"><ele>536.0</ele><time>2026-04-05T08:23:48.103Z</time></trkpt><trkpt lat="43.5032383" lon="10.90787"><ele>536.0</ele><time>2026-04-05T08:23:49.103Z</time></trkpt><trkpt lat="43.5030783" lon="10.9078433"><ele>536.0</ele><time>2026-04-05T08:23:50.103Z</time></trkpt><trkpt lat="43.5029167" lon="10.9078167"><ele>536.0</ele><time>2026-04-05T08:23:51.103Z</time></trkpt><trkpt lat="43.5027533" lon="10.9077883"><ele>535.3333333333333</ele><time>2026-04-05T08:23:52.103Z</time></trkpt><trkpt lat="43.5025867" lon="10.9077617"><ele>534.6666666666666</ele><time>2026-04-05T08:23:53.103Z</time></trkpt><trkpt lat="43.5024217" lon="10.9077333"><ele>534.0</ele><time>2026-04-05T08:23:54.103Z</time></trkpt><trkpt lat="43.5022617" lon="10.9077067"><ele>534.0</ele><time>2026-04-05T08:23:55.103Z</time></trkpt><trkpt lat="43.5021067" lon="10.907685"><ele>534.0</ele><time>2026-04-05T08:23:56.103Z</time></trkpt><trkpt lat="43.5019517" lon="10.907675"><ele>534.0</ele><time>2026-04-05T08:23:57.103Z</time></trkpt><trkpt lat="43.501795" lon="10.9076883"><ele>535.0</ele><time>2026-04-05T08:23:58.103Z</time></trkpt><trkpt lat="43.5016383" lon="10.9077317"><ele>536.0</ele><time>2026-04-05T08:23:59.103Z</time></trkpt><trkpt lat="43.5014917" lon="10.9078067"><ele>537.0</ele><time>2026-04-05T08:24:00.103Z</time></trkpt><trkpt lat="43.5013617" lon="10.9079183"><ele>538.25</ele><time>2026-04-05T08:24:01.103Z</time></trkpt><trkpt lat="43.5012467" lon="10.908055"><ele>539.5</ele><time>2026-04-05T08:24:02.103Z</time></trkpt><trkpt lat="43.501145" lon="10.9082083"><ele>540.75</ele><time>2026-04-05T08:24:03.103Z</time></trkpt><trkpt lat="43.501055" lon="10.9083667"><ele>542.0</ele><time>2026-04-05T08:24:04.103Z</time></trkpt><trkpt lat="43.500975" lon="10.90853"><ele>542.0</ele><time>2026-04-05T08:24:05.103Z</time></trkpt><trkpt lat="43.500905" lon="10.9086867"><ele>542.0</ele><time>2026-04-05T08:24:06.103Z</time></trkpt><trkpt lat="43.5008383" lon="10.9088433"><ele>542.0</ele><time>2026-04-05T08:24:07.103Z</time></trkpt><trkpt lat="43.500785" lon="10.9089967"><ele>542.0</ele><time>2026-04-05T08:24:08.103Z</time></trkpt><trkpt lat="43.5007433" lon="10.90915"><ele>542.0</ele><time>2026-04-05T08:24:09.103Z</time></trkpt><trkpt lat="43.50071" lon="10.9093067"><ele>542.0</ele><time>2026-04-05T08:24:10.103Z</time></trkpt><trkpt lat="43.50068" lon="10.9094617"><ele>542.0</ele><time>2026-04-05T08:24:11.103Z</time></trkpt><trkpt lat="43.5006483" lon="10.90961"><ele>542.0</ele><time>2026-04-05T08:24:12.103Z</time></trkpt><trkpt lat="43.5006183" lon="10.9097467"><ele>542.0</ele><time>2026-04-05T08:24:13.103Z</time></trkpt><trkpt lat="43.5005967" lon="10.909875"><ele>542.0</ele><time>2026-04-05T08:24:14.103Z</time></trkpt><trkpt lat="43.5005767" lon="10.9099967"><ele>542.0</ele><time>2026-04-05T08:24:15.103Z</time></trkpt><trkpt lat="43.5005633" lon="10.9101167"><ele>542.0</ele><time>2026-04-05T08:24:16.102Z</time></trkpt><trkpt lat="43.500555" lon="10.9102333"><ele>542.0</ele><time>2026-04-05T08:24:17.103Z</time></trkpt><trkpt lat="43.5005533" lon="10.91035"><ele>542.0</ele><time>2026-04-05T08:24:18.103Z</time></trkpt><trkpt lat="43.5005633" lon="10.91047"><ele>542.8000000000001</ele><time>2026-04-05T08:24:19.103Z</time></trkpt><trkpt lat="43.500585" lon="10.9105967"><ele>543.6</ele><time>2026-04-05T08:24:20.103Z</time></trkpt><trkpt lat="43.5006083" lon="10.91073"><ele>544.4000000000001</ele><time>2026-04-05T08:24:21.103Z</time></trkpt><trkpt lat="43.500635" lon="10.9108767"><ele>545.2</ele><time>2026-04-05T08:24:22.103Z</time></trkpt><trkpt lat="43.5006633" lon="10.911035"><ele>546.0</ele><time>2026-04-05T08:24:23.103Z</time></trkpt><trkpt lat="43.50069" lon="10.9111983"><ele>546.0</ele><time>2026-04-05T08:24:24.103Z</time></trkpt><trkpt lat="43.5007133" lon="10.9113633"><ele>546.0</ele><time>2026-04-05T08:24:25.103Z</time></trkpt><trkpt lat="43.5007417" lon="10.911525"><ele>546.0</ele><time>2026-04-05T08:24:26.103Z</time></trkpt><trkpt lat="43.5007633" lon="10.911685"><ele>546.0</ele><time>2026-04-05T08:24:27.103Z</time></trkpt><trkpt lat="43.5007667" lon="10.9118517"><ele>544.75</ele><time>2026-04-05T08:24:28.103Z</time></trkpt><trkpt lat="43.5007533" lon="10.912015"><ele>543.5</ele><time>2026-04-05T08:24:29.103Z</time></trkpt><trkpt lat="43.5007267" lon="10.9121833"><ele>542.25</ele><time>2026-04-05T08:24:30.103Z</time></trkpt><trkpt lat="43.5006783" lon="10.9123517"><ele>541.0</ele><time>2026-04-05T08:24:31.103Z</time></trkpt><trkpt lat="43.5006267" lon="10.9125217"><ele>540.0</ele><time>2026-04-05T08:24:32.103Z</time></trkpt><trkpt lat="43.5005667" lon="10.9126917"><ele>539.0</ele><time>2026-04-05T08:24:33.103Z</time></trkpt><trkpt lat="43.5005033" lon="10.9128617"><ele>538.0</ele><time>2026-04-05T08:24:34.103Z</time></trkpt><trkpt lat="43.500435" lon="10.9130333"><ele>537.0</ele><time>2026-04-05T08:24:35.103Z</time></trkpt><trkpt lat="43.5003633" lon="10.913205"><ele>537.0</ele><time>2026-04-05T08:24:36.103Z</time></trkpt><trkpt lat="43.5002817" lon="10.9133767"><ele>537.0</ele><time>2026-04-05T08:24:37.103Z</time></trkpt><trkpt lat="43.500205" lon="10.9135367"><ele>537.0</ele><time>2026-04-05T08:24:38.103Z</time></trkpt><trkpt lat="43.5001283" lon="10.9136933"><ele>537.0</ele><time>2026-04-05T08:24:39.103Z</time></trkpt><trkpt lat="43.500055" lon="10.9138433"><ele>537.25</ele><time>2026-04-05T08:24:40.103Z</time></trkpt><trkpt lat="43.49998" lon="10.91399"><ele>537.5</ele><time>2026-04-05T08:24:41.103Z</time></trkpt><trkpt lat="43.4999183" lon="10.9141483"><ele>537.75</ele><time>2026-04-05T08:24:42.103Z</time></trkpt><trkpt lat="43.499865" lon="10.9143117"><ele>538.0</ele><time>2026-04-05T08:24:43.103Z</time></trkpt><trkpt lat="43.4998283" lon="10.9144833"><ele>538.0</ele><time>2026-04-05T08:24:44.103Z</time></trkpt><trkpt lat="43.4998117" lon="10.9146683"><ele>538.0</ele><time>2026-04-05T08:24:45.103Z</time></trkpt><trkpt lat="43.4998183" lon="10.9148633"><ele>538.0</ele><time>2026-04-05T08:24:46.103Z</time></trkpt><trkpt lat="43.4998433" lon="10.9150683"><ele>538.0</ele><time>2026-04-05T08:24:47.103Z</time></trkpt><trkpt lat="43.4998733" lon="10.9152633"><ele>537.75</ele><time>2026-04-05T08:24:48.103Z</time></trkpt><trkpt lat="43.4999" lon="10.9154633"><ele>537.5</ele><time>2026-04-05T08:24:49.103Z</time></trkpt><trkpt lat="43.4999267" lon="10.915665"><ele>537.25</ele><time>2026-04-05T08:24:50.102Z</time></trkpt><trkpt lat="43.49995" lon="10.915865"><ele>537.0</ele><time>2026-04-05T08:24:51.103Z</time></trkpt><trkpt lat="43.4999583" lon="10.9160667"><ele>536.5</ele><time>2026-04-05T08:24:52.103Z</time></trkpt><trkpt lat="43.4999467" lon="10.91627"><ele>536.0</ele><time>2026-04-05T08:24:53.103Z</time></trkpt><trkpt lat="43.4999017" lon="10.9164633"><ele>535.5</ele><time>2026-04-05T08:24:54.103Z</time></trkpt><trkpt lat="43.499825" lon="10.9166433"><ele>535.0</ele><time>2026-04-05T08:24:55.103Z</time></trkpt><trkpt lat="43.49972" lon="10.9167917"><ele>536.0</ele><time>2026-04-05T08:24:56.103Z</time></trkpt><trkpt lat="43.4995983" lon="10.916905"><ele>537.0</ele><time>2026-04-05T08:24:57.103Z</time></trkpt><trkpt lat="43.49947" lon="10.9170067"><ele>538.0</ele><time>2026-04-05T08:24:58.103Z</time></trkpt><trkpt lat="43.4993433" lon="10.9171017"><ele>539.0</ele><time>2026-04-05T08:24:59.103Z</time></trkpt><trkpt lat="43.4992167" lon="10.9171967"><ele>538.75</ele><time>2026-04-05T08:25:00.103Z</time></trkpt><trkpt lat="43.4990933" lon="10.9172933"><ele>538.5</ele><time>2026-04-05T08:25:01.103Z</time></trkpt><trkpt lat="43.49897" lon="10.9173883"><ele>538.25</ele><time>2026-04-05T08:25:02.103Z</time></trkpt><trkpt lat="43.49885" lon="10.917485"><ele>538.0</ele><time>2026-04-05T08:25:03.103Z</time></trkpt><trkpt lat="43.4987317" lon="10.9175767"><ele>538.0</ele><time>2026-04-05T08:25:04.103Z</time></trkpt><trkpt lat="43.4986067" lon="10.9176517"><ele>538.0</ele><time>2026-04-05T08:25:05.103Z</time></trkpt><trkpt lat="43.4984717" lon="10.9177033"><ele>538.0</ele><time>2026-04-05T08:25:06.103Z</time></trkpt><trkpt lat="43.4983317" lon="10.9177317"><ele>538.0</ele><time>2026-04-05T08:25:07.103Z</time></trkpt><trkpt lat="43.498195" lon="10.9177617"><ele>538.0</ele><time>2026-04-05T08:25:08.102Z</time></trkpt><trkpt lat="43.4980683" lon="10.91783"><ele>538.0</ele><time>2026-04-05T08:25:09.103Z</time></trkpt><trkpt lat="43.4979617" lon="10.917935"><ele>538.0</ele><time>2026-04-05T08:25:10.103Z</time></trkpt><trkpt lat="43.4978883" lon="10.9180883"><ele>538.0</ele><time>2026-04-05T08:25:11.103Z</time></trkpt><trkpt lat="43.4978333" lon="10.9182733"><ele>538.0</ele><time>2026-04-05T08:25:12.103Z</time></trkpt><trkpt lat="43.497785" lon="10.9184617"><ele>538.0</ele><time>2026-04-05T08:25:13.103Z</time></trkpt><trkpt lat="43.49774" lon="10.9186533"><ele>538.0</ele><time>2026-04-05T08:25:14.103Z</time></trkpt><trkpt lat="43.4976933" lon="10.9188467"><ele>538.0</ele><time>2026-04-05T08:25:15.103Z</time></trkpt><trkpt lat="43.4976367" lon="10.9190317"><ele>538.0</ele><time>2026-04-05T08:25:16.103Z</time></trkpt><trkpt lat="43.4975717" lon="10.9192183"><ele>538.0</ele><time>2026-04-05T08:25:17.103Z</time></trkpt><trkpt lat="43.4975083" lon="10.9194033"><ele>538.0</ele><time>2026-04-05T08:25:18.103Z</time></trkpt><trkpt lat="43.4974517" lon="10.9195967"><ele>536.0</ele><time>2026-04-05T08:25:19.102Z</time></trkpt><trkpt lat="43.497405" lon="10.9197983"><ele>534.0</ele><time>2026-04-05T08:25:20.103Z</time></trkpt><trkpt lat="43.4973867" lon="10.9200033"><ele>532.0</ele><time>2026-04-05T08:25:21.102Z</time></trkpt><trkpt lat="43.49739" lon="10.92021"><ele>530.75</ele><time>2026-04-05T08:25:22.103Z</time></trkpt><trkpt lat="43.497395" lon="10.9204067"><ele>529.5</ele><time>2026-04-05T08:25:23.103Z</time></trkpt><trkpt lat="43.49739" lon="10.9205867"><ele>528.25</ele><time>2026-04-05T08:25:24.102Z</time></trkpt><trkpt lat="43.49737" lon="10.920735"><ele>527.0</ele><time>2026-04-05T08:25:25.103Z</time></trkpt><trkpt lat="43.4973083" lon="10.920855"><ele>525.0</ele><time>2026-04-05T08:25:26.103Z</time></trkpt><trkpt lat="43.49723" lon="10.920955"><ele>523.0</ele><time>2026-04-05T08:25:27.103Z</time></trkpt><trkpt lat="43.4971267" lon="10.9210283"><ele>521.0</ele><time>2026-04-05T08:25:28.103Z</time></trkpt><trkpt lat="43.4970083" lon="10.9210917"><ele>519.0</ele><time>2026-04-05T08:25:29.102Z</time></trkpt><trkpt lat="43.496875" lon="10.9211417"><ele>518.75</ele><time>2026-04-05T08:25:30.103Z</time></trkpt><trkpt lat="43.4967333" lon="10.9211867"><ele>518.5</ele><time>2026-04-05T08:25:31.103Z</time></trkpt><trkpt lat="43.4966" lon="10.9212583"><ele>518.25</ele><time>2026-04-05T08:25:32.103Z</time></trkpt><trkpt lat="43.496475" lon="10.9213517"><ele>518.0</ele><time>2026-04-05T08:25:33.103Z</time></trkpt><trkpt lat="43.4963683" lon="10.92148"><ele>518.0</ele><time>2026-04-05T08:25:34.103Z</time></trkpt><trkpt lat="43.4962667" lon="10.9216433"><ele>518.0</ele><time>2026-04-05T08:25:35.103Z</time></trkpt><trkpt lat="43.49618" lon="10.92182"><ele>518.0</ele><time>2026-04-05T08:25:36.103Z</time></trkpt><trkpt lat="43.4960917" lon="10.9220017"><ele>517.6666666666666</ele><time>2026-04-05T08:25:37.103Z</time></trkpt><trkpt lat="43.4960033" lon="10.9221867"><ele>517.3333333333334</ele><time>2026-04-05T08:25:38.103Z</time></trkpt><trkpt lat="43.49591" lon="10.9223767"><ele>517.0</ele><time>2026-04-05T08:25:39.103Z</time></trkpt><trkpt lat="43.49582" lon="10.922565"><ele>517.6666666666667</ele><time>2026-04-05T08:25:40.102Z</time></trkpt><trkpt lat="43.4957217" lon="10.9227417"><ele>518.3333333333334</ele><time>2026-04-05T08:25:41.103Z</time></trkpt><trkpt lat="43.495615" lon="10.9229117"><ele>519.0</ele><time>2026-04-05T08:25:42.103Z</time></trkpt><trkpt lat="43.495495" lon="10.9230717"><ele>517.6666666666666</ele><time>2026-04-05T08:25:43.103Z</time></trkpt><trkpt lat="43.4953717" lon="10.9232217"><ele>516.3333333333333</ele><time>2026-04-05T08:25:44.103Z</time></trkpt><trkpt lat="43.4952467" lon="10.9233717"><ele>515.0</ele><time>2026-04-05T08:25:45.103Z</time></trkpt><trkpt lat="43.4951233" lon="10.9235167"><ele>515.0</ele><time>2026-04-05T08:25:46.103Z</time></trkpt><trkpt lat="43.4950033" lon="10.9236567"><ele>515.0</ele><time>2026-04-05T08:25:47.103Z</time></trkpt><trkpt lat="43.494885" lon="10.9238"><ele>515.0</ele><time>2026-04-05T08:25:48.103Z</time></trkpt><trkpt lat="43.4947717" lon="10.9239483"><ele>515.0</ele><time>2026-04-05T08:25:49.103Z</time></trkpt><trkpt lat="43.4946567" lon="10.9240983"><ele>515.0</ele><time>2026-04-05T08:25:50.103Z</time></trkpt><trkpt lat="43.494545" lon="10.9242483"><ele>515.0</ele><time>2026-04-05T08:25:51.103Z</time></trkpt><trkpt lat="43.4944317" lon="10.9243933"><ele>512.3333333333333</ele><time>2026-04-05T08:25:52.103Z</time></trkpt><trkpt lat="43.4943167" lon="10.9245317"><ele>509.66666666666663</ele><time>2026-04-05T08:25:53.103Z</time></trkpt><trkpt lat="43.49421" lon="10.9246783"><ele>507.0</ele><time>2026-04-05T08:25:54.103Z</time></trkpt><trkpt lat="43.4941067" lon="10.9248233"><ele>507.0</ele><time>2026-04-05T08:25:55.103Z</time></trkpt><trkpt lat="43.4940117" lon="10.9249833"><ele>507.0</ele><time>2026-04-05T08:25:56.102Z</time></trkpt><trkpt lat="43.4939367" lon="10.925155"><ele>507.0</ele><time>2026-04-05T08:25:57.103Z</time></trkpt><trkpt lat="43.4938983" lon="10.9253383"><ele>507.0</ele><time>2026-04-05T08:25:58.103Z</time></trkpt><trkpt lat="43.4938867" lon="10.9255367"><ele>506.0</ele><time>2026-04-05T08:25:59.103Z</time></trkpt><trkpt lat="43.493885" lon="10.925745"><ele>505.0</ele><time>2026-04-05T08:26:00.103Z</time></trkpt><trkpt lat="43.49388" lon="10.925945"><ele>504.0</ele><time>2026-04-05T08:26:01.103Z</time></trkpt><trkpt lat="43.493875" lon="10.92613"><ele>503.0</ele><time>2026-04-05T08:26:02.103Z</time></trkpt><trkpt lat="43.4938683" lon="10.9262967"><ele>502.16666666666663</ele><time>2026-04-05T08:26:03.103Z</time></trkpt><trkpt lat="43.4938633" lon="10.9264367"><ele>501.3333333333333</ele><time>2026-04-05T08:26:04.103Z</time></trkpt><trkpt lat="43.4938533" lon="10.9265483"><ele>500.5</ele><time>2026-04-05T08:26:05.103Z</time></trkpt><trkpt lat="43.49384" lon="10.9266383"><ele>499.66666666666663</ele><time>2026-04-05T08:26:06.102Z</time></trkpt><trkpt lat="43.4938167" lon="10.92673"><ele>498.8333333333333</ele><time>2026-04-05T08:26:08.103Z</time></trkpt><trkpt lat="43.49376" lon="10.9267767"><ele>498.0</ele><time>2026-04-05T08:26:13.103Z</time></trkpt><trkpt lat="43.4937083" lon="10.926835"><ele>498.0</ele><time>2026-04-05T08:26:14.103Z</time></trkpt><trkpt lat="43.4936483" lon="10.9269033"><ele>497.99999999999994</ele><time>2026-04-05T08:26:15.103Z</time></trkpt><trkpt lat="43.4935833" lon="10.9269817"><ele>497.99999999999994</ele><time>2026-04-05T08:26:16.103Z</time></trkpt><trkpt lat="43.4935083" lon="10.927085"><ele>498.0</ele><time>2026-04-05T08:26:17.103Z</time></trkpt><trkpt lat="43.4934333" lon="10.9271967"><ele>498.0</ele><time>2026-04-05T08:26:18.103Z</time></trkpt><trkpt lat="43.49336" lon="10.9273133"><ele>498.0</ele><time>2026-04-05T08:26:19.102Z</time></trkpt><trkpt lat="43.4932767" lon="10.9274317"><ele>498.0</ele><time>2026-04-05T08:26:20.103Z</time></trkpt><trkpt lat="43.49319" lon="10.927555"><ele>498.0</ele><time>2026-04-05T08:26:21.103Z</time></trkpt><trkpt lat="43.4931083" lon="10.9276917"><ele>498.0</ele><time>2026-04-05T08:26:22.103Z</time></trkpt><trkpt lat="43.4930183" lon="10.9278233"><ele>497.0</ele><time>2026-04-05T08:26:23.103Z</time></trkpt><trkpt lat="43.4929317" lon="10.92796"><ele>496.0</ele><time>2026-04-05T08:26:24.103Z</time></trkpt><trkpt lat="43.4928433" lon="10.9281"><ele>495.0</ele><time>2026-04-05T08:26:25.103Z</time></trkpt><trkpt lat="43.49275" lon="10.9282383"><ele>494.0</ele><time>2026-04-05T08:26:26.102Z</time></trkpt><trkpt lat="43.4926533" lon="10.9283667"><ele>491.5</ele><time>2026-04-05T08:26:27.103Z</time></trkpt><trkpt lat="43.4925517" lon="10.9284933"><ele>489.0</ele><time>2026-04-05T08:26:28.103Z</time></trkpt><trkpt lat="43.4924483" lon="10.9286033"><ele>486.5</ele><time>2026-04-05T08:26:29.103Z</time></trkpt><trkpt lat="43.49234" lon="10.9286933"><ele>484.0</ele><time>2026-04-05T08:26:30.103Z</time></trkpt><trkpt lat="43.4922217" lon="10.9287533"><ele>484.0</ele><time>2026-04-05T08:26:31.103Z</time></trkpt><trkpt lat="43.4921" lon="10.9287783"><ele>484.0</ele><time>2026-04-05T08:26:32.103Z</time></trkpt><trkpt lat="43.4919783" lon="10.928775"><ele>484.0</ele><time>2026-04-05T08:26:33.103Z</time></trkpt><trkpt lat="43.49186" lon="10.9287433"><ele>484.0</ele><time>2026-04-05T08:26:34.103Z</time></trkpt><trkpt lat="43.4917417" lon="10.9286867"><ele>484.5</ele><time>2026-04-05T08:26:35.103Z</time></trkpt><trkpt lat="43.4916283" lon="10.92861"><ele>485.0</ele><time>2026-04-05T08:26:36.103Z</time></trkpt><trkpt lat="43.491515" lon="10.92854"><ele>485.5</ele><time>2026-04-05T08:26:37.103Z</time></trkpt><trkpt lat="43.4913967" lon="10.9284917"><ele>486.0</ele><time>2026-04-05T08:26:38.103Z</time></trkpt><trkpt lat="43.4912733" lon="10.9284867"><ele>483.25</ele><time>2026-04-05T08:26:39.103Z</time></trkpt><trkpt lat="43.49116" lon="10.9285433"><ele>480.5</ele><time>2026-04-05T08:26:40.103Z</time></trkpt><trkpt lat="43.4910583" lon="10.9286433"><ele>477.75</ele><time>2026-04-05T08:26:41.103Z</time></trkpt><trkpt lat="43.490975" lon="10.92877"><ele>475.0</ele><time>2026-04-05T08:26:42.103Z</time></trkpt><trkpt lat="43.4909017" lon="10.92892"><ele>475.0</ele><time>2026-04-05T08:26:43.103Z</time></trkpt><trkpt lat="43.4908333" lon="10.9290733"><ele>475.0</ele><time>2026-04-05T08:26:44.102Z</time></trkpt><trkpt lat="43.4907667" lon="10.9292383"><ele>475.0</ele><time>2026-04-05T08:26:45.103Z</time></trkpt><trkpt lat="43.490695" lon="10.9294067"><ele>475.0</ele><time>2026-04-05T08:26:46.102Z</time></trkpt><trkpt lat="43.4906267" lon="10.9295817"><ele>476.25</ele><time>2026-04-05T08:26:47.102Z</time></trkpt><trkpt lat="43.49055" lon="10.9297517"><ele>477.5</ele><time>2026-04-05T08:26:48.102Z</time></trkpt><trkpt lat="43.490475" lon="10.9299233"><ele>478.75</ele><time>2026-04-05T08:26:49.103Z</time></trkpt><trkpt lat="43.4904033" lon="10.9300967"><ele>480.0</ele><time>2026-04-05T08:26:50.102Z</time></trkpt><trkpt lat="43.4903317" lon="10.9302667"><ele>475.5</ele><time>2026-04-05T08:26:51.103Z</time></trkpt><trkpt lat="43.4902617" lon="10.9304383"><ele>471.0</ele><time>2026-04-05T08:26:52.103Z</time></trkpt><trkpt lat="43.4901967" lon="10.930615"><ele>466.5</ele><time>2026-04-05T08:26:53.103Z</time></trkpt><trkpt lat="43.4901433" lon="10.930805"><ele>462.0</ele><time>2026-04-05T08:26:54.103Z</time></trkpt><trkpt lat="43.4901083" lon="10.931"><ele>461.75</ele><time>2026-04-05T08:26:55.103Z</time></trkpt><trkpt lat="43.4900783" lon="10.931185"><ele>461.5</ele><time>2026-04-05T08:26:56.103Z</time></trkpt><trkpt lat="43.4900667" lon="10.9313767"><ele>461.25</ele><time>2026-04-05T08:26:57.103Z</time></trkpt><trkpt lat="43.4900717" lon="10.9315583"><ele>461.0</ele><time>2026-04-05T08:26:58.103Z</time></trkpt><trkpt lat="43.490075" lon="10.931735"><ele>460.4</ele><time>2026-04-05T08:26:59.103Z</time></trkpt><trkpt lat="43.49008" lon="10.9319017"><ele>459.8</ele><time>2026-04-05T08:27:00.103Z</time></trkpt><trkpt lat="43.4900783" lon="10.9320567"><ele>459.19999999999993</ele><time>2026-04-05T08:27:01.103Z</time></trkpt><trkpt lat="43.4900717" lon="10.9322017"><ele>458.59999999999997</ele><time>2026-04-05T08:27:02.103Z</time></trkpt><trkpt lat="43.4900583" lon="10.9323133"><ele>458.0</ele><time>2026-04-05T08:27:03.103Z</time></trkpt><trkpt lat="43.4900383" lon="10.9324067"><ele>457.99999999999994</ele><time>2026-04-05T08:27:04.103Z</time></trkpt><trkpt lat="43.4900233" lon="10.9325"><ele>458.0</ele><time>2026-04-05T08:27:05.103Z</time></trkpt><trkpt lat="43.49002" lon="10.9326067"><ele>458.0</ele><time>2026-04-05T08:27:06.103Z</time></trkpt><trkpt lat="43.4900283" lon="10.93272"><ele>458.0</ele><time>2026-04-05T08:27:07.103Z</time></trkpt><trkpt lat="43.49004" lon="10.9328517"><ele>457.99999999999994</ele><time>2026-04-05T08:27:08.103Z</time></trkpt><trkpt lat="43.4900483" lon="10.933005"><ele>458.0</ele><time>2026-04-05T08:27:09.103Z</time></trkpt><trkpt lat="43.49005" lon="10.9331683"><ele>458.0</ele><time>2026-04-05T08:27:10.103Z</time></trkpt><trkpt lat="43.4900467" lon="10.93333"><ele>458.0</ele><time>2026-04-05T08:27:11.103Z</time></trkpt><trkpt lat="43.4900417" lon="10.9334817"><ele>458.0</ele><time>2026-04-05T08:27:12.103Z</time></trkpt><trkpt lat="43.490025" lon="10.9337417"><ele>458.0</ele><time>2026-04-05T08:27:14.103Z</time></trkpt><trkpt lat="43.4900133" lon="10.933865"><ele>458.0</ele><time>2026-04-05T08:27:15.103Z</time></trkpt><trkpt lat="43.4900033" lon="10.9339933"><ele>457.99999999999994</ele><time>2026-04-05T08:27:16.103Z</time></trkpt><trkpt lat="43.4899883" lon="10.9341283"><ele>457.99999999999994</ele><time>2026-04-05T08:27:17.103Z</time></trkpt><trkpt lat="43.4899717" lon="10.9342717"><ele>458.0</ele><time>2026-04-05T08:27:18.102Z</time></trkpt><trkpt lat="43.4899567" lon="10.934415"><ele>458.0</ele><time>2026-04-05T08:27:19.103Z</time></trkpt><trkpt lat="43.4899433" lon="10.93456"><ele>458.0</ele><time>2026-04-05T08:27:20.103Z</time></trkpt><trkpt lat="43.4899333" lon="10.9347217"><ele>458.0</ele><time>2026-04-05T08:27:21.103Z</time></trkpt><trkpt lat="43.4899167" lon="10.9348983"><ele>458.0</ele><time>2026-04-05T08:27:22.102Z</time></trkpt><trkpt lat="43.4898967" lon="10.9350733"><ele>458.0</ele><time>2026-04-05T08:27:23.103Z</time></trkpt><trkpt lat="43.4898767" lon="10.9352467"><ele>457.0</ele><time>2026-04-05T08:27:24.103Z</time></trkpt><trkpt lat="43.4898567" lon="10.9354183"><ele>456.0</ele><time>2026-04-05T08:27:25.103Z</time></trkpt><trkpt lat="43.4898383" lon="10.9355933"><ele>455.0</ele><time>2026-04-05T08:27:26.103Z</time></trkpt><trkpt lat="43.48982" lon="10.93577"><ele>454.0</ele><time>2026-04-05T08:27:27.103Z</time></trkpt><trkpt lat="43.489795" lon="10.93595"><ele>453.0</ele><time>2026-04-05T08:27:28.103Z</time></trkpt><trkpt lat="43.4897717" lon="10.93613"><ele>452.0</ele><time>2026-04-05T08:27:29.103Z</time></trkpt><trkpt lat="43.4897417" lon="10.9363117"><ele>451.0</ele><time>2026-04-05T08:27:30.103Z</time></trkpt><trkpt lat="43.48972" lon="10.9364933"><ele>450.0</ele><time>2026-04-05T08:27:31.103Z</time></trkpt><trkpt lat="43.4897017" lon="10.93667"><ele>449.75</ele><time>2026-04-05T08:27:32.103Z</time></trkpt><trkpt lat="43.4896833" lon="10.9368483"><ele>449.5</ele><time>2026-04-05T08:27:33.103Z</time></trkpt><trkpt lat="43.489665" lon="10.9370283"><ele>449.25</ele><time>2026-04-05T08:27:34.103Z</time></trkpt><trkpt lat="43.4896483" lon="10.93721"><ele>449.0</ele><time>2026-04-05T08:27:35.102Z</time></trkpt><trkpt lat="43.48963" lon="10.93739"><ele>449.0</ele><time>2026-04-05T08:27:36.103Z</time></trkpt><trkpt lat="43.48961" lon="10.9375667"><ele>449.0</ele><time>2026-04-05T08:27:37.103Z</time></trkpt><trkpt lat="43.4895917" lon="10.937745"><ele>449.0</ele><time>2026-04-05T08:27:38.103Z</time></trkpt><trkpt lat="43.4895733" lon="10.9379233"><ele>449.0</ele><time>2026-04-05T08:27:39.103Z</time></trkpt><trkpt lat="43.489555" lon="10.9381"><ele>449.0</ele><time>2026-04-05T08:27:40.103Z</time></trkpt><trkpt lat="43.4895367" lon="10.938275"><ele>449.0</ele><time>2026-04-05T08:27:41.102Z</time></trkpt><trkpt lat="43.4895183" lon="10.9384517"><ele>449.0</ele><time>2026-04-05T08:27:42.103Z</time></trkpt><trkpt lat="43.4894967" lon="10.93863"><ele>449.0</ele><time>2026-04-05T08:27:43.103Z</time></trkpt><trkpt lat="43.4894767" lon="10.9388067"><ele>450.0</ele><time>2026-04-05T08:27:44.103Z</time></trkpt><trkpt lat="43.48946" lon="10.9389867"><ele>451.0</ele><time>2026-04-05T08:27:45.103Z</time></trkpt><trkpt lat="43.4894417" lon="10.93917"><ele>452.0</ele><time>2026-04-05T08:27:46.102Z</time></trkpt><trkpt lat="43.4894233" lon="10.9393483"><ele>453.0</ele><time>2026-04-05T08:27:47.103Z</time></trkpt><trkpt lat="43.4894083" lon="10.9395267"><ele>453.5</ele><time>2026-04-05T08:27:48.103Z</time></trkpt><trkpt lat="43.4893917" lon="10.9397067"><ele>454.0</ele><time>2026-04-05T08:27:49.103Z</time></trkpt><trkpt lat="43.4893717" lon="10.9398833"><ele>454.5</ele><time>2026-04-05T08:27:50.103Z</time></trkpt><trkpt lat="43.48933" lon="10.94006"><ele>455.0</ele><time>2026-04-05T08:27:51.103Z</time></trkpt><trkpt lat="43.4892667" lon="10.9402217"><ele>453.75</ele><time>2026-04-05T08:27:52.103Z</time></trkpt><trkpt lat="43.4891833" lon="10.9403667"><ele>452.5</ele><time>2026-04-05T08:27:53.103Z</time></trkpt><trkpt lat="43.489075" lon="10.9404733"><ele>451.25</ele><time>2026-04-05T08:27:54.102Z</time></trkpt><trkpt lat="43.4889583" lon="10.940555"><ele>450.0</ele><time>2026-04-05T08:27:55.102Z</time></trkpt><trkpt lat="43.4888383" lon="10.9406267"><ele>449.75</ele><time>2026-04-05T08:27:56.103Z</time></trkpt><trkpt lat="43.4887167" lon="10.940695"><ele>449.5</ele><time>2026-04-05T08:27:57.103Z</time></trkpt><trkpt lat="43.4885883" lon="10.9407633"><ele>449.25</ele><time>2026-04-05T08:27:58.103Z</time></trkpt><trkpt lat="43.4884667" lon="10.9408333"><ele>449.0</ele><time>2026-04-05T08:27:59.103Z</time></trkpt><trkpt lat="43.488355" lon="10.940915"><ele>450.75</ele><time>2026-04-05T08:28:00.103Z</time></trkpt><trkpt lat="43.48826" lon="10.9410117"><ele>452.5</ele><time>2026-04-05T08:28:01.103Z</time></trkpt><trkpt lat="43.48819" lon="10.94114"><ele>454.25</ele><time>2026-04-05T08:28:02.103Z</time></trkpt><trkpt lat="43.48814" lon="10.9412917"><ele>456.0</ele><time>2026-04-05T08:28:03.103Z</time></trkpt><trkpt lat="43.4881067" lon="10.9414583"><ele>456.0</ele><time>2026-04-05T08:28:04.103Z</time></trkpt><trkpt lat="43.4880683" lon="10.9416317"><ele>456.0</ele><time>2026-04-05T08:28:05.103Z</time></trkpt><trkpt lat="43.4880333" lon="10.9418117"><ele>456.0</ele><time>2026-04-05T08:28:06.103Z</time></trkpt><trkpt lat="43.48799" lon="10.9419983"><ele>456.0</ele><time>2026-04-05T08:28:07.102Z</time></trkpt><trkpt lat="43.4879333" lon="10.9421783"><ele>456.75</ele><time>2026-04-05T08:28:08.103Z</time></trkpt><trkpt lat="43.487865" lon="10.9423517"><ele>457.5</ele><time>2026-04-05T08:28:09.103Z</time></trkpt><trkpt lat="43.4877817" lon="10.9425133"><ele>458.25</ele><time>2026-04-05T08:28:10.103Z</time></trkpt><trkpt lat="43.48768" lon="10.9426633"><ele>459.0</ele><time>2026-04-05T08:28:11.103Z</time></trkpt><trkpt lat="43.4875733" lon="10.942795"><ele>459.0</ele><time>2026-04-05T08:28:12.103Z</time></trkpt><trkpt lat="43.4874717" lon="10.942925"><ele>459.0</ele><time>2026-04-05T08:28:13.103Z</time></trkpt><trkpt lat="43.4873667" lon="10.9430567"><ele>459.0</ele><time>2026-04-05T08:28:14.103Z</time></trkpt><trkpt lat="43.487265" lon="10.943185"><ele>459.0</ele><time>2026-04-05T08:28:15.103Z</time></trkpt><trkpt lat="43.48717" lon="10.9433217"><ele>455.0</ele><time>2026-04-05T08:28:16.102Z</time></trkpt><trkpt lat="43.4870867" lon="10.9434633"><ele>451.0</ele><time>2026-04-05T08:28:17.103Z</time></trkpt><trkpt lat="43.4870233" lon="10.9436233"><ele>447.0</ele><time>2026-04-05T08:28:18.103Z</time></trkpt><trkpt lat="43.4869717" lon="10.9437933"><ele>443.0</ele><time>2026-04-05T08:28:19.103Z</time></trkpt><trkpt lat="43.486925" lon="10.9439633"><ele>443.0</ele><time>2026-04-05T08:28:20.102Z</time></trkpt><trkpt lat="43.4868783" lon="10.9441317"><ele>443.0</ele><time>2026-04-05T08:28:21.103Z</time></trkpt><trkpt lat="43.4868367" lon="10.9443017"><ele>443.0</ele><time>2026-04-05T08:28:22.103Z</time></trkpt><trkpt lat="43.486795" lon="10.944475"><ele>443.0</ele><time>2026-04-05T08:28:23.102Z</time></trkpt><trkpt lat="43.4867533" lon="10.94465"><ele>443.0</ele><time>2026-04-05T08:28:24.103Z</time></trkpt><trkpt lat="43.4867067" lon="10.944825"><ele>443.0</ele><time>2026-04-05T08:28:25.103Z</time></trkpt><trkpt lat="43.4866517" lon="10.9450017"><ele>443.0</ele><time>2026-04-05T08:28:26.102Z</time></trkpt><trkpt lat="43.4865883" lon="10.9451767"><ele>443.0</ele><time>2026-04-05T08:28:27.103Z</time></trkpt><trkpt lat="43.48651" lon="10.9453383"><ele>443.0</ele><time>2026-04-05T08:28:28.103Z</time></trkpt><trkpt lat="43.48642" lon="10.94549"><ele>443.0</ele><time>2026-04-05T08:28:29.103Z</time></trkpt><trkpt lat="43.4863233" lon="10.945635"><ele>443.0</ele><time>2026-04-05T08:28:30.103Z</time></trkpt><trkpt lat="43.486225" lon="10.9457767"><ele>443.0</ele><time>2026-04-05T08:28:31.103Z</time></trkpt><trkpt lat="43.4861283" lon="10.9459183"><ele>443.0</ele><time>2026-04-05T08:28:32.103Z</time></trkpt><trkpt lat="43.4860317" lon="10.9460617"><ele>443.0</ele><time>2026-04-05T08:28:33.103Z</time></trkpt><trkpt lat="43.48594" lon="10.9462133"><ele>443.0</ele><time>2026-04-05T08:28:34.103Z</time></trkpt><trkpt lat="43.485865" lon="10.9463717"><ele>443.0</ele><time>2026-04-05T08:28:35.103Z</time></trkpt><trkpt lat="43.4858067" lon="10.9465383"><ele>443.25</ele><time>2026-04-05T08:28:36.103Z</time></trkpt><trkpt lat="43.4857517" lon="10.946715"><ele>443.5</ele><time>2026-04-05T08:28:37.103Z</time></trkpt><trkpt lat="43.485705" lon="10.9468983"><ele>443.75</ele><time>2026-04-05T08:28:38.103Z</time></trkpt><trkpt lat="43.4856567" lon="10.9470867"><ele>444.0</ele><time>2026-04-05T08:28:39.103Z</time></trkpt><trkpt lat="43.4856067" lon="10.9472783"><ele>444.0</ele><time>2026-04-05T08:28:40.103Z</time></trkpt><trkpt lat="43.4855583" lon="10.9474717"><ele>444.0</ele><time>2026-04-05T08:28:41.103Z</time></trkpt><trkpt lat="43.4855083" lon="10.94767"><ele>444.0</ele><time>2026-04-05T08:28:42.103Z</time></trkpt><trkpt lat="43.4854533" lon="10.947865"><ele>442.5</ele><time>2026-04-05T08:28:43.102Z</time></trkpt><trkpt lat="43.485405" lon="10.9480583"><ele>441.0</ele><time>2026-04-05T08:28:44.103Z</time></trkpt><trkpt lat="43.48536" lon="10.94825"><ele>439.5</ele><time>2026-04-05T08:28:45.103Z</time></trkpt><trkpt lat="43.48533" lon="10.9484483"><ele>438.0</ele><time>2026-04-05T08:28:46.103Z</time></trkpt><trkpt lat="43.4853117" lon="10.9486517"><ele>438.0</ele><time>2026-04-05T08:28:47.103Z</time></trkpt><trkpt lat="43.485305" lon="10.94885"><ele>438.0</ele><time>2026-04-05T08:28:48.103Z</time></trkpt><trkpt lat="43.4853183" lon="10.9490467"><ele>438.0</ele><time>2026-04-05T08:28:49.103Z</time></trkpt><trkpt lat="43.4853233" lon="10.9492367"><ele>438.0</ele><time>2026-04-05T08:28:50.103Z</time></trkpt><trkpt lat="43.4853317" lon="10.949425"><ele>440.0</ele><time>2026-04-05T08:28:51.103Z</time></trkpt><trkpt lat="43.4853433" lon="10.9496133"><ele>442.0</ele><time>2026-04-05T08:28:52.103Z</time></trkpt><trkpt lat="43.4853433" lon="10.9498067"><ele>444.0</ele><time>2026-04-05T08:28:53.102Z</time></trkpt><trkpt lat="43.4853183" lon="10.94999"><ele>446.0</ele><time>2026-04-05T08:28:54.103Z</time></trkpt><trkpt lat="43.485255" lon="10.95015"><ele>449.75</ele><time>2026-04-05T08:28:55.103Z</time></trkpt><trkpt lat="43.48516" lon="10.950275"><ele>453.5</ele><time>2026-04-05T08:28:56.103Z</time></trkpt><trkpt lat="43.48506" lon="10.9503517"><ele>457.25</ele><time>2026-04-05T08:28:57.103Z</time></trkpt><trkpt lat="43.484965" lon="10.950405"><ele>461.0</ele><time>2026-04-05T08:28:58.103Z</time></trkpt><trkpt lat="43.4848767" lon="10.9504767"><ele>461.0</ele><time>2026-04-05T08:28:59.103Z</time></trkpt><trkpt lat="43.484825" lon="10.9505783"><ele>461.0</ele><time>2026-04-05T08:29:00.103Z</time></trkpt><trkpt lat="43.484805" lon="10.95071"><ele>461.0</ele><time>2026-04-05T08:29:01.103Z</time></trkpt><trkpt lat="43.484795" lon="10.9508517"><ele>461.0</ele><time>2026-04-05T08:29:02.103Z</time></trkpt><trkpt lat="43.484805" lon="10.951005"><ele>461.0</ele><time>2026-04-05T08:29:03.103Z</time></trkpt><trkpt lat="43.48482" lon="10.9511583"><ele>461.0</ele><time>2026-04-05T08:29:04.103Z</time></trkpt><trkpt lat="43.4848267" lon="10.9513117"><ele>461.0</ele><time>2026-04-05T08:29:05.103Z</time></trkpt><trkpt lat="43.484825" lon="10.9514567"><ele>461.0</ele><time>2026-04-05T08:29:06.103Z</time></trkpt><trkpt lat="43.4848067" lon="10.9516017"><ele>461.0</ele><time>2026-04-05T08:29:07.103Z</time></trkpt><trkpt lat="43.4847683" lon="10.95175"><ele>461.0</ele><time>2026-04-05T08:29:08.103Z</time></trkpt><trkpt lat="43.484715" lon="10.9519017"><ele>461.0</ele><time>2026-04-05T08:29:09.103Z</time></trkpt><trkpt lat="43.4846517" lon="10.9520483"><ele>461.0</ele><time>2026-04-05T08:29:10.103Z</time></trkpt><trkpt lat="43.4845883" lon="10.952205"><ele>461.0</ele><time>2026-04-05T08:29:11.103Z</time></trkpt><trkpt lat="43.48452" lon="10.9523567"><ele>461.0</ele><time>2026-04-05T08:29:12.103Z</time></trkpt><trkpt lat="43.4844467" lon="10.9525017"><ele>462.75</ele><time>2026-04-05T08:29:13.103Z</time></trkpt><trkpt lat="43.4843567" lon="10.952625"><ele>464.5</ele><time>2026-04-05T08:29:14.103Z</time></trkpt><trkpt lat="43.4842567" lon="10.95272"><ele>466.25</ele><time>2026-04-05T08:29:15.103Z</time></trkpt><trkpt lat="43.484155" lon="10.9527933"><ele>468.0</ele><time>2026-04-05T08:29:16.103Z</time></trkpt><trkpt lat="43.4840317" lon="10.9528183"><ele>468.0</ele><time>2026-04-05T08:29:17.103Z</time></trkpt><trkpt lat="43.4838983" lon="10.9528317"><ele>468.0</ele><time>2026-04-05T08:29:18.103Z</time></trkpt><trkpt lat="43.4837617" lon="10.952845"><ele>468.0</ele><time>2026-04-05T08:29:19.103Z</time></trkpt><trkpt lat="43.4836167" lon="10.9528483"><ele>468.0</ele><time>2026-04-05T08:29:20.103Z</time></trkpt><trkpt lat="43.4834667" lon="10.9528533"><ele>467.5</ele><time>2026-04-05T08:29:21.103Z</time></trkpt><trkpt lat="43.4833367" lon="10.952845"><ele>467.0</ele><time>2026-04-05T08:29:22.103Z</time></trkpt><trkpt lat="43.4831967" lon="10.9528567"><ele>466.5</ele><time>2026-04-05T08:29:23.103Z</time></trkpt><trkpt lat="43.4830517" lon="10.9528617"><ele>466.0</ele><time>2026-04-05T08:29:24.103Z</time></trkpt><trkpt lat="43.4829083" lon="10.95287"><ele>467.75</ele><time>2026-04-05T08:29:25.103Z</time></trkpt><trkpt lat="43.4827667" lon="10.9528833"><ele>469.5</ele><time>2026-04-05T08:29:26.103Z</time></trkpt><trkpt lat="43.48261" lon="10.952885"><ele>471.25</ele><time>2026-04-05T08:29:27.103Z</time></trkpt><trkpt lat="43.482465" lon="10.9528833"><ele>473.0</ele><time>2026-04-05T08:29:28.103Z</time></trkpt><trkpt lat="43.4823267" lon="10.9528633"><ele>473.0</ele><time>2026-04-05T08:29:29.103Z</time></trkpt><trkpt lat="43.4821983" lon="10.9528083"><ele>473.0</ele><time>2026-04-05T08:29:30.103Z</time></trkpt><trkpt lat="43.4820833" lon="10.9527317"><ele>473.0</ele><time>2026-04-05T08:29:31.102Z</time></trkpt><trkpt lat="43.48197" lon="10.95266"><ele>473.0</ele><time>2026-04-05T08:29:32.103Z</time></trkpt><trkpt lat="43.4818567" lon="10.952625"><ele>472.0</ele><time>2026-04-05T08:29:33.103Z</time></trkpt><trkpt lat="43.4817533" lon="10.9526533"><ele>471.0</ele><time>2026-04-05T08:29:34.103Z</time></trkpt><trkpt lat="43.4816517" lon="10.952725"><ele>470.0</ele><time>2026-04-05T08:29:35.103Z</time></trkpt><trkpt lat="43.48156" lon="10.9528267"><ele>469.0</ele><time>2026-04-05T08:29:36.102Z</time></trkpt><trkpt lat="43.48147" lon="10.9529433"><ele>469.0</ele><time>2026-04-05T08:29:37.103Z</time></trkpt><trkpt lat="43.48138" lon="10.9530583"><ele>469.0</ele><time>2026-04-05T08:29:38.103Z</time></trkpt><trkpt lat="43.481285" lon="10.9531667"><ele>469.0</ele><time>2026-04-05T08:29:39.103Z</time></trkpt><trkpt lat="43.4811833" lon="10.9532683"><ele>469.0</ele><time>2026-04-05T08:29:40.103Z</time></trkpt><trkpt lat="43.4810867" lon="10.9533567"><ele>469.0</ele><time>2026-04-05T08:29:41.103Z</time></trkpt><trkpt lat="43.4809817" lon="10.9534383"><ele>469.0</ele><time>2026-04-05T08:29:42.103Z</time></trkpt><trkpt lat="43.4808833" lon="10.9535233"><ele>469.0</ele><time>2026-04-05T08:29:43.102Z</time></trkpt><trkpt lat="43.48079" lon="10.9536283"><ele>469.0</ele><time>2026-04-05T08:29:44.103Z</time></trkpt><trkpt lat="43.480725" lon="10.9537683"><ele>469.0</ele><time>2026-04-05T08:29:45.103Z</time></trkpt><trkpt lat="43.4806817" lon="10.9539233"><ele>469.0</ele><time>2026-04-05T08:29:46.103Z</time></trkpt><trkpt lat="43.4806617" lon="10.9540917"><ele>469.0</ele><time>2026-04-05T08:29:47.103Z</time></trkpt><trkpt lat="43.4806483" lon="10.9542683"><ele>469.0</ele><time>2026-04-05T08:29:48.103Z</time></trkpt><trkpt lat="43.4806383" lon="10.9544467"><ele>468.75</ele><time>2026-04-05T08:29:49.103Z</time></trkpt><trkpt lat="43.4806317" lon="10.9546333"><ele>468.5</ele><time>2026-04-05T08:29:50.103Z</time></trkpt><trkpt lat="43.4806283" lon="10.95483"><ele>468.25</ele><time>2026-04-05T08:29:51.103Z</time></trkpt><trkpt lat="43.480625" lon="10.9550283"><ele>468.0</ele><time>2026-04-05T08:29:52.103Z</time></trkpt><trkpt lat="43.480625" lon="10.9552233"><ele>466.75</ele><time>2026-04-05T08:29:53.103Z</time></trkpt><trkpt lat="43.48062" lon="10.9554167"><ele>465.5</ele><time>2026-04-05T08:29:54.103Z</time></trkpt><trkpt lat="43.480615" lon="10.955615"><ele>464.25</ele><time>2026-04-05T08:29:55.103Z</time></trkpt><trkpt lat="43.480605" lon="10.9558133"><ele>463.0</ele><time>2026-04-05T08:29:56.103Z</time></trkpt><trkpt lat="43.4806033" lon="10.95601"><ele>462.5</ele><time>2026-04-05T08:29:57.103Z</time></trkpt><trkpt lat="43.48061" lon="10.95621"><ele>462.0</ele><time>2026-04-05T08:29:58.103Z</time></trkpt><trkpt lat="43.4806283" lon="10.9564117"><ele>461.5</ele><time>2026-04-05T08:29:59.103Z</time></trkpt><trkpt lat="43.4806533" lon="10.9566217"><ele>461.0</ele><time>2026-04-05T08:30:00.103Z</time></trkpt><trkpt lat="43.480685" lon="10.9568367"><ele>459.0</ele><time>2026-04-05T08:30:01.103Z</time></trkpt><trkpt lat="43.4807167" lon="10.957055"><ele>457.0</ele><time>2026-04-05T08:30:02.103Z</time></trkpt><trkpt lat="43.48075" lon="10.95728"><ele>455.0</ele><time>2026-04-05T08:30:03.103Z</time></trkpt><trkpt lat="43.480785" lon="10.9575083"><ele>454.0</ele><time>2026-04-05T08:30:04.103Z</time></trkpt><trkpt lat="43.4808167" lon="10.9577333"><ele>453.0</ele><time>2026-04-05T08:30:05.103Z</time></trkpt><trkpt lat="43.4808517" lon="10.9579617"><ele>452.0</ele><time>2026-04-05T08:30:06.103Z</time></trkpt><trkpt lat="43.4808883" lon="10.95819"><ele>452.3333333333333</ele><time>2026-04-05T08:30:07.103Z</time></trkpt><trkpt lat="43.480925" lon="10.9584167"><ele>452.66666666666663</ele><time>2026-04-05T08:30:08.103Z</time></trkpt><trkpt lat="43.4809633" lon="10.958645"><ele>453.0</ele><time>2026-04-05T08:30:09.103Z</time></trkpt><trkpt lat="43.481005" lon="10.9588683"><ele>453.0</ele><time>2026-04-05T08:30:10.103Z</time></trkpt><trkpt lat="43.481055" lon="10.9590867"><ele>453.0</ele><time>2026-04-05T08:30:11.103Z</time></trkpt><trkpt lat="43.4811033" lon="10.9593"><ele>453.0</ele><time>2026-04-05T08:30:12.103Z</time></trkpt><trkpt lat="43.4811533" lon="10.95951"><ele>452.66666666666663</ele><time>2026-04-05T08:30:13.103Z</time></trkpt><trkpt lat="43.4812067" lon="10.9597233"><ele>452.3333333333333</ele><time>2026-04-05T08:30:14.102Z</time></trkpt><trkpt lat="43.4812633" lon="10.9599383"><ele>452.0</ele><time>2026-04-05T08:30:15.103Z</time></trkpt><trkpt lat="43.4813267" lon="10.96015"><ele>453.0</ele><time>2026-04-05T08:30:16.103Z</time></trkpt><trkpt lat="43.4814017" lon="10.96035"><ele>454.0</ele><time>2026-04-05T08:30:17.103Z</time></trkpt><trkpt lat="43.4814917" lon="10.9605367"><ele>455.0</ele><time>2026-04-05T08:30:18.103Z</time></trkpt><trkpt lat="43.4816" lon="10.9606983"><ele>455.0</ele><time>2026-04-05T08:30:19.103Z</time></trkpt><trkpt lat="43.4817217" lon="10.9608467"><ele>455.0</ele><time>2026-04-05T08:30:20.103Z</time></trkpt><trkpt lat="43.48185" lon="10.9609817"><ele>455.0</ele><time>2026-04-05T08:30:21.103Z</time></trkpt><trkpt lat="43.4819833" lon="10.9611083"><ele>455.66666666666663</ele><time>2026-04-05T08:30:22.103Z</time></trkpt><trkpt lat="43.4821133" lon="10.9612433"><ele>456.33333333333337</ele><time>2026-04-05T08:30:23.103Z</time></trkpt><trkpt lat="43.48224" lon="10.9613833"><ele>457.0</ele><time>2026-04-05T08:30:24.103Z</time></trkpt><trkpt lat="43.4823583" lon="10.9615283"><ele>457.0</ele><time>2026-04-05T08:30:25.103Z</time></trkpt><trkpt lat="43.4824733" lon="10.96167"><ele>457.0</ele><time>2026-04-05T08:30:26.102Z</time></trkpt><trkpt lat="43.4825883" lon="10.9618133"><ele>457.0</ele><time>2026-04-05T08:30:27.102Z</time></trkpt><trkpt lat="43.4827067" lon="10.96195"><ele>456.33333333333337</ele><time>2026-04-05T08:30:28.103Z</time></trkpt><trkpt lat="43.4828267" lon="10.9620867"><ele>455.66666666666663</ele><time>2026-04-05T08:30:29.103Z</time></trkpt><trkpt lat="43.4829417" lon="10.96223"><ele>455.0</ele><time>2026-04-05T08:30:30.102Z</time></trkpt><trkpt lat="43.483055" lon="10.9623767"><ele>453.66666666666663</ele><time>2026-04-05T08:30:31.103Z</time></trkpt><trkpt lat="43.48317" lon="10.9625183"><ele>452.33333333333337</ele><time>2026-04-05T08:30:32.103Z</time></trkpt><trkpt lat="43.483285" lon="10.96266"><ele>451.0</ele><time>2026-04-05T08:30:33.102Z</time></trkpt><trkpt lat="43.4834017" lon="10.9628"><ele>449.0</ele><time>2026-04-05T08:30:34.103Z</time></trkpt><trkpt lat="43.483515" lon="10.96294"><ele>447.0</ele><time>2026-04-05T08:30:35.102Z</time></trkpt><trkpt lat="43.4836283" lon="10.96308"><ele>445.0</ele><time>2026-04-05T08:30:36.102Z</time></trkpt><trkpt lat="43.48374" lon="10.9632283"><ele>444.0</ele><time>2026-04-05T08:30:37.103Z</time></trkpt><trkpt lat="43.4838417" lon="10.9633933"><ele>443.0</ele><time>2026-04-05T08:30:38.103Z</time></trkpt><trkpt lat="43.483935" lon="10.96357"><ele>442.0</ele><time>2026-04-05T08:30:39.103Z</time></trkpt><trkpt lat="43.48403" lon="10.9637517"><ele>442.0</ele><time>2026-04-05T08:30:40.103Z</time></trkpt><trkpt lat="43.4841217" lon="10.9639317"><ele>442.0</ele><time>2026-04-05T08:30:41.103Z</time></trkpt><trkpt lat="43.48421" lon="10.9641133"><ele>442.0</ele><time>2026-04-05T08:30:42.103Z</time></trkpt><trkpt lat="43.4842983" lon="10.964295"><ele>440.33333333333337</ele><time>2026-04-05T08:30:43.103Z</time></trkpt><trkpt lat="43.4843883" lon="10.964475"><ele>438.66666666666663</ele><time>2026-04-05T08:30:44.103Z</time></trkpt><trkpt lat="43.48448" lon="10.964655"><ele>437.0</ele><time>2026-04-05T08:30:45.103Z</time></trkpt><trkpt lat="43.4845683" lon="10.9648367"><ele>437.3333333333333</ele><time>2026-04-05T08:30:46.103Z</time></trkpt><trkpt lat="43.4846533" lon="10.965015"><ele>437.66666666666663</ele><time>2026-04-05T08:30:47.103Z</time></trkpt><trkpt lat="43.4847433" lon="10.9651883"><ele>438.0</ele><time>2026-04-05T08:30:48.102Z</time></trkpt><trkpt lat="43.4848283" lon="10.9653633"><ele>436.75</ele><time>2026-04-05T08:30:49.103Z</time></trkpt><trkpt lat="43.4849033" lon="10.96554"><ele>435.5</ele><time>2026-04-05T08:30:50.103Z</time></trkpt><trkpt lat="43.4849583" lon="10.9657283"><ele>434.25</ele><time>2026-04-05T08:30:51.103Z</time></trkpt><trkpt lat="43.4849833" lon="10.9659283"><ele>433.0</ele><time>2026-04-05T08:30:52.103Z</time></trkpt><trkpt lat="43.484985" lon="10.966125"><ele>431.5</ele><time>2026-04-05T08:30:53.103Z</time></trkpt><trkpt lat="43.4849617" lon="10.9663183"><ele>430.0</ele><time>2026-04-05T08:30:54.103Z</time></trkpt><trkpt lat="43.4849317" lon="10.96651"><ele>428.5</ele><time>2026-04-05T08:30:55.103Z</time></trkpt><trkpt lat="43.4848917" lon="10.966705"><ele>427.0</ele><time>2026-04-05T08:30:56.103Z</time></trkpt><trkpt lat="43.4848483" lon="10.9669"><ele>426.25</ele><time>2026-04-05T08:30:57.103Z</time></trkpt><trkpt lat="43.4848067" lon="10.9670967"><ele>425.5</ele><time>2026-04-05T08:30:58.103Z</time></trkpt><trkpt lat="43.4847767" lon="10.96729"><ele>424.75</ele><time>2026-04-05T08:30:59.103Z</time></trkpt><trkpt lat="43.4847617" lon="10.9674883"><ele>424.0</ele><time>2026-04-05T08:31:00.103Z</time></trkpt><trkpt lat="43.4847617" lon="10.9676883"><ele>423.33333333333337</ele><time>2026-04-05T08:31:01.103Z</time></trkpt><trkpt lat="43.4847783" lon="10.96789"><ele>422.66666666666663</ele><time>2026-04-05T08:31:02.103Z</time></trkpt><trkpt lat="43.484815" lon="10.96809"><ele>422.0</ele><time>2026-04-05T08:31:03.103Z</time></trkpt><trkpt lat="43.484865" lon="10.9682917"><ele>421.66666666666663</ele><time>2026-04-05T08:31:04.103Z</time></trkpt><trkpt lat="43.4849183" lon="10.9685"><ele>421.33333333333337</ele><time>2026-04-05T08:31:05.103Z</time></trkpt><trkpt lat="43.484975" lon="10.9687067"><ele>421.0</ele><time>2026-04-05T08:31:06.103Z</time></trkpt><trkpt lat="43.4850317" lon="10.9689183"><ele>421.0</ele><time>2026-04-05T08:31:07.103Z</time></trkpt><trkpt lat="43.4850917" lon="10.9691317"><ele>421.0</ele><time>2026-04-05T08:31:08.103Z</time></trkpt><trkpt lat="43.485145" lon="10.9693433"><ele>421.0</ele><time>2026-04-05T08:31:09.103Z</time></trkpt><trkpt lat="43.4851983" lon="10.9695533"><ele>420.33333333333337</ele><time>2026-04-05T08:31:10.103Z</time></trkpt><trkpt lat="43.4852533" lon="10.9697617"><ele>419.66666666666663</ele><time>2026-04-05T08:31:11.103Z</time></trkpt><trkpt lat="43.4853117" lon="10.9699733"><ele>419.0</ele><time>2026-04-05T08:31:12.103Z</time></trkpt><trkpt lat="43.4853733" lon="10.970185"><ele>420.66666666666663</ele><time>2026-04-05T08:31:13.103Z</time></trkpt><trkpt lat="43.4854367" lon="10.970395"><ele>422.33333333333337</ele><time>2026-04-05T08:31:14.103Z</time></trkpt><trkpt lat="43.485505" lon="10.970605"><ele>424.0</ele><time>2026-04-05T08:31:15.103Z</time></trkpt><trkpt lat="43.4855767" lon="10.970815"><ele>422.0</ele><time>2026-04-05T08:31:16.103Z</time></trkpt><trkpt lat="43.485645" lon="10.9710267"><ele>420.0</ele><time>2026-04-05T08:31:17.103Z</time></trkpt><trkpt lat="43.48571" lon="10.971245"><ele>418.0</ele><time>2026-04-05T08:31:18.103Z</time></trkpt><trkpt lat="43.48578" lon="10.9714567"><ele>418.0</ele><time>2026-04-05T08:31:19.103Z</time></trkpt><trkpt lat="43.48585" lon="10.9716683"><ele>418.0</ele><time>2026-04-05T08:31:20.103Z</time></trkpt><trkpt lat="43.4859167" lon="10.9718833"><ele>418.0</ele><time>2026-04-05T08:31:21.103Z</time></trkpt><trkpt lat="43.485985" lon="10.9720983"><ele>417.0</ele><time>2026-04-05T08:31:22.103Z</time></trkpt><trkpt lat="43.4860533" lon="10.9723083"><ele>416.0</ele><time>2026-04-05T08:31:23.103Z</time></trkpt><trkpt lat="43.4861183" lon="10.972515"><ele>415.0</ele><time>2026-04-05T08:31:24.103Z</time></trkpt><trkpt lat="43.4861917" lon="10.97271"><ele>415.0</ele><time>2026-04-05T08:31:25.103Z</time></trkpt><trkpt lat="43.4862533" lon="10.9729067"><ele>415.0</ele><time>2026-04-05T08:31:26.103Z</time></trkpt><trkpt lat="43.4862967" lon="10.9731067"><ele>415.0</ele><time>2026-04-05T08:31:27.103Z</time></trkpt><trkpt lat="43.4863233" lon="10.97332"><ele>418.33333333333337</ele><time>2026-04-05T08:31:28.103Z</time></trkpt><trkpt lat="43.4863267" lon="10.97354"><ele>421.66666666666663</ele><time>2026-04-05T08:31:29.103Z</time></trkpt><trkpt lat="43.4863117" lon="10.9737567"><ele>425.0</ele><time>2026-04-05T08:31:30.103Z</time></trkpt><trkpt lat="43.486285" lon="10.9739767"><ele>425.3333333333333</ele><time>2026-04-05T08:31:31.103Z</time></trkpt><trkpt lat="43.486255" lon="10.9741867"><ele>425.66666666666663</ele><time>2026-04-05T08:31:32.103Z</time></trkpt><trkpt lat="43.4862267" lon="10.9744017"><ele>426.0</ele><time>2026-04-05T08:31:33.103Z</time></trkpt><trkpt lat="43.4862" lon="10.9746167"><ele>427.33333333333337</ele><time>2026-04-05T08:31:34.103Z</time></trkpt><trkpt lat="43.48618" lon="10.9748383"><ele>428.6666666666667</ele><time>2026-04-05T08:31:35.103Z</time></trkpt><trkpt lat="43.4861717" lon="10.975075"><ele>430.0</ele><time>2026-04-05T08:31:36.103Z</time></trkpt><trkpt lat="43.4861883" lon="10.97531"><ele>430.33333333333337</ele><time>2026-04-05T08:31:37.103Z</time></trkpt><trkpt lat="43.4862233" lon="10.9755367"><ele>430.66666666666663</ele><time>2026-04-05T08:31:38.103Z</time></trkpt><trkpt lat="43.4862683" lon="10.975755"><ele>431.0</ele><time>2026-04-05T08:31:39.103Z</time></trkpt><trkpt lat="43.4863167" lon="10.9759717"><ele>437.3333333333333</ele><time>2026-04-05T08:31:40.103Z</time></trkpt><trkpt lat="43.4863633" lon="10.976185"><ele>443.66666666666663</ele><time>2026-04-05T08:31:41.103Z</time></trkpt><trkpt lat="43.4864083" lon="10.9763917"><ele>450.0</ele><time>2026-04-05T08:31:42.103Z</time></trkpt><trkpt lat="43.4864567" lon="10.9765933"><ele>448.25</ele><time>2026-04-05T08:31:43.103Z</time></trkpt><trkpt lat="43.48652" lon="10.9767817"><ele>446.5</ele><time>2026-04-05T08:31:44.103Z</time></trkpt><trkpt lat="43.486595" lon="10.9769583"><ele>444.75</ele><time>2026-04-05T08:31:45.103Z</time></trkpt><trkpt lat="43.486675" lon="10.9771283"><ele>443.0</ele><time>2026-04-05T08:31:46.103Z</time></trkpt><trkpt lat="43.486755" lon="10.9772967"><ele>443.0</ele><time>2026-04-05T08:31:47.102Z</time></trkpt><trkpt lat="43.4868317" lon="10.977465"><ele>443.0</ele><time>2026-04-05T08:31:48.103Z</time></trkpt><trkpt lat="43.486915" lon="10.9776333"><ele>443.0</ele><time>2026-04-05T08:31:49.103Z</time></trkpt><trkpt lat="43.486995" lon="10.9777983"><ele>443.0</ele><time>2026-04-05T08:31:50.103Z</time></trkpt><trkpt lat="43.4870733" lon="10.9779617"><ele>442.75</ele><time>2026-04-05T08:31:51.103Z</time></trkpt><trkpt lat="43.48713" lon="10.9781333"><ele>442.5</ele><time>2026-04-05T08:31:52.103Z</time></trkpt><trkpt lat="43.4871583" lon="10.9783233"><ele>442.25</ele><time>2026-04-05T08:31:53.103Z</time></trkpt><trkpt lat="43.4871617" lon="10.9785083"><ele>442.0</ele><time>2026-04-05T08:31:54.103Z</time></trkpt><trkpt lat="43.4871167" lon="10.9786967"><ele>443.6666666666667</ele><time>2026-04-05T08:31:55.102Z</time></trkpt><trkpt lat="43.487055" lon="10.9788783"><ele>445.33333333333337</ele><time>2026-04-05T08:31:56.103Z</time></trkpt><trkpt lat="43.4869783" lon="10.9790567"><ele>447.0</ele><time>2026-04-05T08:31:57.103Z</time></trkpt><trkpt lat="43.4868983" lon="10.9792417"><ele>448.33333333333337</ele><time>2026-04-05T08:31:58.103Z</time></trkpt><trkpt lat="43.48682" lon="10.9794233"><ele>449.6666666666667</ele><time>2026-04-05T08:31:59.103Z</time></trkpt><trkpt lat="43.4867467" lon="10.97961"><ele>451.0</ele><time>2026-04-05T08:32:00.103Z</time></trkpt><trkpt lat="43.4866867" lon="10.979805"><ele>451.0</ele><time>2026-04-05T08:32:01.103Z</time></trkpt><trkpt lat="43.4866433" lon="10.9800067"><ele>451.0</ele><time>2026-04-05T08:32:02.102Z</time></trkpt><trkpt lat="43.4866183" lon="10.980215"><ele>451.0</ele><time>2026-04-05T08:32:03.103Z</time></trkpt><trkpt lat="43.4866383" lon="10.9804283"><ele>451.6666666666667</ele><time>2026-04-05T08:32:04.103Z</time></trkpt><trkpt lat="43.4866717" lon="10.98064"><ele>452.33333333333337</ele><time>2026-04-05T08:32:05.103Z</time></trkpt><trkpt lat="43.4867183" lon="10.9808483"><ele>453.0</ele><time>2026-04-05T08:32:06.103Z</time></trkpt><trkpt lat="43.486765" lon="10.9810583"><ele>454.33333333333337</ele><time>2026-04-05T08:32:07.103Z</time></trkpt><trkpt lat="43.48682" lon="10.9812633"><ele>455.6666666666667</ele><time>2026-04-05T08:32:08.103Z</time></trkpt><trkpt lat="43.4868683" lon="10.9814583"><ele>457.0</ele><time>2026-04-05T08:32:09.103Z</time></trkpt><trkpt lat="43.4869133" lon="10.9816533"><ele>457.75</ele><time>2026-04-05T08:32:10.103Z</time></trkpt><trkpt lat="43.4869533" lon="10.9818433"><ele>458.5</ele><time>2026-04-05T08:32:11.103Z</time></trkpt><trkpt lat="43.4869867" lon="10.9820317"><ele>459.25</ele><time>2026-04-05T08:32:12.103Z</time></trkpt><trkpt lat="43.4869983" lon="10.9822267"><ele>460.0</ele><time>2026-04-05T08:32:13.102Z</time></trkpt><trkpt lat="43.487" lon="10.98242"><ele>460.0</ele><time>2026-04-05T08:32:14.103Z</time></trkpt><trkpt lat="43.48699" lon="10.9826167"><ele>460.0</ele><time>2026-04-05T08:32:15.103Z</time></trkpt><trkpt lat="43.4869833" lon="10.9828133"><ele>460.0</ele><time>2026-04-05T08:32:16.103Z</time></trkpt><trkpt lat="43.4869833" lon="10.9830117"><ele>460.0</ele><time>2026-04-05T08:32:17.102Z</time></trkpt><trkpt lat="43.4869783" lon="10.9832083"><ele>458.0</ele><time>2026-04-05T08:32:18.103Z</time></trkpt><trkpt lat="43.4869767" lon="10.9834033"><ele>456.0</ele><time>2026-04-05T08:32:19.103Z</time></trkpt><trkpt lat="43.4869933" lon="10.9835983"><ele>454.0</ele><time>2026-04-05T08:32:20.103Z</time></trkpt><trkpt lat="43.487025" lon="10.9837833"><ele>452.0</ele><time>2026-04-05T08:32:21.103Z</time></trkpt><trkpt lat="43.48708" lon="10.9839583"><ele>451.5</ele><time>2026-04-05T08:32:22.103Z</time></trkpt><trkpt lat="43.487145" lon="10.9841383"><ele>451.0</ele><time>2026-04-05T08:32:23.103Z</time></trkpt><trkpt lat="43.4872133" lon="10.9843183"><ele>450.5</ele><time>2026-04-05T08:32:24.103Z</time></trkpt><trkpt lat="43.487285" lon="10.984495"><ele>450.0</ele><time>2026-04-05T08:32:25.103Z</time></trkpt><trkpt lat="43.4873567" lon="10.9846733"><ele>450.0</ele><time>2026-04-05T08:32:26.103Z</time></trkpt><trkpt lat="43.487425" lon="10.9848533"><ele>450.0</ele><time>2026-04-05T08:32:27.103Z</time></trkpt><trkpt lat="43.48749" lon="10.9850333"><ele>450.0</ele><time>2026-04-05T08:32:28.103Z</time></trkpt><trkpt lat="43.4875567" lon="10.9852133"><ele>450.0</ele><time>2026-04-05T08:32:29.103Z</time></trkpt><trkpt lat="43.4876267" lon="10.98539"><ele>449.75</ele><time>2026-04-05T08:32:30.103Z</time></trkpt><trkpt lat="43.4876933" lon="10.98556"><ele>449.5</ele><time>2026-04-05T08:32:31.103Z</time></trkpt><trkpt lat="43.48776" lon="10.9857317"><ele>449.25</ele><time>2026-04-05T08:32:32.103Z</time></trkpt><trkpt lat="43.4878233" lon="10.9858983"><ele>449.0</ele><time>2026-04-05T08:32:33.103Z</time></trkpt><trkpt lat="43.4878783" lon="10.98607"><ele>448.5</ele><time>2026-04-05T08:32:34.103Z</time></trkpt><trkpt lat="43.4879183" lon="10.9862533"><ele>448.0</ele><time>2026-04-05T08:32:35.103Z</time></trkpt><trkpt lat="43.487945" lon="10.9864417"><ele>447.5</ele><time>2026-04-05T08:32:36.103Z</time></trkpt><trkpt lat="43.4879633" lon="10.986635"><ele>447.0</ele><time>2026-04-05T08:32:37.102Z</time></trkpt><trkpt lat="43.4879817" lon="10.9868283"><ele>446.0</ele><time>2026-04-05T08:32:38.103Z</time></trkpt><trkpt lat="43.488" lon="10.9870217"><ele>445.0</ele><time>2026-04-05T08:32:39.102Z</time></trkpt><trkpt lat="43.4880067" lon="10.9872183"><ele>444.0</ele><time>2026-04-05T08:32:40.103Z</time></trkpt><trkpt lat="43.487995" lon="10.987415"><ele>443.0</ele><time>2026-04-05T08:32:41.103Z</time></trkpt><trkpt lat="43.4879667" lon="10.9876083"><ele>440.75</ele><time>2026-04-05T08:32:42.103Z</time></trkpt><trkpt lat="43.4879233" lon="10.9877983"><ele>438.5</ele><time>2026-04-05T08:32:43.103Z</time></trkpt><trkpt lat="43.487875" lon="10.987985"><ele>436.25</ele><time>2026-04-05T08:32:44.103Z</time></trkpt><trkpt lat="43.4878217" lon="10.98817"><ele>434.0</ele><time>2026-04-05T08:32:45.103Z</time></trkpt><trkpt lat="43.4877633" lon="10.988355"><ele>433.5</ele><time>2026-04-05T08:32:46.103Z</time></trkpt><trkpt lat="43.487705" lon="10.98854"><ele>433.0</ele><time>2026-04-05T08:32:47.103Z</time></trkpt><trkpt lat="43.487645" lon="10.9887233"><ele>432.5</ele><time>2026-04-05T08:32:48.103Z</time></trkpt><trkpt lat="43.48759" lon="10.9889117"><ele>432.0</ele><time>2026-04-05T08:32:49.102Z</time></trkpt><trkpt lat="43.48753" lon="10.9891033"><ele>429.33333333333337</ele><time>2026-04-05T08:32:50.103Z</time></trkpt><trkpt lat="43.48747" lon="10.9893"><ele>426.6666666666667</ele><time>2026-04-05T08:32:51.103Z</time></trkpt><trkpt lat="43.4874067" lon="10.9895033"><ele>424.0</ele><time>2026-04-05T08:32:52.103Z</time></trkpt><trkpt lat="43.487345" lon="10.9897083"><ele>424.0</ele><time>2026-04-05T08:32:53.103Z</time></trkpt><trkpt lat="43.487285" lon="10.9899233"><ele>424.0</ele><time>2026-04-05T08:32:54.103Z</time></trkpt><trkpt lat="43.4872283" lon="10.9901383"><ele>424.0</ele><time>2026-04-05T08:32:55.103Z</time></trkpt><trkpt lat="43.48717" lon="10.99036"><ele>422.0</ele><time>2026-04-05T08:32:56.103Z</time></trkpt><trkpt lat="43.4871117" lon="10.9905867"><ele>420.0</ele><time>2026-04-05T08:32:57.102Z</time></trkpt><trkpt lat="43.48706" lon="10.9908183"><ele>418.0</ele><time>2026-04-05T08:32:58.103Z</time></trkpt><trkpt lat="43.4870033" lon="10.991055"><ele>415.6666666666667</ele><time>2026-04-05T08:32:59.103Z</time></trkpt><trkpt lat="43.48695" lon="10.991295"><ele>413.33333333333337</ele><time>2026-04-05T08:33:00.103Z</time></trkpt><trkpt lat="43.4869033" lon="10.9915317"><ele>411.0</ele><time>2026-04-05T08:33:01.103Z</time></trkpt><trkpt lat="43.4868517" lon="10.9917667"><ele>410.66666666666663</ele><time>2026-04-05T08:33:02.103Z</time></trkpt><trkpt lat="43.4867983" lon="10.9920033"><ele>410.3333333333333</ele><time>2026-04-05T08:33:03.103Z</time></trkpt><trkpt lat="43.4867467" lon="10.9922367"><ele>410.0</ele><time>2026-04-05T08:33:04.103Z</time></trkpt><trkpt lat="43.486695" lon="10.9924683"><ele>409.66666666666663</ele><time>2026-04-05T08:33:05.103Z</time></trkpt><trkpt lat="43.48666" lon="10.9926983"><ele>409.33333333333337</ele><time>2026-04-05T08:33:06.103Z</time></trkpt><trkpt lat="43.486635" lon="10.9929283"><ele>409.0</ele><time>2026-04-05T08:33:07.103Z</time></trkpt><trkpt lat="43.4866233" lon="10.993155"><ele>407.6666666666667</ele><time>2026-04-05T08:33:08.103Z</time></trkpt><trkpt lat="43.4866117" lon="10.9933783"><ele>406.33333333333337</ele><time>2026-04-05T08:33:09.102Z</time></trkpt><trkpt lat="43.4865967" lon="10.9936033"><ele>405.0</ele><time>2026-04-05T08:33:10.103Z</time></trkpt><trkpt lat="43.486585" lon="10.9938317"><ele>405.0</ele><time>2026-04-05T08:33:11.103Z</time></trkpt><trkpt lat="43.48657" lon="10.994055"><ele>405.0</ele><time>2026-04-05T08:33:12.103Z</time></trkpt><trkpt lat="43.4865583" lon="10.9942767"><ele>405.0</ele><time>2026-04-05T08:33:13.103Z</time></trkpt><trkpt lat="43.4865483" lon="10.9945033"><ele>405.0</ele><time>2026-04-05T08:33:14.103Z</time></trkpt><trkpt lat="43.486545" lon="10.9947317"><ele>405.0</ele><time>2026-04-05T08:33:15.103Z</time></trkpt><trkpt lat="43.4865583" lon="10.994955"><ele>405.0</ele><time>2026-04-05T08:33:16.103Z</time></trkpt><trkpt lat="43.4865883" lon="10.9951717"><ele>405.0</ele><time>2026-04-05T08:33:17.103Z</time></trkpt><trkpt lat="43.4866267" lon="10.9953767"><ele>405.0</ele><time>2026-04-05T08:33:18.103Z</time></trkpt><trkpt lat="43.4866783" lon="10.9955783"><ele>405.0</ele><time>2026-04-05T08:33:19.102Z</time></trkpt><trkpt lat="43.4867267" lon="10.995775"><ele>404.5</ele><time>2026-04-05T08:33:20.103Z</time></trkpt><trkpt lat="43.4867783" lon="10.99597"><ele>404.0</ele><time>2026-04-05T08:33:21.103Z</time></trkpt><trkpt lat="43.4868267" lon="10.9961633"><ele>403.5</ele><time>2026-04-05T08:33:22.103Z</time></trkpt><trkpt lat="43.48686" lon="10.996365"><ele>403.0</ele><time>2026-04-05T08:33:23.103Z</time></trkpt><trkpt lat="43.4868783" lon="10.9965733"><ele>400.0</ele><time>2026-04-05T08:33:24.103Z</time></trkpt><trkpt lat="43.4868817" lon="10.996785"><ele>397.0</ele><time>2026-04-05T08:33:25.103Z</time></trkpt><trkpt lat="43.4868683" lon="10.9970017"><ele>394.0</ele><time>2026-04-05T08:33:26.103Z</time></trkpt><trkpt lat="43.4868517" lon="10.9972167"><ele>394.0</ele><time>2026-04-05T08:33:27.103Z</time></trkpt><trkpt lat="43.4868217" lon="10.9974283"><ele>394.0</ele><time>2026-04-05T08:33:28.103Z</time></trkpt><trkpt lat="43.4867883" lon="10.9976383"><ele>394.0</ele><time>2026-04-05T08:33:29.103Z</time></trkpt><trkpt lat="43.4867317" lon="10.997845"><ele>389.6666666666667</ele><time>2026-04-05T08:33:30.103Z</time></trkpt><trkpt lat="43.4866567" lon="10.9980417"><ele>385.33333333333337</ele><time>2026-04-05T08:33:31.103Z</time></trkpt><trkpt lat="43.4865667" lon="10.9982333"><ele>381.0</ele><time>2026-04-05T08:33:32.103Z</time></trkpt><trkpt lat="43.4864667" lon="10.9984183"><ele>379.0</ele><time>2026-04-05T08:33:33.103Z</time></trkpt><trkpt lat="43.4863633" lon="10.9986083"><ele>377.0</ele><time>2026-04-05T08:33:34.103Z</time></trkpt><trkpt lat="43.4862567" lon="10.9987983"><ele>375.0</ele><time>2026-04-05T08:33:35.103Z</time></trkpt><trkpt lat="43.48615" lon="10.9989933"><ele>375.6666666666667</ele><time>2026-04-05T08:33:36.103Z</time></trkpt><trkpt lat="43.4860417" lon="10.9991933"><ele>376.33333333333337</ele><time>2026-04-05T08:33:37.102Z</time></trkpt><trkpt lat="43.4859317" lon="10.9993967"><ele>377.0</ele><time>2026-04-05T08:33:38.103Z</time></trkpt><trkpt lat="43.4858233" lon="10.9995967"><ele>377.0</ele><time>2026-04-05T08:33:39.103Z</time></trkpt><trkpt lat="43.48571" lon="10.9997917"><ele>377.0</ele><time>2026-04-05T08:33:40.102Z</time></trkpt><trkpt lat="43.4855967" lon="10.99998"><ele>377.0</ele><time>2026-04-05T08:33:41.103Z</time></trkpt><trkpt lat="43.4854783" lon="11.00016"><ele>375.6666666666667</ele><time>2026-04-05T08:33:42.103Z</time></trkpt><trkpt lat="43.4853617" lon="11.0003283"><ele>374.3333333333333</ele><time>2026-04-05T08:33:43.103Z</time></trkpt><trkpt lat="43.48525" lon="11.00049"><ele>373.0</ele><time>2026-04-05T08:33:44.103Z</time></trkpt><trkpt lat="43.4851417" lon="11.000645"><ele>373.0</ele><time>2026-04-05T08:33:45.103Z</time></trkpt><trkpt lat="43.4850433" lon="11.0008"><ele>373.0</ele><time>2026-04-05T08:33:46.102Z</time></trkpt><trkpt lat="43.4849583" lon="11.0009633"><ele>373.0</ele><time>2026-04-05T08:33:47.102Z</time></trkpt><trkpt lat="43.48488" lon="11.0011283"><ele>373.0</ele><time>2026-04-05T08:33:48.103Z</time></trkpt><trkpt lat="43.484805" lon="11.0012983"><ele>373.5</ele><time>2026-04-05T08:33:49.103Z</time></trkpt><trkpt lat="43.4847317" lon="11.001475"><ele>374.0</ele><time>2026-04-05T08:33:50.103Z</time></trkpt><trkpt lat="43.48466" lon="11.0016517"><ele>374.5</ele><time>2026-04-05T08:33:51.103Z</time></trkpt><trkpt lat="43.48459" lon="11.0018217"><ele>375.0</ele><time>2026-04-05T08:33:52.103Z</time></trkpt><trkpt lat="43.48452" lon="11.001995"><ele>373.0</ele><time>2026-04-05T08:33:53.103Z</time></trkpt><trkpt lat="43.4844517" lon="11.0021683"><ele>371.0</ele><time>2026-04-05T08:33:54.103Z</time></trkpt><trkpt lat="43.4843817" lon="11.0023383"><ele>369.0</ele><time>2026-04-05T08:33:55.103Z</time></trkpt><trkpt lat="43.48431" lon="11.0025083"><ele>367.0</ele><time>2026-04-05T08:33:56.103Z</time></trkpt><trkpt lat="43.4842417" lon="11.0026783"><ele>367.0</ele><time>2026-04-05T08:33:57.103Z</time></trkpt><trkpt lat="43.48417" lon="11.00285"><ele>367.0</ele><time>2026-04-05T08:33:58.103Z</time></trkpt><trkpt lat="43.4840983" lon="11.0030233"><ele>367.0</ele><time>2026-04-05T08:33:59.103Z</time></trkpt><trkpt lat="43.4840317" lon="11.0031967"><ele>367.0</ele><time>2026-04-05T08:34:00.103Z</time></trkpt><trkpt lat="43.48396" lon="11.0033683"><ele>368.0</ele><time>2026-04-05T08:34:01.103Z</time></trkpt><trkpt lat="43.4838867" lon="11.00354"><ele>369.0</ele><time>2026-04-05T08:34:02.103Z</time></trkpt><trkpt lat="43.4838167" lon="11.0037133"><ele>370.0</ele><time>2026-04-05T08:34:03.103Z</time></trkpt><trkpt lat="43.483745" lon="11.0038867"><ele>371.0</ele><time>2026-04-05T08:34:04.103Z</time></trkpt><trkpt lat="43.483675" lon="11.0040633"><ele>366.75</ele><time>2026-04-05T08:34:05.103Z</time></trkpt><trkpt lat="43.48361" lon="11.0042433"><ele>362.5</ele><time>2026-04-05T08:34:06.102Z</time></trkpt><trkpt lat="43.48355" lon="11.0044283"><ele>358.25</ele><time>2026-04-05T08:34:07.103Z</time></trkpt><trkpt lat="43.4834983" lon="11.0046217"><ele>354.0</ele><time>2026-04-05T08:34:08.103Z</time></trkpt><trkpt lat="43.483455" lon="11.004815"><ele>355.0</ele><time>2026-04-05T08:34:09.103Z</time></trkpt><trkpt lat="43.4834183" lon="11.00501"><ele>356.0</ele><time>2026-04-05T08:34:10.103Z</time></trkpt><trkpt lat="43.4833833" lon="11.0052067"><ele>357.0</ele><time>2026-04-05T08:34:11.102Z</time></trkpt><trkpt lat="43.483345" lon="11.0054017"><ele>358.0</ele><time>2026-04-05T08:34:12.103Z</time></trkpt><trkpt lat="43.4833083" lon="11.0055983"><ele>358.0</ele><time>2026-04-05T08:34:13.103Z</time></trkpt><trkpt lat="43.4832717" lon="11.0057967"><ele>358.0</ele><time>2026-04-05T08:34:14.103Z</time></trkpt><trkpt lat="43.4832317" lon="11.0059933"><ele>358.0</ele><time>2026-04-05T08:34:15.103Z</time></trkpt><trkpt lat="43.483195" lon="11.0061833"><ele>358.0</ele><time>2026-04-05T08:34:16.103Z</time></trkpt><trkpt lat="43.483155" lon="11.0063717"><ele>358.25</ele><time>2026-04-05T08:34:17.103Z</time></trkpt><trkpt lat="43.4831133" lon="11.0065617"><ele>358.5</ele><time>2026-04-05T08:34:18.103Z</time></trkpt><trkpt lat="43.4830667" lon="11.00675"><ele>358.75</ele><time>2026-04-05T08:34:19.103Z</time></trkpt><trkpt lat="43.4830067" lon="11.0069317"><ele>359.0</ele><time>2026-04-05T08:34:20.103Z</time></trkpt><trkpt lat="43.482935" lon="11.0071133"><ele>357.0</ele><time>2026-04-05T08:34:21.103Z</time></trkpt><trkpt lat="43.48285" lon="11.0072833"><ele>355.0</ele><time>2026-04-05T08:34:22.103Z</time></trkpt><trkpt lat="43.4827483" lon="11.007435"><ele>353.0</ele><time>2026-04-05T08:34:23.103Z</time></trkpt><trkpt lat="43.482635" lon="11.0075767"><ele>353.0</ele><time>2026-04-05T08:34:24.103Z</time></trkpt><trkpt lat="43.4825117" lon="11.0077083"><ele>353.0</ele><time>2026-04-05T08:34:25.103Z</time></trkpt><trkpt lat="43.4823917" lon="11.0078433"><ele>353.0</ele><time>2026-04-05T08:34:26.102Z</time></trkpt><trkpt lat="43.4822817" lon="11.0079867"><ele>353.0</ele><time>2026-04-05T08:34:27.103Z</time></trkpt><trkpt lat="43.4821817" lon="11.0081417"><ele>353.0</ele><time>2026-04-05T08:34:28.103Z</time></trkpt><trkpt lat="43.4820833" lon="11.0083033"><ele>353.0</ele><time>2026-04-05T08:34:29.103Z</time></trkpt><trkpt lat="43.4819917" lon="11.0084667"><ele>351.0</ele><time>2026-04-05T08:34:30.103Z</time></trkpt><trkpt lat="43.4819" lon="11.00863"><ele>349.0</ele><time>2026-04-05T08:34:31.103Z</time></trkpt><trkpt lat="43.4818083" lon="11.008795"><ele>347.0</ele><time>2026-04-05T08:34:32.102Z</time></trkpt><trkpt lat="43.481715" lon="11.00896"><ele>347.0</ele><time>2026-04-05T08:34:33.103Z</time></trkpt><trkpt lat="43.481625" lon="11.0091267"><ele>347.0</ele><time>2026-04-05T08:34:34.103Z</time></trkpt><trkpt lat="43.48154" lon="11.0092967"><ele>347.0</ele><time>2026-04-05T08:34:35.103Z</time></trkpt><trkpt lat="43.4814617" lon="11.0094767"><ele>349.0</ele><time>2026-04-05T08:34:36.103Z</time></trkpt><trkpt lat="43.481395" lon="11.0096633"><ele>351.0</ele><time>2026-04-05T08:34:37.103Z</time></trkpt><trkpt lat="43.4813367" lon="11.00986"><ele>353.0</ele><time>2026-04-05T08:34:38.103Z</time></trkpt><trkpt lat="43.4812833" lon="11.0100583"><ele>349.6666666666667</ele><time>2026-04-05T08:34:39.103Z</time></trkpt><trkpt lat="43.4812283" lon="11.0102583"><ele>346.3333333333333</ele><time>2026-04-05T08:34:40.103Z</time></trkpt><trkpt lat="43.481175" lon="11.0104583"><ele>343.0</ele><time>2026-04-05T08:34:41.103Z</time></trkpt><trkpt lat="43.4811217" lon="11.01066"><ele>342.3333333333333</ele><time>2026-04-05T08:34:42.103Z</time></trkpt><trkpt lat="43.4810667" lon="11.010865"><ele>341.6666666666667</ele><time>2026-04-05T08:34:43.103Z</time></trkpt><trkpt lat="43.481015" lon="11.0110717"><ele>341.0</ele><time>2026-04-05T08:34:44.103Z</time></trkpt><trkpt lat="43.480965" lon="11.0112733"><ele>341.0</ele><time>2026-04-05T08:34:45.103Z</time></trkpt><trkpt lat="43.4809083" lon="11.0114733"><ele>341.0</ele><time>2026-04-05T08:34:46.103Z</time></trkpt><trkpt lat="43.48085" lon="11.0116717"><ele>341.0</ele><time>2026-04-05T08:34:47.103Z</time></trkpt><trkpt lat="43.4807967" lon="11.011865"><ele>340.75</ele><time>2026-04-05T08:34:48.102Z</time></trkpt><trkpt lat="43.4807433" lon="11.012055"><ele>340.5</ele><time>2026-04-05T08:34:49.103Z</time></trkpt><trkpt lat="43.48069" lon="11.0122433"><ele>340.25</ele><time>2026-04-05T08:34:50.103Z</time></trkpt><trkpt lat="43.480635" lon="11.01243"><ele>340.0</ele><time>2026-04-05T08:34:51.103Z</time></trkpt><trkpt lat="43.48058" lon="11.0126133"><ele>340.0</ele><time>2026-04-05T08:34:52.103Z</time></trkpt><trkpt lat="43.4805283" lon="11.0127933"><ele>340.0</ele><time>2026-04-05T08:34:53.103Z</time></trkpt><trkpt lat="43.4804817" lon="11.012975"><ele>340.0</ele><time>2026-04-05T08:34:54.103Z</time></trkpt><trkpt lat="43.480445" lon="11.013155"><ele>340.0</ele><time>2026-04-05T08:34:55.103Z</time></trkpt><trkpt lat="43.48042" lon="11.01334"><ele>334.66666666666663</ele><time>2026-04-05T08:34:56.103Z</time></trkpt><trkpt lat="43.48041" lon="11.013715"><ele>329.3333333333333</ele><time>2026-04-05T08:34:58.103Z</time></trkpt><trkpt lat="43.4804167" lon="11.0139017"><ele>324.0</ele><time>2026-04-05T08:34:59.103Z</time></trkpt><trkpt lat="43.4804267" lon="11.01409"><ele>325.75</ele><time>2026-04-05T08:35:00.103Z</time></trkpt><trkpt lat="43.4804333" lon="11.0142817"><ele>327.5</ele><time>2026-04-05T08:35:01.103Z</time></trkpt><trkpt lat="43.48044" lon="11.014475"><ele>329.25</ele><time>2026-04-05T08:35:02.102Z</time></trkpt><trkpt lat="43.4804467" lon="11.0146733"><ele>331.0</ele><time>2026-04-05T08:35:03.103Z</time></trkpt><trkpt lat="43.480455" lon="11.014875"><ele>328.66666666666663</ele><time>2026-04-05T08:35:04.103Z</time></trkpt><trkpt lat="43.4804567" lon="11.01508"><ele>326.3333333333333</ele><time>2026-04-05T08:35:05.103Z</time></trkpt><trkpt lat="43.4804383" lon="11.015285"><ele>324.0</ele><time>2026-04-05T08:35:06.103Z</time></trkpt><trkpt lat="43.480395" lon="11.0154883"><ele>320.6666666666667</ele><time>2026-04-05T08:35:07.103Z</time></trkpt><trkpt lat="43.480325" lon="11.0156817"><ele>317.33333333333337</ele><time>2026-04-05T08:35:08.103Z</time></trkpt><trkpt lat="43.4802333" lon="11.0158633"><ele>314.0</ele><time>2026-04-05T08:35:09.103Z</time></trkpt><trkpt lat="43.4801333" lon="11.0160433"><ele>313.0</ele><time>2026-04-05T08:35:10.103Z</time></trkpt><trkpt lat="43.4800283" lon="11.0162233"><ele>312.0</ele><time>2026-04-05T08:35:11.103Z</time></trkpt><trkpt lat="43.479925" lon="11.0164033"><ele>311.0</ele><time>2026-04-05T08:35:12.103Z</time></trkpt><trkpt lat="43.4798233" lon="11.0165767"><ele>309.6666666666667</ele><time>2026-04-05T08:35:13.103Z</time></trkpt><trkpt lat="43.4797183" lon="11.0167417"><ele>308.3333333333333</ele><time>2026-04-05T08:35:14.103Z</time></trkpt><trkpt lat="43.47961" lon="11.0168983"><ele>307.0</ele><time>2026-04-05T08:35:15.103Z</time></trkpt><trkpt lat="43.4794967" lon="11.0170417"><ele>306.3333333333333</ele><time>2026-04-05T08:35:16.103Z</time></trkpt><trkpt lat="43.4792733" lon="11.017315"><ele>305.6666666666667</ele><time>2026-04-05T08:35:18.103Z</time></trkpt><trkpt lat="43.47917" lon="11.0174517"><ele>305.0</ele><time>2026-04-05T08:35:19.103Z</time></trkpt><trkpt lat="43.47907" lon="11.017585"><ele>305.0</ele><time>2026-04-05T08:35:20.103Z</time></trkpt><trkpt lat="43.4789717" lon="11.017715"><ele>305.0</ele><time>2026-04-05T08:35:21.103Z</time></trkpt><trkpt lat="43.4788767" lon="11.0178433"><ele>305.0</ele><time>2026-04-05T08:35:22.103Z</time></trkpt><trkpt lat="43.4787867" lon="11.017975"><ele>305.0</ele><time>2026-04-05T08:35:23.103Z</time></trkpt><trkpt lat="43.47871" lon="11.0181117"><ele>304.75</ele><time>2026-04-05T08:35:24.103Z</time></trkpt><trkpt lat="43.478645" lon="11.018255"><ele>304.5</ele><time>2026-04-05T08:35:25.102Z</time></trkpt><trkpt lat="43.478585" lon="11.0184033"><ele>304.25</ele><time>2026-04-05T08:35:26.102Z</time></trkpt><trkpt lat="43.4785283" lon="11.0185483"><ele>304.0</ele><time>2026-04-05T08:35:27.103Z</time></trkpt><trkpt lat="43.47847" lon="11.0186917"><ele>304.0</ele><time>2026-04-05T08:35:28.102Z</time></trkpt><trkpt lat="43.47841" lon="11.0188367"><ele>304.0</ele><time>2026-04-05T08:35:29.102Z</time></trkpt><trkpt lat="43.47835" lon="11.01898"><ele>304.0</ele><time>2026-04-05T08:35:30.103Z</time></trkpt><trkpt lat="43.4782917" lon="11.0191217"><ele>304.0</ele><time>2026-04-05T08:35:31.103Z</time></trkpt><trkpt lat="43.4782367" lon="11.01926"><ele>303.75</ele><time>2026-04-05T08:35:32.103Z</time></trkpt><trkpt lat="43.4781817" lon="11.0193967"><ele>303.5</ele><time>2026-04-05T08:35:33.103Z</time></trkpt><trkpt lat="43.47813" lon="11.019535"><ele>303.25</ele><time>2026-04-05T08:35:34.103Z</time></trkpt><trkpt lat="43.47808" lon="11.0196767"><ele>303.0</ele><time>2026-04-05T08:35:35.103Z</time></trkpt><trkpt lat="43.47804" lon="11.0198217"><ele>301.3333333333333</ele><time>2026-04-05T08:35:36.103Z</time></trkpt><trkpt lat="43.477995" lon="11.02013"><ele>299.66666666666663</ele><time>2026-04-05T08:35:38.103Z</time></trkpt><trkpt lat="43.4779817" lon="11.0202867"><ele>298.0</ele><time>2026-04-05T08:35:39.103Z</time></trkpt><trkpt lat="43.4779717" lon="11.0204417"><ele>298.0</ele><time>2026-04-05T08:35:40.103Z</time></trkpt><trkpt lat="43.4779667" lon="11.0205983"><ele>298.0</ele><time>2026-04-05T08:35:41.103Z</time></trkpt><trkpt lat="43.4779617" lon="11.020755"><ele>298.0</ele><time>2026-04-05T08:35:42.103Z</time></trkpt><trkpt lat="43.4779633" lon="11.0209117"><ele>298.0</ele><time>2026-04-05T08:35:43.103Z</time></trkpt><trkpt lat="43.4779683" lon="11.02107"><ele>296.25</ele><time>2026-04-05T08:35:44.103Z</time></trkpt><trkpt lat="43.4779733" lon="11.0212267"><ele>294.5</ele><time>2026-04-05T08:35:45.103Z</time></trkpt><trkpt lat="43.4779817" lon="11.0213833"><ele>292.75</ele><time>2026-04-05T08:35:46.103Z</time></trkpt><trkpt lat="43.477985" lon="11.0215383"><ele>291.0</ele><time>2026-04-05T08:35:47.103Z</time></trkpt><trkpt lat="43.4779867" lon="11.0216967"><ele>290.25</ele><time>2026-04-05T08:35:48.103Z</time></trkpt><trkpt lat="43.47799" lon="11.0218633"><ele>289.5</ele><time>2026-04-05T08:35:49.103Z</time></trkpt><trkpt lat="43.4779817" lon="11.022035"><ele>288.75</ele><time>2026-04-05T08:35:50.103Z</time></trkpt><trkpt lat="43.4779683" lon="11.0222117"><ele>288.0</ele><time>2026-04-05T08:35:51.103Z</time></trkpt><trkpt lat="43.47796" lon="11.0223917"><ele>288.0</ele><time>2026-04-05T08:35:52.103Z</time></trkpt><trkpt lat="43.47794" lon="11.022575"><ele>288.0</ele><time>2026-04-05T08:35:53.103Z</time></trkpt><trkpt lat="43.4779183" lon="11.0227617"><ele>288.0</ele><time>2026-04-05T08:35:54.103Z</time></trkpt><trkpt lat="43.477885" lon="11.0229467"><ele>288.0</ele><time>2026-04-05T08:35:55.103Z</time></trkpt><trkpt lat="43.477835" lon="11.023125"><ele>287.5</ele><time>2026-04-05T08:35:56.103Z</time></trkpt><trkpt lat="43.4777783" lon="11.023305"><ele>287.0</ele><time>2026-04-05T08:35:57.103Z</time></trkpt><trkpt lat="43.4777217" lon="11.0234833"><ele>286.5</ele><time>2026-04-05T08:35:58.103Z</time></trkpt><trkpt lat="43.4776583" lon="11.0236567"><ele>286.0</ele><time>2026-04-05T08:35:59.103Z</time></trkpt><trkpt lat="43.4775983" lon="11.0238283"><ele>285.5</ele><time>2026-04-05T08:36:00.103Z</time></trkpt><trkpt lat="43.4775383" lon="11.023995"><ele>285.0</ele><time>2026-04-05T08:36:01.103Z</time></trkpt><trkpt lat="43.4774783" lon="11.0241617"><ele>284.5</ele><time>2026-04-05T08:36:02.103Z</time></trkpt><trkpt lat="43.4774233" lon="11.024325"><ele>284.0</ele><time>2026-04-05T08:36:03.103Z</time></trkpt><trkpt lat="43.47737" lon="11.024485"><ele>284.0</ele><time>2026-04-05T08:36:04.103Z</time></trkpt><trkpt lat="43.477315" lon="11.0246417"><ele>284.0</ele><time>2026-04-05T08:36:05.103Z</time></trkpt><trkpt lat="43.4772583" lon="11.0247983"><ele>284.0</ele><time>2026-04-05T08:36:06.103Z</time></trkpt><trkpt lat="43.4772017" lon="11.024955"><ele>284.0</ele><time>2026-04-05T08:36:07.103Z</time></trkpt><trkpt lat="43.477145" lon="11.0251083"><ele>282.75</ele><time>2026-04-05T08:36:08.104Z</time></trkpt><trkpt lat="43.4770867" lon="11.02526"><ele>281.5</ele><time>2026-04-05T08:36:09.104Z</time></trkpt><trkpt lat="43.4770367" lon="11.0254117"><ele>280.25</ele><time>2026-04-05T08:36:10.104Z</time></trkpt><trkpt lat="43.4769867" lon="11.0255633"><ele>279.0</ele><time>2026-04-05T08:36:11.104Z</time></trkpt><trkpt lat="43.47695" lon="11.0257217"><ele>279.5</ele><time>2026-04-05T08:36:12.104Z</time></trkpt><trkpt lat="43.4769217" lon="11.025885"><ele>280.0</ele><time>2026-04-05T08:36:13.104Z</time></trkpt><trkpt lat="43.4769" lon="11.02606"><ele>280.5</ele><time>2026-04-05T08:36:14.104Z</time></trkpt><trkpt lat="43.4768783" lon="11.0262383"><ele>281.0</ele><time>2026-04-05T08:36:15.104Z</time></trkpt><trkpt lat="43.4768567" lon="11.02642"><ele>279.33333333333337</ele><time>2026-04-05T08:36:16.103Z</time></trkpt><trkpt lat="43.47681" lon="11.0267833"><ele>277.6666666666667</ele><time>2026-04-05T08:36:18.104Z</time></trkpt><trkpt lat="43.4767883" lon="11.0269667"><ele>276.0</ele><time>2026-04-05T08:36:19.104Z</time></trkpt><trkpt lat="43.4767667" lon="11.02715"><ele>276.0</ele><time>2026-04-05T08:36:20.104Z</time></trkpt><trkpt lat="43.4767383" lon="11.0273367"><ele>276.0</ele><time>2026-04-05T08:36:21.104Z</time></trkpt><trkpt lat="43.4767083" lon="11.0275217"><ele>276.0</ele><time>2026-04-05T08:36:22.104Z</time></trkpt><trkpt lat="43.47668" lon="11.0277067"><ele>276.0</ele><time>2026-04-05T08:36:23.104Z</time></trkpt><trkpt lat="43.4766533" lon="11.027885"><ele>274.8</ele><time>2026-04-05T08:36:24.103Z</time></trkpt><trkpt lat="43.4766267" lon="11.0280467"><ele>273.6</ele><time>2026-04-05T08:36:25.104Z</time></trkpt><trkpt lat="43.4766067" lon="11.0281867"><ele>272.4</ele><time>2026-04-05T08:36:26.104Z</time></trkpt><trkpt lat="43.4765867" lon="11.0283117"><ele>271.2</ele><time>2026-04-05T08:36:27.104Z</time></trkpt><trkpt lat="43.4765767" lon="11.028425"><ele>270.0</ele><time>2026-04-05T08:36:28.104Z</time></trkpt><trkpt lat="43.4765583" lon="11.0285267"><ele>269.1666666666667</ele><time>2026-04-05T08:36:29.104Z</time></trkpt><trkpt lat="43.4765333" lon="11.0286267"><ele>268.3333333333333</ele><time>2026-04-05T08:36:30.104Z</time></trkpt><trkpt lat="43.4764933" lon="11.0287167"><ele>267.5</ele><time>2026-04-05T08:36:31.104Z</time></trkpt><trkpt lat="43.476435" lon="11.028795"><ele>266.66666666666663</ele><time>2026-04-05T08:36:32.104Z</time></trkpt><trkpt lat="43.4763783" lon="11.0288817"><ele>265.8333333333333</ele><time>2026-04-05T08:36:33.104Z</time></trkpt><trkpt lat="43.4763317" lon="11.028985"><ele>265.0</ele><time>2026-04-05T08:36:34.104Z</time></trkpt><trkpt lat="43.4763017" lon="11.0290983"><ele>265.0</ele><time>2026-04-05T08:36:35.104Z</time></trkpt><trkpt lat="43.4762717" lon="11.0292233"><ele>265.0</ele><time>2026-04-05T08:36:36.104Z</time></trkpt><trkpt lat="43.4761667" lon="11.0294517"><ele>265.0</ele><time>2026-04-05T08:36:38.104Z</time></trkpt><trkpt lat="43.476085" lon="11.029545"><ele>265.0</ele><time>2026-04-05T08:36:39.104Z</time></trkpt><trkpt lat="43.4760017" lon="11.02963"><ele>264.6</ele><time>2026-04-05T08:36:40.104Z</time></trkpt><trkpt lat="43.475915" lon="11.0297067"><ele>264.2</ele><time>2026-04-05T08:36:41.104Z</time></trkpt><trkpt lat="43.4758267" lon="11.0297867"><ele>263.8</ele><time>2026-04-05T08:36:42.103Z</time></trkpt><trkpt lat="43.4757333" lon="11.0298683"><ele>263.4</ele><time>2026-04-05T08:36:43.104Z</time></trkpt><trkpt lat="43.4756383" lon="11.0299517"><ele>263.0</ele><time>2026-04-05T08:36:44.104Z</time></trkpt><trkpt lat="43.4755433" lon="11.0300383"><ele>263.0</ele><time>2026-04-05T08:36:45.104Z</time></trkpt><trkpt lat="43.4754483" lon="11.0301283"><ele>263.0</ele><time>2026-04-05T08:36:46.104Z</time></trkpt><trkpt lat="43.47535" lon="11.030215"><ele>263.0</ele><time>2026-04-05T08:36:47.104Z</time></trkpt><trkpt lat="43.4752533" lon="11.0303033"><ele>263.0</ele><time>2026-04-05T08:36:48.104Z</time></trkpt><trkpt lat="43.4751567" lon="11.0303917"><ele>264.25</ele><time>2026-04-05T08:36:49.104Z</time></trkpt><trkpt lat="43.4750583" lon="11.0304817"><ele>265.5</ele><time>2026-04-05T08:36:50.104Z</time></trkpt><trkpt lat="43.4749583" lon="11.0305767"><ele>266.75</ele><time>2026-04-05T08:36:51.104Z</time></trkpt><trkpt lat="43.47486" lon="11.0306683"><ele>268.0</ele><time>2026-04-05T08:36:52.104Z</time></trkpt><trkpt lat="43.4747617" lon="11.03076"><ele>267.0</ele><time>2026-04-05T08:36:53.104Z</time></trkpt><trkpt lat="43.474665" lon="11.03084"><ele>266.0</ele><time>2026-04-05T08:36:54.104Z</time></trkpt><trkpt lat="43.474565" lon="11.0309183"><ele>265.0</ele><time>2026-04-05T08:36:55.104Z</time></trkpt><trkpt lat="43.47446" lon="11.0309917"><ele>264.0</ele><time>2026-04-05T08:36:56.104Z</time></trkpt><trkpt lat="43.474245" lon="11.0311383"><ele>264.0</ele><time>2026-04-05T08:36:58.104Z</time></trkpt><trkpt lat="43.4741333" lon="11.031205"><ele>264.0</ele><time>2026-04-05T08:36:59.104Z</time></trkpt><trkpt lat="43.4740267" lon="11.0312767"><ele>264.0</ele><time>2026-04-05T08:37:00.104Z</time></trkpt><trkpt lat="43.47392" lon="11.0313417"><ele>264.0</ele><time>2026-04-05T08:37:01.104Z</time></trkpt><trkpt lat="43.4738167" lon="11.0314083"><ele>263.25</ele><time>2026-04-05T08:37:02.104Z</time></trkpt><trkpt lat="43.47371" lon="11.03147"><ele>262.5</ele><time>2026-04-05T08:37:03.104Z</time></trkpt><trkpt lat="43.4736" lon="11.03153"><ele>261.75</ele><time>2026-04-05T08:37:04.104Z</time></trkpt><trkpt lat="43.4734967" lon="11.0315933"><ele>261.0</ele><time>2026-04-05T08:37:05.104Z</time></trkpt><trkpt lat="43.4734" lon="11.0316583"><ele>261.0</ele><time>2026-04-05T08:37:06.104Z</time></trkpt><trkpt lat="43.473305" lon="11.0317167"><ele>261.0</ele><time>2026-04-05T08:37:07.104Z</time></trkpt><trkpt lat="43.4732133" lon="11.0317667"><ele>261.0</ele><time>2026-04-05T08:37:08.104Z</time></trkpt><trkpt lat="43.4731283" lon="11.031815"><ele>261.0</ele><time>2026-04-05T08:37:09.104Z</time></trkpt><trkpt lat="43.473045" lon="11.031865"><ele>261.0</ele><time>2026-04-05T08:37:10.104Z</time></trkpt><trkpt lat="43.4729633" lon="11.03191"><ele>260.3333333333333</ele><time>2026-04-05T08:37:11.104Z</time></trkpt><trkpt lat="43.4728867" lon="11.031955"><ele>259.6666666666667</ele><time>2026-04-05T08:37:12.104Z</time></trkpt><trkpt lat="43.4728133" lon="11.032"><ele>259.0</ele><time>2026-04-05T08:37:13.104Z</time></trkpt><trkpt lat="43.4727417" lon="11.0320417"><ele>258.33333333333337</ele><time>2026-04-05T08:37:14.104Z</time></trkpt><trkpt lat="43.4726733" lon="11.0320867"><ele>257.6666666666667</ele><time>2026-04-05T08:37:15.104Z</time></trkpt><trkpt lat="43.4726067" lon="11.0321267"><ele>257.0</ele><time>2026-04-05T08:37:16.104Z</time></trkpt><trkpt lat="43.4725417" lon="11.032165"><ele>257.0</ele><time>2026-04-05T08:37:17.104Z</time></trkpt><trkpt lat="43.4724767" lon="11.0322017"><ele>257.0</ele><time>2026-04-05T08:37:18.104Z</time></trkpt><trkpt lat="43.4724133" lon="11.0322367"><ele>257.0</ele><time>2026-04-05T08:37:19.104Z</time></trkpt><trkpt lat="43.47235" lon="11.0322683"><ele>257.0</ele><time>2026-04-05T08:37:20.104Z</time></trkpt><trkpt lat="43.47224" lon="11.0323267"><ele>257.0</ele><time>2026-04-05T08:37:22.104Z</time></trkpt><trkpt lat="43.47215" lon="11.03237"><ele>257.0</ele><time>2026-04-05T08:37:24.104Z</time></trkpt><trkpt lat="43.4720767" lon="11.0324133"><ele>258.8</ele><time>2026-04-05T08:37:26.104Z</time></trkpt><trkpt lat="43.471995" lon="11.0324783"><ele>260.6</ele><time>2026-04-05T08:37:55.104Z</time></trkpt><trkpt lat="43.4718833" lon="11.0325683"><ele>262.40000000000003</ele><time>2026-04-05T08:37:57.104Z</time></trkpt><trkpt lat="43.471775" lon="11.0326683"><ele>264.2</ele><time>2026-04-05T08:37:59.104Z</time></trkpt><trkpt lat="43.47172" lon="11.0327283"><ele>266.0</ele><time>2026-04-05T08:38:00.103Z</time></trkpt><trkpt lat="43.471665" lon="11.0327917"><ele>266.0</ele><time>2026-04-05T08:38:01.104Z</time></trkpt><trkpt lat="43.4716133" lon="11.0328617"><ele>266.0</ele><time>2026-04-05T08:38:02.104Z</time></trkpt><trkpt lat="43.4715583" lon="11.032935"><ele>266.0</ele><time>2026-04-05T08:38:03.104Z</time></trkpt><trkpt lat="43.47151" lon="11.0330033"><ele>266.0</ele><time>2026-04-05T08:38:04.104Z</time></trkpt><trkpt lat="43.471465" lon="11.033075"><ele>266.0</ele><time>2026-04-05T08:38:05.104Z</time></trkpt><trkpt lat="43.4714283" lon="11.0331517"><ele>266.0</ele><time>2026-04-05T08:38:06.104Z</time></trkpt><trkpt lat="43.4713933" lon="11.0332267"><ele>266.0</ele><time>2026-04-05T08:38:07.104Z</time></trkpt><trkpt lat="43.4713617" lon="11.0333083"><ele>265.2</ele><time>2026-04-05T08:38:08.104Z</time></trkpt><trkpt lat="43.4713333" lon="11.033395"><ele>264.40000000000003</ele><time>2026-04-05T08:38:09.103Z</time></trkpt><trkpt lat="43.4713" lon="11.033555"><ele>263.6</ele><time>2026-04-05T08:38:11.104Z</time></trkpt><trkpt lat="43.47127" lon="11.0337"><ele>262.8</ele><time>2026-04-05T08:38:13.104Z</time></trkpt><trkpt lat="43.471245" lon="11.033845"><ele>262.0</ele><time>2026-04-05T08:38:15.104Z</time></trkpt><trkpt lat="43.4712217" lon="11.0339933"><ele>263.0</ele><time>2026-04-05T08:38:17.104Z</time></trkpt><trkpt lat="43.4712133" lon="11.0341383"><ele>264.0</ele><time>2026-04-05T08:38:19.104Z</time></trkpt><trkpt lat="43.4711933" lon="11.0342733"><ele>265.0</ele><time>2026-04-05T08:38:21.104Z</time></trkpt><trkpt lat="43.4711833" lon="11.034415"><ele>266.0</ele><time>2026-04-05T08:38:23.104Z</time></trkpt><trkpt lat="43.4711717" lon="11.0345683"><ele>267.0</ele><time>2026-04-05T08:38:25.104Z</time></trkpt><trkpt lat="43.4711767" lon="11.0347033"><ele>267.0</ele><time>2026-04-05T08:38:27.104Z</time></trkpt><trkpt lat="43.4711733" lon="11.0348333"><ele>267.0</ele><time>2026-04-05T08:38:29.104Z</time></trkpt><trkpt lat="43.4711867" lon="11.0349733"><ele>267.0</ele><time>2026-04-05T08:38:31.104Z</time></trkpt><trkpt lat="43.4712" lon="11.035115"><ele>267.0</ele><time>2026-04-05T08:38:33.104Z</time></trkpt><trkpt lat="43.471185" lon="11.0352533"><ele>267.0</ele><time>2026-04-05T08:38:35.104Z</time></trkpt><trkpt lat="43.4711883" lon="11.0353733"><ele>267.1666666666667</ele><time>2026-04-05T08:38:37.104Z</time></trkpt><trkpt lat="43.4711883" lon="11.035485"><ele>267.3333333333333</ele><time>2026-04-05T08:38:39.104Z</time></trkpt><trkpt lat="43.4711817" lon="11.0356"><ele>267.5</ele><time>2026-04-05T08:38:41.104Z</time></trkpt><trkpt lat="43.4711833" lon="11.03572"><ele>267.66666666666663</ele><time>2026-04-05T08:38:43.103Z</time></trkpt><trkpt lat="43.4711783" lon="11.0358233"><ele>267.8333333333333</ele><time>2026-04-05T08:38:45.104Z</time></trkpt><trkpt lat="43.4711717" lon="11.0359617"><ele>268.0</ele><time>2026-04-05T08:38:47.104Z</time></trkpt><trkpt lat="43.4711717" lon="11.0361317"><ele>268.57142857142856</ele><time>2026-04-05T08:38:49.104Z</time></trkpt><trkpt lat="43.4711667" lon="11.0362233"><ele>269.1428571428571</ele><time>2026-04-05T08:38:50.104Z</time></trkpt><trkpt lat="43.4711617" lon="11.036315"><ele>269.71428571428567</ele><time>2026-04-05T08:38:51.104Z</time></trkpt><trkpt lat="43.47116" lon="11.0364117"><ele>270.2857142857143</ele><time>2026-04-05T08:38:52.103Z</time></trkpt><trkpt lat="43.4711583" lon="11.03651"><ele>270.85714285714283</ele><time>2026-04-05T08:38:53.104Z</time></trkpt><trkpt lat="43.4711567" lon="11.03661"><ele>271.4285714285714</ele><time>2026-04-05T08:38:54.104Z</time></trkpt><trkpt lat="43.47115" lon="11.03671"><ele>272.0</ele><time>2026-04-05T08:38:55.104Z</time></trkpt><trkpt lat="43.4711483" lon="11.0368067"><ele>272.1428571428571</ele><time>2026-04-05T08:38:56.104Z</time></trkpt><trkpt lat="43.4711467" lon="11.0369"><ele>272.2857142857143</ele><time>2026-04-05T08:38:57.104Z</time></trkpt><trkpt lat="43.471145" lon="11.0369933"><ele>272.42857142857144</ele><time>2026-04-05T08:38:58.104Z</time></trkpt><trkpt lat="43.4711417" lon="11.0370883"><ele>272.57142857142856</ele><time>2026-04-05T08:38:59.104Z</time></trkpt><trkpt lat="43.4711333" lon="11.0371917"><ele>272.7142857142857</ele><time>2026-04-05T08:39:00.104Z</time></trkpt><trkpt lat="43.4711267" lon="11.037305"><ele>272.85714285714283</ele><time>2026-04-05T08:39:01.104Z</time></trkpt><trkpt lat="43.4711267" lon="11.0374233"><ele>273.0</ele><time>2026-04-05T08:39:02.104Z</time></trkpt><trkpt lat="43.4711333" lon="11.0375383"><ele>273.0</ele><time>2026-04-05T08:39:03.104Z</time></trkpt><trkpt lat="43.4711383" lon="11.037655"><ele>273.0</ele><time>2026-04-05T08:39:04.104Z</time></trkpt><trkpt lat="43.4711383" lon="11.0377733"><ele>273.0</ele><time>2026-04-05T08:39:05.103Z</time></trkpt><trkpt lat="43.4711433" lon="11.0379017"><ele>273.0</ele><time>2026-04-05T08:39:06.104Z</time></trkpt><trkpt lat="43.4711467" lon="11.03803"><ele>273.0</ele><time>2026-04-05T08:39:07.104Z</time></trkpt><trkpt lat="43.4711617" lon="11.03816"><ele>273.0</ele><time>2026-04-05T08:39:08.104Z</time></trkpt><trkpt lat="43.4711833" lon="11.0382867"><ele>273.0</ele><time>2026-04-05T08:39:09.104Z</time></trkpt><trkpt lat="43.4712067" lon="11.0384117"><ele>273.0</ele><time>2026-04-05T08:39:10.104Z</time></trkpt><trkpt lat="43.4712267" lon="11.03854"><ele>273.0</ele><time>2026-04-05T08:39:11.104Z</time></trkpt><trkpt lat="43.4712533" lon="11.03867"><ele>273.0</ele><time>2026-04-05T08:39:12.104Z</time></trkpt><trkpt lat="43.4712817" lon="11.0387983"><ele>272.8</ele><time>2026-04-05T08:39:13.104Z</time></trkpt><trkpt lat="43.4713117" lon="11.0389233"><ele>272.6</ele><time>2026-04-05T08:39:14.104Z</time></trkpt><trkpt lat="43.47135" lon="11.0390467"><ele>272.4</ele><time>2026-04-05T08:39:15.104Z</time></trkpt><trkpt lat="43.4713833" lon="11.03917"><ele>272.2</ele><time>2026-04-05T08:39:16.104Z</time></trkpt><trkpt lat="43.4714183" lon="11.0392917"><ele>272.0</ele><time>2026-04-05T08:39:17.104Z</time></trkpt><trkpt lat="43.4714533" lon="11.0394133"><ele>273.0</ele><time>2026-04-05T08:39:18.104Z</time></trkpt><trkpt lat="43.4714933" lon="11.0395417"><ele>274.0</ele><time>2026-04-05T08:39:19.104Z</time></trkpt><trkpt lat="43.47153" lon="11.0396683"><ele>275.0</ele><time>2026-04-05T08:39:20.104Z</time></trkpt><trkpt lat="43.47157" lon="11.0397833"><ele>276.0</ele><time>2026-04-05T08:39:21.104Z</time></trkpt><trkpt lat="43.4716117" lon="11.03988"><ele>277.0</ele><time>2026-04-05T08:39:22.103Z</time></trkpt><trkpt lat="43.47165" lon="11.0399667"><ele>278.0</ele><time>2026-04-05T08:39:23.104Z</time></trkpt><trkpt lat="43.47168" lon="11.0400533"><ele>279.5</ele><time>2026-04-05T08:39:24.104Z</time></trkpt><trkpt lat="43.4717317" lon="11.0402017"><ele>281.0</ele><time>2026-04-05T08:39:26.104Z</time></trkpt><trkpt lat="43.47177" lon="11.04032"><ele>282.5</ele><time>2026-04-05T08:39:28.104Z</time></trkpt><trkpt lat="43.4718017" lon="11.0404117"><ele>284.0</ele><time>2026-04-05T08:39:30.104Z</time></trkpt><trkpt lat="43.471825" lon="11.0405"><ele>285.5</ele><time>2026-04-05T08:39:32.104Z</time></trkpt><trkpt lat="43.4718483" lon="11.0406"><ele>287.0</ele><time>2026-04-05T08:39:34.104Z</time></trkpt><trkpt lat="43.4718817" lon="11.040715"><ele>288.57142857142856</ele><time>2026-04-05T08:39:37.104Z</time></trkpt><trkpt lat="43.4719033" lon="11.0408133"><ele>290.1428571428571</ele><time>2026-04-05T08:39:39.103Z</time></trkpt><trkpt lat="43.4719267" lon="11.0409083"><ele>291.7142857142857</ele><time>2026-04-05T08:39:41.104Z</time></trkpt><trkpt lat="43.471945" lon="11.0410067"><ele>293.2857142857143</ele><time>2026-04-05T08:39:43.103Z</time></trkpt><trkpt lat="43.4719617" lon="11.0410917"><ele>294.85714285714283</ele><time>2026-04-05T08:39:45.104Z</time></trkpt><trkpt lat="43.471945" lon="11.041205"><ele>296.42857142857144</ele><time>2026-04-05T08:39:47.104Z</time></trkpt><trkpt lat="43.4719283" lon="11.0413033"><ele>298.0</ele><time>2026-04-05T08:39:49.104Z</time></trkpt><trkpt lat="43.4718633" lon="11.041385"><ele>298.0</ele><time>2026-04-05T08:39:52.104Z</time></trkpt><trkpt lat="43.47179" lon="11.0414083"><ele>298.0</ele><time>2026-04-05T08:39:54.104Z</time></trkpt><trkpt lat="43.4717183" lon="11.0414067"><ele>298.0</ele><time>2026-04-05T08:39:56.104Z</time></trkpt><trkpt lat="43.47165" lon="11.0413733"><ele>298.0</ele><time>2026-04-05T08:39:58.103Z</time></trkpt><trkpt lat="43.4715733" lon="11.0412967"><ele>298.0</ele><time>2026-04-05T08:40:01.104Z</time></trkpt><trkpt lat="43.4715367" lon="11.0412133"><ele>298.0</ele><time>2026-04-05T08:40:03.104Z</time></trkpt><trkpt lat="43.47149" lon="11.0411033"><ele>298.0</ele><time>2026-04-05T08:40:06.104Z</time></trkpt><trkpt lat="43.4714467" lon="11.0410067"><ele>298.0</ele><time>2026-04-05T08:40:09.104Z</time></trkpt><trkpt lat="43.4714067" lon="11.040925"><ele>298.0</ele><time>2026-04-05T08:40:11.104Z</time></trkpt><trkpt lat="43.471355" lon="11.04087"><ele>298.0</ele><time>2026-04-05T08:40:13.104Z</time></trkpt><trkpt lat="43.4712783" lon="11.0408267"><ele>298.0</ele><time>2026-04-05T08:40:16.104Z</time></trkpt><trkpt lat="43.4712083" lon="11.0407583"><ele>298.0</ele><time>2026-04-05T08:40:19.104Z</time></trkpt><trkpt lat="43.4711283" lon="11.0407367"><ele>297.3333333333333</ele><time>2026-04-05T08:40:22.104Z</time></trkpt><trkpt lat="43.4710567" lon="11.0407433"><ele>296.66666666666663</ele><time>2026-04-05T08:40:24.104Z</time></trkpt><trkpt lat="43.47098" lon="11.0407633"><ele>296.0</ele><time>2026-04-05T08:40:26.104Z</time></trkpt><trkpt lat="43.47087" lon="11.04079"><ele>295.3333333333333</ele><time>2026-04-05T08:40:28.104Z</time></trkpt><trkpt lat="43.4708067" lon="11.0408067"><ele>294.6666666666667</ele><time>2026-04-05T08:40:29.104Z</time></trkpt><trkpt lat="43.47074" lon="11.04082"><ele>294.0</ele><time>2026-04-05T08:40:30.104Z</time></trkpt><trkpt lat="43.4706667" lon="11.040835"><ele>295.8333333333333</ele><time>2026-04-05T08:40:31.104Z</time></trkpt><trkpt lat="43.4705933" lon="11.0408583"><ele>297.6666666666667</ele><time>2026-04-05T08:40:32.104Z</time></trkpt><trkpt lat="43.4705183" lon="11.0408867"><ele>299.5</ele><time>2026-04-05T08:40:33.104Z</time></trkpt><trkpt lat="43.47044" lon="11.0409067"><ele>301.33333333333337</ele><time>2026-04-05T08:40:34.104Z</time></trkpt><trkpt lat="43.4703567" lon="11.0409267"><ele>303.1666666666667</ele><time>2026-04-05T08:40:35.104Z</time></trkpt><trkpt lat="43.4702783" lon="11.0409483"><ele>305.0</ele><time>2026-04-05T08:40:36.104Z</time></trkpt><trkpt lat="43.4702017" lon="11.040955"><ele>305.1666666666667</ele><time>2026-04-05T08:40:37.104Z</time></trkpt><trkpt lat="43.470135" lon="11.0409433"><ele>305.33333333333337</ele><time>2026-04-05T08:40:38.104Z</time></trkpt><trkpt lat="43.4700683" lon="11.0409167"><ele>305.5</ele><time>2026-04-05T08:40:39.104Z</time></trkpt><trkpt lat="43.4699983" lon="11.0408767"><ele>305.6666666666667</ele><time>2026-04-05T08:40:40.104Z</time></trkpt><trkpt lat="43.4699167" lon="11.0408317"><ele>305.8333333333333</ele><time>2026-04-05T08:40:41.104Z</time></trkpt><trkpt lat="43.4698267" lon="11.04079"><ele>306.0</ele><time>2026-04-05T08:40:42.104Z</time></trkpt><trkpt lat="43.4697333" lon="11.040755"><ele>306.2</ele><time>2026-04-05T08:40:43.104Z</time></trkpt><trkpt lat="43.4696383" lon="11.04073"><ele>306.40000000000003</ele><time>2026-04-05T08:40:44.104Z</time></trkpt><trkpt lat="43.469545" lon="11.04071"><ele>306.6</ele><time>2026-04-05T08:40:45.104Z</time></trkpt><trkpt lat="43.4694567" lon="11.0406883"><ele>306.8</ele><time>2026-04-05T08:40:46.104Z</time></trkpt><trkpt lat="43.4693667" lon="11.0406633"><ele>307.0</ele><time>2026-04-05T08:40:47.104Z</time></trkpt><trkpt lat="43.4692767" lon="11.0406417"><ele>307.0</ele><time>2026-04-05T08:40:48.104Z</time></trkpt><trkpt lat="43.4691933" lon="11.0406167"><ele>307.0</ele><time>2026-04-05T08:40:49.104Z</time></trkpt><trkpt lat="43.4691133" lon="11.0405983"><ele>307.0</ele><time>2026-04-05T08:40:50.104Z</time></trkpt><trkpt lat="43.469035" lon="11.04057"><ele>307.0</ele><time>2026-04-05T08:40:51.103Z</time></trkpt><trkpt lat="43.468955" lon="11.0405367"><ele>307.0</ele><time>2026-04-05T08:40:52.104Z</time></trkpt><trkpt lat="43.46888" lon="11.04049"><ele>307.0</ele><time>2026-04-05T08:40:53.104Z</time></trkpt><trkpt lat="43.46881" lon="11.0404333"><ele>309.16666666666663</ele><time>2026-04-05T08:40:54.104Z</time></trkpt><trkpt lat="43.46874" lon="11.040375"><ele>311.3333333333333</ele><time>2026-04-05T08:40:55.104Z</time></trkpt><trkpt lat="43.4686783" lon="11.0403167"><ele>313.5</ele><time>2026-04-05T08:40:56.104Z</time></trkpt><trkpt lat="43.4686217" lon="11.0402783"><ele>315.6666666666667</ele><time>2026-04-05T08:40:57.104Z</time></trkpt><trkpt lat="43.4685483" lon="11.0402583"><ele>317.83333333333337</ele><time>2026-04-05T08:40:59.104Z</time></trkpt><trkpt lat="43.46848" lon="11.0402"><ele>320.0</ele><time>2026-04-05T08:41:03.104Z</time></trkpt><trkpt lat="43.468425" lon="11.040085"><ele>320.0</ele><time>2026-04-05T08:41:05.104Z</time></trkpt><trkpt lat="43.46833" lon="11.0400217"><ele>320.0</ele><time>2026-04-05T08:41:07.104Z</time></trkpt><trkpt lat="43.46827" lon="11.03998"><ele>320.0</ele><time>2026-04-05T08:41:08.104Z</time></trkpt><trkpt lat="43.4682033" lon="11.0399633"><ele>320.0</ele><time>2026-04-05T08:41:09.104Z</time></trkpt><trkpt lat="43.4681317" lon="11.0399667"><ele>320.0</ele><time>2026-04-05T08:41:10.103Z</time></trkpt><trkpt lat="43.468055" lon="11.0399617"><ele>320.0</ele><time>2026-04-05T08:41:11.103Z</time></trkpt><trkpt lat="43.46798" lon="11.03995"><ele>319.1666666666667</ele><time>2026-04-05T08:41:12.104Z</time></trkpt><trkpt lat="43.4679033" lon="11.0399533"><ele>318.33333333333337</ele><time>2026-04-05T08:41:13.104Z</time></trkpt><trkpt lat="43.4678233" lon="11.0399667"><ele>317.5</ele><time>2026-04-05T08:41:14.104Z</time></trkpt><trkpt lat="43.4677367" lon="11.0399867"><ele>316.6666666666667</ele><time>2026-04-05T08:41:15.104Z</time></trkpt><trkpt lat="43.4676517" lon="11.040015"><ele>315.8333333333333</ele><time>2026-04-05T08:41:16.104Z</time></trkpt><trkpt lat="43.4675733" lon="11.0400517"><ele>315.0</ele><time>2026-04-05T08:41:17.104Z</time></trkpt><trkpt lat="43.4674917" lon="11.0400917"><ele>315.0</ele><time>2026-04-05T08:41:18.104Z</time></trkpt><trkpt lat="43.4674133" lon="11.0401383"><ele>315.0</ele><time>2026-04-05T08:41:19.104Z</time></trkpt><trkpt lat="43.4673383" lon="11.0401867"><ele>315.0</ele><time>2026-04-05T08:41:20.104Z</time></trkpt><trkpt lat="43.4672617" lon="11.0402333"><ele>315.0</ele><time>2026-04-05T08:41:21.104Z</time></trkpt><trkpt lat="43.467185" lon="11.0402917"><ele>315.0</ele><time>2026-04-05T08:41:22.104Z</time></trkpt><trkpt lat="43.4671117" lon="11.040355"><ele>315.0</ele><time>2026-04-05T08:41:23.104Z</time></trkpt><trkpt lat="43.467045" lon="11.0404217"><ele>314.1666666666667</ele><time>2026-04-05T08:41:24.104Z</time></trkpt><trkpt lat="43.4669767" lon="11.0404917"><ele>313.3333333333333</ele><time>2026-04-05T08:41:25.104Z</time></trkpt><trkpt lat="43.46691" lon="11.0405617"><ele>312.5</ele><time>2026-04-05T08:41:26.104Z</time></trkpt><trkpt lat="43.4668517" lon="11.0406467"><ele>311.66666666666663</ele><time>2026-04-05T08:41:27.104Z</time></trkpt><trkpt lat="43.4667967" lon="11.0407383"><ele>310.8333333333333</ele><time>2026-04-05T08:41:28.104Z</time></trkpt><trkpt lat="43.4667433" lon="11.0408367"><ele>310.0</ele><time>2026-04-05T08:41:29.104Z</time></trkpt><trkpt lat="43.466695" lon="11.0409267"><ele>310.0</ele><time>2026-04-05T08:41:30.104Z</time></trkpt><trkpt lat="43.466645" lon="11.0410133"><ele>310.0</ele><time>2026-04-05T08:41:31.104Z</time></trkpt><trkpt lat="43.466595" lon="11.0411"><ele>310.0</ele><time>2026-04-05T08:41:32.104Z</time></trkpt><trkpt lat="43.4665433" lon="11.041185"><ele>310.0</ele><time>2026-04-05T08:41:33.104Z</time></trkpt><trkpt lat="43.4664867" lon="11.0412683"><ele>310.0</ele><time>2026-04-05T08:41:34.104Z</time></trkpt><trkpt lat="43.4664233" lon="11.04135"><ele>310.0</ele><time>2026-04-05T08:41:35.104Z</time></trkpt><trkpt lat="43.4663583" lon="11.0414267"><ele>310.0</ele><time>2026-04-05T08:41:36.104Z</time></trkpt><trkpt lat="43.4662933" lon="11.0414917"><ele>310.0</ele><time>2026-04-05T08:41:37.104Z</time></trkpt><trkpt lat="43.4662283" lon="11.0415483"><ele>310.0</ele><time>2026-04-05T08:41:38.104Z</time></trkpt><trkpt lat="43.4661617" lon="11.041595"><ele>310.0</ele><time>2026-04-05T08:41:39.104Z</time></trkpt><trkpt lat="43.4660883" lon="11.0416367"><ele>310.0</ele><time>2026-04-05T08:41:40.104Z</time></trkpt><trkpt lat="43.466005" lon="11.0416667"><ele>310.0</ele><time>2026-04-05T08:41:41.104Z</time></trkpt><trkpt lat="43.4659217" lon="11.041685"><ele>309.6</ele><time>2026-04-05T08:41:42.104Z</time></trkpt><trkpt lat="43.46582" lon="11.0416983"><ele>309.2</ele><time>2026-04-05T08:41:43.104Z</time></trkpt><trkpt lat="43.465725" lon="11.041705"><ele>308.8</ele><time>2026-04-05T08:41:44.104Z</time></trkpt><trkpt lat="43.4656283" lon="11.0417017"><ele>308.4</ele><time>2026-04-05T08:41:45.104Z</time></trkpt><trkpt lat="43.4655283" lon="11.041695"><ele>308.0</ele><time>2026-04-05T08:41:46.104Z</time></trkpt><trkpt lat="43.46543" lon="11.04169"><ele>308.0</ele><time>2026-04-05T08:41:47.104Z</time></trkpt><trkpt lat="43.4653417" lon="11.04169"><ele>308.0</ele><time>2026-04-05T08:41:48.104Z</time></trkpt><trkpt lat="43.4652667" lon="11.0416967"><ele>308.0</ele><time>2026-04-05T08:41:49.104Z</time></trkpt><trkpt lat="43.4651917" lon="11.0416983"><ele>308.0</ele><time>2026-04-05T08:41:50.104Z</time></trkpt><trkpt lat="43.4651283" lon="11.0416967"><ele>308.0</ele><time>2026-04-05T08:41:51.104Z</time></trkpt><trkpt lat="43.4650617" lon="11.0416917"><ele>308.0</ele><time>2026-04-05T08:41:52.104Z</time></trkpt><trkpt lat="43.4649967" lon="11.041685"><ele>308.0</ele><time>2026-04-05T08:41:53.104Z</time></trkpt><trkpt lat="43.46493" lon="11.04168"><ele>308.0</ele><time>2026-04-05T08:41:54.104Z</time></trkpt><trkpt lat="43.464815" lon="11.0416833"><ele>308.0</ele><time>2026-04-05T08:41:56.104Z</time></trkpt><trkpt lat="43.4647467" lon="11.041685"><ele>308.0</ele><time>2026-04-05T08:41:58.104Z</time></trkpt><trkpt lat="43.4646833" lon="11.0416633"><ele>308.0</ele><time>2026-04-05T08:42:01.103Z</time></trkpt><trkpt lat="43.4646067" lon="11.0416217"><ele>308.0</ele><time>2026-04-05T08:42:04.104Z</time></trkpt><trkpt lat="43.4645167" lon="11.04156"><ele>308.0</ele><time>2026-04-05T08:42:06.104Z</time></trkpt><trkpt lat="43.4644217" lon="11.041515"><ele>306.0</ele><time>2026-04-05T08:42:08.104Z</time></trkpt><trkpt lat="43.46432" lon="11.0415217"><ele>304.0</ele><time>2026-04-05T08:42:14.104Z</time></trkpt><trkpt lat="43.46425" lon="11.041545"><ele>302.0</ele><time>2026-04-05T08:42:17.104Z</time></trkpt><trkpt lat="43.464165" lon="11.0415467"><ele>300.0</ele><time>2026-04-05T08:42:19.104Z</time></trkpt><trkpt lat="43.46407" lon="11.0415433"><ele>298.0</ele><time>2026-04-05T08:42:21.104Z</time></trkpt><trkpt lat="43.46397" lon="11.0415417"><ele>298.0</ele><time>2026-04-05T08:42:23.104Z</time></trkpt><trkpt lat="43.4638967" lon="11.0415533"><ele>298.0</ele><time>2026-04-05T08:42:25.104Z</time></trkpt><trkpt lat="43.463805" lon="11.0415517"><ele>298.0</ele><time>2026-04-05T08:42:27.104Z</time></trkpt><trkpt lat="43.4637067" lon="11.0415867"><ele>298.0</ele><time>2026-04-05T08:42:29.104Z</time></trkpt><trkpt lat="43.4636417" lon="11.0416667"><ele>298.0</ele><time>2026-04-05T08:42:31.104Z</time></trkpt><trkpt lat="43.4635967" lon="11.0417883"><ele>298.0</ele><time>2026-04-05T08:42:34.104Z</time></trkpt><trkpt lat="43.4635533" lon="11.0419217"><ele>298.0</ele><time>2026-04-05T08:42:36.104Z</time></trkpt><trkpt lat="43.4635583" lon="11.0420433"><ele>298.0</ele><time>2026-04-05T08:42:38.103Z</time></trkpt><trkpt lat="43.4635717" lon="11.0421417"><ele>298.0</ele><time>2026-04-05T08:42:40.104Z</time></trkpt><trkpt lat="43.4636583" lon="11.0423283"><ele>298.0</ele><time>2026-04-05T08:42:51.104Z</time></trkpt><trkpt lat="43.4637267" lon="11.0423867"><ele>299.3333333333333</ele><time>2026-04-05T08:42:53.103Z</time></trkpt><trkpt lat="43.4638033" lon="11.0424117"><ele>300.66666666666663</ele><time>2026-04-05T08:42:55.104Z</time></trkpt><trkpt lat="43.4638833" lon="11.0424183"><ele>302.0</ele><time>2026-04-05T08:42:57.104Z</time></trkpt><trkpt lat="43.4639833" lon="11.0424367"><ele>303.3333333333333</ele><time>2026-04-05T08:42:59.104Z</time></trkpt><trkpt lat="43.4640867" lon="11.042445"><ele>304.6666666666667</ele><time>2026-04-05T08:43:01.104Z</time></trkpt><trkpt lat="43.4641633" lon="11.04245"><ele>306.0</ele><time>2026-04-05T08:43:03.104Z</time></trkpt><trkpt lat="43.4642383" lon="11.0424567"><ele>306.0</ele><time>2026-04-05T08:43:08.104Z</time></trkpt><trkpt lat="43.4643217" lon="11.0424767"><ele>306.0</ele><time>2026-04-05T08:43:11.104Z</time></trkpt><trkpt lat="43.4644033" lon="11.042475"><ele>306.0</ele><time>2026-04-05T08:43:14.104Z</time></trkpt><trkpt lat="43.4644533" lon="11.0424017"><ele>306.0</ele><time>2026-04-05T08:43:16.103Z</time></trkpt><trkpt lat="43.464475" lon="11.0422717"><ele>306.0</ele><time>2026-04-05T08:43:18.104Z</time></trkpt><trkpt lat="43.4644967" lon="11.0421083"><ele>306.0</ele><time>2026-04-05T08:43:20.104Z</time></trkpt><trkpt lat="43.4645033" lon="11.04202"><ele>306.0</ele><time>2026-04-05T08:43:21.104Z</time></trkpt><trkpt lat="43.4645167" lon="11.0419117"><ele>306.0</ele><time>2026-04-05T08:43:23.104Z</time></trkpt><trkpt lat="43.4645617" lon="11.0418167"><ele>306.0</ele><time>2026-04-05T08:43:26.103Z</time></trkpt><trkpt lat="43.4646233" lon="11.041765"><ele>306.0</ele><time>2026-04-05T08:43:28.104Z</time></trkpt><trkpt lat="43.464705" lon="11.04173"><ele>306.0</ele><time>2026-04-05T08:43:30.104Z</time></trkpt><trkpt lat="43.4648017" lon="11.0417117"><ele>306.40000000000003</ele><time>2026-04-05T08:43:32.104Z</time></trkpt><trkpt lat="43.4649233" lon="11.0417083"><ele>306.8</ele><time>2026-04-05T08:43:34.104Z</time></trkpt><trkpt lat="43.4650483" lon="11.041715"><ele>307.20000000000005</ele><time>2026-04-05T08:43:36.104Z</time></trkpt><trkpt lat="43.4651183" lon="11.0417183"><ele>307.6</ele><time>2026-04-05T08:43:37.103Z</time></trkpt><trkpt lat="43.4651917" lon="11.0417233"><ele>308.0</ele><time>2026-04-05T08:43:38.104Z</time></trkpt><trkpt lat="43.465265" lon="11.0417267"><ele>308.0</ele><time>2026-04-05T08:43:39.104Z</time></trkpt><trkpt lat="43.4653417" lon="11.0417333"><ele>308.0</ele><time>2026-04-05T08:43:40.104Z</time></trkpt><trkpt lat="43.4654133" lon="11.0417417"><ele>308.0</ele><time>2026-04-05T08:43:41.104Z</time></trkpt><trkpt lat="43.46552" lon="11.0417433"><ele>308.0</ele><time>2026-04-05T08:43:43.104Z</time></trkpt><trkpt lat="43.4656017" lon="11.0417433"><ele>308.0</ele><time>2026-04-05T08:43:45.104Z</time></trkpt><trkpt lat="43.4656883" lon="11.0417433"><ele>308.0</ele><time>2026-04-05T08:43:47.103Z</time></trkpt><trkpt lat="43.4657983" lon="11.041745"><ele>307.7142857142857</ele><time>2026-04-05T08:43:49.104Z</time></trkpt><trkpt lat="43.4658683" lon="11.0417383"><ele>307.42857142857144</ele><time>2026-04-05T08:43:50.104Z</time></trkpt><trkpt lat="43.4659433" lon="11.0417183"><ele>307.1428571428571</ele><time>2026-04-05T08:43:51.103Z</time></trkpt><trkpt lat="43.4660033" lon="11.0416917"><ele>306.8571428571429</ele><time>2026-04-05T08:43:52.104Z</time></trkpt><trkpt lat="43.4660717" lon="11.041665"><ele>306.57142857142856</ele><time>2026-04-05T08:43:53.104Z</time></trkpt><trkpt lat="43.46614" lon="11.0416233"><ele>306.2857142857143</ele><time>2026-04-05T08:43:54.104Z</time></trkpt><trkpt lat="43.4662033" lon="11.0415683"><ele>306.0</ele><time>2026-04-05T08:43:55.104Z</time></trkpt><trkpt lat="43.4662667" lon="11.0415117"><ele>306.8</ele><time>2026-04-05T08:43:56.104Z</time></trkpt><trkpt lat="43.4663217" lon="11.0414533"><ele>307.6</ele><time>2026-04-05T08:43:57.104Z</time></trkpt><trkpt lat="43.4664117" lon="11.0413433"><ele>308.4</ele><time>2026-04-05T08:43:59.104Z</time></trkpt><trkpt lat="43.4664933" lon="11.04123"><ele>309.2</ele><time>2026-04-05T08:44:01.104Z</time></trkpt><trkpt lat="43.4665633" lon="11.0411233"><ele>310.0</ele><time>2026-04-05T08:44:03.104Z</time></trkpt><trkpt lat="43.4666133" lon="11.0410267"><ele>310.0</ele><time>2026-04-05T08:44:05.104Z</time></trkpt><trkpt lat="43.4667183" lon="11.04085"><ele>310.0</ele><time>2026-04-05T08:44:08.104Z</time></trkpt><trkpt lat="43.4667817" lon="11.0407483"><ele>310.0</ele><time>2026-04-05T08:44:10.104Z</time></trkpt><trkpt lat="43.4668333" lon="11.04068"><ele>310.0</ele><time>2026-04-05T08:44:12.104Z</time></trkpt><trkpt lat="43.46689" lon="11.0406117"><ele>310.0</ele><time>2026-04-05T08:44:14.104Z</time></trkpt><trkpt lat="43.4669417" lon="11.0405533"><ele>299.0</ele><time>2026-04-05T08:44:16.103Z</time></trkpt></trkseg><trkseg><trkpt lat="43.4684933" lon="11.0399917"><ele>320.0</ele><time>2026-04-05T09:27:16.103Z</time></trkpt><trkpt lat="43.4684333" lon="11.0400483"><ele>320.0</ele><time>2026-04-05T09:27:23.103Z</time></trkpt><trkpt lat="43.468465" lon="11.040165"><ele>320.0</ele><time>2026-04-05T09:27:54.103Z</time></trkpt><trkpt lat="43.468565" lon="11.0402467"><ele>320.0</ele><time>2026-04-05T09:27:56.103Z</time></trkpt><trkpt lat="43.4686283" lon="11.0402967"><ele>320.0</ele><time>2026-04-05T09:27:57.103Z</time></trkpt><trkpt lat="43.4686883" lon="11.0403467"><ele>320.0</ele><time>2026-04-05T09:27:58.103Z</time></trkpt><trkpt lat="43.4687467" lon="11.0403983"><ele>318.1428571428571</ele><time>2026-04-05T09:27:59.103Z</time></trkpt><trkpt lat="43.4688017" lon="11.04045"><ele>316.2857142857143</ele><time>2026-04-05T09:28:00.103Z</time></trkpt><trkpt lat="43.46886" lon="11.0404983"><ele>314.42857142857144</ele><time>2026-04-05T09:28:01.103Z</time></trkpt><trkpt lat="43.4689217" lon="11.0405383"><ele>312.57142857142856</ele><time>2026-04-05T09:28:02.103Z</time></trkpt><trkpt lat="43.4689867" lon="11.040575"><ele>310.7142857142857</ele><time>2026-04-05T09:28:03.103Z</time></trkpt><trkpt lat="43.4690483" lon="11.04061"><ele>308.85714285714283</ele><time>2026-04-05T09:28:04.103Z</time></trkpt><trkpt lat="43.4691133" lon="11.040645"><ele>307.0</ele><time>2026-04-05T09:28:05.102Z</time></trkpt><trkpt lat="43.4691817" lon="11.0406767"><ele>307.0</ele><time>2026-04-05T09:28:06.103Z</time></trkpt><trkpt lat="43.4692567" lon="11.0406967"><ele>307.0</ele><time>2026-04-05T09:28:07.103Z</time></trkpt><trkpt lat="43.46933" lon="11.0407133"><ele>307.0</ele><time>2026-04-05T09:28:08.103Z</time></trkpt><trkpt lat="43.4694083" lon="11.0407267"><ele>307.0</ele><time>2026-04-05T09:28:09.103Z</time></trkpt><trkpt lat="43.4694867" lon="11.0407417"><ele>307.0</ele><time>2026-04-05T09:28:10.103Z</time></trkpt><trkpt lat="43.4695683" lon="11.04076"><ele>307.0</ele><time>2026-04-05T09:28:11.103Z</time></trkpt><trkpt lat="43.4696483" lon="11.0407783"><ele>306.8333333333333</ele><time>2026-04-05T09:28:12.103Z</time></trkpt><trkpt lat="43.4697217" lon="11.0407967"><ele>306.66666666666663</ele><time>2026-04-05T09:28:13.103Z</time></trkpt><trkpt lat="43.46979" lon="11.040815"><ele>306.5</ele><time>2026-04-05T09:28:14.102Z</time></trkpt><trkpt lat="43.46985" lon="11.0408467"><ele>306.3333333333333</ele><time>2026-04-05T09:28:15.102Z</time></trkpt><trkpt lat="43.469945" lon="11.040905"><ele>306.1666666666667</ele><time>2026-04-05T09:28:17.103Z</time></trkpt><trkpt lat="43.470005" lon="11.0409517"><ele>306.0</ele><time>2026-04-05T09:28:19.102Z</time></trkpt><trkpt lat="43.470075" lon="11.0410017"><ele>306.0</ele><time>2026-04-05T09:28:23.103Z</time></trkpt><trkpt lat="43.4701533" lon="11.0410367"><ele>306.0</ele><time>2026-04-05T09:28:27.103Z</time></trkpt><trkpt lat="43.4702417" lon="11.041015"><ele>306.0</ele><time>2026-04-05T09:28:29.103Z</time></trkpt><trkpt lat="43.470365" lon="11.04098"><ele>306.0</ele><time>2026-04-05T09:28:31.103Z</time></trkpt><trkpt lat="43.4704317" lon="11.040965"><ele>306.0</ele><time>2026-04-05T09:28:32.103Z</time></trkpt><trkpt lat="43.4705" lon="11.0409483"><ele>306.0</ele><time>2026-04-05T09:28:33.103Z</time></trkpt><trkpt lat="43.4705717" lon="11.040935"><ele>305.85714285714283</ele><time>2026-04-05T09:28:34.103Z</time></trkpt><trkpt lat="43.47064" lon="11.0409183"><ele>305.7142857142857</ele><time>2026-04-05T09:28:35.103Z</time></trkpt><trkpt lat="43.47071" lon="11.0409033"><ele>305.57142857142856</ele><time>2026-04-05T09:28:36.103Z</time></trkpt><trkpt lat="43.4707767" lon="11.0408883"><ele>305.42857142857144</ele><time>2026-04-05T09:28:37.103Z</time></trkpt><trkpt lat="43.4708433" lon="11.040865"><ele>305.2857142857143</ele><time>2026-04-05T09:28:38.102Z</time></trkpt><trkpt lat="43.47091" lon="11.0408467"><ele>305.14285714285717</ele><time>2026-04-05T09:28:39.103Z</time></trkpt><trkpt lat="43.47098" lon="11.04083"><ele>305.0</ele><time>2026-04-05T09:28:40.102Z</time></trkpt><trkpt lat="43.4710517" lon="11.04081"><ele>305.0</ele><time>2026-04-05T09:28:41.102Z</time></trkpt><trkpt lat="43.4711233" lon="11.0408017"><ele>305.0</ele><time>2026-04-05T09:28:42.103Z</time></trkpt><trkpt lat="43.471195" lon="11.0408117"><ele>305.0</ele><time>2026-04-05T09:28:43.103Z</time></trkpt><trkpt lat="43.4712683" lon="11.0408483"><ele>305.0</ele><time>2026-04-05T09:28:44.103Z</time></trkpt><trkpt lat="43.4713383" lon="11.04089"><ele>305.0</ele><time>2026-04-05T09:28:45.103Z</time></trkpt><trkpt lat="43.4713967" lon="11.0409533"><ele>305.0</ele><time>2026-04-05T09:28:46.103Z</time></trkpt><trkpt lat="43.4714533" lon="11.04102"><ele>305.0</ele><time>2026-04-05T09:28:47.103Z</time></trkpt><trkpt lat="43.4715" lon="11.0411033"><ele>303.6</ele><time>2026-04-05T09:28:48.103Z</time></trkpt><trkpt lat="43.47154" lon="11.0411883"><ele>302.2</ele><time>2026-04-05T09:28:49.103Z</time></trkpt><trkpt lat="43.471575" lon="11.0412717"><ele>300.8</ele><time>2026-04-05T09:28:50.103Z</time></trkpt><trkpt lat="43.4716383" lon="11.0413967"><ele>299.4</ele><time>2026-04-05T09:28:52.103Z</time></trkpt><trkpt lat="43.47172" lon="11.0414967"><ele>298.0</ele><time>2026-04-05T09:28:54.103Z</time></trkpt><trkpt lat="43.471825" lon="11.0415533"><ele>298.0</ele><time>2026-04-05T09:28:56.103Z</time></trkpt><trkpt lat="43.47194" lon="11.0415383"><ele>298.0</ele><time>2026-04-05T09:28:58.102Z</time></trkpt><trkpt lat="43.4719833" lon="11.041455"><ele>298.0</ele><time>2026-04-05T09:28:59.103Z</time></trkpt><trkpt lat="43.4720117" lon="11.04135"><ele>298.0</ele><time>2026-04-05T09:29:00.103Z</time></trkpt><trkpt lat="43.4720217" lon="11.0412317"><ele>298.0</ele><time>2026-04-05T09:29:01.103Z</time></trkpt><trkpt lat="43.4720133" lon="11.0411067"><ele>298.0</ele><time>2026-04-05T09:29:02.103Z</time></trkpt><trkpt lat="43.47199" lon="11.04099"><ele>298.0</ele><time>2026-04-05T09:29:03.103Z</time></trkpt><trkpt lat="43.4719567" lon="11.0408733"><ele>298.0</ele><time>2026-04-05T09:29:04.103Z</time></trkpt><trkpt lat="43.4719167" lon="11.04076"><ele>298.0</ele><time>2026-04-05T09:29:05.103Z</time></trkpt><trkpt lat="43.4718767" lon="11.04065"><ele>298.0</ele><time>2026-04-05T09:29:06.103Z</time></trkpt><trkpt lat="43.4718383" lon="11.0405417"><ele>298.0</ele><time>2026-04-05T09:29:07.103Z</time></trkpt><trkpt lat="43.4718033" lon="11.040445"><ele>298.0</ele><time>2026-04-05T09:29:08.102Z</time></trkpt><trkpt lat="43.4717767" lon="11.0403633"><ele>295.8</ele><time>2026-04-05T09:29:09.103Z</time></trkpt><trkpt lat="43.4717567" lon="11.0402483"><ele>293.6</ele><time>2026-04-05T09:29:11.103Z</time></trkpt><trkpt lat="43.47181" lon="11.0401867"><ele>291.4</ele><time>2026-04-05T09:29:13.103Z</time></trkpt><trkpt lat="43.4719417" lon="11.04023"><ele>289.2</ele><time>2026-04-05T09:29:15.103Z</time></trkpt><trkpt lat="43.472035" lon="11.04027"><ele>287.0</ele><time>2026-04-05T09:29:16.103Z</time></trkpt><trkpt lat="43.472135" lon="11.0403067"><ele>283.8</ele><time>2026-04-05T09:29:17.102Z</time></trkpt><trkpt lat="43.47224" lon="11.040345"><ele>280.6</ele><time>2026-04-05T09:29:18.103Z</time></trkpt><trkpt lat="43.472345" lon="11.0403867"><ele>277.40000000000003</ele><time>2026-04-05T09:29:19.102Z</time></trkpt><trkpt lat="43.4724483" lon="11.0404333"><ele>274.2</ele><time>2026-04-05T09:29:20.103Z</time></trkpt><trkpt lat="43.4725517" lon="11.0404867"><ele>271.0</ele><time>2026-04-05T09:29:21.103Z</time></trkpt><trkpt lat="43.4726567" lon="11.040545"><ele>271.0</ele><time>2026-04-05T09:29:22.103Z</time></trkpt><trkpt lat="43.4727617" lon="11.040605"><ele>271.0</ele><time>2026-04-05T09:29:23.103Z</time></trkpt><trkpt lat="43.472865" lon="11.04067"><ele>271.0</ele><time>2026-04-05T09:29:24.103Z</time></trkpt><trkpt lat="43.4729683" lon="11.0407333"><ele>271.0</ele><time>2026-04-05T09:29:25.103Z</time></trkpt><trkpt lat="43.4730683" lon="11.0408"><ele>270.66666666666663</ele><time>2026-04-05T09:29:26.103Z</time></trkpt><trkpt lat="43.4731667" lon="11.0408667"><ele>270.3333333333333</ele><time>2026-04-05T09:29:27.103Z</time></trkpt><trkpt lat="43.47326" lon="11.0409317"><ele>270.0</ele><time>2026-04-05T09:29:28.103Z</time></trkpt><trkpt lat="43.47372" lon="11.0413467"><ele>267.25</ele><time>2026-04-05T09:29:30.992Z</time></trkpt><trkpt lat="43.4739" lon="11.041425"><ele>264.5</ele><time>2026-04-05T09:29:35.103Z</time></trkpt><trkpt lat="43.4739967" lon="11.04148"><ele>261.75</ele><time>2026-04-05T09:29:36.103Z</time></trkpt><trkpt lat="43.47409" lon="11.0415267"><ele>259.0</ele><time>2026-04-05T09:29:37.103Z</time></trkpt><trkpt lat="43.4741883" lon="11.0415717"><ele>259.0</ele><time>2026-04-05T09:29:38.103Z</time></trkpt><trkpt lat="43.4742967" lon="11.0416167"><ele>259.0</ele><time>2026-04-05T09:29:39.103Z</time></trkpt><trkpt lat="43.4744067" lon="11.04166"><ele>259.0</ele><time>2026-04-05T09:29:40.103Z</time></trkpt><trkpt lat="43.4745167" lon="11.041705"><ele>259.0</ele><time>2026-04-05T09:29:41.102Z</time></trkpt><trkpt lat="43.4746267" lon="11.0417467"><ele>258.0</ele><time>2026-04-05T09:29:42.103Z</time></trkpt><trkpt lat="43.47474" lon="11.0417917"><ele>257.0</ele><time>2026-04-05T09:29:43.103Z</time></trkpt><trkpt lat="43.474855" lon="11.0418417"><ele>256.0</ele><time>2026-04-05T09:29:44.103Z</time></trkpt><trkpt lat="43.4749683" lon="11.0418917"><ele>255.0</ele><time>2026-04-05T09:29:45.103Z</time></trkpt><trkpt lat="43.4750783" lon="11.04194"><ele>255.0</ele><time>2026-04-05T09:29:46.103Z</time></trkpt><trkpt lat="43.4751867" lon="11.0419867"><ele>255.0</ele><time>2026-04-05T09:29:47.103Z</time></trkpt><trkpt lat="43.475295" lon="11.0420317"><ele>255.0</ele><time>2026-04-05T09:29:48.103Z</time></trkpt><trkpt lat="43.4754033" lon="11.0420783"><ele>255.0</ele><time>2026-04-05T09:29:49.103Z</time></trkpt><trkpt lat="43.4755067" lon="11.0421317"><ele>255.4</ele><time>2026-04-05T09:29:50.103Z</time></trkpt><trkpt lat="43.475605" lon="11.042195"><ele>255.8</ele><time>2026-04-05T09:29:51.103Z</time></trkpt><trkpt lat="43.475705" lon="11.0422583"><ele>256.2</ele><time>2026-04-05T09:29:52.103Z</time></trkpt><trkpt lat="43.4758033" lon="11.0423233"><ele>256.6</ele><time>2026-04-05T09:29:53.103Z</time></trkpt><trkpt lat="43.4759017" lon="11.0423867"><ele>257.0</ele><time>2026-04-05T09:29:54.103Z</time></trkpt><trkpt lat="43.4760017" lon="11.0424467"><ele>255.6</ele><time>2026-04-05T09:29:55.103Z</time></trkpt><trkpt lat="43.4760983" lon="11.0425067"><ele>254.2</ele><time>2026-04-05T09:29:56.103Z</time></trkpt><trkpt lat="43.476195" lon="11.0425683"><ele>252.8</ele><time>2026-04-05T09:29:57.103Z</time></trkpt><trkpt lat="43.4762883" lon="11.04264"><ele>251.4</ele><time>2026-04-05T09:29:58.102Z</time></trkpt><trkpt lat="43.476385" lon="11.04272"><ele>250.0</ele><time>2026-04-05T09:29:59.103Z</time></trkpt><trkpt lat="43.47648" lon="11.042795"><ele>249.8</ele><time>2026-04-05T09:30:00.103Z</time></trkpt><trkpt lat="43.4765717" lon="11.0428667"><ele>249.6</ele><time>2026-04-05T09:30:01.103Z</time></trkpt><trkpt lat="43.4766617" lon="11.0429367"><ele>249.39999999999998</ele><time>2026-04-05T09:30:02.102Z</time></trkpt><trkpt lat="43.4767467" lon="11.0430067"><ele>249.2</ele><time>2026-04-05T09:30:03.103Z</time></trkpt><trkpt lat="43.4768267" lon="11.0430733"><ele>249.0</ele><time>2026-04-05T09:30:04.103Z</time></trkpt><trkpt lat="43.4769017" lon="11.0431417"><ele>249.0</ele><time>2026-04-05T09:30:05.103Z</time></trkpt><trkpt lat="43.4769733" lon="11.0432133"><ele>249.0</ele><time>2026-04-05T09:30:06.103Z</time></trkpt><trkpt lat="43.4770367" lon="11.0432883"><ele>249.0</ele><time>2026-04-05T09:30:07.103Z</time></trkpt><trkpt lat="43.477095" lon="11.0433667"><ele>249.0</ele><time>2026-04-05T09:30:08.103Z</time></trkpt><trkpt lat="43.47715" lon="11.0434533"><ele>249.0</ele><time>2026-04-05T09:30:09.102Z</time></trkpt><trkpt lat="43.4772083" lon="11.043545"><ele>249.0</ele><time>2026-04-05T09:30:10.103Z</time></trkpt><trkpt lat="43.4772667" lon="11.043645"><ele>247.39999999999998</ele><time>2026-04-05T09:30:11.103Z</time></trkpt><trkpt lat="43.4773317" lon="11.0437483"><ele>245.79999999999998</ele><time>2026-04-05T09:30:12.103Z</time></trkpt><trkpt lat="43.4774" lon="11.0438533"><ele>244.20000000000002</ele><time>2026-04-05T09:30:13.102Z</time></trkpt><trkpt lat="43.477475" lon="11.0439617"><ele>242.60000000000002</ele><time>2026-04-05T09:30:14.103Z</time></trkpt><trkpt lat="43.4775483" lon="11.044075"><ele>241.0</ele><time>2026-04-05T09:30:15.103Z</time></trkpt><trkpt lat="43.4776217" lon="11.044185"><ele>241.0</ele><time>2026-04-05T09:30:16.103Z</time></trkpt><trkpt lat="43.4777017" lon="11.0442883"><ele>241.00000000000003</ele><time>2026-04-05T09:30:17.103Z</time></trkpt><trkpt lat="43.477785" lon="11.044395"><ele>241.00000000000003</ele><time>2026-04-05T09:30:18.103Z</time></trkpt><trkpt lat="43.477865" lon="11.0445067"><ele>241.0</ele><time>2026-04-05T09:30:19.103Z</time></trkpt><trkpt lat="43.4779433" lon="11.04461"><ele>241.0</ele><time>2026-04-05T09:30:20.103Z</time></trkpt><trkpt lat="43.478025" lon="11.044705"><ele>241.8</ele><time>2026-04-05T09:30:21.103Z</time></trkpt><trkpt lat="43.47811" lon="11.0447917"><ele>242.60000000000002</ele><time>2026-04-05T09:30:22.103Z</time></trkpt><trkpt lat="43.4782" lon="11.0448733"><ele>243.4</ele><time>2026-04-05T09:30:23.103Z</time></trkpt><trkpt lat="43.4782917" lon="11.0449533"><ele>244.2</ele><time>2026-04-05T09:30:24.103Z</time></trkpt><trkpt lat="43.478385" lon="11.045035"><ele>245.0</ele><time>2026-04-05T09:30:25.103Z</time></trkpt><trkpt lat="43.4784783" lon="11.0451133"><ele>245.0</ele><time>2026-04-05T09:30:26.102Z</time></trkpt><trkpt lat="43.4785683" lon="11.04519"><ele>245.0</ele><time>2026-04-05T09:30:27.103Z</time></trkpt><trkpt lat="43.4786583" lon="11.04525"><ele>245.0</ele><time>2026-04-05T09:30:28.103Z</time></trkpt><trkpt lat="43.478755" lon="11.0452867"><ele>245.0</ele><time>2026-04-05T09:30:29.103Z</time></trkpt><trkpt lat="43.4788567" lon="11.045315"><ele>245.0</ele><time>2026-04-05T09:30:30.103Z</time></trkpt><trkpt lat="43.4789633" lon="11.0453333"><ele>245.6</ele><time>2026-04-05T09:30:31.103Z</time></trkpt><trkpt lat="43.4790683" lon="11.04535"><ele>246.2</ele><time>2026-04-05T09:30:32.103Z</time></trkpt><trkpt lat="43.4791717" lon="11.04537"><ele>246.8</ele><time>2026-04-05T09:30:33.103Z</time></trkpt><trkpt lat="43.479275" lon="11.0453917"><ele>247.4</ele><time>2026-04-05T09:30:34.103Z</time></trkpt><trkpt lat="43.4793783" lon="11.045405"><ele>248.0</ele><time>2026-04-05T09:30:35.103Z</time></trkpt><trkpt lat="43.4794817" lon="11.0454067"><ele>248.0</ele><time>2026-04-05T09:30:36.103Z</time></trkpt><trkpt lat="43.479585" lon="11.0454"><ele>248.0</ele><time>2026-04-05T09:30:37.102Z</time></trkpt><trkpt lat="43.4796917" lon="11.04539"><ele>248.0</ele><time>2026-04-05T09:30:38.103Z</time></trkpt><trkpt lat="43.4797983" lon="11.0453717"><ele>248.0</ele><time>2026-04-05T09:30:39.103Z</time></trkpt><trkpt lat="43.4799083" lon="11.0453483"><ele>248.0</ele><time>2026-04-05T09:30:40.103Z</time></trkpt><trkpt lat="43.48002" lon="11.0453217"><ele>248.25</ele><time>2026-04-05T09:30:41.103Z</time></trkpt><trkpt lat="43.4801417" lon="11.0452917"><ele>248.5</ele><time>2026-04-05T09:30:42.103Z</time></trkpt><trkpt lat="43.48027" lon="11.0452633"><ele>248.75</ele><time>2026-04-05T09:30:43.103Z</time></trkpt><trkpt lat="43.4803967" lon="11.04523"><ele>249.0</ele><time>2026-04-05T09:30:44.103Z</time></trkpt><trkpt lat="43.4805267" lon="11.0451933"><ele>245.5</ele><time>2026-04-05T09:30:45.103Z</time></trkpt><trkpt lat="43.4806567" lon="11.0451533"><ele>242.0</ele><time>2026-04-05T09:30:46.103Z</time></trkpt><trkpt lat="43.4807817" lon="11.0451"><ele>238.5</ele><time>2026-04-05T09:30:47.103Z</time></trkpt><trkpt lat="43.480905" lon="11.045035"><ele>235.0</ele><time>2026-04-05T09:30:48.103Z</time></trkpt><trkpt lat="43.4810267" lon="11.04497"><ele>236.25</ele><time>2026-04-05T09:30:49.103Z</time></trkpt><trkpt lat="43.481145" lon="11.044895"><ele>237.5</ele><time>2026-04-05T09:30:50.103Z</time></trkpt><trkpt lat="43.4812617" lon="11.0448167"><ele>238.75</ele><time>2026-04-05T09:30:51.103Z</time></trkpt><trkpt lat="43.4813817" lon="11.0447383"><ele>240.0</ele><time>2026-04-05T09:30:52.103Z</time></trkpt><trkpt lat="43.4815033" lon="11.044655"><ele>235.5</ele><time>2026-04-05T09:30:53.103Z</time></trkpt><trkpt lat="43.48163" lon="11.0445767"><ele>231.0</ele><time>2026-04-05T09:30:54.103Z</time></trkpt><trkpt lat="43.48176" lon="11.0445033"><ele>226.5</ele><time>2026-04-05T09:30:55.103Z</time></trkpt><trkpt lat="43.48189" lon="11.0444283"><ele>222.0</ele><time>2026-04-05T09:30:56.102Z</time></trkpt><trkpt lat="43.4820183" lon="11.0443533"><ele>219.5</ele><time>2026-04-05T09:30:57.103Z</time></trkpt><trkpt lat="43.482145" lon="11.044275"><ele>217.0</ele><time>2026-04-05T09:30:58.102Z</time></trkpt><trkpt lat="43.4822667" lon="11.0441933"><ele>214.5</ele><time>2026-04-05T09:30:59.103Z</time></trkpt><trkpt lat="43.4823867" lon="11.0441133"><ele>212.0</ele><time>2026-04-05T09:31:00.102Z</time></trkpt><trkpt lat="43.4824983" lon="11.0440283"><ele>210.75</ele><time>2026-04-05T09:31:01.103Z</time></trkpt><trkpt lat="43.4826067" lon="11.0439433"><ele>209.5</ele><time>2026-04-05T09:31:02.103Z</time></trkpt><trkpt lat="43.48271" lon="11.04386"><ele>208.25</ele><time>2026-04-05T09:31:03.103Z</time></trkpt><trkpt lat="43.4828133" lon="11.0437817"><ele>207.0</ele><time>2026-04-05T09:31:04.103Z</time></trkpt><trkpt lat="43.4829167" lon="11.0437033"><ele>206.25</ele><time>2026-04-05T09:31:05.103Z</time></trkpt><trkpt lat="43.4830217" lon="11.0436267"><ele>205.5</ele><time>2026-04-05T09:31:06.103Z</time></trkpt><trkpt lat="43.4831267" lon="11.0435567"><ele>204.75</ele><time>2026-04-05T09:31:07.102Z</time></trkpt><trkpt lat="43.48323" lon="11.043495"><ele>204.0</ele><time>2026-04-05T09:31:08.103Z</time></trkpt><trkpt lat="43.483335" lon="11.0434333"><ele>204.0</ele><time>2026-04-05T09:31:09.103Z</time></trkpt><trkpt lat="43.4834433" lon="11.0433817"><ele>204.0</ele><time>2026-04-05T09:31:10.103Z</time></trkpt><trkpt lat="43.48355" lon="11.0433367"><ele>204.0</ele><time>2026-04-05T09:31:11.102Z</time></trkpt><trkpt lat="43.483655" lon="11.0432967"><ele>204.0</ele><time>2026-04-05T09:31:12.103Z</time></trkpt><trkpt lat="43.48376" lon="11.04327"><ele>204.0</ele><time>2026-04-05T09:31:13.103Z</time></trkpt><trkpt lat="43.48387" lon="11.0432633"><ele>203.2</ele><time>2026-04-05T09:31:14.103Z</time></trkpt><trkpt lat="43.4839783" lon="11.0432633"><ele>202.39999999999998</ele><time>2026-04-05T09:31:15.103Z</time></trkpt><trkpt lat="43.4840867" lon="11.0432717"><ele>201.6</ele><time>2026-04-05T09:31:16.103Z</time></trkpt><trkpt lat="43.484195" lon="11.0432833"><ele>200.8</ele><time>2026-04-05T09:31:17.103Z</time></trkpt><trkpt lat="43.4843017" lon="11.0432983"><ele>200.0</ele><time>2026-04-05T09:31:18.103Z</time></trkpt><trkpt lat="43.48441" lon="11.0433117"><ele>200.0</ele><time>2026-04-05T09:31:19.103Z</time></trkpt><trkpt lat="43.4845167" lon="11.04332"><ele>200.0</ele><time>2026-04-05T09:31:20.103Z</time></trkpt><trkpt lat="43.484625" lon="11.0433217"><ele>200.0</ele><time>2026-04-05T09:31:21.103Z</time></trkpt><trkpt lat="43.48473" lon="11.0433167"><ele>200.0</ele><time>2026-04-05T09:31:22.103Z</time></trkpt><trkpt lat="43.484835" lon="11.0433133"><ele>200.0</ele><time>2026-04-05T09:31:23.103Z</time></trkpt><trkpt lat="43.48494" lon="11.0433083"><ele>199.4</ele><time>2026-04-05T09:31:24.103Z</time></trkpt><trkpt lat="43.4850467" lon="11.0433017"><ele>198.8</ele><time>2026-04-05T09:31:25.103Z</time></trkpt><trkpt lat="43.485155" lon="11.0432983"><ele>198.2</ele><time>2026-04-05T09:31:26.103Z</time></trkpt><trkpt lat="43.4852667" lon="11.0433"><ele>197.6</ele><time>2026-04-05T09:31:27.103Z</time></trkpt><trkpt lat="43.485385" lon="11.0433133"><ele>197.0</ele><time>2026-04-05T09:31:28.103Z</time></trkpt><trkpt lat="43.485505" lon="11.0433433"><ele>196.0</ele><time>2026-04-05T09:31:29.102Z</time></trkpt><trkpt lat="43.485625" lon="11.043395"><ele>195.0</ele><time>2026-04-05T09:31:30.104Z</time></trkpt><trkpt lat="43.4857433" lon="11.0434683"><ele>194.0</ele><time>2026-04-05T09:31:31.104Z</time></trkpt><trkpt lat="43.4858567" lon="11.04356"><ele>193.0</ele><time>2026-04-05T09:31:32.103Z</time></trkpt><trkpt lat="43.4859667" lon="11.0436583"><ele>193.0</ele><time>2026-04-05T09:31:33.104Z</time></trkpt><trkpt lat="43.4860833" lon="11.0437483"><ele>193.0</ele><time>2026-04-05T09:31:34.104Z</time></trkpt><trkpt lat="43.4861967" lon="11.0438533"><ele>193.0</ele><time>2026-04-05T09:31:35.104Z</time></trkpt><trkpt lat="43.48631" lon="11.04396"><ele>193.0</ele><time>2026-04-05T09:31:36.104Z</time></trkpt><trkpt lat="43.486425" lon="11.044075"><ele>193.5</ele><time>2026-04-05T09:31:37.104Z</time></trkpt><trkpt lat="43.486535" lon="11.04419"><ele>194.0</ele><time>2026-04-05T09:31:38.104Z</time></trkpt><trkpt lat="43.4866383" lon="11.04431"><ele>194.5</ele><time>2026-04-05T09:31:39.104Z</time></trkpt><trkpt lat="43.4867367" lon="11.0444333"><ele>195.0</ele><time>2026-04-05T09:31:40.104Z</time></trkpt><trkpt lat="43.486835" lon="11.0445517"><ele>195.0</ele><time>2026-04-05T09:31:41.104Z</time></trkpt><trkpt lat="43.4869333" lon="11.0446733"><ele>195.0</ele><time>2026-04-05T09:31:42.104Z</time></trkpt><trkpt lat="43.48703" lon="11.0447917"><ele>195.0</ele><time>2026-04-05T09:31:43.104Z</time></trkpt><trkpt lat="43.4871283" lon="11.0449083"><ele>195.0</ele><time>2026-04-05T09:31:44.104Z</time></trkpt><trkpt lat="43.4872267" lon="11.045025"><ele>194.0</ele><time>2026-04-05T09:31:45.104Z</time></trkpt><trkpt lat="43.4873233" lon="11.045135"><ele>193.0</ele><time>2026-04-05T09:31:46.104Z</time></trkpt><trkpt lat="43.4874217" lon="11.04524"><ele>192.0</ele><time>2026-04-05T09:31:47.104Z</time></trkpt><trkpt lat="43.4875233" lon="11.0453433"><ele>191.0</ele><time>2026-04-05T09:31:48.104Z</time></trkpt><trkpt lat="43.4876217" lon="11.0454417"><ele>191.0</ele><time>2026-04-05T09:31:49.104Z</time></trkpt><trkpt lat="43.4877233" lon="11.0455367"><ele>191.0</ele><time>2026-04-05T09:31:50.104Z</time></trkpt><trkpt lat="43.4878233" lon="11.0456317"><ele>191.0</ele><time>2026-04-05T09:31:51.104Z</time></trkpt><trkpt lat="43.4879283" lon="11.0457233"><ele>191.0</ele><time>2026-04-05T09:31:52.104Z</time></trkpt><trkpt lat="43.4880383" lon="11.0458133"><ele>190.5</ele><time>2026-04-05T09:31:53.104Z</time></trkpt><trkpt lat="43.48815" lon="11.0459017"><ele>190.0</ele><time>2026-04-05T09:31:54.104Z</time></trkpt><trkpt lat="43.4882683" lon="11.045985"><ele>189.5</ele><time>2026-04-05T09:31:55.104Z</time></trkpt><trkpt lat="43.48839" lon="11.0460667"><ele>189.0</ele><time>2026-04-05T09:31:56.104Z</time></trkpt><trkpt lat="43.4885133" lon="11.04615"><ele>189.0</ele><time>2026-04-05T09:31:57.104Z</time></trkpt><trkpt lat="43.48864" lon="11.0462267"><ele>189.0</ele><time>2026-04-05T09:31:58.104Z</time></trkpt><trkpt lat="43.4887683" lon="11.0463"><ele>189.0</ele><time>2026-04-05T09:31:59.104Z</time></trkpt><trkpt lat="43.4889017" lon="11.0463617"><ele>189.0</ele><time>2026-04-05T09:32:00.104Z</time></trkpt><trkpt lat="43.4890317" lon="11.0464217"><ele>187.25</ele><time>2026-04-05T09:32:01.104Z</time></trkpt><trkpt lat="43.48916" lon="11.04649"><ele>185.5</ele><time>2026-04-05T09:32:02.104Z</time></trkpt><trkpt lat="43.489285" lon="11.0465717"><ele>183.75</ele><time>2026-04-05T09:32:03.104Z</time></trkpt><trkpt lat="43.4894033" lon="11.0466617"><ele>182.0</ele><time>2026-04-05T09:32:04.104Z</time></trkpt><trkpt lat="43.4895167" lon="11.0467667"><ele>179.0</ele><time>2026-04-05T09:32:05.103Z</time></trkpt><trkpt lat="43.489625" lon="11.04688"><ele>176.0</ele><time>2026-04-05T09:32:06.104Z</time></trkpt><trkpt lat="43.4897383" lon="11.0469967"><ele>173.0</ele><time>2026-04-05T09:32:07.104Z</time></trkpt><trkpt lat="43.4898567" lon="11.0471083"><ele>170.0</ele><time>2026-04-05T09:32:08.104Z</time></trkpt><trkpt lat="43.4899767" lon="11.0472217"><ele>170.0</ele><time>2026-04-05T09:32:09.104Z</time></trkpt><trkpt lat="43.490095" lon="11.0473333"><ele>170.0</ele><time>2026-04-05T09:32:10.104Z</time></trkpt><trkpt lat="43.4902083" lon="11.04745"><ele>170.0</ele><time>2026-04-05T09:32:11.104Z</time></trkpt><trkpt lat="43.4903217" lon="11.047575"><ele>170.0</ele><time>2026-04-05T09:32:12.104Z</time></trkpt><trkpt lat="43.4904267" lon="11.0477067"><ele>167.25</ele><time>2026-04-05T09:32:13.104Z</time></trkpt><trkpt lat="43.490525" lon="11.0478483"><ele>164.5</ele><time>2026-04-05T09:32:14.104Z</time></trkpt><trkpt lat="43.4906183" lon="11.0480017"><ele>161.75</ele><time>2026-04-05T09:32:15.103Z</time></trkpt><trkpt lat="43.4907117" lon="11.04816"><ele>159.0</ele><time>2026-04-05T09:32:16.104Z</time></trkpt><trkpt lat="43.490805" lon="11.0483167"><ele>159.0</ele><time>2026-04-05T09:32:17.104Z</time></trkpt><trkpt lat="43.4909033" lon="11.0484667"><ele>159.0</ele><time>2026-04-05T09:32:18.104Z</time></trkpt><trkpt lat="43.491005" lon="11.0486083"><ele>159.0</ele><time>2026-04-05T09:32:19.104Z</time></trkpt><trkpt lat="43.4911167" lon="11.0487383"><ele>159.0</ele><time>2026-04-05T09:32:20.104Z</time></trkpt><trkpt lat="43.4912317" lon="11.04886"><ele>156.75</ele><time>2026-04-05T09:32:21.104Z</time></trkpt><trkpt lat="43.4913517" lon="11.0489783"><ele>154.5</ele><time>2026-04-05T09:32:22.104Z</time></trkpt><trkpt lat="43.4914717" lon="11.0491"><ele>152.25</ele><time>2026-04-05T09:32:23.104Z</time></trkpt><trkpt lat="43.4915883" lon="11.049225"><ele>150.0</ele><time>2026-04-05T09:32:24.104Z</time></trkpt><trkpt lat="43.4917" lon="11.0493567"><ele>150.0</ele><time>2026-04-05T09:32:25.104Z</time></trkpt><trkpt lat="43.491805" lon="11.0494983"><ele>150.0</ele><time>2026-04-05T09:32:26.104Z</time></trkpt><trkpt lat="43.4918983" lon="11.0496567"><ele>150.0</ele><time>2026-04-05T09:32:27.104Z</time></trkpt><trkpt lat="43.4919817" lon="11.0498233"><ele>150.0</ele><time>2026-04-05T09:32:28.104Z</time></trkpt><trkpt lat="43.49206" lon="11.0499867"><ele>147.25</ele><time>2026-04-05T09:32:29.103Z</time></trkpt><trkpt lat="43.4921433" lon="11.0501417"><ele>144.5</ele><time>2026-04-05T09:32:30.104Z</time></trkpt><trkpt lat="43.4922383" lon="11.05028"><ele>141.75</ele><time>2026-04-05T09:32:31.104Z</time></trkpt><trkpt lat="43.4923483" lon="11.0503983"><ele>139.0</ele><time>2026-04-05T09:32:32.104Z</time></trkpt><trkpt lat="43.49247" lon="11.05048"><ele>139.0</ele><time>2026-04-05T09:32:33.104Z</time></trkpt><trkpt lat="43.4926083" lon="11.0505183"><ele>139.0</ele><time>2026-04-05T09:32:34.104Z</time></trkpt><trkpt lat="43.4927533" lon="11.0505167"><ele>139.0</ele><time>2026-04-05T09:32:35.104Z</time></trkpt><trkpt lat="43.4928967" lon="11.0504983"><ele>139.0</ele><time>2026-04-05T09:32:36.104Z</time></trkpt><trkpt lat="43.4930367" lon="11.05047"><ele>138.25</ele><time>2026-04-05T09:32:37.104Z</time></trkpt><trkpt lat="43.4931717" lon="11.0504217"><ele>137.5</ele><time>2026-04-05T09:32:38.104Z</time></trkpt><trkpt lat="43.4932967" lon="11.0503483"><ele>136.75</ele><time>2026-04-05T09:32:39.104Z</time></trkpt><trkpt lat="43.4934117" lon="11.05025"><ele>136.0</ele><time>2026-04-05T09:32:40.104Z</time></trkpt><trkpt lat="43.4935167" lon="11.0501267"><ele>136.0</ele><time>2026-04-05T09:32:41.104Z</time></trkpt><trkpt lat="43.4936133" lon="11.0499883"><ele>136.0</ele><time>2026-04-05T09:32:42.104Z</time></trkpt><trkpt lat="43.4937" lon="11.0498367"><ele>136.0</ele><time>2026-04-05T09:32:43.104Z</time></trkpt><trkpt lat="43.4937917" lon="11.0496917"><ele>136.0</ele><time>2026-04-05T09:32:44.103Z</time></trkpt><trkpt lat="43.49389" lon="11.04956"><ele>137.75</ele><time>2026-04-05T09:32:45.104Z</time></trkpt><trkpt lat="43.494005" lon="11.0494567"><ele>139.5</ele><time>2026-04-05T09:32:46.104Z</time></trkpt><trkpt lat="43.4941283" lon="11.0493883"><ele>141.25</ele><time>2026-04-05T09:32:47.104Z</time></trkpt><trkpt lat="43.4942617" lon="11.0493567"><ele>143.0</ele><time>2026-04-05T09:32:48.103Z</time></trkpt><trkpt lat="43.4944017" lon="11.04934"><ele>143.0</ele><time>2026-04-05T09:32:49.104Z</time></trkpt><trkpt lat="43.49454" lon="11.0493283"><ele>143.0</ele><time>2026-04-05T09:32:50.104Z</time></trkpt><trkpt lat="43.4946783" lon="11.0493217"><ele>143.0</ele><time>2026-04-05T09:32:51.104Z</time></trkpt><trkpt lat="43.49481" lon="11.04931"><ele>143.0</ele><time>2026-04-05T09:32:52.104Z</time></trkpt><trkpt lat="43.494935" lon="11.0493017"><ele>144.66666666666666</ele><time>2026-04-05T09:32:53.104Z</time></trkpt><trkpt lat="43.495045" lon="11.0493017"><ele>146.33333333333331</ele><time>2026-04-05T09:32:54.104Z</time></trkpt><trkpt lat="43.4951283" lon="11.0493117"><ele>148.0</ele><time>2026-04-05T09:32:55.104Z</time></trkpt><trkpt lat="43.4951917" lon="11.0493317"><ele>149.66666666666666</ele><time>2026-04-05T09:32:56.104Z</time></trkpt><trkpt lat="43.4952567" lon="11.0493767"><ele>151.33333333333334</ele><time>2026-04-05T09:32:58.104Z</time></trkpt><trkpt lat="43.4953283" lon="11.04941"><ele>153.0</ele><time>2026-04-05T09:33:02.104Z</time></trkpt><trkpt lat="43.4953717" lon="11.0493217"><ele>153.0</ele><time>2026-04-05T09:33:04.104Z</time></trkpt><trkpt lat="43.4953817" lon="11.04914"><ele>153.0</ele><time>2026-04-05T09:33:06.104Z</time></trkpt><trkpt lat="43.49539" lon="11.0490333"><ele>153.0</ele><time>2026-04-05T09:33:07.104Z</time></trkpt><trkpt lat="43.4954033" lon="11.0489167"><ele>153.0</ele><time>2026-04-05T09:33:08.104Z</time></trkpt><trkpt lat="43.4954167" lon="11.0487933"><ele>153.0</ele><time>2026-04-05T09:33:09.104Z</time></trkpt><trkpt lat="43.4954283" lon="11.0486633"><ele>152.6</ele><time>2026-04-05T09:33:10.104Z</time></trkpt><trkpt lat="43.49544" lon="11.0485283"><ele>152.20000000000002</ele><time>2026-04-05T09:33:11.104Z</time></trkpt><trkpt lat="43.4954467" lon="11.0483867"><ele>151.8</ele><time>2026-04-05T09:33:12.104Z</time></trkpt><trkpt lat="43.4954483" lon="11.0482417"><ele>151.4</ele><time>2026-04-05T09:33:13.104Z</time></trkpt><trkpt lat="43.4954483" lon="11.048095"><ele>151.0</ele><time>2026-04-05T09:33:14.104Z</time></trkpt><trkpt lat="43.4954483" lon="11.0479483"><ele>151.8</ele><time>2026-04-05T09:33:15.104Z</time></trkpt><trkpt lat="43.4954467" lon="11.0478"><ele>152.6</ele><time>2026-04-05T09:33:16.104Z</time></trkpt><trkpt lat="43.4954483" lon="11.0476517"><ele>153.4</ele><time>2026-04-05T09:33:17.104Z</time></trkpt><trkpt lat="43.49545" lon="11.0475017"><ele>154.2</ele><time>2026-04-05T09:33:18.104Z</time></trkpt><trkpt lat="43.495455" lon="11.04735"><ele>155.0</ele><time>2026-04-05T09:33:19.104Z</time></trkpt><trkpt lat="43.4954633" lon="11.0471983"><ele>157.5</ele><time>2026-04-05T09:33:20.104Z</time></trkpt><trkpt lat="43.4954717" lon="11.047045"><ele>160.0</ele><time>2026-04-05T09:33:21.104Z</time></trkpt><trkpt lat="43.4954833" lon="11.0468917"><ele>162.5</ele><time>2026-04-05T09:33:22.104Z</time></trkpt><trkpt lat="43.4955017" lon="11.0467317"><ele>165.0</ele><time>2026-04-05T09:33:23.103Z</time></trkpt><trkpt lat="43.49552" lon="11.04657"><ele>166.5</ele><time>2026-04-05T09:33:24.104Z</time></trkpt><trkpt lat="43.4955433" lon="11.0464083"><ele>168.0</ele><time>2026-04-05T09:33:25.104Z</time></trkpt><trkpt lat="43.4955683" lon="11.0462417"><ele>169.5</ele><time>2026-04-05T09:33:26.103Z</time></trkpt><trkpt lat="43.4955967" lon="11.0460717"><ele>171.0</ele><time>2026-04-05T09:33:27.104Z</time></trkpt><trkpt lat="43.4956283" lon="11.0459"><ele>171.25</ele><time>2026-04-05T09:33:28.103Z</time></trkpt><trkpt lat="43.4956633" lon="11.0457283"><ele>171.5</ele><time>2026-04-05T09:33:29.104Z</time></trkpt><trkpt lat="43.4957" lon="11.0455633"><ele>171.75</ele><time>2026-04-05T09:33:30.104Z</time></trkpt><trkpt lat="43.49574" lon="11.045405"><ele>172.0</ele><time>2026-04-05T09:33:31.104Z</time></trkpt><trkpt lat="43.4957867" lon="11.04525"><ele>172.0</ele><time>2026-04-05T09:33:32.104Z</time></trkpt><trkpt lat="43.495845" lon="11.0450983"><ele>172.0</ele><time>2026-04-05T09:33:33.104Z</time></trkpt><trkpt lat="43.4959083" lon="11.0449583"><ele>172.0</ele><time>2026-04-05T09:33:34.104Z</time></trkpt><trkpt lat="43.4959833" lon="11.0448267"><ele>172.0</ele><time>2026-04-05T09:33:35.104Z</time></trkpt><trkpt lat="43.496065" lon="11.0447017"><ele>172.0</ele><time>2026-04-05T09:33:36.104Z</time></trkpt><trkpt lat="43.4961467" lon="11.0445767"><ele>172.0</ele><time>2026-04-05T09:33:37.104Z</time></trkpt><trkpt lat="43.4962267" lon="11.044445"><ele>172.0</ele><time>2026-04-05T09:33:38.104Z</time></trkpt><trkpt lat="43.4963" lon="11.044305"><ele>172.0</ele><time>2026-04-05T09:33:39.104Z</time></trkpt><trkpt lat="43.496365" lon="11.0441583"><ele>171.0</ele><time>2026-04-05T09:33:40.104Z</time></trkpt><trkpt lat="43.49643" lon="11.0440067"><ele>170.0</ele><time>2026-04-05T09:33:41.104Z</time></trkpt><trkpt lat="43.49649" lon="11.0438483"><ele>169.0</ele><time>2026-04-05T09:33:42.104Z</time></trkpt><trkpt lat="43.4965517" lon="11.0436917"><ele>168.0</ele><time>2026-04-05T09:33:43.104Z</time></trkpt><trkpt lat="43.4966233" lon="11.0435383"><ele>166.5</ele><time>2026-04-05T09:33:44.103Z</time></trkpt><trkpt lat="43.4968883" lon="11.043195"><ele>165.0</ele><time>2026-04-05T09:33:47.455Z</time></trkpt><trkpt lat="43.4970317" lon="11.0431067"><ele>166.66666666666666</ele><time>2026-04-05T09:33:48.604Z</time></trkpt><trkpt lat="43.4971633" lon="11.0429783"><ele>168.33333333333331</ele><time>2026-04-05T09:33:49.604Z</time></trkpt><trkpt lat="43.4972667" lon="11.0428367"><ele>170.0</ele><time>2026-04-05T09:33:50.604Z</time></trkpt><trkpt lat="43.4974317" lon="11.04266"><ele>170.0</ele><time>2026-04-05T09:33:52.103Z</time></trkpt><trkpt lat="43.49755" lon="11.0425367"><ele>170.0</ele><time>2026-04-05T09:33:53.104Z</time></trkpt><trkpt lat="43.4976633" lon="11.0424183"><ele>170.0</ele><time>2026-04-05T09:33:54.104Z</time></trkpt><trkpt lat="43.497785" lon="11.042305"><ele>170.0</ele><time>2026-04-05T09:33:55.104Z</time></trkpt><trkpt lat="43.4979067" lon="11.0421983"><ele>173.0</ele><time>2026-04-05T09:33:56.104Z</time></trkpt><trkpt lat="43.4980233" lon="11.042105"><ele>176.0</ele><time>2026-04-05T09:33:57.104Z</time></trkpt><trkpt lat="43.4981333" lon="11.0420183"><ele>179.0</ele><time>2026-04-05T09:33:58.104Z</time></trkpt><trkpt lat="43.4982383" lon="11.041935"><ele>182.0</ele><time>2026-04-05T09:33:59.104Z</time></trkpt><trkpt lat="43.4983333" lon="11.041855"><ele>182.0</ele><time>2026-04-05T09:34:00.104Z</time></trkpt><trkpt lat="43.4984217" lon="11.0417833"><ele>182.0</ele><time>2026-04-05T09:34:01.104Z</time></trkpt><trkpt lat="43.49851" lon="11.0417167"><ele>182.0</ele><time>2026-04-05T09:34:02.104Z</time></trkpt><trkpt lat="43.498595" lon="11.0416583"><ele>182.0</ele><time>2026-04-05T09:34:03.104Z</time></trkpt><trkpt lat="43.4986817" lon="11.0416183"><ele>182.0</ele><time>2026-04-05T09:34:04.104Z</time></trkpt><trkpt lat="43.4987683" lon="11.041595"><ele>182.39999999999998</ele><time>2026-04-05T09:34:05.104Z</time></trkpt><trkpt lat="43.4988583" lon="11.0416"><ele>182.79999999999998</ele><time>2026-04-05T09:34:06.104Z</time></trkpt><trkpt lat="43.4989583" lon="11.04163"><ele>183.2</ele><time>2026-04-05T09:34:07.104Z</time></trkpt><trkpt lat="43.499055" lon="11.0416617"><ele>183.6</ele><time>2026-04-05T09:34:08.104Z</time></trkpt><trkpt lat="43.499155" lon="11.0417083"><ele>184.0</ele><time>2026-04-05T09:34:09.104Z</time></trkpt><trkpt lat="43.4992517" lon="11.0417633"><ele>184.0</ele><time>2026-04-05T09:34:10.104Z</time></trkpt><trkpt lat="43.4993467" lon="11.0418367"><ele>184.0</ele><time>2026-04-05T09:34:11.104Z</time></trkpt><trkpt lat="43.49943" lon="11.0419383"><ele>184.0</ele><time>2026-04-05T09:34:12.104Z</time></trkpt><trkpt lat="43.4994917" lon="11.0420717"><ele>184.0</ele><time>2026-04-05T09:34:13.104Z</time></trkpt><trkpt lat="43.4995367" lon="11.0422217"><ele>184.0</ele><time>2026-04-05T09:34:14.104Z</time></trkpt><trkpt lat="43.4995717" lon="11.0423833"><ele>184.0</ele><time>2026-04-05T09:34:15.104Z</time></trkpt><trkpt lat="43.4996017" lon="11.0425483"><ele>184.0</ele><time>2026-04-05T09:34:16.104Z</time></trkpt><trkpt lat="43.4996383" lon="11.042705"><ele>184.0</ele><time>2026-04-05T09:34:17.103Z</time></trkpt><trkpt lat="43.4996767" lon="11.0428567"><ele>182.5</ele><time>2026-04-05T09:34:18.104Z</time></trkpt><trkpt lat="43.4997167" lon="11.0430067"><ele>181.0</ele><time>2026-04-05T09:34:19.104Z</time></trkpt><trkpt lat="43.4997533" lon="11.0431617"><ele>179.5</ele><time>2026-04-05T09:34:20.103Z</time></trkpt><trkpt lat="43.49979" lon="11.043315"><ele>178.0</ele><time>2026-04-05T09:34:21.104Z</time></trkpt><trkpt lat="43.4998233" lon="11.04347"><ele>178.0</ele><time>2026-04-05T09:34:22.104Z</time></trkpt><trkpt lat="43.4998483" lon="11.0436267"><ele>178.0</ele><time>2026-04-05T09:34:23.104Z</time></trkpt><trkpt lat="43.4998683" lon="11.0437867"><ele>178.0</ele><time>2026-04-05T09:34:24.104Z</time></trkpt><trkpt lat="43.4998867" lon="11.0439483"><ele>178.0</ele><time>2026-04-05T09:34:25.104Z</time></trkpt><trkpt lat="43.4999067" lon="11.0441067"><ele>177.75</ele><time>2026-04-05T09:34:26.104Z</time></trkpt><trkpt lat="43.4999267" lon="11.0442617"><ele>177.5</ele><time>2026-04-05T09:34:27.104Z</time></trkpt><trkpt lat="43.4999483" lon="11.044415"><ele>177.25</ele><time>2026-04-05T09:34:28.103Z</time></trkpt><trkpt lat="43.4999733" lon="11.0445717"><ele>177.0</ele><time>2026-04-05T09:34:29.103Z</time></trkpt><trkpt lat="43.5000017" lon="11.0447367"><ele>177.0</ele><time>2026-04-05T09:34:30.104Z</time></trkpt><trkpt lat="43.5000433" lon="11.04491"><ele>177.0</ele><time>2026-04-05T09:34:31.104Z</time></trkpt><trkpt lat="43.5000967" lon="11.0450867"><ele>177.0</ele><time>2026-04-05T09:34:32.104Z</time></trkpt><trkpt lat="43.500165" lon="11.045265"><ele>177.0</ele><time>2026-04-05T09:34:33.104Z</time></trkpt><trkpt lat="43.5002467" lon="11.0454333"><ele>176.0</ele><time>2026-04-05T09:34:34.103Z</time></trkpt><trkpt lat="43.50034" lon="11.0455883"><ele>175.0</ele><time>2026-04-05T09:34:35.104Z</time></trkpt><trkpt lat="43.5004417" lon="11.0457267"><ele>174.0</ele><time>2026-04-05T09:34:36.104Z</time></trkpt><trkpt lat="43.5005567" lon="11.04584"><ele>173.0</ele><time>2026-04-05T09:34:37.104Z</time></trkpt><trkpt lat="43.5006817" lon="11.045925"><ele>171.0</ele><time>2026-04-05T09:34:38.104Z</time></trkpt><trkpt lat="43.5008117" lon="11.0459883"><ele>169.0</ele><time>2026-04-05T09:34:39.104Z</time></trkpt><trkpt lat="43.5009383" lon="11.0460317"><ele>167.0</ele><time>2026-04-05T09:34:40.104Z</time></trkpt><trkpt lat="43.5010633" lon="11.0460633"><ele>165.0</ele><time>2026-04-05T09:34:41.104Z</time></trkpt><trkpt lat="43.5011867" lon="11.04609"><ele>164.0</ele><time>2026-04-05T09:34:42.104Z</time></trkpt><trkpt lat="43.501305" lon="11.0461233"><ele>163.0</ele><time>2026-04-05T09:34:43.104Z</time></trkpt><trkpt lat="43.5014167" lon="11.0461667"><ele>162.0</ele><time>2026-04-05T09:34:44.104Z</time></trkpt><trkpt lat="43.501505" lon="11.0462317"><ele>161.0</ele><time>2026-04-05T09:34:45.104Z</time></trkpt><trkpt lat="43.5016067" lon="11.046445"><ele>161.0</ele><time>2026-04-05T09:34:47.104Z</time></trkpt><trkpt lat="43.5016417" lon="11.0465717"><ele>161.0</ele><time>2026-04-05T09:34:48.104Z</time></trkpt><trkpt lat="43.501675" lon="11.0467083"><ele>161.0</ele><time>2026-04-05T09:34:49.104Z</time></trkpt><trkpt lat="43.50171" lon="11.04685"><ele>161.0</ele><time>2026-04-05T09:34:50.104Z</time></trkpt><trkpt lat="43.5017517" lon="11.0469917"><ele>161.0</ele><time>2026-04-05T09:34:51.104Z</time></trkpt><trkpt lat="43.5017983" lon="11.0471367"><ele>162.75</ele><time>2026-04-05T09:34:52.104Z</time></trkpt><trkpt lat="43.5018467" lon="11.047285"><ele>164.5</ele><time>2026-04-05T09:34:53.104Z</time></trkpt><trkpt lat="43.501895" lon="11.0474383"><ele>166.25</ele><time>2026-04-05T09:34:54.104Z</time></trkpt><trkpt lat="43.5019467" lon="11.0475883"><ele>168.0</ele><time>2026-04-05T09:34:55.104Z</time></trkpt><trkpt lat="43.502005" lon="11.0477233"><ele>167.60000000000002</ele><time>2026-04-05T09:34:56.104Z</time></trkpt><trkpt lat="43.502075" lon="11.0478383"><ele>167.20000000000002</ele><time>2026-04-05T09:34:57.104Z</time></trkpt><trkpt lat="43.5021617" lon="11.0479217"><ele>166.8</ele><time>2026-04-05T09:34:58.104Z</time></trkpt><trkpt lat="43.502265" lon="11.0479783"><ele>166.4</ele><time>2026-04-05T09:34:59.104Z</time></trkpt><trkpt lat="43.5023667" lon="11.0480217"><ele>166.0</ele><time>2026-04-05T09:35:00.104Z</time></trkpt><trkpt lat="43.5024767" lon="11.0480633"><ele>166.0</ele><time>2026-04-05T09:35:01.104Z</time></trkpt><trkpt lat="43.5025867" lon="11.0481017"><ele>166.0</ele><time>2026-04-05T09:35:02.104Z</time></trkpt><trkpt lat="43.5026967" lon="11.0481417"><ele>166.0</ele><time>2026-04-05T09:35:03.104Z</time></trkpt><trkpt lat="43.50281" lon="11.0481783"><ele>166.0</ele><time>2026-04-05T09:35:04.104Z</time></trkpt><trkpt lat="43.502925" lon="11.0482083"><ele>165.66666666666669</ele><time>2026-04-05T09:35:05.104Z</time></trkpt><trkpt lat="43.50316" lon="11.0482317"><ele>165.33333333333334</ele><time>2026-04-05T09:35:07.104Z</time></trkpt><trkpt lat="43.50328" lon="11.0482217"><ele>165.0</ele><time>2026-04-05T09:35:08.104Z</time></trkpt><trkpt lat="43.5034017" lon="11.0482"><ele>165.0</ele><time>2026-04-05T09:35:09.103Z</time></trkpt><trkpt lat="43.5035217" lon="11.0481683"><ele>165.0</ele><time>2026-04-05T09:35:10.104Z</time></trkpt><trkpt lat="43.5036383" lon="11.0481217"><ele>165.0</ele><time>2026-04-05T09:35:11.104Z</time></trkpt><trkpt lat="43.5037483" lon="11.048055"><ele>165.0</ele><time>2026-04-05T09:35:12.104Z</time></trkpt><trkpt lat="43.503855" lon="11.0479717"><ele>165.5</ele><time>2026-04-05T09:35:13.104Z</time></trkpt><trkpt lat="43.5039567" lon="11.0478733"><ele>166.0</ele><time>2026-04-05T09:35:14.104Z</time></trkpt><trkpt lat="43.5040633" lon="11.0477817"><ele>166.5</ele><time>2026-04-05T09:35:15.104Z</time></trkpt><trkpt lat="43.504165" lon="11.04767"><ele>167.0</ele><time>2026-04-05T09:35:16.104Z</time></trkpt><trkpt lat="43.50426" lon="11.0475533"><ele>167.5</ele><time>2026-04-05T09:35:17.104Z</time></trkpt><trkpt lat="43.50435" lon="11.0474333"><ele>168.0</ele><time>2026-04-05T09:35:18.104Z</time></trkpt><trkpt lat="43.50444" lon="11.0473083"><ele>168.5</ele><time>2026-04-05T09:35:19.104Z</time></trkpt><trkpt lat="43.5045317" lon="11.0471867"><ele>169.0</ele><time>2026-04-05T09:35:20.104Z</time></trkpt><trkpt lat="43.5046267" lon="11.0470733"><ele>169.5</ele><time>2026-04-05T09:35:21.104Z</time></trkpt><trkpt lat="43.5047167" lon="11.04696"><ele>170.0</ele><time>2026-04-05T09:35:22.104Z</time></trkpt><trkpt lat="43.5048" lon="11.046845"><ele>170.5</ele><time>2026-04-05T09:35:23.104Z</time></trkpt><trkpt lat="43.5048733" lon="11.04672"><ele>171.0</ele><time>2026-04-05T09:35:24.104Z</time></trkpt><trkpt lat="43.504925" lon="11.0465767"><ele>172.5</ele><time>2026-04-05T09:35:25.104Z</time></trkpt><trkpt lat="43.5049833" lon="11.0461033"><ele>174.0</ele><time>2026-04-05T09:35:28.104Z</time></trkpt><trkpt lat="43.5049967" lon="11.0459517"><ele>174.0</ele><time>2026-04-05T09:35:29.104Z</time></trkpt><trkpt lat="43.505025" lon="11.04581"><ele>174.0</ele><time>2026-04-05T09:35:30.104Z</time></trkpt><trkpt lat="43.5050767" lon="11.045675"><ele>174.0</ele><time>2026-04-05T09:35:31.104Z</time></trkpt><trkpt lat="43.5051617" lon="11.0455567"><ele>174.0</ele><time>2026-04-05T09:35:32.104Z</time></trkpt><trkpt lat="43.5052633" lon="11.045475"><ele>173.0</ele><time>2026-04-05T09:35:33.104Z</time></trkpt><trkpt lat="43.505375" lon="11.045405"><ele>172.0</ele><time>2026-04-05T09:35:34.104Z</time></trkpt><trkpt lat="43.5054967" lon="11.0453267"><ele>171.0</ele><time>2026-04-05T09:35:35.104Z</time></trkpt><trkpt lat="43.5056133" lon="11.0452633"><ele>170.0</ele><time>2026-04-05T09:35:36.104Z</time></trkpt><trkpt lat="43.5057267" lon="11.0451833"><ele>170.0</ele><time>2026-04-05T09:35:37.104Z</time></trkpt><trkpt lat="43.5058283" lon="11.0450783"><ele>170.0</ele><time>2026-04-05T09:35:38.104Z</time></trkpt><trkpt lat="43.5059167" lon="11.04496"><ele>170.0</ele><time>2026-04-05T09:35:39.104Z</time></trkpt><trkpt lat="43.5059967" lon="11.0448317"><ele>170.0</ele><time>2026-04-05T09:35:40.104Z</time></trkpt><trkpt lat="43.50607" lon="11.044695"><ele>168.75</ele><time>2026-04-05T09:35:41.104Z</time></trkpt><trkpt lat="43.5061417" lon="11.0445583"><ele>167.5</ele><time>2026-04-05T09:35:42.104Z</time></trkpt><trkpt lat="43.5062067" lon="11.0444217"><ele>166.25</ele><time>2026-04-05T09:35:43.104Z</time></trkpt><trkpt lat="43.5062683" lon="11.0442833"><ele>165.0</ele><time>2026-04-05T09:35:44.104Z</time></trkpt><trkpt lat="43.5063217" lon="11.0441383"><ele>169.5</ele><time>2026-04-05T09:35:45.104Z</time></trkpt><trkpt lat="43.50643" lon="11.04366"><ele>174.0</ele><time>2026-04-05T09:35:48.104Z</time></trkpt><trkpt lat="43.5064733" lon="11.043505"><ele>174.0</ele><time>2026-04-05T09:35:49.104Z</time></trkpt><trkpt lat="43.506535" lon="11.04336"><ele>174.0</ele><time>2026-04-05T09:35:50.104Z</time></trkpt><trkpt lat="43.5066017" lon="11.043215"><ele>174.0</ele><time>2026-04-05T09:35:51.104Z</time></trkpt><trkpt lat="43.5066767" lon="11.043075"><ele>174.0</ele><time>2026-04-05T09:35:52.104Z</time></trkpt><trkpt lat="43.5067567" lon="11.0429417"><ele>173.5</ele><time>2026-04-05T09:35:53.104Z</time></trkpt><trkpt lat="43.50684" lon="11.0428067"><ele>173.0</ele><time>2026-04-05T09:35:54.104Z</time></trkpt><trkpt lat="43.5069283" lon="11.0426733"><ele>172.5</ele><time>2026-04-05T09:35:55.104Z</time></trkpt><trkpt lat="43.5070283" lon="11.0425517"><ele>172.0</ele><time>2026-04-05T09:35:56.103Z</time></trkpt><trkpt lat="43.5071367" lon="11.0424417"><ele>172.0</ele><time>2026-04-05T09:35:57.103Z</time></trkpt><trkpt lat="43.5072467" lon="11.0423417"><ele>172.0</ele><time>2026-04-05T09:35:58.103Z</time></trkpt><trkpt lat="43.5073567" lon="11.0422483"><ele>172.0</ele><time>2026-04-05T09:35:59.103Z</time></trkpt><trkpt lat="43.50747" lon="11.0421617"><ele>172.0</ele><time>2026-04-05T09:36:00.103Z</time></trkpt><trkpt lat="43.5075817" lon="11.0420733"><ele>172.0</ele><time>2026-04-05T09:36:01.103Z</time></trkpt><trkpt lat="43.5076933" lon="11.041985"><ele>172.0</ele><time>2026-04-05T09:36:02.103Z</time></trkpt><trkpt lat="43.5078033" lon="11.0419017"><ele>172.0</ele><time>2026-04-05T09:36:03.103Z</time></trkpt><trkpt lat="43.507915" lon="11.041825"><ele>172.0</ele><time>2026-04-05T09:36:04.103Z</time></trkpt><trkpt lat="43.5080283" lon="11.0417583"><ele>171.75</ele><time>2026-04-05T09:36:05.103Z</time></trkpt><trkpt lat="43.5081467" lon="11.0416967"><ele>171.5</ele><time>2026-04-05T09:36:06.103Z</time></trkpt><trkpt lat="43.50827" lon="11.04165"><ele>171.25</ele><time>2026-04-05T09:36:07.103Z</time></trkpt><trkpt lat="43.5083967" lon="11.04162"><ele>171.0</ele><time>2026-04-05T09:36:08.103Z</time></trkpt><trkpt lat="43.50852" lon="11.0416"><ele>170.75</ele><time>2026-04-05T09:36:09.103Z</time></trkpt><trkpt lat="43.5086417" lon="11.04159"><ele>170.5</ele><time>2026-04-05T09:36:10.103Z</time></trkpt><trkpt lat="43.5087633" lon="11.0415883"><ele>170.25</ele><time>2026-04-05T09:36:11.103Z</time></trkpt><trkpt lat="43.5088817" lon="11.04159"><ele>170.0</ele><time>2026-04-05T09:36:12.103Z</time></trkpt><trkpt lat="43.509" lon="11.0415867"><ele>170.0</ele><time>2026-04-05T09:36:13.103Z</time></trkpt><trkpt lat="43.5091133" lon="11.04159"><ele>170.0</ele><time>2026-04-05T09:36:14.103Z</time></trkpt><trkpt lat="43.5092217" lon="11.0415967"><ele>170.0</ele><time>2026-04-05T09:36:15.103Z</time></trkpt><trkpt lat="43.50932" lon="11.0416067"><ele>170.0</ele><time>2026-04-05T09:36:16.103Z</time></trkpt><trkpt lat="43.5094083" lon="11.0416067"><ele>170.0</ele><time>2026-04-05T09:36:17.103Z</time></trkpt><trkpt lat="43.5094967" lon="11.0416067"><ele>171.0</ele><time>2026-04-05T09:36:18.103Z</time></trkpt><trkpt lat="43.50959" lon="11.0416133"><ele>172.0</ele><time>2026-04-05T09:36:19.103Z</time></trkpt><trkpt lat="43.5096883" lon="11.04162"><ele>173.0</ele><time>2026-04-05T09:36:20.103Z</time></trkpt><trkpt lat="43.5097917" lon="11.0416267"><ele>174.0</ele><time>2026-04-05T09:36:21.103Z</time></trkpt><trkpt lat="43.5098983" lon="11.0416333"><ele>175.0</ele><time>2026-04-05T09:36:22.103Z</time></trkpt><trkpt lat="43.5100033" lon="11.0416317"><ele>175.0</ele><time>2026-04-05T09:36:23.103Z</time></trkpt><trkpt lat="43.5101067" lon="11.0416133"><ele>175.0</ele><time>2026-04-05T09:36:24.103Z</time></trkpt><trkpt lat="43.510205" lon="11.0415683"><ele>175.0</ele><time>2026-04-05T09:36:25.103Z</time></trkpt><trkpt lat="43.5102983" lon="11.0415017"><ele>175.0</ele><time>2026-04-05T09:36:26.103Z</time></trkpt><trkpt lat="43.5103867" lon="11.0414167"><ele>175.0</ele><time>2026-04-05T09:36:27.103Z</time></trkpt><trkpt lat="43.5104667" lon="11.041315"><ele>175.6</ele><time>2026-04-05T09:36:28.103Z</time></trkpt><trkpt lat="43.5105383" lon="11.0412017"><ele>176.2</ele><time>2026-04-05T09:36:29.103Z</time></trkpt><trkpt lat="43.5106083" lon="11.0410867"><ele>176.8</ele><time>2026-04-05T09:36:30.102Z</time></trkpt><trkpt lat="43.510675" lon="11.0409633"><ele>177.4</ele><time>2026-04-05T09:36:31.103Z</time></trkpt><trkpt lat="43.5107417" lon="11.04084"><ele>178.0</ele><time>2026-04-05T09:36:32.103Z</time></trkpt><trkpt lat="43.51081" lon="11.0407167"><ele>178.0</ele><time>2026-04-05T09:36:33.103Z</time></trkpt><trkpt lat="43.5108867" lon="11.0405933"><ele>178.0</ele><time>2026-04-05T09:36:34.103Z</time></trkpt><trkpt lat="43.5109733" lon="11.0404717"><ele>178.0</ele><time>2026-04-05T09:36:35.103Z</time></trkpt><trkpt lat="43.5110733" lon="11.040355"><ele>178.0</ele><time>2026-04-05T09:36:36.103Z</time></trkpt><trkpt lat="43.5111717" lon="11.04024"><ele>178.5</ele><time>2026-04-05T09:36:37.103Z</time></trkpt><trkpt lat="43.5112733" lon="11.040135"><ele>179.0</ele><time>2026-04-05T09:36:38.103Z</time></trkpt><trkpt lat="43.5113817" lon="11.040045"><ele>179.5</ele><time>2026-04-05T09:36:39.103Z</time></trkpt><trkpt lat="43.5114967" lon="11.0399733"><ele>180.0</ele><time>2026-04-05T09:36:40.102Z</time></trkpt><trkpt lat="43.511615" lon="11.0399167"><ele>180.0</ele><time>2026-04-05T09:36:41.103Z</time></trkpt><trkpt lat="43.5117333" lon="11.0398667"><ele>180.0</ele><time>2026-04-05T09:36:42.103Z</time></trkpt><trkpt lat="43.5118467" lon="11.0398183"><ele>180.0</ele><time>2026-04-05T09:36:43.103Z</time></trkpt><trkpt lat="43.5119617" lon="11.0397883"><ele>180.0</ele><time>2026-04-05T09:36:44.103Z</time></trkpt><trkpt lat="43.5120767" lon="11.0397817"><ele>180.0</ele><time>2026-04-05T09:36:45.103Z</time></trkpt><trkpt lat="43.5121883" lon="11.0398067"><ele>180.0</ele><time>2026-04-05T09:36:46.103Z</time></trkpt><trkpt lat="43.5122967" lon="11.03986"><ele>180.0</ele><time>2026-04-05T09:36:47.103Z</time></trkpt><trkpt lat="43.5124017" lon="11.0399333"><ele>180.0</ele><time>2026-04-05T09:36:48.103Z</time></trkpt><trkpt lat="43.5125067" lon="11.0400183"><ele>180.0</ele><time>2026-04-05T09:36:49.103Z</time></trkpt><trkpt lat="43.51261" lon="11.0401117"><ele>180.0</ele><time>2026-04-05T09:36:50.103Z</time></trkpt><trkpt lat="43.512715" lon="11.04021"><ele>180.0</ele><time>2026-04-05T09:36:51.103Z</time></trkpt><trkpt lat="43.512815" lon="11.04032"><ele>180.0</ele><time>2026-04-05T09:36:52.103Z</time></trkpt><trkpt lat="43.5129117" lon="11.0404333"><ele>180.25</ele><time>2026-04-05T09:36:53.103Z</time></trkpt><trkpt lat="43.5130017" lon="11.0405583"><ele>180.5</ele><time>2026-04-05T09:36:54.103Z</time></trkpt><trkpt lat="43.5130933" lon="11.04068"><ele>180.75</ele><time>2026-04-05T09:36:55.103Z</time></trkpt><trkpt lat="43.5131833" lon="11.0408017"><ele>181.0</ele><time>2026-04-05T09:36:56.103Z</time></trkpt><trkpt lat="43.513275" lon="11.0409167"><ele>181.0</ele><time>2026-04-05T09:36:57.103Z</time></trkpt><trkpt lat="43.513365" lon="11.0410333"><ele>181.0</ele><time>2026-04-05T09:36:58.103Z</time></trkpt><trkpt lat="43.5134567" lon="11.0411467"><ele>181.0</ele><time>2026-04-05T09:36:59.103Z</time></trkpt><trkpt lat="43.513545" lon="11.0412583"><ele>181.0</ele><time>2026-04-05T09:37:00.103Z</time></trkpt><trkpt lat="43.51363" lon="11.0413667"><ele>181.0</ele><time>2026-04-05T09:37:01.103Z</time></trkpt><trkpt lat="43.5137133" lon="11.041475"><ele>181.0</ele><time>2026-04-05T09:37:02.103Z</time></trkpt><trkpt lat="43.5137917" lon="11.0415867"><ele>181.0</ele><time>2026-04-05T09:37:03.103Z</time></trkpt><trkpt lat="43.5138667" lon="11.0416967"><ele>181.0</ele><time>2026-04-05T09:37:04.103Z</time></trkpt><trkpt lat="43.5139417" lon="11.0418067"><ele>181.0</ele><time>2026-04-05T09:37:05.103Z</time></trkpt><trkpt lat="43.5140183" lon="11.041915"><ele>180.0</ele><time>2026-04-05T09:37:06.103Z</time></trkpt><trkpt lat="43.5140933" lon="11.0420217"><ele>179.0</ele><time>2026-04-05T09:37:07.103Z</time></trkpt><trkpt lat="43.51417" lon="11.0421267"><ele>178.0</ele><time>2026-04-05T09:37:08.103Z</time></trkpt><trkpt lat="43.5142467" lon="11.0422317"><ele>177.0</ele><time>2026-04-05T09:37:09.103Z</time></trkpt><trkpt lat="43.5143267" lon="11.0423367"><ele>176.0</ele><time>2026-04-05T09:37:10.103Z</time></trkpt><trkpt lat="43.5144067" lon="11.0424433"><ele>176.0</ele><time>2026-04-05T09:37:11.103Z</time></trkpt><trkpt lat="43.5144917" lon="11.04255"><ele>176.0</ele><time>2026-04-05T09:37:12.103Z</time></trkpt><trkpt lat="43.5145817" lon="11.0426567"><ele>176.0</ele><time>2026-04-05T09:37:13.103Z</time></trkpt><trkpt lat="43.5146767" lon="11.042765"><ele>176.0</ele><time>2026-04-05T09:37:14.103Z</time></trkpt><trkpt lat="43.514775" lon="11.0428683"><ele>174.75</ele><time>2026-04-05T09:37:15.103Z</time></trkpt><trkpt lat="43.5148733" lon="11.0429717"><ele>173.5</ele><time>2026-04-05T09:37:16.103Z</time></trkpt><trkpt lat="43.5149717" lon="11.0430767"><ele>172.25</ele><time>2026-04-05T09:37:17.103Z</time></trkpt><trkpt lat="43.51507" lon="11.0431817"><ele>171.0</ele><time>2026-04-05T09:37:18.103Z</time></trkpt><trkpt lat="43.5151683" lon="11.0432867"><ele>170.25</ele><time>2026-04-05T09:37:19.103Z</time></trkpt><trkpt lat="43.5152667" lon="11.0433867"><ele>169.5</ele><time>2026-04-05T09:37:20.103Z</time></trkpt><trkpt lat="43.5153633" lon="11.0434817"><ele>168.75</ele><time>2026-04-05T09:37:21.103Z</time></trkpt><trkpt lat="43.5154633" lon="11.0435667"><ele>168.0</ele><time>2026-04-05T09:37:22.103Z</time></trkpt><trkpt lat="43.5155667" lon="11.0436383"><ele>168.0</ele><time>2026-04-05T09:37:23.103Z</time></trkpt><trkpt lat="43.515675" lon="11.0437"><ele>168.0</ele><time>2026-04-05T09:37:24.103Z</time></trkpt><trkpt lat="43.5157783" lon="11.043765"><ele>168.0</ele><time>2026-04-05T09:37:25.103Z</time></trkpt><trkpt lat="43.5158817" lon="11.0438283"><ele>168.0</ele><time>2026-04-05T09:37:26.103Z</time></trkpt><trkpt lat="43.515985" lon="11.04389"><ele>168.0</ele><time>2026-04-05T09:37:27.103Z</time></trkpt><trkpt lat="43.5160867" lon="11.0439533"><ele>168.0</ele><time>2026-04-05T09:37:28.103Z</time></trkpt><trkpt lat="43.51619" lon="11.04402"><ele>168.0</ele><time>2026-04-05T09:37:29.103Z</time></trkpt><trkpt lat="43.5162933" lon="11.0440867"><ele>168.0</ele><time>2026-04-05T09:37:30.102Z</time></trkpt><trkpt lat="43.5163983" lon="11.0441567"><ele>168.75</ele><time>2026-04-05T09:37:31.103Z</time></trkpt><trkpt lat="43.5165033" lon="11.0442233"><ele>169.5</ele><time>2026-04-05T09:37:32.103Z</time></trkpt><trkpt lat="43.5166083" lon="11.04429"><ele>170.25</ele><time>2026-04-05T09:37:33.103Z</time></trkpt><trkpt lat="43.5167117" lon="11.04435"><ele>171.0</ele><time>2026-04-05T09:37:34.103Z</time></trkpt><trkpt lat="43.5168133" lon="11.04441"><ele>171.0</ele><time>2026-04-05T09:37:35.103Z</time></trkpt><trkpt lat="43.5169117" lon="11.0444717"><ele>171.0</ele><time>2026-04-05T09:37:36.102Z</time></trkpt><trkpt lat="43.5170033" lon="11.044545"><ele>171.0</ele><time>2026-04-05T09:37:37.103Z</time></trkpt><trkpt lat="43.5170883" lon="11.0446283"><ele>171.0</ele><time>2026-04-05T09:37:38.103Z</time></trkpt><trkpt lat="43.51717" lon="11.0447167"><ele>171.0</ele><time>2026-04-05T09:37:39.103Z</time></trkpt><trkpt lat="43.51725" lon="11.0448133"><ele>171.0</ele><time>2026-04-05T09:37:40.103Z</time></trkpt><trkpt lat="43.5173317" lon="11.04491"><ele>171.0</ele><time>2026-04-05T09:37:41.103Z</time></trkpt><trkpt lat="43.5174167" lon="11.0450033"><ele>171.0</ele><time>2026-04-05T09:37:42.103Z</time></trkpt><trkpt lat="43.5175033" lon="11.0450967"><ele>171.0</ele><time>2026-04-05T09:37:43.103Z</time></trkpt><trkpt lat="43.5175867" lon="11.045185"><ele>171.0</ele><time>2026-04-05T09:37:44.103Z</time></trkpt><trkpt lat="43.5176617" lon="11.0452667"><ele>171.0</ele><time>2026-04-05T09:37:45.103Z</time></trkpt><trkpt lat="43.517725" lon="11.0453367"><ele>171.0</ele><time>2026-04-05T09:37:46.103Z</time></trkpt><trkpt lat="43.5177833" lon="11.0453983"><ele>171.0</ele><time>2026-04-05T09:37:47.103Z</time></trkpt><trkpt lat="43.5178417" lon="11.045455"><ele>171.0</ele><time>2026-04-05T09:37:48.103Z</time></trkpt><trkpt lat="43.5178967" lon="11.045515"><ele>171.0</ele><time>2026-04-05T09:37:49.103Z</time></trkpt><trkpt lat="43.517955" lon="11.04558"><ele>171.0</ele><time>2026-04-05T09:37:50.103Z</time></trkpt><trkpt lat="43.518025" lon="11.0456467"><ele>170.60000000000002</ele><time>2026-04-05T09:37:51.103Z</time></trkpt><trkpt lat="43.5180967" lon="11.0457183"><ele>170.2</ele><time>2026-04-05T09:37:52.103Z</time></trkpt><trkpt lat="43.51817" lon="11.0457917"><ele>169.8</ele><time>2026-04-05T09:37:53.103Z</time></trkpt><trkpt lat="43.51824" lon="11.045865"><ele>169.39999999999998</ele><time>2026-04-05T09:37:54.103Z</time></trkpt><trkpt lat="43.5183167" lon="11.0459333"><ele>169.0</ele><time>2026-04-05T09:37:55.103Z</time></trkpt><trkpt lat="43.5184" lon="11.0459917"><ele>169.0</ele><time>2026-04-05T09:37:56.103Z</time></trkpt><trkpt lat="43.5184917" lon="11.0460383"><ele>169.0</ele><time>2026-04-05T09:37:57.103Z</time></trkpt><trkpt lat="43.5185883" lon="11.0460683"><ele>169.0</ele><time>2026-04-05T09:37:58.103Z</time></trkpt><trkpt lat="43.5186883" lon="11.04609"><ele>169.0</ele><time>2026-04-05T09:37:59.103Z</time></trkpt><trkpt lat="43.5187883" lon="11.046105"><ele>169.0</ele><time>2026-04-05T09:38:00.103Z</time></trkpt><trkpt lat="43.518935" lon="11.0463033"><ele>168.33333333333334</ele><time>2026-04-05T09:38:02.957Z</time></trkpt><trkpt lat="43.519085" lon="11.0462133"><ele>167.66666666666666</ele><time>2026-04-05T09:38:04.103Z</time></trkpt><trkpt lat="43.5191767" lon="11.0461633"><ele>167.0</ele><time>2026-04-05T09:38:05.103Z</time></trkpt><trkpt lat="43.519385" lon="11.046095"><ele>167.0</ele><time>2026-04-05T09:38:08.103Z</time></trkpt><trkpt lat="43.5194533" lon="11.0460967"><ele>167.0</ele><time>2026-04-05T09:38:10.103Z</time></trkpt><trkpt lat="43.5195183" lon="11.046115"><ele>167.0</ele><time>2026-04-05T09:38:17.103Z</time></trkpt><trkpt lat="43.5195817" lon="11.046025"><ele>167.0</ele><time>2026-04-05T09:38:20.102Z</time></trkpt><trkpt lat="43.5196567" lon="11.0458917"><ele>167.0</ele><time>2026-04-05T09:38:22.103Z</time></trkpt><trkpt lat="43.5197117" lon="11.0458017"><ele>167.0</ele><time>2026-04-05T09:38:23.103Z</time></trkpt><trkpt lat="43.5197767" lon="11.0457017"><ele>166.39999999999998</ele><time>2026-04-05T09:38:24.103Z</time></trkpt><trkpt lat="43.5198417" lon="11.0455917"><ele>165.79999999999998</ele><time>2026-04-05T09:38:25.103Z</time></trkpt><trkpt lat="43.5199133" lon="11.0454817"><ele>165.2</ele><time>2026-04-05T09:38:26.103Z</time></trkpt><trkpt lat="43.5199867" lon="11.0453667"><ele>164.6</ele><time>2026-04-05T09:38:27.103Z</time></trkpt><trkpt lat="43.5200667" lon="11.04526"><ele>164.0</ele><time>2026-04-05T09:38:28.103Z</time></trkpt><trkpt lat="43.520155" lon="11.0451617"><ele>164.0</ele><time>2026-04-05T09:38:29.103Z</time></trkpt><trkpt lat="43.520255" lon="11.0450767"><ele>164.0</ele><time>2026-04-05T09:38:30.103Z</time></trkpt><trkpt lat="43.5203617" lon="11.0450083"><ele>164.0</ele><time>2026-04-05T09:38:31.103Z</time></trkpt><trkpt lat="43.5204733" lon="11.0449483"><ele>164.0</ele><time>2026-04-05T09:38:32.103Z</time></trkpt><trkpt lat="43.520585" lon="11.0448983"><ele>163.75</ele><time>2026-04-05T09:38:33.103Z</time></trkpt><trkpt lat="43.5207" lon="11.044855"><ele>163.5</ele><time>2026-04-05T09:38:34.103Z</time></trkpt><trkpt lat="43.5208133" lon="11.0448167"><ele>163.25</ele><time>2026-04-05T09:38:35.102Z</time></trkpt><trkpt lat="43.52093" lon="11.0447883"><ele>163.0</ele><time>2026-04-05T09:38:36.103Z</time></trkpt><trkpt lat="43.5210483" lon="11.0447667"><ele>161.66666666666669</ele><time>2026-04-05T09:38:37.102Z</time></trkpt><trkpt lat="43.5212833" lon="11.0447217"><ele>160.33333333333334</ele><time>2026-04-05T09:38:39.102Z</time></trkpt><trkpt lat="43.5214" lon="11.0446967"><ele>159.0</ele><time>2026-04-05T09:38:40.102Z</time></trkpt><trkpt lat="43.5215133" lon="11.0446733"><ele>159.0</ele><time>2026-04-05T09:38:41.102Z</time></trkpt><trkpt lat="43.5216267" lon="11.0446517"><ele>159.0</ele><time>2026-04-05T09:38:42.103Z</time></trkpt><trkpt lat="43.5217383" lon="11.0446417"><ele>159.0</ele><time>2026-04-05T09:38:43.102Z</time></trkpt><trkpt lat="43.5218483" lon="11.0446467"><ele>159.0</ele><time>2026-04-05T09:38:44.103Z</time></trkpt><trkpt lat="43.521955" lon="11.044675"><ele>159.0</ele><time>2026-04-05T09:38:45.103Z</time></trkpt><trkpt lat="43.5220567" lon="11.0447217"><ele>159.2</ele><time>2026-04-05T09:38:46.103Z</time></trkpt><trkpt lat="43.52216" lon="11.044775"><ele>159.4</ele><time>2026-04-05T09:38:47.103Z</time></trkpt><trkpt lat="43.522265" lon="11.04483"><ele>159.6</ele><time>2026-04-05T09:38:48.103Z</time></trkpt><trkpt lat="43.5223683" lon="11.04489"><ele>159.8</ele><time>2026-04-05T09:38:49.103Z</time></trkpt><trkpt lat="43.5224717" lon="11.0449533"><ele>160.0</ele><time>2026-04-05T09:38:50.103Z</time></trkpt><trkpt lat="43.522575" lon="11.04502"><ele>160.25</ele><time>2026-04-05T09:38:51.103Z</time></trkpt><trkpt lat="43.52268" lon="11.0450883"><ele>160.5</ele><time>2026-04-05T09:38:52.103Z</time></trkpt><trkpt lat="43.5227833" lon="11.0451633"><ele>160.75</ele><time>2026-04-05T09:38:53.103Z</time></trkpt><trkpt lat="43.5228833" lon="11.0452467"><ele>161.0</ele><time>2026-04-05T09:38:54.103Z</time></trkpt><trkpt lat="43.5229767" lon="11.045335"><ele>160.25</ele><time>2026-04-05T09:38:55.103Z</time></trkpt><trkpt lat="43.5230667" lon="11.0454283"><ele>159.5</ele><time>2026-04-05T09:38:56.103Z</time></trkpt><trkpt lat="43.523155" lon="11.0455233"><ele>158.75</ele><time>2026-04-05T09:38:57.103Z</time></trkpt><trkpt lat="43.5233333" lon="11.0457083"><ele>158.0</ele><time>2026-04-05T09:38:59.103Z</time></trkpt><trkpt lat="43.523425" lon="11.0457983"><ele>157.5</ele><time>2026-04-05T09:39:00.103Z</time></trkpt><trkpt lat="43.52352" lon="11.04589"><ele>157.0</ele><time>2026-04-05T09:39:01.103Z</time></trkpt><trkpt lat="43.52362" lon="11.045985"><ele>156.5</ele><time>2026-04-05T09:39:02.103Z</time></trkpt><trkpt lat="43.5237183" lon="11.0460883"><ele>156.0</ele><time>2026-04-05T09:39:03.102Z</time></trkpt><trkpt lat="43.5238183" lon="11.0461867"><ele>153.75</ele><time>2026-04-05T09:39:04.103Z</time></trkpt><trkpt lat="43.5239183" lon="11.046285"><ele>151.5</ele><time>2026-04-05T09:39:05.103Z</time></trkpt><trkpt lat="43.52402" lon="11.0463833"><ele>149.25</ele><time>2026-04-05T09:39:06.103Z</time></trkpt><trkpt lat="43.524125" lon="11.04648"><ele>147.0</ele><time>2026-04-05T09:39:07.103Z</time></trkpt><trkpt lat="43.5242267" lon="11.0465783"><ele>146.75</ele><time>2026-04-05T09:39:08.103Z</time></trkpt><trkpt lat="43.5243267" lon="11.0466767"><ele>146.5</ele><time>2026-04-05T09:39:09.102Z</time></trkpt><trkpt lat="43.5244283" lon="11.0467733"><ele>146.25</ele><time>2026-04-05T09:39:10.102Z</time></trkpt><trkpt lat="43.5245317" lon="11.046865"><ele>146.0</ele><time>2026-04-05T09:39:11.103Z</time></trkpt><trkpt lat="43.52464" lon="11.046945"><ele>146.0</ele><time>2026-04-05T09:39:12.103Z</time></trkpt><trkpt lat="43.52475" lon="11.0470133"><ele>146.0</ele><time>2026-04-05T09:39:13.103Z</time></trkpt><trkpt lat="43.52486" lon="11.0470667"><ele>146.0</ele><time>2026-04-05T09:39:14.103Z</time></trkpt><trkpt lat="43.5249733" lon="11.04711"><ele>146.0</ele><time>2026-04-05T09:39:15.103Z</time></trkpt><trkpt lat="43.52509" lon="11.0471467"><ele>146.0</ele><time>2026-04-05T09:39:16.102Z</time></trkpt><trkpt lat="43.525205" lon="11.0471783"><ele>146.0</ele><time>2026-04-05T09:39:17.103Z</time></trkpt><trkpt lat="43.5253167" lon="11.0472083"><ele>146.0</ele><time>2026-04-05T09:39:18.103Z</time></trkpt><trkpt lat="43.5254267" lon="11.047235"><ele>146.0</ele><time>2026-04-05T09:39:19.103Z</time></trkpt><trkpt lat="43.5255367" lon="11.0472467"><ele>145.6</ele><time>2026-04-05T09:39:20.103Z</time></trkpt><trkpt lat="43.5256467" lon="11.0472433"><ele>145.2</ele><time>2026-04-05T09:39:21.103Z</time></trkpt><trkpt lat="43.525755" lon="11.0472217"><ele>144.8</ele><time>2026-04-05T09:39:22.103Z</time></trkpt><trkpt lat="43.52586" lon="11.0471833"><ele>144.4</ele><time>2026-04-05T09:39:23.103Z</time></trkpt><trkpt lat="43.52596" lon="11.047125"><ele>144.0</ele><time>2026-04-05T09:39:24.103Z</time></trkpt><trkpt lat="43.52605" lon="11.0470467"><ele>144.0</ele><time>2026-04-05T09:39:25.103Z</time></trkpt><trkpt lat="43.52614" lon="11.0469633"><ele>144.0</ele><time>2026-04-05T09:39:26.103Z</time></trkpt><trkpt lat="43.5262317" lon="11.0468833"><ele>144.0</ele><time>2026-04-05T09:39:27.103Z</time></trkpt><trkpt lat="43.5263233" lon="11.0468083"><ele>144.0</ele><time>2026-04-05T09:39:28.102Z</time></trkpt><trkpt lat="43.526415" lon="11.0467283"><ele>144.0</ele><time>2026-04-05T09:39:29.103Z</time></trkpt><trkpt lat="43.5265" lon="11.0466417"><ele>142.8</ele><time>2026-04-05T09:39:30.103Z</time></trkpt><trkpt lat="43.52658" lon="11.046545"><ele>141.60000000000002</ele><time>2026-04-05T09:39:31.103Z</time></trkpt><trkpt lat="43.5266517" lon="11.0464283"><ele>140.4</ele><time>2026-04-05T09:39:32.103Z</time></trkpt><trkpt lat="43.5267183" lon="11.0463083"><ele>139.20000000000002</ele><time>2026-04-05T09:39:33.103Z</time></trkpt><trkpt lat="43.5267883" lon="11.0462"><ele>138.0</ele><time>2026-04-05T09:39:34.103Z</time></trkpt><trkpt lat="43.5268567" lon="11.0460933"><ele>138.0</ele><time>2026-04-05T09:39:35.103Z</time></trkpt><trkpt lat="43.5269267" lon="11.0459867"><ele>138.0</ele><time>2026-04-05T09:39:36.102Z</time></trkpt><trkpt lat="43.5270017" lon="11.0458917"><ele>138.0</ele><time>2026-04-05T09:39:37.103Z</time></trkpt><trkpt lat="43.5270817" lon="11.0458017"><ele>138.0</ele><time>2026-04-05T09:39:38.103Z</time></trkpt><trkpt lat="43.52717" lon="11.0457183"><ele>138.0</ele><time>2026-04-05T09:39:39.103Z</time></trkpt><trkpt lat="43.52726" lon="11.0456383"><ele>136.0</ele><time>2026-04-05T09:39:40.103Z</time></trkpt><trkpt lat="43.5273567" lon="11.0455717"><ele>134.0</ele><time>2026-04-05T09:39:41.103Z</time></trkpt><trkpt lat="43.527455" lon="11.04551"><ele>132.0</ele><time>2026-04-05T09:39:42.103Z</time></trkpt><trkpt lat="43.5275583" lon="11.045465"><ele>130.0</ele><time>2026-04-05T09:39:43.103Z</time></trkpt><trkpt lat="43.527665" lon="11.045435"><ele>128.0</ele><time>2026-04-05T09:39:44.103Z</time></trkpt><trkpt lat="43.527775" lon="11.0454083"><ele>128.0</ele><time>2026-04-05T09:39:45.103Z</time></trkpt><trkpt lat="43.52788" lon="11.0453683"><ele>128.0</ele><time>2026-04-05T09:39:46.103Z</time></trkpt><trkpt lat="43.527985" lon="11.045325"><ele>128.0</ele><time>2026-04-05T09:39:47.103Z</time></trkpt><trkpt lat="43.52807" lon="11.0452433"><ele>128.0</ele><time>2026-04-05T09:39:48.102Z</time></trkpt><trkpt lat="43.5281383" lon="11.0451383"><ele>128.0</ele><time>2026-04-05T09:39:49.103Z</time></trkpt><trkpt lat="43.5281967" lon="11.045015"><ele>127.4</ele><time>2026-04-05T09:39:50.103Z</time></trkpt><trkpt lat="43.5282517" lon="11.044885"><ele>126.80000000000001</ele><time>2026-04-05T09:39:51.103Z</time></trkpt><trkpt lat="43.5283033" lon="11.04476"><ele>126.2</ele><time>2026-04-05T09:39:52.103Z</time></trkpt><trkpt lat="43.5283567" lon="11.044635"><ele>125.6</ele><time>2026-04-05T09:39:53.103Z</time></trkpt><trkpt lat="43.5284083" lon="11.04451"><ele>125.0</ele><time>2026-04-05T09:39:54.103Z</time></trkpt><trkpt lat="43.528455" lon="11.0443833"><ele>125.0</ele><time>2026-04-05T09:39:55.103Z</time></trkpt><trkpt lat="43.5285033" lon="11.0442583"><ele>125.0</ele><time>2026-04-05T09:39:56.103Z</time></trkpt><trkpt lat="43.5285433" lon="11.044135"><ele>125.0</ele><time>2026-04-05T09:39:57.102Z</time></trkpt><trkpt lat="43.5285767" lon="11.0440117"><ele>125.0</ele><time>2026-04-05T09:39:58.103Z</time></trkpt><trkpt lat="43.5286033" lon="11.0438883"><ele>125.0</ele><time>2026-04-05T09:39:59.103Z</time></trkpt><trkpt lat="43.5286167" lon="11.0437583"><ele>123.6</ele><time>2026-04-05T09:40:00.103Z</time></trkpt><trkpt lat="43.528615" lon="11.0436267"><ele>122.2</ele><time>2026-04-05T09:40:01.103Z</time></trkpt><trkpt lat="43.5286067" lon="11.043495"><ele>120.80000000000001</ele><time>2026-04-05T09:40:02.103Z</time></trkpt><trkpt lat="43.5286033" lon="11.0433567"><ele>119.4</ele><time>2026-04-05T09:40:03.103Z</time></trkpt><trkpt lat="43.5286033" lon="11.0432133"><ele>118.0</ele><time>2026-04-05T09:40:04.103Z</time></trkpt><trkpt lat="43.52861" lon="11.0430667"><ele>116.60000000000001</ele><time>2026-04-05T09:40:05.103Z</time></trkpt><trkpt lat="43.5286267" lon="11.0429217"><ele>115.20000000000002</ele><time>2026-04-05T09:40:06.103Z</time></trkpt><trkpt lat="43.5286533" lon="11.04278"><ele>113.8</ele><time>2026-04-05T09:40:07.103Z</time></trkpt><trkpt lat="43.5286983" lon="11.04264"><ele>112.4</ele><time>2026-04-05T09:40:08.103Z</time></trkpt><trkpt lat="43.5287617" lon="11.042515"><ele>111.0</ele><time>2026-04-05T09:40:09.103Z</time></trkpt><trkpt lat="43.5288383" lon="11.0424117"><ele>108.6</ele><time>2026-04-05T09:40:10.103Z</time></trkpt><trkpt lat="43.5289317" lon="11.0423417"><ele>106.19999999999999</ele><time>2026-04-05T09:40:11.103Z</time></trkpt><trkpt lat="43.5290283" lon="11.042305"><ele>103.80000000000001</ele><time>2026-04-05T09:40:12.103Z</time></trkpt><trkpt lat="43.5291283" lon="11.0423217"><ele>101.4</ele><time>2026-04-05T09:40:13.103Z</time></trkpt><trkpt lat="43.5292167" lon="11.0423733"><ele>99.0</ele><time>2026-04-05T09:40:14.102Z</time></trkpt><trkpt lat="43.5292967" lon="11.042455"><ele>98.4</ele><time>2026-04-05T09:40:15.103Z</time></trkpt><trkpt lat="43.5293733" lon="11.04254"><ele>97.80000000000001</ele><time>2026-04-05T09:40:16.103Z</time></trkpt><trkpt lat="43.5294483" lon="11.0426317"><ele>97.19999999999999</ele><time>2026-04-05T09:40:17.103Z</time></trkpt><trkpt lat="43.5295117" lon="11.0427367"><ele>96.6</ele><time>2026-04-05T09:40:18.103Z</time></trkpt><trkpt lat="43.5295633" lon="11.0428533"><ele>96.0</ele><time>2026-04-05T09:40:19.103Z</time></trkpt><trkpt lat="43.5295917" lon="11.0429833"><ele>96.0</ele><time>2026-04-05T09:40:20.103Z</time></trkpt><trkpt lat="43.52961" lon="11.043105"><ele>96.0</ele><time>2026-04-05T09:40:21.103Z</time></trkpt><trkpt lat="43.529625" lon="11.0432133"><ele>96.0</ele><time>2026-04-05T09:40:22.103Z</time></trkpt><trkpt lat="43.5296433" lon="11.0433"><ele>96.0</ele><time>2026-04-05T09:40:23.103Z</time></trkpt><trkpt lat="43.5297467" lon="11.043365"><ele>96.0</ele><time>2026-04-05T09:40:25.103Z</time></trkpt><trkpt lat="43.5298283" lon="11.04329"><ele>96.0</ele><time>2026-04-05T09:40:27.103Z</time></trkpt><trkpt lat="43.5298583" lon="11.04318"><ele>96.0</ele><time>2026-04-05T09:40:28.103Z</time></trkpt><trkpt lat="43.5298833" lon="11.0430667"><ele>96.0</ele><time>2026-04-05T09:40:29.103Z</time></trkpt><trkpt lat="43.52991" lon="11.0429533"><ele>96.0</ele><time>2026-04-05T09:40:30.103Z</time></trkpt><trkpt lat="43.5299367" lon="11.0428317"><ele>96.0</ele><time>2026-04-05T09:40:31.103Z</time></trkpt><trkpt lat="43.5299517" lon="11.0427083"><ele>96.0</ele><time>2026-04-05T09:40:32.103Z</time></trkpt><trkpt lat="43.5299533" lon="11.0425917"><ele>96.0</ele><time>2026-04-05T09:40:33.103Z</time></trkpt><trkpt lat="43.529935" lon="11.042475"><ele>94.66666666666667</ele><time>2026-04-05T09:40:34.103Z</time></trkpt><trkpt lat="43.5299" lon="11.0423617"><ele>93.33333333333333</ele><time>2026-04-05T09:40:35.103Z</time></trkpt><trkpt lat="43.529875" lon="11.04224"><ele>92.0</ele><time>2026-04-05T09:40:36.103Z</time></trkpt><trkpt lat="43.5298683" lon="11.0421233"><ele>90.66666666666666</ele><time>2026-04-05T09:40:37.103Z</time></trkpt><trkpt lat="43.529875" lon="11.0420133"><ele>89.33333333333333</ele><time>2026-04-05T09:40:38.103Z</time></trkpt><trkpt lat="43.5299167" lon="11.041925"><ele>88.0</ele><time>2026-04-05T09:40:39.103Z</time></trkpt><trkpt lat="43.5300017" lon="11.0419083"><ele>88.0</ele><time>2026-04-05T09:40:40.103Z</time></trkpt><trkpt lat="43.5300867" lon="11.041915"><ele>88.0</ele><time>2026-04-05T09:40:41.103Z</time></trkpt><trkpt lat="43.5301817" lon="11.04195"><ele>88.0</ele><time>2026-04-05T09:40:42.103Z</time></trkpt><trkpt lat="43.5302767" lon="11.0420133"><ele>88.0</ele><time>2026-04-05T09:40:43.102Z</time></trkpt><trkpt lat="43.5303717" lon="11.0420817"><ele>88.0</ele><time>2026-04-05T09:40:44.103Z</time></trkpt><trkpt lat="43.5304683" lon="11.0421483"><ele>86.4</ele><time>2026-04-05T09:40:45.102Z</time></trkpt><trkpt lat="43.530565" lon="11.0422233"><ele>84.80000000000001</ele><time>2026-04-05T09:40:46.103Z</time></trkpt><trkpt lat="43.5306533" lon="11.042305"><ele>83.2</ele><time>2026-04-05T09:40:47.103Z</time></trkpt><trkpt lat="43.5307333" lon="11.0424033"><ele>81.6</ele><time>2026-04-05T09:40:48.103Z</time></trkpt><trkpt lat="43.5308033" lon="11.0425183"><ele>80.0</ele><time>2026-04-05T09:40:49.103Z</time></trkpt><trkpt lat="43.53087" lon="11.0426417"><ele>80.0</ele><time>2026-04-05T09:40:50.103Z</time></trkpt><trkpt lat="43.5309367" lon="11.042765"><ele>80.0</ele><time>2026-04-05T09:40:51.103Z</time></trkpt><trkpt lat="43.5310033" lon="11.0428917"><ele>80.0</ele><time>2026-04-05T09:40:52.103Z</time></trkpt><trkpt lat="43.53107" lon="11.0430133"><ele>80.0</ele><time>2026-04-05T09:40:53.103Z</time></trkpt><trkpt lat="43.53114" lon="11.0431317"><ele>80.0</ele><time>2026-04-05T09:40:54.103Z</time></trkpt><trkpt lat="43.53121" lon="11.0432483"><ele>78.0</ele><time>2026-04-05T09:40:55.103Z</time></trkpt><trkpt lat="43.5312833" lon="11.0433533"><ele>76.0</ele><time>2026-04-05T09:40:56.103Z</time></trkpt><trkpt lat="43.53136" lon="11.0434233"><ele>74.0</ele><time>2026-04-05T09:40:57.103Z</time></trkpt><trkpt lat="43.5314417" lon="11.043465"><ele>72.0</ele><time>2026-04-05T09:40:58.103Z</time></trkpt><trkpt lat="43.53152" lon="11.04342"><ele>70.0</ele><time>2026-04-05T09:40:59.103Z</time></trkpt><trkpt lat="43.5316017" lon="11.0433483"><ele>70.0</ele><time>2026-04-05T09:41:00.103Z</time></trkpt><trkpt lat="43.531665" lon="11.0432267"><ele>70.0</ele><time>2026-04-05T09:41:01.103Z</time></trkpt><trkpt lat="43.5317217" lon="11.0431"><ele>70.0</ele><time>2026-04-05T09:41:02.103Z</time></trkpt><trkpt lat="43.53178" lon="11.0429667"><ele>70.0</ele><time>2026-04-05T09:41:03.103Z</time></trkpt><trkpt lat="43.5318433" lon="11.042835"><ele>70.0</ele><time>2026-04-05T09:41:04.103Z</time></trkpt><trkpt lat="43.5319067" lon="11.0427117"><ele>70.0</ele><time>2026-04-05T09:41:05.103Z</time></trkpt><trkpt lat="43.53197" lon="11.0425917"><ele>70.0</ele><time>2026-04-05T09:41:06.103Z</time></trkpt><trkpt lat="43.5320267" lon="11.0424767"><ele>70.0</ele><time>2026-04-05T09:41:07.103Z</time></trkpt><trkpt lat="43.5320767" lon="11.0423617"><ele>70.0</ele><time>2026-04-05T09:41:08.103Z</time></trkpt><trkpt lat="43.53211" lon="11.0422417"><ele>70.0</ele><time>2026-04-05T09:41:09.103Z</time></trkpt><trkpt lat="43.532115" lon="11.04211"><ele>69.6</ele><time>2026-04-05T09:41:10.103Z</time></trkpt><trkpt lat="43.53209" lon="11.041975"><ele>69.2</ele><time>2026-04-05T09:41:11.103Z</time></trkpt><trkpt lat="43.5320333" lon="11.0418517"><ele>68.8</ele><time>2026-04-05T09:41:12.103Z</time></trkpt><trkpt lat="43.5319467" lon="11.04176"><ele>68.4</ele><time>2026-04-05T09:41:13.102Z</time></trkpt><trkpt lat="43.53184" lon="11.0417183"><ele>68.0</ele><time>2026-04-05T09:41:14.103Z</time></trkpt><trkpt lat="43.5317283" lon="11.0417133"><ele>68.0</ele><time>2026-04-05T09:41:15.103Z</time></trkpt><trkpt lat="43.531615" lon="11.0417367"><ele>68.0</ele><time>2026-04-05T09:41:16.103Z</time></trkpt><trkpt lat="43.5315033" lon="11.041755"><ele>68.0</ele><time>2026-04-05T09:41:17.103Z</time></trkpt><trkpt lat="43.53139" lon="11.04174"><ele>68.0</ele><time>2026-04-05T09:41:18.103Z</time></trkpt><trkpt lat="43.53128" lon="11.0416983"><ele>68.5</ele><time>2026-04-05T09:41:19.103Z</time></trkpt><trkpt lat="43.531175" lon="11.0416317"><ele>69.0</ele><time>2026-04-05T09:41:20.103Z</time></trkpt><trkpt lat="43.5310717" lon="11.0415517"><ele>69.5</ele><time>2026-04-05T09:41:21.103Z</time></trkpt><trkpt lat="43.5309733" lon="11.04146"><ele>70.0</ele><time>2026-04-05T09:41:22.103Z</time></trkpt><trkpt lat="43.53088" lon="11.041365"><ele>70.0</ele><time>2026-04-05T09:41:23.103Z</time></trkpt><trkpt lat="43.5307883" lon="11.0412717"><ele>70.0</ele><time>2026-04-05T09:41:24.103Z</time></trkpt><trkpt lat="43.5307017" lon="11.0411767"><ele>70.0</ele><time>2026-04-05T09:41:25.103Z</time></trkpt><trkpt lat="43.5306217" lon="11.0410733"><ele>70.0</ele><time>2026-04-05T09:41:26.103Z</time></trkpt><trkpt lat="43.5305517" lon="11.040955"><ele>70.0</ele><time>2026-04-05T09:41:27.103Z</time></trkpt><trkpt lat="43.5304967" lon="11.040825"><ele>69.5</ele><time>2026-04-05T09:41:28.103Z</time></trkpt><trkpt lat="43.5304617" lon="11.0406717"><ele>69.0</ele><time>2026-04-05T09:41:29.103Z</time></trkpt><trkpt lat="43.5304483" lon="11.0405083"><ele>68.5</ele><time>2026-04-05T09:41:30.102Z</time></trkpt><trkpt lat="43.530455" lon="11.0403467"><ele>68.0</ele><time>2026-04-05T09:41:31.103Z</time></trkpt><trkpt lat="43.53048" lon="11.0401883"><ele>68.0</ele><time>2026-04-05T09:41:32.103Z</time></trkpt><trkpt lat="43.5305233" lon="11.0400367"><ele>68.0</ele><time>2026-04-05T09:41:33.103Z</time></trkpt><trkpt lat="43.530585" lon="11.0398867"><ele>68.0</ele><time>2026-04-05T09:41:34.103Z</time></trkpt><trkpt lat="43.5306483" lon="11.0397483"><ele>68.0</ele><time>2026-04-05T09:41:35.102Z</time></trkpt><trkpt lat="43.5307083" lon="11.0396167"><ele>68.2</ele><time>2026-04-05T09:41:36.103Z</time></trkpt><trkpt lat="43.5307767" lon="11.0394983"><ele>68.4</ele><time>2026-04-05T09:41:37.103Z</time></trkpt><trkpt lat="43.5308567" lon="11.039405"><ele>68.60000000000001</ele><time>2026-04-05T09:41:38.103Z</time></trkpt><trkpt lat="43.5309433" lon="11.03936"><ele>68.8</ele><time>2026-04-05T09:41:39.103Z</time></trkpt><trkpt lat="43.5310333" lon="11.0393467"><ele>69.0</ele><time>2026-04-05T09:41:40.103Z</time></trkpt><trkpt lat="43.5311233" lon="11.0394"><ele>69.0</ele><time>2026-04-05T09:41:41.103Z</time></trkpt><trkpt lat="43.5312133" lon="11.0394867"><ele>69.0</ele><time>2026-04-05T09:41:42.103Z</time></trkpt><trkpt lat="43.53131" lon="11.0395833"><ele>69.0</ele><time>2026-04-05T09:41:43.103Z</time></trkpt><trkpt lat="43.531415" lon="11.0396883"><ele>69.0</ele><time>2026-04-05T09:41:44.102Z</time></trkpt><trkpt lat="43.5315283" lon="11.039785"><ele>69.25</ele><time>2026-04-05T09:41:45.103Z</time></trkpt><trkpt lat="43.5316467" lon="11.0398767"><ele>69.5</ele><time>2026-04-05T09:41:46.103Z</time></trkpt><trkpt lat="43.5317667" lon="11.0399617"><ele>69.75</ele><time>2026-04-05T09:41:47.103Z</time></trkpt><trkpt lat="43.5318917" lon="11.040045"><ele>70.0</ele><time>2026-04-05T09:41:48.103Z</time></trkpt><trkpt lat="43.53202" lon="11.0401183"><ele>69.0</ele><time>2026-04-05T09:41:49.103Z</time></trkpt><trkpt lat="43.53215" lon="11.04018"><ele>68.0</ele><time>2026-04-05T09:41:50.103Z</time></trkpt><trkpt lat="43.532285" lon="11.040235"><ele>67.0</ele><time>2026-04-05T09:41:51.103Z</time></trkpt><trkpt lat="43.53242" lon="11.0402783"><ele>66.0</ele><time>2026-04-05T09:41:52.103Z</time></trkpt><trkpt lat="43.532555" lon="11.0403133"><ele>66.0</ele><time>2026-04-05T09:41:53.103Z</time></trkpt><trkpt lat="43.5326933" lon="11.0403383"><ele>66.0</ele><time>2026-04-05T09:41:54.103Z</time></trkpt><trkpt lat="43.5328317" lon="11.04035"><ele>66.0</ele><time>2026-04-05T09:41:55.102Z</time></trkpt><trkpt lat="43.5329667" lon="11.0403483"><ele>66.0</ele><time>2026-04-05T09:41:56.103Z</time></trkpt><trkpt lat="43.5330983" lon="11.040335"><ele>65.8</ele><time>2026-04-05T09:41:57.103Z</time></trkpt><trkpt lat="43.5332233" lon="11.0403083"><ele>65.6</ele><time>2026-04-05T09:41:58.103Z</time></trkpt><trkpt lat="43.53334" lon="11.04027"><ele>65.4</ele><time>2026-04-05T09:41:59.103Z</time></trkpt><trkpt lat="43.533445" lon="11.0402267"><ele>65.2</ele><time>2026-04-05T09:42:00.103Z</time></trkpt><trkpt lat="43.5335333" lon="11.0401983"><ele>65.0</ele><time>2026-04-05T09:42:01.103Z</time></trkpt><trkpt lat="43.5336017" lon="11.0401867"><ele>65.0</ele><time>2026-04-05T09:42:02.103Z</time></trkpt><trkpt lat="43.5337033" lon="11.0402"><ele>65.0</ele><time>2026-04-05T09:42:04.103Z</time></trkpt><trkpt lat="43.533805" lon="11.0402533"><ele>65.0</ele><time>2026-04-05T09:42:06.103Z</time></trkpt><trkpt lat="43.5338717" lon="11.0402883"><ele>65.0</ele><time>2026-04-05T09:42:07.102Z</time></trkpt><trkpt lat="43.533945" lon="11.0403167"><ele>65.0</ele><time>2026-04-05T09:42:08.103Z</time></trkpt><trkpt lat="43.534025" lon="11.0403333"><ele>65.0</ele><time>2026-04-05T09:42:09.103Z</time></trkpt><trkpt lat="43.5341067" lon="11.0403433"><ele>65.2</ele><time>2026-04-05T09:42:10.103Z</time></trkpt><trkpt lat="43.53419" lon="11.0403617"><ele>65.4</ele><time>2026-04-05T09:42:11.103Z</time></trkpt><trkpt lat="43.53427" lon="11.0403933"><ele>65.6</ele><time>2026-04-05T09:42:12.103Z</time></trkpt><trkpt lat="43.53435" lon="11.040445"><ele>65.8</ele><time>2026-04-05T09:42:13.103Z</time></trkpt><trkpt lat="43.5344317" lon="11.0405267"><ele>66.0</ele><time>2026-04-05T09:42:14.103Z</time></trkpt><trkpt lat="43.5345117" lon="11.0406167"><ele>65.33333333333333</ele><time>2026-04-05T09:42:15.103Z</time></trkpt><trkpt lat="43.5345867" lon="11.04071"><ele>64.66666666666666</ele><time>2026-04-05T09:42:16.103Z</time></trkpt><trkpt lat="43.53472" lon="11.040965"><ele>64.0</ele><time>2026-04-05T09:42:18.988Z</time></trkpt><trkpt lat="43.5348617" lon="11.0410817"><ele>64.0</ele><time>2026-04-05T09:42:20.103Z</time></trkpt><trkpt lat="43.53497" lon="11.0412067"><ele>64.0</ele><time>2026-04-05T09:42:21.103Z</time></trkpt><trkpt lat="43.5351367" lon="11.04143"><ele>64.0</ele><time>2026-04-05T09:42:23.103Z</time></trkpt><trkpt lat="43.53522" lon="11.041555"><ele>64.25</ele><time>2026-04-05T09:42:24.103Z</time></trkpt><trkpt lat="43.535305" lon="11.0416633"><ele>64.5</ele><time>2026-04-05T09:42:25.103Z</time></trkpt><trkpt lat="43.53539" lon="11.0417717"><ele>64.75</ele><time>2026-04-05T09:42:26.103Z</time></trkpt><trkpt lat="43.535475" lon="11.0418833"><ele>65.0</ele><time>2026-04-05T09:42:27.103Z</time></trkpt><trkpt lat="43.5355533" lon="11.041995"><ele>65.0</ele><time>2026-04-05T09:42:28.103Z</time></trkpt><trkpt lat="43.5356267" lon="11.04211"><ele>65.0</ele><time>2026-04-05T09:42:29.103Z</time></trkpt><trkpt lat="43.5356933" lon="11.0422283"><ele>65.0</ele><time>2026-04-05T09:42:30.103Z</time></trkpt><trkpt lat="43.53575" lon="11.0423533"><ele>65.0</ele><time>2026-04-05T09:42:31.103Z</time></trkpt><trkpt lat="43.5358033" lon="11.0424933"><ele>65.0</ele><time>2026-04-05T09:42:32.103Z</time></trkpt><trkpt lat="43.5358517" lon="11.04265"><ele>65.0</ele><time>2026-04-05T09:42:33.103Z</time></trkpt><trkpt lat="43.53589" lon="11.042815"><ele>65.0</ele><time>2026-04-05T09:42:34.103Z</time></trkpt><trkpt lat="43.5359167" lon="11.042985"><ele>65.0</ele><time>2026-04-05T09:42:35.103Z</time></trkpt><trkpt lat="43.5359317" lon="11.04316"><ele>65.0</ele><time>2026-04-05T09:42:36.103Z</time></trkpt><trkpt lat="43.53594" lon="11.0433367"><ele>65.25</ele><time>2026-04-05T09:42:37.103Z</time></trkpt><trkpt lat="43.5359467" lon="11.0435133"><ele>65.5</ele><time>2026-04-05T09:42:38.103Z</time></trkpt><trkpt lat="43.535955" lon="11.0436883"><ele>65.75</ele><time>2026-04-05T09:42:39.103Z</time></trkpt><trkpt lat="43.5359617" lon="11.0438633"><ele>66.0</ele><time>2026-04-05T09:42:40.103Z</time></trkpt><trkpt lat="43.53597" lon="11.0440383"><ele>66.0</ele><time>2026-04-05T09:42:41.103Z</time></trkpt><trkpt lat="43.5359783" lon="11.0442167"><ele>66.0</ele><time>2026-04-05T09:42:42.103Z</time></trkpt><trkpt lat="43.5359883" lon="11.0443983"><ele>66.0</ele><time>2026-04-05T09:42:43.103Z</time></trkpt><trkpt lat="43.536" lon="11.044585"><ele>66.0</ele><time>2026-04-05T09:42:44.103Z</time></trkpt><trkpt lat="43.5360117" lon="11.0447817"><ele>66.25</ele><time>2026-04-05T09:42:45.103Z</time></trkpt><trkpt lat="43.5360217" lon="11.044985"><ele>66.5</ele><time>2026-04-05T09:42:46.103Z</time></trkpt><trkpt lat="43.5360317" lon="11.0451883"><ele>66.75</ele><time>2026-04-05T09:42:47.103Z</time></trkpt><trkpt lat="43.5360433" lon="11.0453867"><ele>67.0</ele><time>2026-04-05T09:42:48.103Z</time></trkpt><trkpt lat="43.5360633" lon="11.0455817"><ele>67.0</ele><time>2026-04-05T09:42:49.103Z</time></trkpt><trkpt lat="43.536095" lon="11.0457717"><ele>67.0</ele><time>2026-04-05T09:42:50.103Z</time></trkpt><trkpt lat="43.5361417" lon="11.0459617"><ele>67.0</ele><time>2026-04-05T09:42:51.103Z</time></trkpt><trkpt lat="43.5362" lon="11.046145"><ele>67.0</ele><time>2026-04-05T09:42:52.103Z</time></trkpt><trkpt lat="43.5362733" lon="11.0463167"><ele>67.25</ele><time>2026-04-05T09:42:53.103Z</time></trkpt><trkpt lat="43.5363617" lon="11.04648"><ele>67.5</ele><time>2026-04-05T09:42:54.103Z</time></trkpt><trkpt lat="43.5364567" lon="11.0466367"><ele>67.75</ele><time>2026-04-05T09:42:55.103Z</time></trkpt><trkpt lat="43.536555" lon="11.0467817"><ele>68.0</ele><time>2026-04-05T09:42:56.103Z</time></trkpt><trkpt lat="43.536655" lon="11.0469283"><ele>68.0</ele><time>2026-04-05T09:42:57.103Z</time></trkpt><trkpt lat="43.5367517" lon="11.0470733"><ele>68.0</ele><time>2026-04-05T09:42:58.103Z</time></trkpt><trkpt lat="43.5368467" lon="11.0472133"><ele>68.0</ele><time>2026-04-05T09:42:59.103Z</time></trkpt><trkpt lat="43.5369383" lon="11.0473483"><ele>68.0</ele><time>2026-04-05T09:43:00.103Z</time></trkpt><trkpt lat="43.53703" lon="11.0474817"><ele>68.25</ele><time>2026-04-05T09:43:01.103Z</time></trkpt><trkpt lat="43.53712" lon="11.0476133"><ele>68.5</ele><time>2026-04-05T09:43:02.103Z</time></trkpt><trkpt lat="43.537205" lon="11.047745"><ele>68.75</ele><time>2026-04-05T09:43:03.103Z</time></trkpt><trkpt lat="43.5372917" lon="11.0478717"><ele>69.0</ele><time>2026-04-05T09:43:04.103Z</time></trkpt><trkpt lat="43.5373733" lon="11.0479983"><ele>69.0</ele><time>2026-04-05T09:43:05.103Z</time></trkpt><trkpt lat="43.537445" lon="11.048135"><ele>69.0</ele><time>2026-04-05T09:43:06.103Z</time></trkpt><trkpt lat="43.5375033" lon="11.04828"><ele>69.0</ele><time>2026-04-05T09:43:07.103Z</time></trkpt><trkpt lat="43.5375467" lon="11.0484383"><ele>69.0</ele><time>2026-04-05T09:43:08.102Z</time></trkpt><trkpt lat="43.5375733" lon="11.0485983"><ele>69.0</ele><time>2026-04-05T09:43:09.103Z</time></trkpt><trkpt lat="43.5375833" lon="11.0487567"><ele>69.0</ele><time>2026-04-05T09:43:10.103Z</time></trkpt><trkpt lat="43.5375817" lon="11.0488967"><ele>69.0</ele><time>2026-04-05T09:43:11.103Z</time></trkpt><trkpt lat="43.5375683" lon="11.0490183"><ele>69.0</ele><time>2026-04-05T09:43:12.103Z</time></trkpt><trkpt lat="43.5375417" lon="11.0491283"><ele>69.0</ele><time>2026-04-05T09:43:13.103Z</time></trkpt><trkpt lat="43.5375083" lon="11.0492183"><ele>69.8</ele><time>2026-04-05T09:43:14.103Z</time></trkpt><trkpt lat="43.5374733" lon="11.0492917"><ele>70.60000000000001</ele><time>2026-04-05T09:43:15.103Z</time></trkpt><trkpt lat="43.5373817" lon="11.0493883"><ele>71.4</ele><time>2026-04-05T09:43:17.103Z</time></trkpt><trkpt lat="43.5372783" lon="11.049395"><ele>72.2</ele><time>2026-04-05T09:43:19.103Z</time></trkpt><trkpt lat="43.5371767" lon="11.0493283"><ele>73.0</ele><time>2026-04-05T09:43:21.103Z</time></trkpt><trkpt lat="43.5371283" lon="11.049265"><ele>73.0</ele><time>2026-04-05T09:43:22.103Z</time></trkpt><trkpt lat="43.537095" lon="11.0491783"><ele>73.0</ele><time>2026-04-05T09:43:23.103Z</time></trkpt><trkpt lat="43.537085" lon="11.0490783"><ele>73.0</ele><time>2026-04-05T09:43:24.103Z</time></trkpt><trkpt lat="43.5370967" lon="11.0489617"><ele>73.0</ele><time>2026-04-05T09:43:25.103Z</time></trkpt><trkpt lat="43.5371167" lon="11.0488367"><ele>73.0</ele><time>2026-04-05T09:43:26.103Z</time></trkpt><trkpt lat="43.53714" lon="11.0487067"><ele>73.0</ele><time>2026-04-05T09:43:27.103Z</time></trkpt><trkpt lat="43.537165" lon="11.0485783"><ele>72.2</ele><time>2026-04-05T09:43:28.103Z</time></trkpt><trkpt lat="43.5371967" lon="11.0484517"><ele>71.4</ele><time>2026-04-05T09:43:29.103Z</time></trkpt><trkpt lat="43.5372283" lon="11.0483333"><ele>70.60000000000001</ele><time>2026-04-05T09:43:30.103Z</time></trkpt><trkpt lat="43.537265" lon="11.0482167"><ele>69.8</ele><time>2026-04-05T09:43:31.103Z</time></trkpt><trkpt lat="43.5373083" lon="11.048105"><ele>69.0</ele><time>2026-04-05T09:43:32.102Z</time></trkpt><trkpt lat="43.5373583" lon="11.0479983"><ele>69.0</ele><time>2026-04-05T09:43:33.103Z</time></trkpt><trkpt lat="43.5374117" lon="11.0478933"><ele>69.0</ele><time>2026-04-05T09:43:34.103Z</time></trkpt><trkpt lat="43.537475" lon="11.047805"><ele>69.0</ele><time>2026-04-05T09:43:35.103Z</time></trkpt><trkpt lat="43.53755" lon="11.04773"><ele>69.0</ele><time>2026-04-05T09:43:36.103Z</time></trkpt><trkpt lat="43.5376233" lon="11.0476667"><ele>69.0</ele><time>2026-04-05T09:43:37.103Z</time></trkpt><trkpt lat="43.5376833" lon="11.0476217"><ele>69.0</ele><time>2026-04-05T09:43:38.103Z</time></trkpt><trkpt lat="43.53776" lon="11.0475267"><ele>68.8</ele><time>2026-04-05T09:43:40.103Z</time></trkpt><trkpt lat="43.5377867" lon="11.04739"><ele>68.60000000000001</ele><time>2026-04-05T09:43:42.103Z</time></trkpt><trkpt lat="43.5377667" lon="11.0472967"><ele>68.4</ele><time>2026-04-05T09:43:43.103Z</time></trkpt><trkpt lat="43.537725" lon="11.0471833"><ele>68.2</ele><time>2026-04-05T09:43:44.103Z</time></trkpt><trkpt lat="43.53768" lon="11.0470517"><ele>68.0</ele><time>2026-04-05T09:43:45.103Z</time></trkpt><trkpt lat="43.5376533" lon="11.046915"><ele>68.0</ele><time>2026-04-05T09:43:46.103Z</time></trkpt><trkpt lat="43.5376467" lon="11.04678"><ele>68.0</ele><time>2026-04-05T09:43:47.103Z</time></trkpt><trkpt lat="43.537665" lon="11.046645"><ele>68.0</ele><time>2026-04-05T09:43:48.103Z</time></trkpt><trkpt lat="43.5377017" lon="11.0465033"><ele>68.0</ele><time>2026-04-05T09:43:49.103Z</time></trkpt><trkpt lat="43.5377417" lon="11.0463517"><ele>68.0</ele><time>2026-04-05T09:43:50.103Z</time></trkpt><trkpt lat="43.537785" lon="11.0462"><ele>67.75</ele><time>2026-04-05T09:43:51.103Z</time></trkpt><trkpt lat="43.5378283" lon="11.0460483"><ele>67.5</ele><time>2026-04-05T09:43:52.102Z</time></trkpt><trkpt lat="43.537875" lon="11.0458883"><ele>67.25</ele><time>2026-04-05T09:43:53.103Z</time></trkpt><trkpt lat="43.5379183" lon="11.04573"><ele>67.0</ele><time>2026-04-05T09:43:54.103Z</time></trkpt><trkpt lat="43.5379633" lon="11.0455733"><ele>68.0</ele><time>2026-04-05T09:43:55.103Z</time></trkpt><trkpt lat="43.5380083" lon="11.04541"><ele>69.0</ele><time>2026-04-05T09:43:56.103Z</time></trkpt><trkpt lat="43.538055" lon="11.0452483"><ele>70.0</ele><time>2026-04-05T09:43:57.103Z</time></trkpt><trkpt lat="43.5381" lon="11.0450883"><ele>71.0</ele><time>2026-04-05T09:43:58.103Z</time></trkpt><trkpt lat="43.5381483" lon="11.0449233"><ele>71.0</ele><time>2026-04-05T09:43:59.103Z</time></trkpt><trkpt lat="43.5381983" lon="11.044755"><ele>71.0</ele><time>2026-04-05T09:44:00.103Z</time></trkpt><trkpt lat="43.5382517" lon="11.0445867"><ele>71.0</ele><time>2026-04-05T09:44:01.103Z</time></trkpt><trkpt lat="43.53831" lon="11.0444183"><ele>71.0</ele><time>2026-04-05T09:44:02.103Z</time></trkpt><trkpt lat="43.5383733" lon="11.0442533"><ele>71.0</ele><time>2026-04-05T09:44:03.103Z</time></trkpt><trkpt lat="43.538445" lon="11.04409"><ele>71.0</ele><time>2026-04-05T09:44:04.103Z</time></trkpt><trkpt lat="43.53853" lon="11.0439317"><ele>71.0</ele><time>2026-04-05T09:44:05.103Z</time></trkpt><trkpt lat="43.538625" lon="11.0437833"><ele>71.0</ele><time>2026-04-05T09:44:06.103Z</time></trkpt><trkpt lat="43.5387283" lon="11.0436417"><ele>71.0</ele><time>2026-04-05T09:44:07.103Z</time></trkpt><trkpt lat="43.5388383" lon="11.043505"><ele>71.0</ele><time>2026-04-05T09:44:08.103Z</time></trkpt><trkpt lat="43.53895" lon="11.0433767"><ele>71.0</ele><time>2026-04-05T09:44:09.103Z</time></trkpt><trkpt lat="43.5390633" lon="11.0432517"><ele>71.0</ele><time>2026-04-05T09:44:10.103Z</time></trkpt><trkpt lat="43.5391883" lon="11.04314"><ele>70.5</ele><time>2026-04-05T09:44:11.103Z</time></trkpt><trkpt lat="43.5393117" lon="11.0430317"><ele>70.0</ele><time>2026-04-05T09:44:12.103Z</time></trkpt><trkpt lat="43.539435" lon="11.0429333"><ele>69.5</ele><time>2026-04-05T09:44:13.103Z</time></trkpt><trkpt lat="43.5395583" lon="11.04285"><ele>69.0</ele><time>2026-04-05T09:44:14.103Z</time></trkpt><trkpt lat="43.5396817" lon="11.042775"><ele>69.0</ele><time>2026-04-05T09:44:15.104Z</time></trkpt><trkpt lat="43.539805" lon="11.04271"><ele>69.0</ele><time>2026-04-05T09:44:16.104Z</time></trkpt><trkpt lat="43.5399267" lon="11.0426533"><ele>69.0</ele><time>2026-04-05T09:44:17.104Z</time></trkpt><trkpt lat="43.5400417" lon="11.0426017"><ele>69.0</ele><time>2026-04-05T09:44:18.104Z</time></trkpt><trkpt lat="43.540155" lon="11.0425567"><ele>69.0</ele><time>2026-04-05T09:44:19.104Z</time></trkpt><trkpt lat="43.540265" lon="11.0425117"><ele>69.0</ele><time>2026-04-05T09:44:20.104Z</time></trkpt><trkpt lat="43.5403717" lon="11.0424667"><ele>69.0</ele><time>2026-04-05T09:44:21.104Z</time></trkpt><trkpt lat="43.540475" lon="11.042425"><ele>69.0</ele><time>2026-04-05T09:44:22.104Z</time></trkpt><trkpt lat="43.5405767" lon="11.0423817"><ele>69.0</ele><time>2026-04-05T09:44:23.104Z</time></trkpt><trkpt lat="43.5406733" lon="11.04234"><ele>68.66666666666667</ele><time>2026-04-05T09:44:24.104Z</time></trkpt><trkpt lat="43.5407633" lon="11.042305"><ele>68.33333333333333</ele><time>2026-04-05T09:44:25.104Z</time></trkpt><trkpt lat="43.54085" lon="11.0422683"><ele>68.0</ele><time>2026-04-05T09:44:26.104Z</time></trkpt><trkpt lat="43.540935" lon="11.0422283"><ele>67.66666666666666</ele><time>2026-04-05T09:44:27.104Z</time></trkpt><trkpt lat="43.5410117" lon="11.042185"><ele>67.33333333333333</ele><time>2026-04-05T09:44:28.104Z</time></trkpt><trkpt lat="43.5410783" lon="11.0421467"><ele>67.0</ele><time>2026-04-05T09:44:29.104Z</time></trkpt><trkpt lat="43.541145" lon="11.0421083"><ele>67.0</ele><time>2026-04-05T09:44:30.104Z</time></trkpt><trkpt lat="43.541215" lon="11.0420817"><ele>67.0</ele><time>2026-04-05T09:44:31.104Z</time></trkpt><trkpt lat="43.5412967" lon="11.042055"><ele>67.0</ele><time>2026-04-05T09:44:32.104Z</time></trkpt><trkpt lat="43.541385" lon="11.042025"><ele>67.0</ele><time>2026-04-05T09:44:33.104Z</time></trkpt><trkpt lat="43.5414717" lon="11.041985"><ele>67.0</ele><time>2026-04-05T09:44:34.103Z</time></trkpt><trkpt lat="43.5415567" lon="11.041945"><ele>67.0</ele><time>2026-04-05T09:44:35.104Z</time></trkpt><trkpt lat="43.5416333" lon="11.041915"><ele>67.0</ele><time>2026-04-05T09:44:36.104Z</time></trkpt><trkpt lat="43.5417017" lon="11.0418983"><ele>67.0</ele><time>2026-04-05T09:44:37.103Z</time></trkpt><trkpt lat="43.5417733" lon="11.0418833"><ele>67.0</ele><time>2026-04-05T09:44:39.104Z</time></trkpt><trkpt lat="43.5418367" lon="11.041835"><ele>67.0</ele><time>2026-04-05T09:48:02.104Z</time></trkpt><trkpt lat="43.5419017" lon="11.0417667"><ele>67.0</ele><time>2026-04-05T09:48:05.104Z</time></trkpt><trkpt lat="43.541965" lon="11.0417417"><ele>67.0</ele><time>2026-04-05T09:48:07.104Z</time></trkpt><trkpt lat="43.5420567" lon="11.0417733"><ele>67.6</ele><time>2026-04-05T09:48:09.104Z</time></trkpt><trkpt lat="43.542145" lon="11.0419033"><ele>68.2</ele><time>2026-04-05T09:48:11.104Z</time></trkpt><trkpt lat="43.54218" lon="11.0419933"><ele>68.8</ele><time>2026-04-05T09:48:12.104Z</time></trkpt><trkpt lat="43.5422133" lon="11.0420917"><ele>69.4</ele><time>2026-04-05T09:48:13.104Z</time></trkpt><trkpt lat="43.54224" lon="11.042205"><ele>70.0</ele><time>2026-04-05T09:48:14.104Z</time></trkpt><trkpt lat="43.542275" lon="11.0423067"><ele>70.0</ele><time>2026-04-05T09:48:15.104Z</time></trkpt><trkpt lat="43.5423083" lon="11.042405"><ele>70.0</ele><time>2026-04-05T09:48:16.104Z</time></trkpt><trkpt lat="43.5423367" lon="11.0425033"><ele>70.0</ele><time>2026-04-05T09:48:17.104Z</time></trkpt><trkpt lat="43.5423633" lon="11.0425967"><ele>70.0</ele><time>2026-04-05T09:48:18.103Z</time></trkpt><trkpt lat="43.54239" lon="11.0426883"><ele>70.0</ele><time>2026-04-05T09:48:19.104Z</time></trkpt><trkpt lat="43.5424167" lon="11.0427833"><ele>70.0</ele><time>2026-04-05T09:48:20.104Z</time></trkpt><trkpt lat="43.54244" lon="11.0428867"><ele>70.0</ele><time>2026-04-05T09:48:21.103Z</time></trkpt><trkpt lat="43.5424633" lon="11.0429917"><ele>70.0</ele><time>2026-04-05T09:48:22.104Z</time></trkpt><trkpt lat="43.5424883" lon="11.043105"><ele>70.0</ele><time>2026-04-05T09:48:23.104Z</time></trkpt><trkpt lat="43.5425117" lon="11.0432217"><ele>70.0</ele><time>2026-04-05T09:48:24.104Z</time></trkpt><trkpt lat="43.5425367" lon="11.0433217"><ele>70.0</ele><time>2026-04-05T09:48:25.104Z</time></trkpt><trkpt lat="43.5425533" lon="11.0434183"><ele>70.0</ele><time>2026-04-05T09:48:26.104Z</time></trkpt><trkpt lat="43.5425783" lon="11.043555"><ele>70.2</ele><time>2026-04-05T09:48:28.104Z</time></trkpt><trkpt lat="43.5426133" lon="11.04369"><ele>70.4</ele><time>2026-04-05T09:48:31.104Z</time></trkpt><trkpt lat="43.542665" lon="11.0438217"><ele>70.6</ele><time>2026-04-05T09:48:33.104Z</time></trkpt><trkpt lat="43.5427233" lon="11.0439767"><ele>70.8</ele><time>2026-04-05T09:48:35.104Z</time></trkpt><trkpt lat="43.5427533" lon="11.044055"><ele>71.0</ele><time>2026-04-05T09:48:36.104Z</time></trkpt><trkpt lat="43.542805" lon="11.044205"><ele>71.16666666666667</ele><time>2026-04-05T09:48:38.104Z</time></trkpt><trkpt lat="43.5428517" lon="11.0443433"><ele>71.33333333333334</ele><time>2026-04-05T09:48:40.104Z</time></trkpt><trkpt lat="43.5428783" lon="11.0444533"><ele>71.5</ele><time>2026-04-05T09:48:42.104Z</time></trkpt><trkpt lat="43.542905" lon="11.044535"><ele>71.66666666666667</ele><time>2026-04-05T09:49:01.104Z</time></trkpt><trkpt lat="43.542955" lon="11.04461"><ele>71.83333333333333</ele><time>2026-04-05T09:49:03.104Z</time></trkpt><trkpt lat="43.54304" lon="11.04467"><ele>72.0</ele><time>2026-04-05T09:49:05.104Z</time></trkpt><trkpt lat="43.5431033" lon="11.0446683"><ele>71.66666666666667</ele><time>2026-04-05T09:49:06.104Z</time></trkpt><trkpt lat="43.543175" lon="11.044655"><ele>71.33333333333333</ele><time>2026-04-05T09:49:07.104Z</time></trkpt><trkpt lat="43.5432583" lon="11.0446333"><ele>71.0</ele><time>2026-04-05T09:49:08.104Z</time></trkpt><trkpt lat="43.54335" lon="11.044595"><ele>70.66666666666666</ele><time>2026-04-05T09:49:09.104Z</time></trkpt><trkpt lat="43.5434417" lon="11.044565"><ele>70.33333333333333</ele><time>2026-04-05T09:49:10.104Z</time></trkpt><trkpt lat="43.5435417" lon="11.04454"><ele>70.0</ele><time>2026-04-05T09:49:11.104Z</time></trkpt><trkpt lat="43.5436483" lon="11.044515"><ele>70.25</ele><time>2026-04-05T09:49:12.104Z</time></trkpt><trkpt lat="43.5437617" lon="11.04449"><ele>70.5</ele><time>2026-04-05T09:49:13.104Z</time></trkpt><trkpt lat="43.543875" lon="11.0444767"><ele>70.75</ele><time>2026-04-05T09:49:14.104Z</time></trkpt><trkpt lat="43.543995" lon="11.04448"><ele>71.0</ele><time>2026-04-05T09:49:15.104Z</time></trkpt><trkpt lat="43.544115" lon="11.0444983"><ele>71.0</ele><time>2026-04-05T09:49:16.103Z</time></trkpt><trkpt lat="43.5442367" lon="11.0445317"><ele>71.0</ele><time>2026-04-05T09:49:17.102Z</time></trkpt><trkpt lat="43.5443567" lon="11.044575"><ele>71.0</ele><time>2026-04-05T09:49:18.103Z</time></trkpt><trkpt lat="43.5444817" lon="11.0446183"><ele>71.0</ele><time>2026-04-05T09:49:19.103Z</time></trkpt><trkpt lat="43.5446083" lon="11.044665"><ele>71.25</ele><time>2026-04-05T09:49:20.103Z</time></trkpt><trkpt lat="43.54473" lon="11.0447117"><ele>71.5</ele><time>2026-04-05T09:49:21.103Z</time></trkpt><trkpt lat="43.54485" lon="11.0447567"><ele>71.75</ele><time>2026-04-05T09:49:22.103Z</time></trkpt><trkpt lat="43.54497" lon="11.0447967"><ele>72.0</ele><time>2026-04-05T09:49:23.102Z</time></trkpt><trkpt lat="43.5450833" lon="11.044835"><ele>72.0</ele><time>2026-04-05T09:49:24.103Z</time></trkpt><trkpt lat="43.5451917" lon="11.0448733"><ele>72.0</ele><time>2026-04-05T09:49:25.103Z</time></trkpt><trkpt lat="43.5452883" lon="11.0449083"><ele>72.0</ele><time>2026-04-05T09:49:26.103Z</time></trkpt><trkpt lat="43.5453683" lon="11.04494"><ele>72.0</ele><time>2026-04-05T09:49:27.103Z</time></trkpt><trkpt lat="43.5454283" lon="11.0449683"><ele>72.0</ele><time>2026-04-05T09:49:28.103Z</time></trkpt><trkpt lat="43.5454767" lon="11.0450517"><ele>72.0</ele><time>2026-04-05T09:49:30.103Z</time></trkpt><trkpt lat="43.5454683" lon="11.0451417"><ele>71.8</ele><time>2026-04-05T09:49:32.103Z</time></trkpt><trkpt lat="43.5454267" lon="11.0452867"><ele>71.6</ele><time>2026-04-05T09:49:34.103Z</time></trkpt><trkpt lat="43.5453967" lon="11.04539"><ele>71.39999999999999</ele><time>2026-04-05T09:49:35.103Z</time></trkpt><trkpt lat="43.54536" lon="11.0454917"><ele>71.2</ele><time>2026-04-05T09:49:36.103Z</time></trkpt><trkpt lat="43.5453217" lon="11.045605"><ele>71.0</ele><time>2026-04-05T09:49:37.103Z</time></trkpt><trkpt lat="43.5452883" lon="11.0457317"><ele>71.8</ele><time>2026-04-05T09:49:38.103Z</time></trkpt><trkpt lat="43.5452583" lon="11.0458567"><ele>72.6</ele><time>2026-04-05T09:49:39.103Z</time></trkpt><trkpt lat="43.545225" lon="11.0459817"><ele>73.4</ele><time>2026-04-05T09:49:40.103Z</time></trkpt><trkpt lat="43.5451967" lon="11.04612"><ele>74.2</ele><time>2026-04-05T09:49:41.103Z</time></trkpt><trkpt lat="43.54517" lon="11.0462633"><ele>75.0</ele><time>2026-04-05T09:49:42.103Z</time></trkpt><trkpt lat="43.54514" lon="11.04639"><ele>75.0</ele><time>2026-04-05T09:49:43.103Z</time></trkpt><trkpt lat="43.545105" lon="11.0465117"><ele>75.0</ele><time>2026-04-05T09:49:44.103Z</time></trkpt><trkpt lat="43.5450667" lon="11.0466283"><ele>75.0</ele><time>2026-04-05T09:49:45.103Z</time></trkpt><trkpt lat="43.5450267" lon="11.0467467"><ele>75.0</ele><time>2026-04-05T09:49:46.103Z</time></trkpt><trkpt lat="43.544985" lon="11.0468733"><ele>75.0</ele><time>2026-04-05T09:49:47.103Z</time></trkpt><trkpt lat="43.5449367" lon="11.04699"><ele>75.0</ele><time>2026-04-05T09:49:48.103Z</time></trkpt><trkpt lat="43.54489" lon="11.047115"><ele>75.0</ele><time>2026-04-05T09:49:49.103Z</time></trkpt><trkpt lat="43.54484" lon="11.0472417"><ele>75.0</ele><time>2026-04-05T09:49:50.103Z</time></trkpt><trkpt lat="43.544785" lon="11.0473767"><ele>75.0</ele><time>2026-04-05T09:49:51.103Z</time></trkpt><trkpt lat="43.54473" lon="11.0475083"><ele>75.0</ele><time>2026-04-05T09:49:52.103Z</time></trkpt><trkpt lat="43.5446717" lon="11.0476317"><ele>75.0</ele><time>2026-04-05T09:49:53.103Z</time></trkpt><trkpt lat="43.544605" lon="11.04775"><ele>75.0</ele><time>2026-04-05T09:49:54.103Z</time></trkpt><trkpt lat="43.5445317" lon="11.04785"><ele>75.0</ele><time>2026-04-05T09:49:55.103Z</time></trkpt><trkpt lat="43.5444683" lon="11.047945"><ele>75.0</ele><time>2026-04-05T09:49:56.103Z</time></trkpt><trkpt lat="43.544415" lon="11.04803"><ele>75.0</ele><time>2026-04-05T09:49:57.103Z</time></trkpt><trkpt lat="43.5443633" lon="11.0481783"><ele>75.2</ele><time>2026-04-05T09:49:59.103Z</time></trkpt><trkpt lat="43.5443683" lon="11.0483117"><ele>75.4</ele><time>2026-04-05T09:50:01.102Z</time></trkpt><trkpt lat="43.5443883" lon="11.04844"><ele>75.6</ele><time>2026-04-05T09:50:03.103Z</time></trkpt><trkpt lat="43.5444267" lon="11.04858"><ele>75.8</ele><time>2026-04-05T09:50:05.103Z</time></trkpt><trkpt lat="43.5444583" lon="11.048675"><ele>76.0</ele><time>2026-04-05T09:50:06.103Z</time></trkpt><trkpt lat="43.5444883" lon="11.04877"><ele>76.0</ele><time>2026-04-05T09:50:07.103Z</time></trkpt><trkpt lat="43.5445233" lon="11.048865"><ele>76.0</ele><time>2026-04-05T09:50:08.103Z</time></trkpt><trkpt lat="43.5445567" lon="11.0489733"><ele>76.0</ele><time>2026-04-05T09:50:09.103Z</time></trkpt><trkpt lat="43.54459" lon="11.04909"><ele>76.0</ele><time>2026-04-05T09:50:10.103Z</time></trkpt><trkpt lat="43.5446233" lon="11.0492067"><ele>76.0</ele><time>2026-04-05T09:50:11.102Z</time></trkpt><trkpt lat="43.5446583" lon="11.0493233"><ele>76.0</ele><time>2026-04-05T09:50:12.103Z</time></trkpt><trkpt lat="43.54469" lon="11.0494417"><ele>76.0</ele><time>2026-04-05T09:50:13.103Z</time></trkpt><trkpt lat="43.5447167" lon="11.0495583"><ele>76.0</ele><time>2026-04-05T09:50:14.103Z</time></trkpt><trkpt lat="43.5447417" lon="11.0496883"><ele>76.0</ele><time>2026-04-05T09:50:15.103Z</time></trkpt><trkpt lat="43.544765" lon="11.049825"><ele>76.0</ele><time>2026-04-05T09:50:16.103Z</time></trkpt><trkpt lat="43.54479" lon="11.0499567"><ele>76.0</ele><time>2026-04-05T09:50:17.103Z</time></trkpt><trkpt lat="43.5448167" lon="11.0500867"><ele>76.0</ele><time>2026-04-05T09:50:18.102Z</time></trkpt><trkpt lat="43.5448467" lon="11.0502133"><ele>76.0</ele><time>2026-04-05T09:50:19.103Z</time></trkpt><trkpt lat="43.54488" lon="11.05034"><ele>76.0</ele><time>2026-04-05T09:50:20.103Z</time></trkpt><trkpt lat="43.5449167" lon="11.0504617"><ele>76.0</ele><time>2026-04-05T09:50:21.103Z</time></trkpt><trkpt lat="43.5449567" lon="11.050575"><ele>76.0</ele><time>2026-04-05T09:50:22.103Z</time></trkpt><trkpt lat="43.5449917" lon="11.05069"><ele>76.6</ele><time>2026-04-05T09:50:23.103Z</time></trkpt><trkpt lat="43.5450333" lon="11.0507983"><ele>77.19999999999999</ele><time>2026-04-05T09:50:24.103Z</time></trkpt><trkpt lat="43.54507" lon="11.0509133"><ele>77.80000000000001</ele><time>2026-04-05T09:50:25.103Z</time></trkpt><trkpt lat="43.54511" lon="11.0510367"><ele>78.4</ele><time>2026-04-05T09:50:26.103Z</time></trkpt><trkpt lat="43.5451483" lon="11.0511733"><ele>79.0</ele><time>2026-04-05T09:50:27.103Z</time></trkpt><trkpt lat="43.5451933" lon="11.0513167"><ele>79.0</ele><time>2026-04-05T09:50:28.103Z</time></trkpt><trkpt lat="43.5452417" lon="11.0514617"><ele>79.0</ele><time>2026-04-05T09:50:29.102Z</time></trkpt><trkpt lat="43.5452933" lon="11.0516067"><ele>79.0</ele><time>2026-04-05T09:50:30.103Z</time></trkpt><trkpt lat="43.5453533" lon="11.0517533"><ele>79.0</ele><time>2026-04-05T09:50:31.103Z</time></trkpt><trkpt lat="43.5454217" lon="11.0518983"><ele>78.25</ele><time>2026-04-05T09:50:32.103Z</time></trkpt><trkpt lat="43.5454967" lon="11.0520417"><ele>77.5</ele><time>2026-04-05T09:50:33.103Z</time></trkpt><trkpt lat="43.54558" lon="11.0521767"><ele>76.75</ele><time>2026-04-05T09:50:34.103Z</time></trkpt><trkpt lat="43.5456617" lon="11.0523067"><ele>76.0</ele><time>2026-04-05T09:50:35.103Z</time></trkpt><trkpt lat="43.54574" lon="11.05243"><ele>76.75</ele><time>2026-04-05T09:50:36.103Z</time></trkpt><trkpt lat="43.5458183" lon="11.052545"><ele>77.5</ele><time>2026-04-05T09:50:37.103Z</time></trkpt><trkpt lat="43.545895" lon="11.0526567"><ele>78.25</ele><time>2026-04-05T09:50:38.103Z</time></trkpt><trkpt lat="43.5459733" lon="11.0527667"><ele>79.0</ele><time>2026-04-05T09:50:39.103Z</time></trkpt><trkpt lat="43.54605" lon="11.05288"><ele>79.0</ele><time>2026-04-05T09:50:40.103Z</time></trkpt><trkpt lat="43.5461267" lon="11.0529933"><ele>79.0</ele><time>2026-04-05T09:50:41.103Z</time></trkpt><trkpt lat="43.546205" lon="11.053105"><ele>79.0</ele><time>2026-04-05T09:50:42.103Z</time></trkpt><trkpt lat="43.54628" lon="11.053215"><ele>79.0</ele><time>2026-04-05T09:50:43.103Z</time></trkpt><trkpt lat="43.5463583" lon="11.0533267"><ele>79.0</ele><time>2026-04-05T09:50:44.103Z</time></trkpt><trkpt lat="43.546435" lon="11.0534417"><ele>79.25</ele><time>2026-04-05T09:50:45.103Z</time></trkpt><trkpt lat="43.5465083" lon="11.05356"><ele>79.5</ele><time>2026-04-05T09:50:46.103Z</time></trkpt><trkpt lat="43.5465867" lon="11.0536767"><ele>79.75</ele><time>2026-04-05T09:50:47.103Z</time></trkpt><trkpt lat="43.5466617" lon="11.0538"><ele>80.0</ele><time>2026-04-05T09:50:48.103Z</time></trkpt><trkpt lat="43.5472633" lon="11.0539667"><ele>79.75</ele><time>2026-04-05T09:50:51.347Z</time></trkpt><trkpt lat="43.547125" lon="11.0542283"><ele>79.5</ele><time>2026-04-05T09:50:52.603Z</time></trkpt><trkpt lat="43.5471467" lon="11.05433"><ele>79.25</ele><time>2026-04-05T09:50:53.603Z</time></trkpt><trkpt lat="43.5472467" lon="11.0544283"><ele>79.0</ele><time>2026-04-05T09:50:55.103Z</time></trkpt><trkpt lat="43.5473133" lon="11.0544983"><ele>79.0</ele><time>2026-04-05T09:50:56.103Z</time></trkpt><trkpt lat="43.5473817" lon="11.054545"><ele>79.0</ele><time>2026-04-05T09:50:57.103Z</time></trkpt><trkpt lat="43.5474383" lon="11.0545867"><ele>79.0</ele><time>2026-04-05T09:50:58.103Z</time></trkpt><trkpt lat="43.547545" lon="11.0546733"><ele>79.0</ele><time>2026-04-05T09:51:00.103Z</time></trkpt><trkpt lat="43.5476017" lon="11.05473"><ele>79.0</ele><time>2026-04-05T09:51:01.103Z</time></trkpt><trkpt lat="43.5476633" lon="11.0548"><ele>79.0</ele><time>2026-04-05T09:51:02.103Z</time></trkpt><trkpt lat="43.5477317" lon="11.0548833"><ele>79.0</ele><time>2026-04-05T09:51:03.103Z</time></trkpt><trkpt lat="43.5477983" lon="11.0549867"><ele>79.0</ele><time>2026-04-05T09:51:04.103Z</time></trkpt><trkpt lat="43.547855" lon="11.0551"><ele>79.0</ele><time>2026-04-05T09:51:05.103Z</time></trkpt><trkpt lat="43.5479033" lon="11.0552183"><ele>79.0</ele><time>2026-04-05T09:51:06.103Z</time></trkpt><trkpt lat="43.5479467" lon="11.0553283"><ele>79.0</ele><time>2026-04-05T09:51:07.103Z</time></trkpt><trkpt lat="43.5479817" lon="11.0554383"><ele>79.0</ele><time>2026-04-05T09:51:08.103Z</time></trkpt><trkpt lat="43.54801" lon="11.0555367"><ele>79.0</ele><time>2026-04-05T09:51:09.102Z</time></trkpt><trkpt lat="43.5480333" lon="11.05562"><ele>79.0</ele><time>2026-04-05T09:51:10.103Z</time></trkpt><trkpt lat="43.5480667" lon="11.0557417"><ele>79.0</ele><time>2026-04-05T09:51:12.103Z</time></trkpt><trkpt lat="43.5480933" lon="11.0558283"><ele>79.0</ele><time>2026-04-05T09:51:14.102Z</time></trkpt><trkpt lat="43.5481217" lon="11.0559167"><ele>79.0</ele><time>2026-04-05T09:51:16.103Z</time></trkpt><trkpt lat="43.5481617" lon="11.056025"><ele>79.0</ele><time>2026-04-05T09:51:19.103Z</time></trkpt><trkpt lat="43.5482117" lon="11.0560783"><ele>79.0</ele><time>2026-04-05T09:51:22.103Z</time></trkpt><trkpt lat="43.5482417" lon="11.0559667"><ele>79.0</ele><time>2026-04-05T09:51:26.103Z</time></trkpt><trkpt lat="43.5481967" lon="11.055885"><ele>79.0</ele><time>2026-04-05T09:51:28.103Z</time></trkpt><trkpt lat="43.5481467" lon="11.0558"><ele>79.0</ele><time>2026-04-05T09:51:30.103Z</time></trkpt><trkpt lat="43.5480967" lon="11.05568"><ele>79.0</ele><time>2026-04-05T09:51:32.103Z</time></trkpt><trkpt lat="43.5480417" lon="11.055515"><ele>79.0</ele><time>2026-04-05T09:51:34.103Z</time></trkpt><trkpt lat="43.5480083" lon="11.0554217"><ele>79.0</ele><time>2026-04-05T09:51:35.103Z</time></trkpt><trkpt lat="43.5479783" lon="11.0553167"><ele>79.0</ele><time>2026-04-05T09:51:36.103Z</time></trkpt><trkpt lat="43.547945" lon="11.05521"><ele>79.0</ele><time>2026-04-05T09:51:37.103Z</time></trkpt><trkpt lat="43.5479017" lon="11.0551"><ele>79.0</ele><time>2026-04-05T09:51:38.103Z</time></trkpt><trkpt lat="43.5478483" lon="11.054995"><ele>79.0</ele><time>2026-04-05T09:51:39.103Z</time></trkpt><trkpt lat="43.547785" lon="11.0548933"><ele>79.0</ele><time>2026-04-05T09:51:40.103Z</time></trkpt><trkpt lat="43.5477167" lon="11.054795"><ele>79.0</ele><time>2026-04-05T09:51:41.103Z</time></trkpt><trkpt lat="43.5476367" lon="11.0547"><ele>79.0</ele><time>2026-04-05T09:51:42.103Z</time></trkpt><trkpt lat="43.547555" lon="11.0546117"><ele>79.0</ele><time>2026-04-05T09:51:43.103Z</time></trkpt><trkpt lat="43.5474683" lon="11.05453"><ele>79.0</ele><time>2026-04-05T09:51:44.103Z</time></trkpt><trkpt lat="43.5473783" lon="11.05446"><ele>79.0</ele><time>2026-04-05T09:51:45.103Z</time></trkpt><trkpt lat="43.5472833" lon="11.0543883"><ele>79.0</ele><time>2026-04-05T09:51:46.103Z</time></trkpt><trkpt lat="43.5471867" lon="11.0543117"><ele>79.0</ele><time>2026-04-05T09:51:47.103Z</time></trkpt><trkpt lat="43.5470883" lon="11.05423"><ele>79.0</ele><time>2026-04-05T09:51:48.103Z</time></trkpt><trkpt lat="43.5469883" lon="11.0541467"><ele>79.25</ele><time>2026-04-05T09:51:49.103Z</time></trkpt><trkpt lat="43.5468883" lon="11.0540533"><ele>79.5</ele><time>2026-04-05T09:51:50.103Z</time></trkpt><trkpt lat="43.546795" lon="11.0539467"><ele>79.75</ele><time>2026-04-05T09:51:51.103Z</time></trkpt><trkpt lat="43.5467067" lon="11.0538267"><ele>80.0</ele><time>2026-04-05T09:51:52.103Z</time></trkpt><trkpt lat="43.5466167" lon="11.053695"><ele>80.0</ele><time>2026-04-05T09:51:53.103Z</time></trkpt><trkpt lat="43.5465283" lon="11.0535567"><ele>80.0</ele><time>2026-04-05T09:51:54.103Z</time></trkpt><trkpt lat="43.54644" lon="11.0534167"><ele>80.0</ele><time>2026-04-05T09:51:55.103Z</time></trkpt><trkpt lat="43.5463517" lon="11.0532783"><ele>80.0</ele><time>2026-04-05T09:51:56.103Z</time></trkpt><trkpt lat="43.5462617" lon="11.0531417"><ele>79.75</ele><time>2026-04-05T09:51:57.103Z</time></trkpt><trkpt lat="43.5461733" lon="11.053005"><ele>79.5</ele><time>2026-04-05T09:51:58.102Z</time></trkpt><trkpt lat="43.5460867" lon="11.052875"><ele>79.25</ele><time>2026-04-05T09:51:59.103Z</time></trkpt><trkpt lat="43.5460017" lon="11.0527483"><ele>79.0</ele><time>2026-04-05T09:52:00.103Z</time></trkpt><trkpt lat="43.5459167" lon="11.0526217"><ele>79.0</ele><time>2026-04-05T09:52:01.103Z</time></trkpt><trkpt lat="43.5458317" lon="11.052495"><ele>79.0</ele><time>2026-04-05T09:52:02.102Z</time></trkpt><trkpt lat="43.5457483" lon="11.05237"><ele>79.0</ele><time>2026-04-05T09:52:03.103Z</time></trkpt><trkpt lat="43.545665" lon="11.0522433"><ele>79.0</ele><time>2026-04-05T09:52:04.103Z</time></trkpt><trkpt lat="43.5455817" lon="11.0521133"><ele>79.0</ele><time>2026-04-05T09:52:05.103Z</time></trkpt><trkpt lat="43.5455033" lon="11.0519767"><ele>79.0</ele><time>2026-04-05T09:52:06.103Z</time></trkpt><trkpt lat="43.5454283" lon="11.0518283"><ele>79.0</ele><time>2026-04-05T09:52:07.103Z</time></trkpt><trkpt lat="43.5453617" lon="11.05168"><ele>79.0</ele><time>2026-04-05T09:52:08.103Z</time></trkpt><trkpt lat="43.5453033" lon="11.0515283"><ele>79.0</ele><time>2026-04-05T09:52:09.103Z</time></trkpt><trkpt lat="43.5452483" lon="11.0513767"><ele>79.0</ele><time>2026-04-05T09:52:10.103Z</time></trkpt><trkpt lat="43.5451967" lon="11.0512233"><ele>79.0</ele><time>2026-04-05T09:52:11.102Z</time></trkpt><trkpt lat="43.545145" lon="11.05107"><ele>79.0</ele><time>2026-04-05T09:52:12.103Z</time></trkpt><trkpt lat="43.5450983" lon="11.0509133"><ele>78.25</ele><time>2026-04-05T09:52:13.103Z</time></trkpt><trkpt lat="43.545045" lon="11.05076"><ele>77.5</ele><time>2026-04-05T09:52:14.103Z</time></trkpt><trkpt lat="43.544995" lon="11.0506017"><ele>76.75</ele><time>2026-04-05T09:52:15.103Z</time></trkpt><trkpt lat="43.5449483" lon="11.050435"><ele>76.0</ele><time>2026-04-05T09:52:16.103Z</time></trkpt><trkpt lat="43.5449083" lon="11.0502767"><ele>76.0</ele><time>2026-04-05T09:52:17.103Z</time></trkpt><trkpt lat="43.54488" lon="11.05011"><ele>76.0</ele><time>2026-04-05T09:52:18.103Z</time></trkpt><trkpt lat="43.5448483" lon="11.0499433"><ele>76.0</ele><time>2026-04-05T09:52:19.102Z</time></trkpt><trkpt lat="43.5448183" lon="11.0497767"><ele>76.0</ele><time>2026-04-05T09:52:20.103Z</time></trkpt><trkpt lat="43.5447833" lon="11.0496167"><ele>75.75</ele><time>2026-04-05T09:52:21.103Z</time></trkpt><trkpt lat="43.544745" lon="11.04946"><ele>75.5</ele><time>2026-04-05T09:52:22.103Z</time></trkpt><trkpt lat="43.5447017" lon="11.049305"><ele>75.25</ele><time>2026-04-05T09:52:23.103Z</time></trkpt><trkpt lat="43.544655" lon="11.0491517"><ele>75.0</ele><time>2026-04-05T09:52:24.103Z</time></trkpt><trkpt lat="43.54461" lon="11.049"><ele>75.2</ele><time>2026-04-05T09:52:25.103Z</time></trkpt><trkpt lat="43.5445633" lon="11.0488517"><ele>75.4</ele><time>2026-04-05T09:52:26.103Z</time></trkpt><trkpt lat="43.54452" lon="11.0487067"><ele>75.6</ele><time>2026-04-05T09:52:27.103Z</time></trkpt><trkpt lat="43.5444767" lon="11.0485667"><ele>75.8</ele><time>2026-04-05T09:52:28.103Z</time></trkpt><trkpt lat="43.5444467" lon="11.0484367"><ele>76.0</ele><time>2026-04-05T09:52:29.102Z</time></trkpt><trkpt lat="43.5444367" lon="11.0483167"><ele>75.8</ele><time>2026-04-05T09:52:30.103Z</time></trkpt><trkpt lat="43.5444367" lon="11.0481933"><ele>75.6</ele><time>2026-04-05T09:52:31.102Z</time></trkpt><trkpt lat="43.54446" lon="11.0480717"><ele>75.4</ele><time>2026-04-05T09:52:32.103Z</time></trkpt><trkpt lat="43.5444983" lon="11.0479733"><ele>75.2</ele><time>2026-04-05T09:52:33.103Z</time></trkpt><trkpt lat="43.5445533" lon="11.047875"><ele>75.0</ele><time>2026-04-05T09:52:34.103Z</time></trkpt><trkpt lat="43.544625" lon="11.0477717"><ele>75.0</ele><time>2026-04-05T09:52:35.103Z</time></trkpt><trkpt lat="43.5447" lon="11.0476583"><ele>75.0</ele><time>2026-04-05T09:52:36.103Z</time></trkpt><trkpt lat="43.5447717" lon="11.0475317"><ele>75.0</ele><time>2026-04-05T09:52:37.103Z</time></trkpt><trkpt lat="43.54484" lon="11.047395"><ele>75.0</ele><time>2026-04-05T09:52:38.102Z</time></trkpt><trkpt lat="43.5449033" lon="11.047255"><ele>75.0</ele><time>2026-04-05T09:52:39.103Z</time></trkpt><trkpt lat="43.5449633" lon="11.04712"><ele>75.0</ele><time>2026-04-05T09:52:40.103Z</time></trkpt><trkpt lat="43.54502" lon="11.0469883"><ele>75.0</ele><time>2026-04-05T09:52:41.103Z</time></trkpt><trkpt lat="43.545075" lon="11.0468583"><ele>75.0</ele><time>2026-04-05T09:52:42.103Z</time></trkpt><trkpt lat="43.5451233" lon="11.04673"><ele>75.0</ele><time>2026-04-05T09:52:43.103Z</time></trkpt><trkpt lat="43.5451717" lon="11.0466017"><ele>75.0</ele><time>2026-04-05T09:52:44.103Z</time></trkpt><trkpt lat="43.54521" lon="11.04646"><ele>75.0</ele><time>2026-04-05T09:52:45.103Z</time></trkpt><trkpt lat="43.5452467" lon="11.0463217"><ele>75.0</ele><time>2026-04-05T09:52:46.103Z</time></trkpt><trkpt lat="43.5452833" lon="11.04618"><ele>75.0</ele><time>2026-04-05T09:52:47.103Z</time></trkpt><trkpt lat="43.5453183" lon="11.0460383"><ele>75.0</ele><time>2026-04-05T09:52:48.103Z</time></trkpt><trkpt lat="43.5453583" lon="11.0458967"><ele>74.2</ele><time>2026-04-05T09:52:49.103Z</time></trkpt><trkpt lat="43.5453933" lon="11.0457583"><ele>73.4</ele><time>2026-04-05T09:52:50.103Z</time></trkpt><trkpt lat="43.5454283" lon="11.0456233"><ele>72.6</ele><time>2026-04-05T09:52:51.103Z</time></trkpt><trkpt lat="43.5454617" lon="11.045495"><ele>71.8</ele><time>2026-04-05T09:52:52.103Z</time></trkpt><trkpt lat="43.54549" lon="11.04538"><ele>71.0</ele><time>2026-04-05T09:52:53.103Z</time></trkpt><trkpt lat="43.5455133" lon="11.0452833"><ele>71.0</ele><time>2026-04-05T09:52:54.103Z</time></trkpt><trkpt lat="43.5456083" lon="11.045135"><ele>71.0</ele><time>2026-04-05T09:52:57.103Z</time></trkpt><trkpt lat="43.5456967" lon="11.0450633"><ele>71.0</ele><time>2026-04-05T09:52:59.103Z</time></trkpt><trkpt lat="43.5458183" lon="11.0450417"><ele>71.0</ele><time>2026-04-05T09:53:01.103Z</time></trkpt><trkpt lat="43.54589" lon="11.04504"><ele>71.0</ele><time>2026-04-05T09:53:02.103Z</time></trkpt><trkpt lat="43.5459683" lon="11.0450233"><ele>71.0</ele><time>2026-04-05T09:53:03.103Z</time></trkpt><trkpt lat="43.54604" lon="11.0449833"><ele>71.0</ele><time>2026-04-05T09:53:04.103Z</time></trkpt><trkpt lat="43.5461067" lon="11.04491"><ele>71.0</ele><time>2026-04-05T09:53:05.103Z</time></trkpt><trkpt lat="43.5461617" lon="11.0448183"><ele>71.0</ele><time>2026-04-05T09:53:06.103Z</time></trkpt><trkpt lat="43.5462167" lon="11.04472"><ele>71.0</ele><time>2026-04-05T09:53:07.103Z</time></trkpt><trkpt lat="43.54627" lon="11.04462"><ele>71.0</ele><time>2026-04-05T09:53:08.103Z</time></trkpt><trkpt lat="43.5463233" lon="11.0445233"><ele>71.83333333333334</ele><time>2026-04-05T09:53:09.103Z</time></trkpt><trkpt lat="43.5463767" lon="11.04443"><ele>72.66666666666667</ele><time>2026-04-05T09:53:10.103Z</time></trkpt><trkpt lat="43.5464283" lon="11.0443367"><ele>73.5</ele><time>2026-04-05T09:53:11.103Z</time></trkpt><trkpt lat="43.5464817" lon="11.0442433"><ele>74.33333333333333</ele><time>2026-04-05T09:53:12.103Z</time></trkpt><trkpt lat="43.54653" lon="11.0441483"><ele>75.16666666666666</ele><time>2026-04-05T09:53:13.103Z</time></trkpt><trkpt lat="43.5465783" lon="11.0440467"><ele>76.0</ele><time>2026-04-05T09:53:14.103Z</time></trkpt><trkpt lat="43.5466317" lon="11.0439483"><ele>76.0</ele><time>2026-04-05T09:53:15.103Z</time></trkpt><trkpt lat="43.5466833" lon="11.04385"><ele>76.0</ele><time>2026-04-05T09:53:16.103Z</time></trkpt><trkpt lat="43.5467383" lon="11.043755"><ele>76.0</ele><time>2026-04-05T09:53:17.103Z</time></trkpt><trkpt lat="43.546785" lon="11.0436567"><ele>76.0</ele><time>2026-04-05T09:53:18.103Z</time></trkpt><trkpt lat="43.54683" lon="11.04355"><ele>76.0</ele><time>2026-04-05T09:53:19.103Z</time></trkpt><trkpt lat="43.5468667" lon="11.0434517"><ele>76.0</ele><time>2026-04-05T09:53:20.103Z</time></trkpt><trkpt lat="43.546895" lon="11.0433533"><ele>75.71428571428571</ele><time>2026-04-05T09:53:21.103Z</time></trkpt><trkpt lat="43.5469217" lon="11.0432617"><ele>75.42857142857143</ele><time>2026-04-05T09:53:22.103Z</time></trkpt><trkpt lat="43.546945" lon="11.04317"><ele>75.14285714285714</ele><time>2026-04-05T09:53:23.103Z</time></trkpt><trkpt lat="43.5469667" lon="11.0430817"><ele>74.85714285714286</ele><time>2026-04-05T09:53:24.103Z</time></trkpt><trkpt lat="43.5469833" lon="11.0429867"><ele>74.57142857142857</ele><time>2026-04-05T09:53:25.103Z</time></trkpt><trkpt lat="43.5469983" lon="11.0428883"><ele>74.28571428571429</ele><time>2026-04-05T09:53:26.103Z</time></trkpt><trkpt lat="43.547015" lon="11.042795"><ele>74.0</ele><time>2026-04-05T09:53:27.103Z</time></trkpt><trkpt lat="43.5470317" lon="11.0427"><ele>74.42857142857143</ele><time>2026-04-05T09:53:28.102Z</time></trkpt><trkpt lat="43.5470483" lon="11.0426067"><ele>74.85714285714286</ele><time>2026-04-05T09:53:29.103Z</time></trkpt><trkpt lat="43.5470733" lon="11.0425167"><ele>75.28571428571428</ele><time>2026-04-05T09:53:30.103Z</time></trkpt><trkpt lat="43.5471067" lon="11.0424267"><ele>75.71428571428572</ele><time>2026-04-05T09:53:31.103Z</time></trkpt><trkpt lat="43.547145" lon="11.04234"><ele>76.14285714285714</ele><time>2026-04-05T09:53:32.103Z</time></trkpt><trkpt lat="43.5471833" lon="11.042255"><ele>76.57142857142857</ele><time>2026-04-05T09:53:33.103Z</time></trkpt><trkpt lat="43.54723" lon="11.0421733"><ele>77.0</ele><time>2026-04-05T09:53:34.102Z</time></trkpt><trkpt lat="43.547275" lon="11.0420933"><ele>77.0</ele><time>2026-04-05T09:53:35.103Z</time></trkpt><trkpt lat="43.547325" lon="11.0420167"><ele>77.0</ele><time>2026-04-05T09:53:36.103Z</time></trkpt><trkpt lat="43.54742" lon="11.0418633"><ele>77.0</ele><time>2026-04-05T09:53:38.103Z</time></trkpt><trkpt lat="43.54747" lon="11.0417983"><ele>77.0</ele><time>2026-04-05T09:53:39.103Z</time></trkpt><trkpt lat="43.547515" lon="11.0417333"><ele>77.0</ele><time>2026-04-05T09:53:40.103Z</time></trkpt><trkpt lat="43.5475917" lon="11.0416367"><ele>76.42857142857143</ele><time>2026-04-05T09:53:42.103Z</time></trkpt><trkpt lat="43.5476033" lon="11.0415467"><ele>75.85714285714286</ele><time>2026-04-05T09:53:45.103Z</time></trkpt><trkpt lat="43.5475667" lon="11.0414617"><ele>75.28571428571428</ele><time>2026-04-05T09:53:48.103Z</time></trkpt><trkpt lat="43.54752" lon="11.0413733"><ele>74.71428571428572</ele><time>2026-04-05T09:53:51.103Z</time></trkpt><trkpt lat="43.5474783" lon="11.0412783"><ele>74.14285714285714</ele><time>2026-04-05T09:53:54.103Z</time></trkpt><trkpt lat="43.5474383" lon="11.04121"><ele>73.57142857142857</ele><time>2026-04-05T09:53:56.103Z</time></trkpt><trkpt lat="43.5473933" lon="11.041135"><ele>73.0</ele><time>2026-04-05T09:53:58.103Z</time></trkpt><trkpt lat="43.5473483" lon="11.0410567"><ele>73.0</ele><time>2026-04-05T09:54:00.103Z</time></trkpt><trkpt lat="43.5473017" lon="11.0409617"><ele>73.0</ele><time>2026-04-05T09:54:02.103Z</time></trkpt><trkpt lat="43.5472583" lon="11.0408417"><ele>73.0</ele><time>2026-04-05T09:54:04.103Z</time></trkpt><trkpt lat="43.5471917" lon="11.04072"><ele>73.0</ele><time>2026-04-05T09:54:06.103Z</time></trkpt><trkpt lat="43.5471283" lon="11.0405983"><ele>73.0</ele><time>2026-04-05T09:54:08.103Z</time></trkpt><trkpt lat="43.54707" lon="11.0404733"><ele>72.6</ele><time>2026-04-05T09:54:10.103Z</time></trkpt><trkpt lat="43.5470183" lon="11.0403617"><ele>72.19999999999999</ele><time>2026-04-05T09:54:12.103Z</time></trkpt><trkpt lat="43.5469767" lon="11.0402933"><ele>71.8</ele><time>2026-04-05T09:54:14.103Z</time></trkpt><trkpt lat="43.5468917" lon="11.0403"><ele>71.39999999999999</ele><time>2026-04-05T09:54:17.103Z</time></trkpt><trkpt lat="43.5468067" lon="11.0403633"><ele>71.0</ele><time>2026-04-05T09:54:19.103Z</time></trkpt><trkpt lat="43.546685" lon="11.0404383"><ele>71.0</ele><time>2026-04-05T09:54:21.103Z</time></trkpt><trkpt lat="43.5466183" lon="11.040485"><ele>71.0</ele><time>2026-04-05T09:54:22.103Z</time></trkpt><trkpt lat="43.54655" lon="11.0405317"><ele>71.0</ele><time>2026-04-05T09:54:23.103Z</time></trkpt><trkpt lat="43.546475" lon="11.04058"><ele>71.0</ele><time>2026-04-05T09:54:24.103Z</time></trkpt><trkpt lat="43.5463983" lon="11.0406283"><ele>71.0</ele><time>2026-04-05T09:54:25.103Z</time></trkpt><trkpt lat="43.5463217" lon="11.040675"><ele>71.0</ele><time>2026-04-05T09:54:26.103Z</time></trkpt><trkpt lat="43.54625" lon="11.040725"><ele>70.83333333333334</ele><time>2026-04-05T09:54:27.103Z</time></trkpt><trkpt lat="43.5461883" lon="11.04078"><ele>70.66666666666667</ele><time>2026-04-05T09:54:28.103Z</time></trkpt><trkpt lat="43.5460933" lon="11.0408483"><ele>70.5</ele><time>2026-04-05T09:54:30.103Z</time></trkpt><trkpt lat="43.546055" lon="11.0409233"><ele>70.33333333333333</ele><time>2026-04-05T09:54:33.103Z</time></trkpt><trkpt lat="43.5460817" lon="11.0410217"><ele>70.16666666666666</ele><time>2026-04-05T09:54:35.102Z</time></trkpt><trkpt lat="43.5461233" lon="11.0411017"><ele>70.0</ele><time>2026-04-05T09:54:36.103Z</time></trkpt><trkpt lat="43.5461533" lon="11.0411933"><ele>70.0</ele><time>2026-04-05T09:54:37.103Z</time></trkpt><trkpt lat="43.54619" lon="11.0412833"><ele>70.0</ele><time>2026-04-05T09:54:38.103Z</time></trkpt><trkpt lat="43.54623" lon="11.04137"><ele>70.0</ele><time>2026-04-05T09:54:39.103Z</time></trkpt><trkpt lat="43.5462667" lon="11.04146"><ele>70.0</ele><time>2026-04-05T09:54:40.103Z</time></trkpt><trkpt lat="43.5463" lon="11.041535"><ele>70.0</ele><time>2026-04-05T09:54:41.103Z</time></trkpt><trkpt lat="43.5463417" lon="11.04165"><ele>70.0</ele><time>2026-04-05T09:54:43.102Z</time></trkpt><trkpt lat="43.5463733" lon="11.0417283"><ele>70.0</ele><time>2026-04-05T09:54:45.103Z</time></trkpt><trkpt lat="43.5464267" lon="11.0418467"><ele>70.4</ele><time>2026-04-05T09:54:48.103Z</time></trkpt><trkpt lat="43.5464817" lon="11.0419683"><ele>70.8</ele><time>2026-04-05T09:54:50.103Z</time></trkpt><trkpt lat="43.5465283" lon="11.0421133"><ele>71.2</ele><time>2026-04-05T09:54:52.103Z</time></trkpt><trkpt lat="43.546575" lon="11.042265"><ele>71.6</ele><time>2026-04-05T09:54:54.103Z</time></trkpt><trkpt lat="43.5466133" lon="11.0423683"><ele>72.0</ele><time>2026-04-05T09:54:56.103Z</time></trkpt><trkpt lat="43.5466133" lon="11.0424633"><ele>72.5</ele><time>2026-04-05T09:54:59.103Z</time></trkpt><trkpt lat="43.54649" lon="11.042605"><ele>73.0</ele><time>2026-04-05T09:55:09.104Z</time></trkpt><trkpt lat="43.5463783" lon="11.0427133"><ele>73.5</ele><time>2026-04-05T09:55:10.104Z</time></trkpt><trkpt lat="43.5463117" lon="11.0427667"><ele>74.0</ele><time>2026-04-05T09:55:11.103Z</time></trkpt><trkpt lat="43.546235" lon="11.0428383"><ele>73.5</ele><time>2026-04-05T09:55:12.103Z</time></trkpt><trkpt lat="43.546165" lon="11.0429083"><ele>73.0</ele><time>2026-04-05T09:55:13.104Z</time></trkpt><trkpt lat="43.54609" lon="11.0429583"><ele>72.5</ele><time>2026-04-05T09:55:15.104Z</time></trkpt><trkpt lat="43.5460217" lon="11.0430133"><ele>72.0</ele><time>2026-04-05T09:55:17.104Z</time></trkpt><trkpt lat="43.545925" lon="11.0430733"><ele>71.5</ele><time>2026-04-05T09:55:19.104Z</time></trkpt><trkpt lat="43.5458667" lon="11.0431067"><ele>71.0</ele><time>2026-04-05T09:55:20.104Z</time></trkpt><trkpt lat="43.5458033" lon="11.0431433"><ele>71.0</ele><time>2026-04-05T09:55:21.104Z</time></trkpt><trkpt lat="43.545745" lon="11.04318"><ele>71.0</ele><time>2026-04-05T09:55:22.104Z</time></trkpt><trkpt lat="43.5456567" lon="11.04326"><ele>71.0</ele><time>2026-04-05T09:55:24.104Z</time></trkpt><trkpt lat="43.54564" lon="11.0433883"><ele>71.0</ele><time>2026-04-05T09:55:26.104Z</time></trkpt><trkpt lat="43.545685" lon="11.04356"><ele>71.0</ele><time>2026-04-05T09:55:28.104Z</time></trkpt><trkpt lat="43.5457383" lon="11.0436633"><ele>71.5</ele><time>2026-04-05T09:55:29.104Z</time></trkpt><trkpt lat="43.5457833" lon="11.0437567"><ele>72.0</ele><time>2026-04-05T09:55:30.103Z</time></trkpt><trkpt lat="43.5458317" lon="11.0438433"><ele>72.5</ele><time>2026-04-05T09:55:31.104Z</time></trkpt><trkpt lat="43.5458883" lon="11.0439183"><ele>73.0</ele><time>2026-04-05T09:55:32.104Z</time></trkpt><trkpt lat="43.5459533" lon="11.0439883"><ele>73.5</ele><time>2026-04-05T09:55:33.104Z</time></trkpt><trkpt lat="43.5460433" lon="11.04404"><ele>74.0</ele><time>2026-04-05T09:55:35.104Z</time></trkpt><trkpt lat="43.5461283" lon="11.0439733"><ele>74.0</ele><time>2026-04-05T09:55:37.104Z</time></trkpt><trkpt lat="43.5461767" lon="11.043905"><ele>74.0</ele><time>2026-04-05T09:55:38.103Z</time></trkpt><trkpt lat="43.54621" lon="11.0438133"><ele>74.0</ele><time>2026-04-05T09:55:39.104Z</time></trkpt><trkpt lat="43.5462383" lon="11.0437217"><ele>74.0</ele><time>2026-04-05T09:55:40.104Z</time></trkpt><trkpt lat="43.5462733" lon="11.04364"><ele>74.0</ele><time>2026-04-05T09:55:41.104Z</time></trkpt><trkpt lat="43.5463267" lon="11.0435333"><ele>74.0</ele><time>2026-04-05T09:55:43.104Z</time></trkpt><trkpt lat="43.5463333" lon="11.04344"><ele>74.0</ele><time>2026-04-05T09:55:46.104Z</time></trkpt><trkpt lat="43.54628" lon="11.0433683"><ele>76.0</ele><time>2026-04-05T09:55:49.104Z</time></trkpt><trkpt lat="43.5462" lon="11.043235"><ele>71.0</ele><time>2026-04-05T09:56:17.104Z</time></trkpt></trkseg><trkseg><trkpt lat="43.5462317" lon="11.0432733"><ele>74.0</ele><time>2026-04-05T11:56:55.104Z</time></trkpt><trkpt lat="43.5461783" lon="11.0431717"><ele>74.0</ele><time>2026-04-05T11:56:57.104Z</time></trkpt><trkpt lat="43.546145" lon="11.0430817"><ele>74.0</ele><time>2026-04-05T11:56:59.104Z</time></trkpt><trkpt lat="43.546105" lon="11.0429983"><ele>74.0</ele><time>2026-04-05T11:57:02.104Z</time></trkpt><trkpt lat="43.5461417" lon="11.04288"><ele>74.0</ele><time>2026-04-05T11:57:05.104Z</time></trkpt><trkpt lat="43.54623" lon="11.0427883"><ele>74.0</ele><time>2026-04-05T11:57:07.104Z</time></trkpt><trkpt lat="43.5462833" lon="11.042735"><ele>74.0</ele><time>2026-04-05T11:57:08.103Z</time></trkpt><trkpt lat="43.5464183" lon="11.0426433"><ele>74.0</ele><time>2026-04-05T11:57:10.104Z</time></trkpt><trkpt lat="43.5464883" lon="11.0425917"><ele>74.0</ele><time>2026-04-05T11:57:11.103Z</time></trkpt><trkpt lat="43.5465433" lon="11.0425383"><ele>74.0</ele><time>2026-04-05T11:57:12.104Z</time></trkpt><trkpt lat="43.5465883" lon="11.042475"><ele>74.0</ele><time>2026-04-05T11:57:13.104Z</time></trkpt><trkpt lat="43.5466533" lon="11.04237"><ele>73.60000000000001</ele><time>2026-04-05T11:57:15.104Z</time></trkpt><trkpt lat="43.5466083" lon="11.0421983"><ele>73.2</ele><time>2026-04-05T11:57:17.104Z</time></trkpt><trkpt lat="43.5465583" lon="11.04211"><ele>72.80000000000001</ele><time>2026-04-05T11:57:18.104Z</time></trkpt><trkpt lat="43.54652" lon="11.0420233"><ele>72.4</ele><time>2026-04-05T11:57:19.104Z</time></trkpt><trkpt lat="43.5464617" lon="11.04188"><ele>72.0</ele><time>2026-04-05T11:57:21.104Z</time></trkpt><trkpt lat="43.5464067" lon="11.0417683"><ele>72.0</ele><time>2026-04-05T11:57:23.104Z</time></trkpt><trkpt lat="43.54634" lon="11.04164"><ele>72.0</ele><time>2026-04-05T11:57:25.104Z</time></trkpt><trkpt lat="43.54631" lon="11.041555"><ele>72.0</ele><time>2026-04-05T11:57:26.104Z</time></trkpt><trkpt lat="43.54628" lon="11.0414667"><ele>72.0</ele><time>2026-04-05T11:57:27.104Z</time></trkpt><trkpt lat="43.5462533" lon="11.04137"><ele>72.0</ele><time>2026-04-05T11:57:28.104Z</time></trkpt><trkpt lat="43.5462283" lon="11.0412733"><ele>72.0</ele><time>2026-04-05T11:57:29.103Z</time></trkpt><trkpt lat="43.5462" lon="11.0411833"><ele>71.6</ele><time>2026-04-05T11:57:30.104Z</time></trkpt><trkpt lat="43.5461717" lon="11.0411"><ele>71.2</ele><time>2026-04-05T11:57:31.104Z</time></trkpt><trkpt lat="43.5461233" lon="11.0409617"><ele>70.8</ele><time>2026-04-05T11:57:33.104Z</time></trkpt><trkpt lat="43.5460733" lon="11.0408233"><ele>70.4</ele><time>2026-04-05T11:57:35.104Z</time></trkpt><trkpt lat="43.546015" lon="11.0406617"><ele>70.0</ele><time>2026-04-05T11:57:37.104Z</time></trkpt><trkpt lat="43.5459783" lon="11.0405733"><ele>69.83333333333333</ele><time>2026-04-05T11:57:38.104Z</time></trkpt><trkpt lat="43.545945" lon="11.0404817"><ele>69.66666666666666</ele><time>2026-04-05T11:57:39.104Z</time></trkpt><trkpt lat="43.5459217" lon="11.04039"><ele>69.5</ele><time>2026-04-05T11:57:40.104Z</time></trkpt><trkpt lat="43.54588" lon="11.0402517"><ele>69.33333333333333</ele><time>2026-04-05T11:57:42.104Z</time></trkpt><trkpt lat="43.5458533" lon="11.0401567"><ele>69.16666666666667</ele><time>2026-04-05T11:57:44.104Z</time></trkpt><trkpt lat="43.5458017" lon="11.040035"><ele>69.0</ele><time>2026-04-05T11:57:47.104Z</time></trkpt><trkpt lat="43.5457533" lon="11.0399167"><ele>69.0</ele><time>2026-04-05T11:57:49.104Z</time></trkpt><trkpt lat="43.5457033" lon="11.0397783"><ele>69.0</ele><time>2026-04-05T11:57:51.104Z</time></trkpt><trkpt lat="43.5456617" lon="11.039675"><ele>69.0</ele><time>2026-04-05T11:57:53.104Z</time></trkpt><trkpt lat="43.5455717" lon="11.03966"><ele>69.0</ele><time>2026-04-05T11:57:56.104Z</time></trkpt><trkpt lat="43.5454533" lon="11.0397083"><ele>69.0</ele><time>2026-04-05T11:57:58.104Z</time></trkpt><trkpt lat="43.545385" lon="11.039735"><ele>68.83333333333333</ele><time>2026-04-05T11:57:59.104Z</time></trkpt><trkpt lat="43.5453117" lon="11.0397717"><ele>68.66666666666667</ele><time>2026-04-05T11:58:00.104Z</time></trkpt><trkpt lat="43.5452367" lon="11.0398117"><ele>68.5</ele><time>2026-04-05T11:58:01.104Z</time></trkpt><trkpt lat="43.5451617" lon="11.0398583"><ele>68.33333333333334</ele><time>2026-04-05T11:58:02.104Z</time></trkpt><trkpt lat="43.545085" lon="11.0399067"><ele>68.16666666666667</ele><time>2026-04-05T11:58:03.104Z</time></trkpt><trkpt lat="43.545005" lon="11.039955"><ele>68.0</ele><time>2026-04-05T11:58:04.104Z</time></trkpt><trkpt lat="43.5449317" lon="11.0400117"><ele>68.0</ele><time>2026-04-05T11:58:05.104Z</time></trkpt><trkpt lat="43.5448583" lon="11.0400633"><ele>68.0</ele><time>2026-04-05T11:58:06.104Z</time></trkpt><trkpt lat="43.5447833" lon="11.0401167"><ele>68.0</ele><time>2026-04-05T11:58:07.104Z</time></trkpt><trkpt lat="43.544705" lon="11.0401683"><ele>68.0</ele><time>2026-04-05T11:58:08.104Z</time></trkpt><trkpt lat="43.5446217" lon="11.0402267"><ele>68.0</ele><time>2026-04-05T11:58:09.103Z</time></trkpt><trkpt lat="43.5445333" lon="11.040285"><ele>68.0</ele><time>2026-04-05T11:58:10.104Z</time></trkpt><trkpt lat="43.5444367" lon="11.0403483"><ele>68.0</ele><time>2026-04-05T11:58:11.104Z</time></trkpt><trkpt lat="43.5443417" lon="11.040415"><ele>68.0</ele><time>2026-04-05T11:58:12.104Z</time></trkpt><trkpt lat="43.544245" lon="11.0404783"><ele>68.0</ele><time>2026-04-05T11:58:13.104Z</time></trkpt><trkpt lat="43.54415" lon="11.0405367"><ele>68.0</ele><time>2026-04-05T11:58:14.103Z</time></trkpt><trkpt lat="43.5440567" lon="11.0405983"><ele>68.0</ele><time>2026-04-05T11:58:15.104Z</time></trkpt><trkpt lat="43.54396" lon="11.040655"><ele>68.0</ele><time>2026-04-05T11:58:16.104Z</time></trkpt><trkpt lat="43.543865" lon="11.0407117"><ele>68.0</ele><time>2026-04-05T11:58:17.104Z</time></trkpt><trkpt lat="43.5437667" lon="11.04077"><ele>68.0</ele><time>2026-04-05T11:58:18.104Z</time></trkpt><trkpt lat="43.5436667" lon="11.0408233"><ele>68.0</ele><time>2026-04-05T11:58:19.104Z</time></trkpt><trkpt lat="43.543565" lon="11.040875"><ele>68.0</ele><time>2026-04-05T11:58:20.104Z</time></trkpt><trkpt lat="43.5434633" lon="11.0409283"><ele>68.2</ele><time>2026-04-05T11:58:21.103Z</time></trkpt><trkpt lat="43.5433617" lon="11.0409817"><ele>68.4</ele><time>2026-04-05T11:58:22.103Z</time></trkpt><trkpt lat="43.5432617" lon="11.0410383"><ele>68.60000000000001</ele><time>2026-04-05T11:58:23.103Z</time></trkpt><trkpt lat="43.5431583" lon="11.0410967"><ele>68.8</ele><time>2026-04-05T11:58:24.102Z</time></trkpt><trkpt lat="43.5430567" lon="11.041155"><ele>69.0</ele><time>2026-04-05T11:58:25.103Z</time></trkpt><trkpt lat="43.5429517" lon="11.041215"><ele>69.0</ele><time>2026-04-05T11:58:26.103Z</time></trkpt><trkpt lat="43.542845" lon="11.041275"><ele>69.0</ele><time>2026-04-05T11:58:27.103Z</time></trkpt><trkpt lat="43.5427367" lon="11.0413367"><ele>69.0</ele><time>2026-04-05T11:58:28.103Z</time></trkpt><trkpt lat="43.54263" lon="11.0413867"><ele>69.0</ele><time>2026-04-05T11:58:29.103Z</time></trkpt><trkpt lat="43.542525" lon="11.04142"><ele>69.0</ele><time>2026-04-05T11:58:30.103Z</time></trkpt><trkpt lat="43.5424283" lon="11.041435"><ele>69.0</ele><time>2026-04-05T11:58:31.102Z</time></trkpt><trkpt lat="43.5423367" lon="11.0414317"><ele>69.0</ele><time>2026-04-05T11:58:32.102Z</time></trkpt><trkpt lat="43.5422517" lon="11.0414067"><ele>69.0</ele><time>2026-04-05T11:58:33.103Z</time></trkpt><trkpt lat="43.542175" lon="11.0413617"><ele>69.0</ele><time>2026-04-05T11:58:34.103Z</time></trkpt><trkpt lat="43.5421017" lon="11.04132"><ele>69.0</ele><time>2026-04-05T11:58:35.103Z</time></trkpt><trkpt lat="43.5420333" lon="11.0412967"><ele>68.66666666666667</ele><time>2026-04-05T11:58:36.103Z</time></trkpt><trkpt lat="43.5419633" lon="11.0413067"><ele>68.33333333333333</ele><time>2026-04-05T11:58:37.103Z</time></trkpt><trkpt lat="43.5418967" lon="11.0413367"><ele>68.0</ele><time>2026-04-05T11:58:38.103Z</time></trkpt><trkpt lat="43.5418483" lon="11.0415067"><ele>67.66666666666666</ele><time>2026-04-05T11:58:40.103Z</time></trkpt><trkpt lat="43.54184" lon="11.041615"><ele>67.33333333333333</ele><time>2026-04-05T11:58:41.103Z</time></trkpt><trkpt lat="43.541815" lon="11.0417017"><ele>67.0</ele><time>2026-04-05T11:58:42.103Z</time></trkpt><trkpt lat="43.541775" lon="11.041775"><ele>67.0</ele><time>2026-04-05T11:58:43.103Z</time></trkpt><trkpt lat="43.541655" lon="11.0418583"><ele>67.0</ele><time>2026-04-05T11:58:45.103Z</time></trkpt><trkpt lat="43.5415733" lon="11.04189"><ele>67.0</ele><time>2026-04-05T11:58:46.103Z</time></trkpt><trkpt lat="43.5414933" lon="11.0419217"><ele>67.0</ele><time>2026-04-05T11:58:47.103Z</time></trkpt><trkpt lat="43.541415" lon="11.0419617"><ele>67.0</ele><time>2026-04-05T11:58:48.103Z</time></trkpt><trkpt lat="43.5413317" lon="11.0420017"><ele>67.0</ele><time>2026-04-05T11:58:49.103Z</time></trkpt><trkpt lat="43.5412483" lon="11.042045"><ele>67.0</ele><time>2026-04-05T11:58:50.103Z</time></trkpt><trkpt lat="43.541165" lon="11.0420867"><ele>67.0</ele><time>2026-04-05T11:58:51.103Z</time></trkpt><trkpt lat="43.54108" lon="11.0421267"><ele>67.0</ele><time>2026-04-05T11:58:52.103Z</time></trkpt><trkpt lat="43.540995" lon="11.04217"><ele>67.0</ele><time>2026-04-05T11:58:53.103Z</time></trkpt><trkpt lat="43.5409083" lon="11.0422133"><ele>67.0</ele><time>2026-04-05T11:58:54.103Z</time></trkpt><trkpt lat="43.54082" lon="11.04226"><ele>67.0</ele><time>2026-04-05T11:58:55.103Z</time></trkpt><trkpt lat="43.5407267" lon="11.042305"><ele>67.0</ele><time>2026-04-05T11:58:56.103Z</time></trkpt><trkpt lat="43.54063" lon="11.0423533"><ele>67.0</ele><time>2026-04-05T11:58:57.103Z</time></trkpt><trkpt lat="43.5405267" lon="11.0423983"><ele>67.0</ele><time>2026-04-05T11:58:58.103Z</time></trkpt><trkpt lat="43.540425" lon="11.0424417"><ele>67.5</ele><time>2026-04-05T11:58:59.103Z</time></trkpt><trkpt lat="43.540315" lon="11.0424883"><ele>68.0</ele><time>2026-04-05T11:59:00.103Z</time></trkpt><trkpt lat="43.5402017" lon="11.04254"><ele>68.5</ele><time>2026-04-05T11:59:01.103Z</time></trkpt><trkpt lat="43.5400817" lon="11.042595"><ele>69.0</ele><time>2026-04-05T11:59:02.103Z</time></trkpt><trkpt lat="43.5399617" lon="11.0426483"><ele>69.0</ele><time>2026-04-05T11:59:03.103Z</time></trkpt><trkpt lat="43.5398433" lon="11.0427033"><ele>69.0</ele><time>2026-04-05T11:59:04.103Z</time></trkpt><trkpt lat="43.5397283" lon="11.0427567"><ele>69.0</ele><time>2026-04-05T11:59:05.103Z</time></trkpt><trkpt lat="43.5396133" lon="11.04281"><ele>69.0</ele><time>2026-04-05T11:59:06.103Z</time></trkpt><trkpt lat="43.5394967" lon="11.0428683"><ele>68.75</ele><time>2026-04-05T11:59:07.103Z</time></trkpt><trkpt lat="43.5393833" lon="11.0429383"><ele>68.5</ele><time>2026-04-05T11:59:08.103Z</time></trkpt><trkpt lat="43.5392733" lon="11.0430217"><ele>68.25</ele><time>2026-04-05T11:59:09.103Z</time></trkpt><trkpt lat="43.539165" lon="11.043115"><ele>68.0</ele><time>2026-04-05T11:59:10.103Z</time></trkpt><trkpt lat="43.5390583" lon="11.0432133"><ele>68.25</ele><time>2026-04-05T11:59:11.103Z</time></trkpt><trkpt lat="43.5389567" lon="11.0433217"><ele>68.5</ele><time>2026-04-05T11:59:12.102Z</time></trkpt><trkpt lat="43.5388567" lon="11.043435"><ele>68.75</ele><time>2026-04-05T11:59:13.103Z</time></trkpt><trkpt lat="43.53876" lon="11.0435517"><ele>69.0</ele><time>2026-04-05T11:59:14.103Z</time></trkpt><trkpt lat="43.5386683" lon="11.0436733"><ele>69.0</ele><time>2026-04-05T11:59:15.103Z</time></trkpt><trkpt lat="43.5385783" lon="11.043805"><ele>69.0</ele><time>2026-04-05T11:59:16.103Z</time></trkpt><trkpt lat="43.538495" lon="11.0439433"><ele>69.0</ele><time>2026-04-05T11:59:17.103Z</time></trkpt><trkpt lat="43.53842" lon="11.044085"><ele>69.0</ele><time>2026-04-05T11:59:18.103Z</time></trkpt><trkpt lat="43.538345" lon="11.0442317"><ele>69.5</ele><time>2026-04-05T11:59:19.103Z</time></trkpt><trkpt lat="43.53828" lon="11.0443867"><ele>70.0</ele><time>2026-04-05T11:59:20.103Z</time></trkpt><trkpt lat="43.538225" lon="11.044545"><ele>70.5</ele><time>2026-04-05T11:59:21.103Z</time></trkpt><trkpt lat="43.5381767" lon="11.0447067"><ele>71.0</ele><time>2026-04-05T11:59:22.103Z</time></trkpt><trkpt lat="43.53813" lon="11.0448717"><ele>71.0</ele><time>2026-04-05T11:59:23.103Z</time></trkpt><trkpt lat="43.5380867" lon="11.0450367"><ele>71.0</ele><time>2026-04-05T11:59:24.103Z</time></trkpt><trkpt lat="43.5380417" lon="11.0452"><ele>71.0</ele><time>2026-04-05T11:59:25.103Z</time></trkpt><trkpt lat="43.537995" lon="11.0453633"><ele>71.0</ele><time>2026-04-05T11:59:26.102Z</time></trkpt><trkpt lat="43.5379517" lon="11.0455283"><ele>71.0</ele><time>2026-04-05T11:59:27.103Z</time></trkpt><trkpt lat="43.53791" lon="11.045695"><ele>71.0</ele><time>2026-04-05T11:59:28.103Z</time></trkpt><trkpt lat="43.5378683" lon="11.0458633"><ele>71.0</ele><time>2026-04-05T11:59:29.103Z</time></trkpt><trkpt lat="43.537825" lon="11.0460317"><ele>71.0</ele><time>2026-04-05T11:59:30.103Z</time></trkpt><trkpt lat="43.5377767" lon="11.0461983"><ele>70.25</ele><time>2026-04-05T11:59:31.103Z</time></trkpt><trkpt lat="43.53773" lon="11.0463633"><ele>69.5</ele><time>2026-04-05T11:59:32.103Z</time></trkpt><trkpt lat="43.5376833" lon="11.04653"><ele>68.75</ele><time>2026-04-05T11:59:33.103Z</time></trkpt><trkpt lat="43.5376383" lon="11.0466983"><ele>68.0</ele><time>2026-04-05T11:59:34.103Z</time></trkpt><trkpt lat="43.5376033" lon="11.046865"><ele>68.0</ele><time>2026-04-05T11:59:35.103Z</time></trkpt><trkpt lat="43.5375867" lon="11.0470283"><ele>68.0</ele><time>2026-04-05T11:59:36.103Z</time></trkpt><trkpt lat="43.5375833" lon="11.0471883"><ele>68.0</ele><time>2026-04-05T11:59:37.103Z</time></trkpt><trkpt lat="43.53758" lon="11.0473367"><ele>68.0</ele><time>2026-04-05T11:59:38.103Z</time></trkpt><trkpt lat="43.5375717" lon="11.0474733"><ele>68.0</ele><time>2026-04-05T11:59:39.103Z</time></trkpt><trkpt lat="43.5375617" lon="11.0475867"><ele>68.2</ele><time>2026-04-05T11:59:40.102Z</time></trkpt><trkpt lat="43.5375233" lon="11.0477217"><ele>68.4</ele><time>2026-04-05T11:59:42.103Z</time></trkpt><trkpt lat="43.5374417" lon="11.0478367"><ele>68.60000000000001</ele><time>2026-04-05T11:59:44.103Z</time></trkpt><trkpt lat="43.5373883" lon="11.0479"><ele>68.8</ele><time>2026-04-05T11:59:45.103Z</time></trkpt><trkpt lat="43.5373317" lon="11.0479833"><ele>69.0</ele><time>2026-04-05T11:59:46.103Z</time></trkpt><trkpt lat="43.5372733" lon="11.0480833"><ele>69.0</ele><time>2026-04-05T11:59:47.103Z</time></trkpt><trkpt lat="43.5372217" lon="11.0482217"><ele>69.0</ele><time>2026-04-05T11:59:48.103Z</time></trkpt><trkpt lat="43.537175" lon="11.0483633"><ele>69.0</ele><time>2026-04-05T11:59:49.103Z</time></trkpt><trkpt lat="43.5371417" lon="11.0485133"><ele>69.0</ele><time>2026-04-05T11:59:50.103Z</time></trkpt><trkpt lat="43.5371033" lon="11.04867"><ele>69.0</ele><time>2026-04-05T11:59:51.103Z</time></trkpt><trkpt lat="43.5370617" lon="11.0488333"><ele>69.0</ele><time>2026-04-05T11:59:52.103Z</time></trkpt><trkpt lat="43.5370167" lon="11.049"><ele>69.0</ele><time>2026-04-05T11:59:53.103Z</time></trkpt><trkpt lat="43.5369667" lon="11.0491733"><ele>69.0</ele><time>2026-04-05T11:59:54.103Z</time></trkpt><trkpt lat="43.536915" lon="11.04935"><ele>69.25</ele><time>2026-04-05T11:59:55.103Z</time></trkpt><trkpt lat="43.5368617" lon="11.0495233"><ele>69.5</ele><time>2026-04-05T11:59:56.103Z</time></trkpt><trkpt lat="43.53681" lon="11.0496983"><ele>69.75</ele><time>2026-04-05T11:59:57.103Z</time></trkpt><trkpt lat="43.536755" lon="11.0498733"><ele>70.0</ele><time>2026-04-05T11:59:58.103Z</time></trkpt><trkpt lat="43.5367033" lon="11.0500517"><ele>70.0</ele><time>2026-04-05T11:59:59.103Z</time></trkpt><trkpt lat="43.5366533" lon="11.0502317"><ele>70.0</ele><time>2026-04-05T12:00:00.103Z</time></trkpt><trkpt lat="43.53661" lon="11.0504083"><ele>70.0</ele><time>2026-04-05T12:00:01.103Z</time></trkpt><trkpt lat="43.5365633" lon="11.0505917"><ele>70.0</ele><time>2026-04-05T12:00:02.103Z</time></trkpt><trkpt lat="43.5365183" lon="11.0507733"><ele>71.5</ele><time>2026-04-05T12:00:03.102Z</time></trkpt><trkpt lat="43.5364767" lon="11.0509567"><ele>73.0</ele><time>2026-04-05T12:00:04.103Z</time></trkpt><trkpt lat="43.536435" lon="11.0511367"><ele>74.5</ele><time>2026-04-05T12:00:05.102Z</time></trkpt><trkpt lat="43.5363967" lon="11.051315"><ele>76.0</ele><time>2026-04-05T12:00:06.103Z</time></trkpt><trkpt lat="43.53636" lon="11.0515"><ele>77.5</ele><time>2026-04-05T12:00:07.103Z</time></trkpt><trkpt lat="43.5363367" lon="11.0516883"><ele>79.0</ele><time>2026-04-05T12:00:08.103Z</time></trkpt><trkpt lat="43.5363233" lon="11.051885"><ele>80.5</ele><time>2026-04-05T12:00:09.103Z</time></trkpt><trkpt lat="43.5363083" lon="11.05208"><ele>82.0</ele><time>2026-04-05T12:00:10.103Z</time></trkpt><trkpt lat="43.5362983" lon="11.0522767"><ele>81.75</ele><time>2026-04-05T12:00:11.103Z</time></trkpt><trkpt lat="43.5362967" lon="11.0524767"><ele>81.5</ele><time>2026-04-05T12:00:12.103Z</time></trkpt><trkpt lat="43.5362967" lon="11.0526733"><ele>81.25</ele><time>2026-04-05T12:00:13.103Z</time></trkpt><trkpt lat="43.5362867" lon="11.0528733"><ele>81.0</ele><time>2026-04-05T12:00:14.103Z</time></trkpt><trkpt lat="43.5362733" lon="11.053075"><ele>81.0</ele><time>2026-04-05T12:00:15.103Z</time></trkpt><trkpt lat="43.5362617" lon="11.0532717"><ele>81.0</ele><time>2026-04-05T12:00:16.103Z</time></trkpt><trkpt lat="43.536255" lon="11.0534683"><ele>81.0</ele><time>2026-04-05T12:00:17.103Z</time></trkpt><trkpt lat="43.536245" lon="11.0536617"><ele>81.0</ele><time>2026-04-05T12:00:18.103Z</time></trkpt><trkpt lat="43.5362233" lon="11.0538567"><ele>77.75</ele><time>2026-04-05T12:00:19.103Z</time></trkpt><trkpt lat="43.5361917" lon="11.0540417"><ele>74.5</ele><time>2026-04-05T12:00:20.103Z</time></trkpt><trkpt lat="43.536145" lon="11.0542233"><ele>71.25</ele><time>2026-04-05T12:00:21.103Z</time></trkpt><trkpt lat="43.536085" lon="11.054395"><ele>68.0</ele><time>2026-04-05T12:00:22.103Z</time></trkpt><trkpt lat="43.5360117" lon="11.0545617"><ele>68.0</ele><time>2026-04-05T12:00:23.103Z</time></trkpt><trkpt lat="43.535935" lon="11.054725"><ele>68.0</ele><time>2026-04-05T12:00:24.103Z</time></trkpt><trkpt lat="43.5358567" lon="11.0548867"><ele>68.0</ele><time>2026-04-05T12:00:25.103Z</time></trkpt><trkpt lat="43.53577" lon="11.0550433"><ele>68.0</ele><time>2026-04-05T12:00:26.103Z</time></trkpt><trkpt lat="43.5356717" lon="11.0551867"><ele>68.0</ele><time>2026-04-05T12:00:27.102Z</time></trkpt><trkpt lat="43.5355633" lon="11.055315"><ele>68.0</ele><time>2026-04-05T12:00:28.103Z</time></trkpt><trkpt lat="43.5354517" lon="11.05543"><ele>68.0</ele><time>2026-04-05T12:00:29.102Z</time></trkpt><trkpt lat="43.5353383" lon="11.0555483"><ele>68.0</ele><time>2026-04-05T12:00:30.102Z</time></trkpt><trkpt lat="43.5352217" lon="11.0556633"><ele>68.0</ele><time>2026-04-05T12:00:31.103Z</time></trkpt><trkpt lat="43.5351033" lon="11.0557733"><ele>68.0</ele><time>2026-04-05T12:00:32.103Z</time></trkpt><trkpt lat="43.5349883" lon="11.0558867"><ele>68.0</ele><time>2026-04-05T12:00:33.103Z</time></trkpt><trkpt lat="43.5348783" lon="11.056005"><ele>68.0</ele><time>2026-04-05T12:00:34.103Z</time></trkpt><trkpt lat="43.534775" lon="11.0561283"><ele>68.0</ele><time>2026-04-05T12:00:35.103Z</time></trkpt><trkpt lat="43.5346717" lon="11.0562583"><ele>68.0</ele><time>2026-04-05T12:00:36.103Z</time></trkpt><trkpt lat="43.5345683" lon="11.056385"><ele>68.0</ele><time>2026-04-05T12:00:37.103Z</time></trkpt><trkpt lat="43.5344667" lon="11.0565117"><ele>68.0</ele><time>2026-04-05T12:00:38.103Z</time></trkpt><trkpt lat="43.534365" lon="11.0566417"><ele>68.25</ele><time>2026-04-05T12:00:39.103Z</time></trkpt><trkpt lat="43.5342683" lon="11.056775"><ele>68.5</ele><time>2026-04-05T12:00:40.103Z</time></trkpt><trkpt lat="43.534185" lon="11.0569167"><ele>68.75</ele><time>2026-04-05T12:00:41.103Z</time></trkpt><trkpt lat="43.5341083" lon="11.057075"><ele>69.0</ele><time>2026-04-05T12:00:42.102Z</time></trkpt><trkpt lat="43.534045" lon="11.0572383"><ele>69.0</ele><time>2026-04-05T12:00:43.103Z</time></trkpt><trkpt lat="43.5339817" lon="11.0574117"><ele>69.0</ele><time>2026-04-05T12:00:44.103Z</time></trkpt><trkpt lat="43.5339167" lon="11.057585"><ele>69.0</ele><time>2026-04-05T12:00:45.103Z</time></trkpt><trkpt lat="43.5338467" lon="11.0577533"><ele>69.0</ele><time>2026-04-05T12:00:46.103Z</time></trkpt><trkpt lat="43.5337683" lon="11.0579167"><ele>69.0</ele><time>2026-04-05T12:00:47.103Z</time></trkpt><trkpt lat="43.5336783" lon="11.0580717"><ele>69.0</ele><time>2026-04-05T12:00:48.103Z</time></trkpt><trkpt lat="43.5335783" lon="11.0582183"><ele>69.0</ele><time>2026-04-05T12:00:49.103Z</time></trkpt><trkpt lat="43.5334767" lon="11.05836"><ele>69.0</ele><time>2026-04-05T12:00:50.103Z</time></trkpt><trkpt lat="43.53337" lon="11.0584983"><ele>69.25</ele><time>2026-04-05T12:00:51.103Z</time></trkpt><trkpt lat="43.5332617" lon="11.0586333"><ele>69.5</ele><time>2026-04-05T12:00:52.103Z</time></trkpt><trkpt lat="43.5331533" lon="11.0587633"><ele>69.75</ele><time>2026-04-05T12:00:53.103Z</time></trkpt><trkpt lat="43.5330483" lon="11.058895"><ele>70.0</ele><time>2026-04-05T12:00:54.103Z</time></trkpt><trkpt lat="43.5329467" lon="11.0590333"><ele>70.25</ele><time>2026-04-05T12:00:55.103Z</time></trkpt><trkpt lat="43.5328483" lon="11.05917"><ele>70.5</ele><time>2026-04-05T12:00:56.103Z</time></trkpt><trkpt lat="43.5327433" lon="11.05931"><ele>70.75</ele><time>2026-04-05T12:00:57.102Z</time></trkpt><trkpt lat="43.5326367" lon="11.059445"><ele>71.0</ele><time>2026-04-05T12:00:58.103Z</time></trkpt><trkpt lat="43.5325317" lon="11.0595733"><ele>71.0</ele><time>2026-04-05T12:00:59.103Z</time></trkpt><trkpt lat="43.5324233" lon="11.0597"><ele>71.0</ele><time>2026-04-05T12:01:00.103Z</time></trkpt><trkpt lat="43.5323133" lon="11.0598283"><ele>71.0</ele><time>2026-04-05T12:01:01.103Z</time></trkpt><trkpt lat="43.532205" lon="11.059955"><ele>71.0</ele><time>2026-04-05T12:01:02.103Z</time></trkpt><trkpt lat="43.5320983" lon="11.06008"><ele>71.0</ele><time>2026-04-05T12:01:03.103Z</time></trkpt><trkpt lat="43.5319917" lon="11.0602033"><ele>71.0</ele><time>2026-04-05T12:01:04.103Z</time></trkpt><trkpt lat="43.5318867" lon="11.060325"><ele>71.0</ele><time>2026-04-05T12:01:05.103Z</time></trkpt><trkpt lat="43.5317817" lon="11.0604417"><ele>71.0</ele><time>2026-04-05T12:01:06.103Z</time></trkpt><trkpt lat="43.53168" lon="11.0605583"><ele>71.0</ele><time>2026-04-05T12:01:07.103Z</time></trkpt><trkpt lat="43.5315767" lon="11.060675"><ele>71.0</ele><time>2026-04-05T12:01:08.103Z</time></trkpt><trkpt lat="43.531475" lon="11.0607917"><ele>71.0</ele><time>2026-04-05T12:01:09.102Z</time></trkpt><trkpt lat="43.5313733" lon="11.060915"><ele>71.0</ele><time>2026-04-05T12:01:10.103Z</time></trkpt><trkpt lat="43.5312717" lon="11.0610317"><ele>71.5</ele><time>2026-04-05T12:01:11.103Z</time></trkpt><trkpt lat="43.53117" lon="11.0611467"><ele>72.0</ele><time>2026-04-05T12:01:12.103Z</time></trkpt><trkpt lat="43.5310717" lon="11.0612617"><ele>72.5</ele><time>2026-04-05T12:01:13.103Z</time></trkpt><trkpt lat="43.53097" lon="11.0613733"><ele>73.0</ele><time>2026-04-05T12:01:14.103Z</time></trkpt><trkpt lat="43.5308717" lon="11.0614867"><ele>73.0</ele><time>2026-04-05T12:01:15.103Z</time></trkpt><trkpt lat="43.5307783" lon="11.0616033"><ele>73.0</ele><time>2026-04-05T12:01:16.103Z</time></trkpt><trkpt lat="43.5306833" lon="11.06172"><ele>73.0</ele><time>2026-04-05T12:01:17.103Z</time></trkpt><trkpt lat="43.530585" lon="11.0618283"><ele>73.0</ele><time>2026-04-05T12:01:18.103Z</time></trkpt><trkpt lat="43.5304883" lon="11.0619417"><ele>73.0</ele><time>2026-04-05T12:01:19.103Z</time></trkpt><trkpt lat="43.5303983" lon="11.06206"><ele>73.0</ele><time>2026-04-05T12:01:20.103Z</time></trkpt><trkpt lat="43.5303167" lon="11.0621883"><ele>73.0</ele><time>2026-04-05T12:01:21.103Z</time></trkpt><trkpt lat="43.5302417" lon="11.0623283"><ele>73.0</ele><time>2026-04-05T12:01:22.103Z</time></trkpt><trkpt lat="43.530175" lon="11.0624817"><ele>74.0</ele><time>2026-04-05T12:01:23.103Z</time></trkpt><trkpt lat="43.53012" lon="11.0626433"><ele>75.0</ele><time>2026-04-05T12:01:24.103Z</time></trkpt><trkpt lat="43.5300717" lon="11.0628117"><ele>76.0</ele><time>2026-04-05T12:01:25.103Z</time></trkpt><trkpt lat="43.5300383" lon="11.06299"><ele>77.0</ele><time>2026-04-05T12:01:26.103Z</time></trkpt><trkpt lat="43.5300167" lon="11.0631767"><ele>78.0</ele><time>2026-04-05T12:01:27.103Z</time></trkpt><trkpt lat="43.5300117" lon="11.0633583"><ele>79.0</ele><time>2026-04-05T12:01:28.103Z</time></trkpt><trkpt lat="43.53002" lon="11.0635333"><ele>80.0</ele><time>2026-04-05T12:01:29.103Z</time></trkpt><trkpt lat="43.5300383" lon="11.0637133"><ele>81.0</ele><time>2026-04-05T12:01:30.103Z</time></trkpt><trkpt lat="43.530065" lon="11.0638917"><ele>81.0</ele><time>2026-04-05T12:01:31.102Z</time></trkpt><trkpt lat="43.5300983" lon="11.0640683"><ele>81.0</ele><time>2026-04-05T12:01:32.102Z</time></trkpt><trkpt lat="43.5301367" lon="11.0642483"><ele>81.0</ele><time>2026-04-05T12:01:33.103Z</time></trkpt><trkpt lat="43.5301783" lon="11.064425"><ele>81.0</ele><time>2026-04-05T12:01:34.102Z</time></trkpt><trkpt lat="43.530215" lon="11.0646033"><ele>81.25</ele><time>2026-04-05T12:01:35.103Z</time></trkpt><trkpt lat="43.530255" lon="11.0647767"><ele>81.5</ele><time>2026-04-05T12:01:36.103Z</time></trkpt><trkpt lat="43.5302983" lon="11.06495"><ele>81.75</ele><time>2026-04-05T12:01:37.103Z</time></trkpt><trkpt lat="43.5303317" lon="11.06513"><ele>82.0</ele><time>2026-04-05T12:01:38.103Z</time></trkpt><trkpt lat="43.5303667" lon="11.0653117"><ele>83.75</ele><time>2026-04-05T12:01:39.103Z</time></trkpt><trkpt lat="43.5304" lon="11.0654983"><ele>85.5</ele><time>2026-04-05T12:01:40.103Z</time></trkpt><trkpt lat="43.5304267" lon="11.0656883"><ele>87.25</ele><time>2026-04-05T12:01:41.103Z</time></trkpt><trkpt lat="43.53045" lon="11.06588"><ele>89.0</ele><time>2026-04-05T12:01:42.103Z</time></trkpt><trkpt lat="43.530465" lon="11.066075"><ele>89.0</ele><time>2026-04-05T12:01:43.103Z</time></trkpt><trkpt lat="43.5304733" lon="11.0662717"><ele>89.0</ele><time>2026-04-05T12:01:44.103Z</time></trkpt><trkpt lat="43.53048" lon="11.066465"><ele>89.0</ele><time>2026-04-05T12:01:45.103Z</time></trkpt><trkpt lat="43.530485" lon="11.0666617"><ele>89.0</ele><time>2026-04-05T12:01:46.103Z</time></trkpt><trkpt lat="43.53049" lon="11.0668633"><ele>88.0</ele><time>2026-04-05T12:01:47.103Z</time></trkpt><trkpt lat="43.5304983" lon="11.067065"><ele>87.0</ele><time>2026-04-05T12:01:48.103Z</time></trkpt><trkpt lat="43.5305067" lon="11.0672667"><ele>86.0</ele><time>2026-04-05T12:01:49.103Z</time></trkpt><trkpt lat="43.5305133" lon="11.0674717"><ele>85.0</ele><time>2026-04-05T12:01:50.103Z</time></trkpt><trkpt lat="43.5305167" lon="11.0676783"><ele>84.5</ele><time>2026-04-05T12:01:51.103Z</time></trkpt><trkpt lat="43.5305217" lon="11.0678833"><ele>84.0</ele><time>2026-04-05T12:01:52.103Z</time></trkpt><trkpt lat="43.5305267" lon="11.06809"><ele>83.5</ele><time>2026-04-05T12:01:53.103Z</time></trkpt><trkpt lat="43.5305333" lon="11.0682967"><ele>83.0</ele><time>2026-04-05T12:01:54.103Z</time></trkpt><trkpt lat="43.5305417" lon="11.0685017"><ele>82.5</ele><time>2026-04-05T12:01:55.103Z</time></trkpt><trkpt lat="43.53055" lon="11.0687083"><ele>82.0</ele><time>2026-04-05T12:01:56.103Z</time></trkpt><trkpt lat="43.5305583" lon="11.0689117"><ele>81.5</ele><time>2026-04-05T12:01:57.103Z</time></trkpt><trkpt lat="43.530565" lon="11.069115"><ele>81.0</ele><time>2026-04-05T12:01:58.103Z</time></trkpt><trkpt lat="43.5305683" lon="11.069315"><ele>79.75</ele><time>2026-04-05T12:01:59.103Z</time></trkpt><trkpt lat="43.5305683" lon="11.0695133"><ele>78.5</ele><time>2026-04-05T12:02:00.103Z</time></trkpt><trkpt lat="43.5305633" lon="11.0697117"><ele>77.25</ele><time>2026-04-05T12:02:01.103Z</time></trkpt><trkpt lat="43.5305517" lon="11.06991"><ele>76.0</ele><time>2026-04-05T12:02:02.103Z</time></trkpt><trkpt lat="43.5305333" lon="11.0701083"><ele>75.75</ele><time>2026-04-05T12:02:03.103Z</time></trkpt><trkpt lat="43.5304983" lon="11.0703017"><ele>75.5</ele><time>2026-04-05T12:02:04.102Z</time></trkpt><trkpt lat="43.5304467" lon="11.0704817"><ele>75.25</ele><time>2026-04-05T12:02:05.103Z</time></trkpt><trkpt lat="43.5303783" lon="11.070655"><ele>75.0</ele><time>2026-04-05T12:02:06.103Z</time></trkpt><trkpt lat="43.5303067" lon="11.07082"><ele>74.75</ele><time>2026-04-05T12:02:07.103Z</time></trkpt><trkpt lat="43.5302267" lon="11.0709783"><ele>74.5</ele><time>2026-04-05T12:02:08.103Z</time></trkpt><trkpt lat="43.5301467" lon="11.071135"><ele>74.25</ele><time>2026-04-05T12:02:09.103Z</time></trkpt><trkpt lat="43.530065" lon="11.0712983"><ele>74.0</ele><time>2026-04-05T12:02:10.103Z</time></trkpt><trkpt lat="43.5299833" lon="11.0714617"><ele>73.75</ele><time>2026-04-05T12:02:11.103Z</time></trkpt><trkpt lat="43.5299017" lon="11.0716233"><ele>73.5</ele><time>2026-04-05T12:02:12.103Z</time></trkpt><trkpt lat="43.5298233" lon="11.071785"><ele>73.25</ele><time>2026-04-05T12:02:13.103Z</time></trkpt><trkpt lat="43.529745" lon="11.0719483"><ele>73.0</ele><time>2026-04-05T12:02:14.103Z</time></trkpt><trkpt lat="43.529665" lon="11.07211"><ele>73.0</ele><time>2026-04-05T12:02:15.103Z</time></trkpt><trkpt lat="43.5295883" lon="11.0722733"><ele>73.0</ele><time>2026-04-05T12:02:16.103Z</time></trkpt><trkpt lat="43.529515" lon="11.0724417"><ele>73.0</ele><time>2026-04-05T12:02:17.103Z</time></trkpt><trkpt lat="43.5294417" lon="11.0726067"><ele>73.0</ele><time>2026-04-05T12:02:18.102Z</time></trkpt><trkpt lat="43.5293667" lon="11.0727767"><ele>73.0</ele><time>2026-04-05T12:02:19.103Z</time></trkpt><trkpt lat="43.5292933" lon="11.072945"><ele>73.0</ele><time>2026-04-05T12:02:20.103Z</time></trkpt><trkpt lat="43.5292217" lon="11.0731133"><ele>73.0</ele><time>2026-04-05T12:02:21.103Z</time></trkpt><trkpt lat="43.5291483" lon="11.073285"><ele>73.0</ele><time>2026-04-05T12:02:22.103Z</time></trkpt><trkpt lat="43.5290717" lon="11.0734583"><ele>73.0</ele><time>2026-04-05T12:02:23.103Z</time></trkpt><trkpt lat="43.5289917" lon="11.0736333"><ele>73.0</ele><time>2026-04-05T12:02:24.102Z</time></trkpt><trkpt lat="43.5289133" lon="11.0738067"><ele>73.0</ele><time>2026-04-05T12:02:25.103Z</time></trkpt><trkpt lat="43.5288367" lon="11.0739767"><ele>73.0</ele><time>2026-04-05T12:02:26.103Z</time></trkpt><trkpt lat="43.52876" lon="11.0741467"><ele>72.75</ele><time>2026-04-05T12:02:27.102Z</time></trkpt><trkpt lat="43.5286833" lon="11.0743133"><ele>72.5</ele><time>2026-04-05T12:02:28.103Z</time></trkpt><trkpt lat="43.5286067" lon="11.074485"><ele>72.25</ele><time>2026-04-05T12:02:29.103Z</time></trkpt><trkpt lat="43.5285317" lon="11.074655"><ele>72.0</ele><time>2026-04-05T12:02:30.103Z</time></trkpt><trkpt lat="43.5284567" lon="11.0748267"><ele>72.25</ele><time>2026-04-05T12:02:31.103Z</time></trkpt><trkpt lat="43.52838" lon="11.074995"><ele>72.5</ele><time>2026-04-05T12:02:32.103Z</time></trkpt><trkpt lat="43.5283" lon="11.0751617"><ele>72.75</ele><time>2026-04-05T12:02:33.103Z</time></trkpt><trkpt lat="43.52822" lon="11.07533"><ele>73.0</ele><time>2026-04-05T12:02:34.103Z</time></trkpt><trkpt lat="43.528145" lon="11.0754983"><ele>73.0</ele><time>2026-04-05T12:02:35.103Z</time></trkpt><trkpt lat="43.5280683" lon="11.075665"><ele>73.0</ele><time>2026-04-05T12:02:36.103Z</time></trkpt><trkpt lat="43.5279883" lon="11.0758283"><ele>73.0</ele><time>2026-04-05T12:02:37.103Z</time></trkpt><trkpt lat="43.5279017" lon="11.07599"><ele>73.0</ele><time>2026-04-05T12:02:38.103Z</time></trkpt><trkpt lat="43.5278083" lon="11.076145"><ele>73.0</ele><time>2026-04-05T12:02:39.103Z</time></trkpt><trkpt lat="43.527705" lon="11.0762883"><ele>73.0</ele><time>2026-04-05T12:02:40.103Z</time></trkpt><trkpt lat="43.5275933" lon="11.076425"><ele>73.0</ele><time>2026-04-05T12:02:41.102Z</time></trkpt><trkpt lat="43.5274783" lon="11.076555"><ele>73.0</ele><time>2026-04-05T12:02:42.103Z</time></trkpt><trkpt lat="43.5273617" lon="11.0766817"><ele>73.0</ele><time>2026-04-05T12:02:43.103Z</time></trkpt><trkpt lat="43.527245" lon="11.0768117"><ele>73.0</ele><time>2026-04-05T12:02:44.102Z</time></trkpt><trkpt lat="43.5271317" lon="11.07694"><ele>73.0</ele><time>2026-04-05T12:02:45.103Z</time></trkpt><trkpt lat="43.5270167" lon="11.0770683"><ele>73.0</ele><time>2026-04-05T12:02:46.103Z</time></trkpt><trkpt lat="43.5269033" lon="11.077195"><ele>73.0</ele><time>2026-04-05T12:02:47.103Z</time></trkpt><trkpt lat="43.5267867" lon="11.07732"><ele>73.0</ele><time>2026-04-05T12:02:48.103Z</time></trkpt><trkpt lat="43.526665" lon="11.077445"><ele>73.0</ele><time>2026-04-05T12:02:49.103Z</time></trkpt><trkpt lat="43.5265467" lon="11.07757"><ele>73.0</ele><time>2026-04-05T12:02:50.101Z</time></trkpt><trkpt lat="43.5264283" lon="11.077695"><ele>73.0</ele><time>2026-04-05T12:02:51.103Z</time></trkpt><trkpt lat="43.5263067" lon="11.0778183"><ele>73.0</ele><time>2026-04-05T12:02:52.103Z</time></trkpt><trkpt lat="43.5261833" lon="11.0779367"><ele>73.0</ele><time>2026-04-05T12:02:53.103Z</time></trkpt><trkpt lat="43.5260583" lon="11.0780517"><ele>73.25</ele><time>2026-04-05T12:02:54.103Z</time></trkpt><trkpt lat="43.5259333" lon="11.07817"><ele>73.5</ele><time>2026-04-05T12:02:55.103Z</time></trkpt><trkpt lat="43.5258067" lon="11.07828"><ele>73.75</ele><time>2026-04-05T12:02:56.103Z</time></trkpt><trkpt lat="43.5256833" lon="11.0783833"><ele>74.0</ele><time>2026-04-05T12:02:57.102Z</time></trkpt><trkpt lat="43.525555" lon="11.0784883"><ele>74.0</ele><time>2026-04-05T12:02:58.103Z</time></trkpt><trkpt lat="43.5254283" lon="11.0785933"><ele>74.0</ele><time>2026-04-05T12:02:59.103Z</time></trkpt><trkpt lat="43.5253033" lon="11.0787"><ele>74.0</ele><time>2026-04-05T12:03:00.103Z</time></trkpt><trkpt lat="43.5251783" lon="11.0788017"><ele>74.0</ele><time>2026-04-05T12:03:01.103Z</time></trkpt><trkpt lat="43.5250517" lon="11.0789117"><ele>74.0</ele><time>2026-04-05T12:03:02.103Z</time></trkpt><trkpt lat="43.524925" lon="11.0790167"><ele>74.0</ele><time>2026-04-05T12:03:03.103Z</time></trkpt><trkpt lat="43.5248" lon="11.07912"><ele>74.0</ele><time>2026-04-05T12:03:04.103Z</time></trkpt><trkpt lat="43.5246733" lon="11.0792183"><ele>74.0</ele><time>2026-04-05T12:03:05.103Z</time></trkpt><trkpt lat="43.5245483" lon="11.07932"><ele>74.0</ele><time>2026-04-05T12:03:06.103Z</time></trkpt><trkpt lat="43.5244217" lon="11.0794217"><ele>74.0</ele><time>2026-04-05T12:03:07.103Z</time></trkpt><trkpt lat="43.524295" lon="11.0795267"><ele>74.0</ele><time>2026-04-05T12:03:08.103Z</time></trkpt><trkpt lat="43.5241667" lon="11.07963"><ele>74.0</ele><time>2026-04-05T12:03:09.103Z</time></trkpt><trkpt lat="43.52404" lon="11.0797317"><ele>74.0</ele><time>2026-04-05T12:03:10.103Z</time></trkpt><trkpt lat="43.5239117" lon="11.079835"><ele>74.0</ele><time>2026-04-05T12:03:11.103Z</time></trkpt><trkpt lat="43.523785" lon="11.0799383"><ele>74.0</ele><time>2026-04-05T12:03:12.103Z</time></trkpt><trkpt lat="43.5236583" lon="11.0800417"><ele>74.0</ele><time>2026-04-05T12:03:13.103Z</time></trkpt><trkpt lat="43.52353" lon="11.0801467"><ele>73.5</ele><time>2026-04-05T12:03:14.103Z</time></trkpt><trkpt lat="43.5234033" lon="11.08025"><ele>73.0</ele><time>2026-04-05T12:03:15.103Z</time></trkpt><trkpt lat="43.5232783" lon="11.080355"><ele>72.5</ele><time>2026-04-05T12:03:16.103Z</time></trkpt><trkpt lat="43.52315" lon="11.08046"><ele>72.0</ele><time>2026-04-05T12:03:17.103Z</time></trkpt><trkpt lat="43.52302" lon="11.080565"><ele>71.75</ele><time>2026-04-05T12:03:18.103Z</time></trkpt><trkpt lat="43.5228933" lon="11.08067"><ele>71.5</ele><time>2026-04-05T12:03:19.103Z</time></trkpt><trkpt lat="43.5227683" lon="11.080775"><ele>71.25</ele><time>2026-04-05T12:03:20.103Z</time></trkpt><trkpt lat="43.5226417" lon="11.0808817"><ele>71.0</ele><time>2026-04-05T12:03:21.103Z</time></trkpt><trkpt lat="43.5225183" lon="11.080985"><ele>71.5</ele><time>2026-04-05T12:03:22.103Z</time></trkpt><trkpt lat="43.5223933" lon="11.0810883"><ele>72.0</ele><time>2026-04-05T12:03:23.103Z</time></trkpt><trkpt lat="43.52227" lon="11.0811917"><ele>72.5</ele><time>2026-04-05T12:03:24.103Z</time></trkpt><trkpt lat="43.522145" lon="11.0812933"><ele>73.0</ele><time>2026-04-05T12:03:25.103Z</time></trkpt><trkpt lat="43.5220233" lon="11.0814017"><ele>73.0</ele><time>2026-04-05T12:03:26.103Z</time></trkpt><trkpt lat="43.5218967" lon="11.081505"><ele>73.0</ele><time>2026-04-05T12:03:27.103Z</time></trkpt><trkpt lat="43.5217717" lon="11.081605"><ele>73.0</ele><time>2026-04-05T12:03:28.103Z</time></trkpt><trkpt lat="43.521645" lon="11.0817067"><ele>73.0</ele><time>2026-04-05T12:03:29.103Z</time></trkpt><trkpt lat="43.52152" lon="11.08181"><ele>73.25</ele><time>2026-04-05T12:03:30.103Z</time></trkpt><trkpt lat="43.5213983" lon="11.081915"><ele>73.5</ele><time>2026-04-05T12:03:31.103Z</time></trkpt><trkpt lat="43.5212717" lon="11.0820167"><ele>73.75</ele><time>2026-04-05T12:03:32.104Z</time></trkpt><trkpt lat="43.521145" lon="11.0821167"><ele>74.0</ele><time>2026-04-05T12:03:33.103Z</time></trkpt><trkpt lat="43.52102" lon="11.08221"><ele>74.25</ele><time>2026-04-05T12:03:34.103Z</time></trkpt><trkpt lat="43.5208933" lon="11.0822967"><ele>74.5</ele><time>2026-04-05T12:03:35.103Z</time></trkpt><trkpt lat="43.520765" lon="11.0823783"><ele>74.75</ele><time>2026-04-05T12:03:36.104Z</time></trkpt><trkpt lat="43.5206317" lon="11.08245"><ele>75.0</ele><time>2026-04-05T12:03:37.104Z</time></trkpt><trkpt lat="43.5205017" lon="11.08252"><ele>74.5</ele><time>2026-04-05T12:03:38.104Z</time></trkpt><trkpt lat="43.52037" lon="11.0825867"><ele>74.0</ele><time>2026-04-05T12:03:39.104Z</time></trkpt><trkpt lat="43.5202383" lon="11.082655"><ele>73.5</ele><time>2026-04-05T12:03:40.104Z</time></trkpt><trkpt lat="43.5201067" lon="11.0827217"><ele>73.0</ele><time>2026-04-05T12:03:41.104Z</time></trkpt><trkpt lat="43.5199733" lon="11.0827867"><ele>73.0</ele><time>2026-04-05T12:03:42.104Z</time></trkpt><trkpt lat="43.5198467" lon="11.0828567"><ele>73.0</ele><time>2026-04-05T12:03:43.104Z</time></trkpt><trkpt lat="43.5197283" lon="11.0829367"><ele>73.0</ele><time>2026-04-05T12:03:44.104Z</time></trkpt><trkpt lat="43.5196183" lon="11.0830167"><ele>73.0</ele><time>2026-04-05T12:03:45.104Z</time></trkpt><trkpt lat="43.519515" lon="11.0830983"><ele>73.2</ele><time>2026-04-05T12:03:46.104Z</time></trkpt><trkpt lat="43.5194167" lon="11.08318"><ele>73.4</ele><time>2026-04-05T12:03:47.104Z</time></trkpt><trkpt lat="43.5193233" lon="11.0832583"><ele>73.60000000000001</ele><time>2026-04-05T12:03:48.104Z</time></trkpt><trkpt lat="43.519235" lon="11.0833233"><ele>73.8</ele><time>2026-04-05T12:03:49.103Z</time></trkpt><trkpt lat="43.51915" lon="11.0833617"><ele>74.0</ele><time>2026-04-05T12:03:50.104Z</time></trkpt><trkpt lat="43.5190767" lon="11.0833817"><ele>74.0</ele><time>2026-04-05T12:03:51.104Z</time></trkpt><trkpt lat="43.5189967" lon="11.08337"><ele>74.0</ele><time>2026-04-05T12:03:52.104Z</time></trkpt><trkpt lat="43.51891" lon="11.08332"><ele>74.0</ele><time>2026-04-05T12:03:53.104Z</time></trkpt><trkpt lat="43.5188283" lon="11.0832383"><ele>74.0</ele><time>2026-04-05T12:03:54.104Z</time></trkpt><trkpt lat="43.5187467" lon="11.0831483"><ele>74.0</ele><time>2026-04-05T12:03:55.104Z</time></trkpt><trkpt lat="43.518665" lon="11.083055"><ele>74.0</ele><time>2026-04-05T12:03:56.104Z</time></trkpt><trkpt lat="43.5185767" lon="11.083"><ele>74.0</ele><time>2026-04-05T12:03:57.103Z</time></trkpt><trkpt lat="43.5184783" lon="11.0829817"><ele>74.0</ele><time>2026-04-05T12:03:58.104Z</time></trkpt><trkpt lat="43.51837" lon="11.0830083"><ele>74.0</ele><time>2026-04-05T12:03:59.104Z</time></trkpt><trkpt lat="43.5182583" lon="11.083065"><ele>74.0</ele><time>2026-04-05T12:04:00.104Z</time></trkpt><trkpt lat="43.518145" lon="11.0831417"><ele>74.0</ele><time>2026-04-05T12:04:01.104Z</time></trkpt><trkpt lat="43.51803" lon="11.0832267"><ele>74.0</ele><time>2026-04-05T12:04:02.104Z</time></trkpt><trkpt lat="43.5179167" lon="11.0833183"><ele>74.0</ele><time>2026-04-05T12:04:03.104Z</time></trkpt><trkpt lat="43.51781" lon="11.083415"><ele>74.0</ele><time>2026-04-05T12:04:04.104Z</time></trkpt><trkpt lat="43.5177033" lon="11.0835167"><ele>74.25</ele><time>2026-04-05T12:04:05.104Z</time></trkpt><trkpt lat="43.5175933" lon="11.083625"><ele>74.5</ele><time>2026-04-05T12:04:06.103Z</time></trkpt><trkpt lat="43.51748" lon="11.0837417"><ele>74.75</ele><time>2026-04-05T12:04:07.104Z</time></trkpt><trkpt lat="43.51737" lon="11.083865"><ele>75.0</ele><time>2026-04-05T12:04:08.104Z</time></trkpt><trkpt lat="43.5172583" lon="11.0839933"><ele>75.0</ele><time>2026-04-05T12:04:09.104Z</time></trkpt><trkpt lat="43.5171483" lon="11.08412"><ele>75.0</ele><time>2026-04-05T12:04:10.104Z</time></trkpt><trkpt lat="43.5170383" lon="11.084245"><ele>75.0</ele><time>2026-04-05T12:04:11.104Z</time></trkpt><trkpt lat="43.5169317" lon="11.084365"><ele>75.0</ele><time>2026-04-05T12:04:12.104Z</time></trkpt><trkpt lat="43.5168233" lon="11.08448"><ele>75.0</ele><time>2026-04-05T12:04:13.104Z</time></trkpt><trkpt lat="43.5167133" lon="11.0845783"><ele>75.0</ele><time>2026-04-05T12:04:14.104Z</time></trkpt><trkpt lat="43.516595" lon="11.0846383"><ele>75.0</ele><time>2026-04-05T12:04:15.104Z</time></trkpt><trkpt lat="43.5164717" lon="11.084655"><ele>75.0</ele><time>2026-04-05T12:04:16.104Z</time></trkpt><trkpt lat="43.516355" lon="11.0846383"><ele>75.0</ele><time>2026-04-05T12:04:17.104Z</time></trkpt><trkpt lat="43.51624" lon="11.0845833"><ele>75.0</ele><time>2026-04-05T12:04:18.104Z</time></trkpt><trkpt lat="43.51613" lon="11.0844967"><ele>75.0</ele><time>2026-04-05T12:04:19.104Z</time></trkpt><trkpt lat="43.5160317" lon="11.08438"><ele>75.0</ele><time>2026-04-05T12:04:20.104Z</time></trkpt><trkpt lat="43.5159433" lon="11.0842467"><ele>75.0</ele><time>2026-04-05T12:04:21.104Z</time></trkpt><trkpt lat="43.5158617" lon="11.0841033"><ele>75.0</ele><time>2026-04-05T12:04:22.104Z</time></trkpt><trkpt lat="43.5157833" lon="11.0839517"><ele>75.0</ele><time>2026-04-05T12:04:23.104Z</time></trkpt><trkpt lat="43.5157117" lon="11.083795"><ele>75.0</ele><time>2026-04-05T12:04:24.103Z</time></trkpt><trkpt lat="43.515645" lon="11.083635"><ele>74.75</ele><time>2026-04-05T12:04:25.104Z</time></trkpt><trkpt lat="43.5155867" lon="11.083475"><ele>74.5</ele><time>2026-04-05T12:04:26.103Z</time></trkpt><trkpt lat="43.5155317" lon="11.0833167"><ele>74.25</ele><time>2026-04-05T12:04:27.104Z</time></trkpt><trkpt lat="43.5154767" lon="11.0831617"><ele>74.0</ele><time>2026-04-05T12:04:28.104Z</time></trkpt><trkpt lat="43.5154233" lon="11.083015"><ele>73.83333333333334</ele><time>2026-04-05T12:04:29.104Z</time></trkpt><trkpt lat="43.515395" lon="11.0828717"><ele>73.66666666666667</ele><time>2026-04-05T12:04:30.104Z</time></trkpt><trkpt lat="43.5153833" lon="11.0827367"><ele>73.5</ele><time>2026-04-05T12:04:31.104Z</time></trkpt><trkpt lat="43.5153783" lon="11.08262"><ele>73.33333333333333</ele><time>2026-04-05T12:04:32.103Z</time></trkpt><trkpt lat="43.515365" lon="11.08251"><ele>73.16666666666666</ele><time>2026-04-05T12:04:33.104Z</time></trkpt><trkpt lat="43.515335" lon="11.0824183"><ele>73.0</ele><time>2026-04-05T12:04:34.104Z</time></trkpt><trkpt lat="43.5152917" lon="11.0823433"><ele>73.0</ele><time>2026-04-05T12:04:35.104Z</time></trkpt><trkpt lat="43.5152" lon="11.0823433"><ele>73.0</ele><time>2026-04-05T12:04:36.103Z</time></trkpt><trkpt lat="43.515115" lon="11.0823617"><ele>73.0</ele><time>2026-04-05T12:04:37.104Z</time></trkpt><trkpt lat="43.5150233" lon="11.0824183"><ele>73.0</ele><time>2026-04-05T12:04:38.104Z</time></trkpt><trkpt lat="43.51473" lon="11.0825683"><ele>73.0</ele><time>2026-04-05T12:04:41.104Z</time></trkpt><trkpt lat="43.5146183" lon="11.0825983"><ele>73.0</ele><time>2026-04-05T12:04:42.104Z</time></trkpt><trkpt lat="43.5144967" lon="11.0826267"><ele>73.0</ele><time>2026-04-05T12:04:43.104Z</time></trkpt><trkpt lat="43.5143733" lon="11.0826517"><ele>73.0</ele><time>2026-04-05T12:04:44.104Z</time></trkpt><trkpt lat="43.5142433" lon="11.082675"><ele>73.25</ele><time>2026-04-05T12:04:45.104Z</time></trkpt><trkpt lat="43.5141117" lon="11.082695"><ele>73.5</ele><time>2026-04-05T12:04:46.104Z</time></trkpt><trkpt lat="43.5139783" lon="11.0827133"><ele>73.75</ele><time>2026-04-05T12:04:47.104Z</time></trkpt><trkpt lat="43.513845" lon="11.0827317"><ele>74.0</ele><time>2026-04-05T12:04:48.103Z</time></trkpt><trkpt lat="43.5137083" lon="11.08275"><ele>74.0</ele><time>2026-04-05T12:04:49.104Z</time></trkpt><trkpt lat="43.51357" lon="11.0827683"><ele>74.0</ele><time>2026-04-05T12:04:50.104Z</time></trkpt><trkpt lat="43.5134267" lon="11.0827867"><ele>74.0</ele><time>2026-04-05T12:04:51.103Z</time></trkpt><trkpt lat="43.513275" lon="11.0828033"><ele>74.0</ele><time>2026-04-05T12:04:52.104Z</time></trkpt><trkpt lat="43.5131217" lon="11.0828217"><ele>74.0</ele><time>2026-04-05T12:04:53.104Z</time></trkpt><trkpt lat="43.5129683" lon="11.0828433"><ele>74.0</ele><time>2026-04-05T12:04:54.104Z</time></trkpt><trkpt lat="43.5128167" lon="11.0828667"><ele>74.0</ele><time>2026-04-05T12:04:55.104Z</time></trkpt><trkpt lat="43.512665" lon="11.08289"><ele>74.33333333333334</ele><time>2026-04-05T12:04:56.104Z</time></trkpt><trkpt lat="43.51251" lon="11.0829117"><ele>74.66666666666667</ele><time>2026-04-05T12:04:57.104Z</time></trkpt><trkpt lat="43.512355" lon="11.082935"><ele>75.0</ele><time>2026-04-05T12:04:58.104Z</time></trkpt><trkpt lat="43.5121983" lon="11.08296"><ele>74.66666666666667</ele><time>2026-04-05T12:04:59.104Z</time></trkpt><trkpt lat="43.51204" lon="11.0829867"><ele>74.33333333333334</ele><time>2026-04-05T12:05:00.104Z</time></trkpt><trkpt lat="43.5118817" lon="11.0830167"><ele>74.0</ele><time>2026-04-05T12:05:01.104Z</time></trkpt><trkpt lat="43.51172" lon="11.0830483"><ele>74.0</ele><time>2026-04-05T12:05:02.104Z</time></trkpt><trkpt lat="43.51156" lon="11.083085"><ele>74.0</ele><time>2026-04-05T12:05:03.104Z</time></trkpt><trkpt lat="43.5114" lon="11.08313"><ele>74.0</ele><time>2026-04-05T12:05:04.104Z</time></trkpt><trkpt lat="43.51124" lon="11.0831833"><ele>73.66666666666667</ele><time>2026-04-05T12:05:05.104Z</time></trkpt><trkpt lat="43.51108" lon="11.0832467"><ele>73.33333333333333</ele><time>2026-04-05T12:05:06.104Z</time></trkpt><trkpt lat="43.5109183" lon="11.0833167"><ele>73.0</ele><time>2026-04-05T12:05:07.104Z</time></trkpt><trkpt lat="43.51076" lon="11.083385"><ele>73.0</ele><time>2026-04-05T12:05:08.104Z</time></trkpt><trkpt lat="43.5105983" lon="11.0834617"><ele>73.0</ele><time>2026-04-05T12:05:09.104Z</time></trkpt><trkpt lat="43.51044" lon="11.0835417"><ele>73.0</ele><time>2026-04-05T12:05:10.103Z</time></trkpt><trkpt lat="43.51028" lon="11.0836233"><ele>74.0</ele><time>2026-04-05T12:05:11.104Z</time></trkpt><trkpt lat="43.51012" lon="11.083705"><ele>75.0</ele><time>2026-04-05T12:05:12.104Z</time></trkpt><trkpt lat="43.5099567" lon="11.0837867"><ele>76.0</ele><time>2026-04-05T12:05:13.103Z</time></trkpt><trkpt lat="43.5097917" lon="11.0838667"><ele>76.0</ele><time>2026-04-05T12:05:14.104Z</time></trkpt><trkpt lat="43.50963" lon="11.0839533"><ele>76.0</ele><time>2026-04-05T12:05:15.104Z</time></trkpt><trkpt lat="43.5094617" lon="11.0840417"><ele>76.0</ele><time>2026-04-05T12:05:16.104Z</time></trkpt><trkpt lat="43.5092933" lon="11.0841317"><ele>75.5</ele><time>2026-04-05T12:05:17.104Z</time></trkpt><trkpt lat="43.5091233" lon="11.0842233"><ele>75.0</ele><time>2026-04-05T12:05:18.104Z</time></trkpt><trkpt lat="43.5085967" lon="11.084485"><ele>75.0</ele><time>2026-04-05T12:05:21.104Z</time></trkpt><trkpt lat="43.50842" lon="11.0845717"><ele>75.0</ele><time>2026-04-05T12:05:22.104Z</time></trkpt><trkpt lat="43.508245" lon="11.0846583"><ele>75.0</ele><time>2026-04-05T12:05:23.104Z</time></trkpt><trkpt lat="43.508075" lon="11.0847467"><ele>75.0</ele><time>2026-04-05T12:05:24.104Z</time></trkpt><trkpt lat="43.5079033" lon="11.0848333"><ele>75.0</ele><time>2026-04-05T12:05:25.104Z</time></trkpt><trkpt lat="43.5077283" lon="11.0849183"><ele>75.0</ele><time>2026-04-05T12:05:26.103Z</time></trkpt><trkpt lat="43.5075567" lon="11.0850033"><ele>75.0</ele><time>2026-04-05T12:05:27.104Z</time></trkpt><trkpt lat="43.5073833" lon="11.0850867"><ele>75.0</ele><time>2026-04-05T12:05:28.104Z</time></trkpt><trkpt lat="43.5072133" lon="11.08517"><ele>75.0</ele><time>2026-04-05T12:05:29.104Z</time></trkpt><trkpt lat="43.5070433" lon="11.0852517"><ele>75.33333333333333</ele><time>2026-04-05T12:05:30.104Z</time></trkpt><trkpt lat="43.5068733" lon="11.085335"><ele>75.66666666666666</ele><time>2026-04-05T12:05:31.104Z</time></trkpt><trkpt lat="43.5067017" lon="11.0854167"><ele>76.0</ele><time>2026-04-05T12:05:32.104Z</time></trkpt><trkpt lat="43.5065317" lon="11.0855017"><ele>76.0</ele><time>2026-04-05T12:05:33.104Z</time></trkpt><trkpt lat="43.5063633" lon="11.0855867"><ele>76.0</ele><time>2026-04-05T12:05:34.104Z</time></trkpt><trkpt lat="43.5062" lon="11.08568"><ele>76.0</ele><time>2026-04-05T12:05:35.104Z</time></trkpt><trkpt lat="43.5060417" lon="11.0857817"><ele>76.0</ele><time>2026-04-05T12:05:36.104Z</time></trkpt><trkpt lat="43.50589" lon="11.08589"><ele>76.0</ele><time>2026-04-05T12:05:37.104Z</time></trkpt><trkpt lat="43.505745" lon="11.0860017"><ele>76.0</ele><time>2026-04-05T12:05:38.104Z</time></trkpt><trkpt lat="43.5053717" lon="11.0863383"><ele>76.5</ele><time>2026-04-05T12:05:41.104Z</time></trkpt><trkpt lat="43.5052617" lon="11.0864517"><ele>77.0</ele><time>2026-04-05T12:05:42.104Z</time></trkpt><trkpt lat="43.5051583" lon="11.08656"><ele>77.5</ele><time>2026-04-05T12:05:43.104Z</time></trkpt><trkpt lat="43.505055" lon="11.086665"><ele>78.0</ele><time>2026-04-05T12:05:44.104Z</time></trkpt><trkpt lat="43.5049567" lon="11.0867683"><ele>78.0</ele><time>2026-04-05T12:05:45.104Z</time></trkpt><trkpt lat="43.5048567" lon="11.0868633"><ele>78.0</ele><time>2026-04-05T12:05:46.104Z</time></trkpt><trkpt lat="43.5047567" lon="11.0869417"><ele>78.0</ele><time>2026-04-05T12:05:47.104Z</time></trkpt><trkpt lat="43.50466" lon="11.0870017"><ele>78.0</ele><time>2026-04-05T12:05:48.104Z</time></trkpt><trkpt lat="43.5045683" lon="11.0870583"><ele>78.0</ele><time>2026-04-05T12:05:49.104Z</time></trkpt><trkpt lat="43.5044933" lon="11.08714"><ele>78.0</ele><time>2026-04-05T12:05:50.104Z</time></trkpt><trkpt lat="43.5044317" lon="11.0872433"><ele>78.0</ele><time>2026-04-05T12:05:51.104Z</time></trkpt><trkpt lat="43.5043767" lon="11.087375"><ele>78.0</ele><time>2026-04-05T12:05:52.104Z</time></trkpt><trkpt lat="43.5043183" lon="11.0875117"><ele>78.0</ele><time>2026-04-05T12:05:53.104Z</time></trkpt><trkpt lat="43.5042467" lon="11.0876433"><ele>78.0</ele><time>2026-04-05T12:05:54.104Z</time></trkpt><trkpt lat="43.504165" lon="11.0877767"><ele>77.75</ele><time>2026-04-05T12:05:55.104Z</time></trkpt><trkpt lat="43.504075" lon="11.0879033"><ele>77.5</ele><time>2026-04-05T12:05:56.104Z</time></trkpt><trkpt lat="43.50398" lon="11.0880283"><ele>77.25</ele><time>2026-04-05T12:05:57.104Z</time></trkpt><trkpt lat="43.5038783" lon="11.0881583"><ele>77.0</ele><time>2026-04-05T12:05:58.104Z</time></trkpt><trkpt lat="43.5037717" lon="11.088295"><ele>77.0</ele><time>2026-04-05T12:05:59.104Z</time></trkpt><trkpt lat="43.50366" lon="11.088435"><ele>77.0</ele><time>2026-04-05T12:06:00.104Z</time></trkpt><trkpt lat="43.5035467" lon="11.0885817"><ele>77.0</ele><time>2026-04-05T12:06:01.104Z</time></trkpt><trkpt lat="43.5034317" lon="11.0887283"><ele>77.0</ele><time>2026-04-05T12:06:02.104Z</time></trkpt><trkpt lat="43.50332" lon="11.0888733"><ele>77.0</ele><time>2026-04-05T12:06:03.104Z</time></trkpt><trkpt lat="43.503205" lon="11.0890233"><ele>77.0</ele><time>2026-04-05T12:06:04.104Z</time></trkpt><trkpt lat="43.5030867" lon="11.0891767"><ele>76.33333333333334</ele><time>2026-04-05T12:06:05.104Z</time></trkpt><trkpt lat="43.502965" lon="11.089335"><ele>75.66666666666667</ele><time>2026-04-05T12:06:06.104Z</time></trkpt><trkpt lat="43.50284" lon="11.0894983"><ele>75.0</ele><time>2026-04-05T12:06:07.104Z</time></trkpt><trkpt lat="43.502715" lon="11.089665"><ele>75.66666666666667</ele><time>2026-04-05T12:06:08.104Z</time></trkpt><trkpt lat="43.5025883" lon="11.089835"><ele>76.33333333333334</ele><time>2026-04-05T12:06:09.104Z</time></trkpt><trkpt lat="43.5024583" lon="11.0900017"><ele>77.0</ele><time>2026-04-05T12:06:10.103Z</time></trkpt><trkpt lat="43.5023267" lon="11.09017"><ele>77.0</ele><time>2026-04-05T12:06:11.104Z</time></trkpt><trkpt lat="43.502195" lon="11.0903383"><ele>77.0</ele><time>2026-04-05T12:06:12.104Z</time></trkpt><trkpt lat="43.5020683" lon="11.0905033"><ele>77.0</ele><time>2026-04-05T12:06:13.104Z</time></trkpt><trkpt lat="43.5019433" lon="11.09067"><ele>77.0</ele><time>2026-04-05T12:06:14.104Z</time></trkpt><trkpt lat="43.501815" lon="11.0908383"><ele>77.0</ele><time>2026-04-05T12:06:15.104Z</time></trkpt><trkpt lat="43.5016867" lon="11.091005"><ele>77.0</ele><time>2026-04-05T12:06:16.104Z</time></trkpt><trkpt lat="43.501555" lon="11.0911717"><ele>77.0</ele><time>2026-04-05T12:06:17.104Z</time></trkpt><trkpt lat="43.501425" lon="11.0913383"><ele>77.0</ele><time>2026-04-05T12:06:18.104Z</time></trkpt><trkpt lat="43.501295" lon="11.09151"><ele>77.0</ele><time>2026-04-05T12:06:19.104Z</time></trkpt><trkpt lat="43.501165" lon="11.09168"><ele>77.66666666666667</ele><time>2026-04-05T12:06:20.104Z</time></trkpt><trkpt lat="43.5010333" lon="11.0918533"><ele>78.33333333333333</ele><time>2026-04-05T12:06:21.103Z</time></trkpt><trkpt lat="43.5009033" lon="11.0920233"><ele>79.0</ele><time>2026-04-05T12:06:22.104Z</time></trkpt><trkpt lat="43.5007733" lon="11.0921917"><ele>79.0</ele><time>2026-04-05T12:06:23.104Z</time></trkpt><trkpt lat="43.5006433" lon="11.0923583"><ele>79.0</ele><time>2026-04-05T12:06:24.104Z</time></trkpt><trkpt lat="43.500515" lon="11.0925283"><ele>79.0</ele><time>2026-04-05T12:06:25.104Z</time></trkpt><trkpt lat="43.5003833" lon="11.0926967"><ele>79.0</ele><time>2026-04-05T12:06:26.103Z</time></trkpt><trkpt lat="43.5002517" lon="11.0928667"><ele>79.0</ele><time>2026-04-05T12:06:27.104Z</time></trkpt><trkpt lat="43.50012" lon="11.0930383"><ele>79.0</ele><time>2026-04-05T12:06:28.104Z</time></trkpt><trkpt lat="43.4999883" lon="11.0932083"><ele>78.0</ele><time>2026-04-05T12:06:29.104Z</time></trkpt><trkpt lat="43.4998567" lon="11.0933767"><ele>77.0</ele><time>2026-04-05T12:06:30.104Z</time></trkpt><trkpt lat="43.49973" lon="11.093545"><ele>76.0</ele><time>2026-04-05T12:06:31.103Z</time></trkpt><trkpt lat="43.4996033" lon="11.0937183"><ele>76.66666666666666</ele><time>2026-04-05T12:06:32.104Z</time></trkpt><trkpt lat="43.4994817" lon="11.0938983"><ele>77.33333333333333</ele><time>2026-04-05T12:06:33.104Z</time></trkpt><trkpt lat="43.4993667" lon="11.0940883"><ele>78.0</ele><time>2026-04-05T12:06:34.104Z</time></trkpt><trkpt lat="43.4992567" lon="11.0942817"><ele>78.33333333333333</ele><time>2026-04-05T12:06:35.103Z</time></trkpt><trkpt lat="43.4991517" lon="11.0944817"><ele>78.66666666666666</ele><time>2026-04-05T12:06:36.104Z</time></trkpt><trkpt lat="43.4990467" lon="11.0946833"><ele>79.0</ele><time>2026-04-05T12:06:37.104Z</time></trkpt><trkpt lat="43.49895" lon="11.0948867"><ele>79.0</ele><time>2026-04-05T12:06:38.104Z</time></trkpt><trkpt lat="43.498855" lon="11.095095"><ele>79.0</ele><time>2026-04-05T12:06:39.103Z</time></trkpt><trkpt lat="43.4987667" lon="11.0953067"><ele>79.0</ele><time>2026-04-05T12:06:40.104Z</time></trkpt><trkpt lat="43.4986833" lon="11.0955267"><ele>79.33333333333333</ele><time>2026-04-05T12:06:41.104Z</time></trkpt><trkpt lat="43.4986033" lon="11.0957467"><ele>79.66666666666667</ele><time>2026-04-05T12:06:42.104Z</time></trkpt><trkpt lat="43.4985317" lon="11.0959683"><ele>80.0</ele><time>2026-04-05T12:06:43.104Z</time></trkpt><trkpt lat="43.49846" lon="11.0961917"><ele>80.0</ele><time>2026-04-05T12:06:44.104Z</time></trkpt><trkpt lat="43.4983967" lon="11.0964183"><ele>80.0</ele><time>2026-04-05T12:06:45.104Z</time></trkpt><trkpt lat="43.49833" lon="11.0966467"><ele>80.0</ele><time>2026-04-05T12:06:46.104Z</time></trkpt><trkpt lat="43.4982617" lon="11.096875"><ele>80.0</ele><time>2026-04-05T12:06:47.104Z</time></trkpt><trkpt lat="43.4981983" lon="11.0971017"><ele>80.0</ele><time>2026-04-05T12:06:48.104Z</time></trkpt><trkpt lat="43.498135" lon="11.0973283"><ele>80.0</ele><time>2026-04-05T12:06:49.104Z</time></trkpt><trkpt lat="43.4980733" lon="11.0975533"><ele>79.66666666666667</ele><time>2026-04-05T12:06:50.104Z</time></trkpt><trkpt lat="43.4980133" lon="11.0977783"><ele>79.33333333333333</ele><time>2026-04-05T12:06:51.104Z</time></trkpt><trkpt lat="43.4979533" lon="11.098"><ele>79.0</ele><time>2026-04-05T12:06:52.104Z</time></trkpt><trkpt lat="43.4978933" lon="11.09822"><ele>78.33333333333333</ele><time>2026-04-05T12:06:53.104Z</time></trkpt><trkpt lat="43.49783" lon="11.0984417"><ele>77.66666666666667</ele><time>2026-04-05T12:06:54.104Z</time></trkpt><trkpt lat="43.4977667" lon="11.0986617"><ele>77.0</ele><time>2026-04-05T12:06:55.104Z</time></trkpt><trkpt lat="43.497705" lon="11.0988833"><ele>77.0</ele><time>2026-04-05T12:06:56.104Z</time></trkpt><trkpt lat="43.49764" lon="11.0991033"><ele>77.0</ele><time>2026-04-05T12:06:57.104Z</time></trkpt><trkpt lat="43.4975733" lon="11.09932"><ele>77.0</ele><time>2026-04-05T12:06:58.104Z</time></trkpt><trkpt lat="43.4975033" lon="11.0995367"><ele>77.0</ele><time>2026-04-05T12:06:59.104Z</time></trkpt><trkpt lat="43.4974283" lon="11.0997483"><ele>77.0</ele><time>2026-04-05T12:07:00.104Z</time></trkpt><trkpt lat="43.4973467" lon="11.099955"><ele>77.0</ele><time>2026-04-05T12:07:01.104Z</time></trkpt><trkpt lat="43.4972567" lon="11.1001583"><ele>77.33333333333334</ele><time>2026-04-05T12:07:02.104Z</time></trkpt><trkpt lat="43.497165" lon="11.1003567"><ele>77.66666666666667</ele><time>2026-04-05T12:07:03.104Z</time></trkpt><trkpt lat="43.4970717" lon="11.100555"><ele>78.0</ele><time>2026-04-05T12:07:04.104Z</time></trkpt><trkpt lat="43.4969733" lon="11.1007483"><ele>78.0</ele><time>2026-04-05T12:07:05.104Z</time></trkpt><trkpt lat="43.4968717" lon="11.10094"><ele>78.0</ele><time>2026-04-05T12:07:06.104Z</time></trkpt><trkpt lat="43.496765" lon="11.1011267"><ele>78.0</ele><time>2026-04-05T12:07:07.104Z</time></trkpt><trkpt lat="43.496655" lon="11.101305"><ele>78.0</ele><time>2026-04-05T12:07:08.104Z</time></trkpt><trkpt lat="43.4965417" lon="11.101475"><ele>78.0</ele><time>2026-04-05T12:07:09.104Z</time></trkpt><trkpt lat="43.49643" lon="11.1016417"><ele>78.0</ele><time>2026-04-05T12:07:10.104Z</time></trkpt><trkpt lat="43.4963183" lon="11.101805"><ele>79.0</ele><time>2026-04-05T12:07:11.104Z</time></trkpt><trkpt lat="43.4962067" lon="11.101965"><ele>80.0</ele><time>2026-04-05T12:07:12.104Z</time></trkpt><trkpt lat="43.4960967" lon="11.102125"><ele>81.0</ele><time>2026-04-05T12:07:13.104Z</time></trkpt><trkpt lat="43.49599" lon="11.1022783"><ele>81.0</ele><time>2026-04-05T12:07:14.104Z</time></trkpt><trkpt lat="43.4958833" lon="11.1024233"><ele>81.0</ele><time>2026-04-05T12:07:15.104Z</time></trkpt><trkpt lat="43.4957767" lon="11.1025583"><ele>81.0</ele><time>2026-04-05T12:07:16.104Z</time></trkpt><trkpt lat="43.4956733" lon="11.10268"><ele>81.0</ele><time>2026-04-05T12:07:17.103Z</time></trkpt><trkpt lat="43.4955667" lon="11.1027833"><ele>81.0</ele><time>2026-04-05T12:07:18.104Z</time></trkpt><trkpt lat="43.495465" lon="11.1028683"><ele>81.0</ele><time>2026-04-05T12:07:19.104Z</time></trkpt><trkpt lat="43.4953683" lon="11.102945"><ele>81.0</ele><time>2026-04-05T12:07:20.104Z</time></trkpt><trkpt lat="43.495285" lon="11.103035"><ele>81.0</ele><time>2026-04-05T12:07:21.104Z</time></trkpt><trkpt lat="43.4952167" lon="11.10315"><ele>81.0</ele><time>2026-04-05T12:07:22.104Z</time></trkpt><trkpt lat="43.495165" lon="11.10329"><ele>81.75</ele><time>2026-04-05T12:07:23.103Z</time></trkpt><trkpt lat="43.4951083" lon="11.1034417"><ele>82.5</ele><time>2026-04-05T12:07:24.104Z</time></trkpt><trkpt lat="43.4950367" lon="11.1035917"><ele>83.25</ele><time>2026-04-05T12:07:25.104Z</time></trkpt><trkpt lat="43.494955" lon="11.103735"><ele>84.0</ele><time>2026-04-05T12:07:26.104Z</time></trkpt><trkpt lat="43.4948667" lon="11.1038733"><ele>84.0</ele><time>2026-04-05T12:07:27.104Z</time></trkpt><trkpt lat="43.49477" lon="11.104015"><ele>84.0</ele><time>2026-04-05T12:07:28.104Z</time></trkpt><trkpt lat="43.4946717" lon="11.104165"><ele>84.0</ele><time>2026-04-05T12:07:29.104Z</time></trkpt><trkpt lat="43.49457" lon="11.10432"><ele>84.0</ele><time>2026-04-05T12:07:30.104Z</time></trkpt><trkpt lat="43.4944667" lon="11.1044717"><ele>84.0</ele><time>2026-04-05T12:07:31.104Z</time></trkpt><trkpt lat="43.494365" lon="11.104625"><ele>84.0</ele><time>2026-04-05T12:07:32.104Z</time></trkpt><trkpt lat="43.4942617" lon="11.1047767"><ele>84.0</ele><time>2026-04-05T12:07:33.104Z</time></trkpt><trkpt lat="43.4941533" lon="11.1049333"><ele>83.0</ele><time>2026-04-05T12:07:34.104Z</time></trkpt><trkpt lat="43.4940433" lon="11.10509"><ele>82.0</ele><time>2026-04-05T12:07:35.104Z</time></trkpt><trkpt lat="43.4939333" lon="11.1052483"><ele>81.0</ele><time>2026-04-05T12:07:36.104Z</time></trkpt><trkpt lat="43.49382" lon="11.1054117"><ele>82.0</ele><time>2026-04-05T12:07:37.104Z</time></trkpt><trkpt lat="43.4937067" lon="11.1055767"><ele>83.0</ele><time>2026-04-05T12:07:38.104Z</time></trkpt><trkpt lat="43.4935917" lon="11.1057417"><ele>84.0</ele><time>2026-04-05T12:07:39.104Z</time></trkpt><trkpt lat="43.4934767" lon="11.1059083"><ele>84.0</ele><time>2026-04-05T12:07:40.104Z</time></trkpt><trkpt lat="43.49336" lon="11.1060767"><ele>84.0</ele><time>2026-04-05T12:07:41.104Z</time></trkpt><trkpt lat="43.4932433" lon="11.1062483"><ele>84.0</ele><time>2026-04-05T12:07:42.104Z</time></trkpt><trkpt lat="43.4931267" lon="11.1064233"><ele>84.0</ele><time>2026-04-05T12:07:43.104Z</time></trkpt><trkpt lat="43.4930083" lon="11.1065983"><ele>84.0</ele><time>2026-04-05T12:07:44.104Z</time></trkpt><trkpt lat="43.4928867" lon="11.1067717"><ele>84.0</ele><time>2026-04-05T12:07:45.104Z</time></trkpt><trkpt lat="43.4927667" lon="11.106945"><ele>84.0</ele><time>2026-04-05T12:07:46.104Z</time></trkpt><trkpt lat="43.49265" lon="11.1071183"><ele>84.0</ele><time>2026-04-05T12:07:47.104Z</time></trkpt><trkpt lat="43.4925333" lon="11.1072917"><ele>84.0</ele><time>2026-04-05T12:07:48.104Z</time></trkpt><trkpt lat="43.492415" lon="11.1074617"><ele>83.66666666666667</ele><time>2026-04-05T12:07:49.103Z</time></trkpt><trkpt lat="43.492295" lon="11.10763"><ele>83.33333333333334</ele><time>2026-04-05T12:07:50.104Z</time></trkpt><trkpt lat="43.492175" lon="11.1078"><ele>83.0</ele><time>2026-04-05T12:07:51.104Z</time></trkpt><trkpt lat="43.4920567" lon="11.1079683"><ele>83.0</ele><time>2026-04-05T12:07:52.104Z</time></trkpt><trkpt lat="43.4919367" lon="11.108135"><ele>83.0</ele><time>2026-04-05T12:07:53.103Z</time></trkpt><trkpt lat="43.4918167" lon="11.108305"><ele>83.0</ele><time>2026-04-05T12:07:54.104Z</time></trkpt><trkpt lat="43.491695" lon="11.1084767"><ele>83.0</ele><time>2026-04-05T12:07:55.104Z</time></trkpt><trkpt lat="43.4915683" lon="11.1086433"><ele>83.0</ele><time>2026-04-05T12:07:56.104Z</time></trkpt><trkpt lat="43.49144" lon="11.108805"><ele>83.0</ele><time>2026-04-05T12:07:57.104Z</time></trkpt><trkpt lat="43.4913067" lon="11.1089617"><ele>87.0</ele><time>2026-04-05T12:07:58.104Z</time></trkpt><trkpt lat="43.4908933" lon="11.1094217"><ele>87.0</ele><time>2026-04-05T12:08:01.104Z</time></trkpt><trkpt lat="43.4907533" lon="11.10957"><ele>87.0</ele><time>2026-04-05T12:08:02.103Z</time></trkpt><trkpt lat="43.4906117" lon="11.109725"><ele>87.0</ele><time>2026-04-05T12:08:03.104Z</time></trkpt><trkpt lat="43.49047" lon="11.10988"><ele>86.66666666666667</ele><time>2026-04-05T12:08:04.104Z</time></trkpt><trkpt lat="43.4903267" lon="11.1100333"><ele>86.33333333333334</ele><time>2026-04-05T12:08:05.104Z</time></trkpt><trkpt lat="43.49018" lon="11.110185"><ele>86.0</ele><time>2026-04-05T12:08:06.104Z</time></trkpt><trkpt lat="43.4900317" lon="11.110335"><ele>86.0</ele><time>2026-04-05T12:08:07.104Z</time></trkpt><trkpt lat="43.4898817" lon="11.1104833"><ele>86.0</ele><time>2026-04-05T12:08:08.104Z</time></trkpt><trkpt lat="43.4897333" lon="11.1106317"><ele>86.0</ele><time>2026-04-05T12:08:09.104Z</time></trkpt><trkpt lat="43.4895867" lon="11.1107767"><ele>86.66666666666667</ele><time>2026-04-05T12:08:10.104Z</time></trkpt><trkpt lat="43.4894417" lon="11.110925"><ele>87.33333333333333</ele><time>2026-04-05T12:08:11.103Z</time></trkpt><trkpt lat="43.4892967" lon="11.11107"><ele>88.0</ele><time>2026-04-05T12:08:12.104Z</time></trkpt><trkpt lat="43.4891517" lon="11.1112183"><ele>88.0</ele><time>2026-04-05T12:08:13.104Z</time></trkpt><trkpt lat="43.4890083" lon="11.1113683"><ele>88.0</ele><time>2026-04-05T12:08:14.104Z</time></trkpt><trkpt lat="43.488865" lon="11.1115167"><ele>88.0</ele><time>2026-04-05T12:08:15.104Z</time></trkpt><trkpt lat="43.4887217" lon="11.1116683"><ele>88.0</ele><time>2026-04-05T12:08:16.104Z</time></trkpt><trkpt lat="43.4885783" lon="11.1118167"><ele>88.0</ele><time>2026-04-05T12:08:17.104Z</time></trkpt><trkpt lat="43.488435" lon="11.1119633"><ele>88.0</ele><time>2026-04-05T12:08:18.104Z</time></trkpt><trkpt lat="43.4882933" lon="11.1121117"><ele>88.0</ele><time>2026-04-05T12:08:19.104Z</time></trkpt><trkpt lat="43.48815" lon="11.1122617"><ele>88.0</ele><time>2026-04-05T12:08:20.104Z</time></trkpt><trkpt lat="43.4880083" lon="11.112415"><ele>88.0</ele><time>2026-04-05T12:08:21.104Z</time></trkpt><trkpt lat="43.4878683" lon="11.112575"><ele>87.66666666666666</ele><time>2026-04-05T12:08:22.104Z</time></trkpt><trkpt lat="43.48773" lon="11.1127383"><ele>87.33333333333333</ele><time>2026-04-05T12:08:23.103Z</time></trkpt><trkpt lat="43.4875983" lon="11.1129083"><ele>87.0</ele><time>2026-04-05T12:08:24.104Z</time></trkpt><trkpt lat="43.4874717" lon="11.113085"><ele>86.66666666666667</ele><time>2026-04-05T12:08:25.104Z</time></trkpt><trkpt lat="43.4873483" lon="11.1132633"><ele>86.33333333333334</ele><time>2026-04-05T12:08:26.104Z</time></trkpt><trkpt lat="43.4872317" lon="11.1134467"><ele>86.0</ele><time>2026-04-05T12:08:27.104Z</time></trkpt><trkpt lat="43.4871183" lon="11.1136367"><ele>86.33333333333334</ele><time>2026-04-05T12:08:28.104Z</time></trkpt><trkpt lat="43.4870083" lon="11.113835"><ele>86.66666666666667</ele><time>2026-04-05T12:08:29.104Z</time></trkpt><trkpt lat="43.4869033" lon="11.114035"><ele>87.0</ele><time>2026-04-05T12:08:30.104Z</time></trkpt><trkpt lat="43.4868033" lon="11.1142417"><ele>85.66666666666667</ele><time>2026-04-05T12:08:31.104Z</time></trkpt><trkpt lat="43.486705" lon="11.1144517"><ele>84.33333333333334</ele><time>2026-04-05T12:08:32.104Z</time></trkpt><trkpt lat="43.4866133" lon="11.1146667"><ele>83.0</ele><time>2026-04-05T12:08:33.103Z</time></trkpt><trkpt lat="43.486525" lon="11.1148867"><ele>83.33333333333334</ele><time>2026-04-05T12:08:34.104Z</time></trkpt><trkpt lat="43.48644" lon="11.11511"><ele>83.66666666666667</ele><time>2026-04-05T12:08:35.103Z</time></trkpt><trkpt lat="43.4863583" lon="11.115335"><ele>84.0</ele><time>2026-04-05T12:08:36.104Z</time></trkpt><trkpt lat="43.4862767" lon="11.11556"><ele>84.66666666666667</ele><time>2026-04-05T12:08:37.104Z</time></trkpt><trkpt lat="43.486195" lon="11.1157833"><ele>85.33333333333334</ele><time>2026-04-05T12:08:38.104Z</time></trkpt><trkpt lat="43.4861133" lon="11.11601"><ele>86.0</ele><time>2026-04-05T12:08:39.104Z</time></trkpt><trkpt lat="43.4860367" lon="11.1162367"><ele>86.0</ele><time>2026-04-05T12:08:40.104Z</time></trkpt><trkpt lat="43.4859567" lon="11.1164617"><ele>86.0</ele><time>2026-04-05T12:08:41.104Z</time></trkpt><trkpt lat="43.48588" lon="11.116685"><ele>86.0</ele><time>2026-04-05T12:08:42.104Z</time></trkpt><trkpt lat="43.4858017" lon="11.1169083"><ele>84.66666666666667</ele><time>2026-04-05T12:08:43.104Z</time></trkpt><trkpt lat="43.4857183" lon="11.11713"><ele>83.33333333333333</ele><time>2026-04-05T12:08:44.104Z</time></trkpt><trkpt lat="43.485635" lon="11.117345"><ele>82.0</ele><time>2026-04-05T12:08:45.104Z</time></trkpt><trkpt lat="43.485545" lon="11.1175583"><ele>82.0</ele><time>2026-04-05T12:08:46.104Z</time></trkpt><trkpt lat="43.4854517" lon="11.1177683"><ele>82.0</ele><time>2026-04-05T12:08:47.103Z</time></trkpt><trkpt lat="43.4853567" lon="11.117975"><ele>82.0</ele><time>2026-04-05T12:08:48.104Z</time></trkpt><trkpt lat="43.4852567" lon="11.1181783"><ele>83.0</ele><time>2026-04-05T12:08:49.104Z</time></trkpt><trkpt lat="43.4851517" lon="11.1183783"><ele>84.0</ele><time>2026-04-05T12:08:50.104Z</time></trkpt><trkpt lat="43.48504" lon="11.1185717"><ele>85.0</ele><time>2026-04-05T12:08:51.104Z</time></trkpt><trkpt lat="43.4849267" lon="11.1187567"><ele>85.0</ele><time>2026-04-05T12:08:52.104Z</time></trkpt><trkpt lat="43.4848117" lon="11.11894"><ele>85.0</ele><time>2026-04-05T12:08:53.104Z</time></trkpt><trkpt lat="43.484695" lon="11.1191217"><ele>85.0</ele><time>2026-04-05T12:08:54.104Z</time></trkpt><trkpt lat="43.48458" lon="11.1193017"><ele>84.0</ele><time>2026-04-05T12:08:55.104Z</time></trkpt><trkpt lat="43.48446" lon="11.1194833"><ele>83.0</ele><time>2026-04-05T12:08:56.103Z</time></trkpt><trkpt lat="43.48434" lon="11.119665"><ele>82.0</ele><time>2026-04-05T12:08:57.104Z</time></trkpt><trkpt lat="43.48422" lon="11.1198483"><ele>83.0</ele><time>2026-04-05T12:08:58.104Z</time></trkpt><trkpt lat="43.4841" lon="11.12003"><ele>84.0</ele><time>2026-04-05T12:08:59.104Z</time></trkpt><trkpt lat="43.48398" lon="11.12021"><ele>85.0</ele><time>2026-04-05T12:09:00.104Z</time></trkpt><trkpt lat="43.4838583" lon="11.1203933"><ele>84.33333333333333</ele><time>2026-04-05T12:09:01.104Z</time></trkpt><trkpt lat="43.4837383" lon="11.1205767"><ele>83.66666666666667</ele><time>2026-04-05T12:09:02.103Z</time></trkpt><trkpt lat="43.483615" lon="11.12076"><ele>83.0</ele><time>2026-04-05T12:09:03.104Z</time></trkpt><trkpt lat="43.4834933" lon="11.1209483"><ele>83.0</ele><time>2026-04-05T12:09:04.104Z</time></trkpt><trkpt lat="43.4833767" lon="11.1211417"><ele>83.0</ele><time>2026-04-05T12:09:05.103Z</time></trkpt><trkpt lat="43.4832617" lon="11.12134"><ele>83.0</ele><time>2026-04-05T12:09:06.104Z</time></trkpt><trkpt lat="43.4831533" lon="11.1215467"><ele>83.33333333333334</ele><time>2026-04-05T12:09:07.104Z</time></trkpt><trkpt lat="43.48305" lon="11.121755"><ele>83.66666666666667</ele><time>2026-04-05T12:09:08.104Z</time></trkpt><trkpt lat="43.48295" lon="11.1219717"><ele>84.0</ele><time>2026-04-05T12:09:09.104Z</time></trkpt><trkpt lat="43.4828567" lon="11.1221917"><ele>84.0</ele><time>2026-04-05T12:09:10.104Z</time></trkpt><trkpt lat="43.4827683" lon="11.1224167"><ele>84.0</ele><time>2026-04-05T12:09:11.104Z</time></trkpt><trkpt lat="43.4826867" lon="11.1226467"><ele>84.0</ele><time>2026-04-05T12:09:12.104Z</time></trkpt><trkpt lat="43.4826117" lon="11.1228817"><ele>84.0</ele><time>2026-04-05T12:09:13.104Z</time></trkpt><trkpt lat="43.4825433" lon="11.1231183"><ele>84.0</ele><time>2026-04-05T12:09:14.104Z</time></trkpt><trkpt lat="43.48248" lon="11.123355"><ele>84.0</ele><time>2026-04-05T12:09:15.104Z</time></trkpt><trkpt lat="43.482425" lon="11.123595"><ele>84.33333333333333</ele><time>2026-04-05T12:09:16.104Z</time></trkpt><trkpt lat="43.4823817" lon="11.123835"><ele>84.66666666666666</ele><time>2026-04-05T12:09:17.104Z</time></trkpt><trkpt lat="43.4823467" lon="11.124075"><ele>85.0</ele><time>2026-04-05T12:09:18.104Z</time></trkpt><trkpt lat="43.48232" lon="11.1243167"><ele>85.33333333333333</ele><time>2026-04-05T12:09:19.104Z</time></trkpt><trkpt lat="43.4823" lon="11.1245633"><ele>85.66666666666667</ele><time>2026-04-05T12:09:20.104Z</time></trkpt><trkpt lat="43.4822833" lon="11.12481"><ele>86.0</ele><time>2026-04-05T12:09:21.104Z</time></trkpt><trkpt lat="43.4822683" lon="11.1250533"><ele>86.0</ele><time>2026-04-05T12:09:22.104Z</time></trkpt><trkpt lat="43.4822567" lon="11.1252967"><ele>86.0</ele><time>2026-04-05T12:09:23.104Z</time></trkpt><trkpt lat="43.48225" lon="11.12554"><ele>86.0</ele><time>2026-04-05T12:09:24.104Z</time></trkpt><trkpt lat="43.4822417" lon="11.1257817"><ele>86.0</ele><time>2026-04-05T12:09:25.104Z</time></trkpt><trkpt lat="43.4822383" lon="11.12602"><ele>86.0</ele><time>2026-04-05T12:09:26.104Z</time></trkpt><trkpt lat="43.482235" lon="11.12626"><ele>86.0</ele><time>2026-04-05T12:09:27.104Z</time></trkpt><trkpt lat="43.4822333" lon="11.1265"><ele>86.0</ele><time>2026-04-05T12:09:28.104Z</time></trkpt><trkpt lat="43.482235" lon="11.12674"><ele>86.0</ele><time>2026-04-05T12:09:29.103Z</time></trkpt><trkpt lat="43.4822367" lon="11.126975"><ele>86.0</ele><time>2026-04-05T12:09:30.104Z</time></trkpt><trkpt lat="43.4822367" lon="11.1272117"><ele>85.66666666666667</ele><time>2026-04-05T12:09:31.104Z</time></trkpt><trkpt lat="43.4822383" lon="11.12745"><ele>85.33333333333333</ele><time>2026-04-05T12:09:32.104Z</time></trkpt><trkpt lat="43.4822383" lon="11.1276867"><ele>85.0</ele><time>2026-04-05T12:09:33.104Z</time></trkpt><trkpt lat="43.4822433" lon="11.1279233"><ele>85.0</ele><time>2026-04-05T12:09:34.104Z</time></trkpt><trkpt lat="43.4822517" lon="11.1281583"><ele>85.0</ele><time>2026-04-05T12:09:35.104Z</time></trkpt><trkpt lat="43.4822617" lon="11.128395"><ele>85.0</ele><time>2026-04-05T12:09:36.104Z</time></trkpt><trkpt lat="43.4822717" lon="11.1286317"><ele>84.66666666666666</ele><time>2026-04-05T12:09:37.104Z</time></trkpt><trkpt lat="43.482285" lon="11.1288683"><ele>84.33333333333333</ele><time>2026-04-05T12:09:38.104Z</time></trkpt><trkpt lat="43.4822967" lon="11.1291067"><ele>84.0</ele><time>2026-04-05T12:09:39.104Z</time></trkpt><trkpt lat="43.48231" lon="11.1293417"><ele>85.0</ele><time>2026-04-05T12:09:40.104Z</time></trkpt><trkpt lat="43.4823233" lon="11.129575"><ele>86.0</ele><time>2026-04-05T12:09:41.104Z</time></trkpt><trkpt lat="43.48234" lon="11.129805"><ele>87.0</ele><time>2026-04-05T12:09:42.103Z</time></trkpt><trkpt lat="43.4823533" lon="11.130035"><ele>88.0</ele><time>2026-04-05T12:09:43.103Z</time></trkpt><trkpt lat="43.4823667" lon="11.130265"><ele>89.0</ele><time>2026-04-05T12:09:44.103Z</time></trkpt><trkpt lat="43.48238" lon="11.130495"><ele>90.0</ele><time>2026-04-05T12:09:45.103Z</time></trkpt><trkpt lat="43.4823933" lon="11.1307267"><ele>92.0</ele><time>2026-04-05T12:09:46.103Z</time></trkpt><trkpt lat="43.4824067" lon="11.1309583"><ele>94.0</ele><time>2026-04-05T12:09:47.103Z</time></trkpt><trkpt lat="43.4824183" lon="11.1311883"><ele>96.0</ele><time>2026-04-05T12:09:48.103Z</time></trkpt><trkpt lat="43.4824333" lon="11.1314167"><ele>96.66666666666666</ele><time>2026-04-05T12:09:49.103Z</time></trkpt><trkpt lat="43.4824467" lon="11.1316483"><ele>97.33333333333333</ele><time>2026-04-05T12:09:50.103Z</time></trkpt><trkpt lat="43.4824617" lon="11.1318767"><ele>98.0</ele><time>2026-04-05T12:09:51.103Z</time></trkpt><trkpt lat="43.4824767" lon="11.132105"><ele>98.0</ele><time>2026-04-05T12:09:52.103Z</time></trkpt><trkpt lat="43.48249" lon="11.132335"><ele>98.0</ele><time>2026-04-05T12:09:53.103Z</time></trkpt><trkpt lat="43.482505" lon="11.1325617"><ele>98.0</ele><time>2026-04-05T12:09:54.103Z</time></trkpt><trkpt lat="43.4825167" lon="11.13279"><ele>98.66666666666666</ele><time>2026-04-05T12:09:55.103Z</time></trkpt><trkpt lat="43.4825333" lon="11.1330183"><ele>99.33333333333334</ele><time>2026-04-05T12:09:56.103Z</time></trkpt><trkpt lat="43.48255" lon="11.1332483"><ele>100.0</ele><time>2026-04-05T12:09:57.103Z</time></trkpt><trkpt lat="43.482565" lon="11.13348"><ele>100.66666666666667</ele><time>2026-04-05T12:09:58.103Z</time></trkpt><trkpt lat="43.4825733" lon="11.1337133"><ele>101.33333333333334</ele><time>2026-04-05T12:09:59.103Z</time></trkpt><trkpt lat="43.482585" lon="11.133945"><ele>102.0</ele><time>2026-04-05T12:10:00.102Z</time></trkpt><trkpt lat="43.4825983" lon="11.1341767"><ele>102.66666666666666</ele><time>2026-04-05T12:10:01.102Z</time></trkpt><trkpt lat="43.4826133" lon="11.1344083"><ele>103.33333333333333</ele><time>2026-04-05T12:10:02.103Z</time></trkpt><trkpt lat="43.482625" lon="11.1346417"><ele>104.0</ele><time>2026-04-05T12:10:03.103Z</time></trkpt><trkpt lat="43.482635" lon="11.1348733"><ele>104.0</ele><time>2026-04-05T12:10:04.103Z</time></trkpt><trkpt lat="43.4826483" lon="11.135105"><ele>104.0</ele><time>2026-04-05T12:10:05.103Z</time></trkpt><trkpt lat="43.4826667" lon="11.1353367"><ele>104.0</ele><time>2026-04-05T12:10:06.103Z</time></trkpt><trkpt lat="43.4826833" lon="11.1355683"><ele>104.0</ele><time>2026-04-05T12:10:07.103Z</time></trkpt><trkpt lat="43.4826983" lon="11.1358017"><ele>104.0</ele><time>2026-04-05T12:10:08.103Z</time></trkpt><trkpt lat="43.4827117" lon="11.1360333"><ele>104.0</ele><time>2026-04-05T12:10:09.103Z</time></trkpt><trkpt lat="43.482725" lon="11.1362667"><ele>104.0</ele><time>2026-04-05T12:10:10.103Z</time></trkpt><trkpt lat="43.4827383" lon="11.1365"><ele>104.0</ele><time>2026-04-05T12:10:11.103Z</time></trkpt><trkpt lat="43.4827517" lon="11.13673"><ele>104.0</ele><time>2026-04-05T12:10:12.103Z</time></trkpt><trkpt lat="43.48277" lon="11.1369617"><ele>104.0</ele><time>2026-04-05T12:10:13.102Z</time></trkpt><trkpt lat="43.4827883" lon="11.1371967"><ele>104.0</ele><time>2026-04-05T12:10:14.103Z</time></trkpt><trkpt lat="43.482805" lon="11.137435"><ele>104.0</ele><time>2026-04-05T12:10:15.103Z</time></trkpt><trkpt lat="43.4828233" lon="11.1376733"><ele>103.66666666666666</ele><time>2026-04-05T12:10:16.103Z</time></trkpt><trkpt lat="43.482835" lon="11.1379117"><ele>103.33333333333334</ele><time>2026-04-05T12:10:17.103Z</time></trkpt><trkpt lat="43.48285" lon="11.13815"><ele>103.0</ele><time>2026-04-05T12:10:18.103Z</time></trkpt><trkpt lat="43.482865" lon="11.1383883"><ele>102.66666666666667</ele><time>2026-04-05T12:10:19.103Z</time></trkpt><trkpt lat="43.4828833" lon="11.1386267"><ele>102.33333333333334</ele><time>2026-04-05T12:10:20.103Z</time></trkpt><trkpt lat="43.482905" lon="11.1388633"><ele>102.0</ele><time>2026-04-05T12:10:21.103Z</time></trkpt><trkpt lat="43.482925" lon="11.1391033"><ele>103.0</ele><time>2026-04-05T12:10:22.103Z</time></trkpt><trkpt lat="43.4829433" lon="11.139345"><ele>104.0</ele><time>2026-04-05T12:10:23.103Z</time></trkpt><trkpt lat="43.4829683" lon="11.1395883"><ele>105.0</ele><time>2026-04-05T12:10:24.103Z</time></trkpt><trkpt lat="43.4829983" lon="11.1398283"><ele>105.0</ele><time>2026-04-05T12:10:25.103Z</time></trkpt><trkpt lat="43.4830367" lon="11.140065"><ele>105.0</ele><time>2026-04-05T12:10:26.103Z</time></trkpt><trkpt lat="43.4830817" lon="11.1402983"><ele>105.0</ele><time>2026-04-05T12:10:27.103Z</time></trkpt><trkpt lat="43.4831317" lon="11.1405283"><ele>104.33333333333334</ele><time>2026-04-05T12:10:28.102Z</time></trkpt><trkpt lat="43.4831867" lon="11.1407583"><ele>103.66666666666667</ele><time>2026-04-05T12:10:29.102Z</time></trkpt><trkpt lat="43.4832483" lon="11.140985"><ele>103.0</ele><time>2026-04-05T12:10:30.103Z</time></trkpt><trkpt lat="43.4833133" lon="11.1412067"><ele>103.0</ele><time>2026-04-05T12:10:31.103Z</time></trkpt><trkpt lat="43.483385" lon="11.14143"><ele>103.0</ele><time>2026-04-05T12:10:32.103Z</time></trkpt><trkpt lat="43.4834617" lon="11.1416483"><ele>103.0</ele><time>2026-04-05T12:10:33.103Z</time></trkpt><trkpt lat="43.483545" lon="11.1418633"><ele>102.66666666666667</ele><time>2026-04-05T12:10:34.103Z</time></trkpt><trkpt lat="43.4836283" lon="11.142075"><ele>102.33333333333334</ele><time>2026-04-05T12:10:35.103Z</time></trkpt><trkpt lat="43.48372" lon="11.1422817"><ele>102.0</ele><time>2026-04-05T12:10:36.103Z</time></trkpt><trkpt lat="43.483815" lon="11.1424833"><ele>102.66666666666666</ele><time>2026-04-05T12:10:37.103Z</time></trkpt><trkpt lat="43.4839133" lon="11.1426817"><ele>103.33333333333333</ele><time>2026-04-05T12:10:38.103Z</time></trkpt><trkpt lat="43.4840133" lon="11.1428783"><ele>104.0</ele><time>2026-04-05T12:10:39.103Z</time></trkpt><trkpt lat="43.4841183" lon="11.143075"><ele>103.33333333333333</ele><time>2026-04-05T12:10:40.103Z</time></trkpt><trkpt lat="43.484225" lon="11.14327"><ele>102.66666666666666</ele><time>2026-04-05T12:10:41.103Z</time></trkpt><trkpt lat="43.4843317" lon="11.14346"><ele>102.0</ele><time>2026-04-05T12:10:42.103Z</time></trkpt><trkpt lat="43.4844383" lon="11.1436533"><ele>102.0</ele><time>2026-04-05T12:10:43.103Z</time></trkpt><trkpt lat="43.484545" lon="11.1438467"><ele>102.0</ele><time>2026-04-05T12:10:44.103Z</time></trkpt><trkpt lat="43.4846517" lon="11.144035"><ele>102.0</ele><time>2026-04-05T12:10:45.103Z</time></trkpt><trkpt lat="43.4847567" lon="11.1442217"><ele>102.66666666666666</ele><time>2026-04-05T12:10:46.102Z</time></trkpt><trkpt lat="43.48486" lon="11.14441"><ele>103.33333333333333</ele><time>2026-04-05T12:10:47.103Z</time></trkpt><trkpt lat="43.4849667" lon="11.1446"><ele>104.0</ele><time>2026-04-05T12:10:48.103Z</time></trkpt><trkpt lat="43.4850683" lon="11.1447933"><ele>103.66666666666666</ele><time>2026-04-05T12:10:49.103Z</time></trkpt><trkpt lat="43.4851733" lon="11.1449867"><ele>103.33333333333334</ele><time>2026-04-05T12:10:50.103Z</time></trkpt><trkpt lat="43.4852767" lon="11.1451783"><ele>103.0</ele><time>2026-04-05T12:10:51.103Z</time></trkpt><trkpt lat="43.4853833" lon="11.14537"><ele>103.66666666666667</ele><time>2026-04-05T12:10:52.102Z</time></trkpt><trkpt lat="43.4854883" lon="11.1455633"><ele>104.33333333333334</ele><time>2026-04-05T12:10:53.103Z</time></trkpt><trkpt lat="43.4855917" lon="11.1457533"><ele>105.0</ele><time>2026-04-05T12:10:54.103Z</time></trkpt><trkpt lat="43.4856983" lon="11.145945"><ele>105.33333333333334</ele><time>2026-04-05T12:10:55.103Z</time></trkpt><trkpt lat="43.4858017" lon="11.1461383"><ele>105.66666666666667</ele><time>2026-04-05T12:10:56.103Z</time></trkpt><trkpt lat="43.4859" lon="11.1463367"><ele>106.0</ele><time>2026-04-05T12:10:57.103Z</time></trkpt><trkpt lat="43.4859933" lon="11.1465467"><ele>106.0</ele><time>2026-04-05T12:10:58.103Z</time></trkpt><trkpt lat="43.4860817" lon="11.14676"><ele>106.0</ele><time>2026-04-05T12:10:59.103Z</time></trkpt><trkpt lat="43.48616" lon="11.1469767"><ele>106.0</ele><time>2026-04-05T12:11:00.103Z</time></trkpt><trkpt lat="43.48623" lon="11.1472017"><ele>105.66666666666667</ele><time>2026-04-05T12:11:01.103Z</time></trkpt><trkpt lat="43.4862933" lon="11.147425"><ele>105.33333333333334</ele><time>2026-04-05T12:11:02.103Z</time></trkpt><trkpt lat="43.48635" lon="11.1476533"><ele>105.0</ele><time>2026-04-05T12:11:03.103Z</time></trkpt><trkpt lat="43.4863967" lon="11.1478833"><ele>105.0</ele><time>2026-04-05T12:11:04.103Z</time></trkpt><trkpt lat="43.4864383" lon="11.1481117"><ele>105.0</ele><time>2026-04-05T12:11:05.103Z</time></trkpt><trkpt lat="43.4864683" lon="11.148345"><ele>105.0</ele><time>2026-04-05T12:11:06.103Z</time></trkpt><trkpt lat="43.4864867" lon="11.1485767"><ele>105.33333333333334</ele><time>2026-04-05T12:11:07.103Z</time></trkpt><trkpt lat="43.4864983" lon="11.148795"><ele>105.66666666666667</ele><time>2026-04-05T12:11:08.103Z</time></trkpt><trkpt lat="43.4865" lon="11.1490067"><ele>106.0</ele><time>2026-04-05T12:11:09.103Z</time></trkpt><trkpt lat="43.4865" lon="11.149205"><ele>106.25</ele><time>2026-04-05T12:11:10.103Z</time></trkpt><trkpt lat="43.4864933" lon="11.1493867"><ele>106.5</ele><time>2026-04-05T12:11:11.103Z</time></trkpt><trkpt lat="43.4864767" lon="11.1495517"><ele>106.75</ele><time>2026-04-05T12:11:12.103Z</time></trkpt><trkpt lat="43.486445" lon="11.1497"><ele>107.0</ele><time>2026-04-05T12:11:13.103Z</time></trkpt><trkpt lat="43.486405" lon="11.1498317"><ele>106.99999999999999</ele><time>2026-04-05T12:11:14.103Z</time></trkpt><trkpt lat="43.4863617" lon="11.1499383"><ele>107.0</ele><time>2026-04-05T12:11:15.103Z</time></trkpt><trkpt lat="43.48631" lon="11.1500267"><ele>107.0</ele><time>2026-04-05T12:11:16.103Z</time></trkpt><trkpt lat="43.4862517" lon="11.1501133"><ele>107.0</ele><time>2026-04-05T12:11:17.103Z</time></trkpt><trkpt lat="43.4861917" lon="11.1502033"><ele>106.99999999999999</ele><time>2026-04-05T12:11:18.103Z</time></trkpt><trkpt lat="43.4861367" lon="11.1503083"><ele>107.0</ele><time>2026-04-05T12:11:19.103Z</time></trkpt><trkpt lat="43.4861017" lon="11.1504267"><ele>107.0</ele><time>2026-04-05T12:11:20.103Z</time></trkpt><trkpt lat="43.4860883" lon="11.1505567"><ele>106.99999999999999</ele><time>2026-04-05T12:11:21.103Z</time></trkpt><trkpt lat="43.4860933" lon="11.1506833"><ele>106.99999999999999</ele><time>2026-04-05T12:11:22.103Z</time></trkpt><trkpt lat="43.48611" lon="11.1508117"><ele>107.0</ele><time>2026-04-05T12:11:23.103Z</time></trkpt><trkpt lat="43.48613" lon="11.15095"><ele>107.0</ele><time>2026-04-05T12:11:24.102Z</time></trkpt><trkpt lat="43.486145" lon="11.1511"><ele>107.0</ele><time>2026-04-05T12:11:25.103Z</time></trkpt><trkpt lat="43.486155" lon="11.1512533"><ele>106.99999999999999</ele><time>2026-04-05T12:11:26.103Z</time></trkpt><trkpt lat="43.4861483" lon="11.1514067"><ele>106.99999999999999</ele><time>2026-04-05T12:11:27.103Z</time></trkpt><trkpt lat="43.4861233" lon="11.1515517"><ele>107.0</ele><time>2026-04-05T12:11:28.103Z</time></trkpt><trkpt lat="43.4860833" lon="11.1516717"><ele>107.0</ele><time>2026-04-05T12:11:29.103Z</time></trkpt><trkpt lat="43.4860467" lon="11.1517633"><ele>106.99999999999999</ele><time>2026-04-05T12:11:30.103Z</time></trkpt><trkpt lat="43.4859867" lon="11.151865"><ele>107.0</ele><time>2026-04-05T12:11:32.103Z</time></trkpt><trkpt lat="43.4859217" lon="11.151985"><ele>107.0</ele><time>2026-04-05T12:12:18.103Z</time></trkpt><trkpt lat="43.48587" lon="11.15205"><ele>107.0</ele><time>2026-04-05T12:12:19.103Z</time></trkpt><trkpt lat="43.48581" lon="11.1521217"><ele>106.99999999999999</ele><time>2026-04-05T12:12:20.103Z</time></trkpt><trkpt lat="43.4857383" lon="11.152195"><ele>107.0</ele><time>2026-04-05T12:12:21.103Z</time></trkpt><trkpt lat="43.48566" lon="11.1522617"><ele>107.0</ele><time>2026-04-05T12:12:22.103Z</time></trkpt><trkpt lat="43.4855733" lon="11.1523233"><ele>106.99999999999999</ele><time>2026-04-05T12:12:23.103Z</time></trkpt><trkpt lat="43.48547" lon="11.152375"><ele>106.99999999999999</ele><time>2026-04-05T12:12:24.103Z</time></trkpt><trkpt lat="43.485365" lon="11.1524133"><ele>107.0</ele><time>2026-04-05T12:12:25.103Z</time></trkpt><trkpt lat="43.485255" lon="11.152435"><ele>107.0</ele><time>2026-04-05T12:12:26.103Z</time></trkpt><trkpt lat="43.485135" lon="11.1524317"><ele>107.0</ele><time>2026-04-05T12:12:27.103Z</time></trkpt><trkpt lat="43.4850133" lon="11.15241"><ele>107.0</ele><time>2026-04-05T12:12:28.103Z</time></trkpt><trkpt lat="43.4849017" lon="11.1523617"><ele>107.0</ele><time>2026-04-05T12:12:29.103Z</time></trkpt><trkpt lat="43.48479" lon="11.152295"><ele>107.0</ele><time>2026-04-05T12:12:30.103Z</time></trkpt><trkpt lat="43.484675" lon="11.1522133"><ele>108.0</ele><time>2026-04-05T12:12:31.103Z</time></trkpt><trkpt lat="43.48456" lon="11.1521167"><ele>109.0</ele><time>2026-04-05T12:12:32.103Z</time></trkpt><trkpt lat="43.4844367" lon="11.1520133"><ele>110.0</ele><time>2026-04-05T12:12:33.103Z</time></trkpt><trkpt lat="43.4843083" lon="11.1518983"><ele>111.0</ele><time>2026-04-05T12:12:34.103Z</time></trkpt><trkpt lat="43.4841833" lon="11.1517817"><ele>111.0</ele><time>2026-04-05T12:12:35.103Z</time></trkpt><trkpt lat="43.4840583" lon="11.15166"><ele>111.0</ele><time>2026-04-05T12:12:36.103Z</time></trkpt><trkpt lat="43.4839317" lon="11.1515383"><ele>111.0</ele><time>2026-04-05T12:12:37.103Z</time></trkpt><trkpt lat="43.4838033" lon="11.1514167"><ele>113.66666666666666</ele><time>2026-04-05T12:12:38.103Z</time></trkpt><trkpt lat="43.4836717" lon="11.151295"><ele>116.33333333333333</ele><time>2026-04-05T12:12:39.103Z</time></trkpt><trkpt lat="43.4835383" lon="11.1511767"><ele>119.0</ele><time>2026-04-05T12:12:40.103Z</time></trkpt><trkpt lat="43.4834033" lon="11.15105"><ele>119.0</ele><time>2026-04-05T12:12:41.102Z</time></trkpt><trkpt lat="43.4832633" lon="11.1509167"><ele>119.0</ele><time>2026-04-05T12:12:42.103Z</time></trkpt><trkpt lat="43.48312" lon="11.1507883"><ele>119.0</ele><time>2026-04-05T12:12:43.102Z</time></trkpt><trkpt lat="43.482975" lon="11.150665"><ele>120.0</ele><time>2026-04-05T12:12:44.103Z</time></trkpt><trkpt lat="43.4828267" lon="11.15055"><ele>121.0</ele><time>2026-04-05T12:12:45.103Z</time></trkpt><trkpt lat="43.4826767" lon="11.150435"><ele>122.0</ele><time>2026-04-05T12:12:46.103Z</time></trkpt><trkpt lat="43.4825217" lon="11.1503267"><ele>122.0</ele><time>2026-04-05T12:12:47.103Z</time></trkpt><trkpt lat="43.4823617" lon="11.150225"><ele>122.0</ele><time>2026-04-05T12:12:48.103Z</time></trkpt><trkpt lat="43.4821917" lon="11.1501317"><ele>122.0</ele><time>2026-04-05T12:12:49.103Z</time></trkpt><trkpt lat="43.4820117" lon="11.1500483"><ele>122.66666666666666</ele><time>2026-04-05T12:12:50.103Z</time></trkpt><trkpt lat="43.4818217" lon="11.1499717"><ele>123.33333333333334</ele><time>2026-04-05T12:12:51.103Z</time></trkpt><trkpt lat="43.4816233" lon="11.1499017"><ele>124.0</ele><time>2026-04-05T12:12:52.103Z</time></trkpt><trkpt lat="43.48142" lon="11.149845"><ele>125.0</ele><time>2026-04-05T12:12:53.103Z</time></trkpt><trkpt lat="43.48121" lon="11.1498017"><ele>126.0</ele><time>2026-04-05T12:12:54.102Z</time></trkpt><trkpt lat="43.4809967" lon="11.1497717"><ele>127.0</ele><time>2026-04-05T12:12:55.103Z</time></trkpt><trkpt lat="43.480785" lon="11.14975"><ele>127.0</ele><time>2026-04-05T12:12:56.103Z</time></trkpt><trkpt lat="43.4805717" lon="11.1497467"><ele>127.0</ele><time>2026-04-05T12:12:57.103Z</time></trkpt><trkpt lat="43.480355" lon="11.1497533"><ele>127.0</ele><time>2026-04-05T12:12:58.103Z</time></trkpt><trkpt lat="43.4801467" lon="11.14977"><ele>124.66666666666667</ele><time>2026-04-05T12:12:59.103Z</time></trkpt><trkpt lat="43.4799367" lon="11.1498017"><ele>122.33333333333334</ele><time>2026-04-05T12:13:00.103Z</time></trkpt><trkpt lat="43.47973" lon="11.1498467"><ele>120.0</ele><time>2026-04-05T12:13:01.103Z</time></trkpt><trkpt lat="43.479525" lon="11.14991"><ele>120.0</ele><time>2026-04-05T12:13:02.103Z</time></trkpt><trkpt lat="43.4793233" lon="11.1499817"><ele>120.0</ele><time>2026-04-05T12:13:03.103Z</time></trkpt><trkpt lat="43.4791267" lon="11.1500683"><ele>120.0</ele><time>2026-04-05T12:13:04.103Z</time></trkpt><trkpt lat="43.4789333" lon="11.1501583"><ele>122.33333333333334</ele><time>2026-04-05T12:13:05.103Z</time></trkpt><trkpt lat="43.4787417" lon="11.1502567"><ele>124.66666666666667</ele><time>2026-04-05T12:13:06.103Z</time></trkpt><trkpt lat="43.4785533" lon="11.1503617"><ele>127.0</ele><time>2026-04-05T12:13:07.103Z</time></trkpt><trkpt lat="43.478365" lon="11.15047"><ele>127.0</ele><time>2026-04-05T12:13:08.103Z</time></trkpt><trkpt lat="43.4781733" lon="11.1505767"><ele>127.0</ele><time>2026-04-05T12:13:09.103Z</time></trkpt><trkpt lat="43.4779817" lon="11.1506817"><ele>127.0</ele><time>2026-04-05T12:13:10.103Z</time></trkpt><trkpt lat="43.47779" lon="11.150785"><ele>129.0</ele><time>2026-04-05T12:13:11.103Z</time></trkpt><trkpt lat="43.4775967" lon="11.15089"><ele>131.0</ele><time>2026-04-05T12:13:12.103Z</time></trkpt><trkpt lat="43.4774017" lon="11.1509983"><ele>133.0</ele><time>2026-04-05T12:13:13.103Z</time></trkpt><trkpt lat="43.4772083" lon="11.1511067"><ele>133.0</ele><time>2026-04-05T12:13:14.103Z</time></trkpt><trkpt lat="43.477015" lon="11.1512133"><ele>133.0</ele><time>2026-04-05T12:13:15.103Z</time></trkpt><trkpt lat="43.4768217" lon="11.151325"><ele>133.0</ele><time>2026-04-05T12:13:16.103Z</time></trkpt><trkpt lat="43.476625" lon="11.1514367"><ele>133.0</ele><time>2026-04-05T12:13:17.103Z</time></trkpt><trkpt lat="43.4764283" lon="11.151545"><ele>133.0</ele><time>2026-04-05T12:13:18.103Z</time></trkpt><trkpt lat="43.4762283" lon="11.1516467"><ele>133.0</ele><time>2026-04-05T12:13:19.103Z</time></trkpt><trkpt lat="43.4760267" lon="11.151735"><ele>130.0</ele><time>2026-04-05T12:13:20.103Z</time></trkpt><trkpt lat="43.4758167" lon="11.151815"><ele>127.0</ele><time>2026-04-05T12:13:21.103Z</time></trkpt><trkpt lat="43.4756067" lon="11.1518867"><ele>124.0</ele><time>2026-04-05T12:13:22.103Z</time></trkpt><trkpt lat="43.4754017" lon="11.1519417"><ele>122.0</ele><time>2026-04-05T12:13:23.103Z</time></trkpt><trkpt lat="43.475195" lon="11.1519883"><ele>120.0</ele><time>2026-04-05T12:13:24.103Z</time></trkpt><trkpt lat="43.4749883" lon="11.152035"><ele>118.0</ele><time>2026-04-05T12:13:25.103Z</time></trkpt><trkpt lat="43.4747833" lon="11.15209"><ele>114.0</ele><time>2026-04-05T12:13:26.103Z</time></trkpt><trkpt lat="43.4745833" lon="11.1521533"><ele>110.0</ele><time>2026-04-05T12:13:27.103Z</time></trkpt><trkpt lat="43.4743867" lon="11.1522333"><ele>106.0</ele><time>2026-04-05T12:13:28.103Z</time></trkpt><trkpt lat="43.4741883" lon="11.1523217"><ele>106.66666666666667</ele><time>2026-04-05T12:13:29.103Z</time></trkpt><trkpt lat="43.4739933" lon="11.1524117"><ele>107.33333333333334</ele><time>2026-04-05T12:13:30.103Z</time></trkpt><trkpt lat="43.4738033" lon="11.1525017"><ele>108.0</ele><time>2026-04-05T12:13:31.103Z</time></trkpt><trkpt lat="43.4736117" lon="11.1525917"><ele>108.0</ele><time>2026-04-05T12:13:32.103Z</time></trkpt><trkpt lat="43.47342" lon="11.1526833"><ele>108.0</ele><time>2026-04-05T12:13:33.102Z</time></trkpt><trkpt lat="43.4732333" lon="11.152775"><ele>108.0</ele><time>2026-04-05T12:13:34.103Z</time></trkpt><trkpt lat="43.473045" lon="11.152865"><ele>106.66666666666666</ele><time>2026-04-05T12:13:35.103Z</time></trkpt><trkpt lat="43.4728633" lon="11.1529517"><ele>105.33333333333333</ele><time>2026-04-05T12:13:36.103Z</time></trkpt><trkpt lat="43.4726817" lon="11.15304"><ele>104.0</ele><time>2026-04-05T12:13:37.103Z</time></trkpt><trkpt lat="43.4725" lon="11.1531233"><ele>104.66666666666666</ele><time>2026-04-05T12:13:38.103Z</time></trkpt><trkpt lat="43.47232" lon="11.1532067"><ele>105.33333333333334</ele><time>2026-04-05T12:13:39.103Z</time></trkpt><trkpt lat="43.47214" lon="11.15329"><ele>106.0</ele><time>2026-04-05T12:13:40.103Z</time></trkpt><trkpt lat="43.4719617" lon="11.1533733"><ele>106.0</ele><time>2026-04-05T12:13:41.103Z</time></trkpt><trkpt lat="43.471785" lon="11.1534583"><ele>106.0</ele><time>2026-04-05T12:13:42.103Z</time></trkpt><trkpt lat="43.4716083" lon="11.1535433"><ele>106.0</ele><time>2026-04-05T12:13:43.103Z</time></trkpt><trkpt lat="43.4714317" lon="11.1536317"><ele>104.66666666666667</ele><time>2026-04-05T12:13:44.103Z</time></trkpt><trkpt lat="43.4712617" lon="11.1537233"><ele>103.33333333333334</ele><time>2026-04-05T12:13:45.103Z</time></trkpt><trkpt lat="43.4710967" lon="11.1538183"><ele>102.0</ele><time>2026-04-05T12:13:46.103Z</time></trkpt><trkpt lat="43.4709333" lon="11.1539217"><ele>102.0</ele><time>2026-04-05T12:13:47.103Z</time></trkpt><trkpt lat="43.47077" lon="11.15403"><ele>102.0</ele><time>2026-04-05T12:13:48.103Z</time></trkpt><trkpt lat="43.4706067" lon="11.1541533"><ele>102.0</ele><time>2026-04-05T12:13:49.103Z</time></trkpt><trkpt lat="43.470445" lon="11.1542867"><ele>102.66666666666666</ele><time>2026-04-05T12:13:50.103Z</time></trkpt><trkpt lat="43.4702867" lon="11.1544267"><ele>103.33333333333333</ele><time>2026-04-05T12:13:51.103Z</time></trkpt><trkpt lat="43.4701267" lon="11.1545717"><ele>104.0</ele><time>2026-04-05T12:13:52.103Z</time></trkpt><trkpt lat="43.4699733" lon="11.154725"><ele>103.66666666666666</ele><time>2026-04-05T12:13:53.103Z</time></trkpt><trkpt lat="43.4698217" lon="11.1548833"><ele>103.33333333333334</ele><time>2026-04-05T12:13:54.103Z</time></trkpt><trkpt lat="43.4696733" lon="11.1550417"><ele>103.0</ele><time>2026-04-05T12:13:55.103Z</time></trkpt><trkpt lat="43.46953" lon="11.1552033"><ele>103.0</ele><time>2026-04-05T12:13:56.103Z</time></trkpt><trkpt lat="43.469395" lon="11.1553733"><ele>103.0</ele><time>2026-04-05T12:13:57.103Z</time></trkpt><trkpt lat="43.4692683" lon="11.1555367"><ele>103.0</ele><time>2026-04-05T12:13:58.103Z</time></trkpt><trkpt lat="43.46915" lon="11.155695"><ele>103.0</ele><time>2026-04-05T12:13:59.103Z</time></trkpt><trkpt lat="43.469035" lon="11.1558533"><ele>103.0</ele><time>2026-04-05T12:14:00.103Z</time></trkpt><trkpt lat="43.4689233" lon="11.1560117"><ele>103.0</ele><time>2026-04-05T12:14:01.103Z</time></trkpt><trkpt lat="43.4688267" lon="11.156165"><ele>103.0</ele><time>2026-04-05T12:14:02.103Z</time></trkpt><trkpt lat="43.4687367" lon="11.15632"><ele>103.0</ele><time>2026-04-05T12:14:03.103Z</time></trkpt><trkpt lat="43.468655" lon="11.1564733"><ele>103.0</ele><time>2026-04-05T12:14:04.103Z</time></trkpt><trkpt lat="43.4685783" lon="11.1566233"><ele>103.0</ele><time>2026-04-05T12:14:05.103Z</time></trkpt><trkpt lat="43.4685033" lon="11.15677"><ele>103.0</ele><time>2026-04-05T12:14:06.103Z</time></trkpt><trkpt lat="43.46843" lon="11.1569033"><ele>103.0</ele><time>2026-04-05T12:14:07.102Z</time></trkpt><trkpt lat="43.46835" lon="11.1570233"><ele>103.0</ele><time>2026-04-05T12:14:08.103Z</time></trkpt><trkpt lat="43.4682583" lon="11.1571267"><ele>103.0</ele><time>2026-04-05T12:14:09.103Z</time></trkpt><trkpt lat="43.4681567" lon="11.1572117"><ele>103.0</ele><time>2026-04-05T12:14:10.103Z</time></trkpt><trkpt lat="43.46805" lon="11.1572767"><ele>103.0</ele><time>2026-04-05T12:14:11.102Z</time></trkpt><trkpt lat="43.4679383" lon="11.1573167"><ele>103.0</ele><time>2026-04-05T12:14:12.102Z</time></trkpt><trkpt lat="43.467825" lon="11.1573233"><ele>103.0</ele><time>2026-04-05T12:14:13.103Z</time></trkpt><trkpt lat="43.46772" lon="11.15729"><ele>102.75</ele><time>2026-04-05T12:14:14.103Z</time></trkpt><trkpt lat="43.4676217" lon="11.1572267"><ele>102.5</ele><time>2026-04-05T12:14:15.103Z</time></trkpt><trkpt lat="43.4675233" lon="11.1571433"><ele>102.25</ele><time>2026-04-05T12:14:16.103Z</time></trkpt><trkpt lat="43.4674233" lon="11.1570517"><ele>102.0</ele><time>2026-04-05T12:14:17.103Z</time></trkpt><trkpt lat="43.46733" lon="11.1569567"><ele>102.0</ele><time>2026-04-05T12:14:18.103Z</time></trkpt><trkpt lat="43.4672367" lon="11.15685"><ele>102.0</ele><time>2026-04-05T12:14:19.103Z</time></trkpt><trkpt lat="43.4671583" lon="11.1567267"><ele>102.0</ele><time>2026-04-05T12:14:20.102Z</time></trkpt><trkpt lat="43.4671083" lon="11.1565917"><ele>102.0</ele><time>2026-04-05T12:14:21.102Z</time></trkpt><trkpt lat="43.4670833" lon="11.1564417"><ele>102.25</ele><time>2026-04-05T12:14:22.103Z</time></trkpt><trkpt lat="43.4670883" lon="11.1562933"><ele>102.5</ele><time>2026-04-05T12:14:23.103Z</time></trkpt><trkpt lat="43.467115" lon="11.156135"><ele>102.75</ele><time>2026-04-05T12:14:24.103Z</time></trkpt><trkpt lat="43.4671483" lon="11.1559733"><ele>103.0</ele><time>2026-04-05T12:14:25.103Z</time></trkpt><trkpt lat="43.467185" lon="11.1558083"><ele>102.5</ele><time>2026-04-05T12:14:26.103Z</time></trkpt><trkpt lat="43.467225" lon="11.15564"><ele>102.0</ele><time>2026-04-05T12:14:27.103Z</time></trkpt><trkpt lat="43.4672667" lon="11.1554733"><ele>101.5</ele><time>2026-04-05T12:14:28.103Z</time></trkpt><trkpt lat="43.46731" lon="11.15531"><ele>101.0</ele><time>2026-04-05T12:14:29.103Z</time></trkpt><trkpt lat="43.4673517" lon="11.1551467"><ele>101.0</ele><time>2026-04-05T12:14:30.103Z</time></trkpt><trkpt lat="43.4673917" lon="11.1549867"><ele>101.0</ele><time>2026-04-05T12:14:31.103Z</time></trkpt><trkpt lat="43.46743" lon="11.1548317"><ele>101.0</ele><time>2026-04-05T12:14:32.103Z</time></trkpt><trkpt lat="43.4674817" lon="11.1546833"><ele>101.0</ele><time>2026-04-05T12:14:33.103Z</time></trkpt><trkpt lat="43.467535" lon="11.1545467"><ele>101.0</ele><time>2026-04-05T12:14:34.103Z</time></trkpt><trkpt lat="43.467595" lon="11.1544267"><ele>101.0</ele><time>2026-04-05T12:14:35.103Z</time></trkpt><trkpt lat="43.4676633" lon="11.1543217"><ele>101.0</ele><time>2026-04-05T12:14:36.102Z</time></trkpt><trkpt lat="43.467735" lon="11.1542417"><ele>101.0</ele><time>2026-04-05T12:14:37.103Z</time></trkpt><trkpt lat="43.4678133" lon="11.15418"><ele>101.0</ele><time>2026-04-05T12:14:38.103Z</time></trkpt><trkpt lat="43.4678917" lon="11.1541317"><ele>100.99999999999999</ele><time>2026-04-05T12:14:39.103Z</time></trkpt><trkpt lat="43.467955" lon="11.1540767"><ele>101.0</ele><time>2026-04-05T12:14:40.102Z</time></trkpt><trkpt lat="43.4680033" lon="11.154"><ele>101.0</ele><time>2026-04-05T12:14:41.103Z</time></trkpt><trkpt lat="43.4680217" lon="11.1539167"><ele>101.0</ele><time>2026-04-05T12:14:42.103Z</time></trkpt><trkpt lat="43.4680033" lon="11.1537583"><ele>100.99999999999999</ele><time>2026-04-05T12:14:44.103Z</time></trkpt><trkpt lat="43.4679033" lon="11.153665"><ele>101.0</ele><time>2026-04-05T12:14:46.103Z</time></trkpt><trkpt lat="43.4678333" lon="11.1536117"><ele>100.99999999999999</ele><time>2026-04-05T12:14:47.102Z</time></trkpt><trkpt lat="43.4677617" lon="11.1535517"><ele>101.0</ele><time>2026-04-05T12:14:48.103Z</time></trkpt><trkpt lat="43.467695" lon="11.15348"><ele>101.0</ele><time>2026-04-05T12:14:49.104Z</time></trkpt><trkpt lat="43.46763" lon="11.1533983"><ele>101.0</ele><time>2026-04-05T12:14:50.103Z</time></trkpt><trkpt lat="43.4675767" lon="11.1533067"><ele>100.99999999999999</ele><time>2026-04-05T12:14:51.104Z</time></trkpt><trkpt lat="43.4675333" lon="11.153215"><ele>101.0</ele><time>2026-04-05T12:14:52.103Z</time></trkpt><trkpt lat="43.4674967" lon="11.153125"><ele>101.0</ele><time>2026-04-05T12:14:53.103Z</time></trkpt><trkpt lat="43.4674683" lon="11.15304"><ele>101.0</ele><time>2026-04-05T12:14:54.104Z</time></trkpt><trkpt lat="43.4674633" lon="11.1529483"><ele>101.0</ele><time>2026-04-05T12:14:55.104Z</time></trkpt><trkpt lat="43.4674717" lon="11.15286"><ele>101.0</ele><time>2026-04-05T12:14:56.104Z</time></trkpt><trkpt lat="43.46747" lon="11.152765"><ele>101.0</ele><time>2026-04-05T12:14:57.104Z</time></trkpt><trkpt lat="43.4674633" lon="11.1526717"><ele>101.0</ele><time>2026-04-05T12:14:58.104Z</time></trkpt><trkpt lat="43.46743" lon="11.1525917"><ele>101.0</ele><time>2026-04-05T12:14:59.104Z</time></trkpt><trkpt lat="43.46738" lon="11.15253"><ele>100.99999999999999</ele><time>2026-04-05T12:15:00.104Z</time></trkpt><trkpt lat="43.4672933" lon="11.152525"><ele>101.0</ele><time>2026-04-05T12:15:01.104Z</time></trkpt><trkpt lat="43.4672167" lon="11.152535"><ele>101.0</ele><time>2026-04-05T12:15:02.104Z</time></trkpt><trkpt lat="43.46714" lon="11.1525683"><ele>101.0</ele><time>2026-04-05T12:15:03.103Z</time></trkpt><trkpt lat="43.4670617" lon="11.1526367"><ele>100.99999999999999</ele><time>2026-04-05T12:15:04.104Z</time></trkpt><trkpt lat="43.4669867" lon="11.152725"><ele>101.0</ele><time>2026-04-05T12:15:05.104Z</time></trkpt><trkpt lat="43.4669233" lon="11.15282"><ele>101.4</ele><time>2026-04-05T12:15:06.104Z</time></trkpt><trkpt lat="43.466865" lon="11.1529183"><ele>101.8</ele><time>2026-04-05T12:15:07.103Z</time></trkpt><trkpt lat="43.466805" lon="11.1530183"><ele>102.2</ele><time>2026-04-05T12:15:08.104Z</time></trkpt><trkpt lat="43.466745" lon="11.153125"><ele>102.60000000000001</ele><time>2026-04-05T12:15:09.103Z</time></trkpt><trkpt lat="43.4666833" lon="11.1532333"><ele>103.0</ele><time>2026-04-05T12:15:10.104Z</time></trkpt><trkpt lat="43.46662" lon="11.1533367"><ele>103.0</ele><time>2026-04-05T12:15:11.103Z</time></trkpt><trkpt lat="43.4665533" lon="11.15344"><ele>103.0</ele><time>2026-04-05T12:15:12.104Z</time></trkpt><trkpt lat="43.4664867" lon="11.1535433"><ele>103.0</ele><time>2026-04-05T12:15:13.104Z</time></trkpt><trkpt lat="43.4664233" lon="11.153645"><ele>103.0</ele><time>2026-04-05T12:15:14.104Z</time></trkpt><trkpt lat="43.46636" lon="11.1537533"><ele>103.0</ele><time>2026-04-05T12:15:15.104Z</time></trkpt><trkpt lat="43.4662983" lon="11.1538633"><ele>103.2</ele><time>2026-04-05T12:15:16.103Z</time></trkpt><trkpt lat="43.4662367" lon="11.1539733"><ele>103.4</ele><time>2026-04-05T12:15:17.104Z</time></trkpt><trkpt lat="43.4661767" lon="11.1540833"><ele>103.60000000000001</ele><time>2026-04-05T12:15:18.104Z</time></trkpt><trkpt lat="43.4661117" lon="11.1541933"><ele>103.80000000000001</ele><time>2026-04-05T12:15:19.104Z</time></trkpt><trkpt lat="43.4660517" lon="11.1543067"><ele>104.0</ele><time>2026-04-05T12:15:20.104Z</time></trkpt><trkpt lat="43.466" lon="11.1544233"><ele>104.2</ele><time>2026-04-05T12:15:21.104Z</time></trkpt><trkpt lat="43.4659533" lon="11.1545433"><ele>104.4</ele><time>2026-04-05T12:15:22.104Z</time></trkpt><trkpt lat="43.465915" lon="11.154675"><ele>104.6</ele><time>2026-04-05T12:15:23.104Z</time></trkpt><trkpt lat="43.4658783" lon="11.154805"><ele>104.8</ele><time>2026-04-05T12:15:24.104Z</time></trkpt><trkpt lat="43.4658433" lon="11.1549333"><ele>105.0</ele><time>2026-04-05T12:15:25.104Z</time></trkpt><trkpt lat="43.4658133" lon="11.1550633"><ele>105.0</ele><time>2026-04-05T12:15:26.104Z</time></trkpt><trkpt lat="43.4657783" lon="11.15519"><ele>105.0</ele><time>2026-04-05T12:15:27.104Z</time></trkpt><trkpt lat="43.4657417" lon="11.15532"><ele>105.0</ele><time>2026-04-05T12:15:28.104Z</time></trkpt><trkpt lat="43.465705" lon="11.1554517"><ele>105.0</ele><time>2026-04-05T12:15:29.104Z</time></trkpt><trkpt lat="43.4656633" lon="11.1555817"><ele>105.0</ele><time>2026-04-05T12:15:30.104Z</time></trkpt><trkpt lat="43.465625" lon="11.1557167"><ele>105.0</ele><time>2026-04-05T12:15:31.104Z</time></trkpt><trkpt lat="43.4655867" lon="11.1558533"><ele>105.0</ele><time>2026-04-05T12:15:32.104Z</time></trkpt><trkpt lat="43.4655467" lon="11.1559833"><ele>105.0</ele><time>2026-04-05T12:15:33.104Z</time></trkpt><trkpt lat="43.4655067" lon="11.15612"><ele>105.0</ele><time>2026-04-05T12:15:34.104Z</time></trkpt><trkpt lat="43.4654717" lon="11.156255"><ele>105.0</ele><time>2026-04-05T12:15:35.104Z</time></trkpt><trkpt lat="43.4654383" lon="11.1563933"><ele>105.0</ele><time>2026-04-05T12:15:36.103Z</time></trkpt><trkpt lat="43.4654033" lon="11.1565333"><ele>105.0</ele><time>2026-04-05T12:15:37.104Z</time></trkpt><trkpt lat="43.4653683" lon="11.15667"><ele>105.0</ele><time>2026-04-05T12:15:38.104Z</time></trkpt><trkpt lat="43.46534" lon="11.1568067"><ele>105.0</ele><time>2026-04-05T12:15:39.104Z</time></trkpt><trkpt lat="43.46531" lon="11.1569383"><ele>105.0</ele><time>2026-04-05T12:15:40.104Z</time></trkpt><trkpt lat="43.4652817" lon="11.1570617"><ele>105.0</ele><time>2026-04-05T12:15:41.104Z</time></trkpt><trkpt lat="43.4652567" lon="11.1571783"><ele>105.0</ele><time>2026-04-05T12:15:42.104Z</time></trkpt><trkpt lat="43.4652267" lon="11.1572867"><ele>105.0</ele><time>2026-04-05T12:15:43.104Z</time></trkpt><trkpt lat="43.4651933" lon="11.1573917"><ele>105.0</ele><time>2026-04-05T12:15:44.104Z</time></trkpt><trkpt lat="43.4651567" lon="11.1574867"><ele>105.0</ele><time>2026-04-05T12:15:45.104Z</time></trkpt><trkpt lat="43.4651083" lon="11.1575717"><ele>105.0</ele><time>2026-04-05T12:15:46.104Z</time></trkpt><trkpt lat="43.4650483" lon="11.15765"><ele>104.4</ele><time>2026-04-05T12:15:47.104Z</time></trkpt><trkpt lat="43.4649667" lon="11.1576717"><ele>103.8</ele><time>2026-04-05T12:15:48.104Z</time></trkpt><trkpt lat="43.4648783" lon="11.1576767"><ele>103.19999999999999</ele><time>2026-04-05T12:15:49.104Z</time></trkpt><trkpt lat="43.4647917" lon="11.1576467"><ele>102.6</ele><time>2026-04-05T12:15:50.104Z</time></trkpt><trkpt lat="43.4647033" lon="11.1576083"><ele>102.0</ele><time>2026-04-05T12:15:51.103Z</time></trkpt><trkpt lat="43.4646117" lon="11.1575633"><ele>102.0</ele><time>2026-04-05T12:15:52.104Z</time></trkpt><trkpt lat="43.464515" lon="11.1575133"><ele>102.0</ele><time>2026-04-05T12:15:53.104Z</time></trkpt><trkpt lat="43.4644167" lon="11.15746"><ele>102.0</ele><time>2026-04-05T12:15:54.104Z</time></trkpt><trkpt lat="43.4643167" lon="11.1574033"><ele>102.0</ele><time>2026-04-05T12:15:55.104Z</time></trkpt><trkpt lat="43.4642183" lon="11.15735"><ele>102.0</ele><time>2026-04-05T12:15:56.104Z</time></trkpt><trkpt lat="43.464125" lon="11.1572983"><ele>102.39999999999999</ele><time>2026-04-05T12:15:57.104Z</time></trkpt><trkpt lat="43.46403" lon="11.1572467"><ele>102.8</ele><time>2026-04-05T12:15:58.104Z</time></trkpt><trkpt lat="43.4639317" lon="11.1571933"><ele>103.2</ele><time>2026-04-05T12:15:59.104Z</time></trkpt><trkpt lat="43.4638317" lon="11.157135"><ele>103.6</ele><time>2026-04-05T12:16:00.104Z</time></trkpt><trkpt lat="43.46374" lon="11.15708"><ele>104.0</ele><time>2026-04-05T12:16:01.103Z</time></trkpt><trkpt lat="43.4636483" lon="11.1570317"><ele>105.0</ele><time>2026-04-05T12:16:02.103Z</time></trkpt><trkpt lat="43.4635583" lon="11.1569867"><ele>106.0</ele><time>2026-04-05T12:16:03.104Z</time></trkpt><trkpt lat="43.4634817" lon="11.156945"><ele>107.0</ele><time>2026-04-05T12:16:04.103Z</time></trkpt><trkpt lat="43.4634183" lon="11.156905"><ele>108.0</ele><time>2026-04-05T12:16:05.104Z</time></trkpt><trkpt lat="43.463315" lon="11.1568267"><ele>109.0</ele><time>2026-04-05T12:16:07.104Z</time></trkpt><trkpt lat="43.4632133" lon="11.15677"><ele>109.0</ele><time>2026-04-05T12:16:09.104Z</time></trkpt><trkpt lat="43.4631117" lon="11.15684"><ele>109.0</ele><time>2026-04-05T12:16:11.104Z</time></trkpt><trkpt lat="43.46307" lon="11.1569283"><ele>109.0</ele><time>2026-04-05T12:16:12.104Z</time></trkpt><trkpt lat="43.4630217" lon="11.1570183"><ele>109.0</ele><time>2026-04-05T12:16:13.104Z</time></trkpt><trkpt lat="43.46297" lon="11.1571083"><ele>109.0</ele><time>2026-04-05T12:16:14.104Z</time></trkpt><trkpt lat="43.4629" lon="11.1572"><ele>109.6</ele><time>2026-04-05T12:16:15.104Z</time></trkpt><trkpt lat="43.4628183" lon="11.1572883"><ele>110.2</ele><time>2026-04-05T12:16:16.104Z</time></trkpt><trkpt lat="43.4627333" lon="11.1573683"><ele>110.79999999999998</ele><time>2026-04-05T12:16:17.104Z</time></trkpt><trkpt lat="43.4626417" lon="11.1574467"><ele>111.39999999999999</ele><time>2026-04-05T12:16:18.104Z</time></trkpt><trkpt lat="43.4625467" lon="11.1575267"><ele>112.0</ele><time>2026-04-05T12:16:19.104Z</time></trkpt><trkpt lat="43.46245" lon="11.1576033"><ele>112.19999999999999</ele><time>2026-04-05T12:16:20.104Z</time></trkpt><trkpt lat="43.46236" lon="11.157685"><ele>112.39999999999999</ele><time>2026-04-05T12:16:21.104Z</time></trkpt><trkpt lat="43.46227" lon="11.15776"><ele>112.60000000000001</ele><time>2026-04-05T12:16:22.104Z</time></trkpt><trkpt lat="43.462185" lon="11.1578217"><ele>112.80000000000001</ele><time>2026-04-05T12:16:23.104Z</time></trkpt><trkpt lat="43.4621" lon="11.1578483"><ele>113.0</ele><time>2026-04-05T12:16:24.103Z</time></trkpt><trkpt lat="43.462025" lon="11.1578467"><ele>112.99999999999999</ele><time>2026-04-05T12:16:25.104Z</time></trkpt><trkpt lat="43.4619533" lon="11.1578517"><ele>113.0</ele><time>2026-04-05T12:16:26.103Z</time></trkpt><trkpt lat="43.4618817" lon="11.15787"><ele>113.0</ele><time>2026-04-05T12:16:27.104Z</time></trkpt><trkpt lat="43.4618183" lon="11.1579367"><ele>113.0</ele><time>2026-04-05T12:16:28.104Z</time></trkpt><trkpt lat="43.4617567" lon="11.1580067"><ele>112.99999999999999</ele><time>2026-04-05T12:16:29.104Z</time></trkpt><trkpt lat="43.4616983" lon="11.1581033"><ele>113.0</ele><time>2026-04-05T12:16:30.104Z</time></trkpt><trkpt lat="43.4616367" lon="11.1582117"><ele>113.2</ele><time>2026-04-05T12:16:31.103Z</time></trkpt><trkpt lat="43.4615667" lon="11.1583133"><ele>113.4</ele><time>2026-04-05T12:16:32.103Z</time></trkpt><trkpt lat="43.4614867" lon="11.1584"><ele>113.60000000000001</ele><time>2026-04-05T12:16:33.104Z</time></trkpt><trkpt lat="43.4614017" lon="11.1584783"><ele>113.80000000000001</ele><time>2026-04-05T12:16:34.104Z</time></trkpt><trkpt lat="43.4613083" lon="11.158555"><ele>114.0</ele><time>2026-04-05T12:16:35.104Z</time></trkpt><trkpt lat="43.4612117" lon="11.1586283"><ele>115.5</ele><time>2026-04-05T12:16:36.104Z</time></trkpt><trkpt lat="43.461105" lon="11.15869"><ele>117.0</ele><time>2026-04-05T12:16:37.104Z</time></trkpt><trkpt lat="43.46099" lon="11.158735"><ele>118.5</ele><time>2026-04-05T12:16:38.104Z</time></trkpt><trkpt lat="43.46087" lon="11.1587633"><ele>120.0</ele><time>2026-04-05T12:16:39.104Z</time></trkpt><trkpt lat="43.460745" lon="11.1587833"><ele>120.0</ele><time>2026-04-05T12:16:40.104Z</time></trkpt><trkpt lat="43.4606167" lon="11.1587917"><ele>120.0</ele><time>2026-04-05T12:16:41.104Z</time></trkpt><trkpt lat="43.4604917" lon="11.1587983"><ele>120.0</ele><time>2026-04-05T12:16:42.104Z</time></trkpt><trkpt lat="43.460365" lon="11.1588"><ele>120.0</ele><time>2026-04-05T12:16:43.104Z</time></trkpt><trkpt lat="43.4602383" lon="11.158795"><ele>121.0</ele><time>2026-04-05T12:16:44.104Z</time></trkpt><trkpt lat="43.460115" lon="11.1587833"><ele>122.0</ele><time>2026-04-05T12:16:45.104Z</time></trkpt><trkpt lat="43.45999" lon="11.1587617"><ele>123.0</ele><time>2026-04-05T12:16:46.104Z</time></trkpt><trkpt lat="43.4598683" lon="11.158725"><ele>124.0</ele><time>2026-04-05T12:16:47.104Z</time></trkpt><trkpt lat="43.45975" lon="11.1586733"><ele>124.0</ele><time>2026-04-05T12:16:48.104Z</time></trkpt><trkpt lat="43.45964" lon="11.1586117"><ele>124.0</ele><time>2026-04-05T12:16:49.104Z</time></trkpt><trkpt lat="43.459535" lon="11.1585333"><ele>124.0</ele><time>2026-04-05T12:16:50.104Z</time></trkpt><trkpt lat="43.4594317" lon="11.1584483"><ele>124.0</ele><time>2026-04-05T12:16:51.104Z</time></trkpt><trkpt lat="43.4593283" lon="11.1583617"><ele>123.5</ele><time>2026-04-05T12:16:52.104Z</time></trkpt><trkpt lat="43.459225" lon="11.1582633"><ele>123.0</ele><time>2026-04-05T12:16:53.104Z</time></trkpt><trkpt lat="43.4591283" lon="11.158155"><ele>122.5</ele><time>2026-04-05T12:16:54.104Z</time></trkpt><trkpt lat="43.4590333" lon="11.1580483"><ele>122.0</ele><time>2026-04-05T12:16:55.104Z</time></trkpt><trkpt lat="43.4589417" lon="11.157945"><ele>121.8</ele><time>2026-04-05T12:16:56.104Z</time></trkpt><trkpt lat="43.458855" lon="11.1578467"><ele>121.6</ele><time>2026-04-05T12:16:57.104Z</time></trkpt><trkpt lat="43.4587733" lon="11.15775"><ele>121.39999999999999</ele><time>2026-04-05T12:16:58.104Z</time></trkpt><trkpt lat="43.4586933" lon="11.1576483"><ele>121.19999999999999</ele><time>2026-04-05T12:16:59.104Z</time></trkpt><trkpt lat="43.4586233" lon="11.1575533"><ele>121.0</ele><time>2026-04-05T12:17:00.104Z</time></trkpt><trkpt lat="43.45856" lon="11.15746"><ele>122.0</ele><time>2026-04-05T12:17:01.104Z</time></trkpt><trkpt lat="43.4584967" lon="11.1573683"><ele>123.0</ele><time>2026-04-05T12:17:02.104Z</time></trkpt><trkpt lat="43.45844" lon="11.157265"><ele>124.0</ele><time>2026-04-05T12:17:03.104Z</time></trkpt><trkpt lat="43.4583783" lon="11.1571633"><ele>125.0</ele><time>2026-04-05T12:17:04.104Z</time></trkpt><trkpt lat="43.45831" lon="11.1570633"><ele>126.0</ele><time>2026-04-05T12:17:05.104Z</time></trkpt><trkpt lat="43.4582333" lon="11.15697"><ele>126.0</ele><time>2026-04-05T12:17:06.104Z</time></trkpt><trkpt lat="43.4581517" lon="11.15688"><ele>126.0</ele><time>2026-04-05T12:17:07.104Z</time></trkpt><trkpt lat="43.4580683" lon="11.1567967"><ele>126.0</ele><time>2026-04-05T12:17:08.104Z</time></trkpt><trkpt lat="43.45798" lon="11.1567167"><ele>126.0</ele><time>2026-04-05T12:17:09.104Z</time></trkpt><trkpt lat="43.4578883" lon="11.15664"><ele>126.0</ele><time>2026-04-05T12:17:10.104Z</time></trkpt><trkpt lat="43.4577983" lon="11.1565617"><ele>124.8</ele><time>2026-04-05T12:17:11.103Z</time></trkpt><trkpt lat="43.4577083" lon="11.1564883"><ele>123.6</ele><time>2026-04-05T12:17:12.104Z</time></trkpt><trkpt lat="43.4576183" lon="11.1564133"><ele>122.4</ele><time>2026-04-05T12:17:13.104Z</time></trkpt><trkpt lat="43.457525" lon="11.1563317"><ele>121.2</ele><time>2026-04-05T12:17:14.104Z</time></trkpt><trkpt lat="43.45743" lon="11.1562383"><ele>120.0</ele><time>2026-04-05T12:17:15.104Z</time></trkpt><trkpt lat="43.4573367" lon="11.156135"><ele>120.0</ele><time>2026-04-05T12:17:16.104Z</time></trkpt><trkpt lat="43.457245" lon="11.1560267"><ele>120.0</ele><time>2026-04-05T12:17:17.104Z</time></trkpt><trkpt lat="43.4571567" lon="11.155915"><ele>120.0</ele><time>2026-04-05T12:17:18.104Z</time></trkpt><trkpt lat="43.4570633" lon="11.15581"><ele>120.0</ele><time>2026-04-05T12:17:19.104Z</time></trkpt><trkpt lat="43.4569683" lon="11.1557083"><ele>120.0</ele><time>2026-04-05T12:17:20.104Z</time></trkpt><trkpt lat="43.456865" lon="11.1556167"><ele>120.0</ele><time>2026-04-05T12:17:21.104Z</time></trkpt><trkpt lat="43.4567533" lon="11.155535"><ele>120.0</ele><time>2026-04-05T12:17:22.104Z</time></trkpt><trkpt lat="43.45664" lon="11.155465"><ele>120.0</ele><time>2026-04-05T12:17:23.104Z</time></trkpt><trkpt lat="43.45652" lon="11.15541"><ele>120.0</ele><time>2026-04-05T12:17:24.104Z</time></trkpt><trkpt lat="43.4564" lon="11.1553617"><ele>120.0</ele><time>2026-04-05T12:17:25.104Z</time></trkpt><trkpt lat="43.4562817" lon="11.1553133"><ele>120.0</ele><time>2026-04-05T12:17:26.103Z</time></trkpt><trkpt lat="43.4561667" lon="11.15526"><ele>120.0</ele><time>2026-04-05T12:17:27.104Z</time></trkpt><trkpt lat="43.4560533" lon="11.1552133"><ele>119.0</ele><time>2026-04-05T12:17:28.104Z</time></trkpt><trkpt lat="43.45594" lon="11.155165"><ele>118.0</ele><time>2026-04-05T12:17:29.104Z</time></trkpt><trkpt lat="43.4558267" lon="11.1551117"><ele>117.0</ele><time>2026-04-05T12:17:30.104Z</time></trkpt><trkpt lat="43.4557133" lon="11.155055"><ele>116.0</ele><time>2026-04-05T12:17:31.104Z</time></trkpt><trkpt lat="43.4555983" lon="11.15499"><ele>116.0</ele><time>2026-04-05T12:17:32.104Z</time></trkpt><trkpt lat="43.455485" lon="11.1549117"><ele>116.0</ele><time>2026-04-05T12:17:33.104Z</time></trkpt><trkpt lat="43.455365" lon="11.1548233"><ele>116.0</ele><time>2026-04-05T12:17:34.104Z</time></trkpt><trkpt lat="43.4552467" lon="11.154725"><ele>116.0</ele><time>2026-04-05T12:17:35.104Z</time></trkpt><trkpt lat="43.455125" lon="11.1546167"><ele>116.0</ele><time>2026-04-05T12:17:36.104Z</time></trkpt><trkpt lat="43.4550017" lon="11.1545133"><ele>116.0</ele><time>2026-04-05T12:17:37.104Z</time></trkpt><trkpt lat="43.45488" lon="11.15441"><ele>116.0</ele><time>2026-04-05T12:17:38.104Z</time></trkpt><trkpt lat="43.4547617" lon="11.154305"><ele>116.0</ele><time>2026-04-05T12:17:39.104Z</time></trkpt><trkpt lat="43.4546483" lon="11.1541967"><ele>116.0</ele><time>2026-04-05T12:17:40.104Z</time></trkpt><trkpt lat="43.4545433" lon="11.1540767"><ele>116.0</ele><time>2026-04-05T12:17:41.104Z</time></trkpt><trkpt lat="43.454445" lon="11.1539533"><ele>116.0</ele><time>2026-04-05T12:17:42.104Z</time></trkpt><trkpt lat="43.45435" lon="11.1538283"><ele>116.0</ele><time>2026-04-05T12:17:43.104Z</time></trkpt><trkpt lat="43.4542633" lon="11.153705"><ele>116.0</ele><time>2026-04-05T12:17:44.104Z</time></trkpt><trkpt lat="43.4541867" lon="11.1535817"><ele>116.0</ele><time>2026-04-05T12:17:45.104Z</time></trkpt><trkpt lat="43.4541183" lon="11.1534633"><ele>116.0</ele><time>2026-04-05T12:17:46.104Z</time></trkpt><trkpt lat="43.454065" lon="11.1533433"><ele>116.0</ele><time>2026-04-05T12:17:47.104Z</time></trkpt><trkpt lat="43.45404" lon="11.1532233"><ele>116.0</ele><time>2026-04-05T12:17:48.103Z</time></trkpt><trkpt lat="43.454025" lon="11.153095"><ele>116.19999999999999</ele><time>2026-04-05T12:17:49.104Z</time></trkpt><trkpt lat="43.454" lon="11.1529633"><ele>116.39999999999999</ele><time>2026-04-05T12:17:50.104Z</time></trkpt><trkpt lat="43.45396" lon="11.15284"><ele>116.6</ele><time>2026-04-05T12:17:51.104Z</time></trkpt><trkpt lat="43.453895" lon="11.15273"><ele>116.8</ele><time>2026-04-05T12:17:52.104Z</time></trkpt><trkpt lat="43.453815" lon="11.15263"><ele>117.0</ele><time>2026-04-05T12:17:53.104Z</time></trkpt><trkpt lat="43.4537267" lon="11.1525417"><ele>117.0</ele><time>2026-04-05T12:17:54.104Z</time></trkpt><trkpt lat="43.453635" lon="11.15246"><ele>116.99999999999999</ele><time>2026-04-05T12:17:55.104Z</time></trkpt><trkpt lat="43.45354" lon="11.1523867"><ele>116.99999999999999</ele><time>2026-04-05T12:17:56.104Z</time></trkpt><trkpt lat="43.4534483" lon="11.1523117"><ele>117.0</ele><time>2026-04-05T12:17:57.104Z</time></trkpt><trkpt lat="43.4533617" lon="11.15224"><ele>117.0</ele><time>2026-04-05T12:17:58.104Z</time></trkpt><trkpt lat="43.4532833" lon="11.15217"><ele>116.66666666666667</ele><time>2026-04-05T12:17:59.103Z</time></trkpt><trkpt lat="43.4532117" lon="11.1520967"><ele>116.33333333333334</ele><time>2026-04-05T12:18:00.104Z</time></trkpt><trkpt lat="43.45315" lon="11.152015"><ele>116.0</ele><time>2026-04-05T12:18:01.104Z</time></trkpt><trkpt lat="43.453095" lon="11.1519267"><ele>115.66666666666667</ele><time>2026-04-05T12:18:02.104Z</time></trkpt><trkpt lat="43.4530483" lon="11.15183"><ele>115.33333333333334</ele><time>2026-04-05T12:18:03.104Z</time></trkpt><trkpt lat="43.4529983" lon="11.1517217"><ele>115.0</ele><time>2026-04-05T12:18:04.104Z</time></trkpt><trkpt lat="43.452955" lon="11.1515967"><ele>115.2</ele><time>2026-04-05T12:18:05.104Z</time></trkpt><trkpt lat="43.4529167" lon="11.1514617"><ele>115.4</ele><time>2026-04-05T12:18:06.104Z</time></trkpt><trkpt lat="43.45288" lon="11.1513317"><ele>115.6</ele><time>2026-04-05T12:18:07.104Z</time></trkpt><trkpt lat="43.45284" lon="11.1511967"><ele>115.8</ele><time>2026-04-05T12:18:08.104Z</time></trkpt><trkpt lat="43.4528033" lon="11.15106"><ele>116.0</ele><time>2026-04-05T12:18:09.104Z</time></trkpt><trkpt lat="43.4527667" lon="11.1509133"><ele>116.0</ele><time>2026-04-05T12:18:10.104Z</time></trkpt><trkpt lat="43.4527183" lon="11.1507833"><ele>116.0</ele><time>2026-04-05T12:18:11.104Z</time></trkpt><trkpt lat="43.4526583" lon="11.1506683"><ele>116.0</ele><time>2026-04-05T12:18:12.104Z</time></trkpt><trkpt lat="43.452585" lon="11.1505767"><ele>116.0</ele><time>2026-04-05T12:18:13.104Z</time></trkpt><trkpt lat="43.4524983" lon="11.1505017"><ele>116.0</ele><time>2026-04-05T12:18:14.104Z</time></trkpt><trkpt lat="43.4523967" lon="11.15044"><ele>115.75</ele><time>2026-04-05T12:18:15.103Z</time></trkpt><trkpt lat="43.4522883" lon="11.1503883"><ele>115.5</ele><time>2026-04-05T12:18:16.104Z</time></trkpt><trkpt lat="43.4521717" lon="11.1503433"><ele>115.25</ele><time>2026-04-05T12:18:17.104Z</time></trkpt><trkpt lat="43.45205" lon="11.1503"><ele>115.0</ele><time>2026-04-05T12:18:18.104Z</time></trkpt><trkpt lat="43.45193" lon="11.1502533"><ele>115.0</ele><time>2026-04-05T12:18:19.104Z</time></trkpt><trkpt lat="43.4518133" lon="11.150185"><ele>115.0</ele><time>2026-04-05T12:18:20.104Z</time></trkpt><trkpt lat="43.4517017" lon="11.1501"><ele>115.0</ele><time>2026-04-05T12:18:21.104Z</time></trkpt><trkpt lat="43.451595" lon="11.1500017"><ele>115.0</ele><time>2026-04-05T12:18:22.104Z</time></trkpt><trkpt lat="43.4514917" lon="11.1498933"><ele>117.25</ele><time>2026-04-05T12:18:23.104Z</time></trkpt><trkpt lat="43.4513883" lon="11.149785"><ele>119.5</ele><time>2026-04-05T12:18:24.104Z</time></trkpt><trkpt lat="43.4512833" lon="11.1496833"><ele>121.75</ele><time>2026-04-05T12:18:25.103Z</time></trkpt><trkpt lat="43.4511783" lon="11.1495883"><ele>124.0</ele><time>2026-04-05T12:18:26.104Z</time></trkpt><trkpt lat="43.4510717" lon="11.149505"><ele>124.0</ele><time>2026-04-05T12:18:27.104Z</time></trkpt><trkpt lat="43.4509617" lon="11.149435"><ele>124.0</ele><time>2026-04-05T12:18:28.104Z</time></trkpt><trkpt lat="43.4508533" lon="11.1493767"><ele>124.0</ele><time>2026-04-05T12:18:29.104Z</time></trkpt><trkpt lat="43.4507383" lon="11.1493267"><ele>124.0</ele><time>2026-04-05T12:18:30.104Z</time></trkpt><trkpt lat="43.4506217" lon="11.149275"><ele>124.0</ele><time>2026-04-05T12:18:31.104Z</time></trkpt><trkpt lat="43.450505" lon="11.1492067"><ele>124.0</ele><time>2026-04-05T12:18:32.104Z</time></trkpt><trkpt lat="43.450395" lon="11.1491183"><ele>124.0</ele><time>2026-04-05T12:18:33.104Z</time></trkpt><trkpt lat="43.4502917" lon="11.1490083"><ele>124.0</ele><time>2026-04-05T12:18:34.104Z</time></trkpt><trkpt lat="43.4501917" lon="11.1488867"><ele>124.25</ele><time>2026-04-05T12:18:35.104Z</time></trkpt><trkpt lat="43.450095" lon="11.1487567"><ele>124.5</ele><time>2026-04-05T12:18:36.104Z</time></trkpt><trkpt lat="43.450005" lon="11.148625"><ele>124.75</ele><time>2026-04-05T12:18:37.103Z</time></trkpt><trkpt lat="43.449915" lon="11.1484933"><ele>125.0</ele><time>2026-04-05T12:18:38.104Z</time></trkpt><trkpt lat="43.44982" lon="11.1483667"><ele>125.0</ele><time>2026-04-05T12:18:39.104Z</time></trkpt><trkpt lat="43.4497167" lon="11.1482433"><ele>125.0</ele><time>2026-04-05T12:18:40.104Z</time></trkpt><trkpt lat="43.44961" lon="11.1481367"><ele>125.0</ele><time>2026-04-05T12:18:41.103Z</time></trkpt><trkpt lat="43.44949" lon="11.14805"><ele>125.0</ele><time>2026-04-05T12:18:42.104Z</time></trkpt><trkpt lat="43.449365" lon="11.1479867"><ele>127.25</ele><time>2026-04-05T12:18:43.103Z</time></trkpt><trkpt lat="43.44923" lon="11.14795"><ele>129.5</ele><time>2026-04-05T12:18:44.104Z</time></trkpt><trkpt lat="43.449095" lon="11.147945"><ele>131.75</ele><time>2026-04-05T12:18:45.104Z</time></trkpt><trkpt lat="43.4489583" lon="11.1479683"><ele>134.0</ele><time>2026-04-05T12:18:46.104Z</time></trkpt><trkpt lat="43.4488283" lon="11.148015"><ele>135.25</ele><time>2026-04-05T12:18:47.104Z</time></trkpt><trkpt lat="43.4487" lon="11.148085"><ele>136.5</ele><time>2026-04-05T12:18:48.104Z</time></trkpt><trkpt lat="43.4485717" lon="11.148175"><ele>137.75</ele><time>2026-04-05T12:18:49.104Z</time></trkpt><trkpt lat="43.4484533" lon="11.1482783"><ele>139.0</ele><time>2026-04-05T12:18:50.104Z</time></trkpt><trkpt lat="43.4483367" lon="11.1483933"><ele>138.25</ele><time>2026-04-05T12:18:51.103Z</time></trkpt><trkpt lat="43.4482283" lon="11.1485183"><ele>137.5</ele><time>2026-04-05T12:18:52.104Z</time></trkpt><trkpt lat="43.4481217" lon="11.1486433"><ele>136.75</ele><time>2026-04-05T12:18:53.104Z</time></trkpt><trkpt lat="43.4480167" lon="11.14877"><ele>136.0</ele><time>2026-04-05T12:18:54.104Z</time></trkpt><trkpt lat="43.44791" lon="11.148895"><ele>136.0</ele><time>2026-04-05T12:18:55.104Z</time></trkpt><trkpt lat="43.447795" lon="11.1490133"><ele>136.0</ele><time>2026-04-05T12:18:56.104Z</time></trkpt><trkpt lat="43.447675" lon="11.14912"><ele>136.0</ele><time>2026-04-05T12:18:57.104Z</time></trkpt><trkpt lat="43.4475533" lon="11.149205"><ele>136.0</ele><time>2026-04-05T12:18:58.104Z</time></trkpt><trkpt lat="43.4474267" lon="11.14926"><ele>135.5</ele><time>2026-04-05T12:18:59.104Z</time></trkpt><trkpt lat="43.447295" lon="11.1492983"><ele>135.0</ele><time>2026-04-05T12:19:00.104Z</time></trkpt><trkpt lat="43.447165" lon="11.1493117"><ele>134.5</ele><time>2026-04-05T12:19:01.104Z</time></trkpt><trkpt lat="43.4470283" lon="11.14932"><ele>134.0</ele><time>2026-04-05T12:19:02.104Z</time></trkpt><trkpt lat="43.4468867" lon="11.1493283"><ele>134.0</ele><time>2026-04-05T12:19:03.104Z</time></trkpt><trkpt lat="43.4467467" lon="11.1493317"><ele>134.0</ele><time>2026-04-05T12:19:04.104Z</time></trkpt><trkpt lat="43.446605" lon="11.1493417"><ele>134.0</ele><time>2026-04-05T12:19:05.104Z</time></trkpt><trkpt lat="43.446465" lon="11.1493633"><ele>134.0</ele><time>2026-04-05T12:19:06.104Z</time></trkpt><trkpt lat="43.4463267" lon="11.1493817"><ele>134.5</ele><time>2026-04-05T12:19:07.104Z</time></trkpt><trkpt lat="43.4461867" lon="11.14941"><ele>135.0</ele><time>2026-04-05T12:19:08.104Z</time></trkpt><trkpt lat="43.4460467" lon="11.1494367"><ele>135.5</ele><time>2026-04-05T12:19:09.104Z</time></trkpt><trkpt lat="43.4459067" lon="11.1494667"><ele>136.0</ele><time>2026-04-05T12:19:10.104Z</time></trkpt><trkpt lat="43.4457633" lon="11.1494917"><ele>136.0</ele><time>2026-04-05T12:19:11.104Z</time></trkpt><trkpt lat="43.4456183" lon="11.1495067"><ele>136.0</ele><time>2026-04-05T12:19:12.104Z</time></trkpt><trkpt lat="43.4454733" lon="11.1495317"><ele>136.0</ele><time>2026-04-05T12:19:13.104Z</time></trkpt><trkpt lat="43.4453233" lon="11.1495483"><ele>136.0</ele><time>2026-04-05T12:19:14.103Z</time></trkpt><trkpt lat="43.44517" lon="11.1495633"><ele>135.0</ele><time>2026-04-05T12:19:15.104Z</time></trkpt><trkpt lat="43.4450167" lon="11.1495717"><ele>134.0</ele><time>2026-04-05T12:19:16.104Z</time></trkpt><trkpt lat="43.444865" lon="11.1495717"><ele>133.0</ele><time>2026-04-05T12:19:17.104Z</time></trkpt><trkpt lat="43.4447117" lon="11.1495717"><ele>133.0</ele><time>2026-04-05T12:19:18.104Z</time></trkpt><trkpt lat="43.4445583" lon="11.1495767"><ele>133.0</ele><time>2026-04-05T12:19:19.103Z</time></trkpt><trkpt lat="43.4444017" lon="11.1495767"><ele>133.0</ele><time>2026-04-05T12:19:20.104Z</time></trkpt><trkpt lat="43.444245" lon="11.14958"><ele>133.0</ele><time>2026-04-05T12:19:21.104Z</time></trkpt><trkpt lat="43.4440933" lon="11.14958"><ele>133.0</ele><time>2026-04-05T12:19:22.104Z</time></trkpt><trkpt lat="43.4439383" lon="11.14958"><ele>133.0</ele><time>2026-04-05T12:19:23.104Z</time></trkpt><trkpt lat="43.44378" lon="11.1495833"><ele>136.0</ele><time>2026-04-05T12:19:24.104Z</time></trkpt><trkpt lat="43.44362" lon="11.1495833"><ele>139.0</ele><time>2026-04-05T12:19:25.104Z</time></trkpt><trkpt lat="43.4434633" lon="11.149585"><ele>142.0</ele><time>2026-04-05T12:19:26.104Z</time></trkpt><trkpt lat="43.44331" lon="11.1495783"><ele>142.0</ele><time>2026-04-05T12:19:27.104Z</time></trkpt><trkpt lat="43.4431583" lon="11.14957"><ele>142.0</ele><time>2026-04-05T12:19:28.104Z</time></trkpt><trkpt lat="43.4430083" lon="11.1495633"><ele>142.0</ele><time>2026-04-05T12:19:29.104Z</time></trkpt><trkpt lat="43.4428567" lon="11.14956"><ele>145.66666666666669</ele><time>2026-04-05T12:19:30.104Z</time></trkpt><trkpt lat="43.4427017" lon="11.1495483"><ele>149.33333333333334</ele><time>2026-04-05T12:19:31.104Z</time></trkpt><trkpt lat="43.4425417" lon="11.1495367"><ele>153.0</ele><time>2026-04-05T12:19:32.104Z</time></trkpt><trkpt lat="43.4423833" lon="11.14954"><ele>153.0</ele><time>2026-04-05T12:19:33.104Z</time></trkpt><trkpt lat="43.4422217" lon="11.1495533"><ele>153.0</ele><time>2026-04-05T12:19:34.104Z</time></trkpt><trkpt lat="43.4420583" lon="11.1495733"><ele>153.0</ele><time>2026-04-05T12:19:35.104Z</time></trkpt><trkpt lat="43.4418967" lon="11.1495967"><ele>157.0</ele><time>2026-04-05T12:19:36.104Z</time></trkpt><trkpt lat="43.441735" lon="11.1496267"><ele>161.0</ele><time>2026-04-05T12:19:37.104Z</time></trkpt><trkpt lat="43.4415717" lon="11.1496517"><ele>165.0</ele><time>2026-04-05T12:19:38.104Z</time></trkpt><trkpt lat="43.4414083" lon="11.1496617"><ele>163.33333333333334</ele><time>2026-04-05T12:19:39.104Z</time></trkpt><trkpt lat="43.4412417" lon="11.14965"><ele>161.66666666666669</ele><time>2026-04-05T12:19:40.104Z</time></trkpt><trkpt lat="43.4410817" lon="11.1496317"><ele>160.0</ele><time>2026-04-05T12:19:41.104Z</time></trkpt><trkpt lat="43.44092" lon="11.1496083"><ele>160.0</ele><time>2026-04-05T12:19:42.104Z</time></trkpt><trkpt lat="43.4407617" lon="11.149585"><ele>160.0</ele><time>2026-04-05T12:19:43.104Z</time></trkpt><trkpt lat="43.440605" lon="11.1495467"><ele>160.0</ele><time>2026-04-05T12:19:44.104Z</time></trkpt><trkpt lat="43.44045" lon="11.1494967"><ele>160.0</ele><time>2026-04-05T12:19:45.104Z</time></trkpt><trkpt lat="43.4402967" lon="11.1494367"><ele>160.0</ele><time>2026-04-05T12:19:46.104Z</time></trkpt><trkpt lat="43.440145" lon="11.1493717"><ele>160.0</ele><time>2026-04-05T12:19:47.104Z</time></trkpt><trkpt lat="43.4399967" lon="11.1492933"><ele>160.0</ele><time>2026-04-05T12:19:48.104Z</time></trkpt><trkpt lat="43.4398567" lon="11.1492067"><ele>160.0</ele><time>2026-04-05T12:19:49.103Z</time></trkpt><trkpt lat="43.439715" lon="11.1491317"><ele>160.0</ele><time>2026-04-05T12:19:50.104Z</time></trkpt><trkpt lat="43.4395833" lon="11.1490433"><ele>161.5</ele><time>2026-04-05T12:19:51.104Z</time></trkpt><trkpt lat="43.4394567" lon="11.1489633"><ele>163.0</ele><time>2026-04-05T12:19:52.104Z</time></trkpt><trkpt lat="43.43934" lon="11.148865"><ele>164.5</ele><time>2026-04-05T12:19:53.104Z</time></trkpt><trkpt lat="43.4392317" lon="11.148745"><ele>166.0</ele><time>2026-04-05T12:19:54.104Z</time></trkpt><trkpt lat="43.4391317" lon="11.148615"><ele>166.0</ele><time>2026-04-05T12:19:55.104Z</time></trkpt><trkpt lat="43.4390367" lon="11.1484767"><ele>166.0</ele><time>2026-04-05T12:19:56.104Z</time></trkpt><trkpt lat="43.438935" lon="11.1483417"><ele>166.0</ele><time>2026-04-05T12:19:57.103Z</time></trkpt><trkpt lat="43.4388367" lon="11.1482"><ele>166.0</ele><time>2026-04-05T12:19:58.103Z</time></trkpt><trkpt lat="43.4387417" lon="11.1480583"><ele>164.0</ele><time>2026-04-05T12:19:59.102Z</time></trkpt><trkpt lat="43.4386517" lon="11.1478983"><ele>162.0</ele><time>2026-04-05T12:20:00.103Z</time></trkpt><trkpt lat="43.4385533" lon="11.1477533"><ele>160.0</ele><time>2026-04-05T12:20:01.103Z</time></trkpt><trkpt lat="43.4384467" lon="11.1476083"><ele>158.0</ele><time>2026-04-05T12:20:02.103Z</time></trkpt><trkpt lat="43.4383383" lon="11.1474667"><ele>154.66666666666666</ele><time>2026-04-05T12:20:03.103Z</time></trkpt><trkpt lat="43.43823" lon="11.147325"><ele>151.33333333333334</ele><time>2026-04-05T12:20:04.102Z</time></trkpt><trkpt lat="43.4381217" lon="11.14718"><ele>148.0</ele><time>2026-04-05T12:20:05.103Z</time></trkpt><trkpt lat="43.438015" lon="11.147035"><ele>150.0</ele><time>2026-04-05T12:20:06.103Z</time></trkpt><trkpt lat="43.437905" lon="11.1468883"><ele>152.0</ele><time>2026-04-05T12:20:07.103Z</time></trkpt><trkpt lat="43.4377983" lon="11.1467367"><ele>154.0</ele><time>2026-04-05T12:20:08.103Z</time></trkpt><trkpt lat="43.43769" lon="11.1465867"><ele>150.33333333333334</ele><time>2026-04-05T12:20:09.103Z</time></trkpt><trkpt lat="43.4375817" lon="11.1464383"><ele>146.66666666666666</ele><time>2026-04-05T12:20:10.103Z</time></trkpt><trkpt lat="43.437475" lon="11.1462867"><ele>143.0</ele><time>2026-04-05T12:20:11.103Z</time></trkpt><trkpt lat="43.43737" lon="11.1461317"><ele>143.0</ele><time>2026-04-05T12:20:12.103Z</time></trkpt><trkpt lat="43.437265" lon="11.14598"><ele>143.0</ele><time>2026-04-05T12:20:13.103Z</time></trkpt><trkpt lat="43.4371567" lon="11.1458333"><ele>143.0</ele><time>2026-04-05T12:20:14.103Z</time></trkpt><trkpt lat="43.4370483" lon="11.14569"><ele>141.25</ele><time>2026-04-05T12:20:15.103Z</time></trkpt><trkpt lat="43.4369333" lon="11.1455583"><ele>139.5</ele><time>2026-04-05T12:20:16.103Z</time></trkpt><trkpt lat="43.43681" lon="11.1454417"><ele>137.75</ele><time>2026-04-05T12:20:17.103Z</time></trkpt><trkpt lat="43.4366783" lon="11.145345"><ele>136.0</ele><time>2026-04-05T12:20:18.103Z</time></trkpt><trkpt lat="43.436535" lon="11.1452767"><ele>136.0</ele><time>2026-04-05T12:20:19.103Z</time></trkpt><trkpt lat="43.43639" lon="11.145245"><ele>136.0</ele><time>2026-04-05T12:20:20.102Z</time></trkpt><trkpt lat="43.436235" lon="11.1452367"><ele>136.0</ele><time>2026-04-05T12:20:21.103Z</time></trkpt><trkpt lat="43.4360783" lon="11.1452433"><ele>134.33333333333334</ele><time>2026-04-05T12:20:22.103Z</time></trkpt><trkpt lat="43.4359167" lon="11.1452483"><ele>132.66666666666666</ele><time>2026-04-05T12:20:23.103Z</time></trkpt><trkpt lat="43.43575" lon="11.1452467"><ele>131.0</ele><time>2026-04-05T12:20:24.103Z</time></trkpt><trkpt lat="43.43558" lon="11.1452217"><ele>130.0</ele><time>2026-04-05T12:20:25.102Z</time></trkpt><trkpt lat="43.4354083" lon="11.1451733"><ele>129.0</ele><time>2026-04-05T12:20:26.103Z</time></trkpt><trkpt lat="43.4352517" lon="11.1451067"><ele>128.0</ele><time>2026-04-05T12:20:27.103Z</time></trkpt><trkpt lat="43.4351" lon="11.1450317"><ele>128.0</ele><time>2026-04-05T12:20:28.103Z</time></trkpt><trkpt lat="43.434955" lon="11.1449517"><ele>128.0</ele><time>2026-04-05T12:20:29.103Z</time></trkpt><trkpt lat="43.434815" lon="11.144875"><ele>128.0</ele><time>2026-04-05T12:20:30.103Z</time></trkpt><trkpt lat="43.43468" lon="11.1447967"><ele>126.25</ele><time>2026-04-05T12:20:31.102Z</time></trkpt><trkpt lat="43.4345533" lon="11.1447067"><ele>124.5</ele><time>2026-04-05T12:20:32.103Z</time></trkpt><trkpt lat="43.434435" lon="11.1446083"><ele>122.75</ele><time>2026-04-05T12:20:33.103Z</time></trkpt><trkpt lat="43.434325" lon="11.144505"><ele>121.0</ele><time>2026-04-05T12:20:34.103Z</time></trkpt><trkpt lat="43.4342367" lon="11.14439"><ele>121.00000000000001</ele><time>2026-04-05T12:20:35.103Z</time></trkpt><trkpt lat="43.434165" lon="11.14427"><ele>121.0</ele><time>2026-04-05T12:20:36.103Z</time></trkpt><trkpt lat="43.43411" lon="11.144155"><ele>121.0</ele><time>2026-04-05T12:20:37.103Z</time></trkpt><trkpt lat="43.4340667" lon="11.14405"><ele>121.0</ele><time>2026-04-05T12:20:38.103Z</time></trkpt><trkpt lat="43.4340333" lon="11.1439567"><ele>121.00000000000001</ele><time>2026-04-05T12:20:39.103Z</time></trkpt><trkpt lat="43.4340067" lon="11.143875"><ele>121.0</ele><time>2026-04-05T12:20:40.103Z</time></trkpt><trkpt lat="43.4339417" lon="11.143735"><ele>121.4</ele><time>2026-04-05T12:20:42.103Z</time></trkpt><trkpt lat="43.4338567" lon="11.1436817"><ele>121.8</ele><time>2026-04-05T12:20:44.103Z</time></trkpt><trkpt lat="43.433775" lon="11.143765"><ele>122.20000000000002</ele><time>2026-04-05T12:20:46.102Z</time></trkpt><trkpt lat="43.4337783" lon="11.1439317"><ele>122.60000000000001</ele><time>2026-04-05T12:20:48.102Z</time></trkpt><trkpt lat="43.4338467" lon="11.1440417"><ele>123.0</ele><time>2026-04-05T12:20:50.102Z</time></trkpt><trkpt lat="43.43396" lon="11.1440183"><ele>123.0</ele><time>2026-04-05T12:20:52.103Z</time></trkpt><trkpt lat="43.4340033" lon="11.143945"><ele>123.0</ele><time>2026-04-05T12:20:53.103Z</time></trkpt><trkpt lat="43.434025" lon="11.1438633"><ele>123.0</ele><time>2026-04-05T12:20:54.102Z</time></trkpt><trkpt lat="43.4340217" lon="11.1437667"><ele>123.0</ele><time>2026-04-05T12:20:55.103Z</time></trkpt><trkpt lat="43.4340167" lon="11.1436467"><ele>123.0</ele><time>2026-04-05T12:20:56.103Z</time></trkpt><trkpt lat="43.4340183" lon="11.1435217"><ele>123.0</ele><time>2026-04-05T12:20:57.103Z</time></trkpt><trkpt lat="43.4340217" lon="11.1433883"><ele>123.0</ele><time>2026-04-05T12:20:58.103Z</time></trkpt><trkpt lat="43.4340267" lon="11.1432483"><ele>123.00000000000001</ele><time>2026-04-05T12:20:59.103Z</time></trkpt><trkpt lat="43.4340283" lon="11.1431033"><ele>123.00000000000001</ele><time>2026-04-05T12:21:00.103Z</time></trkpt><trkpt lat="43.4340267" lon="11.1429467"><ele>123.0</ele><time>2026-04-05T12:21:01.103Z</time></trkpt><trkpt lat="43.4340217" lon="11.1427867"><ele>123.0</ele><time>2026-04-05T12:21:02.103Z</time></trkpt><trkpt lat="43.4339917" lon="11.14263"><ele>122.75</ele><time>2026-04-05T12:21:03.103Z</time></trkpt><trkpt lat="43.43395" lon="11.142475"><ele>122.5</ele><time>2026-04-05T12:21:04.103Z</time></trkpt><trkpt lat="43.43389" lon="11.142325"><ele>122.25</ele><time>2026-04-05T12:21:05.102Z</time></trkpt><trkpt lat="43.43382" lon="11.1421967"><ele>122.0</ele><time>2026-04-05T12:21:06.102Z</time></trkpt><trkpt lat="43.4337567" lon="11.1420983"><ele>122.66666666666666</ele><time>2026-04-05T12:21:07.103Z</time></trkpt><trkpt lat="43.4337083" lon="11.1420233"><ele>123.33333333333333</ele><time>2026-04-05T12:21:08.103Z</time></trkpt><trkpt lat="43.43365" lon="11.1419267"><ele>124.0</ele><time>2026-04-05T12:21:10.103Z</time></trkpt><trkpt lat="43.43359" lon="11.1419767"><ele>124.66666666666666</ele><time>2026-04-05T12:21:56.103Z</time></trkpt><trkpt lat="43.433635" lon="11.1420967"><ele>125.33333333333333</ele><time>2026-04-05T12:21:58.103Z</time></trkpt><trkpt lat="43.4336917" lon="11.1422317"><ele>126.0</ele><time>2026-04-05T12:22:00.103Z</time></trkpt><trkpt lat="43.43368" lon="11.1423883"><ele>128.33333333333334</ele><time>2026-04-05T12:22:02.103Z</time></trkpt><trkpt lat="43.4336017" lon="11.1425117"><ele>130.66666666666666</ele><time>2026-04-05T12:22:04.103Z</time></trkpt><trkpt lat="43.43354" lon="11.142535"><ele>133.0</ele><time>2026-04-05T12:22:05.103Z</time></trkpt><trkpt lat="43.433465" lon="11.1425217"><ele>135.33333333333331</ele><time>2026-04-05T12:22:06.103Z</time></trkpt><trkpt lat="43.4333783" lon="11.14248"><ele>137.66666666666666</ele><time>2026-04-05T12:22:07.102Z</time></trkpt><trkpt lat="43.4332967" lon="11.1424433"><ele>140.0</ele><time>2026-04-05T12:22:08.103Z</time></trkpt><trkpt lat="43.4332133" lon="11.1423967"><ele>140.6</ele><time>2026-04-05T12:22:09.103Z</time></trkpt><trkpt lat="43.4331267" lon="11.1423333"><ele>141.2</ele><time>2026-04-05T12:22:10.103Z</time></trkpt><trkpt lat="43.4330383" lon="11.142255"><ele>141.8</ele><time>2026-04-05T12:22:11.102Z</time></trkpt><trkpt lat="43.432955" lon="11.1421617"><ele>142.4</ele><time>2026-04-05T12:22:12.103Z</time></trkpt><trkpt lat="43.43288" lon="11.1420633"><ele>143.0</ele><time>2026-04-05T12:22:13.103Z</time></trkpt><trkpt lat="43.43281" lon="11.1419583"><ele>143.0</ele><time>2026-04-05T12:22:14.103Z</time></trkpt><trkpt lat="43.4327283" lon="11.1418667"><ele>143.0</ele><time>2026-04-05T12:22:15.103Z</time></trkpt><trkpt lat="43.432635" lon="11.1417783"><ele>143.0</ele><time>2026-04-05T12:22:16.103Z</time></trkpt><trkpt lat="43.43253" lon="11.1417167"><ele>143.0</ele><time>2026-04-05T12:22:17.102Z</time></trkpt><trkpt lat="43.4324217" lon="11.141665"><ele>143.0</ele><time>2026-04-05T12:22:18.103Z</time></trkpt><trkpt lat="43.43231" lon="11.1416167"><ele>143.0</ele><time>2026-04-05T12:22:19.103Z</time></trkpt><trkpt lat="43.432195" lon="11.14155"><ele>143.0</ele><time>2026-04-05T12:22:20.103Z</time></trkpt><trkpt lat="43.4320867" lon="11.1414567"><ele>143.0</ele><time>2026-04-05T12:22:21.103Z</time></trkpt><trkpt lat="43.43199" lon="11.1413367"><ele>143.0</ele><time>2026-04-05T12:22:22.103Z</time></trkpt><trkpt lat="43.4319017" lon="11.1412083"><ele>143.75</ele><time>2026-04-05T12:22:23.103Z</time></trkpt><trkpt lat="43.431815" lon="11.1410883"><ele>144.5</ele><time>2026-04-05T12:22:24.103Z</time></trkpt><trkpt lat="43.4317183" lon="11.1409817"><ele>145.25</ele><time>2026-04-05T12:22:25.103Z</time></trkpt><trkpt lat="43.431605" lon="11.1409"><ele>146.0</ele><time>2026-04-05T12:22:26.103Z</time></trkpt><trkpt lat="43.4314833" lon="11.1408467"><ele>146.0</ele><time>2026-04-05T12:22:27.103Z</time></trkpt><trkpt lat="43.4313533" lon="11.1408117"><ele>146.0</ele><time>2026-04-05T12:22:28.102Z</time></trkpt><trkpt lat="43.4312167" lon="11.1407883"><ele>146.0</ele><time>2026-04-05T12:22:29.103Z</time></trkpt><trkpt lat="43.4310817" lon="11.140765"><ele>146.0</ele><time>2026-04-05T12:22:30.103Z</time></trkpt><trkpt lat="43.4309467" lon="11.1407317"><ele>148.5</ele><time>2026-04-05T12:22:31.103Z</time></trkpt><trkpt lat="43.43081" lon="11.1406967"><ele>151.0</ele><time>2026-04-05T12:22:32.103Z</time></trkpt><trkpt lat="43.4306733" lon="11.14066"><ele>153.5</ele><time>2026-04-05T12:22:33.103Z</time></trkpt><trkpt lat="43.4305383" lon="11.1406133"><ele>156.0</ele><time>2026-04-05T12:22:34.102Z</time></trkpt><trkpt lat="43.430405" lon="11.1405567"><ele>158.25</ele><time>2026-04-05T12:22:35.103Z</time></trkpt><trkpt lat="43.430275" lon="11.1404883"><ele>160.5</ele><time>2026-04-05T12:22:36.103Z</time></trkpt><trkpt lat="43.4301433" lon="11.140425"><ele>162.75</ele><time>2026-04-05T12:22:37.102Z</time></trkpt><trkpt lat="43.4300167" lon="11.1403583"><ele>165.0</ele><time>2026-04-05T12:22:38.103Z</time></trkpt><trkpt lat="43.4298917" lon="11.1402867"><ele>165.0</ele><time>2026-04-05T12:22:39.103Z</time></trkpt><trkpt lat="43.4297717" lon="11.1402033"><ele>165.0</ele><time>2026-04-05T12:22:40.103Z</time></trkpt><trkpt lat="43.4296517" lon="11.14012"><ele>165.0</ele><time>2026-04-05T12:22:41.103Z</time></trkpt><trkpt lat="43.4295267" lon="11.1400283"><ele>165.0</ele><time>2026-04-05T12:22:42.103Z</time></trkpt><trkpt lat="43.429405" lon="11.1399233"><ele>164.5</ele><time>2026-04-05T12:22:43.103Z</time></trkpt><trkpt lat="43.4292833" lon="11.1398133"><ele>164.0</ele><time>2026-04-05T12:22:44.103Z</time></trkpt><trkpt lat="43.4291583" lon="11.1397033"><ele>163.5</ele><time>2026-04-05T12:22:45.103Z</time></trkpt><trkpt lat="43.4290333" lon="11.1395883"><ele>163.0</ele><time>2026-04-05T12:22:46.103Z</time></trkpt><trkpt lat="43.4289067" lon="11.1394733"><ele>163.66666666666669</ele><time>2026-04-05T12:22:47.103Z</time></trkpt><trkpt lat="43.42878" lon="11.13936"><ele>164.33333333333334</ele><time>2026-04-05T12:22:48.103Z</time></trkpt><trkpt lat="43.4286533" lon="11.1392517"><ele>165.0</ele><time>2026-04-05T12:22:49.103Z</time></trkpt><trkpt lat="43.4285233" lon="11.139145"><ele>164.66666666666666</ele><time>2026-04-05T12:22:50.102Z</time></trkpt><trkpt lat="43.4283917" lon="11.13904"><ele>164.33333333333331</ele><time>2026-04-05T12:22:51.103Z</time></trkpt><trkpt lat="43.4282567" lon="11.138935"><ele>164.0</ele><time>2026-04-05T12:22:52.103Z</time></trkpt><trkpt lat="43.42812" lon="11.138825"><ele>164.0</ele><time>2026-04-05T12:22:53.103Z</time></trkpt><trkpt lat="43.427985" lon="11.1387117"><ele>164.0</ele><time>2026-04-05T12:22:54.103Z</time></trkpt><trkpt lat="43.4278517" lon="11.1385917"><ele>164.0</ele><time>2026-04-05T12:22:55.103Z</time></trkpt><trkpt lat="43.4277267" lon="11.138475"><ele>164.0</ele><time>2026-04-05T12:22:56.103Z</time></trkpt><trkpt lat="43.4276083" lon="11.1383617"><ele>164.0</ele><time>2026-04-05T12:22:57.103Z</time></trkpt><trkpt lat="43.427495" lon="11.1382517"><ele>164.0</ele><time>2026-04-05T12:22:58.103Z</time></trkpt><trkpt lat="43.4273883" lon="11.138145"><ele>164.0</ele><time>2026-04-05T12:22:59.103Z</time></trkpt><trkpt lat="43.427285" lon="11.138035"><ele>164.0</ele><time>2026-04-05T12:23:00.103Z</time></trkpt><trkpt lat="43.427185" lon="11.1379167"><ele>164.0</ele><time>2026-04-05T12:23:01.103Z</time></trkpt><trkpt lat="43.4270867" lon="11.13779"><ele>164.0</ele><time>2026-04-05T12:23:02.103Z</time></trkpt><trkpt lat="43.4269867" lon="11.1376583"><ele>164.0</ele><time>2026-04-05T12:23:03.103Z</time></trkpt><trkpt lat="43.426885" lon="11.1375217"><ele>163.25</ele><time>2026-04-05T12:23:04.102Z</time></trkpt><trkpt lat="43.42678" lon="11.1373833"><ele>162.5</ele><time>2026-04-05T12:23:05.103Z</time></trkpt><trkpt lat="43.4266733" lon="11.137245"><ele>161.75</ele><time>2026-04-05T12:23:06.103Z</time></trkpt><trkpt lat="43.4265667" lon="11.1371067"><ele>161.0</ele><time>2026-04-05T12:23:07.103Z</time></trkpt><trkpt lat="43.42646" lon="11.1369733"><ele>161.0</ele><time>2026-04-05T12:23:08.103Z</time></trkpt><trkpt lat="43.4263517" lon="11.1368417"><ele>161.0</ele><time>2026-04-05T12:23:09.103Z</time></trkpt><trkpt lat="43.4262417" lon="11.1367117"><ele>161.0</ele><time>2026-04-05T12:23:10.103Z</time></trkpt><trkpt lat="43.4261333" lon="11.1365833"><ele>161.0</ele><time>2026-04-05T12:23:11.103Z</time></trkpt><trkpt lat="43.42603" lon="11.136455"><ele>161.5</ele><time>2026-04-05T12:23:12.103Z</time></trkpt><trkpt lat="43.4259267" lon="11.1363283"><ele>162.0</ele><time>2026-04-05T12:23:13.103Z</time></trkpt><trkpt lat="43.4258267" lon="11.1361983"><ele>162.5</ele><time>2026-04-05T12:23:14.103Z</time></trkpt><trkpt lat="43.4257267" lon="11.13607"><ele>163.0</ele><time>2026-04-05T12:23:15.103Z</time></trkpt><trkpt lat="43.425625" lon="11.1359467"><ele>163.0</ele><time>2026-04-05T12:23:16.103Z</time></trkpt><trkpt lat="43.4255233" lon="11.1358217"><ele>163.0</ele><time>2026-04-05T12:23:17.103Z</time></trkpt><trkpt lat="43.4254217" lon="11.1357033"><ele>163.0</ele><time>2026-04-05T12:23:18.103Z</time></trkpt><trkpt lat="43.42532" lon="11.1355833"><ele>163.0</ele><time>2026-04-05T12:23:19.103Z</time></trkpt><trkpt lat="43.4252233" lon="11.1354633"><ele>163.5</ele><time>2026-04-05T12:23:20.103Z</time></trkpt><trkpt lat="43.4251267" lon="11.1353467"><ele>164.0</ele><time>2026-04-05T12:23:21.103Z</time></trkpt><trkpt lat="43.4250317" lon="11.1352267"><ele>164.5</ele><time>2026-04-05T12:23:22.102Z</time></trkpt><trkpt lat="43.4249367" lon="11.1351067"><ele>165.0</ele><time>2026-04-05T12:23:23.103Z</time></trkpt><trkpt lat="43.4248383" lon="11.1349883"><ele>165.0</ele><time>2026-04-05T12:23:24.103Z</time></trkpt><trkpt lat="43.42474" lon="11.134875"><ele>165.0</ele><time>2026-04-05T12:23:25.103Z</time></trkpt><trkpt lat="43.4246433" lon="11.1347583"><ele>165.0</ele><time>2026-04-05T12:23:26.103Z</time></trkpt><trkpt lat="43.42455" lon="11.1346367"><ele>165.0</ele><time>2026-04-05T12:23:27.103Z</time></trkpt><trkpt lat="43.4244583" lon="11.1345167"><ele>165.0</ele><time>2026-04-05T12:23:28.103Z</time></trkpt><trkpt lat="43.4243667" lon="11.134405"><ele>165.0</ele><time>2026-04-05T12:23:29.103Z</time></trkpt><trkpt lat="43.4242717" lon="11.134295"><ele>165.0</ele><time>2026-04-05T12:23:30.103Z</time></trkpt><trkpt lat="43.4241783" lon="11.1341833"><ele>165.0</ele><time>2026-04-05T12:23:31.103Z</time></trkpt><trkpt lat="43.4240833" lon="11.1340717"><ele>164.8</ele><time>2026-04-05T12:23:32.103Z</time></trkpt><trkpt lat="43.4239933" lon="11.13396"><ele>164.6</ele><time>2026-04-05T12:23:33.103Z</time></trkpt><trkpt lat="43.423915" lon="11.1338583"><ele>164.39999999999998</ele><time>2026-04-05T12:23:34.103Z</time></trkpt><trkpt lat="43.4238517" lon="11.133765"><ele>164.2</ele><time>2026-04-05T12:23:35.103Z</time></trkpt><trkpt lat="43.4237967" lon="11.1336683"><ele>164.0</ele><time>2026-04-05T12:23:36.103Z</time></trkpt><trkpt lat="43.4237517" lon="11.1335767"><ele>164.0</ele><time>2026-04-05T12:23:37.103Z</time></trkpt><trkpt lat="43.423705" lon="11.1335"><ele>164.0</ele><time>2026-04-05T12:23:38.103Z</time></trkpt><trkpt lat="43.42365" lon="11.133435"><ele>164.0</ele><time>2026-04-05T12:23:39.103Z</time></trkpt><trkpt lat="43.4235933" lon="11.1333667"><ele>164.0</ele><time>2026-04-05T12:23:40.103Z</time></trkpt><trkpt lat="43.4235333" lon="11.1332917"><ele>164.0</ele><time>2026-04-05T12:23:41.103Z</time></trkpt><trkpt lat="43.42347" lon="11.13321"><ele>164.0</ele><time>2026-04-05T12:23:42.103Z</time></trkpt><trkpt lat="43.423405" lon="11.133125"><ele>162.5</ele><time>2026-04-05T12:23:43.103Z</time></trkpt><trkpt lat="43.42334" lon="11.1330417"><ele>161.0</ele><time>2026-04-05T12:23:44.103Z</time></trkpt><trkpt lat="43.4232883" lon="11.1329617"><ele>159.5</ele><time>2026-04-05T12:23:45.103Z</time></trkpt><trkpt lat="43.42325" lon="11.132885"><ele>158.0</ele><time>2026-04-05T12:23:46.103Z</time></trkpt><trkpt lat="43.423235" lon="11.13275"><ele>156.5</ele><time>2026-04-05T12:23:48.103Z</time></trkpt><trkpt lat="43.423285" lon="11.1326383"><ele>155.0</ele><time>2026-04-05T12:23:50.103Z</time></trkpt><trkpt lat="43.42341" lon="11.132515"><ele>155.0</ele><time>2026-04-05T12:23:53.103Z</time></trkpt><trkpt lat="43.42348" lon="11.1324733"><ele>155.0</ele><time>2026-04-05T12:23:55.103Z</time></trkpt><trkpt lat="43.42357" lon="11.13246"><ele>155.0</ele><time>2026-04-05T12:24:04.103Z</time></trkpt><trkpt lat="43.4236983" lon="11.13246"><ele>155.0</ele><time>2026-04-05T12:24:06.103Z</time></trkpt><trkpt lat="43.42379" lon="11.1324583"><ele>155.0</ele><time>2026-04-05T12:24:07.103Z</time></trkpt><trkpt lat="43.4238833" lon="11.1324533"><ele>154.8</ele><time>2026-04-05T12:24:08.103Z</time></trkpt><trkpt lat="43.423985" lon="11.132435"><ele>154.6</ele><time>2026-04-05T12:24:09.103Z</time></trkpt><trkpt lat="43.424085" lon="11.1324067"><ele>154.4</ele><time>2026-04-05T12:24:10.103Z</time></trkpt><trkpt lat="43.42419" lon="11.1323717"><ele>154.2</ele><time>2026-04-05T12:24:11.103Z</time></trkpt><trkpt lat="43.4242917" lon="11.1323283"><ele>154.0</ele><time>2026-04-05T12:24:12.103Z</time></trkpt><trkpt lat="43.4243817" lon="11.13226"><ele>152.6</ele><time>2026-04-05T12:24:13.103Z</time></trkpt><trkpt lat="43.424455" lon="11.1321633"><ele>151.2</ele><time>2026-04-05T12:24:14.102Z</time></trkpt><trkpt lat="43.4245083" lon="11.1320467"><ele>149.79999999999998</ele><time>2026-04-05T12:24:15.103Z</time></trkpt><trkpt lat="43.4245317" lon="11.131915"><ele>148.4</ele><time>2026-04-05T12:24:16.103Z</time></trkpt><trkpt lat="43.42452" lon="11.131785"><ele>147.0</ele><time>2026-04-05T12:24:17.103Z</time></trkpt><trkpt lat="43.4244883" lon="11.1316567"><ele>147.0</ele><time>2026-04-05T12:24:18.103Z</time></trkpt><trkpt lat="43.4244317" lon="11.1315583"><ele>147.0</ele><time>2026-04-05T12:24:19.103Z</time></trkpt><trkpt lat="43.42434" lon="11.131475"><ele>147.0</ele><time>2026-04-05T12:24:20.103Z</time></trkpt><trkpt lat="43.4242333" lon="11.1313933"><ele>147.0</ele><time>2026-04-05T12:24:21.103Z</time></trkpt><trkpt lat="43.4241233" lon="11.13131"><ele>147.0</ele><time>2026-04-05T12:24:22.103Z</time></trkpt><trkpt lat="43.4240233" lon="11.1312267"><ele>145.25</ele><time>2026-04-05T12:24:23.103Z</time></trkpt><trkpt lat="43.4239267" lon="11.131135"><ele>143.5</ele><time>2026-04-05T12:24:24.103Z</time></trkpt><trkpt lat="43.4238367" lon="11.1310367"><ele>141.75</ele><time>2026-04-05T12:24:25.103Z</time></trkpt><trkpt lat="43.4237517" lon="11.130935"><ele>140.0</ele><time>2026-04-05T12:24:26.103Z</time></trkpt><trkpt lat="43.423665" lon="11.13083"><ele>138.8</ele><time>2026-04-05T12:24:27.103Z</time></trkpt><trkpt lat="43.423585" lon="11.130725"><ele>137.6</ele><time>2026-04-05T12:24:28.103Z</time></trkpt><trkpt lat="43.4235067" lon="11.1306233"><ele>136.4</ele><time>2026-04-05T12:24:29.103Z</time></trkpt><trkpt lat="43.4234333" lon="11.1305267"><ele>135.2</ele><time>2026-04-05T12:24:30.103Z</time></trkpt><trkpt lat="43.4233617" lon="11.130425"><ele>134.0</ele><time>2026-04-05T12:24:31.103Z</time></trkpt><trkpt lat="43.423285" lon="11.1303283"><ele>132.8</ele><time>2026-04-05T12:24:32.103Z</time></trkpt><trkpt lat="43.4232117" lon="11.13023"><ele>131.60000000000002</ele><time>2026-04-05T12:24:33.103Z</time></trkpt><trkpt lat="43.4231383" lon="11.13013"><ele>130.4</ele><time>2026-04-05T12:24:34.103Z</time></trkpt><trkpt lat="43.4230583" lon="11.130035"><ele>129.20000000000002</ele><time>2026-04-05T12:24:35.103Z</time></trkpt><trkpt lat="43.4229817" lon="11.1299467"><ele>128.0</ele><time>2026-04-05T12:24:36.103Z</time></trkpt><trkpt lat="43.4229083" lon="11.12987"><ele>130.33333333333331</ele><time>2026-04-05T12:24:37.103Z</time></trkpt><trkpt lat="43.4228417" lon="11.1297983"><ele>132.66666666666666</ele><time>2026-04-05T12:24:38.103Z</time></trkpt><trkpt lat="43.4227783" lon="11.1297283"><ele>135.0</ele><time>2026-04-05T12:24:39.103Z</time></trkpt><trkpt lat="43.4227133" lon="11.1296583"><ele>137.33333333333334</ele><time>2026-04-05T12:24:40.103Z</time></trkpt><trkpt lat="43.422655" lon="11.1295833"><ele>139.66666666666669</ele><time>2026-04-05T12:24:41.103Z</time></trkpt><trkpt lat="43.4226133" lon="11.1294983"><ele>142.0</ele><time>2026-04-05T12:24:42.103Z</time></trkpt><trkpt lat="43.4225867" lon="11.1294117"><ele>142.0</ele><time>2026-04-05T12:24:43.103Z</time></trkpt><trkpt lat="43.422585" lon="11.129235"><ele>142.0</ele><time>2026-04-05T12:24:45.103Z</time></trkpt><trkpt lat="43.4226017" lon="11.12914"><ele>142.0</ele><time>2026-04-05T12:24:46.103Z</time></trkpt><trkpt lat="43.4226217" lon="11.129045"><ele>142.0</ele><time>2026-04-05T12:24:47.103Z</time></trkpt><trkpt lat="43.42265" lon="11.1289467"><ele>142.0</ele><time>2026-04-05T12:24:48.103Z</time></trkpt><trkpt lat="43.4226817" lon="11.128845"><ele>142.0</ele><time>2026-04-05T12:24:49.103Z</time></trkpt><trkpt lat="43.4227217" lon="11.128745"><ele>142.0</ele><time>2026-04-05T12:24:50.103Z</time></trkpt><trkpt lat="43.4227633" lon="11.1286433"><ele>142.0</ele><time>2026-04-05T12:24:51.103Z</time></trkpt><trkpt lat="43.4228" lon="11.12854"><ele>142.0</ele><time>2026-04-05T12:24:52.103Z</time></trkpt><trkpt lat="43.4228333" lon="11.1284383"><ele>142.0</ele><time>2026-04-05T12:24:53.103Z</time></trkpt><trkpt lat="43.4228683" lon="11.1283367"><ele>142.0</ele><time>2026-04-05T12:24:54.103Z</time></trkpt><trkpt lat="43.4229" lon="11.128235"><ele>142.0</ele><time>2026-04-05T12:24:55.103Z</time></trkpt><trkpt lat="43.4229267" lon="11.12813"><ele>142.0</ele><time>2026-04-05T12:24:56.103Z</time></trkpt><trkpt lat="43.4229567" lon="11.128035"><ele>142.0</ele><time>2026-04-05T12:24:57.104Z</time></trkpt><trkpt lat="43.422985" lon="11.127945"><ele>142.0</ele><time>2026-04-05T12:24:58.104Z</time></trkpt><trkpt lat="43.4230183" lon="11.12787"><ele>142.0</ele><time>2026-04-05T12:24:59.104Z</time></trkpt><trkpt lat="43.42305" lon="11.12776"><ele>142.0</ele><time>2026-04-05T12:25:01.103Z</time></trkpt><trkpt lat="43.4230717" lon="11.1275633"><ele>142.0</ele><time>2026-04-05T12:25:09.104Z</time></trkpt><trkpt lat="43.4231167" lon="11.1274233"><ele>141.79999999999998</ele><time>2026-04-05T12:25:11.104Z</time></trkpt><trkpt lat="43.4231617" lon="11.127275"><ele>141.6</ele><time>2026-04-05T12:25:13.104Z</time></trkpt><trkpt lat="43.4232067" lon="11.1271217"><ele>141.39999999999998</ele><time>2026-04-05T12:25:15.103Z</time></trkpt><trkpt lat="43.4232317" lon="11.1270417"><ele>141.2</ele><time>2026-04-05T12:25:16.104Z</time></trkpt><trkpt lat="43.42326" lon="11.1269633"><ele>141.0</ele><time>2026-04-05T12:25:17.104Z</time></trkpt><trkpt lat="43.4233117" lon="11.1268317"><ele>141.0</ele><time>2026-04-05T12:25:19.104Z</time></trkpt><trkpt lat="43.4233283" lon="11.1267417"><ele>141.0</ele><time>2026-04-05T12:25:21.104Z</time></trkpt><trkpt lat="43.4233033" lon="11.1266483"><ele>141.0</ele><time>2026-04-05T12:25:25.104Z</time></trkpt><trkpt lat="43.42321" lon="11.1266317"><ele>141.0</ele><time>2026-04-05T12:25:28.104Z</time></trkpt><trkpt lat="43.4231133" lon="11.126635"><ele>141.0</ele><time>2026-04-05T12:25:30.104Z</time></trkpt><trkpt lat="43.4230067" lon="11.12665"><ele>141.0</ele><time>2026-04-05T12:25:32.104Z</time></trkpt><trkpt lat="43.4228983" lon="11.126675"><ele>141.33333333333334</ele><time>2026-04-05T12:25:34.104Z</time></trkpt><trkpt lat="43.4228067" lon="11.126685"><ele>141.66666666666666</ele><time>2026-04-05T12:25:36.104Z</time></trkpt><trkpt lat="43.4227167" lon="11.1267017"><ele>142.0</ele><time>2026-04-05T12:25:38.104Z</time></trkpt><trkpt lat="43.4226217" lon="11.1267133"><ele>142.33333333333331</ele><time>2026-04-05T12:25:40.104Z</time></trkpt><trkpt lat="43.4225417" lon="11.126715"><ele>142.66666666666666</ele><time>2026-04-05T12:25:42.104Z</time></trkpt><trkpt lat="43.4224733" lon="11.1267233"><ele>143.0</ele><time>2026-04-05T12:25:45.104Z</time></trkpt><trkpt lat="43.4223733" lon="11.1267317"><ele>143.0</ele><time>2026-04-05T12:25:53.104Z</time></trkpt><trkpt lat="43.422305" lon="11.1267433"><ele>143.0</ele><time>2026-04-05T12:25:55.103Z</time></trkpt><trkpt lat="43.422225" lon="11.1267517"><ele>143.0</ele><time>2026-04-05T12:25:58.104Z</time></trkpt><trkpt lat="43.4221467" lon="11.1267633"><ele>143.0</ele><time>2026-04-05T12:26:00.104Z</time></trkpt><trkpt lat="43.4220417" lon="11.1267733"><ele>143.0</ele><time>2026-04-05T12:26:02.104Z</time></trkpt><trkpt lat="43.4219367" lon="11.1267883"><ele>143.0</ele><time>2026-04-05T12:26:04.104Z</time></trkpt><trkpt lat="43.4218267" lon="11.1267983"><ele>143.5</ele><time>2026-04-05T12:26:06.104Z</time></trkpt><trkpt lat="43.4217117" lon="11.1268067"><ele>144.0</ele><time>2026-04-05T12:26:08.104Z</time></trkpt><trkpt lat="43.4215933" lon="11.1268267"><ele>144.5</ele><time>2026-04-05T12:26:10.104Z</time></trkpt><trkpt lat="43.421525" lon="11.126835"><ele>145.0</ele><time>2026-04-05T12:26:11.104Z</time></trkpt><trkpt lat="43.4214517" lon="11.1268417"><ele>145.5</ele><time>2026-04-05T12:26:12.104Z</time></trkpt><trkpt lat="43.4213817" lon="11.1268467"><ele>146.0</ele><time>2026-04-05T12:26:13.104Z</time></trkpt><trkpt lat="43.4213117" lon="11.1268483"><ele>146.6</ele><time>2026-04-05T12:26:14.104Z</time></trkpt><trkpt lat="43.4212417" lon="11.1268583"><ele>147.2</ele><time>2026-04-05T12:26:15.104Z</time></trkpt><trkpt lat="43.42115" lon="11.1268583"><ele>147.8</ele><time>2026-04-05T12:26:17.104Z</time></trkpt><trkpt lat="43.421065" lon="11.1268533"><ele>148.4</ele><time>2026-04-05T12:26:20.104Z</time></trkpt><trkpt lat="43.4209733" lon="11.1268667"><ele>149.0</ele><time>2026-04-05T12:26:22.104Z</time></trkpt><trkpt lat="43.4208567" lon="11.1268783"><ele>149.0</ele><time>2026-04-05T12:26:24.104Z</time></trkpt><trkpt lat="43.4207333" lon="11.12688"><ele>149.0</ele><time>2026-04-05T12:26:26.104Z</time></trkpt><trkpt lat="43.4206617" lon="11.1268917"><ele>149.0</ele><time>2026-04-05T12:26:27.104Z</time></trkpt><trkpt lat="43.420585" lon="11.1268983"><ele>149.0</ele><time>2026-04-05T12:26:28.104Z</time></trkpt><trkpt lat="43.4205083" lon="11.1269067"><ele>149.0</ele><time>2026-04-05T12:26:29.103Z</time></trkpt><trkpt lat="43.4204317" lon="11.1269133"><ele>149.0</ele><time>2026-04-05T12:26:30.104Z</time></trkpt><trkpt lat="43.4203633" lon="11.1269233"><ele>149.6</ele><time>2026-04-05T12:26:31.104Z</time></trkpt><trkpt lat="43.4202967" lon="11.1269283"><ele>150.2</ele><time>2026-04-05T12:26:32.104Z</time></trkpt><trkpt lat="43.42018" lon="11.1269517"><ele>150.79999999999998</ele><time>2026-04-05T12:26:34.104Z</time></trkpt><trkpt lat="43.4200833" lon="11.12698"><ele>151.4</ele><time>2026-04-05T12:26:36.104Z</time></trkpt><trkpt lat="43.4200133" lon="11.127085"><ele>152.0</ele><time>2026-04-05T12:26:38.104Z</time></trkpt><trkpt lat="43.4199317" lon="11.1271883"><ele>152.0</ele><time>2026-04-05T12:26:40.104Z</time></trkpt><trkpt lat="43.41989" lon="11.127255"><ele>152.0</ele><time>2026-04-05T12:26:41.104Z</time></trkpt><trkpt lat="43.419845" lon="11.127325"><ele>152.0</ele><time>2026-04-05T12:26:42.104Z</time></trkpt><trkpt lat="43.4197933" lon="11.1273983"><ele>152.0</ele><time>2026-04-05T12:26:43.104Z</time></trkpt><trkpt lat="43.4197367" lon="11.12747"><ele>152.0</ele><time>2026-04-05T12:26:44.104Z</time></trkpt><trkpt lat="43.4196883" lon="11.1275367"><ele>152.0</ele><time>2026-04-05T12:26:45.104Z</time></trkpt><trkpt lat="43.4196367" lon="11.12761"><ele>152.0</ele><time>2026-04-05T12:26:46.103Z</time></trkpt><trkpt lat="43.4195783" lon="11.127685"><ele>152.16666666666666</ele><time>2026-04-05T12:26:47.104Z</time></trkpt><trkpt lat="43.4195183" lon="11.1277583"><ele>152.33333333333331</ele><time>2026-04-05T12:26:48.104Z</time></trkpt><trkpt lat="43.419465" lon="11.1278383"><ele>152.5</ele><time>2026-04-05T12:26:49.104Z</time></trkpt><trkpt lat="43.4194083" lon="11.1279183"><ele>152.66666666666666</ele><time>2026-04-05T12:26:50.104Z</time></trkpt><trkpt lat="43.4193567" lon="11.127995"><ele>152.83333333333334</ele><time>2026-04-05T12:26:51.104Z</time></trkpt><trkpt lat="43.4192717" lon="11.1281133"><ele>153.0</ele><time>2026-04-05T12:26:53.104Z</time></trkpt><trkpt lat="43.4191867" lon="11.1282333"><ele>153.28571428571428</ele><time>2026-04-05T12:26:55.104Z</time></trkpt><trkpt lat="43.4191367" lon="11.128295"><ele>153.57142857142858</ele><time>2026-04-05T12:26:56.104Z</time></trkpt><trkpt lat="43.41909" lon="11.1283667"><ele>153.85714285714286</ele><time>2026-04-05T12:26:57.104Z</time></trkpt><trkpt lat="43.419045" lon="11.1284367"><ele>154.14285714285714</ele><time>2026-04-05T12:26:58.104Z</time></trkpt><trkpt lat="43.4189967" lon="11.1285"><ele>154.42857142857142</ele><time>2026-04-05T12:26:59.104Z</time></trkpt><trkpt lat="43.418945" lon="11.12856"><ele>154.71428571428572</ele><time>2026-04-05T12:27:00.104Z</time></trkpt><trkpt lat="43.4188967" lon="11.1286183"><ele>155.0</ele><time>2026-04-05T12:27:01.104Z</time></trkpt><trkpt lat="43.41885" lon="11.1286833"><ele>155.42857142857144</ele><time>2026-04-05T12:27:02.104Z</time></trkpt><trkpt lat="43.4187983" lon="11.1287483"><ele>155.85714285714286</ele><time>2026-04-05T12:27:03.104Z</time></trkpt><trkpt lat="43.4187483" lon="11.128815"><ele>156.28571428571428</ele><time>2026-04-05T12:27:04.104Z</time></trkpt><trkpt lat="43.4186967" lon="11.1288833"><ele>156.71428571428572</ele><time>2026-04-05T12:27:05.104Z</time></trkpt><trkpt lat="43.4186467" lon="11.12895"><ele>157.14285714285714</ele><time>2026-04-05T12:27:06.104Z</time></trkpt><trkpt lat="43.4185967" lon="11.1290183"><ele>157.57142857142858</ele><time>2026-04-05T12:27:07.104Z</time></trkpt><trkpt lat="43.41855" lon="11.129085"><ele>158.0</ele><time>2026-04-05T12:27:08.104Z</time></trkpt><trkpt lat="43.4184933" lon="11.1291433"><ele>158.16666666666666</ele><time>2026-04-05T12:27:09.104Z</time></trkpt><trkpt lat="43.418445" lon="11.1292067"><ele>158.33333333333331</ele><time>2026-04-05T12:27:10.104Z</time></trkpt><trkpt lat="43.4183967" lon="11.129275"><ele>158.5</ele><time>2026-04-05T12:27:11.104Z</time></trkpt><trkpt lat="43.4183433" lon="11.1293517"><ele>158.66666666666666</ele><time>2026-04-05T12:27:12.104Z</time></trkpt><trkpt lat="43.4182883" lon="11.1294317"><ele>158.83333333333334</ele><time>2026-04-05T12:27:13.104Z</time></trkpt><trkpt lat="43.41823" lon="11.129505"><ele>159.0</ele><time>2026-04-05T12:27:14.104Z</time></trkpt><trkpt lat="43.41817" lon="11.129585"><ele>159.0</ele><time>2026-04-05T12:27:15.104Z</time></trkpt><trkpt lat="43.418105" lon="11.1296667"><ele>159.0</ele><time>2026-04-05T12:27:16.104Z</time></trkpt><trkpt lat="43.4180417" lon="11.1297567"><ele>159.0</ele><time>2026-04-05T12:27:17.104Z</time></trkpt><trkpt lat="43.41798" lon="11.1298467"><ele>159.0</ele><time>2026-04-05T12:27:18.104Z</time></trkpt><trkpt lat="43.4179133" lon="11.129935"><ele>159.0</ele><time>2026-04-05T12:27:19.104Z</time></trkpt><trkpt lat="43.4178517" lon="11.1300267"><ele>160.83333333333334</ele><time>2026-04-05T12:27:20.104Z</time></trkpt><trkpt lat="43.4177917" lon="11.1301167"><ele>162.66666666666666</ele><time>2026-04-05T12:27:21.104Z</time></trkpt><trkpt lat="43.417735" lon="11.130205"><ele>164.5</ele><time>2026-04-05T12:27:22.104Z</time></trkpt><trkpt lat="43.4176767" lon="11.1302867"><ele>166.33333333333331</ele><time>2026-04-05T12:27:23.104Z</time></trkpt><trkpt lat="43.4176233" lon="11.1303633"><ele>168.16666666666666</ele><time>2026-04-05T12:27:24.103Z</time></trkpt><trkpt lat="43.4175733" lon="11.130435"><ele>170.0</ele><time>2026-04-05T12:27:25.103Z</time></trkpt><trkpt lat="43.41752" lon="11.1305033"><ele>170.0</ele><time>2026-04-05T12:27:26.104Z</time></trkpt><trkpt lat="43.417465" lon="11.1305683"><ele>170.0</ele><time>2026-04-05T12:27:27.104Z</time></trkpt><trkpt lat="43.41738" lon="11.1306417"><ele>170.0</ele><time>2026-04-05T12:27:29.104Z</time></trkpt><trkpt lat="43.4172967" lon="11.1307533"><ele>170.0</ele><time>2026-04-05T12:30:23.103Z</time></trkpt><trkpt lat="43.4173217" lon="11.1308417"><ele>170.0</ele><time>2026-04-05T12:30:27.103Z</time></trkpt><trkpt lat="43.417385" lon="11.13088"><ele>170.0</ele><time>2026-04-05T12:30:30.103Z</time></trkpt><trkpt lat="43.417495" lon="11.13088"><ele>169.0</ele><time>2026-04-05T12:30:32.103Z</time></trkpt><trkpt lat="43.41757" lon="11.1308567"><ele>168.0</ele><time>2026-04-05T12:30:33.103Z</time></trkpt><trkpt lat="43.4176467" lon="11.1308333"><ele>167.0</ele><time>2026-04-05T12:30:34.103Z</time></trkpt><trkpt lat="43.4177333" lon="11.130815"><ele>166.0</ele><time>2026-04-05T12:30:35.103Z</time></trkpt><trkpt lat="43.41782" lon="11.1307967"><ele>165.0</ele><time>2026-04-05T12:30:36.103Z</time></trkpt><trkpt lat="43.417905" lon="11.1307733"><ele>164.0</ele><time>2026-04-05T12:30:37.103Z</time></trkpt><trkpt lat="43.417995" lon="11.130755"><ele>163.39999999999998</ele><time>2026-04-05T12:30:38.103Z</time></trkpt><trkpt lat="43.4180883" lon="11.1307367"><ele>162.8</ele><time>2026-04-05T12:30:39.103Z</time></trkpt><trkpt lat="43.4181783" lon="11.13072"><ele>162.2</ele><time>2026-04-05T12:30:40.103Z</time></trkpt><trkpt lat="43.41827" lon="11.130695"><ele>161.60000000000002</ele><time>2026-04-05T12:30:41.103Z</time></trkpt><trkpt lat="43.41836" lon="11.1306733"><ele>161.0</ele><time>2026-04-05T12:30:42.103Z</time></trkpt><trkpt lat="43.4184533" lon="11.13065"><ele>160.5</ele><time>2026-04-05T12:30:43.102Z</time></trkpt><trkpt lat="43.4185467" lon="11.130615"><ele>160.0</ele><time>2026-04-05T12:30:44.103Z</time></trkpt><trkpt lat="43.4186433" lon="11.1305783"><ele>159.5</ele><time>2026-04-05T12:30:45.103Z</time></trkpt><trkpt lat="43.4187367" lon="11.13053"><ele>159.0</ele><time>2026-04-05T12:30:46.103Z</time></trkpt><trkpt lat="43.4190283" lon="11.1303717"><ele>159.0</ele><time>2026-04-05T12:30:49.103Z</time></trkpt><trkpt lat="43.4191217" lon="11.1303167"><ele>159.0</ele><time>2026-04-05T12:30:50.103Z</time></trkpt><trkpt lat="43.419215" lon="11.1302617"><ele>159.0</ele><time>2026-04-05T12:30:51.103Z</time></trkpt><trkpt lat="43.4193083" lon="11.13021"><ele>159.0</ele><time>2026-04-05T12:30:52.103Z</time></trkpt><trkpt lat="43.419395" lon="11.13015"><ele>159.0</ele><time>2026-04-05T12:30:53.102Z</time></trkpt><trkpt lat="43.4194867" lon="11.1301083"><ele>159.0</ele><time>2026-04-05T12:30:54.103Z</time></trkpt><trkpt lat="43.4195767" lon="11.1300633"><ele>159.0</ele><time>2026-04-05T12:30:55.103Z</time></trkpt><trkpt lat="43.4196633" lon="11.1300167"><ele>159.0</ele><time>2026-04-05T12:30:56.103Z</time></trkpt><trkpt lat="43.419755" lon="11.1299733"><ele>159.0</ele><time>2026-04-05T12:30:57.103Z</time></trkpt><trkpt lat="43.4198533" lon="11.12993"><ele>159.0</ele><time>2026-04-05T12:30:58.102Z</time></trkpt><trkpt lat="43.4199517" lon="11.129885"><ele>158.2</ele><time>2026-04-05T12:30:59.103Z</time></trkpt><trkpt lat="43.4200433" lon="11.1298417"><ele>157.4</ele><time>2026-04-05T12:31:00.103Z</time></trkpt><trkpt lat="43.4201317" lon="11.1298017"><ele>156.6</ele><time>2026-04-05T12:31:01.103Z</time></trkpt><trkpt lat="43.4202217" lon="11.1297517"><ele>155.8</ele><time>2026-04-05T12:31:02.103Z</time></trkpt><trkpt lat="43.4203133" lon="11.1296967"><ele>155.0</ele><time>2026-04-05T12:31:03.103Z</time></trkpt><trkpt lat="43.4204083" lon="11.129645"><ele>154.2</ele><time>2026-04-05T12:31:04.103Z</time></trkpt><trkpt lat="43.4205033" lon="11.1295933"><ele>153.4</ele><time>2026-04-05T12:31:05.103Z</time></trkpt><trkpt lat="43.4206017" lon="11.1295383"><ele>152.6</ele><time>2026-04-05T12:31:06.103Z</time></trkpt><trkpt lat="43.4207017" lon="11.12949"><ele>151.8</ele><time>2026-04-05T12:31:07.103Z</time></trkpt><trkpt lat="43.420795" lon="11.1294367"><ele>151.0</ele><time>2026-04-05T12:31:08.102Z</time></trkpt><trkpt lat="43.4209667" lon="11.1293417"><ele>151.0</ele><time>2026-04-05T12:31:10.103Z</time></trkpt><trkpt lat="43.42105" lon="11.129295"><ele>151.0</ele><time>2026-04-05T12:31:11.103Z</time></trkpt><trkpt lat="43.42113" lon="11.1292483"><ele>151.0</ele><time>2026-04-05T12:31:12.103Z</time></trkpt><trkpt lat="43.421205" lon="11.1291983"><ele>151.0</ele><time>2026-04-05T12:31:13.103Z</time></trkpt><trkpt lat="43.421275" lon="11.1291467"><ele>151.0</ele><time>2026-04-05T12:31:14.103Z</time></trkpt><trkpt lat="43.4213433" lon="11.129105"><ele>151.0</ele><time>2026-04-05T12:31:15.103Z</time></trkpt><trkpt lat="43.42141" lon="11.1290633"><ele>150.0</ele><time>2026-04-05T12:31:16.103Z</time></trkpt><trkpt lat="43.4214783" lon="11.129025"><ele>149.0</ele><time>2026-04-05T12:31:17.103Z</time></trkpt><trkpt lat="43.4215433" lon="11.1289883"><ele>148.0</ele><time>2026-04-05T12:31:18.103Z</time></trkpt><trkpt lat="43.421635" lon="11.1289333"><ele>147.0</ele><time>2026-04-05T12:31:20.103Z</time></trkpt><trkpt lat="43.4217317" lon="11.1289167"><ele>146.0</ele><time>2026-04-05T12:31:22.103Z</time></trkpt><trkpt lat="43.421835" lon="11.1289817"><ele>146.0</ele><time>2026-04-05T12:31:24.103Z</time></trkpt><trkpt lat="43.4218917" lon="11.129035"><ele>146.0</ele><time>2026-04-05T12:31:25.103Z</time></trkpt><trkpt lat="43.4219583" lon="11.129095"><ele>146.0</ele><time>2026-04-05T12:31:26.103Z</time></trkpt><trkpt lat="43.42203" lon="11.12915"><ele>146.0</ele><time>2026-04-05T12:31:27.103Z</time></trkpt><trkpt lat="43.422105" lon="11.1292017"><ele>146.0</ele><time>2026-04-05T12:31:28.103Z</time></trkpt><trkpt lat="43.42217" lon="11.12926"><ele>146.0</ele><time>2026-04-05T12:31:29.102Z</time></trkpt><trkpt lat="43.4222317" lon="11.1293167"><ele>145.2</ele><time>2026-04-05T12:31:30.103Z</time></trkpt><trkpt lat="43.4222917" lon="11.1293633"><ele>144.39999999999998</ele><time>2026-04-05T12:31:31.103Z</time></trkpt><trkpt lat="43.42238" lon="11.129435"><ele>143.6</ele><time>2026-04-05T12:31:33.103Z</time></trkpt><trkpt lat="43.42248" lon="11.1294933"><ele>142.79999999999998</ele><time>2026-04-05T12:31:51.103Z</time></trkpt><trkpt lat="43.4225417" lon="11.1294117"><ele>142.0</ele><time>2026-04-05T12:31:54.103Z</time></trkpt><trkpt lat="43.422565" lon="11.1292783"><ele>142.0</ele><time>2026-04-05T12:31:56.103Z</time></trkpt><trkpt lat="43.4225967" lon="11.129135"><ele>142.0</ele><time>2026-04-05T12:31:58.103Z</time></trkpt><trkpt lat="43.4226217" lon="11.1290533"><ele>142.0</ele><time>2026-04-05T12:31:59.103Z</time></trkpt><trkpt lat="43.4226483" lon="11.1289667"><ele>142.0</ele><time>2026-04-05T12:32:00.103Z</time></trkpt><trkpt lat="43.4226733" lon="11.1288783"><ele>142.0</ele><time>2026-04-05T12:32:01.103Z</time></trkpt><trkpt lat="43.4227067" lon="11.1287833"><ele>142.0</ele><time>2026-04-05T12:32:02.102Z</time></trkpt><trkpt lat="43.42274" lon="11.1286833"><ele>142.0</ele><time>2026-04-05T12:32:03.103Z</time></trkpt><trkpt lat="43.4227783" lon="11.12858"><ele>142.0</ele><time>2026-04-05T12:32:04.103Z</time></trkpt><trkpt lat="43.4228083" lon="11.128475"><ele>142.0</ele><time>2026-04-05T12:32:05.103Z</time></trkpt><trkpt lat="43.4228433" lon="11.1283683"><ele>142.0</ele><time>2026-04-05T12:32:06.103Z</time></trkpt><trkpt lat="43.4228783" lon="11.1282667"><ele>142.0</ele><time>2026-04-05T12:32:07.103Z</time></trkpt><trkpt lat="43.4229017" lon="11.1281717"><ele>142.0</ele><time>2026-04-05T12:32:08.103Z</time></trkpt><trkpt lat="43.4229233" lon="11.12809"><ele>142.0</ele><time>2026-04-05T12:32:09.103Z</time></trkpt><trkpt lat="43.4229733" lon="11.1280183"><ele>142.0</ele><time>2026-04-05T12:32:11.103Z</time></trkpt><trkpt lat="43.4229633" lon="11.127855"><ele>142.0</ele><time>2026-04-05T12:33:22.103Z</time></trkpt><trkpt lat="43.4230017" lon="11.127735"><ele>142.0</ele><time>2026-04-05T12:33:24.103Z</time></trkpt><trkpt lat="43.423055" lon="11.1276483"><ele>142.0</ele><time>2026-04-05T12:33:26.103Z</time></trkpt><trkpt lat="43.4231133" lon="11.1275967"><ele>142.0</ele><time>2026-04-05T12:33:28.103Z</time></trkpt><trkpt lat="43.4231767" lon="11.1276"><ele>141.79999999999998</ele><time>2026-04-05T12:33:29.103Z</time></trkpt><trkpt lat="43.4233017" lon="11.1275833"><ele>141.6</ele><time>2026-04-05T12:33:31.102Z</time></trkpt><trkpt lat="43.42338" lon="11.1275667"><ele>141.39999999999998</ele><time>2026-04-05T12:33:32.103Z</time></trkpt><trkpt lat="43.4234567" lon="11.12755"><ele>141.2</ele><time>2026-04-05T12:33:33.103Z</time></trkpt><trkpt lat="43.423545" lon="11.1275333"><ele>141.0</ele><time>2026-04-05T12:33:34.103Z</time></trkpt><trkpt lat="43.423645" lon="11.1275183"><ele>141.0</ele><time>2026-04-05T12:33:35.103Z</time></trkpt><trkpt lat="43.4237517" lon="11.1275033"><ele>141.0</ele><time>2026-04-05T12:33:36.103Z</time></trkpt><trkpt lat="43.4238583" lon="11.127475"><ele>141.0</ele><time>2026-04-05T12:33:37.103Z</time></trkpt><trkpt lat="43.423955" lon="11.12743"><ele>141.0</ele><time>2026-04-05T12:33:38.103Z</time></trkpt><trkpt lat="43.424055" lon="11.1273733"><ele>141.0</ele><time>2026-04-05T12:33:39.103Z</time></trkpt><trkpt lat="43.4241467" lon="11.1273067"><ele>140.4</ele><time>2026-04-05T12:33:40.103Z</time></trkpt><trkpt lat="43.4242283" lon="11.127225"><ele>139.8</ele><time>2026-04-05T12:33:41.103Z</time></trkpt><trkpt lat="43.4242983" lon="11.1271317"><ele>139.20000000000002</ele><time>2026-04-05T12:33:42.102Z</time></trkpt><trkpt lat="43.424365" lon="11.127025"><ele>138.6</ele><time>2026-04-05T12:33:43.103Z</time></trkpt><trkpt lat="43.4244317" lon="11.12692"><ele>138.0</ele><time>2026-04-05T12:33:44.102Z</time></trkpt><trkpt lat="43.4245033" lon="11.126805"><ele>138.0</ele><time>2026-04-05T12:33:45.102Z</time></trkpt><trkpt lat="43.4245717" lon="11.1267"><ele>138.0</ele><time>2026-04-05T12:33:46.103Z</time></trkpt><trkpt lat="43.4246383" lon="11.1265933"><ele>138.0</ele><time>2026-04-05T12:33:47.103Z</time></trkpt><trkpt lat="43.424705" lon="11.1264883"><ele>138.0</ele><time>2026-04-05T12:33:48.103Z</time></trkpt><trkpt lat="43.4247717" lon="11.1263867"><ele>138.0</ele><time>2026-04-05T12:33:49.103Z</time></trkpt><trkpt lat="43.424835" lon="11.12629"><ele>138.66666666666666</ele><time>2026-04-05T12:33:50.102Z</time></trkpt><trkpt lat="43.4248883" lon="11.1262183"><ele>139.33333333333334</ele><time>2026-04-05T12:33:51.103Z</time></trkpt><trkpt lat="43.4249483" lon="11.1261367"><ele>140.0</ele><time>2026-04-05T12:33:53.103Z</time></trkpt><trkpt lat="43.4249867" lon="11.1260667"><ele>140.66666666666669</ele><time>2026-04-05T12:33:55.103Z</time></trkpt><trkpt lat="43.42507" lon="11.1260067"><ele>141.33333333333334</ele><time>2026-04-05T12:33:57.103Z</time></trkpt><trkpt lat="43.4251567" lon="11.1258867"><ele>142.0</ele><time>2026-04-05T12:33:59.103Z</time></trkpt><trkpt lat="43.425185" lon="11.12579"><ele>142.0</ele><time>2026-04-05T12:34:00.103Z</time></trkpt><trkpt lat="43.4252017" lon="11.1256867"><ele>142.0</ele><time>2026-04-05T12:34:01.103Z</time></trkpt><trkpt lat="43.4252133" lon="11.1255733"><ele>142.0</ele><time>2026-04-05T12:34:02.103Z</time></trkpt><trkpt lat="43.42522" lon="11.125455"><ele>142.0</ele><time>2026-04-05T12:34:03.103Z</time></trkpt><trkpt lat="43.4252233" lon="11.12533"><ele>142.0</ele><time>2026-04-05T12:34:04.103Z</time></trkpt><trkpt lat="43.42522" lon="11.1251983"><ele>142.0</ele><time>2026-04-05T12:34:05.103Z</time></trkpt><trkpt lat="43.4252183" lon="11.12506"><ele>142.0</ele><time>2026-04-05T12:34:06.103Z</time></trkpt><trkpt lat="43.425215" lon="11.12492"><ele>142.0</ele><time>2026-04-05T12:34:07.103Z</time></trkpt><trkpt lat="43.4252083" lon="11.1247817"><ele>142.0</ele><time>2026-04-05T12:34:08.103Z</time></trkpt><trkpt lat="43.4252" lon="11.124645"><ele>142.0</ele><time>2026-04-05T12:34:09.103Z</time></trkpt><trkpt lat="43.42519" lon="11.1245"><ele>142.0</ele><time>2026-04-05T12:34:10.103Z</time></trkpt><trkpt lat="43.4251867" lon="11.1243517"><ele>143.0</ele><time>2026-04-05T12:34:11.103Z</time></trkpt><trkpt lat="43.4251817" lon="11.12419"><ele>144.0</ele><time>2026-04-05T12:34:12.103Z</time></trkpt><trkpt lat="43.4251767" lon="11.1240217"><ele>145.0</ele><time>2026-04-05T12:34:13.103Z</time></trkpt><trkpt lat="43.425175" lon="11.1238467"><ele>146.0</ele><time>2026-04-05T12:34:14.103Z</time></trkpt><trkpt lat="43.4251717" lon="11.1236733"><ele>148.25</ele><time>2026-04-05T12:34:15.103Z</time></trkpt><trkpt lat="43.42517" lon="11.1235033"><ele>150.5</ele><time>2026-04-05T12:34:16.103Z</time></trkpt><trkpt lat="43.425165" lon="11.123335"><ele>152.75</ele><time>2026-04-05T12:34:17.103Z</time></trkpt><trkpt lat="43.425135" lon="11.1231733"><ele>155.0</ele><time>2026-04-05T12:34:18.103Z</time></trkpt><trkpt lat="43.4250833" lon="11.1230167"><ele>158.5</ele><time>2026-04-05T12:34:19.102Z</time></trkpt><trkpt lat="43.4250217" lon="11.1228667"><ele>162.0</ele><time>2026-04-05T12:34:20.102Z</time></trkpt><trkpt lat="43.4249583" lon="11.12271"><ele>165.5</ele><time>2026-04-05T12:34:21.103Z</time></trkpt><trkpt lat="43.4248917" lon="11.1225517"><ele>169.0</ele><time>2026-04-05T12:34:22.103Z</time></trkpt><trkpt lat="43.4248217" lon="11.1223933"><ele>168.0</ele><time>2026-04-05T12:34:23.102Z</time></trkpt><trkpt lat="43.4247533" lon="11.1222333"><ele>167.0</ele><time>2026-04-05T12:34:24.103Z</time></trkpt><trkpt lat="43.4246833" lon="11.1220733"><ele>166.0</ele><time>2026-04-05T12:34:25.103Z</time></trkpt><trkpt lat="43.4246083" lon="11.1219133"><ele>165.0</ele><time>2026-04-05T12:34:26.102Z</time></trkpt><trkpt lat="43.424535" lon="11.12175"><ele>165.0</ele><time>2026-04-05T12:34:27.103Z</time></trkpt><trkpt lat="43.4244683" lon="11.1215867"><ele>165.0</ele><time>2026-04-05T12:34:28.102Z</time></trkpt><trkpt lat="43.4244017" lon="11.1214183"><ele>165.0</ele><time>2026-04-05T12:34:29.103Z</time></trkpt><trkpt lat="43.4243433" lon="11.1212433"><ele>165.0</ele><time>2026-04-05T12:34:30.103Z</time></trkpt><trkpt lat="43.4242867" lon="11.1210683"><ele>167.25</ele><time>2026-04-05T12:34:31.103Z</time></trkpt><trkpt lat="43.4242333" lon="11.120895"><ele>169.5</ele><time>2026-04-05T12:34:32.103Z</time></trkpt><trkpt lat="43.42418" lon="11.12072"><ele>171.75</ele><time>2026-04-05T12:34:33.103Z</time></trkpt><trkpt lat="43.4241267" lon="11.1205467"><ele>174.0</ele><time>2026-04-05T12:34:34.103Z</time></trkpt><trkpt lat="43.4240667" lon="11.1203733"><ele>176.5</ele><time>2026-04-05T12:34:35.103Z</time></trkpt><trkpt lat="43.4240017" lon="11.1202033"><ele>179.0</ele><time>2026-04-05T12:34:36.103Z</time></trkpt><trkpt lat="43.4239267" lon="11.1200433"><ele>181.5</ele><time>2026-04-05T12:34:37.103Z</time></trkpt><trkpt lat="43.4238417" lon="11.119895"><ele>184.0</ele><time>2026-04-05T12:34:38.103Z</time></trkpt><trkpt lat="43.4237467" lon="11.119755"><ele>184.0</ele><time>2026-04-05T12:34:39.103Z</time></trkpt><trkpt lat="43.4236517" lon="11.1196117"><ele>184.0</ele><time>2026-04-05T12:34:40.103Z</time></trkpt><trkpt lat="43.4235633" lon="11.119465"><ele>184.0</ele><time>2026-04-05T12:34:41.104Z</time></trkpt><trkpt lat="43.4234917" lon="11.1193067"><ele>184.0</ele><time>2026-04-05T12:34:42.104Z</time></trkpt><trkpt lat="43.4234217" lon="11.1191467"><ele>187.0</ele><time>2026-04-05T12:34:43.104Z</time></trkpt><trkpt lat="43.423345" lon="11.1189867"><ele>190.0</ele><time>2026-04-05T12:34:44.104Z</time></trkpt><trkpt lat="43.4232533" lon="11.11885"><ele>193.0</ele><time>2026-04-05T12:34:45.104Z</time></trkpt><trkpt lat="43.4231467" lon="11.1187433"><ele>196.0</ele><time>2026-04-05T12:34:46.104Z</time></trkpt><trkpt lat="43.4230483" lon="11.1186417"><ele>195.4</ele><time>2026-04-05T12:34:47.104Z</time></trkpt><trkpt lat="43.4229717" lon="11.1185267"><ele>194.8</ele><time>2026-04-05T12:34:48.104Z</time></trkpt><trkpt lat="43.422915" lon="11.1183967"><ele>194.20000000000002</ele><time>2026-04-05T12:34:49.104Z</time></trkpt><trkpt lat="43.4228833" lon="11.1182517"><ele>193.60000000000002</ele><time>2026-04-05T12:34:50.104Z</time></trkpt><trkpt lat="43.422845" lon="11.1181083"><ele>193.0</ele><time>2026-04-05T12:34:51.104Z</time></trkpt><trkpt lat="43.422795" lon="11.11798"><ele>193.0</ele><time>2026-04-05T12:34:52.104Z</time></trkpt><trkpt lat="43.4227217" lon="11.1178883"><ele>193.0</ele><time>2026-04-05T12:34:53.104Z</time></trkpt><trkpt lat="43.4226433" lon="11.117815"><ele>193.0</ele><time>2026-04-05T12:34:54.104Z</time></trkpt><trkpt lat="43.4225633" lon="11.1177567"><ele>193.0</ele><time>2026-04-05T12:34:55.104Z</time></trkpt><trkpt lat="43.4224967" lon="11.1176883"><ele>193.0</ele><time>2026-04-05T12:34:56.104Z</time></trkpt><trkpt lat="43.422445" lon="11.1176"><ele>192.99999999999997</ele><time>2026-04-05T12:34:57.104Z</time></trkpt><trkpt lat="43.4224017" lon="11.1174983"><ele>193.0</ele><time>2026-04-05T12:34:58.104Z</time></trkpt><trkpt lat="43.4223733" lon="11.117385"><ele>193.0</ele><time>2026-04-05T12:34:59.104Z</time></trkpt><trkpt lat="43.4223517" lon="11.1172683"><ele>193.0</ele><time>2026-04-05T12:35:00.104Z</time></trkpt><trkpt lat="43.4223267" lon="11.1171483"><ele>192.99999999999997</ele><time>2026-04-05T12:35:01.104Z</time></trkpt><trkpt lat="43.4222967" lon="11.1170283"><ele>193.0</ele><time>2026-04-05T12:35:02.104Z</time></trkpt><trkpt lat="43.4222617" lon="11.1169133"><ele>194.33333333333331</ele><time>2026-04-05T12:35:03.104Z</time></trkpt><trkpt lat="43.4222283" lon="11.1168033"><ele>195.66666666666666</ele><time>2026-04-05T12:35:04.104Z</time></trkpt><trkpt lat="43.4221967" lon="11.1166967"><ele>197.0</ele><time>2026-04-05T12:35:05.104Z</time></trkpt><trkpt lat="43.422165" lon="11.1166017"><ele>198.33333333333331</ele><time>2026-04-05T12:35:06.104Z</time></trkpt><trkpt lat="43.422135" lon="11.11652"><ele>199.66666666666666</ele><time>2026-04-05T12:35:07.104Z</time></trkpt><trkpt lat="43.42206" lon="11.116425"><ele>201.0</ele><time>2026-04-05T12:35:09.103Z</time></trkpt><trkpt lat="43.42197" lon="11.1163817"><ele>201.0</ele><time>2026-04-05T12:35:12.104Z</time></trkpt><trkpt lat="43.4218917" lon="11.11632"><ele>201.0</ele><time>2026-04-05T12:35:15.103Z</time></trkpt><trkpt lat="43.4218417" lon="11.116245"><ele>201.0</ele><time>2026-04-05T12:35:17.104Z</time></trkpt><trkpt lat="43.4217967" lon="11.116165"><ele>201.0</ele><time>2026-04-05T12:35:19.104Z</time></trkpt><trkpt lat="43.4217717" lon="11.11608"><ele>201.0</ele><time>2026-04-05T12:35:22.104Z</time></trkpt><trkpt lat="43.4217167" lon="11.11602"><ele>201.0</ele><time>2026-04-05T12:35:25.104Z</time></trkpt><trkpt lat="43.4216567" lon="11.116055"><ele>201.0</ele><time>2026-04-05T12:35:28.104Z</time></trkpt><trkpt lat="43.4216567" lon="11.1161633"><ele>201.0</ele><time>2026-04-05T12:35:32.103Z</time></trkpt><trkpt lat="43.4217117" lon="11.11625"><ele>201.0</ele><time>2026-04-05T12:35:35.104Z</time></trkpt><trkpt lat="43.4216983" lon="11.1163583"><ele>201.0</ele><time>2026-04-05T12:35:38.104Z</time></trkpt><trkpt lat="43.4217067" lon="11.1164617"><ele>201.0</ele><time>2026-04-05T12:35:42.104Z</time></trkpt><trkpt lat="43.4217583" lon="11.1165333"><ele>201.0</ele><time>2026-04-05T12:35:45.104Z</time></trkpt><trkpt lat="43.4218267" lon="11.1165483"><ele>201.0</ele><time>2026-04-05T12:35:48.104Z</time></trkpt><trkpt lat="43.4218933" lon="11.1165367"><ele>201.0</ele><time>2026-04-05T12:35:51.104Z</time></trkpt><trkpt lat="43.4219583" lon="11.1164783"><ele>201.0</ele><time>2026-04-05T12:35:55.104Z</time></trkpt><trkpt lat="43.4219333" lon="11.1163933"><ele>201.0</ele><time>2026-04-05T12:35:57.104Z</time></trkpt><trkpt lat="43.4218933" lon="11.1163083"><ele>201.0</ele><time>2026-04-05T12:35:59.104Z</time></trkpt><trkpt lat="43.42183" lon="11.1162333"><ele>201.0</ele><time>2026-04-05T12:36:02.103Z</time></trkpt><trkpt lat="43.42178" lon="11.1161467"><ele>201.0</ele><time>2026-04-05T12:36:04.104Z</time></trkpt><trkpt lat="43.4217633" lon="11.11606"><ele>201.0</ele><time>2026-04-05T12:36:06.104Z</time></trkpt><trkpt lat="43.4216683" lon="11.116035"><ele>201.0</ele><time>2026-04-05T12:36:20.104Z</time></trkpt></trkseg><trkseg><trkpt lat="43.4216133" lon="11.116115"><ele>201.0</ele><time>2026-04-05T13:40:15.103Z</time></trkpt><trkpt lat="43.421625" lon="11.1162217"><ele>201.0</ele><time>2026-04-05T13:40:20.103Z</time></trkpt><trkpt lat="43.42165" lon="11.1163017"><ele>201.0</ele><time>2026-04-05T13:40:23.103Z</time></trkpt><trkpt lat="43.421645" lon="11.1164117"><ele>201.0</ele><time>2026-04-05T13:40:31.103Z</time></trkpt><trkpt lat="43.4216767" lon="11.1165217"><ele>201.0</ele><time>2026-04-05T13:40:34.103Z</time></trkpt><trkpt lat="43.421725" lon="11.1165833"><ele>201.0</ele><time>2026-04-05T13:40:37.103Z</time></trkpt><trkpt lat="43.4218167" lon="11.11655"><ele>201.0</ele><time>2026-04-05T13:40:54.103Z</time></trkpt><trkpt lat="43.4219133" lon="11.116535"><ele>201.0</ele><time>2026-04-05T13:40:56.103Z</time></trkpt><trkpt lat="43.4219983" lon="11.116515"><ele>201.0</ele><time>2026-04-05T13:40:58.103Z</time></trkpt><trkpt lat="43.4220517" lon="11.116465"><ele>201.0</ele><time>2026-04-05T13:41:00.103Z</time></trkpt><trkpt lat="43.42206" lon="11.116375"><ele>201.0</ele><time>2026-04-05T13:41:02.103Z</time></trkpt><trkpt lat="43.4220367" lon="11.1162333"><ele>201.0</ele><time>2026-04-05T13:41:04.103Z</time></trkpt><trkpt lat="43.4219967" lon="11.1160833"><ele>201.0</ele><time>2026-04-05T13:41:06.103Z</time></trkpt><trkpt lat="43.421965" lon="11.1159967"><ele>201.0</ele><time>2026-04-05T13:41:07.103Z</time></trkpt><trkpt lat="43.421935" lon="11.1159017"><ele>201.0</ele><time>2026-04-05T13:41:08.103Z</time></trkpt><trkpt lat="43.4219033" lon="11.1158017"><ele>201.0</ele><time>2026-04-05T13:41:09.103Z</time></trkpt><trkpt lat="43.42186" lon="11.1156933"><ele>201.0</ele><time>2026-04-05T13:41:10.102Z</time></trkpt><trkpt lat="43.421815" lon="11.1155783"><ele>201.0</ele><time>2026-04-05T13:41:11.102Z</time></trkpt><trkpt lat="43.421765" lon="11.115455"><ele>202.8</ele><time>2026-04-05T13:41:12.103Z</time></trkpt><trkpt lat="43.4217317" lon="11.115335"><ele>204.60000000000002</ele><time>2026-04-05T13:41:13.103Z</time></trkpt><trkpt lat="43.4217083" lon="11.1152067"><ele>206.4</ele><time>2026-04-05T13:41:14.103Z</time></trkpt><trkpt lat="43.4216983" lon="11.1150783"><ele>208.2</ele><time>2026-04-05T13:41:15.103Z</time></trkpt><trkpt lat="43.4217" lon="11.1149567"><ele>210.0</ele><time>2026-04-05T13:41:16.103Z</time></trkpt><trkpt lat="43.421715" lon="11.114835"><ele>211.5</ele><time>2026-04-05T13:41:17.103Z</time></trkpt><trkpt lat="43.4217483" lon="11.1147317"><ele>213.0</ele><time>2026-04-05T13:41:18.103Z</time></trkpt><trkpt lat="43.4217917" lon="11.1146367"><ele>214.5</ele><time>2026-04-05T13:41:19.102Z</time></trkpt><trkpt lat="43.421885" lon="11.1146"><ele>216.0</ele><time>2026-04-05T13:41:20.103Z</time></trkpt><trkpt lat="43.421955" lon="11.1146183"><ele>217.5</ele><time>2026-04-05T13:41:21.103Z</time></trkpt><trkpt lat="43.4220067" lon="11.1146683"><ele>219.0</ele><time>2026-04-05T13:41:22.103Z</time></trkpt><trkpt lat="43.422055" lon="11.1147317"><ele>219.0</ele><time>2026-04-05T13:41:23.103Z</time></trkpt><trkpt lat="43.4220483" lon="11.1148567"><ele>219.0</ele><time>2026-04-05T13:41:24.103Z</time></trkpt><trkpt lat="43.4220283" lon="11.1149767"><ele>219.0</ele><time>2026-04-05T13:41:25.103Z</time></trkpt><trkpt lat="43.4220117" lon="11.1150917"><ele>219.0</ele><time>2026-04-05T13:41:26.103Z</time></trkpt><trkpt lat="43.4220017" lon="11.1152183"><ele>219.0</ele><time>2026-04-05T13:41:27.103Z</time></trkpt><trkpt lat="43.422005" lon="11.1153433"><ele>219.0</ele><time>2026-04-05T13:41:28.103Z</time></trkpt><trkpt lat="43.42202" lon="11.11547"><ele>218.79999999999998</ele><time>2026-04-05T13:41:29.103Z</time></trkpt><trkpt lat="43.4220417" lon="11.115595"><ele>218.59999999999997</ele><time>2026-04-05T13:41:30.103Z</time></trkpt><trkpt lat="43.4220667" lon="11.1157183"><ele>218.4</ele><time>2026-04-05T13:41:31.103Z</time></trkpt><trkpt lat="43.422105" lon="11.1158317"><ele>218.2</ele><time>2026-04-05T13:41:32.103Z</time></trkpt><trkpt lat="43.4221533" lon="11.1159367"><ele>218.0</ele><time>2026-04-05T13:41:33.103Z</time></trkpt><trkpt lat="43.4222117" lon="11.11604"><ele>218.0</ele><time>2026-04-05T13:41:34.103Z</time></trkpt><trkpt lat="43.4222717" lon="11.1161467"><ele>218.0</ele><time>2026-04-05T13:41:35.104Z</time></trkpt><trkpt lat="43.42233" lon="11.11625"><ele>218.0</ele><time>2026-04-05T13:41:36.104Z</time></trkpt><trkpt lat="43.4223833" lon="11.1163583"><ele>218.0</ele><time>2026-04-05T13:41:37.104Z</time></trkpt><trkpt lat="43.42243" lon="11.116465"><ele>218.0</ele><time>2026-04-05T13:41:38.104Z</time></trkpt><trkpt lat="43.4224817" lon="11.1165633"><ele>216.16666666666669</ele><time>2026-04-05T13:41:39.104Z</time></trkpt><trkpt lat="43.4225417" lon="11.1166483"><ele>214.33333333333334</ele><time>2026-04-05T13:41:40.104Z</time></trkpt><trkpt lat="43.4226117" lon="11.1167117"><ele>212.5</ele><time>2026-04-05T13:41:41.104Z</time></trkpt><trkpt lat="43.4226933" lon="11.11674"><ele>210.66666666666669</ele><time>2026-04-05T13:41:42.104Z</time></trkpt><trkpt lat="43.4227783" lon="11.11674"><ele>208.83333333333334</ele><time>2026-04-05T13:41:43.104Z</time></trkpt><trkpt lat="43.422865" lon="11.1167217"><ele>207.0</ele><time>2026-04-05T13:41:44.104Z</time></trkpt><trkpt lat="43.4229533" lon="11.1166967"><ele>208.83333333333334</ele><time>2026-04-05T13:41:45.103Z</time></trkpt><trkpt lat="43.42304" lon="11.11667"><ele>210.66666666666669</ele><time>2026-04-05T13:41:46.104Z</time></trkpt><trkpt lat="43.4231217" lon="11.1166333"><ele>212.5</ele><time>2026-04-05T13:41:47.104Z</time></trkpt><trkpt lat="43.423195" lon="11.116585"><ele>214.33333333333334</ele><time>2026-04-05T13:41:48.104Z</time></trkpt><trkpt lat="43.42326" lon="11.1165167"><ele>216.16666666666669</ele><time>2026-04-05T13:41:49.104Z</time></trkpt><trkpt lat="43.42331" lon="11.116435"><ele>218.0</ele><time>2026-04-05T13:41:50.104Z</time></trkpt><trkpt lat="43.4233467" lon="11.116335"><ele>219.2</ele><time>2026-04-05T13:41:51.104Z</time></trkpt><trkpt lat="43.423355" lon="11.1162167"><ele>220.4</ele><time>2026-04-05T13:41:52.104Z</time></trkpt><trkpt lat="43.423345" lon="11.11609"><ele>221.59999999999997</ele><time>2026-04-05T13:41:53.104Z</time></trkpt><trkpt lat="43.4233317" lon="11.1159617"><ele>222.79999999999998</ele><time>2026-04-05T13:41:54.104Z</time></trkpt><trkpt lat="43.4233167" lon="11.115825"><ele>224.0</ele><time>2026-04-05T13:41:55.104Z</time></trkpt><trkpt lat="43.4233033" lon="11.115685"><ele>224.39999999999998</ele><time>2026-04-05T13:41:56.104Z</time></trkpt><trkpt lat="43.4232933" lon="11.1155417"><ele>224.79999999999998</ele><time>2026-04-05T13:41:57.104Z</time></trkpt><trkpt lat="43.423285" lon="11.1154"><ele>225.20000000000002</ele><time>2026-04-05T13:41:58.104Z</time></trkpt><trkpt lat="43.4232733" lon="11.1152583"><ele>225.60000000000002</ele><time>2026-04-05T13:41:59.104Z</time></trkpt><trkpt lat="43.4232633" lon="11.11512"><ele>226.0</ele><time>2026-04-05T13:42:00.104Z</time></trkpt><trkpt lat="43.423255" lon="11.11498"><ele>226.20000000000002</ele><time>2026-04-05T13:42:01.104Z</time></trkpt><trkpt lat="43.4232483" lon="11.1148383"><ele>226.40000000000003</ele><time>2026-04-05T13:42:02.104Z</time></trkpt><trkpt lat="43.4232433" lon="11.1146933"><ele>226.6</ele><time>2026-04-05T13:42:03.104Z</time></trkpt><trkpt lat="43.423235" lon="11.114545"><ele>226.8</ele><time>2026-04-05T13:42:04.104Z</time></trkpt><trkpt lat="43.42323" lon="11.1143917"><ele>227.0</ele><time>2026-04-05T13:42:05.104Z</time></trkpt><trkpt lat="43.42322" lon="11.1142367"><ele>227.0</ele><time>2026-04-05T13:42:06.104Z</time></trkpt><trkpt lat="43.4232067" lon="11.1140833"><ele>227.0</ele><time>2026-04-05T13:42:07.104Z</time></trkpt><trkpt lat="43.42318" lon="11.113935"><ele>227.0</ele><time>2026-04-05T13:42:08.104Z</time></trkpt><trkpt lat="43.4231517" lon="11.113785"><ele>227.0</ele><time>2026-04-05T13:42:09.103Z</time></trkpt><trkpt lat="43.4231167" lon="11.1136417"><ele>227.0</ele><time>2026-04-05T13:42:10.104Z</time></trkpt><trkpt lat="43.4230667" lon="11.113505"><ele>227.2</ele><time>2026-04-05T13:42:11.104Z</time></trkpt><trkpt lat="43.4230117" lon="11.1133733"><ele>227.39999999999998</ele><time>2026-04-05T13:42:12.104Z</time></trkpt><trkpt lat="43.422945" lon="11.1132567"><ele>227.60000000000002</ele><time>2026-04-05T13:42:13.104Z</time></trkpt><trkpt lat="43.42288" lon="11.1131483"><ele>227.8</ele><time>2026-04-05T13:42:14.104Z</time></trkpt><trkpt lat="43.4228083" lon="11.11305"><ele>228.0</ele><time>2026-04-05T13:42:15.104Z</time></trkpt><trkpt lat="43.4227333" lon="11.1129617"><ele>228.0</ele><time>2026-04-05T13:42:16.104Z</time></trkpt><trkpt lat="43.4226633" lon="11.112875"><ele>228.0</ele><time>2026-04-05T13:42:17.104Z</time></trkpt><trkpt lat="43.4226" lon="11.1127983"><ele>228.0</ele><time>2026-04-05T13:42:18.104Z</time></trkpt><trkpt lat="43.4225367" lon="11.11273"><ele>228.0</ele><time>2026-04-05T13:42:19.103Z</time></trkpt><trkpt lat="43.4224733" lon="11.1126567"><ele>228.0</ele><time>2026-04-05T13:42:20.103Z</time></trkpt><trkpt lat="43.422405" lon="11.1125817"><ele>228.0</ele><time>2026-04-05T13:42:21.104Z</time></trkpt><trkpt lat="43.422335" lon="11.1125067"><ele>228.0</ele><time>2026-04-05T13:42:22.104Z</time></trkpt><trkpt lat="43.422265" lon="11.112425"><ele>228.0</ele><time>2026-04-05T13:42:23.104Z</time></trkpt><trkpt lat="43.4221933" lon="11.1123483"><ele>228.0</ele><time>2026-04-05T13:42:24.104Z</time></trkpt><trkpt lat="43.42212" lon="11.112265"><ele>228.0</ele><time>2026-04-05T13:42:25.103Z</time></trkpt><trkpt lat="43.4220467" lon="11.1121883"><ele>228.0</ele><time>2026-04-05T13:42:26.104Z</time></trkpt><trkpt lat="43.4219767" lon="11.1121133"><ele>228.66666666666666</ele><time>2026-04-05T13:42:27.103Z</time></trkpt><trkpt lat="43.4219083" lon="11.11204"><ele>229.33333333333331</ele><time>2026-04-05T13:42:28.104Z</time></trkpt><trkpt lat="43.421845" lon="11.1119667"><ele>230.0</ele><time>2026-04-05T13:42:29.104Z</time></trkpt><trkpt lat="43.4217817" lon="11.1118933"><ele>230.66666666666666</ele><time>2026-04-05T13:42:30.104Z</time></trkpt><trkpt lat="43.4217283" lon="11.1118283"><ele>231.33333333333331</ele><time>2026-04-05T13:42:31.104Z</time></trkpt><trkpt lat="43.421645" lon="11.1117217"><ele>232.0</ele><time>2026-04-05T13:42:33.104Z</time></trkpt><trkpt lat="43.4215817" lon="11.1116283"><ele>232.0</ele><time>2026-04-05T13:42:35.104Z</time></trkpt><trkpt lat="43.4215483" lon="11.111495"><ele>232.0</ele><time>2026-04-05T13:42:37.104Z</time></trkpt><trkpt lat="43.4215367" lon="11.1113233"><ele>232.0</ele><time>2026-04-05T13:42:39.104Z</time></trkpt><trkpt lat="43.4215417" lon="11.11122"><ele>232.0</ele><time>2026-04-05T13:42:40.104Z</time></trkpt><trkpt lat="43.4215517" lon="11.1111133"><ele>232.0</ele><time>2026-04-05T13:42:41.104Z</time></trkpt><trkpt lat="43.4215633" lon="11.111005"><ele>232.0</ele><time>2026-04-05T13:42:42.103Z</time></trkpt><trkpt lat="43.4215733" lon="11.11089"><ele>232.0</ele><time>2026-04-05T13:42:43.104Z</time></trkpt><trkpt lat="43.421585" lon="11.1107683"><ele>232.0</ele><time>2026-04-05T13:42:44.104Z</time></trkpt><trkpt lat="43.4215967" lon="11.1106383"><ele>232.0</ele><time>2026-04-05T13:42:45.104Z</time></trkpt><trkpt lat="43.42161" lon="11.1105033"><ele>232.0</ele><time>2026-04-05T13:42:46.104Z</time></trkpt><trkpt lat="43.4216217" lon="11.1103683"><ele>232.0</ele><time>2026-04-05T13:42:47.104Z</time></trkpt><trkpt lat="43.421635" lon="11.110235"><ele>232.0</ele><time>2026-04-05T13:42:48.104Z</time></trkpt><trkpt lat="43.42165" lon="11.1101"><ele>232.0</ele><time>2026-04-05T13:42:49.104Z</time></trkpt><trkpt lat="43.421665" lon="11.1099667"><ele>232.0</ele><time>2026-04-05T13:42:50.104Z</time></trkpt><trkpt lat="43.4216767" lon="11.10983"><ele>232.0</ele><time>2026-04-05T13:42:51.103Z</time></trkpt><trkpt lat="43.4216883" lon="11.1096933"><ele>231.8</ele><time>2026-04-05T13:42:52.104Z</time></trkpt><trkpt lat="43.4217017" lon="11.109555"><ele>231.6</ele><time>2026-04-05T13:42:53.104Z</time></trkpt><trkpt lat="43.4217167" lon="11.1094183"><ele>231.40000000000003</ele><time>2026-04-05T13:42:54.104Z</time></trkpt><trkpt lat="43.4217333" lon="11.1092817"><ele>231.20000000000002</ele><time>2026-04-05T13:42:55.104Z</time></trkpt><trkpt lat="43.4217517" lon="11.109145"><ele>231.0</ele><time>2026-04-05T13:42:56.104Z</time></trkpt><trkpt lat="43.4217617" lon="11.1090033"><ele>231.0</ele><time>2026-04-05T13:42:57.104Z</time></trkpt><trkpt lat="43.42177" lon="11.1088617"><ele>231.00000000000003</ele><time>2026-04-05T13:42:58.104Z</time></trkpt><trkpt lat="43.4217767" lon="11.1087183"><ele>231.00000000000003</ele><time>2026-04-05T13:42:59.104Z</time></trkpt><trkpt lat="43.421785" lon="11.1085767"><ele>231.0</ele><time>2026-04-05T13:43:00.104Z</time></trkpt><trkpt lat="43.4217933" lon="11.108435"><ele>231.0</ele><time>2026-04-05T13:43:01.104Z</time></trkpt><trkpt lat="43.421805" lon="11.1082917"><ele>231.8</ele><time>2026-04-05T13:43:02.104Z</time></trkpt><trkpt lat="43.4218217" lon="11.1081433"><ele>232.60000000000002</ele><time>2026-04-05T13:43:03.103Z</time></trkpt><trkpt lat="43.4218383" lon="11.1079967"><ele>233.4</ele><time>2026-04-05T13:43:04.104Z</time></trkpt><trkpt lat="43.4218467" lon="11.1078483"><ele>234.2</ele><time>2026-04-05T13:43:05.104Z</time></trkpt><trkpt lat="43.4218567" lon="11.1076983"><ele>235.0</ele><time>2026-04-05T13:43:06.104Z</time></trkpt><trkpt lat="43.42186" lon="11.1075467"><ele>235.6</ele><time>2026-04-05T13:43:07.104Z</time></trkpt><trkpt lat="43.42186" lon="11.1073983"><ele>236.2</ele><time>2026-04-05T13:43:08.104Z</time></trkpt><trkpt lat="43.421855" lon="11.1072483"><ele>236.8</ele><time>2026-04-05T13:43:09.104Z</time></trkpt><trkpt lat="43.4218317" lon="11.1070983"><ele>237.4</ele><time>2026-04-05T13:43:10.104Z</time></trkpt><trkpt lat="43.4217983" lon="11.1069483"><ele>238.0</ele><time>2026-04-05T13:43:11.104Z</time></trkpt><trkpt lat="43.4217583" lon="11.1067933"><ele>238.0</ele><time>2026-04-05T13:43:12.104Z</time></trkpt><trkpt lat="43.4217133" lon="11.10664"><ele>238.0</ele><time>2026-04-05T13:43:13.104Z</time></trkpt><trkpt lat="43.4216733" lon="11.1064867"><ele>238.0</ele><time>2026-04-05T13:43:14.104Z</time></trkpt><trkpt lat="43.42163" lon="11.106335"><ele>238.0</ele><time>2026-04-05T13:43:15.104Z</time></trkpt><trkpt lat="43.4215917" lon="11.1061817"><ele>238.0</ele><time>2026-04-05T13:43:16.104Z</time></trkpt><trkpt lat="43.4215517" lon="11.1060267"><ele>238.0</ele><time>2026-04-05T13:43:17.104Z</time></trkpt><trkpt lat="43.4215133" lon="11.1058733"><ele>238.0</ele><time>2026-04-05T13:43:18.104Z</time></trkpt><trkpt lat="43.4214717" lon="11.1057217"><ele>238.0</ele><time>2026-04-05T13:43:19.104Z</time></trkpt><trkpt lat="43.4214283" lon="11.1055683"><ele>238.0</ele><time>2026-04-05T13:43:20.104Z</time></trkpt><trkpt lat="43.4213867" lon="11.1054183"><ele>238.0</ele><time>2026-04-05T13:43:21.104Z</time></trkpt><trkpt lat="43.4213467" lon="11.1052717"><ele>238.0</ele><time>2026-04-05T13:43:22.103Z</time></trkpt><trkpt lat="43.42131" lon="11.1051317"><ele>238.0</ele><time>2026-04-05T13:43:23.104Z</time></trkpt><trkpt lat="43.4212717" lon="11.1049967"><ele>238.0</ele><time>2026-04-05T13:43:24.103Z</time></trkpt><trkpt lat="43.421235" lon="11.1048633"><ele>238.25</ele><time>2026-04-05T13:43:25.103Z</time></trkpt><trkpt lat="43.421195" lon="11.1047267"><ele>238.5</ele><time>2026-04-05T13:43:26.104Z</time></trkpt><trkpt lat="43.421155" lon="11.104585"><ele>238.75</ele><time>2026-04-05T13:43:27.104Z</time></trkpt><trkpt lat="43.4211133" lon="11.1044383"><ele>239.0</ele><time>2026-04-05T13:43:28.103Z</time></trkpt><trkpt lat="43.4210733" lon="11.104285"><ele>239.0</ele><time>2026-04-05T13:43:29.104Z</time></trkpt><trkpt lat="43.42103" lon="11.10413"><ele>239.0</ele><time>2026-04-05T13:43:30.103Z</time></trkpt><trkpt lat="43.4209883" lon="11.103975"><ele>239.0</ele><time>2026-04-05T13:43:31.104Z</time></trkpt><trkpt lat="43.420945" lon="11.1038217"><ele>239.0</ele><time>2026-04-05T13:43:32.104Z</time></trkpt><trkpt lat="43.4209017" lon="11.1036667"><ele>239.0</ele><time>2026-04-05T13:43:33.104Z</time></trkpt><trkpt lat="43.4208567" lon="11.1035133"><ele>239.0</ele><time>2026-04-05T13:43:34.104Z</time></trkpt><trkpt lat="43.4208117" lon="11.10336"><ele>239.0</ele><time>2026-04-05T13:43:35.104Z</time></trkpt><trkpt lat="43.4207667" lon="11.1032067"><ele>239.0</ele><time>2026-04-05T13:43:36.104Z</time></trkpt><trkpt lat="43.4207217" lon="11.1030517"><ele>238.75</ele><time>2026-04-05T13:43:37.104Z</time></trkpt><trkpt lat="43.4206783" lon="11.102895"><ele>238.5</ele><time>2026-04-05T13:43:38.104Z</time></trkpt><trkpt lat="43.4206367" lon="11.1027383"><ele>238.25</ele><time>2026-04-05T13:43:39.104Z</time></trkpt><trkpt lat="43.420595" lon="11.1025833"><ele>238.0</ele><time>2026-04-05T13:43:40.104Z</time></trkpt><trkpt lat="43.4205533" lon="11.1024333"><ele>238.2</ele><time>2026-04-05T13:43:41.104Z</time></trkpt><trkpt lat="43.4205183" lon="11.10229"><ele>238.4</ele><time>2026-04-05T13:43:42.104Z</time></trkpt><trkpt lat="43.42049" lon="11.1021567"><ele>238.59999999999997</ele><time>2026-04-05T13:43:43.104Z</time></trkpt><trkpt lat="43.4204817" lon="11.1020317"><ele>238.79999999999998</ele><time>2026-04-05T13:43:44.104Z</time></trkpt><trkpt lat="43.420475" lon="11.101915"><ele>239.0</ele><time>2026-04-05T13:43:45.104Z</time></trkpt><trkpt lat="43.4204517" lon="11.101805"><ele>239.6</ele><time>2026-04-05T13:43:46.104Z</time></trkpt><trkpt lat="43.4204167" lon="11.101705"><ele>240.2</ele><time>2026-04-05T13:43:47.104Z</time></trkpt><trkpt lat="43.4203717" lon="11.101605"><ele>240.79999999999998</ele><time>2026-04-05T13:43:48.104Z</time></trkpt><trkpt lat="43.4203133" lon="11.1015067"><ele>241.39999999999998</ele><time>2026-04-05T13:43:49.104Z</time></trkpt><trkpt lat="43.4202667" lon="11.1013883"><ele>242.0</ele><time>2026-04-05T13:43:50.104Z</time></trkpt><trkpt lat="43.420225" lon="11.1012517"><ele>242.0</ele><time>2026-04-05T13:43:51.104Z</time></trkpt><trkpt lat="43.420185" lon="11.1011083"><ele>242.0</ele><time>2026-04-05T13:43:52.104Z</time></trkpt><trkpt lat="43.4201433" lon="11.1009617"><ele>242.0</ele><time>2026-04-05T13:43:53.104Z</time></trkpt><trkpt lat="43.4201" lon="11.1008117"><ele>242.0</ele><time>2026-04-05T13:43:54.104Z</time></trkpt><trkpt lat="43.420055" lon="11.100665"><ele>242.25</ele><time>2026-04-05T13:43:55.104Z</time></trkpt><trkpt lat="43.42001" lon="11.1005217"><ele>242.5</ele><time>2026-04-05T13:43:56.104Z</time></trkpt><trkpt lat="43.4199683" lon="11.1003767"><ele>242.75</ele><time>2026-04-05T13:43:57.104Z</time></trkpt><trkpt lat="43.4199283" lon="11.1002317"><ele>243.0</ele><time>2026-04-05T13:43:58.104Z</time></trkpt><trkpt lat="43.4198917" lon="11.1000883"><ele>243.0</ele><time>2026-04-05T13:43:59.104Z</time></trkpt><trkpt lat="43.4198517" lon="11.0999467"><ele>243.0</ele><time>2026-04-05T13:44:00.104Z</time></trkpt><trkpt lat="43.4198133" lon="11.0998033"><ele>243.0</ele><time>2026-04-05T13:44:01.103Z</time></trkpt><trkpt lat="43.4197733" lon="11.0996583"><ele>243.0</ele><time>2026-04-05T13:44:02.104Z</time></trkpt><trkpt lat="43.4197317" lon="11.0995167"><ele>243.0</ele><time>2026-04-05T13:44:03.104Z</time></trkpt><trkpt lat="43.4196883" lon="11.0993767"><ele>243.2</ele><time>2026-04-05T13:44:04.104Z</time></trkpt><trkpt lat="43.41964" lon="11.0992417"><ele>243.4</ele><time>2026-04-05T13:44:05.104Z</time></trkpt><trkpt lat="43.419595" lon="11.0991083"><ele>243.59999999999997</ele><time>2026-04-05T13:44:06.104Z</time></trkpt><trkpt lat="43.41955" lon="11.0989767"><ele>243.79999999999998</ele><time>2026-04-05T13:44:07.104Z</time></trkpt><trkpt lat="43.4195017" lon="11.0988433"><ele>244.0</ele><time>2026-04-05T13:44:08.104Z</time></trkpt><trkpt lat="43.41946" lon="11.0987083"><ele>244.0</ele><time>2026-04-05T13:44:09.104Z</time></trkpt><trkpt lat="43.4194217" lon="11.0985717"><ele>243.99999999999997</ele><time>2026-04-05T13:44:10.104Z</time></trkpt><trkpt lat="43.4193933" lon="11.0984267"><ele>243.99999999999997</ele><time>2026-04-05T13:44:11.104Z</time></trkpt><trkpt lat="43.4193667" lon="11.0982817"><ele>244.0</ele><time>2026-04-05T13:44:12.104Z</time></trkpt><trkpt lat="43.4193383" lon="11.0981317"><ele>244.0</ele><time>2026-04-05T13:44:13.104Z</time></trkpt><trkpt lat="43.4193117" lon="11.0979817"><ele>243.6</ele><time>2026-04-05T13:44:14.104Z</time></trkpt><trkpt lat="43.419285" lon="11.0978317"><ele>243.2</ele><time>2026-04-05T13:44:15.104Z</time></trkpt><trkpt lat="43.41925" lon="11.0976783"><ele>242.79999999999998</ele><time>2026-04-05T13:44:16.104Z</time></trkpt><trkpt lat="43.4192183" lon="11.0975317"><ele>242.39999999999998</ele><time>2026-04-05T13:44:17.104Z</time></trkpt><trkpt lat="43.4191867" lon="11.0974017"><ele>242.0</ele><time>2026-04-05T13:44:18.103Z</time></trkpt><trkpt lat="43.4191633" lon="11.0972967"><ele>242.00000000000003</ele><time>2026-04-05T13:44:19.104Z</time></trkpt><trkpt lat="43.4191417" lon="11.0972017"><ele>242.0</ele><time>2026-04-05T13:44:20.104Z</time></trkpt><trkpt lat="43.4191217" lon="11.0971083"><ele>242.0</ele><time>2026-04-05T13:44:21.104Z</time></trkpt><trkpt lat="43.4191" lon="11.09701"><ele>242.0</ele><time>2026-04-05T13:44:22.104Z</time></trkpt><trkpt lat="43.4190733" lon="11.0969"><ele>242.00000000000003</ele><time>2026-04-05T13:44:23.104Z</time></trkpt><trkpt lat="43.419045" lon="11.0967783"><ele>242.0</ele><time>2026-04-05T13:44:24.104Z</time></trkpt><trkpt lat="43.419015" lon="11.096645"><ele>242.0</ele><time>2026-04-05T13:44:25.104Z</time></trkpt><trkpt lat="43.4189833" lon="11.0965033"><ele>242.0</ele><time>2026-04-05T13:44:26.104Z</time></trkpt><trkpt lat="43.4189483" lon="11.0963533"><ele>242.0</ele><time>2026-04-05T13:44:27.104Z</time></trkpt><trkpt lat="43.4189133" lon="11.0962017"><ele>242.0</ele><time>2026-04-05T13:44:28.104Z</time></trkpt><trkpt lat="43.4188783" lon="11.0960433"><ele>242.0</ele><time>2026-04-05T13:44:29.104Z</time></trkpt><trkpt lat="43.41884" lon="11.0958767"><ele>242.0</ele><time>2026-04-05T13:44:30.104Z</time></trkpt><trkpt lat="43.4188033" lon="11.095705"><ele>242.0</ele><time>2026-04-05T13:44:31.104Z</time></trkpt><trkpt lat="43.4187633" lon="11.095535"><ele>242.0</ele><time>2026-04-05T13:44:32.104Z</time></trkpt><trkpt lat="43.4187217" lon="11.0953617"><ele>241.0</ele><time>2026-04-05T13:44:33.104Z</time></trkpt><trkpt lat="43.4186767" lon="11.095185"><ele>240.0</ele><time>2026-04-05T13:44:34.104Z</time></trkpt><trkpt lat="43.4186317" lon="11.095005"><ele>239.0</ele><time>2026-04-05T13:44:35.104Z</time></trkpt><trkpt lat="43.4185883" lon="11.09482"><ele>238.0</ele><time>2026-04-05T13:44:36.104Z</time></trkpt><trkpt lat="43.418545" lon="11.094635"><ele>237.5</ele><time>2026-04-05T13:44:37.104Z</time></trkpt><trkpt lat="43.4185033" lon="11.0944517"><ele>237.0</ele><time>2026-04-05T13:44:38.104Z</time></trkpt><trkpt lat="43.4184583" lon="11.094265"><ele>236.5</ele><time>2026-04-05T13:44:39.104Z</time></trkpt><trkpt lat="43.418415" lon="11.094075"><ele>236.0</ele><time>2026-04-05T13:44:40.104Z</time></trkpt><trkpt lat="43.41837" lon="11.0938817"><ele>235.66666666666669</ele><time>2026-04-05T13:44:41.104Z</time></trkpt><trkpt lat="43.4183217" lon="11.0936867"><ele>235.33333333333331</ele><time>2026-04-05T13:44:42.104Z</time></trkpt><trkpt lat="43.4182783" lon="11.0934867"><ele>235.0</ele><time>2026-04-05T13:44:43.103Z</time></trkpt><trkpt lat="43.4182333" lon="11.093285"><ele>235.66666666666666</ele><time>2026-04-05T13:44:44.104Z</time></trkpt><trkpt lat="43.4181883" lon="11.0930833"><ele>236.33333333333331</ele><time>2026-04-05T13:44:45.104Z</time></trkpt><trkpt lat="43.418145" lon="11.0928817"><ele>237.0</ele><time>2026-04-05T13:44:46.104Z</time></trkpt><trkpt lat="43.4181" lon="11.0926817"><ele>237.0</ele><time>2026-04-05T13:44:47.104Z</time></trkpt><trkpt lat="43.4180567" lon="11.0924833"><ele>237.0</ele><time>2026-04-05T13:44:48.104Z</time></trkpt><trkpt lat="43.4180133" lon="11.09229"><ele>237.0</ele><time>2026-04-05T13:44:49.104Z</time></trkpt><trkpt lat="43.41797" lon="11.09209"><ele>237.0</ele><time>2026-04-05T13:44:50.104Z</time></trkpt><trkpt lat="43.4179267" lon="11.0918933"><ele>237.25</ele><time>2026-04-05T13:44:51.104Z</time></trkpt><trkpt lat="43.4178867" lon="11.0916983"><ele>237.5</ele><time>2026-04-05T13:44:52.104Z</time></trkpt><trkpt lat="43.4178433" lon="11.0915067"><ele>237.75</ele><time>2026-04-05T13:44:53.104Z</time></trkpt><trkpt lat="43.4177983" lon="11.0913167"><ele>238.0</ele><time>2026-04-05T13:44:54.104Z</time></trkpt><trkpt lat="43.417755" lon="11.0911283"><ele>238.25</ele><time>2026-04-05T13:44:55.104Z</time></trkpt><trkpt lat="43.4177067" lon="11.0909383"><ele>238.5</ele><time>2026-04-05T13:44:56.103Z</time></trkpt><trkpt lat="43.4176583" lon="11.0907467"><ele>238.75</ele><time>2026-04-05T13:44:57.103Z</time></trkpt><trkpt lat="43.4176133" lon="11.0905567"><ele>239.0</ele><time>2026-04-05T13:44:58.103Z</time></trkpt><trkpt lat="43.4175683" lon="11.0903617"><ele>239.25</ele><time>2026-04-05T13:44:59.104Z</time></trkpt><trkpt lat="43.4175217" lon="11.09017"><ele>239.5</ele><time>2026-04-05T13:45:00.104Z</time></trkpt><trkpt lat="43.4174717" lon="11.0899733"><ele>239.75</ele><time>2026-04-05T13:45:01.104Z</time></trkpt><trkpt lat="43.4174233" lon="11.0897783"><ele>240.0</ele><time>2026-04-05T13:45:02.104Z</time></trkpt><trkpt lat="43.41738" lon="11.0895867"><ele>240.0</ele><time>2026-04-05T13:45:03.104Z</time></trkpt><trkpt lat="43.4173383" lon="11.08939"><ele>240.0</ele><time>2026-04-05T13:45:04.104Z</time></trkpt><trkpt lat="43.4172933" lon="11.0891917"><ele>240.0</ele><time>2026-04-05T13:45:05.104Z</time></trkpt><trkpt lat="43.4172517" lon="11.0889983"><ele>240.0</ele><time>2026-04-05T13:45:06.104Z</time></trkpt><trkpt lat="43.4172067" lon="11.088805"><ele>240.25</ele><time>2026-04-05T13:45:07.104Z</time></trkpt><trkpt lat="43.4171633" lon="11.0886117"><ele>240.5</ele><time>2026-04-05T13:45:08.104Z</time></trkpt><trkpt lat="43.4171183" lon="11.0884167"><ele>240.75</ele><time>2026-04-05T13:45:09.104Z</time></trkpt><trkpt lat="43.4170717" lon="11.0882267"><ele>241.0</ele><time>2026-04-05T13:45:10.104Z</time></trkpt><trkpt lat="43.4170283" lon="11.0880317"><ele>241.0</ele><time>2026-04-05T13:45:11.104Z</time></trkpt><trkpt lat="43.4169817" lon="11.0878367"><ele>241.0</ele><time>2026-04-05T13:45:12.104Z</time></trkpt><trkpt lat="43.4169333" lon="11.0876417"><ele>241.0</ele><time>2026-04-05T13:45:13.104Z</time></trkpt><trkpt lat="43.4168867" lon="11.0874467"><ele>241.0</ele><time>2026-04-05T13:45:14.104Z</time></trkpt><trkpt lat="43.4168417" lon="11.0872517"><ele>241.0</ele><time>2026-04-05T13:45:15.104Z</time></trkpt><trkpt lat="43.4167967" lon="11.08706"><ele>241.0</ele><time>2026-04-05T13:45:16.104Z</time></trkpt><trkpt lat="43.41675" lon="11.0868667"><ele>241.0</ele><time>2026-04-05T13:45:17.104Z</time></trkpt><trkpt lat="43.4167067" lon="11.0866717"><ele>241.0</ele><time>2026-04-05T13:45:18.104Z</time></trkpt><trkpt lat="43.4166633" lon="11.086475"><ele>241.66666666666666</ele><time>2026-04-05T13:45:19.104Z</time></trkpt><trkpt lat="43.4166167" lon="11.08628"><ele>242.33333333333331</ele><time>2026-04-05T13:45:20.104Z</time></trkpt><trkpt lat="43.4165717" lon="11.0860817"><ele>243.0</ele><time>2026-04-05T13:45:21.104Z</time></trkpt><trkpt lat="43.4165283" lon="11.0858817"><ele>243.33333333333331</ele><time>2026-04-05T13:45:22.104Z</time></trkpt><trkpt lat="43.4164833" lon="11.085685"><ele>243.66666666666666</ele><time>2026-04-05T13:45:23.103Z</time></trkpt><trkpt lat="43.416435" lon="11.0854883"><ele>244.0</ele><time>2026-04-05T13:45:24.104Z</time></trkpt><trkpt lat="43.4163883" lon="11.08529"><ele>244.0</ele><time>2026-04-05T13:45:25.104Z</time></trkpt><trkpt lat="43.4163417" lon="11.08509"><ele>244.0</ele><time>2026-04-05T13:45:26.104Z</time></trkpt><trkpt lat="43.4162917" lon="11.0848967"><ele>244.0</ele><time>2026-04-05T13:45:27.104Z</time></trkpt><trkpt lat="43.4162417" lon="11.0847067"><ele>244.0</ele><time>2026-04-05T13:45:28.104Z</time></trkpt><trkpt lat="43.4161883" lon="11.0845217"><ele>243.75</ele><time>2026-04-05T13:45:29.104Z</time></trkpt><trkpt lat="43.416135" lon="11.084335"><ele>243.5</ele><time>2026-04-05T13:45:30.104Z</time></trkpt><trkpt lat="43.4160817" lon="11.0841517"><ele>243.25</ele><time>2026-04-05T13:45:31.104Z</time></trkpt><trkpt lat="43.4160283" lon="11.0839683"><ele>243.0</ele><time>2026-04-05T13:45:32.104Z</time></trkpt><trkpt lat="43.4159783" lon="11.0837867"><ele>243.0</ele><time>2026-04-05T13:45:33.104Z</time></trkpt><trkpt lat="43.41593" lon="11.083605"><ele>243.0</ele><time>2026-04-05T13:45:34.104Z</time></trkpt><trkpt lat="43.4158783" lon="11.0834333"><ele>243.0</ele><time>2026-04-05T13:45:35.104Z</time></trkpt><trkpt lat="43.4158217" lon="11.0832633"><ele>243.0</ele><time>2026-04-05T13:45:36.104Z</time></trkpt><trkpt lat="43.4157667" lon="11.08309"><ele>243.0</ele><time>2026-04-05T13:45:37.104Z</time></trkpt><trkpt lat="43.4157167" lon="11.082915"><ele>243.0</ele><time>2026-04-05T13:45:38.104Z</time></trkpt><trkpt lat="43.415665" lon="11.082745"><ele>243.0</ele><time>2026-04-05T13:45:39.104Z</time></trkpt><trkpt lat="43.4156133" lon="11.082575"><ele>243.0</ele><time>2026-04-05T13:45:40.104Z</time></trkpt><trkpt lat="43.41556" lon="11.0824033"><ele>243.5</ele><time>2026-04-05T13:45:41.104Z</time></trkpt><trkpt lat="43.4155067" lon="11.08223"><ele>244.0</ele><time>2026-04-05T13:45:42.104Z</time></trkpt><trkpt lat="43.4154583" lon="11.0820583"><ele>244.5</ele><time>2026-04-05T13:45:43.104Z</time></trkpt><trkpt lat="43.4154117" lon="11.0818917"><ele>245.0</ele><time>2026-04-05T13:45:44.104Z</time></trkpt><trkpt lat="43.415365" lon="11.0817267"><ele>245.75</ele><time>2026-04-05T13:45:45.104Z</time></trkpt><trkpt lat="43.4153133" lon="11.0815667"><ele>246.5</ele><time>2026-04-05T13:45:46.104Z</time></trkpt><trkpt lat="43.415265" lon="11.08141"><ele>247.25</ele><time>2026-04-05T13:45:47.104Z</time></trkpt><trkpt lat="43.41522" lon="11.0812533"><ele>248.0</ele><time>2026-04-05T13:45:48.104Z</time></trkpt><trkpt lat="43.4151733" lon="11.0810967"><ele>248.0</ele><time>2026-04-05T13:45:49.104Z</time></trkpt><trkpt lat="43.4151267" lon="11.0809367"><ele>248.0</ele><time>2026-04-05T13:45:50.104Z</time></trkpt><trkpt lat="43.4150817" lon="11.0807783"><ele>248.0</ele><time>2026-04-05T13:45:51.104Z</time></trkpt><trkpt lat="43.4150367" lon="11.0806233"><ele>248.0</ele><time>2026-04-05T13:45:52.104Z</time></trkpt><trkpt lat="43.4149967" lon="11.0804717"><ele>248.2</ele><time>2026-04-05T13:45:53.104Z</time></trkpt><trkpt lat="43.414955" lon="11.0803267"><ele>248.4</ele><time>2026-04-05T13:45:54.104Z</time></trkpt><trkpt lat="43.4149083" lon="11.0801867"><ele>248.59999999999997</ele><time>2026-04-05T13:45:55.104Z</time></trkpt><trkpt lat="43.4148617" lon="11.0800483"><ele>248.79999999999998</ele><time>2026-04-05T13:45:56.104Z</time></trkpt><trkpt lat="43.4148117" lon="11.0799167"><ele>249.0</ele><time>2026-04-05T13:45:57.104Z</time></trkpt><trkpt lat="43.4147517" lon="11.0798"><ele>249.0</ele><time>2026-04-05T13:45:58.104Z</time></trkpt><trkpt lat="43.4146783" lon="11.0797033"><ele>248.99999999999997</ele><time>2026-04-05T13:45:59.104Z</time></trkpt><trkpt lat="43.4145833" lon="11.07964"><ele>248.99999999999997</ele><time>2026-04-05T13:46:00.104Z</time></trkpt><trkpt lat="43.4144783" lon="11.0796067"><ele>249.0</ele><time>2026-04-05T13:46:01.104Z</time></trkpt><trkpt lat="43.4143817" lon="11.0795917"><ele>249.0</ele><time>2026-04-05T13:46:02.104Z</time></trkpt><trkpt lat="43.4142917" lon="11.079595"><ele>248.79999999999998</ele><time>2026-04-05T13:46:03.104Z</time></trkpt><trkpt lat="43.4142067" lon="11.079595"><ele>248.59999999999997</ele><time>2026-04-05T13:46:04.104Z</time></trkpt><trkpt lat="43.41413" lon="11.0795767"><ele>248.4</ele><time>2026-04-05T13:46:05.104Z</time></trkpt><trkpt lat="43.4140517" lon="11.0795583"><ele>248.2</ele><time>2026-04-05T13:46:06.104Z</time></trkpt><trkpt lat="43.413985" lon="11.0795133"><ele>248.0</ele><time>2026-04-05T13:46:07.104Z</time></trkpt><trkpt lat="43.41391" lon="11.0793067"><ele>248.00000000000003</ele><time>2026-04-05T13:46:11.104Z</time></trkpt><trkpt lat="43.41391" lon="11.0792133"><ele>248.0</ele><time>2026-04-05T13:46:12.104Z</time></trkpt><trkpt lat="43.4139133" lon="11.0791117"><ele>248.0</ele><time>2026-04-05T13:46:13.104Z</time></trkpt><trkpt lat="43.41391" lon="11.079"><ele>248.0</ele><time>2026-04-05T13:46:14.104Z</time></trkpt><trkpt lat="43.4138983" lon="11.0788833"><ele>248.00000000000003</ele><time>2026-04-05T13:46:15.104Z</time></trkpt><trkpt lat="43.4138867" lon="11.07876"><ele>248.0</ele><time>2026-04-05T13:46:16.104Z</time></trkpt><trkpt lat="43.413875" lon="11.0786267"><ele>247.8</ele><time>2026-04-05T13:46:17.104Z</time></trkpt><trkpt lat="43.413855" lon="11.0784867"><ele>247.60000000000002</ele><time>2026-04-05T13:46:18.104Z</time></trkpt><trkpt lat="43.4138433" lon="11.0783483"><ele>247.39999999999998</ele><time>2026-04-05T13:46:19.104Z</time></trkpt><trkpt lat="43.413825" lon="11.0782083"><ele>247.2</ele><time>2026-04-05T13:46:20.104Z</time></trkpt><trkpt lat="43.4138117" lon="11.078065"><ele>247.0</ele><time>2026-04-05T13:46:21.104Z</time></trkpt><trkpt lat="43.4137917" lon="11.077915"><ele>246.0</ele><time>2026-04-05T13:46:22.104Z</time></trkpt><trkpt lat="43.41378" lon="11.0777567"><ele>245.0</ele><time>2026-04-05T13:46:23.104Z</time></trkpt><trkpt lat="43.4137733" lon="11.0775983"><ele>244.0</ele><time>2026-04-05T13:46:24.104Z</time></trkpt><trkpt lat="43.4137783" lon="11.0774433"><ele>243.0</ele><time>2026-04-05T13:46:25.103Z</time></trkpt><trkpt lat="43.413795" lon="11.0772933"><ele>243.0</ele><time>2026-04-05T13:46:26.104Z</time></trkpt><trkpt lat="43.4138183" lon="11.0771533"><ele>243.0</ele><time>2026-04-05T13:46:27.104Z</time></trkpt><trkpt lat="43.4138467" lon="11.0770167"><ele>243.0</ele><time>2026-04-05T13:46:28.104Z</time></trkpt><trkpt lat="43.4138767" lon="11.07688"><ele>243.0</ele><time>2026-04-05T13:46:29.104Z</time></trkpt><trkpt lat="43.4139133" lon="11.0767433"><ele>243.0</ele><time>2026-04-05T13:46:30.104Z</time></trkpt><trkpt lat="43.4139567" lon="11.0766067"><ele>242.4</ele><time>2026-04-05T13:46:31.104Z</time></trkpt><trkpt lat="43.4140033" lon="11.0764683"><ele>241.8</ele><time>2026-04-05T13:46:32.104Z</time></trkpt><trkpt lat="43.41404" lon="11.076325"><ele>241.2</ele><time>2026-04-05T13:46:33.104Z</time></trkpt><trkpt lat="43.41406" lon="11.0761767"><ele>240.6</ele><time>2026-04-05T13:46:34.104Z</time></trkpt><trkpt lat="43.4140517" lon="11.0760333"><ele>240.0</ele><time>2026-04-05T13:46:35.104Z</time></trkpt><trkpt lat="43.4140117" lon="11.0759"><ele>240.0</ele><time>2026-04-05T13:46:36.104Z</time></trkpt><trkpt lat="43.4139617" lon="11.0757817"><ele>240.0</ele><time>2026-04-05T13:46:37.104Z</time></trkpt><trkpt lat="43.4139117" lon="11.0756583"><ele>240.0</ele><time>2026-04-05T13:46:38.104Z</time></trkpt><trkpt lat="43.4138733" lon="11.0755133"><ele>240.0</ele><time>2026-04-05T13:46:39.104Z</time></trkpt><trkpt lat="43.4138533" lon="11.07536"><ele>240.0</ele><time>2026-04-05T13:46:40.103Z</time></trkpt><trkpt lat="43.4138517" lon="11.0752117"><ele>239.4</ele><time>2026-04-05T13:46:41.104Z</time></trkpt><trkpt lat="43.41387" lon="11.0750717"><ele>238.8</ele><time>2026-04-05T13:46:42.104Z</time></trkpt><trkpt lat="43.4139117" lon="11.074945"><ele>238.2</ele><time>2026-04-05T13:46:43.104Z</time></trkpt><trkpt lat="43.4139533" lon="11.0748317"><ele>237.6</ele><time>2026-04-05T13:46:44.104Z</time></trkpt><trkpt lat="43.4139983" lon="11.07473"><ele>237.0</ele><time>2026-04-05T13:46:45.104Z</time></trkpt><trkpt lat="43.4140683" lon="11.074635"><ele>234.39999999999998</ele><time>2026-04-05T13:46:46.104Z</time></trkpt><trkpt lat="43.4141467" lon="11.074545"><ele>231.79999999999998</ele><time>2026-04-05T13:46:47.104Z</time></trkpt><trkpt lat="43.4142317" lon="11.074455"><ele>229.2</ele><time>2026-04-05T13:46:48.104Z</time></trkpt><trkpt lat="43.4143233" lon="11.0743683"><ele>226.6</ele><time>2026-04-05T13:46:49.104Z</time></trkpt><trkpt lat="43.4144133" lon="11.0742867"><ele>224.0</ele><time>2026-04-05T13:46:50.103Z</time></trkpt><trkpt lat="43.4145033" lon="11.074215"><ele>224.0</ele><time>2026-04-05T13:46:51.104Z</time></trkpt><trkpt lat="43.414595" lon="11.074165"><ele>223.99999999999997</ele><time>2026-04-05T13:46:52.104Z</time></trkpt><trkpt lat="43.4146867" lon="11.0741317"><ele>223.99999999999997</ele><time>2026-04-05T13:46:53.104Z</time></trkpt><trkpt lat="43.41478" lon="11.0741067"><ele>224.0</ele><time>2026-04-05T13:46:54.104Z</time></trkpt><trkpt lat="43.41487" lon="11.0740833"><ele>224.0</ele><time>2026-04-05T13:46:55.104Z</time></trkpt><trkpt lat="43.4149517" lon="11.0740533"><ele>222.66666666666669</ele><time>2026-04-05T13:46:56.104Z</time></trkpt><trkpt lat="43.4150233" lon="11.0740167"><ele>221.33333333333334</ele><time>2026-04-05T13:46:57.104Z</time></trkpt><trkpt lat="43.4150617" lon="11.0739417"><ele>220.0</ele><time>2026-04-05T13:46:58.103Z</time></trkpt><trkpt lat="43.41503" lon="11.0737867"><ele>218.66666666666669</ele><time>2026-04-05T13:47:00.104Z</time></trkpt><trkpt lat="43.4149717" lon="11.0737383"><ele>217.33333333333334</ele><time>2026-04-05T13:47:01.104Z</time></trkpt><trkpt lat="43.4148933" lon="11.07373"><ele>216.0</ele><time>2026-04-05T13:47:02.104Z</time></trkpt><trkpt lat="43.4147817" lon="11.0737867"><ele>216.0</ele><time>2026-04-05T13:47:03.103Z</time></trkpt><trkpt lat="43.41467" lon="11.07385"><ele>216.0</ele><time>2026-04-05T13:47:04.104Z</time></trkpt><trkpt lat="43.414555" lon="11.07392"><ele>216.0</ele><time>2026-04-05T13:47:05.104Z</time></trkpt><trkpt lat="43.41444" lon="11.07399"><ele>216.0</ele><time>2026-04-05T13:47:06.104Z</time></trkpt><trkpt lat="43.4143217" lon="11.07406"><ele>218.0</ele><time>2026-04-05T13:47:07.104Z</time></trkpt><trkpt lat="43.4142067" lon="11.07413"><ele>220.0</ele><time>2026-04-05T13:47:08.104Z</time></trkpt><trkpt lat="43.41409" lon="11.0742"><ele>222.0</ele><time>2026-04-05T13:47:09.104Z</time></trkpt><trkpt lat="43.4139783" lon="11.07428"><ele>224.0</ele><time>2026-04-05T13:47:10.104Z</time></trkpt><trkpt lat="43.413875" lon="11.0743717"><ele>220.25</ele><time>2026-04-05T13:47:11.104Z</time></trkpt><trkpt lat="43.413775" lon="11.0744733"><ele>216.5</ele><time>2026-04-05T13:47:12.104Z</time></trkpt><trkpt lat="43.4136817" lon="11.0745833"><ele>212.75</ele><time>2026-04-05T13:47:13.104Z</time></trkpt><trkpt lat="43.4135983" lon="11.074695"><ele>209.0</ele><time>2026-04-05T13:47:14.104Z</time></trkpt><trkpt lat="43.4135283" lon="11.0748033"><ele>209.00000000000003</ele><time>2026-04-05T13:47:15.104Z</time></trkpt><trkpt lat="43.4134583" lon="11.0748883"><ele>209.0</ele><time>2026-04-05T13:47:16.104Z</time></trkpt><trkpt lat="43.4133917" lon="11.074945"><ele>209.0</ele><time>2026-04-05T13:47:17.104Z</time></trkpt><trkpt lat="43.41331" lon="11.07494"><ele>209.0</ele><time>2026-04-05T13:47:18.104Z</time></trkpt><trkpt lat="43.4132433" lon="11.0748817"><ele>209.00000000000003</ele><time>2026-04-05T13:47:19.104Z</time></trkpt><trkpt lat="43.41319" lon="11.0748033"><ele>209.0</ele><time>2026-04-05T13:47:20.104Z</time></trkpt><trkpt lat="43.4131483" lon="11.0746933"><ele>209.0</ele><time>2026-04-05T13:47:21.104Z</time></trkpt><trkpt lat="43.413105" lon="11.074575"><ele>209.0</ele><time>2026-04-05T13:47:22.104Z</time></trkpt><trkpt lat="43.4130567" lon="11.074455"><ele>209.0</ele><time>2026-04-05T13:47:23.104Z</time></trkpt><trkpt lat="43.4129917" lon="11.0743517"><ele>209.0</ele><time>2026-04-05T13:47:24.104Z</time></trkpt><trkpt lat="43.4129117" lon="11.0742683"><ele>209.0</ele><time>2026-04-05T13:47:25.104Z</time></trkpt><trkpt lat="43.4128133" lon="11.07422"><ele>208.6</ele><time>2026-04-05T13:47:26.104Z</time></trkpt><trkpt lat="43.4127117" lon="11.07422"><ele>208.2</ele><time>2026-04-05T13:47:27.104Z</time></trkpt><trkpt lat="43.4126067" lon="11.0742467"><ele>207.79999999999998</ele><time>2026-04-05T13:47:28.103Z</time></trkpt><trkpt lat="43.4124983" lon="11.07429"><ele>207.39999999999998</ele><time>2026-04-05T13:47:29.103Z</time></trkpt><trkpt lat="43.4123983" lon="11.0743383"><ele>207.0</ele><time>2026-04-05T13:47:30.104Z</time></trkpt><trkpt lat="43.4122983" lon="11.07438"><ele>207.0</ele><time>2026-04-05T13:47:31.104Z</time></trkpt><trkpt lat="43.412195" lon="11.07442"><ele>207.0</ele><time>2026-04-05T13:47:32.104Z</time></trkpt><trkpt lat="43.4121017" lon="11.07444"><ele>207.0</ele><time>2026-04-05T13:47:33.104Z</time></trkpt><trkpt lat="43.41202" lon="11.0744417"><ele>207.0</ele><time>2026-04-05T13:47:34.104Z</time></trkpt><trkpt lat="43.411955" lon="11.074315"><ele>207.0</ele><time>2026-04-05T13:47:36.104Z</time></trkpt><trkpt lat="43.41199" lon="11.074235"><ele>205.0</ele><time>2026-04-05T13:47:37.104Z</time></trkpt><trkpt lat="43.4120317" lon="11.0741683"><ele>203.0</ele><time>2026-04-05T13:47:38.104Z</time></trkpt><trkpt lat="43.4121433" lon="11.0740567"><ele>201.0</ele><time>2026-04-05T13:47:40.104Z</time></trkpt><trkpt lat="43.4122367" lon="11.0740033"><ele>199.0</ele><time>2026-04-05T13:47:41.104Z</time></trkpt><trkpt lat="43.4123167" lon="11.0739367"><ele>197.0</ele><time>2026-04-05T13:47:42.104Z</time></trkpt><trkpt lat="43.41239" lon="11.07385"><ele>196.6</ele><time>2026-04-05T13:47:43.103Z</time></trkpt><trkpt lat="43.4124483" lon="11.0737483"><ele>196.2</ele><time>2026-04-05T13:47:44.104Z</time></trkpt><trkpt lat="43.4124367" lon="11.0736167"><ele>195.8</ele><time>2026-04-05T13:47:45.104Z</time></trkpt><trkpt lat="43.4124083" lon="11.0734967"><ele>195.4</ele><time>2026-04-05T13:47:46.104Z</time></trkpt><trkpt lat="43.4123517" lon="11.0733767"><ele>195.0</ele><time>2026-04-05T13:47:47.104Z</time></trkpt><trkpt lat="43.4122833" lon="11.0732567"><ele>193.75</ele><time>2026-04-05T13:47:48.104Z</time></trkpt><trkpt lat="43.4122117" lon="11.0731283"><ele>192.5</ele><time>2026-04-05T13:47:49.104Z</time></trkpt><trkpt lat="43.4121367" lon="11.0729967"><ele>191.25</ele><time>2026-04-05T13:47:50.103Z</time></trkpt><trkpt lat="43.4120683" lon="11.0728533"><ele>190.0</ele><time>2026-04-05T13:47:51.104Z</time></trkpt><trkpt lat="43.4120083" lon="11.072695"><ele>189.75</ele><time>2026-04-05T13:47:52.103Z</time></trkpt><trkpt lat="43.4119517" lon="11.072525"><ele>189.5</ele><time>2026-04-05T13:47:53.104Z</time></trkpt><trkpt lat="43.4118983" lon="11.0723517"><ele>189.25</ele><time>2026-04-05T13:47:54.104Z</time></trkpt><trkpt lat="43.4118483" lon="11.0721767"><ele>189.0</ele><time>2026-04-05T13:47:55.104Z</time></trkpt><trkpt lat="43.411795" lon="11.0719967"><ele>189.0</ele><time>2026-04-05T13:47:56.104Z</time></trkpt><trkpt lat="43.411745" lon="11.071815"><ele>189.0</ele><time>2026-04-05T13:47:57.104Z</time></trkpt><trkpt lat="43.411695" lon="11.071635"><ele>189.0</ele><time>2026-04-05T13:47:58.104Z</time></trkpt><trkpt lat="43.4116467" lon="11.071455"><ele>189.0</ele><time>2026-04-05T13:47:59.104Z</time></trkpt><trkpt lat="43.4116017" lon="11.0712767"><ele>188.0</ele><time>2026-04-05T13:48:00.104Z</time></trkpt><trkpt lat="43.4115583" lon="11.0711"><ele>187.0</ele><time>2026-04-05T13:48:01.104Z</time></trkpt><trkpt lat="43.411515" lon="11.0709217"><ele>186.0</ele><time>2026-04-05T13:48:02.104Z</time></trkpt><trkpt lat="43.411465" lon="11.070745"><ele>185.0</ele><time>2026-04-05T13:48:03.104Z</time></trkpt><trkpt lat="43.411415" lon="11.0705683"><ele>184.75</ele><time>2026-04-05T13:48:04.104Z</time></trkpt><trkpt lat="43.4113683" lon="11.0703883"><ele>184.5</ele><time>2026-04-05T13:48:05.104Z</time></trkpt><trkpt lat="43.4113217" lon="11.0702067"><ele>184.25</ele><time>2026-04-05T13:48:06.104Z</time></trkpt><trkpt lat="43.4112717" lon="11.0700217"><ele>184.0</ele><time>2026-04-05T13:48:07.104Z</time></trkpt><trkpt lat="43.4112217" lon="11.0698367"><ele>183.75</ele><time>2026-04-05T13:48:08.104Z</time></trkpt><trkpt lat="43.4111733" lon="11.0696517"><ele>183.5</ele><time>2026-04-05T13:48:09.104Z</time></trkpt><trkpt lat="43.4111217" lon="11.069465"><ele>183.25</ele><time>2026-04-05T13:48:10.104Z</time></trkpt><trkpt lat="43.4110667" lon="11.0692833"><ele>183.0</ele><time>2026-04-05T13:48:11.104Z</time></trkpt><trkpt lat="43.4110117" lon="11.0691033"><ele>183.0</ele><time>2026-04-05T13:48:12.104Z</time></trkpt><trkpt lat="43.4109567" lon="11.068925"><ele>183.0</ele><time>2026-04-05T13:48:13.104Z</time></trkpt><trkpt lat="43.4109067" lon="11.0687433"><ele>183.0</ele><time>2026-04-05T13:48:14.104Z</time></trkpt><trkpt lat="43.410855" lon="11.0685633"><ele>183.0</ele><time>2026-04-05T13:48:15.104Z</time></trkpt><trkpt lat="43.4108067" lon="11.06838"><ele>183.25</ele><time>2026-04-05T13:48:16.104Z</time></trkpt><trkpt lat="43.41076" lon="11.0681933"><ele>183.5</ele><time>2026-04-05T13:48:17.104Z</time></trkpt><trkpt lat="43.4107117" lon="11.0680083"><ele>183.75</ele><time>2026-04-05T13:48:18.104Z</time></trkpt><trkpt lat="43.4106667" lon="11.0678267"><ele>184.0</ele><time>2026-04-05T13:48:19.104Z</time></trkpt><trkpt lat="43.41062" lon="11.0676483"><ele>184.0</ele><time>2026-04-05T13:48:20.104Z</time></trkpt><trkpt lat="43.4105783" lon="11.0674717"><ele>184.0</ele><time>2026-04-05T13:48:21.104Z</time></trkpt><trkpt lat="43.4105333" lon="11.0672933"><ele>184.0</ele><time>2026-04-05T13:48:22.104Z</time></trkpt><trkpt lat="43.4104833" lon="11.0671117"><ele>184.0</ele><time>2026-04-05T13:48:23.104Z</time></trkpt><trkpt lat="43.410435" lon="11.0669283"><ele>184.5</ele><time>2026-04-05T13:48:24.104Z</time></trkpt><trkpt lat="43.4103867" lon="11.0667417"><ele>185.0</ele><time>2026-04-05T13:48:25.104Z</time></trkpt><trkpt lat="43.4103383" lon="11.06656"><ele>185.5</ele><time>2026-04-05T13:48:26.104Z</time></trkpt><trkpt lat="43.4102917" lon="11.0663817"><ele>186.0</ele><time>2026-04-05T13:48:27.104Z</time></trkpt><trkpt lat="43.4102533" lon="11.06621"><ele>186.0</ele><time>2026-04-05T13:48:28.104Z</time></trkpt><trkpt lat="43.41022" lon="11.066035"><ele>186.0</ele><time>2026-04-05T13:48:29.104Z</time></trkpt><trkpt lat="43.4102017" lon="11.0658533"><ele>186.0</ele><time>2026-04-05T13:48:30.104Z</time></trkpt><trkpt lat="43.4102" lon="11.0656733"><ele>186.0</ele><time>2026-04-05T13:48:31.104Z</time></trkpt><trkpt lat="43.4102217" lon="11.0655"><ele>186.5</ele><time>2026-04-05T13:48:32.104Z</time></trkpt><trkpt lat="43.4102667" lon="11.0653383"><ele>187.0</ele><time>2026-04-05T13:48:33.104Z</time></trkpt><trkpt lat="43.4103333" lon="11.0651867"><ele>187.5</ele><time>2026-04-05T13:48:34.104Z</time></trkpt><trkpt lat="43.4104233" lon="11.0650517"><ele>188.0</ele><time>2026-04-05T13:48:35.104Z</time></trkpt><trkpt lat="43.41053" lon="11.0649383"><ele>190.5</ele><time>2026-04-05T13:48:36.104Z</time></trkpt><trkpt lat="43.4106533" lon="11.0648517"><ele>193.0</ele><time>2026-04-05T13:48:37.104Z</time></trkpt><trkpt lat="43.410785" lon="11.0647933"><ele>195.5</ele><time>2026-04-05T13:48:38.104Z</time></trkpt><trkpt lat="43.4109183" lon="11.0647517"><ele>198.0</ele><time>2026-04-05T13:48:39.104Z</time></trkpt><trkpt lat="43.4110517" lon="11.0647133"><ele>198.0</ele><time>2026-04-05T13:48:40.104Z</time></trkpt><trkpt lat="43.4111783" lon="11.0646767"><ele>198.0</ele><time>2026-04-05T13:48:41.103Z</time></trkpt><trkpt lat="43.4113017" lon="11.0646383"><ele>198.0</ele><time>2026-04-05T13:48:42.104Z</time></trkpt><trkpt lat="43.4114267" lon="11.064595"><ele>198.0</ele><time>2026-04-05T13:48:43.104Z</time></trkpt><trkpt lat="43.4115567" lon="11.06455"><ele>199.5</ele><time>2026-04-05T13:48:44.104Z</time></trkpt><trkpt lat="43.41169" lon="11.0645067"><ele>201.0</ele><time>2026-04-05T13:48:45.103Z</time></trkpt><trkpt lat="43.4118233" lon="11.0644633"><ele>202.5</ele><time>2026-04-05T13:48:46.103Z</time></trkpt><trkpt lat="43.4119567" lon="11.0644217"><ele>204.0</ele><time>2026-04-05T13:48:47.103Z</time></trkpt><trkpt lat="43.41209" lon="11.0643767"><ele>205.25</ele><time>2026-04-05T13:48:48.103Z</time></trkpt><trkpt lat="43.41222" lon="11.0643267"><ele>206.5</ele><time>2026-04-05T13:48:49.103Z</time></trkpt><trkpt lat="43.4123483" lon="11.06428"><ele>207.75</ele><time>2026-04-05T13:48:50.103Z</time></trkpt><trkpt lat="43.4124717" lon="11.0642283"><ele>209.0</ele><time>2026-04-05T13:48:51.103Z</time></trkpt><trkpt lat="43.41259" lon="11.0641767"><ele>209.0</ele><time>2026-04-05T13:48:52.103Z</time></trkpt><trkpt lat="43.4127033" lon="11.0641333"><ele>209.0</ele><time>2026-04-05T13:48:53.103Z</time></trkpt><trkpt lat="43.4128133" lon="11.064095"><ele>209.0</ele><time>2026-04-05T13:48:54.103Z</time></trkpt><trkpt lat="43.4129167" lon="11.0640567"><ele>209.0</ele><time>2026-04-05T13:48:55.103Z</time></trkpt><trkpt lat="43.4130083" lon="11.0640117"><ele>209.0</ele><time>2026-04-05T13:48:56.103Z</time></trkpt><trkpt lat="43.4130883" lon="11.0639483"><ele>210.83333333333334</ele><time>2026-04-05T13:48:57.103Z</time></trkpt><trkpt lat="43.4131383" lon="11.0638617"><ele>212.66666666666669</ele><time>2026-04-05T13:48:58.103Z</time></trkpt><trkpt lat="43.4131633" lon="11.0637617"><ele>214.5</ele><time>2026-04-05T13:48:59.103Z</time></trkpt><trkpt lat="43.4131483" lon="11.06366"><ele>216.33333333333331</ele><time>2026-04-05T13:49:00.103Z</time></trkpt><trkpt lat="43.41309" lon="11.06357"><ele>218.16666666666666</ele><time>2026-04-05T13:49:01.102Z</time></trkpt><trkpt lat="43.4130117" lon="11.063495"><ele>220.0</ele><time>2026-04-05T13:49:02.103Z</time></trkpt><trkpt lat="43.4129133" lon="11.0634117"><ele>220.0</ele><time>2026-04-05T13:49:03.103Z</time></trkpt><trkpt lat="43.4128183" lon="11.06332"><ele>220.0</ele><time>2026-04-05T13:49:04.103Z</time></trkpt><trkpt lat="43.4127267" lon="11.0632283"><ele>220.0</ele><time>2026-04-05T13:49:05.103Z</time></trkpt><trkpt lat="43.41264" lon="11.0631417"><ele>220.0</ele><time>2026-04-05T13:49:06.103Z</time></trkpt><trkpt lat="43.4125517" lon="11.0630517"><ele>220.0</ele><time>2026-04-05T13:49:07.103Z</time></trkpt><trkpt lat="43.412465" lon="11.06296"><ele>220.25</ele><time>2026-04-05T13:49:08.103Z</time></trkpt><trkpt lat="43.4123833" lon="11.0628483"><ele>220.5</ele><time>2026-04-05T13:49:09.103Z</time></trkpt><trkpt lat="43.4123" lon="11.0627467"><ele>220.75</ele><time>2026-04-05T13:49:10.103Z</time></trkpt><trkpt lat="43.4122217" lon="11.0626367"><ele>221.0</ele><time>2026-04-05T13:49:11.103Z</time></trkpt><trkpt lat="43.4121533" lon="11.0625083"><ele>224.0</ele><time>2026-04-05T13:49:12.103Z</time></trkpt><trkpt lat="43.4120933" lon="11.0623733"><ele>227.0</ele><time>2026-04-05T13:49:13.103Z</time></trkpt><trkpt lat="43.4120433" lon="11.0622317"><ele>230.0</ele><time>2026-04-05T13:49:14.103Z</time></trkpt><trkpt lat="43.412" lon="11.0620833"><ele>233.0</ele><time>2026-04-05T13:49:15.103Z</time></trkpt><trkpt lat="43.4119517" lon="11.0619367"><ele>233.0</ele><time>2026-04-05T13:49:16.103Z</time></trkpt><trkpt lat="43.4119033" lon="11.0617833"><ele>233.0</ele><time>2026-04-05T13:49:17.103Z</time></trkpt><trkpt lat="43.411855" lon="11.0616267"><ele>233.0</ele><time>2026-04-05T13:49:18.103Z</time></trkpt><trkpt lat="43.4118217" lon="11.0614567"><ele>233.0</ele><time>2026-04-05T13:49:19.103Z</time></trkpt><trkpt lat="43.41179" lon="11.0612833"><ele>235.25</ele><time>2026-04-05T13:49:20.103Z</time></trkpt><trkpt lat="43.411775" lon="11.061105"><ele>237.5</ele><time>2026-04-05T13:49:21.103Z</time></trkpt><trkpt lat="43.411765" lon="11.0609233"><ele>239.75</ele><time>2026-04-05T13:49:22.103Z</time></trkpt><trkpt lat="43.4117567" lon="11.0607433"><ele>242.0</ele><time>2026-04-05T13:49:23.103Z</time></trkpt><trkpt lat="43.4117433" lon="11.06056"><ele>244.0</ele><time>2026-04-05T13:49:24.102Z</time></trkpt><trkpt lat="43.4117283" lon="11.0603783"><ele>246.0</ele><time>2026-04-05T13:49:25.103Z</time></trkpt><trkpt lat="43.411715" lon="11.0602"><ele>248.0</ele><time>2026-04-05T13:49:26.103Z</time></trkpt><trkpt lat="43.4117017" lon="11.0600267"><ele>250.0</ele><time>2026-04-05T13:49:27.102Z</time></trkpt><trkpt lat="43.4116883" lon="11.0598567"><ele>252.0</ele><time>2026-04-05T13:49:28.103Z</time></trkpt><trkpt lat="43.411675" lon="11.0596833"><ele>254.0</ele><time>2026-04-05T13:49:29.103Z</time></trkpt><trkpt lat="43.41166" lon="11.0595083"><ele>256.0</ele><time>2026-04-05T13:49:30.103Z</time></trkpt><trkpt lat="43.411645" lon="11.0593367"><ele>258.0</ele><time>2026-04-05T13:49:31.103Z</time></trkpt><trkpt lat="43.4116267" lon="11.0591667"><ele>261.25</ele><time>2026-04-05T13:49:32.103Z</time></trkpt><trkpt lat="43.4115967" lon="11.0590067"><ele>264.5</ele><time>2026-04-05T13:49:33.103Z</time></trkpt><trkpt lat="43.4115417" lon="11.05886"><ele>267.75</ele><time>2026-04-05T13:49:34.103Z</time></trkpt><trkpt lat="43.4114583" lon="11.0587383"><ele>271.0</ele><time>2026-04-05T13:49:35.103Z</time></trkpt><trkpt lat="43.4113467" lon="11.058665"><ele>269.25</ele><time>2026-04-05T13:49:36.103Z</time></trkpt><trkpt lat="43.411225" lon="11.0586267"><ele>267.5</ele><time>2026-04-05T13:49:37.103Z</time></trkpt><trkpt lat="43.4111" lon="11.0585967"><ele>265.75</ele><time>2026-04-05T13:49:38.103Z</time></trkpt><trkpt lat="43.4109767" lon="11.05855"><ele>264.0</ele><time>2026-04-05T13:49:39.103Z</time></trkpt><trkpt lat="43.4108617" lon="11.05848"><ele>264.0</ele><time>2026-04-05T13:49:40.102Z</time></trkpt><trkpt lat="43.4107433" lon="11.0584083"><ele>264.0</ele><time>2026-04-05T13:49:41.102Z</time></trkpt><trkpt lat="43.4106183" lon="11.0583383"><ele>264.0</ele><time>2026-04-05T13:49:42.103Z</time></trkpt><trkpt lat="43.41049" lon="11.0582917"><ele>264.0</ele><time>2026-04-05T13:49:43.103Z</time></trkpt><trkpt lat="43.41036" lon="11.05828"><ele>264.5</ele><time>2026-04-05T13:49:44.103Z</time></trkpt><trkpt lat="43.4102333" lon="11.0583"><ele>265.0</ele><time>2026-04-05T13:49:45.103Z</time></trkpt><trkpt lat="43.4101083" lon="11.058335"><ele>265.5</ele><time>2026-04-05T13:49:46.103Z</time></trkpt><trkpt lat="43.40999" lon="11.05836"><ele>266.0</ele><time>2026-04-05T13:49:47.103Z</time></trkpt><trkpt lat="43.4098733" lon="11.05837"><ele>266.0</ele><time>2026-04-05T13:49:48.103Z</time></trkpt><trkpt lat="43.40977" lon="11.058345"><ele>266.0</ele><time>2026-04-05T13:49:49.103Z</time></trkpt><trkpt lat="43.4096867" lon="11.0582817"><ele>266.0</ele><time>2026-04-05T13:49:50.103Z</time></trkpt><trkpt lat="43.409635" lon="11.0581717"><ele>266.0</ele><time>2026-04-05T13:49:51.103Z</time></trkpt><trkpt lat="43.4095983" lon="11.058065"><ele>266.0</ele><time>2026-04-05T13:49:52.103Z</time></trkpt><trkpt lat="43.4096567" lon="11.0579683"><ele>267.8</ele><time>2026-04-05T13:49:53.103Z</time></trkpt><trkpt lat="43.409725" lon="11.0578967"><ele>269.6</ele><time>2026-04-05T13:49:54.102Z</time></trkpt><trkpt lat="43.409815" lon="11.0578567"><ele>271.4</ele><time>2026-04-05T13:49:55.103Z</time></trkpt><trkpt lat="43.409915" lon="11.0578383"><ele>273.2</ele><time>2026-04-05T13:49:56.103Z</time></trkpt><trkpt lat="43.410025" lon="11.0578"><ele>275.0</ele><time>2026-04-05T13:49:57.103Z</time></trkpt><trkpt lat="43.41013" lon="11.0577433"><ele>275.0</ele><time>2026-04-05T13:49:58.103Z</time></trkpt><trkpt lat="43.41023" lon="11.0576733"><ele>275.0</ele><time>2026-04-05T13:49:59.103Z</time></trkpt><trkpt lat="43.4103183" lon="11.057595"><ele>275.0</ele><time>2026-04-05T13:50:00.103Z</time></trkpt><trkpt lat="43.4103833" lon="11.057505"><ele>275.0</ele><time>2026-04-05T13:50:01.103Z</time></trkpt><trkpt lat="43.4104267" lon="11.0574067"><ele>275.0</ele><time>2026-04-05T13:50:02.103Z</time></trkpt><trkpt lat="43.4104483" lon="11.057305"><ele>276.6666666666667</ele><time>2026-04-05T13:50:03.103Z</time></trkpt><trkpt lat="43.4103783" lon="11.0572533"><ele>278.33333333333337</ele><time>2026-04-05T13:50:04.103Z</time></trkpt><trkpt lat="43.4102983" lon="11.0572483"><ele>280.0</ele><time>2026-04-05T13:50:05.103Z</time></trkpt><trkpt lat="43.4102117" lon="11.0572817"><ele>281.6666666666667</ele><time>2026-04-05T13:50:06.103Z</time></trkpt><trkpt lat="43.4101217" lon="11.0573067"><ele>283.3333333333333</ele><time>2026-04-05T13:50:07.103Z</time></trkpt><trkpt lat="43.4100317" lon="11.0573167"><ele>285.0</ele><time>2026-04-05T13:50:08.103Z</time></trkpt><trkpt lat="43.4099533" lon="11.057305"><ele>285.0</ele><time>2026-04-05T13:50:09.103Z</time></trkpt><trkpt lat="43.4098917" lon="11.05724"><ele>285.0</ele><time>2026-04-05T13:50:10.103Z</time></trkpt><trkpt lat="43.409855" lon="11.05708"><ele>285.0</ele><time>2026-04-05T13:50:11.103Z</time></trkpt><trkpt lat="43.4098267" lon="11.0569283"><ele>285.0</ele><time>2026-04-05T13:50:12.103Z</time></trkpt><trkpt lat="43.4098083" lon="11.056765"><ele>285.0</ele><time>2026-04-05T13:50:13.103Z</time></trkpt><trkpt lat="43.4097883" lon="11.0566017"><ele>284.5</ele><time>2026-04-05T13:50:14.103Z</time></trkpt><trkpt lat="43.4097633" lon="11.05644"><ele>284.0</ele><time>2026-04-05T13:50:15.102Z</time></trkpt><trkpt lat="43.4097317" lon="11.0562883"><ele>283.5</ele><time>2026-04-05T13:50:16.103Z</time></trkpt><trkpt lat="43.4096883" lon="11.0561467"><ele>283.0</ele><time>2026-04-05T13:50:17.103Z</time></trkpt><trkpt lat="43.4096317" lon="11.0560133"><ele>283.0</ele><time>2026-04-05T13:50:18.103Z</time></trkpt><trkpt lat="43.4095667" lon="11.05588"><ele>283.0</ele><time>2026-04-05T13:50:19.103Z</time></trkpt><trkpt lat="43.4095" lon="11.0557417"><ele>283.0</ele><time>2026-04-05T13:50:20.103Z</time></trkpt><trkpt lat="43.40943" lon="11.0556"><ele>283.0</ele><time>2026-04-05T13:50:21.103Z</time></trkpt><trkpt lat="43.409355" lon="11.0554717"><ele>284.75</ele><time>2026-04-05T13:50:22.103Z</time></trkpt><trkpt lat="43.40927" lon="11.0553483"><ele>286.5</ele><time>2026-04-05T13:50:23.103Z</time></trkpt><trkpt lat="43.4091783" lon="11.0552217"><ele>288.25</ele><time>2026-04-05T13:50:24.103Z</time></trkpt><trkpt lat="43.409085" lon="11.0550933"><ele>290.0</ele><time>2026-04-05T13:50:25.102Z</time></trkpt><trkpt lat="43.4089917" lon="11.054965"><ele>290.0</ele><time>2026-04-05T13:50:26.103Z</time></trkpt><trkpt lat="43.4088967" lon="11.0548383"><ele>290.0</ele><time>2026-04-05T13:50:27.103Z</time></trkpt><trkpt lat="43.408805" lon="11.0547117"><ele>290.0</ele><time>2026-04-05T13:50:28.103Z</time></trkpt><trkpt lat="43.4087133" lon="11.054575"><ele>290.0</ele><time>2026-04-05T13:50:29.103Z</time></trkpt><trkpt lat="43.4086217" lon="11.05443"><ele>290.0</ele><time>2026-04-05T13:50:30.103Z</time></trkpt><trkpt lat="43.408535" lon="11.0542817"><ele>290.0</ele><time>2026-04-05T13:50:31.103Z</time></trkpt><trkpt lat="43.4084567" lon="11.0541333"><ele>290.0</ele><time>2026-04-05T13:50:32.103Z</time></trkpt><trkpt lat="43.40838" lon="11.0539817"><ele>290.0</ele><time>2026-04-05T13:50:33.103Z</time></trkpt><trkpt lat="43.408305" lon="11.0538217"><ele>288.25</ele><time>2026-04-05T13:50:34.103Z</time></trkpt><trkpt lat="43.4082367" lon="11.05367"><ele>286.5</ele><time>2026-04-05T13:50:35.103Z</time></trkpt><trkpt lat="43.4081717" lon="11.0535133"><ele>284.75</ele><time>2026-04-05T13:50:36.103Z</time></trkpt><trkpt lat="43.4081067" lon="11.0533567"><ele>283.0</ele><time>2026-04-05T13:50:37.103Z</time></trkpt><trkpt lat="43.40804" lon="11.0532067"><ele>284.25</ele><time>2026-04-05T13:50:38.103Z</time></trkpt><trkpt lat="43.4079633" lon="11.0530617"><ele>285.5</ele><time>2026-04-05T13:50:39.103Z</time></trkpt><trkpt lat="43.407885" lon="11.0529233"><ele>286.75</ele><time>2026-04-05T13:50:40.103Z</time></trkpt><trkpt lat="43.4078017" lon="11.0527967"><ele>288.0</ele><time>2026-04-05T13:50:41.103Z</time></trkpt><trkpt lat="43.4077117" lon="11.0526717"><ele>288.0</ele><time>2026-04-05T13:50:42.103Z</time></trkpt><trkpt lat="43.4076217" lon="11.0525483"><ele>288.0</ele><time>2026-04-05T13:50:43.103Z</time></trkpt><trkpt lat="43.407535" lon="11.0524167"><ele>288.0</ele><time>2026-04-05T13:50:44.103Z</time></trkpt><trkpt lat="43.4074517" lon="11.052275"><ele>288.0</ele><time>2026-04-05T13:50:45.103Z</time></trkpt><trkpt lat="43.4073733" lon="11.0521233"><ele>288.25</ele><time>2026-04-05T13:50:46.103Z</time></trkpt><trkpt lat="43.4073" lon="11.05197"><ele>288.5</ele><time>2026-04-05T13:50:47.103Z</time></trkpt><trkpt lat="43.4072233" lon="11.0518167"><ele>288.75</ele><time>2026-04-05T13:50:48.103Z</time></trkpt><trkpt lat="43.4071467" lon="11.051665"><ele>289.0</ele><time>2026-04-05T13:50:49.103Z</time></trkpt><trkpt lat="43.4070683" lon="11.0515117"><ele>290.75</ele><time>2026-04-05T13:50:50.103Z</time></trkpt><trkpt lat="43.4069933" lon="11.051355"><ele>292.5</ele><time>2026-04-05T13:50:51.103Z</time></trkpt><trkpt lat="43.4069183" lon="11.0512"><ele>294.25</ele><time>2026-04-05T13:50:52.103Z</time></trkpt><trkpt lat="43.4068433" lon="11.051045"><ele>296.0</ele><time>2026-04-05T13:50:53.103Z</time></trkpt><trkpt lat="43.4067683" lon="11.05089"><ele>296.25</ele><time>2026-04-05T13:50:54.103Z</time></trkpt><trkpt lat="43.4066933" lon="11.0507367"><ele>296.5</ele><time>2026-04-05T13:50:55.103Z</time></trkpt><trkpt lat="43.4066217" lon="11.0505817"><ele>296.75</ele><time>2026-04-05T13:50:56.103Z</time></trkpt><trkpt lat="43.4065583" lon="11.050425"><ele>297.0</ele><time>2026-04-05T13:50:57.103Z</time></trkpt><trkpt lat="43.4065" lon="11.050265"><ele>297.0</ele><time>2026-04-05T13:50:58.103Z</time></trkpt><trkpt lat="43.406455" lon="11.0501033"><ele>297.0</ele><time>2026-04-05T13:50:59.102Z</time></trkpt><trkpt lat="43.4064283" lon="11.0499383"><ele>297.0</ele><time>2026-04-05T13:51:00.103Z</time></trkpt><trkpt lat="43.4064033" lon="11.0497733"><ele>297.0</ele><time>2026-04-05T13:51:01.103Z</time></trkpt><trkpt lat="43.40637" lon="11.0496117"><ele>296.5</ele><time>2026-04-05T13:51:02.103Z</time></trkpt><trkpt lat="43.4063217" lon="11.0494517"><ele>296.0</ele><time>2026-04-05T13:51:03.103Z</time></trkpt><trkpt lat="43.40627" lon="11.0492883"><ele>295.5</ele><time>2026-04-05T13:51:04.103Z</time></trkpt><trkpt lat="43.4062117" lon="11.0491283"><ele>295.0</ele><time>2026-04-05T13:51:05.103Z</time></trkpt><trkpt lat="43.4061517" lon="11.0489717"><ele>295.0</ele><time>2026-04-05T13:51:06.103Z</time></trkpt><trkpt lat="43.4060917" lon="11.0488117"><ele>295.0</ele><time>2026-04-05T13:51:07.103Z</time></trkpt><trkpt lat="43.40603" lon="11.0486467"><ele>295.0</ele><time>2026-04-05T13:51:08.103Z</time></trkpt><trkpt lat="43.4059733" lon="11.0484717"><ele>295.0</ele><time>2026-04-05T13:51:09.103Z</time></trkpt><trkpt lat="43.40592" lon="11.0482883"><ele>295.25</ele><time>2026-04-05T13:51:10.103Z</time></trkpt><trkpt lat="43.4058683" lon="11.0480983"><ele>295.5</ele><time>2026-04-05T13:51:11.103Z</time></trkpt><trkpt lat="43.4058217" lon="11.047905"><ele>295.75</ele><time>2026-04-05T13:51:12.103Z</time></trkpt><trkpt lat="43.4057733" lon="11.0477133"><ele>296.0</ele><time>2026-04-05T13:51:13.103Z</time></trkpt><trkpt lat="43.40573" lon="11.047525"><ele>296.75</ele><time>2026-04-05T13:51:14.103Z</time></trkpt><trkpt lat="43.405685" lon="11.0473417"><ele>297.5</ele><time>2026-04-05T13:51:15.103Z</time></trkpt><trkpt lat="43.4056433" lon="11.0471583"><ele>298.25</ele><time>2026-04-05T13:51:16.103Z</time></trkpt><trkpt lat="43.4056133" lon="11.0469733"><ele>299.0</ele><time>2026-04-05T13:51:17.103Z</time></trkpt><trkpt lat="43.405595" lon="11.0467867"><ele>301.0</ele><time>2026-04-05T13:51:18.103Z</time></trkpt><trkpt lat="43.4055883" lon="11.0465967"><ele>303.0</ele><time>2026-04-05T13:51:19.103Z</time></trkpt><trkpt lat="43.40559" lon="11.0464033"><ele>305.0</ele><time>2026-04-05T13:51:20.103Z</time></trkpt><trkpt lat="43.4055983" lon="11.0462083"><ele>307.0</ele><time>2026-04-05T13:51:21.103Z</time></trkpt><trkpt lat="43.40561" lon="11.0460117"><ele>307.0</ele><time>2026-04-05T13:51:22.103Z</time></trkpt><trkpt lat="43.4056167" lon="11.045815"><ele>307.0</ele><time>2026-04-05T13:51:23.102Z</time></trkpt><trkpt lat="43.40562" lon="11.0456217"><ele>307.0</ele><time>2026-04-05T13:51:24.103Z</time></trkpt><trkpt lat="43.4056167" lon="11.045435"><ele>307.0</ele><time>2026-04-05T13:51:25.103Z</time></trkpt><trkpt lat="43.405605" lon="11.045255"><ele>307.5</ele><time>2026-04-05T13:51:26.103Z</time></trkpt><trkpt lat="43.4055883" lon="11.0450767"><ele>308.0</ele><time>2026-04-05T13:51:27.103Z</time></trkpt><trkpt lat="43.4055667" lon="11.0448983"><ele>308.5</ele><time>2026-04-05T13:51:28.103Z</time></trkpt><trkpt lat="43.4055367" lon="11.0447217"><ele>309.0</ele><time>2026-04-05T13:51:29.102Z</time></trkpt><trkpt lat="43.4054967" lon="11.044545"><ele>308.0</ele><time>2026-04-05T13:51:30.103Z</time></trkpt><trkpt lat="43.4054517" lon="11.0443683"><ele>307.0</ele><time>2026-04-05T13:51:31.102Z</time></trkpt><trkpt lat="43.4054" lon="11.0441917"><ele>306.0</ele><time>2026-04-05T13:51:32.103Z</time></trkpt><trkpt lat="43.4053517" lon="11.0440133"><ele>305.0</ele><time>2026-04-05T13:51:33.103Z</time></trkpt><trkpt lat="43.4053017" lon="11.04383"><ele>304.5</ele><time>2026-04-05T13:51:34.103Z</time></trkpt><trkpt lat="43.40525" lon="11.043645"><ele>304.0</ele><time>2026-04-05T13:51:35.103Z</time></trkpt><trkpt lat="43.4051967" lon="11.0434583"><ele>303.5</ele><time>2026-04-05T13:51:36.103Z</time></trkpt><trkpt lat="43.405145" lon="11.0432667"><ele>303.0</ele><time>2026-04-05T13:51:37.103Z</time></trkpt><trkpt lat="43.40509" lon="11.0430717"><ele>302.3333333333333</ele><time>2026-04-05T13:51:38.103Z</time></trkpt><trkpt lat="43.4050367" lon="11.0428733"><ele>301.66666666666663</ele><time>2026-04-05T13:51:39.103Z</time></trkpt><trkpt lat="43.4049883" lon="11.0426667"><ele>301.0</ele><time>2026-04-05T13:51:40.103Z</time></trkpt><trkpt lat="43.404945" lon="11.0424533"><ele>300.0</ele><time>2026-04-05T13:51:41.103Z</time></trkpt><trkpt lat="43.404905" lon="11.0422367"><ele>299.0</ele><time>2026-04-05T13:51:42.103Z</time></trkpt><trkpt lat="43.4048717" lon="11.04202"><ele>298.0</ele><time>2026-04-05T13:51:43.103Z</time></trkpt><trkpt lat="43.4048417" lon="11.041805"><ele>297.3333333333333</ele><time>2026-04-05T13:51:44.103Z</time></trkpt><trkpt lat="43.4048133" lon="11.0415917"><ele>296.6666666666667</ele><time>2026-04-05T13:51:45.103Z</time></trkpt><trkpt lat="43.40478" lon="11.0413817"><ele>296.0</ele><time>2026-04-05T13:51:46.103Z</time></trkpt><trkpt lat="43.4047433" lon="11.0411767"><ele>296.0</ele><time>2026-04-05T13:51:47.103Z</time></trkpt><trkpt lat="43.4047083" lon="11.0409717"><ele>296.0</ele><time>2026-04-05T13:51:48.103Z</time></trkpt><trkpt lat="43.4046667" lon="11.0407683"><ele>296.0</ele><time>2026-04-05T13:51:49.103Z</time></trkpt><trkpt lat="43.4046183" lon="11.0405683"><ele>296.6666666666667</ele><time>2026-04-05T13:51:50.103Z</time></trkpt><trkpt lat="43.404555" lon="11.0403767"><ele>297.3333333333333</ele><time>2026-04-05T13:51:51.103Z</time></trkpt><trkpt lat="43.4044867" lon="11.04019"><ele>298.0</ele><time>2026-04-05T13:51:52.103Z</time></trkpt><trkpt lat="43.4043433" lon="11.0398317"><ele>299.3333333333333</ele><time>2026-04-05T13:51:54.103Z</time></trkpt><trkpt lat="43.40427" lon="11.0396533"><ele>300.6666666666667</ele><time>2026-04-05T13:51:55.103Z</time></trkpt><trkpt lat="43.404195" lon="11.0394733"><ele>302.0</ele><time>2026-04-05T13:51:56.103Z</time></trkpt><trkpt lat="43.4041167" lon="11.039295"><ele>301.33333333333337</ele><time>2026-04-05T13:51:57.103Z</time></trkpt><trkpt lat="43.40404" lon="11.039115"><ele>300.6666666666667</ele><time>2026-04-05T13:51:58.103Z</time></trkpt><trkpt lat="43.403965" lon="11.038935"><ele>300.0</ele><time>2026-04-05T13:51:59.103Z</time></trkpt><trkpt lat="43.40389" lon="11.0387533"><ele>300.0</ele><time>2026-04-05T13:52:00.103Z</time></trkpt><trkpt lat="43.4038167" lon="11.0385717"><ele>300.0</ele><time>2026-04-05T13:52:01.103Z</time></trkpt><trkpt lat="43.4037433" lon="11.03839"><ele>300.0</ele><time>2026-04-05T13:52:02.103Z</time></trkpt><trkpt lat="43.4036717" lon="11.0382067"><ele>301.6666666666667</ele><time>2026-04-05T13:52:03.103Z</time></trkpt><trkpt lat="43.4036017" lon="11.0380233"><ele>303.33333333333337</ele><time>2026-04-05T13:52:04.103Z</time></trkpt><trkpt lat="43.4035317" lon="11.0378367"><ele>305.0</ele><time>2026-04-05T13:52:05.103Z</time></trkpt><trkpt lat="43.4034583" lon="11.0376533"><ele>305.0</ele><time>2026-04-05T13:52:06.103Z</time></trkpt><trkpt lat="43.4033883" lon="11.03747"><ele>305.0</ele><time>2026-04-05T13:52:07.103Z</time></trkpt><trkpt lat="43.4033183" lon="11.0372933"><ele>305.0</ele><time>2026-04-05T13:52:08.103Z</time></trkpt><trkpt lat="43.403245" lon="11.0371183"><ele>305.0</ele><time>2026-04-05T13:52:09.103Z</time></trkpt><trkpt lat="43.403175" lon="11.0369417"><ele>304.6666666666667</ele><time>2026-04-05T13:52:10.103Z</time></trkpt><trkpt lat="43.4031067" lon="11.0367667"><ele>304.3333333333333</ele><time>2026-04-05T13:52:11.103Z</time></trkpt><trkpt lat="43.4030417" lon="11.0365917"><ele>304.0</ele><time>2026-04-05T13:52:12.102Z</time></trkpt><trkpt lat="43.4029317" lon="11.0362317"><ele>306.75</ele><time>2026-04-05T13:52:14.103Z</time></trkpt><trkpt lat="43.4028883" lon="11.036045"><ele>309.5</ele><time>2026-04-05T13:52:15.103Z</time></trkpt><trkpt lat="43.4028517" lon="11.0358567"><ele>312.25</ele><time>2026-04-05T13:52:16.102Z</time></trkpt><trkpt lat="43.4028167" lon="11.03567"><ele>315.0</ele><time>2026-04-05T13:52:17.103Z</time></trkpt><trkpt lat="43.402795" lon="11.0354817"><ele>315.25</ele><time>2026-04-05T13:52:18.103Z</time></trkpt><trkpt lat="43.4028" lon="11.03529"><ele>315.5</ele><time>2026-04-05T13:52:19.103Z</time></trkpt><trkpt lat="43.402835" lon="11.0350983"><ele>315.75</ele><time>2026-04-05T13:52:20.103Z</time></trkpt><trkpt lat="43.40289" lon="11.034915"><ele>316.0</ele><time>2026-04-05T13:52:21.103Z</time></trkpt><trkpt lat="43.4029617" lon="11.03474"><ele>315.75</ele><time>2026-04-05T13:52:22.103Z</time></trkpt><trkpt lat="43.4030417" lon="11.0345633"><ele>315.5</ele><time>2026-04-05T13:52:23.103Z</time></trkpt><trkpt lat="43.4031217" lon="11.03439"><ele>315.25</ele><time>2026-04-05T13:52:24.102Z</time></trkpt><trkpt lat="43.403195" lon="11.0342133"><ele>315.0</ele><time>2026-04-05T13:52:25.103Z</time></trkpt><trkpt lat="43.4032517" lon="11.03403"><ele>315.0</ele><time>2026-04-05T13:52:26.103Z</time></trkpt><trkpt lat="43.4032817" lon="11.0338367"><ele>315.0</ele><time>2026-04-05T13:52:27.102Z</time></trkpt><trkpt lat="43.403285" lon="11.0336367"><ele>315.0</ele><time>2026-04-05T13:52:28.102Z</time></trkpt><trkpt lat="43.40327" lon="11.0334317"><ele>315.0</ele><time>2026-04-05T13:52:29.103Z</time></trkpt><trkpt lat="43.403245" lon="11.033225"><ele>314.6666666666667</ele><time>2026-04-05T13:52:30.103Z</time></trkpt><trkpt lat="43.40322" lon="11.033015"><ele>314.33333333333337</ele><time>2026-04-05T13:52:31.103Z</time></trkpt><trkpt lat="43.4031917" lon="11.032805"><ele>314.0</ele><time>2026-04-05T13:52:32.103Z</time></trkpt><trkpt lat="43.40316" lon="11.0326"><ele>313.5</ele><time>2026-04-05T13:52:33.103Z</time></trkpt><trkpt lat="43.4031167" lon="11.0324017"><ele>313.0</ele><time>2026-04-05T13:52:34.103Z</time></trkpt><trkpt lat="43.4030633" lon="11.0322167"><ele>312.5</ele><time>2026-04-05T13:52:35.103Z</time></trkpt><trkpt lat="43.403" lon="11.03204"><ele>312.0</ele><time>2026-04-05T13:52:36.103Z</time></trkpt><trkpt lat="43.4029317" lon="11.031865"><ele>313.25</ele><time>2026-04-05T13:52:37.103Z</time></trkpt><trkpt lat="43.4028633" lon="11.031695"><ele>314.5</ele><time>2026-04-05T13:52:38.103Z</time></trkpt><trkpt lat="43.4027967" lon="11.0315233"><ele>315.75</ele><time>2026-04-05T13:52:39.103Z</time></trkpt><trkpt lat="43.4027283" lon="11.0313533"><ele>317.0</ele><time>2026-04-05T13:52:40.103Z</time></trkpt><trkpt lat="43.4026683" lon="11.0311817"><ele>317.0</ele><time>2026-04-05T13:52:41.103Z</time></trkpt><trkpt lat="43.4026083" lon="11.0310033"><ele>317.0</ele><time>2026-04-05T13:52:42.103Z</time></trkpt><trkpt lat="43.402555" lon="11.0308167"><ele>317.0</ele><time>2026-04-05T13:52:43.103Z</time></trkpt><trkpt lat="43.40252" lon="11.0306183"><ele>317.0</ele><time>2026-04-05T13:52:44.103Z</time></trkpt><trkpt lat="43.4025017" lon="11.0304167"><ele>316.0</ele><time>2026-04-05T13:52:45.103Z</time></trkpt><trkpt lat="43.4024883" lon="11.03022"><ele>315.0</ele><time>2026-04-05T13:52:46.103Z</time></trkpt><trkpt lat="43.4024767" lon="11.030025"><ele>314.0</ele><time>2026-04-05T13:52:47.103Z</time></trkpt><trkpt lat="43.402465" lon="11.0298333"><ele>313.0</ele><time>2026-04-05T13:52:48.103Z</time></trkpt><trkpt lat="43.402455" lon="11.0296467"><ele>313.0</ele><time>2026-04-05T13:52:49.103Z</time></trkpt><trkpt lat="43.4024433" lon="11.0294617"><ele>313.0</ele><time>2026-04-05T13:52:50.103Z</time></trkpt><trkpt lat="43.4024317" lon="11.02928"><ele>313.0</ele><time>2026-04-05T13:52:51.103Z</time></trkpt><trkpt lat="43.4024183" lon="11.0291017"><ele>313.0</ele><time>2026-04-05T13:52:52.103Z</time></trkpt><trkpt lat="43.4024067" lon="11.028925"><ele>314.25</ele><time>2026-04-05T13:52:53.103Z</time></trkpt><trkpt lat="43.402395" lon="11.0287517"><ele>315.5</ele><time>2026-04-05T13:52:54.103Z</time></trkpt><trkpt lat="43.4023833" lon="11.0285817"><ele>316.75</ele><time>2026-04-05T13:52:55.103Z</time></trkpt><trkpt lat="43.40237" lon="11.0284167"><ele>318.0</ele><time>2026-04-05T13:52:56.103Z</time></trkpt><trkpt lat="43.4023583" lon="11.0282583"><ele>319.6</ele><time>2026-04-05T13:52:57.103Z</time></trkpt><trkpt lat="43.4023533" lon="11.0281"><ele>321.20000000000005</ele><time>2026-04-05T13:52:58.103Z</time></trkpt><trkpt lat="43.4023617" lon="11.02795"><ele>322.8</ele><time>2026-04-05T13:52:59.103Z</time></trkpt><trkpt lat="43.4024" lon="11.0278233"><ele>324.40000000000003</ele><time>2026-04-05T13:53:00.103Z</time></trkpt><trkpt lat="43.40247" lon="11.0277183"><ele>326.0</ele><time>2026-04-05T13:53:01.103Z</time></trkpt><trkpt lat="43.4025717" lon="11.0276483"><ele>326.0</ele><time>2026-04-05T13:53:02.103Z</time></trkpt><trkpt lat="43.402685" lon="11.027605"><ele>326.0</ele><time>2026-04-05T13:53:03.102Z</time></trkpt><trkpt lat="43.402795" lon="11.02756"><ele>326.0</ele><time>2026-04-05T13:53:04.103Z</time></trkpt><trkpt lat="43.4029017" lon="11.027505"><ele>326.0</ele><time>2026-04-05T13:53:05.103Z</time></trkpt><trkpt lat="43.4029883" lon="11.0274133"><ele>325.8</ele><time>2026-04-05T13:53:06.103Z</time></trkpt><trkpt lat="43.4030617" lon="11.0272983"><ele>325.6</ele><time>2026-04-05T13:53:07.103Z</time></trkpt><trkpt lat="43.4031067" lon="11.0271617"><ele>325.4</ele><time>2026-04-05T13:53:08.103Z</time></trkpt><trkpt lat="43.4031367" lon="11.02701"><ele>325.2</ele><time>2026-04-05T13:53:09.102Z</time></trkpt><trkpt lat="43.40315" lon="11.0268567"><ele>325.0</ele><time>2026-04-05T13:53:10.103Z</time></trkpt><trkpt lat="43.4031433" lon="11.0267"><ele>325.4</ele><time>2026-04-05T13:53:11.103Z</time></trkpt><trkpt lat="43.4031267" lon="11.02655"><ele>325.8</ele><time>2026-04-05T13:53:12.103Z</time></trkpt><trkpt lat="43.403095" lon="11.0264017"><ele>326.20000000000005</ele><time>2026-04-05T13:53:13.102Z</time></trkpt><trkpt lat="43.403065" lon="11.0262533"><ele>326.6</ele><time>2026-04-05T13:53:14.102Z</time></trkpt><trkpt lat="43.40304" lon="11.026105"><ele>327.0</ele><time>2026-04-05T13:53:15.103Z</time></trkpt><trkpt lat="43.40302" lon="11.0259517"><ele>328.75</ele><time>2026-04-05T13:53:16.103Z</time></trkpt><trkpt lat="43.4030233" lon="11.0257983"><ele>330.5</ele><time>2026-04-05T13:53:17.103Z</time></trkpt><trkpt lat="43.4030433" lon="11.0256467"><ele>332.25</ele><time>2026-04-05T13:53:18.103Z</time></trkpt><trkpt lat="43.4030667" lon="11.0254917"><ele>334.0</ele><time>2026-04-05T13:53:19.103Z</time></trkpt><trkpt lat="43.4030933" lon="11.0253317"><ele>334.0</ele><time>2026-04-05T13:53:20.103Z</time></trkpt><trkpt lat="43.4031233" lon="11.0251717"><ele>334.0</ele><time>2026-04-05T13:53:21.103Z</time></trkpt><trkpt lat="43.4031667" lon="11.025015"><ele>334.0</ele><time>2026-04-05T13:53:22.103Z</time></trkpt><trkpt lat="43.4032183" lon="11.0248733"><ele>334.0</ele><time>2026-04-05T13:53:23.103Z</time></trkpt><trkpt lat="43.4032817" lon="11.0247417"><ele>334.75</ele><time>2026-04-05T13:53:24.102Z</time></trkpt><trkpt lat="43.403365" lon="11.0246233"><ele>335.5</ele><time>2026-04-05T13:53:25.102Z</time></trkpt><trkpt lat="43.4034567" lon="11.024515"><ele>336.25</ele><time>2026-04-05T13:53:26.103Z</time></trkpt><trkpt lat="43.4035617" lon="11.02443"><ele>337.0</ele><time>2026-04-05T13:53:27.103Z</time></trkpt><trkpt lat="43.403685" lon="11.0243817"><ele>337.0</ele><time>2026-04-05T13:53:28.103Z</time></trkpt><trkpt lat="43.403815" lon="11.0243533"><ele>337.0</ele><time>2026-04-05T13:53:29.103Z</time></trkpt><trkpt lat="43.4039467" lon="11.02433"><ele>337.0</ele><time>2026-04-05T13:53:30.103Z</time></trkpt><trkpt lat="43.4040733" lon="11.02429"><ele>337.0</ele><time>2026-04-05T13:53:31.103Z</time></trkpt><trkpt lat="43.4041967" lon="11.0242383"><ele>338.25</ele><time>2026-04-05T13:53:32.102Z</time></trkpt><trkpt lat="43.4043117" lon="11.02418"><ele>339.5</ele><time>2026-04-05T13:53:33.102Z</time></trkpt><trkpt lat="43.404425" lon="11.0241133"><ele>340.75</ele><time>2026-04-05T13:53:34.103Z</time></trkpt><trkpt lat="43.404535" lon="11.0240483"><ele>342.0</ele><time>2026-04-05T13:53:35.103Z</time></trkpt><trkpt lat="43.4046383" lon="11.02398"><ele>343.5</ele><time>2026-04-05T13:53:36.103Z</time></trkpt><trkpt lat="43.4047317" lon="11.0238933"><ele>345.0</ele><time>2026-04-05T13:53:37.103Z</time></trkpt><trkpt lat="43.4048133" lon="11.0237833"><ele>346.5</ele><time>2026-04-05T13:53:38.103Z</time></trkpt><trkpt lat="43.4048833" lon="11.02366"><ele>348.0</ele><time>2026-04-05T13:53:39.103Z</time></trkpt><trkpt lat="43.4049333" lon="11.0235267"><ele>348.0</ele><time>2026-04-05T13:53:40.103Z</time></trkpt><trkpt lat="43.4049583" lon="11.02337"><ele>348.0</ele><time>2026-04-05T13:53:41.103Z</time></trkpt><trkpt lat="43.4049667" lon="11.023205"><ele>348.0</ele><time>2026-04-05T13:53:42.103Z</time></trkpt><trkpt lat="43.4049583" lon="11.02304"><ele>348.0</ele><time>2026-04-05T13:53:43.103Z</time></trkpt><trkpt lat="43.4049367" lon="11.0228783"><ele>348.75</ele><time>2026-04-05T13:53:44.103Z</time></trkpt><trkpt lat="43.4049067" lon="11.0227267"><ele>349.5</ele><time>2026-04-05T13:53:45.103Z</time></trkpt><trkpt lat="43.4048667" lon="11.02258"><ele>350.25</ele><time>2026-04-05T13:53:46.103Z</time></trkpt><trkpt lat="43.4048117" lon="11.022445"><ele>351.0</ele><time>2026-04-05T13:53:47.103Z</time></trkpt><trkpt lat="43.404755" lon="11.0223167"><ele>352.0</ele><time>2026-04-05T13:53:48.103Z</time></trkpt><trkpt lat="43.4046967" lon="11.0221917"><ele>353.0</ele><time>2026-04-05T13:53:49.103Z</time></trkpt><trkpt lat="43.4046383" lon="11.0220683"><ele>354.0</ele><time>2026-04-05T13:53:50.103Z</time></trkpt><trkpt lat="43.404585" lon="11.02194"><ele>355.0</ele><time>2026-04-05T13:53:51.103Z</time></trkpt><trkpt lat="43.4045417" lon="11.0218033"><ele>356.0</ele><time>2026-04-05T13:53:52.103Z</time></trkpt><trkpt lat="43.4045117" lon="11.0216583"><ele>358.4</ele><time>2026-04-05T13:53:53.103Z</time></trkpt><trkpt lat="43.4045017" lon="11.021505"><ele>360.8</ele><time>2026-04-05T13:53:54.103Z</time></trkpt><trkpt lat="43.4045133" lon="11.0213517"><ele>363.2</ele><time>2026-04-05T13:53:55.103Z</time></trkpt><trkpt lat="43.4045417" lon="11.0212033"><ele>365.59999999999997</ele><time>2026-04-05T13:53:56.103Z</time></trkpt><trkpt lat="43.40459" lon="11.0210667"><ele>368.0</ele><time>2026-04-05T13:53:57.103Z</time></trkpt><trkpt lat="43.40466" lon="11.0209483"><ele>367.79999999999995</ele><time>2026-04-05T13:53:58.103Z</time></trkpt><trkpt lat="43.4047333" lon="11.02085"><ele>367.6</ele><time>2026-04-05T13:53:59.103Z</time></trkpt><trkpt lat="43.4048217" lon="11.0207717"><ele>367.4</ele><time>2026-04-05T13:54:00.103Z</time></trkpt><trkpt lat="43.4049183" lon="11.0207183"><ele>367.20000000000005</ele><time>2026-04-05T13:54:01.103Z</time></trkpt><trkpt lat="43.405005" lon="11.0206633"><ele>367.0</ele><time>2026-04-05T13:54:02.103Z</time></trkpt><trkpt lat="43.4050733" lon="11.0206033"><ele>368.5</ele><time>2026-04-05T13:54:03.103Z</time></trkpt><trkpt lat="43.405115" lon="11.020525"><ele>370.0</ele><time>2026-04-05T13:54:04.103Z</time></trkpt><trkpt lat="43.4050767" lon="11.0204367"><ele>371.5</ele><time>2026-04-05T13:54:05.103Z</time></trkpt><trkpt lat="43.405035" lon="11.020365"><ele>373.0</ele><time>2026-04-05T13:54:06.103Z</time></trkpt><trkpt lat="43.40497" lon="11.0203083"><ele>374.5</ele><time>2026-04-05T13:54:07.103Z</time></trkpt><trkpt lat="43.4048933" lon="11.02026"><ele>376.0</ele><time>2026-04-05T13:54:08.103Z</time></trkpt><trkpt lat="43.4048083" lon="11.020215"><ele>376.0</ele><time>2026-04-05T13:54:09.103Z</time></trkpt><trkpt lat="43.4047333" lon="11.0201667"><ele>376.0</ele><time>2026-04-05T13:54:10.103Z</time></trkpt><trkpt lat="43.4046667" lon="11.0201167"><ele>376.0</ele><time>2026-04-05T13:54:11.103Z</time></trkpt><trkpt lat="43.40461" lon="11.0200583"><ele>376.0</ele><time>2026-04-05T13:54:12.103Z</time></trkpt><trkpt lat="43.4045517" lon="11.019995"><ele>376.0</ele><time>2026-04-05T13:54:13.103Z</time></trkpt><trkpt lat="43.4044983" lon="11.0199183"><ele>376.0</ele><time>2026-04-05T13:54:14.103Z</time></trkpt><trkpt lat="43.4044567" lon="11.019815"><ele>375.3333333333333</ele><time>2026-04-05T13:54:15.103Z</time></trkpt><trkpt lat="43.404415" lon="11.0197267"><ele>374.66666666666663</ele><time>2026-04-05T13:54:16.102Z</time></trkpt><trkpt lat="43.4043933" lon="11.01962"><ele>374.0</ele><time>2026-04-05T13:54:17.103Z</time></trkpt><trkpt lat="43.4043883" lon="11.0195"><ele>373.3333333333333</ele><time>2026-04-05T13:54:18.103Z</time></trkpt><trkpt lat="43.4043933" lon="11.01937"><ele>372.6666666666667</ele><time>2026-04-05T13:54:19.103Z</time></trkpt><trkpt lat="43.404385" lon="11.019245"><ele>372.0</ele><time>2026-04-05T13:54:20.103Z</time></trkpt><trkpt lat="43.4043867" lon="11.01912"><ele>372.0</ele><time>2026-04-05T13:54:21.103Z</time></trkpt><trkpt lat="43.404395" lon="11.0189967"><ele>372.0</ele><time>2026-04-05T13:54:22.103Z</time></trkpt><trkpt lat="43.4044033" lon="11.0188733"><ele>372.0</ele><time>2026-04-05T13:54:23.103Z</time></trkpt><trkpt lat="43.4044117" lon="11.0187533"><ele>372.0</ele><time>2026-04-05T13:54:24.103Z</time></trkpt><trkpt lat="43.4044167" lon="11.0186283"><ele>372.0</ele><time>2026-04-05T13:54:25.103Z</time></trkpt><trkpt lat="43.40442" lon="11.0184983"><ele>372.0</ele><time>2026-04-05T13:54:26.103Z</time></trkpt><trkpt lat="43.40442" lon="11.0183667"><ele>372.0</ele><time>2026-04-05T13:54:27.103Z</time></trkpt><trkpt lat="43.4044283" lon="11.0182333"><ele>372.0</ele><time>2026-04-05T13:54:28.103Z</time></trkpt><trkpt lat="43.4044217" lon="11.0180967"><ele>372.0</ele><time>2026-04-05T13:54:29.103Z</time></trkpt><trkpt lat="43.4044167" lon="11.0179617"><ele>372.0</ele><time>2026-04-05T13:54:30.103Z</time></trkpt><trkpt lat="43.4043917" lon="11.0178367"><ele>370.8</ele><time>2026-04-05T13:54:31.103Z</time></trkpt><trkpt lat="43.4043617" lon="11.017715"><ele>369.6</ele><time>2026-04-05T13:54:32.103Z</time></trkpt><trkpt lat="43.4043217" lon="11.0175983"><ele>368.40000000000003</ele><time>2026-04-05T13:54:33.102Z</time></trkpt><trkpt lat="43.4042667" lon="11.0174867"><ele>367.20000000000005</ele><time>2026-04-05T13:54:34.103Z</time></trkpt><trkpt lat="43.4042133" lon="11.0173683"><ele>366.0</ele><time>2026-04-05T13:54:35.103Z</time></trkpt><trkpt lat="43.40416" lon="11.01724"><ele>365.25</ele><time>2026-04-05T13:54:36.103Z</time></trkpt><trkpt lat="43.4041017" lon="11.0171067"><ele>364.5</ele><time>2026-04-05T13:54:37.102Z</time></trkpt><trkpt lat="43.4040417" lon="11.01697"><ele>363.75</ele><time>2026-04-05T13:54:38.103Z</time></trkpt><trkpt lat="43.4039783" lon="11.01683"><ele>363.0</ele><time>2026-04-05T13:54:39.103Z</time></trkpt><trkpt lat="43.4039133" lon="11.016685"><ele>361.25</ele><time>2026-04-05T13:54:40.103Z</time></trkpt><trkpt lat="43.4038517" lon="11.0165367"><ele>359.5</ele><time>2026-04-05T13:54:41.103Z</time></trkpt><trkpt lat="43.4037917" lon="11.0163817"><ele>357.75</ele><time>2026-04-05T13:54:42.102Z</time></trkpt><trkpt lat="43.4037267" lon="11.016225"><ele>356.0</ele><time>2026-04-05T13:54:43.103Z</time></trkpt><trkpt lat="43.4036667" lon="11.0160633"><ele>356.0</ele><time>2026-04-05T13:54:44.102Z</time></trkpt><trkpt lat="43.4036167" lon="11.0158967"><ele>356.0</ele><time>2026-04-05T13:54:45.103Z</time></trkpt><trkpt lat="43.4035733" lon="11.0157233"><ele>356.0</ele><time>2026-04-05T13:54:46.102Z</time></trkpt><trkpt lat="43.4035417" lon="11.01555"><ele>356.0</ele><time>2026-04-05T13:54:47.103Z</time></trkpt><trkpt lat="43.4035233" lon="11.015375"><ele>357.0</ele><time>2026-04-05T13:54:48.103Z</time></trkpt><trkpt lat="43.4035133" lon="11.0151967"><ele>358.0</ele><time>2026-04-05T13:54:49.103Z</time></trkpt><trkpt lat="43.4035217" lon="11.0150167"><ele>359.0</ele><time>2026-04-05T13:54:50.103Z</time></trkpt><trkpt lat="43.4035433" lon="11.0148417"><ele>360.0</ele><time>2026-04-05T13:54:51.103Z</time></trkpt><trkpt lat="43.4035883" lon="11.0146717"><ele>360.75</ele><time>2026-04-05T13:54:52.103Z</time></trkpt><trkpt lat="43.4036433" lon="11.0145167"><ele>361.5</ele><time>2026-04-05T13:54:53.103Z</time></trkpt><trkpt lat="43.40371" lon="11.0143567"><ele>362.25</ele><time>2026-04-05T13:54:54.103Z</time></trkpt><trkpt lat="43.4037767" lon="11.0141967"><ele>363.0</ele><time>2026-04-05T13:54:55.103Z</time></trkpt><trkpt lat="43.40385" lon="11.0140367"><ele>366.0</ele><time>2026-04-05T13:54:56.103Z</time></trkpt><trkpt lat="43.4039217" lon="11.0138783"><ele>369.0</ele><time>2026-04-05T13:54:57.103Z</time></trkpt><trkpt lat="43.40401" lon="11.0137383"><ele>372.0</ele><time>2026-04-05T13:54:58.103Z</time></trkpt><trkpt lat="43.4041117" lon="11.0136367"><ele>375.0</ele><time>2026-04-05T13:54:59.102Z</time></trkpt><trkpt lat="43.4042283" lon="11.01357"><ele>375.0</ele><time>2026-04-05T13:55:00.103Z</time></trkpt><trkpt lat="43.40435" lon="11.0135333"><ele>375.0</ele><time>2026-04-05T13:55:01.103Z</time></trkpt><trkpt lat="43.4044717" lon="11.0134967"><ele>375.0</ele><time>2026-04-05T13:55:02.103Z</time></trkpt><trkpt lat="43.4045883" lon="11.0134467"><ele>375.0</ele><time>2026-04-05T13:55:03.103Z</time></trkpt><trkpt lat="43.4046783" lon="11.0133583"><ele>376.0</ele><time>2026-04-05T13:55:04.103Z</time></trkpt><trkpt lat="43.40473" lon="11.01324"><ele>377.0</ele><time>2026-04-05T13:55:05.102Z</time></trkpt><trkpt lat="43.4047317" lon="11.0131083"><ele>378.0</ele><time>2026-04-05T13:55:06.103Z</time></trkpt><trkpt lat="43.404695" lon="11.0129783"><ele>379.0</ele><time>2026-04-05T13:55:07.103Z</time></trkpt><trkpt lat="43.4046333" lon="11.0128567"><ele>380.0</ele><time>2026-04-05T13:55:08.103Z</time></trkpt><trkpt lat="43.404565" lon="11.0127333"><ele>380.0</ele><time>2026-04-05T13:55:09.103Z</time></trkpt><trkpt lat="43.404505" lon="11.01259"><ele>380.0</ele><time>2026-04-05T13:55:10.103Z</time></trkpt><trkpt lat="43.404445" lon="11.0124583"><ele>380.0</ele><time>2026-04-05T13:55:11.103Z</time></trkpt><trkpt lat="43.4043917" lon="11.0123183"><ele>380.0</ele><time>2026-04-05T13:55:12.104Z</time></trkpt><trkpt lat="43.4043417" lon="11.0121683"><ele>381.0</ele><time>2026-04-05T13:55:13.104Z</time></trkpt><trkpt lat="43.4043033" lon="11.0120133"><ele>382.0</ele><time>2026-04-05T13:55:14.104Z</time></trkpt><trkpt lat="43.4042833" lon="11.0118467"><ele>383.0</ele><time>2026-04-05T13:55:15.104Z</time></trkpt><trkpt lat="43.40427" lon="11.011675"><ele>384.0</ele><time>2026-04-05T13:55:16.104Z</time></trkpt><trkpt lat="43.4042617" lon="11.0115"><ele>384.0</ele><time>2026-04-05T13:55:17.104Z</time></trkpt><trkpt lat="43.4042567" lon="11.01132"><ele>384.0</ele><time>2026-04-05T13:55:18.104Z</time></trkpt><trkpt lat="43.4042567" lon="11.0111417"><ele>384.0</ele><time>2026-04-05T13:55:19.104Z</time></trkpt><trkpt lat="43.4042683" lon="11.0109683"><ele>384.0</ele><time>2026-04-05T13:55:20.104Z</time></trkpt><trkpt lat="43.404295" lon="11.0108"><ele>383.25</ele><time>2026-04-05T13:55:21.104Z</time></trkpt><trkpt lat="43.40433" lon="11.0106367"><ele>382.5</ele><time>2026-04-05T13:55:22.103Z</time></trkpt><trkpt lat="43.4043683" lon="11.0104783"><ele>381.75</ele><time>2026-04-05T13:55:23.104Z</time></trkpt><trkpt lat="43.4043933" lon="11.010315"><ele>381.0</ele><time>2026-04-05T13:55:24.104Z</time></trkpt><trkpt lat="43.4043983" lon="11.010145"><ele>380.25</ele><time>2026-04-05T13:55:25.104Z</time></trkpt><trkpt lat="43.40438" lon="11.0099733"><ele>379.5</ele><time>2026-04-05T13:55:26.104Z</time></trkpt><trkpt lat="43.40435" lon="11.0097983"><ele>378.75</ele><time>2026-04-05T13:55:27.103Z</time></trkpt><trkpt lat="43.4043083" lon="11.009625"><ele>378.0</ele><time>2026-04-05T13:55:28.104Z</time></trkpt><trkpt lat="43.4042667" lon="11.0094483"><ele>378.0</ele><time>2026-04-05T13:55:29.104Z</time></trkpt><trkpt lat="43.4042267" lon="11.009265"><ele>378.0</ele><time>2026-04-05T13:55:30.104Z</time></trkpt><trkpt lat="43.4041867" lon="11.00908"><ele>378.0</ele><time>2026-04-05T13:55:31.104Z</time></trkpt><trkpt lat="43.404145" lon="11.008895"><ele>378.0</ele><time>2026-04-05T13:55:32.104Z</time></trkpt><trkpt lat="43.4041017" lon="11.00871"><ele>378.0</ele><time>2026-04-05T13:55:33.103Z</time></trkpt><trkpt lat="43.404055" lon="11.0085217"><ele>378.0</ele><time>2026-04-05T13:55:34.104Z</time></trkpt><trkpt lat="43.40401" lon="11.0083317"><ele>378.0</ele><time>2026-04-05T13:55:35.104Z</time></trkpt><trkpt lat="43.4039617" lon="11.00814"><ele>378.0</ele><time>2026-04-05T13:55:36.104Z</time></trkpt><trkpt lat="43.403905" lon="11.0079533"><ele>377.75</ele><time>2026-04-05T13:55:37.103Z</time></trkpt><trkpt lat="43.4038467" lon="11.0077667"><ele>377.5</ele><time>2026-04-05T13:55:38.104Z</time></trkpt><trkpt lat="43.4037867" lon="11.0075817"><ele>377.25</ele><time>2026-04-05T13:55:39.104Z</time></trkpt><trkpt lat="43.4037267" lon="11.0073967"><ele>377.0</ele><time>2026-04-05T13:55:40.104Z</time></trkpt><trkpt lat="43.40367" lon="11.007215"><ele>377.0</ele><time>2026-04-05T13:55:41.104Z</time></trkpt><trkpt lat="43.4036133" lon="11.0070367"><ele>377.0</ele><time>2026-04-05T13:55:42.104Z</time></trkpt><trkpt lat="43.4035583" lon="11.00686"><ele>377.0</ele><time>2026-04-05T13:55:43.104Z</time></trkpt><trkpt lat="43.4035017" lon="11.0066883"><ele>377.0</ele><time>2026-04-05T13:55:44.104Z</time></trkpt><trkpt lat="43.4034467" lon="11.006515"><ele>376.5</ele><time>2026-04-05T13:55:45.104Z</time></trkpt><trkpt lat="43.4033933" lon="11.0063367"><ele>376.0</ele><time>2026-04-05T13:55:46.104Z</time></trkpt><trkpt lat="43.403335" lon="11.00616"><ele>375.5</ele><time>2026-04-05T13:55:47.104Z</time></trkpt><trkpt lat="43.4032733" lon="11.0059817"><ele>375.0</ele><time>2026-04-05T13:55:48.104Z</time></trkpt><trkpt lat="43.40321" lon="11.005805"><ele>375.0</ele><time>2026-04-05T13:55:49.103Z</time></trkpt><trkpt lat="43.4031417" lon="11.005635"><ele>375.0</ele><time>2026-04-05T13:55:50.104Z</time></trkpt><trkpt lat="43.4030683" lon="11.0054783"><ele>375.0</ele><time>2026-04-05T13:55:51.104Z</time></trkpt><trkpt lat="43.4029833" lon="11.0053267"><ele>375.0</ele><time>2026-04-05T13:55:52.104Z</time></trkpt><trkpt lat="43.4028983" lon="11.0051733"><ele>375.0</ele><time>2026-04-05T13:55:53.104Z</time></trkpt><trkpt lat="43.4028083" lon="11.00502"><ele>375.0</ele><time>2026-04-05T13:55:54.104Z</time></trkpt><trkpt lat="43.40272" lon="11.0048617"><ele>375.0</ele><time>2026-04-05T13:55:55.104Z</time></trkpt><trkpt lat="43.4026417" lon="11.004695"><ele>375.0</ele><time>2026-04-05T13:55:56.104Z</time></trkpt><trkpt lat="43.40258" lon="11.0045083"><ele>375.5</ele><time>2026-04-05T13:55:57.104Z</time></trkpt><trkpt lat="43.4025367" lon="11.0043167"><ele>376.0</ele><time>2026-04-05T13:55:58.104Z</time></trkpt><trkpt lat="43.4025033" lon="11.0041233"><ele>376.5</ele><time>2026-04-05T13:55:59.104Z</time></trkpt><trkpt lat="43.4024617" lon="11.0039367"><ele>377.0</ele><time>2026-04-05T13:56:00.104Z</time></trkpt><trkpt lat="43.402405" lon="11.00376"><ele>378.0</ele><time>2026-04-05T13:56:01.104Z</time></trkpt><trkpt lat="43.402345" lon="11.0035883"><ele>379.0</ele><time>2026-04-05T13:56:02.104Z</time></trkpt><trkpt lat="43.40228" lon="11.003425"><ele>380.0</ele><time>2026-04-05T13:56:03.104Z</time></trkpt><trkpt lat="43.402215" lon="11.00327"><ele>381.0</ele><time>2026-04-05T13:56:04.104Z</time></trkpt><trkpt lat="43.402145" lon="11.0031233"><ele>384.0</ele><time>2026-04-05T13:56:05.104Z</time></trkpt><trkpt lat="43.4020617" lon="11.0029883"><ele>387.0</ele><time>2026-04-05T13:56:06.104Z</time></trkpt><trkpt lat="43.40196" lon="11.0028867"><ele>390.0</ele><time>2026-04-05T13:56:07.104Z</time></trkpt><trkpt lat="43.4018417" lon="11.0028333"><ele>393.0</ele><time>2026-04-05T13:56:08.103Z</time></trkpt><trkpt lat="43.4017217" lon="11.0028083"><ele>393.0</ele><time>2026-04-05T13:56:09.104Z</time></trkpt><trkpt lat="43.4016083" lon="11.0028033"><ele>393.0</ele><time>2026-04-05T13:56:10.104Z</time></trkpt><trkpt lat="43.4015017" lon="11.002795"><ele>393.0</ele><time>2026-04-05T13:56:11.104Z</time></trkpt><trkpt lat="43.401405" lon="11.0027733"><ele>393.0</ele><time>2026-04-05T13:56:12.104Z</time></trkpt><trkpt lat="43.401335" lon="11.00271"><ele>393.0</ele><time>2026-04-05T13:56:13.104Z</time></trkpt><trkpt lat="43.4012833" lon="11.0026083"><ele>395.59999999999997</ele><time>2026-04-05T13:56:14.103Z</time></trkpt><trkpt lat="43.40128" lon="11.0024933"><ele>398.2</ele><time>2026-04-05T13:56:15.104Z</time></trkpt><trkpt lat="43.4012917" lon="11.0023767"><ele>400.8</ele><time>2026-04-05T13:56:16.104Z</time></trkpt><trkpt lat="43.4013517" lon="11.0022667"><ele>403.4</ele><time>2026-04-05T13:56:17.104Z</time></trkpt><trkpt lat="43.4014183" lon="11.00216"><ele>406.0</ele><time>2026-04-05T13:56:18.104Z</time></trkpt><trkpt lat="43.4015167" lon="11.0020533"><ele>406.0</ele><time>2026-04-05T13:56:19.104Z</time></trkpt><trkpt lat="43.4016167" lon="11.001965"><ele>406.0</ele><time>2026-04-05T13:56:20.104Z</time></trkpt><trkpt lat="43.401715" lon="11.0018917"><ele>406.0</ele><time>2026-04-05T13:56:21.104Z</time></trkpt><trkpt lat="43.4018267" lon="11.0018633"><ele>406.0</ele><time>2026-04-05T13:56:22.104Z</time></trkpt><trkpt lat="43.4019483" lon="11.001865"><ele>406.0</ele><time>2026-04-05T13:56:23.104Z</time></trkpt><trkpt lat="43.4020717" lon="11.0018933"><ele>406.0</ele><time>2026-04-05T13:56:24.103Z</time></trkpt><trkpt lat="43.402195" lon="11.001935"><ele>406.0</ele><time>2026-04-05T13:56:25.104Z</time></trkpt><trkpt lat="43.4023117" lon="11.00198"><ele>406.0</ele><time>2026-04-05T13:56:26.103Z</time></trkpt><trkpt lat="43.4024283" lon="11.001985"><ele>407.0</ele><time>2026-04-05T13:56:27.104Z</time></trkpt><trkpt lat="43.4025417" lon="11.0019517"><ele>408.0</ele><time>2026-04-05T13:56:28.104Z</time></trkpt><trkpt lat="43.4026383" lon="11.0018817"><ele>409.0</ele><time>2026-04-05T13:56:29.104Z</time></trkpt><trkpt lat="43.4027117" lon="11.00177"><ele>410.0</ele><time>2026-04-05T13:56:30.104Z</time></trkpt><trkpt lat="43.4027533" lon="11.00162"><ele>410.0</ele><time>2026-04-05T13:56:31.103Z</time></trkpt><trkpt lat="43.4027767" lon="11.0014567"><ele>410.0</ele><time>2026-04-05T13:56:32.104Z</time></trkpt><trkpt lat="43.4027917" lon="11.0012883"><ele>410.0</ele><time>2026-04-05T13:56:33.104Z</time></trkpt><trkpt lat="43.40281" lon="11.0011133"><ele>410.0</ele><time>2026-04-05T13:56:34.103Z</time></trkpt><trkpt lat="43.4028283" lon="11.0009417"><ele>411.5</ele><time>2026-04-05T13:56:35.104Z</time></trkpt><trkpt lat="43.4028533" lon="11.0007733"><ele>413.0</ele><time>2026-04-05T13:56:36.104Z</time></trkpt><trkpt lat="43.4028783" lon="11.00061"><ele>414.5</ele><time>2026-04-05T13:56:37.104Z</time></trkpt><trkpt lat="43.4028967" lon="11.0004517"><ele>416.0</ele><time>2026-04-05T13:56:38.104Z</time></trkpt><trkpt lat="43.4028883" lon="11.0002967"><ele>416.0</ele><time>2026-04-05T13:56:39.104Z</time></trkpt><trkpt lat="43.402865" lon="11.0001467"><ele>416.0</ele><time>2026-04-05T13:56:40.103Z</time></trkpt><trkpt lat="43.4028217" lon="11.0000133"><ele>416.0</ele><time>2026-04-05T13:56:41.104Z</time></trkpt><trkpt lat="43.402745" lon="10.999895"><ele>416.0</ele><time>2026-04-05T13:56:42.104Z</time></trkpt><trkpt lat="43.4026517" lon="10.9997833"><ele>416.0</ele><time>2026-04-05T13:56:43.104Z</time></trkpt><trkpt lat="43.4025433" lon="10.9996783"><ele>416.0</ele><time>2026-04-05T13:56:44.104Z</time></trkpt><trkpt lat="43.402435" lon="10.9995617"><ele>416.0</ele><time>2026-04-05T13:56:45.104Z</time></trkpt><trkpt lat="43.402335" lon="10.9994383"><ele>416.0</ele><time>2026-04-05T13:56:46.104Z</time></trkpt><trkpt lat="43.4022317" lon="10.99932"><ele>419.0</ele><time>2026-04-05T13:56:47.104Z</time></trkpt><trkpt lat="43.40213" lon="10.9992017"><ele>422.0</ele><time>2026-04-05T13:56:48.103Z</time></trkpt><trkpt lat="43.4020283" lon="10.99908"><ele>425.0</ele><time>2026-04-05T13:56:49.104Z</time></trkpt><trkpt lat="43.4019233" lon="10.9989583"><ele>428.0</ele><time>2026-04-05T13:56:50.104Z</time></trkpt><trkpt lat="43.4018183" lon="10.99884"><ele>428.0</ele><time>2026-04-05T13:56:51.104Z</time></trkpt><trkpt lat="43.4017167" lon="10.9987217"><ele>428.0</ele><time>2026-04-05T13:56:52.104Z</time></trkpt><trkpt lat="43.4016183" lon="10.9986"><ele>428.0</ele><time>2026-04-05T13:56:53.104Z</time></trkpt><trkpt lat="43.4015267" lon="10.998465"><ele>428.0</ele><time>2026-04-05T13:56:54.104Z</time></trkpt><trkpt lat="43.4014633" lon="10.9983083"><ele>426.75</ele><time>2026-04-05T13:56:55.104Z</time></trkpt><trkpt lat="43.4014317" lon="10.9981317"><ele>425.5</ele><time>2026-04-05T13:56:56.103Z</time></trkpt><trkpt lat="43.40143" lon="10.9979483"><ele>424.25</ele><time>2026-04-05T13:56:57.104Z</time></trkpt><trkpt lat="43.401445" lon="10.9977633"><ele>423.0</ele><time>2026-04-05T13:56:58.104Z</time></trkpt><trkpt lat="43.40147" lon="10.9975767"><ele>423.5</ele><time>2026-04-05T13:56:59.104Z</time></trkpt><trkpt lat="43.4014983" lon="10.997385"><ele>424.0</ele><time>2026-04-05T13:57:00.104Z</time></trkpt><trkpt lat="43.4015283" lon="10.9971967"><ele>424.5</ele><time>2026-04-05T13:57:01.104Z</time></trkpt><trkpt lat="43.4015717" lon="10.9970217"><ele>425.0</ele><time>2026-04-05T13:57:02.104Z</time></trkpt><trkpt lat="43.40165" lon="10.9968567"><ele>425.0</ele><time>2026-04-05T13:57:03.104Z</time></trkpt><trkpt lat="43.40174" lon="10.9967017"><ele>425.0</ele><time>2026-04-05T13:57:04.104Z</time></trkpt><trkpt lat="43.40183" lon="10.9965383"><ele>425.0</ele><time>2026-04-05T13:57:05.104Z</time></trkpt><trkpt lat="43.40191" lon="10.9963617"><ele>425.0</ele><time>2026-04-05T13:57:06.104Z</time></trkpt><trkpt lat="43.40199" lon="10.996185"><ele>425.25</ele><time>2026-04-05T13:57:07.104Z</time></trkpt><trkpt lat="43.402075" lon="10.9960133"><ele>425.5</ele><time>2026-04-05T13:57:08.103Z</time></trkpt><trkpt lat="43.402165" lon="10.9958567"><ele>425.75</ele><time>2026-04-05T13:57:09.104Z</time></trkpt><trkpt lat="43.4022617" lon="10.995715"><ele>426.0</ele><time>2026-04-05T13:57:10.104Z</time></trkpt><trkpt lat="43.4023483" lon="10.9955767"><ele>426.0</ele><time>2026-04-05T13:57:11.104Z</time></trkpt><trkpt lat="43.4024117" lon="10.99543"><ele>426.0</ele><time>2026-04-05T13:57:12.104Z</time></trkpt><trkpt lat="43.402445" lon="10.9952583"><ele>426.0</ele><time>2026-04-05T13:57:13.104Z</time></trkpt><trkpt lat="43.4024483" lon="10.9950783"><ele>426.0</ele><time>2026-04-05T13:57:14.104Z</time></trkpt><trkpt lat="43.4024233" lon="10.9949017"><ele>427.0</ele><time>2026-04-05T13:57:15.103Z</time></trkpt><trkpt lat="43.4023767" lon="10.9947233"><ele>428.0</ele><time>2026-04-05T13:57:16.104Z</time></trkpt><trkpt lat="43.4023233" lon="10.9945467"><ele>429.0</ele><time>2026-04-05T13:57:17.104Z</time></trkpt><trkpt lat="43.402255" lon="10.994375"><ele>430.0</ele><time>2026-04-05T13:57:18.104Z</time></trkpt><trkpt lat="43.40218" lon="10.9942083"><ele>431.0</ele><time>2026-04-05T13:57:19.104Z</time></trkpt><trkpt lat="43.40209" lon="10.9940467"><ele>432.0</ele><time>2026-04-05T13:57:20.104Z</time></trkpt><trkpt lat="43.4019917" lon="10.993885"><ele>433.0</ele><time>2026-04-05T13:57:21.104Z</time></trkpt><trkpt lat="43.4019017" lon="10.99372"><ele>433.0</ele><time>2026-04-05T13:57:22.104Z</time></trkpt><trkpt lat="43.4018217" lon="10.9935533"><ele>433.0</ele><time>2026-04-05T13:57:23.103Z</time></trkpt><trkpt lat="43.401755" lon="10.9933817"><ele>433.0</ele><time>2026-04-05T13:57:24.104Z</time></trkpt><trkpt lat="43.4017067" lon="10.9931983"><ele>433.0</ele><time>2026-04-05T13:57:25.104Z</time></trkpt><trkpt lat="43.401685" lon="10.9930017"><ele>431.25</ele><time>2026-04-05T13:57:26.104Z</time></trkpt><trkpt lat="43.40168" lon="10.9928017"><ele>429.5</ele><time>2026-04-05T13:57:27.104Z</time></trkpt><trkpt lat="43.4016783" lon="10.9926017"><ele>427.75</ele><time>2026-04-05T13:57:28.104Z</time></trkpt><trkpt lat="43.4016617" lon="10.9924017"><ele>426.0</ele><time>2026-04-05T13:57:29.104Z</time></trkpt><trkpt lat="43.4016167" lon="10.99221"><ele>425.75</ele><time>2026-04-05T13:57:30.104Z</time></trkpt><trkpt lat="43.4015533" lon="10.9920267"><ele>425.5</ele><time>2026-04-05T13:57:31.104Z</time></trkpt><trkpt lat="43.4014783" lon="10.9918467"><ele>425.25</ele><time>2026-04-05T13:57:32.104Z</time></trkpt><trkpt lat="43.4014067" lon="10.99167"><ele>425.0</ele><time>2026-04-05T13:57:33.104Z</time></trkpt><trkpt lat="43.4013417" lon="10.9914917"><ele>426.25</ele><time>2026-04-05T13:57:34.104Z</time></trkpt><trkpt lat="43.4012883" lon="10.9913033"><ele>427.5</ele><time>2026-04-05T13:57:35.104Z</time></trkpt><trkpt lat="43.40126" lon="10.9911117"><ele>428.75</ele><time>2026-04-05T13:57:36.104Z</time></trkpt><trkpt lat="43.4012617" lon="10.9909183"><ele>430.0</ele><time>2026-04-05T13:57:37.104Z</time></trkpt><trkpt lat="43.4012733" lon="10.9907417"><ele>430.0</ele><time>2026-04-05T13:57:38.104Z</time></trkpt><trkpt lat="43.40129" lon="10.9905733"><ele>430.0</ele><time>2026-04-05T13:57:39.104Z</time></trkpt><trkpt lat="43.4013117" lon="10.99041"><ele>430.0</ele><time>2026-04-05T13:57:40.104Z</time></trkpt><trkpt lat="43.4013267" lon="10.9902433"><ele>430.0</ele><time>2026-04-05T13:57:41.104Z</time></trkpt><trkpt lat="43.4013383" lon="10.9900717"><ele>429.5</ele><time>2026-04-05T13:57:42.104Z</time></trkpt><trkpt lat="43.4013517" lon="10.9898933"><ele>429.0</ele><time>2026-04-05T13:57:43.104Z</time></trkpt><trkpt lat="43.401365" lon="10.9897133"><ele>428.5</ele><time>2026-04-05T13:57:44.104Z</time></trkpt><trkpt lat="43.4013833" lon="10.9895333"><ele>428.0</ele><time>2026-04-05T13:57:45.104Z</time></trkpt><trkpt lat="43.40141" lon="10.9893517"><ele>429.25</ele><time>2026-04-05T13:57:46.104Z</time></trkpt><trkpt lat="43.4014483" lon="10.9891717"><ele>430.5</ele><time>2026-04-05T13:57:47.104Z</time></trkpt><trkpt lat="43.4014983" lon="10.9889967"><ele>431.75</ele><time>2026-04-05T13:57:48.103Z</time></trkpt><trkpt lat="43.4015533" lon="10.9888283"><ele>433.0</ele><time>2026-04-05T13:57:49.104Z</time></trkpt><trkpt lat="43.4016133" lon="10.988665"><ele>433.0</ele><time>2026-04-05T13:57:50.104Z</time></trkpt><trkpt lat="43.401675" lon="10.9885017"><ele>433.0</ele><time>2026-04-05T13:57:51.104Z</time></trkpt><trkpt lat="43.4017317" lon="10.9883433"><ele>433.0</ele><time>2026-04-05T13:57:52.104Z</time></trkpt><trkpt lat="43.4017833" lon="10.988185"><ele>433.0</ele><time>2026-04-05T13:57:53.104Z</time></trkpt><trkpt lat="43.4018267" lon="10.9880167"><ele>433.75</ele><time>2026-04-05T13:57:54.104Z</time></trkpt><trkpt lat="43.40186" lon="10.98784"><ele>434.5</ele><time>2026-04-05T13:57:55.104Z</time></trkpt><trkpt lat="43.4018867" lon="10.9876633"><ele>435.25</ele><time>2026-04-05T13:57:56.104Z</time></trkpt><trkpt lat="43.4019117" lon="10.987485"><ele>436.0</ele><time>2026-04-05T13:57:57.104Z</time></trkpt><trkpt lat="43.4019317" lon="10.9873017"><ele>437.25</ele><time>2026-04-05T13:57:58.104Z</time></trkpt><trkpt lat="43.4019517" lon="10.9871183"><ele>438.5</ele><time>2026-04-05T13:57:59.104Z</time></trkpt><trkpt lat="43.4019733" lon="10.9869333"><ele>439.75</ele><time>2026-04-05T13:58:00.104Z</time></trkpt><trkpt lat="43.4019983" lon="10.9867483"><ele>441.0</ele><time>2026-04-05T13:58:01.104Z</time></trkpt><trkpt lat="43.40203" lon="10.9865617"><ele>442.25</ele><time>2026-04-05T13:58:02.104Z</time></trkpt><trkpt lat="43.4020617" lon="10.9863767"><ele>443.5</ele><time>2026-04-05T13:58:03.104Z</time></trkpt><trkpt lat="43.4021" lon="10.986195"><ele>444.75</ele><time>2026-04-05T13:58:04.104Z</time></trkpt><trkpt lat="43.4021383" lon="10.986015"><ele>446.0</ele><time>2026-04-05T13:58:05.103Z</time></trkpt><trkpt lat="43.4021833" lon="10.9858383"><ele>447.75</ele><time>2026-04-05T13:58:06.104Z</time></trkpt><trkpt lat="43.40223" lon="10.9856583"><ele>449.5</ele><time>2026-04-05T13:58:07.104Z</time></trkpt><trkpt lat="43.402275" lon="10.9854733"><ele>451.25</ele><time>2026-04-05T13:58:08.104Z</time></trkpt><trkpt lat="43.4023183" lon="10.9852867"><ele>453.0</ele><time>2026-04-05T13:58:09.104Z</time></trkpt><trkpt lat="43.402365" lon="10.9850983"><ele>454.5</ele><time>2026-04-05T13:58:10.104Z</time></trkpt><trkpt lat="43.4024133" lon="10.9849083"><ele>456.0</ele><time>2026-04-05T13:58:11.104Z</time></trkpt><trkpt lat="43.402455" lon="10.984725"><ele>457.5</ele><time>2026-04-05T13:58:12.104Z</time></trkpt><trkpt lat="43.402505" lon="10.9845333"><ele>459.0</ele><time>2026-04-05T13:58:13.104Z</time></trkpt><trkpt lat="43.40255" lon="10.9843383"><ele>460.33333333333337</ele><time>2026-04-05T13:58:14.104Z</time></trkpt><trkpt lat="43.4025967" lon="10.9841383"><ele>461.6666666666667</ele><time>2026-04-05T13:58:15.104Z</time></trkpt><trkpt lat="43.4026433" lon="10.983935"><ele>463.0</ele><time>2026-04-05T13:58:16.104Z</time></trkpt><trkpt lat="43.40269" lon="10.9837267"><ele>463.0</ele><time>2026-04-05T13:58:17.104Z</time></trkpt><trkpt lat="43.40274" lon="10.983515"><ele>463.0</ele><time>2026-04-05T13:58:18.104Z</time></trkpt><trkpt lat="43.4027933" lon="10.9832983"><ele>463.0</ele><time>2026-04-05T13:58:19.104Z</time></trkpt><trkpt lat="43.40285" lon="10.9830767"><ele>464.0</ele><time>2026-04-05T13:58:20.104Z</time></trkpt><trkpt lat="43.4029083" lon="10.982855"><ele>465.0</ele><time>2026-04-05T13:58:21.104Z</time></trkpt><trkpt lat="43.402965" lon="10.9826383"><ele>466.0</ele><time>2026-04-05T13:58:22.104Z</time></trkpt><trkpt lat="43.4030133" lon="10.9824283"><ele>469.6666666666667</ele><time>2026-04-05T13:58:23.104Z</time></trkpt><trkpt lat="43.4030583" lon="10.982225"><ele>473.33333333333337</ele><time>2026-04-05T13:58:24.104Z</time></trkpt><trkpt lat="43.40311" lon="10.9820267"><ele>477.0</ele><time>2026-04-05T13:58:25.103Z</time></trkpt><trkpt lat="43.4031617" lon="10.9818267"><ele>478.0</ele><time>2026-04-05T13:58:26.104Z</time></trkpt><trkpt lat="43.4032117" lon="10.981625"><ele>479.0</ele><time>2026-04-05T13:58:27.104Z</time></trkpt><trkpt lat="43.40326" lon="10.98142"><ele>480.0</ele><time>2026-04-05T13:58:28.104Z</time></trkpt><trkpt lat="43.4033083" lon="10.9812133"><ele>480.0</ele><time>2026-04-05T13:58:29.104Z</time></trkpt><trkpt lat="43.403355" lon="10.9810017"><ele>480.0</ele><time>2026-04-05T13:58:30.104Z</time></trkpt><trkpt lat="43.4034067" lon="10.9807883"><ele>480.0</ele><time>2026-04-05T13:58:31.103Z</time></trkpt><trkpt lat="43.40346" lon="10.98057"><ele>478.0</ele><time>2026-04-05T13:58:32.103Z</time></trkpt><trkpt lat="43.403515" lon="10.9803483"><ele>476.0</ele><time>2026-04-05T13:58:33.103Z</time></trkpt><trkpt lat="43.40357" lon="10.9801267"><ele>474.0</ele><time>2026-04-05T13:58:34.104Z</time></trkpt><trkpt lat="43.4036233" lon="10.9799033"><ele>472.33333333333337</ele><time>2026-04-05T13:58:35.104Z</time></trkpt><trkpt lat="43.403675" lon="10.9796767"><ele>470.6666666666667</ele><time>2026-04-05T13:58:36.104Z</time></trkpt><trkpt lat="43.40373" lon="10.9794467"><ele>469.0</ele><time>2026-04-05T13:58:37.103Z</time></trkpt><trkpt lat="43.4037867" lon="10.9792183"><ele>473.6666666666667</ele><time>2026-04-05T13:58:38.104Z</time></trkpt><trkpt lat="43.40384" lon="10.9789917"><ele>478.33333333333337</ele><time>2026-04-05T13:58:39.104Z</time></trkpt><trkpt lat="43.4038917" lon="10.978765"><ele>483.0</ele><time>2026-04-05T13:58:40.103Z</time></trkpt><trkpt lat="43.403945" lon="10.97854"><ele>481.66666666666663</ele><time>2026-04-05T13:58:41.103Z</time></trkpt><trkpt lat="43.4039967" lon="10.9783183"><ele>480.3333333333333</ele><time>2026-04-05T13:58:42.104Z</time></trkpt><trkpt lat="43.40405" lon="10.9780983"><ele>479.0</ele><time>2026-04-05T13:58:43.104Z</time></trkpt><trkpt lat="43.404105" lon="10.9778783"><ele>479.0</ele><time>2026-04-05T13:58:44.104Z</time></trkpt><trkpt lat="43.4041583" lon="10.9776583"><ele>479.0</ele><time>2026-04-05T13:58:45.104Z</time></trkpt><trkpt lat="43.404205" lon="10.97744"><ele>479.0</ele><time>2026-04-05T13:58:46.104Z</time></trkpt><trkpt lat="43.4042433" lon="10.9772183"><ele>478.0</ele><time>2026-04-05T13:58:47.104Z</time></trkpt><trkpt lat="43.4042717" lon="10.9769933"><ele>477.0</ele><time>2026-04-05T13:58:48.104Z</time></trkpt><trkpt lat="43.40429" lon="10.9767717"><ele>476.0</ele><time>2026-04-05T13:58:49.104Z</time></trkpt><trkpt lat="43.4043" lon="10.9765467"><ele>475.3333333333333</ele><time>2026-04-05T13:58:50.104Z</time></trkpt><trkpt lat="43.404305" lon="10.9763217"><ele>474.66666666666663</ele><time>2026-04-05T13:58:51.104Z</time></trkpt><trkpt lat="43.4043083" lon="10.9760983"><ele>474.0</ele><time>2026-04-05T13:58:52.104Z</time></trkpt><trkpt lat="43.4043083" lon="10.97588"><ele>473.33333333333337</ele><time>2026-04-05T13:58:53.104Z</time></trkpt><trkpt lat="43.4043033" lon="10.9756617"><ele>472.6666666666667</ele><time>2026-04-05T13:58:54.104Z</time></trkpt><trkpt lat="43.4042933" lon="10.975445"><ele>472.0</ele><time>2026-04-05T13:58:55.104Z</time></trkpt><trkpt lat="43.4042733" lon="10.9752283"><ele>471.33333333333337</ele><time>2026-04-05T13:58:56.104Z</time></trkpt><trkpt lat="43.4042433" lon="10.9750133"><ele>470.66666666666663</ele><time>2026-04-05T13:58:57.104Z</time></trkpt><trkpt lat="43.4042033" lon="10.9748033"><ele>470.0</ele><time>2026-04-05T13:58:58.104Z</time></trkpt><trkpt lat="43.4041517" lon="10.9745933"><ele>470.0</ele><time>2026-04-05T13:58:59.104Z</time></trkpt><trkpt lat="43.4040883" lon="10.9743883"><ele>470.0</ele><time>2026-04-05T13:59:00.104Z</time></trkpt><trkpt lat="43.4040117" lon="10.9741867"><ele>470.0</ele><time>2026-04-05T13:59:01.104Z</time></trkpt><trkpt lat="43.4039283" lon="10.9739867"><ele>468.3333333333333</ele><time>2026-04-05T13:59:02.104Z</time></trkpt><trkpt lat="43.4038417" lon="10.973785"><ele>466.66666666666663</ele><time>2026-04-05T13:59:03.104Z</time></trkpt><trkpt lat="43.4037517" lon="10.9735833"><ele>465.0</ele><time>2026-04-05T13:59:04.104Z</time></trkpt><trkpt lat="43.4036567" lon="10.97338"><ele>464.66666666666663</ele><time>2026-04-05T13:59:05.104Z</time></trkpt><trkpt lat="43.4035667" lon="10.9731783"><ele>464.3333333333333</ele><time>2026-04-05T13:59:06.104Z</time></trkpt><trkpt lat="43.40348" lon="10.972975"><ele>464.0</ele><time>2026-04-05T13:59:07.104Z</time></trkpt><trkpt lat="43.4033867" lon="10.9727717"><ele>464.0</ele><time>2026-04-05T13:59:08.104Z</time></trkpt><trkpt lat="43.4032967" lon="10.9725667"><ele>464.0</ele><time>2026-04-05T13:59:09.104Z</time></trkpt><trkpt lat="43.4032067" lon="10.97236"><ele>464.0</ele><time>2026-04-05T13:59:10.104Z</time></trkpt><trkpt lat="43.4031133" lon="10.972155"><ele>462.3333333333333</ele><time>2026-04-05T13:59:11.104Z</time></trkpt><trkpt lat="43.4030217" lon="10.9719517"><ele>460.66666666666663</ele><time>2026-04-05T13:59:12.104Z</time></trkpt><trkpt lat="43.4029283" lon="10.9717517"><ele>459.0</ele><time>2026-04-05T13:59:13.104Z</time></trkpt><trkpt lat="43.402825" lon="10.9715617"><ele>458.33333333333337</ele><time>2026-04-05T13:59:14.104Z</time></trkpt><trkpt lat="43.4027217" lon="10.971375"><ele>457.6666666666667</ele><time>2026-04-05T13:59:15.104Z</time></trkpt><trkpt lat="43.4026167" lon="10.9711883"><ele>457.0</ele><time>2026-04-05T13:59:16.104Z</time></trkpt><trkpt lat="43.4025083" lon="10.971"><ele>453.6666666666667</ele><time>2026-04-05T13:59:17.103Z</time></trkpt><trkpt lat="43.4024" lon="10.9708133"><ele>450.33333333333337</ele><time>2026-04-05T13:59:18.104Z</time></trkpt><trkpt lat="43.4022917" lon="10.9706233"><ele>447.0</ele><time>2026-04-05T13:59:19.104Z</time></trkpt><trkpt lat="43.4021833" lon="10.9704317"><ele>446.66666666666663</ele><time>2026-04-05T13:59:20.104Z</time></trkpt><trkpt lat="43.4020767" lon="10.970235"><ele>446.3333333333333</ele><time>2026-04-05T13:59:21.104Z</time></trkpt><trkpt lat="43.4019717" lon="10.9700383"><ele>446.0</ele><time>2026-04-05T13:59:22.103Z</time></trkpt><trkpt lat="43.4018733" lon="10.969835"><ele>446.0</ele><time>2026-04-05T13:59:23.104Z</time></trkpt><trkpt lat="43.4017817" lon="10.9696283"><ele>446.0</ele><time>2026-04-05T13:59:24.103Z</time></trkpt><trkpt lat="43.4016983" lon="10.9694183"><ele>446.0</ele><time>2026-04-05T13:59:25.104Z</time></trkpt><trkpt lat="43.4016217" lon="10.9692"><ele>444.3333333333333</ele><time>2026-04-05T13:59:26.104Z</time></trkpt><trkpt lat="43.4015483" lon="10.96898"><ele>442.66666666666663</ele><time>2026-04-05T13:59:27.103Z</time></trkpt><trkpt lat="43.4014767" lon="10.9687617"><ele>441.0</ele><time>2026-04-05T13:59:28.104Z</time></trkpt><trkpt lat="43.401405" lon="10.968545"><ele>438.0</ele><time>2026-04-05T13:59:29.104Z</time></trkpt><trkpt lat="43.4013317" lon="10.9683267"><ele>435.0</ele><time>2026-04-05T13:59:30.104Z</time></trkpt><trkpt lat="43.40126" lon="10.9681067"><ele>432.0</ele><time>2026-04-05T13:59:31.104Z</time></trkpt><trkpt lat="43.4011867" lon="10.96789"><ele>432.0</ele><time>2026-04-05T13:59:32.104Z</time></trkpt><trkpt lat="43.4011133" lon="10.9676733"><ele>432.0</ele><time>2026-04-05T13:59:33.104Z</time></trkpt><trkpt lat="43.4010383" lon="10.96746"><ele>432.0</ele><time>2026-04-05T13:59:34.104Z</time></trkpt><trkpt lat="43.4009633" lon="10.9672467"><ele>431.33333333333337</ele><time>2026-04-05T13:59:35.104Z</time></trkpt><trkpt lat="43.4008833" lon="10.9670367"><ele>430.6666666666667</ele><time>2026-04-05T13:59:36.104Z</time></trkpt><trkpt lat="43.4008017" lon="10.9668283"><ele>430.0</ele><time>2026-04-05T13:59:37.104Z</time></trkpt><trkpt lat="43.4007167" lon="10.966625"><ele>429.0</ele><time>2026-04-05T13:59:38.104Z</time></trkpt><trkpt lat="43.4006267" lon="10.966425"><ele>428.0</ele><time>2026-04-05T13:59:39.104Z</time></trkpt><trkpt lat="43.4005383" lon="10.966225"><ele>427.0</ele><time>2026-04-05T13:59:40.104Z</time></trkpt><trkpt lat="43.4004533" lon="10.966025"><ele>425.6666666666667</ele><time>2026-04-05T13:59:41.104Z</time></trkpt><trkpt lat="43.4003683" lon="10.96583"><ele>424.33333333333337</ele><time>2026-04-05T13:59:42.104Z</time></trkpt><trkpt lat="43.4002833" lon="10.965635"><ele>423.0</ele><time>2026-04-05T13:59:43.104Z</time></trkpt><trkpt lat="43.4002033" lon="10.965445"><ele>423.0</ele><time>2026-04-05T13:59:44.104Z</time></trkpt><trkpt lat="43.4001167" lon="10.965255"><ele>423.0</ele><time>2026-04-05T13:59:45.104Z</time></trkpt><trkpt lat="43.4000267" lon="10.9650667"><ele>423.0</ele><time>2026-04-05T13:59:46.104Z</time></trkpt><trkpt lat="43.399935" lon="10.964885"><ele>421.66666666666663</ele><time>2026-04-05T13:59:47.104Z</time></trkpt><trkpt lat="43.3998417" lon="10.96471"><ele>420.3333333333333</ele><time>2026-04-05T13:59:48.104Z</time></trkpt><trkpt lat="43.3997433" lon="10.9645433"><ele>419.0</ele><time>2026-04-05T13:59:49.104Z</time></trkpt><trkpt lat="43.3996433" lon="10.9643817"><ele>419.0</ele><time>2026-04-05T13:59:50.104Z</time></trkpt><trkpt lat="43.3995383" lon="10.9642267"><ele>419.0</ele><time>2026-04-05T13:59:51.104Z</time></trkpt><trkpt lat="43.399435" lon="10.964075"><ele>419.0</ele><time>2026-04-05T13:59:52.104Z</time></trkpt><trkpt lat="43.3993283" lon="10.9639283"><ele>419.0</ele><time>2026-04-05T13:59:53.104Z</time></trkpt><trkpt lat="43.39922" lon="10.9637867"><ele>419.0</ele><time>2026-04-05T13:59:54.104Z</time></trkpt><trkpt lat="43.3991133" lon="10.963645"><ele>419.0</ele><time>2026-04-05T13:59:55.104Z</time></trkpt><trkpt lat="43.399005" lon="10.9635067"><ele>419.0</ele><time>2026-04-05T13:59:56.104Z</time></trkpt><trkpt lat="43.398895" lon="10.963365"><ele>417.66666666666663</ele><time>2026-04-05T13:59:57.104Z</time></trkpt><trkpt lat="43.3987767" lon="10.96322"><ele>416.33333333333337</ele><time>2026-04-05T13:59:58.104Z</time></trkpt><trkpt lat="43.3986583" lon="10.9630717"><ele>415.0</ele><time>2026-04-05T13:59:59.104Z</time></trkpt><trkpt lat="43.3985333" lon="10.96292"><ele>415.0</ele><time>2026-04-05T14:00:00.104Z</time></trkpt><trkpt lat="43.3984117" lon="10.962765"><ele>415.0</ele><time>2026-04-05T14:00:01.104Z</time></trkpt><trkpt lat="43.398285" lon="10.9626083"><ele>415.0</ele><time>2026-04-05T14:00:02.104Z</time></trkpt><trkpt lat="43.3981583" lon="10.9624483"><ele>415.0</ele><time>2026-04-05T14:00:03.104Z</time></trkpt><trkpt lat="43.3980283" lon="10.9622867"><ele>415.0</ele><time>2026-04-05T14:00:04.104Z</time></trkpt><trkpt lat="43.3978967" lon="10.9621267"><ele>415.0</ele><time>2026-04-05T14:00:05.104Z</time></trkpt><trkpt lat="43.3977617" lon="10.9619683"><ele>415.0</ele><time>2026-04-05T14:00:06.104Z</time></trkpt><trkpt lat="43.3976267" lon="10.9618083"><ele>415.0</ele><time>2026-04-05T14:00:07.104Z</time></trkpt><trkpt lat="43.3974917" lon="10.961645"><ele>415.0</ele><time>2026-04-05T14:00:08.104Z</time></trkpt><trkpt lat="43.39736" lon="10.9614783"><ele>414.0</ele><time>2026-04-05T14:00:09.104Z</time></trkpt><trkpt lat="43.3972283" lon="10.9613117"><ele>413.0</ele><time>2026-04-05T14:00:10.104Z</time></trkpt><trkpt lat="43.3970983" lon="10.9611483"><ele>412.0</ele><time>2026-04-05T14:00:11.104Z</time></trkpt><trkpt lat="43.396965" lon="10.960985"><ele>410.33333333333337</ele><time>2026-04-05T14:00:12.104Z</time></trkpt><trkpt lat="43.3968317" lon="10.9608233"><ele>408.66666666666663</ele><time>2026-04-05T14:00:13.104Z</time></trkpt><trkpt lat="43.3967" lon="10.96066"><ele>407.0</ele><time>2026-04-05T14:00:14.104Z</time></trkpt><trkpt lat="43.3965717" lon="10.960495"><ele>407.0</ele><time>2026-04-05T14:00:15.104Z</time></trkpt><trkpt lat="43.39645" lon="10.9603233"><ele>407.0</ele><time>2026-04-05T14:00:16.104Z</time></trkpt><trkpt lat="43.3963283" lon="10.9601483"><ele>407.0</ele><time>2026-04-05T14:00:17.104Z</time></trkpt><trkpt lat="43.396215" lon="10.9599667"><ele>407.3333333333333</ele><time>2026-04-05T14:00:18.104Z</time></trkpt><trkpt lat="43.3961067" lon="10.9597767"><ele>407.66666666666663</ele><time>2026-04-05T14:00:19.104Z</time></trkpt><trkpt lat="43.396005" lon="10.95958"><ele>408.0</ele><time>2026-04-05T14:00:20.104Z</time></trkpt><trkpt lat="43.3959083" lon="10.9593783"><ele>407.66666666666663</ele><time>2026-04-05T14:00:21.104Z</time></trkpt><trkpt lat="43.39582" lon="10.95917"><ele>407.3333333333333</ele><time>2026-04-05T14:00:22.104Z</time></trkpt><trkpt lat="43.3957333" lon="10.9589517"><ele>407.0</ele><time>2026-04-05T14:00:23.104Z</time></trkpt><trkpt lat="43.3956517" lon="10.9587333"><ele>407.0</ele><time>2026-04-05T14:00:24.104Z</time></trkpt><trkpt lat="43.3955683" lon="10.958515"><ele>407.0</ele><time>2026-04-05T14:00:25.104Z</time></trkpt><trkpt lat="43.3954883" lon="10.95829"><ele>407.0</ele><time>2026-04-05T14:00:26.104Z</time></trkpt><trkpt lat="43.3954117" lon="10.9580667"><ele>412.0</ele><time>2026-04-05T14:00:27.103Z</time></trkpt><trkpt lat="43.39533" lon="10.9578433"><ele>417.0</ele><time>2026-04-05T14:00:28.104Z</time></trkpt><trkpt lat="43.3952467" lon="10.95762"><ele>422.0</ele><time>2026-04-05T14:00:29.104Z</time></trkpt><trkpt lat="43.3951667" lon="10.9573933"><ele>422.0</ele><time>2026-04-05T14:00:30.104Z</time></trkpt><trkpt lat="43.395085" lon="10.9571667"><ele>422.0</ele><time>2026-04-05T14:00:31.103Z</time></trkpt><trkpt lat="43.3950017" lon="10.9569417"><ele>422.0</ele><time>2026-04-05T14:00:32.104Z</time></trkpt><trkpt lat="43.3949233" lon="10.9567183"><ele>422.0</ele><time>2026-04-05T14:00:33.104Z</time></trkpt><trkpt lat="43.394845" lon="10.9564933"><ele>422.0</ele><time>2026-04-05T14:00:34.104Z</time></trkpt><trkpt lat="43.39476" lon="10.9562733"><ele>422.0</ele><time>2026-04-05T14:00:35.104Z</time></trkpt><trkpt lat="43.3946633" lon="10.9560617"><ele>424.3333333333333</ele><time>2026-04-05T14:00:36.104Z</time></trkpt><trkpt lat="43.39456" lon="10.9558617"><ele>426.66666666666663</ele><time>2026-04-05T14:00:37.103Z</time></trkpt><trkpt lat="43.3944483" lon="10.9556733"><ele>429.0</ele><time>2026-04-05T14:00:38.104Z</time></trkpt><trkpt lat="43.3943217" lon="10.9555033"><ele>429.0</ele><time>2026-04-05T14:00:39.104Z</time></trkpt><trkpt lat="43.3941933" lon="10.9553417"><ele>429.0</ele><time>2026-04-05T14:00:40.104Z</time></trkpt><trkpt lat="43.394055" lon="10.9551933"><ele>429.0</ele><time>2026-04-05T14:00:41.104Z</time></trkpt><trkpt lat="43.3939133" lon="10.9550583"><ele>430.0</ele><time>2026-04-05T14:00:42.104Z</time></trkpt><trkpt lat="43.3937667" lon="10.9549367"><ele>431.0</ele><time>2026-04-05T14:00:43.104Z</time></trkpt><trkpt lat="43.393615" lon="10.954825"><ele>432.0</ele><time>2026-04-05T14:00:44.104Z</time></trkpt><trkpt lat="43.3934617" lon="10.9547233"><ele>432.0</ele><time>2026-04-05T14:00:45.104Z</time></trkpt><trkpt lat="43.3933067" lon="10.9546317"><ele>432.0</ele><time>2026-04-05T14:00:46.104Z</time></trkpt><trkpt lat="43.39315" lon="10.9545367"><ele>432.0</ele><time>2026-04-05T14:00:47.104Z</time></trkpt><trkpt lat="43.3929917" lon="10.9544433"><ele>434.0</ele><time>2026-04-05T14:00:48.104Z</time></trkpt><trkpt lat="43.3928333" lon="10.9543483"><ele>436.0</ele><time>2026-04-05T14:00:49.104Z</time></trkpt><trkpt lat="43.3926717" lon="10.9542517"><ele>438.0</ele><time>2026-04-05T14:00:50.104Z</time></trkpt><trkpt lat="43.39251" lon="10.9541517"><ele>435.66666666666663</ele><time>2026-04-05T14:00:51.104Z</time></trkpt><trkpt lat="43.3923483" lon="10.9540467"><ele>433.3333333333333</ele><time>2026-04-05T14:00:52.104Z</time></trkpt><trkpt lat="43.3921883" lon="10.953935"><ele>431.0</ele><time>2026-04-05T14:00:53.104Z</time></trkpt><trkpt lat="43.3920317" lon="10.9538217"><ele>431.0</ele><time>2026-04-05T14:00:54.104Z</time></trkpt><trkpt lat="43.391875" lon="10.9537017"><ele>431.0</ele><time>2026-04-05T14:00:55.104Z</time></trkpt><trkpt lat="43.39172" lon="10.9535767"><ele>431.0</ele><time>2026-04-05T14:00:56.104Z</time></trkpt><trkpt lat="43.3915667" lon="10.9534417"><ele>429.0</ele><time>2026-04-05T14:00:57.104Z</time></trkpt><trkpt lat="43.3914183" lon="10.9532983"><ele>427.0</ele><time>2026-04-05T14:00:58.104Z</time></trkpt><trkpt lat="43.391275" lon="10.95315"><ele>425.0</ele><time>2026-04-05T14:00:59.104Z</time></trkpt><trkpt lat="43.3911383" lon="10.9529967"><ele>425.0</ele><time>2026-04-05T14:01:00.104Z</time></trkpt><trkpt lat="43.3910033" lon="10.9528367"><ele>425.0</ele><time>2026-04-05T14:01:01.104Z</time></trkpt><trkpt lat="43.3908717" lon="10.9526733"><ele>425.0</ele><time>2026-04-05T14:01:02.103Z</time></trkpt><trkpt lat="43.39074" lon="10.9525033"><ele>423.3333333333333</ele><time>2026-04-05T14:01:03.104Z</time></trkpt><trkpt lat="43.39061" lon="10.95233"><ele>421.66666666666663</ele><time>2026-04-05T14:01:04.104Z</time></trkpt><trkpt lat="43.39048" lon="10.9521533"><ele>420.0</ele><time>2026-04-05T14:01:05.104Z</time></trkpt><trkpt lat="43.3903483" lon="10.9519733"><ele>418.66666666666663</ele><time>2026-04-05T14:01:06.104Z</time></trkpt><trkpt lat="43.3902167" lon="10.951795"><ele>417.3333333333333</ele><time>2026-04-05T14:01:07.104Z</time></trkpt><trkpt lat="43.390085" lon="10.951615"><ele>416.0</ele><time>2026-04-05T14:01:08.104Z</time></trkpt><trkpt lat="43.389955" lon="10.9514317"><ele>416.0</ele><time>2026-04-05T14:01:09.104Z</time></trkpt><trkpt lat="43.3898283" lon="10.951245"><ele>416.0</ele><time>2026-04-05T14:01:10.104Z</time></trkpt><trkpt lat="43.38971" lon="10.9510433"><ele>416.0</ele><time>2026-04-05T14:01:11.104Z</time></trkpt><trkpt lat="43.3896" lon="10.95084"><ele>416.66666666666663</ele><time>2026-04-05T14:01:12.104Z</time></trkpt><trkpt lat="43.3895" lon="10.9506283"><ele>417.33333333333337</ele><time>2026-04-05T14:01:13.104Z</time></trkpt><trkpt lat="43.389405" lon="10.9504133"><ele>418.0</ele><time>2026-04-05T14:01:14.104Z</time></trkpt><trkpt lat="43.3893133" lon="10.9501983"><ele>415.0</ele><time>2026-04-05T14:01:15.104Z</time></trkpt><trkpt lat="43.3892283" lon="10.949975"><ele>412.0</ele><time>2026-04-05T14:01:16.103Z</time></trkpt><trkpt lat="43.389155" lon="10.94975"><ele>409.0</ele><time>2026-04-05T14:01:17.104Z</time></trkpt><trkpt lat="43.38909" lon="10.94952"><ele>409.0</ele><time>2026-04-05T14:01:18.104Z</time></trkpt><trkpt lat="43.3890283" lon="10.9492867"><ele>409.0</ele><time>2026-04-05T14:01:19.104Z</time></trkpt><trkpt lat="43.38897" lon="10.9490517"><ele>409.0</ele><time>2026-04-05T14:01:20.104Z</time></trkpt><trkpt lat="43.3889167" lon="10.9488133"><ele>407.33333333333337</ele><time>2026-04-05T14:01:21.103Z</time></trkpt><trkpt lat="43.3888633" lon="10.9485783"><ele>405.66666666666663</ele><time>2026-04-05T14:01:22.104Z</time></trkpt><trkpt lat="43.3888067" lon="10.948345"><ele>404.0</ele><time>2026-04-05T14:01:23.103Z</time></trkpt><trkpt lat="43.3887567" lon="10.94811"><ele>402.0</ele><time>2026-04-05T14:01:24.104Z</time></trkpt><trkpt lat="43.38871" lon="10.947875"><ele>400.0</ele><time>2026-04-05T14:01:25.104Z</time></trkpt><trkpt lat="43.3886633" lon="10.9476383"><ele>398.0</ele><time>2026-04-05T14:01:26.104Z</time></trkpt><trkpt lat="43.38861" lon="10.947405"><ele>398.0</ele><time>2026-04-05T14:01:27.103Z</time></trkpt><trkpt lat="43.388555" lon="10.9471733"><ele>398.0</ele><time>2026-04-05T14:01:28.103Z</time></trkpt><trkpt lat="43.3885017" lon="10.9469383"><ele>398.0</ele><time>2026-04-05T14:01:29.104Z</time></trkpt><trkpt lat="43.3884483" lon="10.946705"><ele>397.66666666666663</ele><time>2026-04-05T14:01:30.103Z</time></trkpt><trkpt lat="43.3883917" lon="10.9464683"><ele>397.33333333333337</ele><time>2026-04-05T14:01:31.104Z</time></trkpt><trkpt lat="43.3883367" lon="10.9462317"><ele>397.0</ele><time>2026-04-05T14:01:32.104Z</time></trkpt><trkpt lat="43.388285" lon="10.9459967"><ele>395.6666666666667</ele><time>2026-04-05T14:01:33.104Z</time></trkpt><trkpt lat="43.38823" lon="10.9457617"><ele>394.33333333333337</ele><time>2026-04-05T14:01:34.104Z</time></trkpt><trkpt lat="43.3881717" lon="10.9455283"><ele>393.0</ele><time>2026-04-05T14:01:35.103Z</time></trkpt><trkpt lat="43.3881167" lon="10.9452917"><ele>393.0</ele><time>2026-04-05T14:01:36.104Z</time></trkpt><trkpt lat="43.38806" lon="10.9450567"><ele>393.0</ele><time>2026-04-05T14:01:37.104Z</time></trkpt><trkpt lat="43.3880067" lon="10.9448183"><ele>393.0</ele><time>2026-04-05T14:01:38.103Z</time></trkpt><trkpt lat="43.3879567" lon="10.9445817"><ele>388.3333333333333</ele><time>2026-04-05T14:01:39.104Z</time></trkpt><trkpt lat="43.387905" lon="10.9443433"><ele>383.66666666666663</ele><time>2026-04-05T14:01:40.104Z</time></trkpt><trkpt lat="43.3878533" lon="10.944105"><ele>379.0</ele><time>2026-04-05T14:01:41.103Z</time></trkpt><trkpt lat="43.3877983" lon="10.9438683"><ele>379.0</ele><time>2026-04-05T14:01:42.104Z</time></trkpt><trkpt lat="43.3877383" lon="10.9436333"><ele>379.0</ele><time>2026-04-05T14:01:43.104Z</time></trkpt><trkpt lat="43.3876733" lon="10.9434"><ele>379.0</ele><time>2026-04-05T14:01:44.103Z</time></trkpt><trkpt lat="43.387605" lon="10.943165"><ele>379.3333333333333</ele><time>2026-04-05T14:01:45.104Z</time></trkpt><trkpt lat="43.3875317" lon="10.9429317"><ele>379.6666666666667</ele><time>2026-04-05T14:01:46.104Z</time></trkpt><trkpt lat="43.387455" lon="10.9427017"><ele>380.0</ele><time>2026-04-05T14:01:47.104Z</time></trkpt><trkpt lat="43.3873683" lon="10.9424767"><ele>381.33333333333337</ele><time>2026-04-05T14:01:48.104Z</time></trkpt><trkpt lat="43.3872783" lon="10.9422533"><ele>382.6666666666667</ele><time>2026-04-05T14:01:49.104Z</time></trkpt><trkpt lat="43.3871767" lon="10.9420367"><ele>384.0</ele><time>2026-04-05T14:01:50.104Z</time></trkpt><trkpt lat="43.3870733" lon="10.9418217"><ele>379.6666666666667</ele><time>2026-04-05T14:01:51.103Z</time></trkpt><trkpt lat="43.3869683" lon="10.9416133"><ele>375.33333333333337</ele><time>2026-04-05T14:01:52.104Z</time></trkpt><trkpt lat="43.386865" lon="10.941405"><ele>371.0</ele><time>2026-04-05T14:01:53.104Z</time></trkpt><trkpt lat="43.386762" lon="10.9411993"><ele>371.0</ele><time>2026-04-05T14:01:54.104Z</time></trkpt><trkpt lat="43.3866601" lon="10.9409929"><ele>371.0</ele><time>2026-04-05T14:01:55.104Z</time></trkpt><trkpt lat="43.3865586" lon="10.9407881"><ele>371.0</ele><time>2026-04-05T14:01:56.104Z</time></trkpt><trkpt lat="43.3864585" lon="10.9405849"><ele>371.0</ele><time>2026-04-05T14:01:57.104Z</time></trkpt><trkpt lat="43.38636" lon="10.9403823"><ele>371.0</ele><time>2026-04-05T14:01:58.104Z</time></trkpt><trkpt lat="43.3862581" lon="10.9401843"><ele>371.0</ele><time>2026-04-05T14:01:59.104Z</time></trkpt><trkpt lat="43.3861523" lon="10.9399916"><ele>371.0</ele><time>2026-04-05T14:02:00.104Z</time></trkpt><trkpt lat="43.3860423" lon="10.9398034"><ele>371.0</ele><time>2026-04-05T14:02:01.104Z</time></trkpt><trkpt lat="43.3859278" lon="10.9396243"><ele>371.0</ele><time>2026-04-05T14:02:02.104Z</time></trkpt><trkpt lat="43.3858094" lon="10.9394513"><ele>371.0</ele><time>2026-04-05T14:02:03.104Z</time></trkpt><trkpt lat="43.3856889" lon="10.9392823"><ele>371.0</ele><time>2026-04-05T14:02:04.104Z</time></trkpt><trkpt lat="43.3855645" lon="10.9391189"><ele>371.0</ele><time>2026-04-05T14:02:05.104Z</time></trkpt><trkpt lat="43.3854374" lon="10.9389599"><ele>370.0</ele><time>2026-04-05T14:02:06.104Z</time></trkpt><trkpt lat="43.3853078" lon="10.9388023"><ele>369.0</ele><time>2026-04-05T14:02:07.104Z</time></trkpt><trkpt lat="43.3851771" lon="10.9386512"><ele>368.0</ele><time>2026-04-05T14:02:08.104Z</time></trkpt><trkpt lat="43.3850456" lon="10.938499"><ele>365.6666666666667</ele><time>2026-04-05T14:02:09.104Z</time></trkpt><trkpt lat="43.3849219" lon="10.9383544"><ele>363.3333333333333</ele><time>2026-04-05T14:02:10.104Z</time></trkpt><trkpt lat="43.3847911" lon="10.9381983"><ele>361.0</ele><time>2026-04-05T14:02:11.104Z</time></trkpt><trkpt lat="43.3846629" lon="10.9380451"><ele>361.0</ele><time>2026-04-05T14:02:12.104Z</time></trkpt><trkpt lat="43.384533" lon="10.9378926"><ele>361.0</ele><time>2026-04-05T14:02:13.104Z</time></trkpt><trkpt lat="43.3844" lon="10.9377395"><ele>361.0</ele><time>2026-04-05T14:02:14.104Z</time></trkpt><trkpt lat="43.3842639" lon="10.9375864"><ele>359.0</ele><time>2026-04-05T14:02:15.104Z</time></trkpt><trkpt lat="43.3841254" lon="10.9374331"><ele>357.0</ele><time>2026-04-05T14:02:16.104Z</time></trkpt><trkpt lat="43.3839831" lon="10.9372732"><ele>355.0</ele><time>2026-04-05T14:02:17.103Z</time></trkpt><trkpt lat="43.3838401" lon="10.9371062"><ele>352.3333333333333</ele><time>2026-04-05T14:02:18.104Z</time></trkpt><trkpt lat="43.3836998" lon="10.9369311"><ele>349.6666666666667</ele><time>2026-04-05T14:02:19.104Z</time></trkpt><trkpt lat="43.3835642" lon="10.9367518"><ele>347.0</ele><time>2026-04-05T14:02:20.104Z</time></trkpt><trkpt lat="43.3834314" lon="10.9365663"><ele>346.33333333333337</ele><time>2026-04-05T14:02:21.104Z</time></trkpt><trkpt lat="43.3833067" lon="10.9363697"><ele>345.6666666666667</ele><time>2026-04-05T14:02:22.104Z</time></trkpt><trkpt lat="43.3831927" lon="10.9361627"><ele>345.0</ele><time>2026-04-05T14:02:23.104Z</time></trkpt><trkpt lat="43.3830909" lon="10.935945"><ele>344.3333333333333</ele><time>2026-04-05T14:02:24.104Z</time></trkpt><trkpt lat="43.3829998" lon="10.9357196"><ele>343.66666666666663</ele><time>2026-04-05T14:02:25.104Z</time></trkpt><trkpt lat="43.3829211" lon="10.9354905"><ele>343.0</ele><time>2026-04-05T14:02:26.104Z</time></trkpt><trkpt lat="43.3828617" lon="10.9352567"><ele>343.0</ele><time>2026-04-05T14:02:27.104Z</time></trkpt><trkpt lat="43.38281" lon="10.935025"><ele>343.0</ele><time>2026-04-05T14:02:28.103Z</time></trkpt><trkpt lat="43.38278" lon="10.9347917"><ele>343.0</ele><time>2026-04-05T14:02:29.104Z</time></trkpt><trkpt lat="43.3827533" lon="10.93456"><ele>343.0</ele><time>2026-04-05T14:02:30.104Z</time></trkpt><trkpt lat="43.3827183" lon="10.9343317"><ele>343.0</ele><time>2026-04-05T14:02:31.104Z</time></trkpt><trkpt lat="43.3826733" lon="10.9341067"><ele>343.0</ele><time>2026-04-05T14:02:32.104Z</time></trkpt><trkpt lat="43.3826117" lon="10.9338867"><ele>343.3333333333333</ele><time>2026-04-05T14:02:33.104Z</time></trkpt><trkpt lat="43.38254" lon="10.9336683"><ele>343.6666666666667</ele><time>2026-04-05T14:02:34.104Z</time></trkpt><trkpt lat="43.382465" lon="10.9334533"><ele>344.0</ele><time>2026-04-05T14:02:35.104Z</time></trkpt><trkpt lat="43.3823917" lon="10.9332433"><ele>343.33333333333337</ele><time>2026-04-05T14:02:36.104Z</time></trkpt><trkpt lat="43.382315" lon="10.9330333"><ele>342.6666666666667</ele><time>2026-04-05T14:02:37.104Z</time></trkpt><trkpt lat="43.3822433" lon="10.9328183"><ele>342.0</ele><time>2026-04-05T14:02:38.104Z</time></trkpt><trkpt lat="43.3821783" lon="10.9325967"><ele>340.0</ele><time>2026-04-05T14:02:39.104Z</time></trkpt><trkpt lat="43.3821217" lon="10.93237"><ele>338.0</ele><time>2026-04-05T14:02:40.104Z</time></trkpt><trkpt lat="43.3820783" lon="10.932135"><ele>336.0</ele><time>2026-04-05T14:02:41.104Z</time></trkpt><trkpt lat="43.3820583" lon="10.9318917"><ele>337.3333333333333</ele><time>2026-04-05T14:02:42.104Z</time></trkpt><trkpt lat="43.3820667" lon="10.9316433"><ele>338.66666666666663</ele><time>2026-04-05T14:02:43.104Z</time></trkpt><trkpt lat="43.382105" lon="10.9313933"><ele>340.0</ele><time>2026-04-05T14:02:44.104Z</time></trkpt><trkpt lat="43.3821683" lon="10.9311567"><ele>339.66666666666663</ele><time>2026-04-05T14:02:45.104Z</time></trkpt><trkpt lat="43.3822533" lon="10.9309417"><ele>339.3333333333333</ele><time>2026-04-05T14:02:46.104Z</time></trkpt><trkpt lat="43.3823533" lon="10.93074"><ele>339.0</ele><time>2026-04-05T14:02:47.103Z</time></trkpt><trkpt lat="43.38246" lon="10.9305433"><ele>341.0</ele><time>2026-04-05T14:02:48.104Z</time></trkpt><trkpt lat="43.382555" lon="10.9303467"><ele>343.0</ele><time>2026-04-05T14:02:49.104Z</time></trkpt><trkpt lat="43.3826317" lon="10.9301367"><ele>345.0</ele><time>2026-04-05T14:02:50.104Z</time></trkpt><trkpt lat="43.3826833" lon="10.92992"><ele>347.6666666666667</ele><time>2026-04-05T14:02:51.104Z</time></trkpt><trkpt lat="43.38271" lon="10.929695"><ele>350.33333333333337</ele><time>2026-04-05T14:02:52.104Z</time></trkpt><trkpt lat="43.3827217" lon="10.929465"><ele>353.0</ele><time>2026-04-05T14:02:53.104Z</time></trkpt><trkpt lat="43.38272" lon="10.9292367"><ele>355.5</ele><time>2026-04-05T14:02:54.103Z</time></trkpt><trkpt lat="43.3827117" lon="10.9290233"><ele>358.0</ele><time>2026-04-05T14:02:55.104Z</time></trkpt><trkpt lat="43.382705" lon="10.9288333"><ele>360.5</ele><time>2026-04-05T14:02:56.104Z</time></trkpt><trkpt lat="43.3827" lon="10.928655"><ele>363.0</ele><time>2026-04-05T14:02:57.104Z</time></trkpt><trkpt lat="43.3826917" lon="10.9284883"><ele>363.79999999999995</ele><time>2026-04-05T14:02:58.104Z</time></trkpt><trkpt lat="43.3826717" lon="10.928335"><ele>364.6</ele><time>2026-04-05T14:02:59.104Z</time></trkpt><trkpt lat="43.3826433" lon="10.9281933"><ele>365.4</ele><time>2026-04-05T14:03:00.104Z</time></trkpt><trkpt lat="43.3826" lon="10.9280533"><ele>366.20000000000005</ele><time>2026-04-05T14:03:01.103Z</time></trkpt><trkpt lat="43.382545" lon="10.9279117"><ele>367.0</ele><time>2026-04-05T14:03:02.104Z</time></trkpt><trkpt lat="43.38249" lon="10.927765"><ele>367.0</ele><time>2026-04-05T14:03:03.104Z</time></trkpt><trkpt lat="43.3824383" lon="10.92761"><ele>367.0</ele><time>2026-04-05T14:03:04.104Z</time></trkpt><trkpt lat="43.3823867" lon="10.9274433"><ele>367.0</ele><time>2026-04-05T14:03:05.104Z</time></trkpt><trkpt lat="43.3823517" lon="10.9272717"><ele>367.0</ele><time>2026-04-05T14:03:06.104Z</time></trkpt><trkpt lat="43.382325" lon="10.9270933"><ele>366.0</ele><time>2026-04-05T14:03:07.104Z</time></trkpt><trkpt lat="43.3823133" lon="10.9269117"><ele>365.0</ele><time>2026-04-05T14:03:08.103Z</time></trkpt><trkpt lat="43.3823217" lon="10.9267333"><ele>364.0</ele><time>2026-04-05T14:03:09.104Z</time></trkpt><trkpt lat="43.3823417" lon="10.92656"><ele>363.0</ele><time>2026-04-05T14:03:10.104Z</time></trkpt><trkpt lat="43.3823783" lon="10.926395"><ele>362.25</ele><time>2026-04-05T14:03:11.104Z</time></trkpt><trkpt lat="43.3824267" lon="10.9262417"><ele>361.5</ele><time>2026-04-05T14:03:12.104Z</time></trkpt><trkpt lat="43.3824917" lon="10.9260983"><ele>360.75</ele><time>2026-04-05T14:03:13.104Z</time></trkpt><trkpt lat="43.3825667" lon="10.9259617"><ele>360.0</ele><time>2026-04-05T14:03:14.104Z</time></trkpt><trkpt lat="43.3826467" lon="10.925825"><ele>361.5</ele><time>2026-04-05T14:03:15.104Z</time></trkpt><trkpt lat="43.3827217" lon="10.9256833"><ele>363.0</ele><time>2026-04-05T14:03:16.103Z</time></trkpt><trkpt lat="43.38278" lon="10.925525"><ele>364.5</ele><time>2026-04-05T14:03:17.104Z</time></trkpt><trkpt lat="43.3828217" lon="10.9253467"><ele>366.0</ele><time>2026-04-05T14:03:18.104Z</time></trkpt><trkpt lat="43.3828567" lon="10.9251583"><ele>365.0</ele><time>2026-04-05T14:03:19.104Z</time></trkpt><trkpt lat="43.3828917" lon="10.9249617"><ele>364.0</ele><time>2026-04-05T14:03:20.104Z</time></trkpt><trkpt lat="43.3829267" lon="10.924755"><ele>363.0</ele><time>2026-04-05T14:03:21.104Z</time></trkpt><trkpt lat="43.3829667" lon="10.924545"><ele>363.0</ele><time>2026-04-05T14:03:22.104Z</time></trkpt><trkpt lat="43.38301" lon="10.924335"><ele>363.0</ele><time>2026-04-05T14:03:23.104Z</time></trkpt><trkpt lat="43.38307" lon="10.9241283"><ele>363.0</ele><time>2026-04-05T14:03:24.104Z</time></trkpt><trkpt lat="43.3831517" lon="10.9239367"><ele>358.6666666666667</ele><time>2026-04-05T14:03:25.104Z</time></trkpt><trkpt lat="43.3832533" lon="10.9237567"><ele>354.33333333333337</ele><time>2026-04-05T14:03:26.104Z</time></trkpt><trkpt lat="43.38337" lon="10.9235933"><ele>350.0</ele><time>2026-04-05T14:03:27.103Z</time></trkpt><trkpt lat="43.3835017" lon="10.92345"><ele>351.0</ele><time>2026-04-05T14:03:28.104Z</time></trkpt><trkpt lat="43.38364" lon="10.9233217"><ele>352.0</ele><time>2026-04-05T14:03:29.104Z</time></trkpt><trkpt lat="43.3837883" lon="10.9232017"><ele>353.0</ele><time>2026-04-05T14:03:30.104Z</time></trkpt><trkpt lat="43.3839417" lon="10.9230833"><ele>353.0</ele><time>2026-04-05T14:03:31.104Z</time></trkpt><trkpt lat="43.3840933" lon="10.9229717"><ele>353.0</ele><time>2026-04-05T14:03:32.104Z</time></trkpt><trkpt lat="43.384245" lon="10.922865"><ele>353.0</ele><time>2026-04-05T14:03:33.103Z</time></trkpt><trkpt lat="43.3843833" lon="10.9227483"><ele>353.0</ele><time>2026-04-05T14:03:34.103Z</time></trkpt><trkpt lat="43.3845183" lon="10.9226117"><ele>353.0</ele><time>2026-04-05T14:03:35.104Z</time></trkpt><trkpt lat="43.38465" lon="10.9224617"><ele>353.0</ele><time>2026-04-05T14:03:36.104Z</time></trkpt><trkpt lat="43.384785" lon="10.9223017"><ele>351.6666666666667</ele><time>2026-04-05T14:03:37.104Z</time></trkpt><trkpt lat="43.38492" lon="10.922145"><ele>350.3333333333333</ele><time>2026-04-05T14:03:38.104Z</time></trkpt><trkpt lat="43.3850533" lon="10.9219883"><ele>349.0</ele><time>2026-04-05T14:03:39.104Z</time></trkpt><trkpt lat="43.385185" lon="10.921835"><ele>349.3333333333333</ele><time>2026-04-05T14:03:40.104Z</time></trkpt><trkpt lat="43.3853083" lon="10.9216817"><ele>349.6666666666667</ele><time>2026-04-05T14:03:41.104Z</time></trkpt><trkpt lat="43.3854267" lon="10.92152"><ele>350.0</ele><time>2026-04-05T14:03:42.104Z</time></trkpt><trkpt lat="43.38552" lon="10.9213417"><ele>349.33333333333337</ele><time>2026-04-05T14:03:43.104Z</time></trkpt><trkpt lat="43.3855833" lon="10.92114"><ele>348.6666666666667</ele><time>2026-04-05T14:03:44.104Z</time></trkpt><trkpt lat="43.385625" lon="10.9209283"><ele>348.0</ele><time>2026-04-05T14:03:45.103Z</time></trkpt><trkpt lat="43.38566" lon="10.9207117"><ele>350.6666666666667</ele><time>2026-04-05T14:03:46.104Z</time></trkpt><trkpt lat="43.3856883" lon="10.9204967"><ele>353.33333333333337</ele><time>2026-04-05T14:03:47.104Z</time></trkpt><trkpt lat="43.3857067" lon="10.9202867"><ele>356.0</ele><time>2026-04-05T14:03:48.104Z</time></trkpt><trkpt lat="43.3857017" lon="10.9200833"><ele>358.0</ele><time>2026-04-05T14:03:49.104Z</time></trkpt><trkpt lat="43.3856817" lon="10.9199"><ele>360.0</ele><time>2026-04-05T14:03:50.104Z</time></trkpt><trkpt lat="43.3856517" lon="10.919735"><ele>362.0</ele><time>2026-04-05T14:03:51.104Z</time></trkpt><trkpt lat="43.38564" lon="10.9195833"><ele>364.0</ele><time>2026-04-05T14:03:52.104Z</time></trkpt><trkpt lat="43.38566" lon="10.9194467"><ele>364.0</ele><time>2026-04-05T14:03:53.104Z</time></trkpt><trkpt lat="43.38571" lon="10.91934"><ele>364.0</ele><time>2026-04-05T14:03:54.104Z</time></trkpt><trkpt lat="43.3857733" lon="10.91926"><ele>364.0</ele><time>2026-04-05T14:03:55.104Z</time></trkpt><trkpt lat="43.385875" lon="10.9192533"><ele>364.0</ele><time>2026-04-05T14:03:56.103Z</time></trkpt><trkpt lat="43.385975" lon="10.9192883"><ele>364.0</ele><time>2026-04-05T14:03:57.104Z</time></trkpt><trkpt lat="43.3860683" lon="10.919365"><ele>364.0</ele><time>2026-04-05T14:03:58.103Z</time></trkpt><trkpt lat="43.38615" lon="10.9195"><ele>364.0</ele><time>2026-04-05T14:03:59.103Z</time></trkpt><trkpt lat="43.386245" lon="10.9196233"><ele>364.0</ele><time>2026-04-05T14:04:00.103Z</time></trkpt><trkpt lat="43.3863517" lon="10.9197317"><ele>364.0</ele><time>2026-04-05T14:04:01.104Z</time></trkpt><trkpt lat="43.3864733" lon="10.9198167"><ele>366.0</ele><time>2026-04-05T14:04:02.104Z</time></trkpt><trkpt lat="43.386605" lon="10.919885"><ele>368.0</ele><time>2026-04-05T14:04:03.104Z</time></trkpt><trkpt lat="43.3867467" lon="10.9199317"><ele>370.0</ele><time>2026-04-05T14:04:04.104Z</time></trkpt><trkpt lat="43.38689" lon="10.9199517"><ele>372.0</ele><time>2026-04-05T14:04:05.104Z</time></trkpt><trkpt lat="43.3870383" lon="10.9199433"><ele>373.0</ele><time>2026-04-05T14:04:06.104Z</time></trkpt><trkpt lat="43.3871817" lon="10.9199067"><ele>374.0</ele><time>2026-04-05T14:04:07.104Z</time></trkpt><trkpt lat="43.3873117" lon="10.919845"><ele>375.0</ele><time>2026-04-05T14:04:08.104Z</time></trkpt><trkpt lat="43.387435" lon="10.9197717"><ele>376.0</ele><time>2026-04-05T14:04:09.104Z</time></trkpt><trkpt lat="43.3875517" lon="10.9196933"><ele>376.0</ele><time>2026-04-05T14:04:10.104Z</time></trkpt><trkpt lat="43.38766" lon="10.9196117"><ele>376.0</ele><time>2026-04-05T14:04:11.104Z</time></trkpt><trkpt lat="43.3877433" lon="10.9195133"><ele>376.0</ele><time>2026-04-05T14:04:12.104Z</time></trkpt><trkpt lat="43.3877983" lon="10.91939"><ele>376.0</ele><time>2026-04-05T14:04:13.104Z</time></trkpt><trkpt lat="43.3878267" lon="10.91924"><ele>378.75</ele><time>2026-04-05T14:04:14.104Z</time></trkpt><trkpt lat="43.387815" lon="10.9190667"><ele>381.5</ele><time>2026-04-05T14:04:15.103Z</time></trkpt><trkpt lat="43.38779" lon="10.9188917"><ele>384.25</ele><time>2026-04-05T14:04:16.104Z</time></trkpt><trkpt lat="43.38775" lon="10.918715"><ele>387.0</ele><time>2026-04-05T14:04:17.104Z</time></trkpt><trkpt lat="43.3877017" lon="10.9185467"><ele>388.0</ele><time>2026-04-05T14:04:18.104Z</time></trkpt><trkpt lat="43.3876267" lon="10.91839"><ele>389.0</ele><time>2026-04-05T14:04:19.104Z</time></trkpt><trkpt lat="43.38753" lon="10.9182483"><ele>390.0</ele><time>2026-04-05T14:04:20.104Z</time></trkpt><trkpt lat="43.3874217" lon="10.9181117"><ele>391.0</ele><time>2026-04-05T14:04:21.104Z</time></trkpt><trkpt lat="43.3873133" lon="10.917975"><ele>391.0</ele><time>2026-04-05T14:04:22.104Z</time></trkpt><trkpt lat="43.3872083" lon="10.9178367"><ele>391.0</ele><time>2026-04-05T14:04:23.104Z</time></trkpt><trkpt lat="43.3871033" lon="10.9177017"><ele>391.0</ele><time>2026-04-05T14:04:24.104Z</time></trkpt><trkpt lat="43.3869967" lon="10.9175633"><ele>391.0</ele><time>2026-04-05T14:04:25.104Z</time></trkpt><trkpt lat="43.3868933" lon="10.9174233"><ele>392.75</ele><time>2026-04-05T14:04:26.104Z</time></trkpt><trkpt lat="43.3868033" lon="10.917275"><ele>394.5</ele><time>2026-04-05T14:04:27.104Z</time></trkpt><trkpt lat="43.3867383" lon="10.9171033"><ele>396.25</ele><time>2026-04-05T14:04:28.104Z</time></trkpt><trkpt lat="43.3867233" lon="10.9169133"><ele>398.0</ele><time>2026-04-05T14:04:29.104Z</time></trkpt><trkpt lat="43.3867483" lon="10.91671"><ele>399.0</ele><time>2026-04-05T14:04:30.104Z</time></trkpt><trkpt lat="43.3867883" lon="10.91651"><ele>400.0</ele><time>2026-04-05T14:04:31.104Z</time></trkpt><trkpt lat="43.386845" lon="10.916315"><ele>401.0</ele><time>2026-04-05T14:04:32.104Z</time></trkpt><trkpt lat="43.3869217" lon="10.91613"><ele>401.0</ele><time>2026-04-05T14:04:33.104Z</time></trkpt><trkpt lat="43.38701" lon="10.915955"><ele>401.0</ele><time>2026-04-05T14:04:34.103Z</time></trkpt><trkpt lat="43.3871033" lon="10.9157833"><ele>401.0</ele><time>2026-04-05T14:04:35.104Z</time></trkpt><trkpt lat="43.387195" lon="10.9156117"><ele>402.0</ele><time>2026-04-05T14:04:36.104Z</time></trkpt><trkpt lat="43.38728" lon="10.9154383"><ele>403.0</ele><time>2026-04-05T14:04:37.104Z</time></trkpt><trkpt lat="43.38736" lon="10.915255"><ele>404.0</ele><time>2026-04-05T14:04:38.104Z</time></trkpt><trkpt lat="43.38743" lon="10.9150633"><ele>404.0</ele><time>2026-04-05T14:04:39.104Z</time></trkpt><trkpt lat="43.3874817" lon="10.9148683"><ele>404.0</ele><time>2026-04-05T14:04:40.104Z</time></trkpt><trkpt lat="43.3875167" lon="10.91468"><ele>404.0</ele><time>2026-04-05T14:04:41.104Z</time></trkpt><trkpt lat="43.3875317" lon="10.9145083"><ele>404.0</ele><time>2026-04-05T14:04:42.104Z</time></trkpt><trkpt lat="43.387525" lon="10.91435"><ele>404.5</ele><time>2026-04-05T14:04:43.104Z</time></trkpt><trkpt lat="43.387485" lon="10.914205"><ele>405.0</ele><time>2026-04-05T14:04:44.104Z</time></trkpt><trkpt lat="43.3874283" lon="10.9140633"><ele>405.5</ele><time>2026-04-05T14:04:45.104Z</time></trkpt><trkpt lat="43.3873717" lon="10.9139117"><ele>406.0</ele><time>2026-04-05T14:04:46.104Z</time></trkpt><trkpt lat="43.3873233" lon="10.9137517"><ele>406.0</ele><time>2026-04-05T14:04:47.104Z</time></trkpt><trkpt lat="43.38728" lon="10.9135833"><ele>406.0</ele><time>2026-04-05T14:04:48.104Z</time></trkpt><trkpt lat="43.3872383" lon="10.9134117"><ele>406.0</ele><time>2026-04-05T14:04:49.104Z</time></trkpt><trkpt lat="43.3871933" lon="10.9132417"><ele>406.0</ele><time>2026-04-05T14:04:50.104Z</time></trkpt><trkpt lat="43.3871367" lon="10.9130733"><ele>405.75</ele><time>2026-04-05T14:04:51.104Z</time></trkpt><trkpt lat="43.38707" lon="10.91291"><ele>405.5</ele><time>2026-04-05T14:04:52.104Z</time></trkpt><trkpt lat="43.386985" lon="10.91276"><ele>405.25</ele><time>2026-04-05T14:04:53.104Z</time></trkpt><trkpt lat="43.386885" lon="10.9126283"><ele>405.0</ele><time>2026-04-05T14:04:54.104Z</time></trkpt><trkpt lat="43.3867733" lon="10.912505"><ele>405.0</ele><time>2026-04-05T14:04:55.104Z</time></trkpt><trkpt lat="43.38666" lon="10.9123867"><ele>405.0</ele><time>2026-04-05T14:04:56.104Z</time></trkpt><trkpt lat="43.3865467" lon="10.91227"><ele>405.0</ele><time>2026-04-05T14:04:57.104Z</time></trkpt><trkpt lat="43.3864333" lon="10.91215"><ele>405.0</ele><time>2026-04-05T14:04:58.104Z</time></trkpt><trkpt lat="43.3863267" lon="10.9120267"><ele>406.0</ele><time>2026-04-05T14:04:59.104Z</time></trkpt><trkpt lat="43.386225" lon="10.9118983"><ele>407.0</ele><time>2026-04-05T14:05:00.104Z</time></trkpt><trkpt lat="43.3861267" lon="10.9117683"><ele>408.0</ele><time>2026-04-05T14:05:01.104Z</time></trkpt><trkpt lat="43.3860333" lon="10.9116383"><ele>409.0</ele><time>2026-04-05T14:05:02.104Z</time></trkpt><trkpt lat="43.38595" lon="10.9115117"><ele>409.0</ele><time>2026-04-05T14:05:03.104Z</time></trkpt><trkpt lat="43.3858767" lon="10.9113817"><ele>409.0</ele><time>2026-04-05T14:05:04.104Z</time></trkpt><trkpt lat="43.385805" lon="10.91126"><ele>409.0</ele><time>2026-04-05T14:05:05.103Z</time></trkpt><trkpt lat="43.385735" lon="10.91115"><ele>409.0</ele><time>2026-04-05T14:05:06.104Z</time></trkpt><trkpt lat="43.3856667" lon="10.9110483"><ele>409.0</ele><time>2026-04-05T14:05:07.104Z</time></trkpt><trkpt lat="43.3856" lon="10.9109583"><ele>409.79999999999995</ele><time>2026-04-05T14:05:08.104Z</time></trkpt><trkpt lat="43.3855383" lon="10.9108767"><ele>410.59999999999997</ele><time>2026-04-05T14:05:09.104Z</time></trkpt><trkpt lat="43.3854867" lon="10.9108083"><ele>411.4</ele><time>2026-04-05T14:05:10.104Z</time></trkpt><trkpt lat="43.3854117" lon="10.91072"><ele>412.2</ele><time>2026-04-05T14:05:12.104Z</time></trkpt><trkpt lat="43.38536" lon="10.9106333"><ele>413.0</ele><time>2026-04-05T14:06:24.104Z</time></trkpt><trkpt lat="43.3852383" lon="10.910465"><ele>413.0</ele><time>2026-04-05T14:06:27.104Z</time></trkpt><trkpt lat="43.385195" lon="10.9103817"><ele>413.0</ele><time>2026-04-05T14:06:28.104Z</time></trkpt><trkpt lat="43.38516" lon="10.910285"><ele>413.0</ele><time>2026-04-05T14:06:29.104Z</time></trkpt><trkpt lat="43.3851183" lon="10.9101617"><ele>413.0</ele><time>2026-04-05T14:06:30.104Z</time></trkpt><trkpt lat="43.3851033" lon="10.91002"><ele>413.0</ele><time>2026-04-05T14:06:31.104Z</time></trkpt><trkpt lat="43.3851067" lon="10.90987"><ele>411.5</ele><time>2026-04-05T14:06:32.104Z</time></trkpt><trkpt lat="43.3851283" lon="10.9097133"><ele>410.0</ele><time>2026-04-05T14:06:33.104Z</time></trkpt><trkpt lat="43.3851717" lon="10.909555"><ele>408.5</ele><time>2026-04-05T14:06:34.104Z</time></trkpt><trkpt lat="43.38522" lon="10.9093983"><ele>407.0</ele><time>2026-04-05T14:06:35.104Z</time></trkpt><trkpt lat="43.3852733" lon="10.909245"><ele>407.75</ele><time>2026-04-05T14:06:36.104Z</time></trkpt><trkpt lat="43.3853233" lon="10.90909"><ele>408.5</ele><time>2026-04-05T14:06:37.103Z</time></trkpt><trkpt lat="43.3853817" lon="10.9089367"><ele>409.25</ele><time>2026-04-05T14:06:38.104Z</time></trkpt><trkpt lat="43.3854483" lon="10.9087917"><ele>410.0</ele><time>2026-04-05T14:06:39.104Z</time></trkpt><trkpt lat="43.3855217" lon="10.90866"><ele>407.6</ele><time>2026-04-05T14:06:40.104Z</time></trkpt><trkpt lat="43.3856" lon="10.9085433"><ele>405.2</ele><time>2026-04-05T14:06:41.104Z</time></trkpt><trkpt lat="43.3856817" lon="10.9084367"><ele>402.79999999999995</ele><time>2026-04-05T14:06:42.104Z</time></trkpt><trkpt lat="43.3857633" lon="10.9083467"><ele>400.4</ele><time>2026-04-05T14:06:43.104Z</time></trkpt><trkpt lat="43.3858467" lon="10.9082667"><ele>398.0</ele><time>2026-04-05T14:06:44.104Z</time></trkpt><trkpt lat="43.3860767" lon="10.9080117"><ele>398.0</ele><time>2026-04-05T14:06:47.104Z</time></trkpt><trkpt lat="43.3861333" lon="10.9079117"><ele>398.0</ele><time>2026-04-05T14:06:48.104Z</time></trkpt><trkpt lat="43.3861667" lon="10.9077967"><ele>398.0</ele><time>2026-04-05T14:06:49.104Z</time></trkpt><trkpt lat="43.38618" lon="10.907675"><ele>398.0</ele><time>2026-04-05T14:06:50.103Z</time></trkpt><trkpt lat="43.3861883" lon="10.9075483"><ele>398.0</ele><time>2026-04-05T14:06:51.104Z</time></trkpt><trkpt lat="43.3861933" lon="10.907415"><ele>397.2</ele><time>2026-04-05T14:06:52.104Z</time></trkpt><trkpt lat="43.3861867" lon="10.9072867"><ele>396.4</ele><time>2026-04-05T14:06:53.104Z</time></trkpt><trkpt lat="43.3861717" lon="10.907155"><ele>395.59999999999997</ele><time>2026-04-05T14:06:54.104Z</time></trkpt><trkpt lat="43.3861583" lon="10.90701"><ele>394.79999999999995</ele><time>2026-04-05T14:06:55.104Z</time></trkpt><trkpt lat="43.3861567" lon="10.906855"><ele>394.0</ele><time>2026-04-05T14:06:56.104Z</time></trkpt><trkpt lat="43.386165" lon="10.9066933"><ele>393.0</ele><time>2026-04-05T14:06:57.104Z</time></trkpt><trkpt lat="43.386185" lon="10.9065317"><ele>392.0</ele><time>2026-04-05T14:06:58.104Z</time></trkpt><trkpt lat="43.3862033" lon="10.9063733"><ele>391.0</ele><time>2026-04-05T14:06:59.104Z</time></trkpt><trkpt lat="43.38621" lon="10.9062117"><ele>390.0</ele><time>2026-04-05T14:07:00.104Z</time></trkpt><trkpt lat="43.3862033" lon="10.9060433"><ele>388.5</ele><time>2026-04-05T14:07:01.104Z</time></trkpt><trkpt lat="43.3861917" lon="10.90588"><ele>387.0</ele><time>2026-04-05T14:07:02.104Z</time></trkpt><trkpt lat="43.3861783" lon="10.90572"><ele>385.5</ele><time>2026-04-05T14:07:03.104Z</time></trkpt><trkpt lat="43.3861617" lon="10.90556"><ele>384.0</ele><time>2026-04-05T14:07:04.104Z</time></trkpt><trkpt lat="43.38614" lon="10.9051117"><ele>382.79999999999995</ele><time>2026-04-05T14:07:07.104Z</time></trkpt><trkpt lat="43.3861767" lon="10.904985"><ele>381.59999999999997</ele><time>2026-04-05T14:07:08.104Z</time></trkpt><trkpt lat="43.38624" lon="10.90488"><ele>380.4</ele><time>2026-04-05T14:07:09.104Z</time></trkpt><trkpt lat="43.3863067" lon="10.9048"><ele>379.2</ele><time>2026-04-05T14:07:10.104Z</time></trkpt><trkpt lat="43.3863667" lon="10.9047267"><ele>378.0</ele><time>2026-04-05T14:07:11.104Z</time></trkpt><trkpt lat="43.3864167" lon="10.9046317"><ele>376.59999999999997</ele><time>2026-04-05T14:07:12.104Z</time></trkpt><trkpt lat="43.3864567" lon="10.9045083"><ele>375.2</ele><time>2026-04-05T14:07:13.104Z</time></trkpt><trkpt lat="43.3864783" lon="10.9043667"><ele>373.8</ele><time>2026-04-05T14:07:14.104Z</time></trkpt><trkpt lat="43.3864883" lon="10.9042217"><ele>372.4</ele><time>2026-04-05T14:07:15.104Z</time></trkpt><trkpt lat="43.38649" lon="10.9040783"><ele>371.0</ele><time>2026-04-05T14:07:16.104Z</time></trkpt><trkpt lat="43.38648" lon="10.90394"><ele>370.20000000000005</ele><time>2026-04-05T14:07:17.104Z</time></trkpt><trkpt lat="43.3864617" lon="10.903805"><ele>369.40000000000003</ele><time>2026-04-05T14:07:18.104Z</time></trkpt><trkpt lat="43.3864417" lon="10.90367"><ele>368.6</ele><time>2026-04-05T14:07:19.104Z</time></trkpt><trkpt lat="43.3864267" lon="10.9035383"><ele>367.8</ele><time>2026-04-05T14:07:20.104Z</time></trkpt><trkpt lat="43.38642" lon="10.90342"><ele>367.0</ele><time>2026-04-05T14:07:21.104Z</time></trkpt><trkpt lat="43.386425" lon="10.9033133"><ele>366.5</ele><time>2026-04-05T14:07:22.104Z</time></trkpt><trkpt lat="43.3864583" lon="10.9032183"><ele>366.0</ele><time>2026-04-05T14:07:23.104Z</time></trkpt><trkpt lat="43.386515" lon="10.9031467"><ele>365.5</ele><time>2026-04-05T14:07:24.104Z</time></trkpt><trkpt lat="43.3867217" lon="10.90312"><ele>365.0</ele><time>2026-04-05T14:07:27.104Z</time></trkpt><trkpt lat="43.3868317" lon="10.9031117"><ele>365.0</ele><time>2026-04-05T14:07:29.104Z</time></trkpt><trkpt lat="43.3869383" lon="10.903075"><ele>365.0</ele><time>2026-04-05T14:07:31.104Z</time></trkpt><trkpt lat="43.3869983" lon="10.9030433"><ele>365.0</ele><time>2026-04-05T14:07:32.104Z</time></trkpt><trkpt lat="43.3870583" lon="10.903005"><ele>365.0</ele><time>2026-04-05T14:07:33.104Z</time></trkpt><trkpt lat="43.387125" lon="10.902965"><ele>365.0</ele><time>2026-04-05T14:07:34.104Z</time></trkpt><trkpt lat="43.3871967" lon="10.9029317"><ele>365.0</ele><time>2026-04-05T14:07:35.104Z</time></trkpt><trkpt lat="43.3872717" lon="10.9029067"><ele>363.2</ele><time>2026-04-05T14:07:36.104Z</time></trkpt><trkpt lat="43.387355" lon="10.9028783"><ele>361.4</ele><time>2026-04-05T14:07:37.104Z</time></trkpt><trkpt lat="43.3874483" lon="10.9028333"><ele>359.6</ele><time>2026-04-05T14:07:38.104Z</time></trkpt><trkpt lat="43.3875367" lon="10.9027633"><ele>357.8</ele><time>2026-04-05T14:07:39.104Z</time></trkpt><trkpt lat="43.387615" lon="10.9026783"><ele>356.0</ele><time>2026-04-05T14:07:40.104Z</time></trkpt><trkpt lat="43.387695" lon="10.90259"><ele>356.25</ele><time>2026-04-05T14:07:41.104Z</time></trkpt><trkpt lat="43.3877817" lon="10.9025017"><ele>356.5</ele><time>2026-04-05T14:07:42.104Z</time></trkpt><trkpt lat="43.3878717" lon="10.9024117"><ele>356.75</ele><time>2026-04-05T14:07:43.103Z</time></trkpt><trkpt lat="43.387965" lon="10.90232"><ele>357.0</ele><time>2026-04-05T14:07:44.104Z</time></trkpt><trkpt lat="43.3880633" lon="10.902225"><ele>355.0</ele><time>2026-04-05T14:07:45.104Z</time></trkpt><trkpt lat="43.3881633" lon="10.9021217"><ele>353.0</ele><time>2026-04-05T14:07:46.104Z</time></trkpt><trkpt lat="43.3882633" lon="10.90201"><ele>351.0</ele><time>2026-04-05T14:07:47.104Z</time></trkpt><trkpt lat="43.3883633" lon="10.9018933"><ele>349.0</ele><time>2026-04-05T14:07:48.104Z</time></trkpt><trkpt lat="43.388455" lon="10.9017617"><ele>349.0</ele><time>2026-04-05T14:07:49.104Z</time></trkpt><trkpt lat="43.38854" lon="10.9016217"><ele>349.0</ele><time>2026-04-05T14:07:50.104Z</time></trkpt><trkpt lat="43.3886267" lon="10.9014833"><ele>349.0</ele><time>2026-04-05T14:07:51.104Z</time></trkpt><trkpt lat="43.38872" lon="10.90135"><ele>349.0</ele><time>2026-04-05T14:07:52.104Z</time></trkpt><trkpt lat="43.3888117" lon="10.9012233"><ele>347.5</ele><time>2026-04-05T14:07:53.104Z</time></trkpt><trkpt lat="43.3889033" lon="10.9010967"><ele>346.0</ele><time>2026-04-05T14:07:54.104Z</time></trkpt><trkpt lat="43.388995" lon="10.9009733"><ele>344.5</ele><time>2026-04-05T14:07:55.104Z</time></trkpt><trkpt lat="43.3890867" lon="10.9008467"><ele>343.0</ele><time>2026-04-05T14:07:56.104Z</time></trkpt><trkpt lat="43.38918" lon="10.9007217"><ele>343.0</ele><time>2026-04-05T14:07:57.104Z</time></trkpt><trkpt lat="43.3892717" lon="10.9005967"><ele>343.0</ele><time>2026-04-05T14:07:58.104Z</time></trkpt><trkpt lat="43.3893667" lon="10.90047"><ele>343.0</ele><time>2026-04-05T14:07:59.104Z</time></trkpt><trkpt lat="43.3894617" lon="10.900345"><ele>343.0</ele><time>2026-04-05T14:08:00.104Z</time></trkpt><trkpt lat="43.3895567" lon="10.900215"><ele>343.0</ele><time>2026-04-05T14:08:01.104Z</time></trkpt><trkpt lat="43.38965" lon="10.9000833"><ele>343.0</ele><time>2026-04-05T14:08:02.104Z</time></trkpt><trkpt lat="43.3897467" lon="10.8999533"><ele>343.0</ele><time>2026-04-05T14:08:03.104Z</time></trkpt><trkpt lat="43.3898433" lon="10.8998183"><ele>343.0</ele><time>2026-04-05T14:08:04.104Z</time></trkpt><trkpt lat="43.3899417" lon="10.8996783"><ele>342.25</ele><time>2026-04-05T14:08:05.103Z</time></trkpt><trkpt lat="43.3900367" lon="10.8995333"><ele>341.5</ele><time>2026-04-05T14:08:06.104Z</time></trkpt><trkpt lat="43.3901317" lon="10.8993817"><ele>340.75</ele><time>2026-04-05T14:08:07.104Z</time></trkpt><trkpt lat="43.390225" lon="10.8992283"><ele>340.0</ele><time>2026-04-05T14:08:08.104Z</time></trkpt><trkpt lat="43.3903167" lon="10.8990717"><ele>340.0</ele><time>2026-04-05T14:08:09.104Z</time></trkpt><trkpt lat="43.39041" lon="10.8989183"><ele>340.0</ele><time>2026-04-05T14:08:10.104Z</time></trkpt><trkpt lat="43.3905117" lon="10.8987683"><ele>340.0</ele><time>2026-04-05T14:08:11.104Z</time></trkpt><trkpt lat="43.3906167" lon="10.8986183"><ele>340.0</ele><time>2026-04-05T14:08:12.104Z</time></trkpt><trkpt lat="43.39073" lon="10.898475"><ele>337.0</ele><time>2026-04-05T14:08:13.104Z</time></trkpt><trkpt lat="43.3908517" lon="10.8983433"><ele>334.0</ele><time>2026-04-05T14:08:14.104Z</time></trkpt><trkpt lat="43.39098" lon="10.8982167"><ele>331.0</ele><time>2026-04-05T14:08:15.104Z</time></trkpt><trkpt lat="43.3911067" lon="10.8980867"><ele>331.0</ele><time>2026-04-05T14:08:16.103Z</time></trkpt><trkpt lat="43.3912267" lon="10.8979517"><ele>331.0</ele><time>2026-04-05T14:08:17.104Z</time></trkpt><trkpt lat="43.3913433" lon="10.8978083"><ele>331.0</ele><time>2026-04-05T14:08:18.104Z</time></trkpt><trkpt lat="43.3914567" lon="10.8976567"><ele>329.66666666666663</ele><time>2026-04-05T14:08:19.104Z</time></trkpt><trkpt lat="43.3915683" lon="10.8975017"><ele>328.3333333333333</ele><time>2026-04-05T14:08:20.104Z</time></trkpt><trkpt lat="43.391675" lon="10.8973517"><ele>327.0</ele><time>2026-04-05T14:08:21.104Z</time></trkpt><trkpt lat="43.39178" lon="10.897205"><ele>327.0</ele><time>2026-04-05T14:08:22.104Z</time></trkpt><trkpt lat="43.3918817" lon="10.89706"><ele>327.0</ele><time>2026-04-05T14:08:23.104Z</time></trkpt><trkpt lat="43.3919783" lon="10.8969117"><ele>327.0</ele><time>2026-04-05T14:08:24.103Z</time></trkpt><trkpt lat="43.3920683" lon="10.89676"><ele>327.0</ele><time>2026-04-05T14:08:25.103Z</time></trkpt><trkpt lat="43.39215" lon="10.8965983"><ele>327.5</ele><time>2026-04-05T14:08:26.104Z</time></trkpt><trkpt lat="43.3922183" lon="10.8964233"><ele>328.0</ele><time>2026-04-05T14:08:27.104Z</time></trkpt><trkpt lat="43.3922767" lon="10.89624"><ele>328.5</ele><time>2026-04-05T14:08:28.104Z</time></trkpt><trkpt lat="43.39233" lon="10.8960467"><ele>329.0</ele><time>2026-04-05T14:08:29.104Z</time></trkpt><trkpt lat="43.392375" lon="10.895855"><ele>330.0</ele><time>2026-04-05T14:08:30.104Z</time></trkpt><trkpt lat="43.3924133" lon="10.8956633"><ele>331.0</ele><time>2026-04-05T14:08:31.104Z</time></trkpt><trkpt lat="43.392445" lon="10.895475"><ele>332.0</ele><time>2026-04-05T14:08:32.103Z</time></trkpt><trkpt lat="43.392465" lon="10.8952867"><ele>333.0</ele><time>2026-04-05T14:08:33.104Z</time></trkpt><trkpt lat="43.3924767" lon="10.8951033"><ele>334.0</ele><time>2026-04-05T14:08:34.104Z</time></trkpt><trkpt lat="43.3924833" lon="10.89493"><ele>335.0</ele><time>2026-04-05T14:08:35.104Z</time></trkpt><trkpt lat="43.3925" lon="10.894765"><ele>336.0</ele><time>2026-04-05T14:08:36.104Z</time></trkpt><trkpt lat="43.3925367" lon="10.89461"><ele>337.0</ele><time>2026-04-05T14:08:37.104Z</time></trkpt><trkpt lat="43.3925983" lon="10.89447"><ele>337.0</ele><time>2026-04-05T14:08:38.104Z</time></trkpt><trkpt lat="43.3926767" lon="10.8943417"><ele>337.0</ele><time>2026-04-05T14:08:39.104Z</time></trkpt><trkpt lat="43.3927683" lon="10.8942267"><ele>337.0</ele><time>2026-04-05T14:08:40.104Z</time></trkpt><trkpt lat="43.3928617" lon="10.8941233"><ele>337.0</ele><time>2026-04-05T14:08:41.104Z</time></trkpt><trkpt lat="43.392965" lon="10.894025"><ele>339.75</ele><time>2026-04-05T14:08:42.104Z</time></trkpt><trkpt lat="43.3930833" lon="10.8939383"><ele>342.5</ele><time>2026-04-05T14:08:43.104Z</time></trkpt><trkpt lat="43.39321" lon="10.89386"><ele>345.25</ele><time>2026-04-05T14:08:44.104Z</time></trkpt><trkpt lat="43.393335" lon="10.89378"><ele>348.0</ele><time>2026-04-05T14:08:45.103Z</time></trkpt><trkpt lat="43.393455" lon="10.893685"><ele>348.0</ele><time>2026-04-05T14:08:46.104Z</time></trkpt><trkpt lat="43.3935667" lon="10.8935767"><ele>348.0</ele><time>2026-04-05T14:08:47.104Z</time></trkpt><trkpt lat="43.3936583" lon="10.8934467"><ele>348.0</ele><time>2026-04-05T14:08:48.104Z</time></trkpt><trkpt lat="43.3937333" lon="10.8933"><ele>348.0</ele><time>2026-04-05T14:08:49.103Z</time></trkpt><trkpt lat="43.3938" lon="10.8931467"><ele>348.75</ele><time>2026-04-05T14:08:50.104Z</time></trkpt><trkpt lat="43.393865" lon="10.8929883"><ele>349.5</ele><time>2026-04-05T14:08:51.104Z</time></trkpt><trkpt lat="43.393905" lon="10.892825"><ele>350.25</ele><time>2026-04-05T14:08:52.104Z</time></trkpt><trkpt lat="43.393925" lon="10.8926667"><ele>351.0</ele><time>2026-04-05T14:08:53.104Z</time></trkpt><trkpt lat="43.3939033" lon="10.8925033"><ele>351.0</ele><time>2026-04-05T14:08:54.104Z</time></trkpt><trkpt lat="43.3938517" lon="10.8923483"><ele>351.0</ele><time>2026-04-05T14:08:55.104Z</time></trkpt><trkpt lat="43.3937717" lon="10.8922117"><ele>351.0</ele><time>2026-04-05T14:08:56.104Z</time></trkpt><trkpt lat="43.3936733" lon="10.8920767"><ele>351.0</ele><time>2026-04-05T14:08:57.104Z</time></trkpt><trkpt lat="43.393565" lon="10.89194"><ele>351.5</ele><time>2026-04-05T14:08:58.103Z</time></trkpt><trkpt lat="43.3934617" lon="10.8917883"><ele>352.0</ele><time>2026-04-05T14:08:59.104Z</time></trkpt><trkpt lat="43.393365" lon="10.8916333"><ele>352.5</ele><time>2026-04-05T14:09:00.104Z</time></trkpt><trkpt lat="43.393285" lon="10.8914717"><ele>353.0</ele><time>2026-04-05T14:09:01.104Z</time></trkpt><trkpt lat="43.39321" lon="10.8913083"><ele>353.0</ele><time>2026-04-05T14:09:02.104Z</time></trkpt><trkpt lat="43.393145" lon="10.8911517"><ele>353.0</ele><time>2026-04-05T14:09:03.103Z</time></trkpt><trkpt lat="43.3930933" lon="10.8910083"><ele>353.0</ele><time>2026-04-05T14:09:04.103Z</time></trkpt><trkpt lat="43.3930583" lon="10.8908733"><ele>353.0</ele><time>2026-04-05T14:09:05.103Z</time></trkpt><trkpt lat="43.3930567" lon="10.890725"><ele>356.5</ele><time>2026-04-05T14:09:06.104Z</time></trkpt><trkpt lat="43.3930867" lon="10.8905733"><ele>360.0</ele><time>2026-04-05T14:09:07.103Z</time></trkpt><trkpt lat="43.39313" lon="10.890425"><ele>363.5</ele><time>2026-04-05T14:09:08.104Z</time></trkpt><trkpt lat="43.3931917" lon="10.8902733"><ele>367.0</ele><time>2026-04-05T14:09:09.104Z</time></trkpt><trkpt lat="43.3932583" lon="10.8901183"><ele>366.5</ele><time>2026-04-05T14:09:10.104Z</time></trkpt><trkpt lat="43.3933267" lon="10.88996"><ele>366.0</ele><time>2026-04-05T14:09:11.104Z</time></trkpt><trkpt lat="43.3934" lon="10.8898"><ele>365.5</ele><time>2026-04-05T14:09:12.104Z</time></trkpt><trkpt lat="43.3934717" lon="10.88964"><ele>365.0</ele><time>2026-04-05T14:09:13.104Z</time></trkpt><trkpt lat="43.3935483" lon="10.8894917"><ele>365.0</ele><time>2026-04-05T14:09:14.104Z</time></trkpt><trkpt lat="43.3936367" lon="10.8893583"><ele>365.0</ele><time>2026-04-05T14:09:15.104Z</time></trkpt><trkpt lat="43.3937383" lon="10.8892417"><ele>365.0</ele><time>2026-04-05T14:09:16.104Z</time></trkpt><trkpt lat="43.39385" lon="10.8891383"><ele>365.0</ele><time>2026-04-05T14:09:17.104Z</time></trkpt><trkpt lat="43.3939717" lon="10.8890433"><ele>367.75</ele><time>2026-04-05T14:09:18.103Z</time></trkpt><trkpt lat="43.3940967" lon="10.8889533"><ele>370.5</ele><time>2026-04-05T14:09:19.104Z</time></trkpt><trkpt lat="43.39422" lon="10.8888633"><ele>373.25</ele><time>2026-04-05T14:09:20.104Z</time></trkpt><trkpt lat="43.3943283" lon="10.8887617"><ele>376.0</ele><time>2026-04-05T14:09:21.104Z</time></trkpt><trkpt lat="43.3944167" lon="10.8886417"><ele>376.0</ele><time>2026-04-05T14:09:22.103Z</time></trkpt><trkpt lat="43.3944783" lon="10.8885017"><ele>376.0</ele><time>2026-04-05T14:09:23.104Z</time></trkpt><trkpt lat="43.3945217" lon="10.888365"><ele>376.0</ele><time>2026-04-05T14:09:24.104Z</time></trkpt><trkpt lat="43.39456" lon="10.8882433"><ele>376.0</ele><time>2026-04-05T14:09:25.104Z</time></trkpt><trkpt lat="43.3946083" lon="10.88815"><ele>376.0</ele><time>2026-04-05T14:09:26.104Z</time></trkpt><trkpt lat="43.39467" lon="10.88808"><ele>377.0</ele><time>2026-04-05T14:09:27.104Z</time></trkpt><trkpt lat="43.3947433" lon="10.8880833"><ele>378.0</ele><time>2026-04-05T14:09:28.104Z</time></trkpt><trkpt lat="43.39481" lon="10.8881433"><ele>379.0</ele><time>2026-04-05T14:09:29.103Z</time></trkpt><trkpt lat="43.394865" lon="10.8882467"><ele>380.0</ele><time>2026-04-05T14:09:30.104Z</time></trkpt><trkpt lat="43.3948833" lon="10.8883883"><ele>381.0</ele><time>2026-04-05T14:09:31.104Z</time></trkpt><trkpt lat="43.3948783" lon="10.8885433"><ele>381.6</ele><time>2026-04-05T14:09:32.104Z</time></trkpt><trkpt lat="43.39486" lon="10.8887"><ele>382.20000000000005</ele><time>2026-04-05T14:09:33.104Z</time></trkpt><trkpt lat="43.3948417" lon="10.888845"><ele>382.79999999999995</ele><time>2026-04-05T14:09:34.104Z</time></trkpt><trkpt lat="43.39483" lon="10.88899"><ele>383.4</ele><time>2026-04-05T14:09:35.104Z</time></trkpt><trkpt lat="43.39484" lon="10.88913"><ele>384.0</ele><time>2026-04-05T14:09:36.104Z</time></trkpt><trkpt lat="43.39487" lon="10.8892517"><ele>384.0</ele><time>2026-04-05T14:09:37.104Z</time></trkpt><trkpt lat="43.3949317" lon="10.8893333"><ele>384.0</ele><time>2026-04-05T14:09:38.104Z</time></trkpt><trkpt lat="43.395" lon="10.8893917"><ele>384.0</ele><time>2026-04-05T14:09:39.104Z</time></trkpt><trkpt lat="43.3950833" lon="10.8893583"><ele>384.0</ele><time>2026-04-05T14:09:40.103Z</time></trkpt><trkpt lat="43.395165" lon="10.8893017"><ele>384.0</ele><time>2026-04-05T14:09:41.104Z</time></trkpt><trkpt lat="43.3952367" lon="10.8891983"><ele>384.0</ele><time>2026-04-05T14:09:42.104Z</time></trkpt><trkpt lat="43.3953" lon="10.88907"><ele>384.0</ele><time>2026-04-05T14:09:43.104Z</time></trkpt><trkpt lat="43.3953567" lon="10.8889367"><ele>384.0</ele><time>2026-04-05T14:09:44.104Z</time></trkpt><trkpt lat="43.3954083" lon="10.888805"><ele>384.0</ele><time>2026-04-05T14:09:45.104Z</time></trkpt><trkpt lat="43.39546" lon="10.8886767"><ele>384.0</ele><time>2026-04-05T14:09:46.104Z</time></trkpt><trkpt lat="43.3955067" lon="10.8885517"><ele>384.0</ele><time>2026-04-05T14:09:47.104Z</time></trkpt><trkpt lat="43.3955517" lon="10.8884317"><ele>385.4</ele><time>2026-04-05T14:09:48.104Z</time></trkpt><trkpt lat="43.3955983" lon="10.8883117"><ele>386.79999999999995</ele><time>2026-04-05T14:09:49.104Z</time></trkpt><trkpt lat="43.3956533" lon="10.8882017"><ele>388.20000000000005</ele><time>2026-04-05T14:09:50.104Z</time></trkpt><trkpt lat="43.3957217" lon="10.8881033"><ele>389.6</ele><time>2026-04-05T14:09:51.104Z</time></trkpt><trkpt lat="43.395805" lon="10.88802"><ele>391.0</ele><time>2026-04-05T14:09:52.104Z</time></trkpt><trkpt lat="43.3958933" lon="10.8879467"><ele>391.0</ele><time>2026-04-05T14:09:53.104Z</time></trkpt><trkpt lat="43.3959783" lon="10.8878667"><ele>391.0</ele><time>2026-04-05T14:09:54.104Z</time></trkpt><trkpt lat="43.3960433" lon="10.8877633"><ele>391.0</ele><time>2026-04-05T14:09:55.104Z</time></trkpt><trkpt lat="43.3960817" lon="10.8876333"><ele>391.0</ele><time>2026-04-05T14:09:56.104Z</time></trkpt><trkpt lat="43.3960867" lon="10.887495"><ele>391.0</ele><time>2026-04-05T14:09:57.104Z</time></trkpt><trkpt lat="43.3960667" lon="10.8873583"><ele>392.20000000000005</ele><time>2026-04-05T14:09:58.104Z</time></trkpt><trkpt lat="43.3960333" lon="10.887225"><ele>393.40000000000003</ele><time>2026-04-05T14:09:59.104Z</time></trkpt><trkpt lat="43.395995" lon="10.8870967"><ele>394.6</ele><time>2026-04-05T14:10:00.104Z</time></trkpt><trkpt lat="43.3959633" lon="10.8869717"><ele>395.8</ele><time>2026-04-05T14:10:01.104Z</time></trkpt><trkpt lat="43.395945" lon="10.8868483"><ele>397.0</ele><time>2026-04-05T14:10:02.104Z</time></trkpt><trkpt lat="43.3959383" lon="10.8867183"><ele>397.6</ele><time>2026-04-05T14:10:03.104Z</time></trkpt><trkpt lat="43.3959483" lon="10.8865817"><ele>398.20000000000005</ele><time>2026-04-05T14:10:04.104Z</time></trkpt><trkpt lat="43.39597" lon="10.8864417"><ele>398.8</ele><time>2026-04-05T14:10:05.104Z</time></trkpt><trkpt lat="43.3960133" lon="10.8862983"><ele>399.4</ele><time>2026-04-05T14:10:06.104Z</time></trkpt><trkpt lat="43.3960683" lon="10.8861617"><ele>400.0</ele><time>2026-04-05T14:10:07.104Z</time></trkpt><trkpt lat="43.3961333" lon="10.8860367"><ele>399.75</ele><time>2026-04-05T14:10:08.103Z</time></trkpt><trkpt lat="43.396205" lon="10.885915"><ele>399.5</ele><time>2026-04-05T14:10:09.104Z</time></trkpt><trkpt lat="43.3962817" lon="10.8857883"><ele>399.25</ele><time>2026-04-05T14:10:10.104Z</time></trkpt><trkpt lat="43.3963583" lon="10.88566"><ele>399.0</ele><time>2026-04-05T14:10:11.104Z</time></trkpt><trkpt lat="43.3964367" lon="10.8855333"><ele>400.75</ele><time>2026-04-05T14:10:12.104Z</time></trkpt><trkpt lat="43.3965183" lon="10.885405"><ele>402.5</ele><time>2026-04-05T14:10:13.104Z</time></trkpt><trkpt lat="43.3965967" lon="10.8852733"><ele>404.25</ele><time>2026-04-05T14:10:14.104Z</time></trkpt><trkpt lat="43.3966783" lon="10.8851417"><ele>406.0</ele><time>2026-04-05T14:10:15.103Z</time></trkpt><trkpt lat="43.39676" lon="10.8850117"><ele>406.0</ele><time>2026-04-05T14:10:16.104Z</time></trkpt><trkpt lat="43.39684" lon="10.884875"><ele>406.0</ele><time>2026-04-05T14:10:17.104Z</time></trkpt><trkpt lat="43.3969217" lon="10.8847383"><ele>406.0</ele><time>2026-04-05T14:10:18.104Z</time></trkpt><trkpt lat="43.397005" lon="10.8846"><ele>406.0</ele><time>2026-04-05T14:10:19.104Z</time></trkpt><trkpt lat="43.3970883" lon="10.8844567"><ele>406.0</ele><time>2026-04-05T14:10:20.104Z</time></trkpt><trkpt lat="43.3971617" lon="10.8843083"><ele>406.0</ele><time>2026-04-05T14:10:21.104Z</time></trkpt><trkpt lat="43.3972217" lon="10.88415"><ele>406.0</ele><time>2026-04-05T14:10:22.104Z</time></trkpt><trkpt lat="43.3972483" lon="10.8839817"><ele>406.0</ele><time>2026-04-05T14:10:23.103Z</time></trkpt><trkpt lat="43.3972483" lon="10.883805"><ele>406.75</ele><time>2026-04-05T14:10:24.104Z</time></trkpt><trkpt lat="43.3972233" lon="10.883635"><ele>407.5</ele><time>2026-04-05T14:10:25.104Z</time></trkpt><trkpt lat="43.3971967" lon="10.883465"><ele>408.25</ele><time>2026-04-05T14:10:26.103Z</time></trkpt><trkpt lat="43.39717" lon="10.8832883"><ele>409.0</ele><time>2026-04-05T14:10:27.104Z</time></trkpt><trkpt lat="43.3971433" lon="10.8831117"><ele>407.25</ele><time>2026-04-05T14:10:28.104Z</time></trkpt><trkpt lat="43.39713" lon="10.882935"><ele>405.5</ele><time>2026-04-05T14:10:29.104Z</time></trkpt><trkpt lat="43.3971267" lon="10.8827533"><ele>403.75</ele><time>2026-04-05T14:10:30.104Z</time></trkpt><trkpt lat="43.39713" lon="10.8825733"><ele>402.0</ele><time>2026-04-05T14:10:31.104Z</time></trkpt><trkpt lat="43.397125" lon="10.8823933"><ele>402.0</ele><time>2026-04-05T14:10:32.104Z</time></trkpt><trkpt lat="43.39711" lon="10.8822183"><ele>402.0</ele><time>2026-04-05T14:10:33.104Z</time></trkpt><trkpt lat="43.3970833" lon="10.8820467"><ele>402.0</ele><time>2026-04-05T14:10:34.103Z</time></trkpt><trkpt lat="43.3970467" lon="10.881875"><ele>402.0</ele><time>2026-04-05T14:10:35.104Z</time></trkpt><trkpt lat="43.3970083" lon="10.8817033"><ele>405.0</ele><time>2026-04-05T14:10:36.104Z</time></trkpt><trkpt lat="43.3969733" lon="10.8815317"><ele>408.0</ele><time>2026-04-05T14:10:37.104Z</time></trkpt><trkpt lat="43.3969433" lon="10.8813583"><ele>411.0</ele><time>2026-04-05T14:10:38.104Z</time></trkpt><trkpt lat="43.3969167" lon="10.8811867"><ele>414.0</ele><time>2026-04-05T14:10:39.103Z</time></trkpt><trkpt lat="43.3968867" lon="10.8810117"><ele>416.5</ele><time>2026-04-05T14:10:40.104Z</time></trkpt><trkpt lat="43.39686" lon="10.8808367"><ele>419.0</ele><time>2026-04-05T14:10:41.104Z</time></trkpt><trkpt lat="43.3968317" lon="10.8806617"><ele>421.5</ele><time>2026-04-05T14:10:42.104Z</time></trkpt><trkpt lat="43.3968133" lon="10.8804833"><ele>424.0</ele><time>2026-04-05T14:10:43.103Z</time></trkpt><trkpt lat="43.3968" lon="10.8803017"><ele>424.0</ele><time>2026-04-05T14:10:44.104Z</time></trkpt><trkpt lat="43.3967817" lon="10.8801183"><ele>424.0</ele><time>2026-04-05T14:10:45.104Z</time></trkpt><trkpt lat="43.396735" lon="10.87975"><ele>424.0</ele><time>2026-04-05T14:10:47.103Z</time></trkpt><trkpt lat="43.396705" lon="10.8795667"><ele>426.25</ele><time>2026-04-05T14:10:48.104Z</time></trkpt><trkpt lat="43.396675" lon="10.87938"><ele>428.5</ele><time>2026-04-05T14:10:49.104Z</time></trkpt><trkpt lat="43.396665" lon="10.8791833"><ele>430.75</ele><time>2026-04-05T14:10:50.104Z</time></trkpt><trkpt lat="43.3966683" lon="10.87899"><ele>433.0</ele><time>2026-04-05T14:10:51.104Z</time></trkpt><trkpt lat="43.3966817" lon="10.8788083"><ele>434.5</ele><time>2026-04-05T14:10:52.104Z</time></trkpt><trkpt lat="43.39671" lon="10.8786417"><ele>436.0</ele><time>2026-04-05T14:10:53.104Z</time></trkpt><trkpt lat="43.3967617" lon="10.8784867"><ele>437.5</ele><time>2026-04-05T14:10:54.104Z</time></trkpt><trkpt lat="43.3968283" lon="10.878335"><ele>439.0</ele><time>2026-04-05T14:10:55.104Z</time></trkpt><trkpt lat="43.396885" lon="10.8781767"><ele>439.0</ele><time>2026-04-05T14:10:56.104Z</time></trkpt><trkpt lat="43.3969183" lon="10.8780067"><ele>439.0</ele><time>2026-04-05T14:10:57.104Z</time></trkpt><trkpt lat="43.3969433" lon="10.87783"><ele>439.0</ele><time>2026-04-05T14:10:58.103Z</time></trkpt><trkpt lat="43.39697" lon="10.877655"><ele>439.0</ele><time>2026-04-05T14:10:59.104Z</time></trkpt><trkpt lat="43.3969967" lon="10.8774833"><ele>439.0</ele><time>2026-04-05T14:11:00.104Z</time></trkpt><trkpt lat="43.3970217" lon="10.87731"><ele>439.0</ele><time>2026-04-05T14:11:01.104Z</time></trkpt><trkpt lat="43.397045" lon="10.8771333"><ele>439.0</ele><time>2026-04-05T14:11:02.104Z</time></trkpt><trkpt lat="43.3970633" lon="10.876955"><ele>439.0</ele><time>2026-04-05T14:11:03.104Z</time></trkpt><trkpt lat="43.39708" lon="10.87678"><ele>440.25</ele><time>2026-04-05T14:11:04.104Z</time></trkpt><trkpt lat="43.3971033" lon="10.8766033"><ele>441.5</ele><time>2026-04-05T14:11:05.104Z</time></trkpt><trkpt lat="43.3971317" lon="10.8764267"><ele>442.75</ele><time>2026-04-05T14:11:06.104Z</time></trkpt><trkpt lat="43.3971733" lon="10.8762517"><ele>444.0</ele><time>2026-04-05T14:11:07.103Z</time></trkpt><trkpt lat="43.3972233" lon="10.8760817"><ele>449.75</ele><time>2026-04-05T14:11:08.104Z</time></trkpt><trkpt lat="43.39728" lon="10.8759183"><ele>455.5</ele><time>2026-04-05T14:11:09.104Z</time></trkpt><trkpt lat="43.3973383" lon="10.8757617"><ele>461.25</ele><time>2026-04-05T14:11:10.104Z</time></trkpt><trkpt lat="43.3973967" lon="10.8756083"><ele>467.0</ele><time>2026-04-05T14:11:11.104Z</time></trkpt><trkpt lat="43.397455" lon="10.8754567"><ele>467.0</ele><time>2026-04-05T14:11:12.104Z</time></trkpt><trkpt lat="43.39751" lon="10.8753033"><ele>467.0</ele><time>2026-04-05T14:11:13.104Z</time></trkpt><trkpt lat="43.397555" lon="10.8751383"><ele>467.0</ele><time>2026-04-05T14:11:14.103Z</time></trkpt><trkpt lat="43.3976" lon="10.8749817"><ele>467.0</ele><time>2026-04-05T14:11:15.104Z</time></trkpt><trkpt lat="43.3976483" lon="10.87483"><ele>466.40000000000003</ele><time>2026-04-05T14:11:16.104Z</time></trkpt><trkpt lat="43.3977017" lon="10.87469"><ele>465.80000000000007</ele><time>2026-04-05T14:11:17.104Z</time></trkpt><trkpt lat="43.3977617" lon="10.8745633"><ele>465.2</ele><time>2026-04-05T14:11:18.104Z</time></trkpt><trkpt lat="43.39783" lon="10.874445"><ele>464.6</ele><time>2026-04-05T14:11:19.104Z</time></trkpt><trkpt lat="43.3979067" lon="10.8743333"><ele>464.0</ele><time>2026-04-05T14:11:20.104Z</time></trkpt><trkpt lat="43.397985" lon="10.8742233"><ele>468.25</ele><time>2026-04-05T14:11:21.104Z</time></trkpt><trkpt lat="43.398065" lon="10.8741067"><ele>472.5</ele><time>2026-04-05T14:11:22.104Z</time></trkpt><trkpt lat="43.3981467" lon="10.8739933"><ele>476.75</ele><time>2026-04-05T14:11:23.104Z</time></trkpt><trkpt lat="43.3982283" lon="10.8738833"><ele>481.0</ele><time>2026-04-05T14:11:24.104Z</time></trkpt><trkpt lat="43.3983033" lon="10.8737667"><ele>481.0</ele><time>2026-04-05T14:11:25.104Z</time></trkpt><trkpt lat="43.3983717" lon="10.8736417"><ele>481.0</ele><time>2026-04-05T14:11:26.104Z</time></trkpt><trkpt lat="43.3984333" lon="10.8734983"><ele>481.0</ele><time>2026-04-05T14:11:27.104Z</time></trkpt><trkpt lat="43.3985" lon="10.8733667"><ele>481.0</ele><time>2026-04-05T14:11:28.104Z</time></trkpt><trkpt lat="43.3985667" lon="10.87323"><ele>480.25</ele><time>2026-04-05T14:11:29.104Z</time></trkpt><trkpt lat="43.398635" lon="10.8731"><ele>479.5</ele><time>2026-04-05T14:11:30.104Z</time></trkpt><trkpt lat="43.3987" lon="10.87297"><ele>478.75</ele><time>2026-04-05T14:11:31.103Z</time></trkpt><trkpt lat="43.3987683" lon="10.8728467"><ele>478.0</ele><time>2026-04-05T14:11:32.104Z</time></trkpt><trkpt lat="43.398835" lon="10.8727183"><ele>480.4</ele><time>2026-04-05T14:11:33.104Z</time></trkpt><trkpt lat="43.3988983" lon="10.8725933"><ele>482.79999999999995</ele><time>2026-04-05T14:11:34.104Z</time></trkpt><trkpt lat="43.398955" lon="10.8724817"><ele>485.2</ele><time>2026-04-05T14:11:35.104Z</time></trkpt><trkpt lat="43.399015" lon="10.87238"><ele>487.6</ele><time>2026-04-05T14:11:36.104Z</time></trkpt><trkpt lat="43.3990783" lon="10.872285"><ele>490.0</ele><time>2026-04-05T14:11:37.104Z</time></trkpt><trkpt lat="43.3991417" lon="10.8721967"><ele>490.00000000000006</ele><time>2026-04-05T14:11:38.104Z</time></trkpt><trkpt lat="43.3992083" lon="10.87211"><ele>490.0</ele><time>2026-04-05T14:11:39.104Z</time></trkpt><trkpt lat="43.39927" lon="10.87203"><ele>490.0</ele><time>2026-04-05T14:11:40.104Z</time></trkpt><trkpt lat="43.3993283" lon="10.8719467"><ele>490.0</ele><time>2026-04-05T14:11:41.103Z</time></trkpt><trkpt lat="43.39938" lon="10.871865"><ele>490.00000000000006</ele><time>2026-04-05T14:11:42.104Z</time></trkpt><trkpt lat="43.3994367" lon="10.8717767"><ele>490.0</ele><time>2026-04-05T14:11:43.104Z</time></trkpt><trkpt lat="43.39948" lon="10.871675"><ele>490.33333333333337</ele><time>2026-04-05T14:11:44.104Z</time></trkpt><trkpt lat="43.39953" lon="10.8715733"><ele>490.6666666666667</ele><time>2026-04-05T14:11:45.104Z</time></trkpt><trkpt lat="43.3995733" lon="10.8714717"><ele>491.0</ele><time>2026-04-05T14:11:46.104Z</time></trkpt><trkpt lat="43.3996167" lon="10.8713683"><ele>491.33333333333337</ele><time>2026-04-05T14:11:47.104Z</time></trkpt><trkpt lat="43.3996517" lon="10.87126"><ele>491.6666666666667</ele><time>2026-04-05T14:11:48.104Z</time></trkpt><trkpt lat="43.3996817" lon="10.87114"><ele>492.0</ele><time>2026-04-05T14:11:49.104Z</time></trkpt><trkpt lat="43.3997017" lon="10.8710117"><ele>492.8333333333333</ele><time>2026-04-05T14:11:50.104Z</time></trkpt><trkpt lat="43.39972" lon="10.8708817"><ele>493.66666666666663</ele><time>2026-04-05T14:11:51.104Z</time></trkpt><trkpt lat="43.399725" lon="10.8707533"><ele>494.5</ele><time>2026-04-05T14:11:52.104Z</time></trkpt><trkpt lat="43.3997233" lon="10.8706317"><ele>495.3333333333333</ele><time>2026-04-05T14:11:53.104Z</time></trkpt><trkpt lat="43.3997217" lon="10.8705133"><ele>496.16666666666663</ele><time>2026-04-05T14:11:54.104Z</time></trkpt><trkpt lat="43.399725" lon="10.8703983"><ele>497.0</ele><time>2026-04-05T14:11:55.103Z</time></trkpt><trkpt lat="43.39971" lon="10.870275"><ele>497.0</ele><time>2026-04-05T14:11:56.104Z</time></trkpt><trkpt lat="43.399695" lon="10.8701483"><ele>497.00000000000006</ele><time>2026-04-05T14:11:57.104Z</time></trkpt><trkpt lat="43.3996817" lon="10.8700233"><ele>497.00000000000006</ele><time>2026-04-05T14:11:58.104Z</time></trkpt><trkpt lat="43.3996733" lon="10.869895"><ele>497.0</ele><time>2026-04-05T14:11:59.104Z</time></trkpt><trkpt lat="43.3996717" lon="10.8697633"><ele>497.0</ele><time>2026-04-05T14:12:00.104Z</time></trkpt><trkpt lat="43.3996667" lon="10.8696333"><ele>497.6</ele><time>2026-04-05T14:12:01.104Z</time></trkpt><trkpt lat="43.3996583" lon="10.869505"><ele>498.20000000000005</ele><time>2026-04-05T14:12:02.104Z</time></trkpt><trkpt lat="43.3996433" lon="10.8693767"><ele>498.8</ele><time>2026-04-05T14:12:03.104Z</time></trkpt><trkpt lat="43.399625" lon="10.86925"><ele>499.4</ele><time>2026-04-05T14:12:04.104Z</time></trkpt><trkpt lat="43.3995917" lon="10.8691283"><ele>500.0</ele><time>2026-04-05T14:12:05.104Z</time></trkpt><trkpt lat="43.3995633" lon="10.8690033"><ele>500.2</ele><time>2026-04-05T14:12:06.104Z</time></trkpt><trkpt lat="43.399535" lon="10.8688783"><ele>500.4</ele><time>2026-04-05T14:12:07.104Z</time></trkpt><trkpt lat="43.3995067" lon="10.86875"><ele>500.6</ele><time>2026-04-05T14:12:08.104Z</time></trkpt><trkpt lat="43.3994733" lon="10.868625"><ele>500.8</ele><time>2026-04-05T14:12:09.104Z</time></trkpt><trkpt lat="43.3994433" lon="10.8685"><ele>501.0</ele><time>2026-04-05T14:12:10.104Z</time></trkpt><trkpt lat="43.3994133" lon="10.868375"><ele>501.0</ele><time>2026-04-05T14:12:11.104Z</time></trkpt><trkpt lat="43.3993767" lon="10.8682533"><ele>501.0</ele><time>2026-04-05T14:12:12.104Z</time></trkpt><trkpt lat="43.3993417" lon="10.8681283"><ele>501.0</ele><time>2026-04-05T14:12:13.104Z</time></trkpt><trkpt lat="43.3993117" lon="10.868005"><ele>501.0</ele><time>2026-04-05T14:12:14.104Z</time></trkpt><trkpt lat="43.3992817" lon="10.867885"><ele>501.0</ele><time>2026-04-05T14:12:15.104Z</time></trkpt><trkpt lat="43.399255" lon="10.8677617"><ele>501.0</ele><time>2026-04-05T14:12:16.104Z</time></trkpt><trkpt lat="43.3992333" lon="10.8676333"><ele>501.0</ele><time>2026-04-05T14:12:17.104Z</time></trkpt><trkpt lat="43.3992217" lon="10.8675017"><ele>501.0</ele><time>2026-04-05T14:12:18.104Z</time></trkpt><trkpt lat="43.39922" lon="10.86737"><ele>501.0</ele><time>2026-04-05T14:12:19.104Z</time></trkpt><trkpt lat="43.3992183" lon="10.8672433"><ele>501.0</ele><time>2026-04-05T14:12:20.104Z</time></trkpt><trkpt lat="43.3992233" lon="10.8671217"><ele>502.0</ele><time>2026-04-05T14:12:21.104Z</time></trkpt><trkpt lat="43.3992267" lon="10.8670017"><ele>503.0</ele><time>2026-04-05T14:12:22.103Z</time></trkpt><trkpt lat="43.39923" lon="10.8668817"><ele>504.0</ele><time>2026-04-05T14:12:23.103Z</time></trkpt><trkpt lat="43.3992333" lon="10.8667567"><ele>505.0</ele><time>2026-04-05T14:12:24.103Z</time></trkpt><trkpt lat="43.3992383" lon="10.866635"><ele>506.0</ele><time>2026-04-05T14:12:25.104Z</time></trkpt><trkpt lat="43.3992417" lon="10.8665067"><ele>507.0</ele><time>2026-04-05T14:12:26.104Z</time></trkpt><trkpt lat="43.399245" lon="10.86638"><ele>508.1666666666667</ele><time>2026-04-05T14:12:27.104Z</time></trkpt><trkpt lat="43.3992517" lon="10.8662617"><ele>509.33333333333337</ele><time>2026-04-05T14:12:28.104Z</time></trkpt><trkpt lat="43.3992583" lon="10.866155"><ele>510.5</ele><time>2026-04-05T14:12:29.104Z</time></trkpt><trkpt lat="43.399265" lon="10.8660617"><ele>511.6666666666667</ele><time>2026-04-05T14:12:30.104Z</time></trkpt><trkpt lat="43.399275" lon="10.8659733"><ele>512.8333333333334</ele><time>2026-04-05T14:12:31.104Z</time></trkpt><trkpt lat="43.39928" lon="10.8658117"><ele>514.0</ele><time>2026-04-05T14:12:33.104Z</time></trkpt><trkpt lat="43.3992667" lon="10.8656733"><ele>514.6</ele><time>2026-04-05T14:12:35.104Z</time></trkpt><trkpt lat="43.3992283" lon="10.8655417"><ele>515.2</ele><time>2026-04-05T14:12:37.103Z</time></trkpt><trkpt lat="43.399195" lon="10.865395"><ele>515.8000000000001</ele><time>2026-04-05T14:12:39.104Z</time></trkpt><trkpt lat="43.39918" lon="10.865215"><ele>516.4</ele><time>2026-04-05T14:12:41.104Z</time></trkpt><trkpt lat="43.399185" lon="10.8651167"><ele>517.0</ele><time>2026-04-05T14:12:42.104Z</time></trkpt><trkpt lat="43.39919" lon="10.8650083"><ele>517.0</ele><time>2026-04-05T14:12:43.104Z</time></trkpt><trkpt lat="43.3992" lon="10.8648917"><ele>517.0</ele><time>2026-04-05T14:12:44.104Z</time></trkpt><trkpt lat="43.3992067" lon="10.8647683"><ele>517.0</ele><time>2026-04-05T14:12:45.104Z</time></trkpt><trkpt lat="43.3992117" lon="10.8646433"><ele>517.0</ele><time>2026-04-05T14:12:46.104Z</time></trkpt><trkpt lat="43.3992183" lon="10.8645217"><ele>517.0</ele><time>2026-04-05T14:12:47.104Z</time></trkpt><trkpt lat="43.3992333" lon="10.8643967"><ele>517.0</ele><time>2026-04-05T14:12:48.104Z</time></trkpt><trkpt lat="43.399245" lon="10.8642667"><ele>516.6</ele><time>2026-04-05T14:12:49.103Z</time></trkpt><trkpt lat="43.399255" lon="10.864135"><ele>516.2</ele><time>2026-04-05T14:12:50.104Z</time></trkpt><trkpt lat="43.3992633" lon="10.8640033"><ele>515.8</ele><time>2026-04-05T14:12:51.104Z</time></trkpt><trkpt lat="43.3992733" lon="10.86387"><ele>515.4</ele><time>2026-04-05T14:12:52.104Z</time></trkpt><trkpt lat="43.3992767" lon="10.863735"><ele>515.0</ele><time>2026-04-05T14:12:53.104Z</time></trkpt><trkpt lat="43.3992783" lon="10.8636083"><ele>515.0</ele><time>2026-04-05T14:12:54.104Z</time></trkpt><trkpt lat="43.399285" lon="10.863485"><ele>515.0</ele><time>2026-04-05T14:12:55.104Z</time></trkpt><trkpt lat="43.3992917" lon="10.8633583"><ele>515.0</ele><time>2026-04-05T14:12:56.104Z</time></trkpt><trkpt lat="43.3992967" lon="10.86322"><ele>515.0</ele><time>2026-04-05T14:12:57.104Z</time></trkpt><trkpt lat="43.399305" lon="10.8630733"><ele>515.0</ele><time>2026-04-05T14:12:58.104Z</time></trkpt><trkpt lat="43.3993133" lon="10.8629183"><ele>513.75</ele><time>2026-04-05T14:12:59.104Z</time></trkpt><trkpt lat="43.399325" lon="10.862755"><ele>512.5</ele><time>2026-04-05T14:13:00.103Z</time></trkpt><trkpt lat="43.39934" lon="10.8625867"><ele>511.25</ele><time>2026-04-05T14:13:01.104Z</time></trkpt><trkpt lat="43.3993517" lon="10.8624233"><ele>510.0</ele><time>2026-04-05T14:13:02.104Z</time></trkpt><trkpt lat="43.3993683" lon="10.86226"><ele>503.0</ele><time>2026-04-05T14:13:03.104Z</time></trkpt></trkseg><trkseg><trkpt lat="43.40091" lon="10.8590433"><ele>524.0</ele><time>2026-04-05T15:31:06.104Z</time></trkpt><trkpt lat="43.400815" lon="10.8589933"><ele>524.0</ele><time>2026-04-05T15:31:08.104Z</time></trkpt><trkpt lat="43.40074" lon="10.8590117"><ele>524.0</ele><time>2026-04-05T15:31:10.104Z</time></trkpt><trkpt lat="43.4006583" lon="10.8590833"><ele>524.0</ele><time>2026-04-05T15:31:12.104Z</time></trkpt><trkpt lat="43.4005633" lon="10.8591967"><ele>524.0</ele><time>2026-04-05T15:31:14.104Z</time></trkpt><trkpt lat="43.4005167" lon="10.859265"><ele>522.4285714285714</ele><time>2026-04-05T15:31:15.104Z</time></trkpt><trkpt lat="43.4004717" lon="10.8593367"><ele>520.8571428571429</ele><time>2026-04-05T15:31:16.104Z</time></trkpt><trkpt lat="43.40043" lon="10.8594167"><ele>519.2857142857143</ele><time>2026-04-05T15:31:17.104Z</time></trkpt><trkpt lat="43.40039" lon="10.8595017"><ele>517.7142857142858</ele><time>2026-04-05T15:31:18.104Z</time></trkpt><trkpt lat="43.4003467" lon="10.859585"><ele>516.1428571428571</ele><time>2026-04-05T15:31:19.104Z</time></trkpt><trkpt lat="43.4002983" lon="10.8596683"><ele>514.5714285714287</ele><time>2026-04-05T15:31:20.104Z</time></trkpt><trkpt lat="43.40025" lon="10.8597533"><ele>513.0</ele><time>2026-04-05T15:31:21.104Z</time></trkpt><trkpt lat="43.4002033" lon="10.8598417"><ele>513.0</ele><time>2026-04-05T15:31:22.104Z</time></trkpt><trkpt lat="43.400155" lon="10.8599317"><ele>513.0</ele><time>2026-04-05T15:31:23.104Z</time></trkpt><trkpt lat="43.4001067" lon="10.8600217"><ele>513.0</ele><time>2026-04-05T15:31:24.104Z</time></trkpt><trkpt lat="43.4000533" lon="10.8601167"><ele>513.0</ele><time>2026-04-05T15:31:25.104Z</time></trkpt><trkpt lat="43.4" lon="10.860215"><ele>513.0</ele><time>2026-04-05T15:31:26.104Z</time></trkpt><trkpt lat="43.3999567" lon="10.8603233"><ele>513.0</ele><time>2026-04-05T15:31:27.104Z</time></trkpt><trkpt lat="43.39992" lon="10.860435"><ele>516.1999999999999</ele><time>2026-04-05T15:31:28.104Z</time></trkpt><trkpt lat="43.3999017" lon="10.86056"><ele>519.4</ele><time>2026-04-05T15:31:29.104Z</time></trkpt><trkpt lat="43.3998833" lon="10.86069"><ele>522.5999999999999</ele><time>2026-04-05T15:31:30.104Z</time></trkpt><trkpt lat="43.3998633" lon="10.8608217"><ele>525.8</ele><time>2026-04-05T15:31:31.104Z</time></trkpt><trkpt lat="43.39985" lon="10.8609567"><ele>529.0</ele><time>2026-04-05T15:31:32.104Z</time></trkpt><trkpt lat="43.39984" lon="10.8610917"><ele>530.2</ele><time>2026-04-05T15:31:33.104Z</time></trkpt><trkpt lat="43.39983" lon="10.8612283"><ele>531.4</ele><time>2026-04-05T15:31:34.104Z</time></trkpt><trkpt lat="43.3998167" lon="10.861365"><ele>532.6</ele><time>2026-04-05T15:31:35.104Z</time></trkpt><trkpt lat="43.3998083" lon="10.8614983"><ele>533.8</ele><time>2026-04-05T15:31:36.104Z</time></trkpt><trkpt lat="43.3998017" lon="10.8616283"><ele>535.0</ele><time>2026-04-05T15:31:37.104Z</time></trkpt><trkpt lat="43.3997967" lon="10.861755"><ele>535.8</ele><time>2026-04-05T15:31:38.104Z</time></trkpt><trkpt lat="43.3997833" lon="10.86189"><ele>536.6</ele><time>2026-04-05T15:31:39.104Z</time></trkpt><trkpt lat="43.39977" lon="10.862025"><ele>537.4</ele><time>2026-04-05T15:31:40.104Z</time></trkpt><trkpt lat="43.39976" lon="10.862165"><ele>538.2</ele><time>2026-04-05T15:31:41.103Z</time></trkpt><trkpt lat="43.3997417" lon="10.8623083"><ele>539.0</ele><time>2026-04-05T15:31:42.104Z</time></trkpt><trkpt lat="43.3997217" lon="10.8624533"><ele>539.0</ele><time>2026-04-05T15:31:43.104Z</time></trkpt><trkpt lat="43.3997067" lon="10.8625933"><ele>539.0</ele><time>2026-04-05T15:31:44.104Z</time></trkpt><trkpt lat="43.3996933" lon="10.86274"><ele>539.0</ele><time>2026-04-05T15:31:45.104Z</time></trkpt><trkpt lat="43.3996817" lon="10.8628867"><ele>539.0</ele><time>2026-04-05T15:31:46.104Z</time></trkpt><trkpt lat="43.399665" lon="10.8630367"><ele>539.0</ele><time>2026-04-05T15:31:47.104Z</time></trkpt><trkpt lat="43.3996533" lon="10.8631817"><ele>534.2</ele><time>2026-04-05T15:31:48.104Z</time></trkpt><trkpt lat="43.3996383" lon="10.863325"><ele>529.4</ele><time>2026-04-05T15:31:49.104Z</time></trkpt><trkpt lat="43.3996333" lon="10.8634733"><ele>524.6</ele><time>2026-04-05T15:31:50.104Z</time></trkpt><trkpt lat="43.3996267" lon="10.86362"><ele>519.8</ele><time>2026-04-05T15:31:51.104Z</time></trkpt><trkpt lat="43.39962" lon="10.8637617"><ele>515.0</ele><time>2026-04-05T15:31:52.104Z</time></trkpt><trkpt lat="43.3996083" lon="10.863905"><ele>515.0</ele><time>2026-04-05T15:31:53.104Z</time></trkpt><trkpt lat="43.3995933" lon="10.8640433"><ele>515.0</ele><time>2026-04-05T15:31:54.104Z</time></trkpt><trkpt lat="43.3995683" lon="10.864175"><ele>515.0</ele><time>2026-04-05T15:31:55.104Z</time></trkpt><trkpt lat="43.3995383" lon="10.8642983"><ele>515.0</ele><time>2026-04-05T15:31:56.104Z</time></trkpt><trkpt lat="43.3995083" lon="10.8644217"><ele>515.0</ele><time>2026-04-05T15:31:57.104Z</time></trkpt><trkpt lat="43.3994817" lon="10.864545"><ele>515.3333333333333</ele><time>2026-04-05T15:31:58.104Z</time></trkpt><trkpt lat="43.3994583" lon="10.864665"><ele>515.6666666666666</ele><time>2026-04-05T15:31:59.104Z</time></trkpt><trkpt lat="43.399435" lon="10.864785"><ele>516.0</ele><time>2026-04-05T15:32:00.103Z</time></trkpt><trkpt lat="43.399415" lon="10.8649033"><ele>516.3333333333334</ele><time>2026-04-05T15:32:01.104Z</time></trkpt><trkpt lat="43.399395" lon="10.8650183"><ele>516.6666666666667</ele><time>2026-04-05T15:32:02.104Z</time></trkpt><trkpt lat="43.399375" lon="10.8651333"><ele>517.0</ele><time>2026-04-05T15:32:03.104Z</time></trkpt><trkpt lat="43.3993583" lon="10.8652433"><ele>517.1666666666667</ele><time>2026-04-05T15:32:04.104Z</time></trkpt><trkpt lat="43.3993367" lon="10.8653383"><ele>517.3333333333334</ele><time>2026-04-05T15:32:05.104Z</time></trkpt><trkpt lat="43.3992767" lon="10.865445"><ele>517.5</ele><time>2026-04-05T15:32:07.104Z</time></trkpt><trkpt lat="43.39921" lon="10.865435"><ele>517.6666666666666</ele><time>2026-04-05T15:32:09.104Z</time></trkpt><trkpt lat="43.39917" lon="10.8653267"><ele>517.8333333333333</ele><time>2026-04-05T15:32:11.104Z</time></trkpt><trkpt lat="43.3991717" lon="10.86524"><ele>518.0</ele><time>2026-04-05T15:32:12.104Z</time></trkpt><trkpt lat="43.3991783" lon="10.86513"><ele>517.8</ele><time>2026-04-05T15:32:13.104Z</time></trkpt><trkpt lat="43.3991917" lon="10.8650133"><ele>517.5999999999999</ele><time>2026-04-05T15:32:14.104Z</time></trkpt><trkpt lat="43.3992" lon="10.8648933"><ele>517.4000000000001</ele><time>2026-04-05T15:32:15.104Z</time></trkpt><trkpt lat="43.3992067" lon="10.8647633"><ele>517.2</ele><time>2026-04-05T15:32:16.104Z</time></trkpt><trkpt lat="43.3992133" lon="10.8646267"><ele>517.0</ele><time>2026-04-05T15:32:17.103Z</time></trkpt><trkpt lat="43.3992167" lon="10.864485"><ele>517.0</ele><time>2026-04-05T15:32:18.104Z</time></trkpt><trkpt lat="43.3992233" lon="10.8643367"><ele>517.0</ele><time>2026-04-05T15:32:19.104Z</time></trkpt><trkpt lat="43.3992267" lon="10.8641883"><ele>517.0</ele><time>2026-04-05T15:32:20.104Z</time></trkpt><trkpt lat="43.3992333" lon="10.8640367"><ele>517.0</ele><time>2026-04-05T15:32:21.104Z</time></trkpt><trkpt lat="43.3992383" lon="10.8638833"><ele>517.0</ele><time>2026-04-05T15:32:22.103Z</time></trkpt><trkpt lat="43.399245" lon="10.8637283"><ele>516.5</ele><time>2026-04-05T15:32:23.104Z</time></trkpt><trkpt lat="43.3992467" lon="10.8635733"><ele>516.0</ele><time>2026-04-05T15:32:24.104Z</time></trkpt><trkpt lat="43.3992583" lon="10.8634117"><ele>515.5</ele><time>2026-04-05T15:32:25.104Z</time></trkpt><trkpt lat="43.3992717" lon="10.8632483"><ele>515.0</ele><time>2026-04-05T15:32:26.104Z</time></trkpt><trkpt lat="43.3992867" lon="10.8630833"><ele>513.75</ele><time>2026-04-05T15:32:27.103Z</time></trkpt><trkpt lat="43.3992983" lon="10.862915"><ele>512.5</ele><time>2026-04-05T15:32:28.104Z</time></trkpt><trkpt lat="43.3993083" lon="10.862745"><ele>511.25</ele><time>2026-04-05T15:32:29.104Z</time></trkpt><trkpt lat="43.399325" lon="10.8625733"><ele>510.0</ele><time>2026-04-05T15:32:30.104Z</time></trkpt><trkpt lat="43.3993367" lon="10.8623983"><ele>508.25</ele><time>2026-04-05T15:32:31.104Z</time></trkpt><trkpt lat="43.399345" lon="10.8622233"><ele>506.5</ele><time>2026-04-05T15:32:32.104Z</time></trkpt><trkpt lat="43.3993617" lon="10.8620467"><ele>504.75</ele><time>2026-04-05T15:32:33.104Z</time></trkpt><trkpt lat="43.3993767" lon="10.8618733"><ele>503.0</ele><time>2026-04-05T15:32:34.104Z</time></trkpt><trkpt lat="43.39939" lon="10.8617"><ele>501.0</ele><time>2026-04-05T15:32:35.104Z</time></trkpt><trkpt lat="43.3994017" lon="10.8615267"><ele>499.0</ele><time>2026-04-05T15:32:36.104Z</time></trkpt><trkpt lat="43.39942" lon="10.861355"><ele>497.0</ele><time>2026-04-05T15:32:37.104Z</time></trkpt><trkpt lat="43.3994383" lon="10.8611833"><ele>495.0</ele><time>2026-04-05T15:32:38.104Z</time></trkpt><trkpt lat="43.39945" lon="10.861015"><ele>493.75</ele><time>2026-04-05T15:32:39.104Z</time></trkpt><trkpt lat="43.3994683" lon="10.860845"><ele>492.5</ele><time>2026-04-05T15:32:40.104Z</time></trkpt><trkpt lat="43.3994833" lon="10.8606817"><ele>491.25</ele><time>2026-04-05T15:32:41.104Z</time></trkpt><trkpt lat="43.3995017" lon="10.86052"><ele>490.0</ele><time>2026-04-05T15:32:42.104Z</time></trkpt><trkpt lat="43.3995167" lon="10.86036"><ele>490.0</ele><time>2026-04-05T15:32:43.104Z</time></trkpt><trkpt lat="43.39953" lon="10.8602033"><ele>490.0</ele><time>2026-04-05T15:32:44.104Z</time></trkpt><trkpt lat="43.3995367" lon="10.8600483"><ele>490.0</ele><time>2026-04-05T15:32:45.104Z</time></trkpt><trkpt lat="43.399545" lon="10.859895"><ele>490.0</ele><time>2026-04-05T15:32:46.104Z</time></trkpt><trkpt lat="43.3995583" lon="10.8597433"><ele>489.2</ele><time>2026-04-05T15:32:47.104Z</time></trkpt><trkpt lat="43.3995783" lon="10.8595967"><ele>488.4</ele><time>2026-04-05T15:32:48.104Z</time></trkpt><trkpt lat="43.3996267" lon="10.859465"><ele>487.6</ele><time>2026-04-05T15:32:49.104Z</time></trkpt><trkpt lat="43.3996917" lon="10.8593483"><ele>486.8</ele><time>2026-04-05T15:32:50.104Z</time></trkpt><trkpt lat="43.399765" lon="10.859235"><ele>486.0</ele><time>2026-04-05T15:32:51.104Z</time></trkpt><trkpt lat="43.39984" lon="10.859125"><ele>488.6</ele><time>2026-04-05T15:32:52.104Z</time></trkpt><trkpt lat="43.3999167" lon="10.8590167"><ele>491.20000000000005</ele><time>2026-04-05T15:32:53.104Z</time></trkpt><trkpt lat="43.3999883" lon="10.85891"><ele>493.79999999999995</ele><time>2026-04-05T15:32:54.104Z</time></trkpt><trkpt lat="43.400065" lon="10.8588033"><ele>496.4</ele><time>2026-04-05T15:32:55.104Z</time></trkpt><trkpt lat="43.400145" lon="10.858695"><ele>499.0</ele><time>2026-04-05T15:32:56.104Z</time></trkpt><trkpt lat="43.4002217" lon="10.8585817"><ele>499.0</ele><time>2026-04-05T15:32:57.104Z</time></trkpt><trkpt lat="43.400295" lon="10.8584783"><ele>499.0</ele><time>2026-04-05T15:32:58.104Z</time></trkpt><trkpt lat="43.4003617" lon="10.85839"><ele>499.0</ele><time>2026-04-05T15:32:59.104Z</time></trkpt><trkpt lat="43.4004183" lon="10.8583067"><ele>499.0</ele><time>2026-04-05T15:33:00.104Z</time></trkpt><trkpt lat="43.4004733" lon="10.8582233"><ele>499.0</ele><time>2026-04-05T15:33:01.104Z</time></trkpt><trkpt lat="43.400535" lon="10.858135"><ele>501.4</ele><time>2026-04-05T15:33:02.104Z</time></trkpt><trkpt lat="43.4006" lon="10.8580467"><ele>503.79999999999995</ele><time>2026-04-05T15:33:03.104Z</time></trkpt><trkpt lat="43.40067" lon="10.85796"><ele>506.20000000000005</ele><time>2026-04-05T15:33:04.104Z</time></trkpt><trkpt lat="43.4007367" lon="10.8578733"><ele>508.6</ele><time>2026-04-05T15:33:05.104Z</time></trkpt><trkpt lat="43.4008017" lon="10.857785"><ele>511.0</ele><time>2026-04-05T15:33:06.104Z</time></trkpt><trkpt lat="43.40087" lon="10.8576967"><ele>507.4</ele><time>2026-04-05T15:33:07.104Z</time></trkpt><trkpt lat="43.400945" lon="10.8576017"><ele>503.8</ele><time>2026-04-05T15:33:08.104Z</time></trkpt><trkpt lat="43.401025" lon="10.8575033"><ele>500.19999999999993</ele><time>2026-04-05T15:33:09.104Z</time></trkpt><trkpt lat="43.4011067" lon="10.8574"><ele>496.59999999999997</ele><time>2026-04-05T15:33:10.104Z</time></trkpt><trkpt lat="43.4011917" lon="10.8572933"><ele>493.0</ele><time>2026-04-05T15:33:11.104Z</time></trkpt><trkpt lat="43.4012767" lon="10.8571883"><ele>494.0</ele><time>2026-04-05T15:33:12.104Z</time></trkpt><trkpt lat="43.401355" lon="10.857085"><ele>494.99999999999994</ele><time>2026-04-05T15:33:13.104Z</time></trkpt><trkpt lat="43.4014333" lon="10.8569817"><ele>495.99999999999994</ele><time>2026-04-05T15:33:14.103Z</time></trkpt><trkpt lat="43.4015117" lon="10.8568767"><ele>497.0</ele><time>2026-04-05T15:33:15.104Z</time></trkpt><trkpt lat="43.4015883" lon="10.8567733"><ele>498.0</ele><time>2026-04-05T15:33:16.103Z</time></trkpt><trkpt lat="43.401665" lon="10.8566667"><ele>498.0</ele><time>2026-04-05T15:33:17.104Z</time></trkpt><trkpt lat="43.401745" lon="10.8565617"><ele>498.0</ele><time>2026-04-05T15:33:18.104Z</time></trkpt><trkpt lat="43.4018283" lon="10.8564617"><ele>498.0</ele><time>2026-04-05T15:33:19.104Z</time></trkpt><trkpt lat="43.401925" lon="10.8563783"><ele>498.0</ele><time>2026-04-05T15:33:20.104Z</time></trkpt><trkpt lat="43.402025" lon="10.8563"><ele>498.0</ele><time>2026-04-05T15:33:21.104Z</time></trkpt><trkpt lat="43.4021317" lon="10.8562283"><ele>498.0</ele><time>2026-04-05T15:33:22.104Z</time></trkpt><trkpt lat="43.402245" lon="10.8561617"><ele>498.0</ele><time>2026-04-05T15:33:23.104Z</time></trkpt><trkpt lat="43.402355" lon="10.8560967"><ele>498.0</ele><time>2026-04-05T15:33:24.104Z</time></trkpt><trkpt lat="43.4024633" lon="10.8560333"><ele>496.59999999999997</ele><time>2026-04-05T15:33:25.103Z</time></trkpt><trkpt lat="43.40257" lon="10.8559767"><ele>495.19999999999993</ele><time>2026-04-05T15:33:26.104Z</time></trkpt><trkpt lat="43.402675" lon="10.8559317"><ele>493.8</ele><time>2026-04-05T15:33:27.104Z</time></trkpt><trkpt lat="43.4027767" lon="10.8558883"><ele>492.4</ele><time>2026-04-05T15:33:28.104Z</time></trkpt><trkpt lat="43.402875" lon="10.8558383"><ele>491.0</ele><time>2026-04-05T15:33:29.104Z</time></trkpt><trkpt lat="43.4029667" lon="10.8557767"><ele>494.6</ele><time>2026-04-05T15:33:30.104Z</time></trkpt><trkpt lat="43.4030383" lon="10.85569"><ele>498.20000000000005</ele><time>2026-04-05T15:33:31.104Z</time></trkpt><trkpt lat="43.403085" lon="10.85558"><ele>501.79999999999995</ele><time>2026-04-05T15:33:32.104Z</time></trkpt><trkpt lat="43.4031133" lon="10.855455"><ele>505.4</ele><time>2026-04-05T15:33:33.104Z</time></trkpt><trkpt lat="43.4031533" lon="10.8553383"><ele>509.0</ele><time>2026-04-05T15:33:34.104Z</time></trkpt><trkpt lat="43.4032067" lon="10.85523"><ele>509.0</ele><time>2026-04-05T15:33:35.104Z</time></trkpt><trkpt lat="43.4032667" lon="10.8551267"><ele>509.0</ele><time>2026-04-05T15:33:36.104Z</time></trkpt><trkpt lat="43.4033333" lon="10.855025"><ele>509.0</ele><time>2026-04-05T15:33:37.104Z</time></trkpt><trkpt lat="43.403405" lon="10.8549317"><ele>509.0</ele><time>2026-04-05T15:33:38.104Z</time></trkpt><trkpt lat="43.40348" lon="10.8548417"><ele>509.0</ele><time>2026-04-05T15:33:39.104Z</time></trkpt><trkpt lat="43.4035583" lon="10.8547583"><ele>509.3333333333333</ele><time>2026-04-05T15:33:40.104Z</time></trkpt><trkpt lat="43.4036367" lon="10.8546817"><ele>509.66666666666663</ele><time>2026-04-05T15:33:41.104Z</time></trkpt><trkpt lat="43.4037167" lon="10.8546233"><ele>510.0</ele><time>2026-04-05T15:33:42.104Z</time></trkpt><trkpt lat="43.403795" lon="10.8545883"><ele>510.33333333333337</ele><time>2026-04-05T15:33:43.104Z</time></trkpt><trkpt lat="43.40387" lon="10.8545833"><ele>510.6666666666667</ele><time>2026-04-05T15:33:44.104Z</time></trkpt><trkpt lat="43.4039333" lon="10.85459"><ele>511.0</ele><time>2026-04-05T15:33:45.104Z</time></trkpt><trkpt lat="43.404035" lon="10.8546717"><ele>511.00000000000006</ele><time>2026-04-05T15:33:47.104Z</time></trkpt><trkpt lat="43.404085" lon="10.8547367"><ele>511.0</ele><time>2026-04-05T15:33:48.104Z</time></trkpt><trkpt lat="43.4041333" lon="10.8548067"><ele>511.0</ele><time>2026-04-05T15:33:49.104Z</time></trkpt><trkpt lat="43.404215" lon="10.85492"><ele>511.0</ele><time>2026-04-05T15:33:51.104Z</time></trkpt><trkpt lat="43.4042617" lon="10.8550017"><ele>511.00000000000006</ele><time>2026-04-05T15:33:53.104Z</time></trkpt><trkpt lat="43.4043217" lon="10.855035"><ele>511.0</ele><time>2026-04-05T15:33:56.104Z</time></trkpt><trkpt lat="43.4043983" lon="10.8550117"><ele>511.00000000000006</ele><time>2026-04-05T15:34:35.104Z</time></trkpt><trkpt lat="43.4045233" lon="10.85501"><ele>511.0</ele><time>2026-04-05T15:34:37.104Z</time></trkpt><trkpt lat="43.4045983" lon="10.85501"><ele>511.0</ele><time>2026-04-05T15:34:38.104Z</time></trkpt><trkpt lat="43.40468" lon="10.85502"><ele>511.0</ele><time>2026-04-05T15:34:39.104Z</time></trkpt><trkpt lat="43.40476" lon="10.8550283"><ele>511.00000000000006</ele><time>2026-04-05T15:34:40.104Z</time></trkpt><trkpt lat="43.404845" lon="10.8550417"><ele>511.0</ele><time>2026-04-05T15:34:41.104Z</time></trkpt><trkpt lat="43.40493" lon="10.855055"><ele>510.33333333333337</ele><time>2026-04-05T15:34:42.104Z</time></trkpt><trkpt lat="43.4050133" lon="10.8550567"><ele>509.6666666666667</ele><time>2026-04-05T15:34:43.104Z</time></trkpt><trkpt lat="43.4050967" lon="10.855055"><ele>509.0</ele><time>2026-04-05T15:34:44.104Z</time></trkpt><trkpt lat="43.4051783" lon="10.855065"><ele>508.33333333333337</ele><time>2026-04-05T15:34:45.104Z</time></trkpt><trkpt lat="43.40526" lon="10.855065"><ele>507.6666666666667</ele><time>2026-04-05T15:34:46.104Z</time></trkpt><trkpt lat="43.405345" lon="10.8550267"><ele>507.0</ele><time>2026-04-05T15:34:47.104Z</time></trkpt><trkpt lat="43.4054283" lon="10.8549833"><ele>504.40000000000003</ele><time>2026-04-05T15:34:48.104Z</time></trkpt><trkpt lat="43.405505" lon="10.854925"><ele>501.80000000000007</ele><time>2026-04-05T15:34:49.104Z</time></trkpt><trkpt lat="43.4055867" lon="10.85486"><ele>499.2</ele><time>2026-04-05T15:34:50.104Z</time></trkpt><trkpt lat="43.40567" lon="10.8547833"><ele>496.6</ele><time>2026-04-05T15:34:51.104Z</time></trkpt><trkpt lat="43.4057583" lon="10.8546983"><ele>494.0</ele><time>2026-04-05T15:34:52.104Z</time></trkpt><trkpt lat="43.4058517" lon="10.85461"><ele>494.0</ele><time>2026-04-05T15:34:53.104Z</time></trkpt><trkpt lat="43.4059417" lon="10.8545183"><ele>494.0</ele><time>2026-04-05T15:34:54.104Z</time></trkpt><trkpt lat="43.4060317" lon="10.8544317"><ele>494.0</ele><time>2026-04-05T15:34:55.104Z</time></trkpt><trkpt lat="43.4061183" lon="10.85435"><ele>494.0</ele><time>2026-04-05T15:34:56.104Z</time></trkpt><trkpt lat="43.4062033" lon="10.8542667"><ele>494.0</ele><time>2026-04-05T15:34:57.104Z</time></trkpt><trkpt lat="43.4062933" lon="10.8542"><ele>492.0</ele><time>2026-04-05T15:34:58.103Z</time></trkpt><trkpt lat="43.4063833" lon="10.8541267"><ele>490.0</ele><time>2026-04-05T15:34:59.104Z</time></trkpt><trkpt lat="43.4064817" lon="10.854065"><ele>488.0</ele><time>2026-04-05T15:35:00.104Z</time></trkpt><trkpt lat="43.4065867" lon="10.8540183"><ele>486.0</ele><time>2026-04-05T15:35:01.104Z</time></trkpt><trkpt lat="43.4066967" lon="10.853975"><ele>484.0</ele><time>2026-04-05T15:35:02.103Z</time></trkpt><trkpt lat="43.406805" lon="10.85394"><ele>484.0</ele><time>2026-04-05T15:35:03.103Z</time></trkpt><trkpt lat="43.4069167" lon="10.853905"><ele>484.0</ele><time>2026-04-05T15:35:04.104Z</time></trkpt><trkpt lat="43.4070283" lon="10.85387"><ele>484.0</ele><time>2026-04-05T15:35:05.104Z</time></trkpt><trkpt lat="43.4071417" lon="10.8538367"><ele>484.0</ele><time>2026-04-05T15:35:06.104Z</time></trkpt><trkpt lat="43.4072533" lon="10.8538017"><ele>482.75</ele><time>2026-04-05T15:35:07.104Z</time></trkpt><trkpt lat="43.4073667" lon="10.8537633"><ele>481.5</ele><time>2026-04-05T15:35:08.103Z</time></trkpt><trkpt lat="43.4074783" lon="10.853725"><ele>480.25</ele><time>2026-04-05T15:35:09.104Z</time></trkpt><trkpt lat="43.4075883" lon="10.8536883"><ele>479.0</ele><time>2026-04-05T15:35:10.104Z</time></trkpt><trkpt lat="43.4076983" lon="10.8536533"><ele>479.0</ele><time>2026-04-05T15:35:11.104Z</time></trkpt><trkpt lat="43.407805" lon="10.8536217"><ele>479.0</ele><time>2026-04-05T15:35:12.104Z</time></trkpt><trkpt lat="43.4079017" lon="10.85359"><ele>479.0</ele><time>2026-04-05T15:35:13.104Z</time></trkpt><trkpt lat="43.4079933" lon="10.85355"><ele>479.0</ele><time>2026-04-05T15:35:14.104Z</time></trkpt><trkpt lat="43.4080767" lon="10.853495"><ele>479.0</ele><time>2026-04-05T15:35:15.104Z</time></trkpt><trkpt lat="43.4081533" lon="10.8534267"><ele>477.99999999999994</ele><time>2026-04-05T15:35:16.104Z</time></trkpt><trkpt lat="43.4082167" lon="10.8533483"><ele>477.0</ele><time>2026-04-05T15:35:17.104Z</time></trkpt><trkpt lat="43.4082717" lon="10.8532733"><ele>476.0</ele><time>2026-04-05T15:35:18.104Z</time></trkpt><trkpt lat="43.4083167" lon="10.8531967"><ele>475.0</ele><time>2026-04-05T15:35:19.104Z</time></trkpt><trkpt lat="43.4083567" lon="10.8531267"><ele>473.99999999999994</ele><time>2026-04-05T15:35:20.104Z</time></trkpt><trkpt lat="43.4084267" lon="10.8530167"><ele>473.0</ele><time>2026-04-05T15:35:22.104Z</time></trkpt><trkpt lat="43.4085183" lon="10.85291"><ele>473.0</ele><time>2026-04-05T15:35:24.104Z</time></trkpt><trkpt lat="43.4085567" lon="10.852835"><ele>473.0</ele><time>2026-04-05T15:35:25.104Z</time></trkpt><trkpt lat="43.4085817" lon="10.85275"><ele>473.0</ele><time>2026-04-05T15:35:26.104Z</time></trkpt><trkpt lat="43.4086083" lon="10.852665"><ele>473.0</ele><time>2026-04-05T15:35:27.103Z</time></trkpt><trkpt lat="43.4086583" lon="10.85259"><ele>473.0</ele><time>2026-04-05T15:35:28.104Z</time></trkpt><trkpt lat="43.4087183" lon="10.852525"><ele>473.0</ele><time>2026-04-05T15:35:29.104Z</time></trkpt><trkpt lat="43.40879" lon="10.8524617"><ele>473.0</ele><time>2026-04-05T15:35:30.104Z</time></trkpt><trkpt lat="43.4088717" lon="10.852405"><ele>469.79999999999995</ele><time>2026-04-05T15:35:31.104Z</time></trkpt><trkpt lat="43.4089617" lon="10.8523567"><ele>466.59999999999997</ele><time>2026-04-05T15:35:32.104Z</time></trkpt><trkpt lat="43.4090567" lon="10.8523183"><ele>463.40000000000003</ele><time>2026-04-05T15:35:33.104Z</time></trkpt><trkpt lat="43.4091567" lon="10.8522867"><ele>460.20000000000005</ele><time>2026-04-05T15:35:34.104Z</time></trkpt><trkpt lat="43.409265" lon="10.8522583"><ele>457.0</ele><time>2026-04-05T15:35:35.104Z</time></trkpt><trkpt lat="43.4093767" lon="10.8522283"><ele>457.0</ele><time>2026-04-05T15:35:36.104Z</time></trkpt><trkpt lat="43.40949" lon="10.8521967"><ele>457.0</ele><time>2026-04-05T15:35:37.104Z</time></trkpt><trkpt lat="43.4096033" lon="10.8521683"><ele>457.0</ele><time>2026-04-05T15:35:38.104Z</time></trkpt><trkpt lat="43.4097217" lon="10.8521433"><ele>457.0</ele><time>2026-04-05T15:35:39.104Z</time></trkpt><trkpt lat="43.4098467" lon="10.8521217"><ele>453.75</ele><time>2026-04-05T15:35:40.104Z</time></trkpt><trkpt lat="43.4099717" lon="10.8520983"><ele>450.5</ele><time>2026-04-05T15:35:41.104Z</time></trkpt><trkpt lat="43.4100983" lon="10.8520817"><ele>447.25</ele><time>2026-04-05T15:35:42.104Z</time></trkpt><trkpt lat="43.410225" lon="10.852075"><ele>444.0</ele><time>2026-04-05T15:35:43.104Z</time></trkpt><trkpt lat="43.4103483" lon="10.852075"><ele>444.0</ele><time>2026-04-05T15:35:44.104Z</time></trkpt><trkpt lat="43.41047" lon="10.8520783"><ele>444.0</ele><time>2026-04-05T15:35:45.103Z</time></trkpt><trkpt lat="43.4105933" lon="10.8520833"><ele>444.0</ele><time>2026-04-05T15:35:46.104Z</time></trkpt><trkpt lat="43.4107117" lon="10.8520883"><ele>444.0</ele><time>2026-04-05T15:35:47.104Z</time></trkpt><trkpt lat="43.4108267" lon="10.852095"><ele>442.75</ele><time>2026-04-05T15:35:48.104Z</time></trkpt><trkpt lat="43.4109417" lon="10.8521033"><ele>441.5</ele><time>2026-04-05T15:35:49.104Z</time></trkpt><trkpt lat="43.4110567" lon="10.8521083"><ele>440.25</ele><time>2026-04-05T15:35:50.104Z</time></trkpt><trkpt lat="43.41117" lon="10.8521083"><ele>439.0</ele><time>2026-04-05T15:35:51.104Z</time></trkpt><trkpt lat="43.411285" lon="10.8520983"><ele>437.4</ele><time>2026-04-05T15:35:52.104Z</time></trkpt><trkpt lat="43.4113967" lon="10.8520733"><ele>435.79999999999995</ele><time>2026-04-05T15:35:53.104Z</time></trkpt><trkpt lat="43.4115033" lon="10.85203"><ele>434.20000000000005</ele><time>2026-04-05T15:35:54.104Z</time></trkpt><trkpt lat="43.4116067" lon="10.8519767"><ele>432.6</ele><time>2026-04-05T15:35:55.104Z</time></trkpt><trkpt lat="43.4117067" lon="10.8519167"><ele>431.0</ele><time>2026-04-05T15:35:56.104Z</time></trkpt><trkpt lat="43.4118083" lon="10.8518567"><ele>431.0</ele><time>2026-04-05T15:35:57.104Z</time></trkpt><trkpt lat="43.4119117" lon="10.8517933"><ele>431.0</ele><time>2026-04-05T15:35:58.104Z</time></trkpt><trkpt lat="43.4120183" lon="10.85173"><ele>431.0</ele><time>2026-04-05T15:35:59.104Z</time></trkpt><trkpt lat="43.41213" lon="10.85169"><ele>431.0</ele><time>2026-04-05T15:36:00.104Z</time></trkpt><trkpt lat="43.4122417" lon="10.851695"><ele>430.0</ele><time>2026-04-05T15:36:01.104Z</time></trkpt><trkpt lat="43.4123467" lon="10.8517433"><ele>429.0</ele><time>2026-04-05T15:36:02.104Z</time></trkpt><trkpt lat="43.412445" lon="10.8518067"><ele>428.0</ele><time>2026-04-05T15:36:03.104Z</time></trkpt><trkpt lat="43.4125467" lon="10.8518717"><ele>427.0</ele><time>2026-04-05T15:36:04.104Z</time></trkpt><trkpt lat="43.412645" lon="10.8519467"><ele>426.0</ele><time>2026-04-05T15:36:05.104Z</time></trkpt><trkpt lat="43.412735" lon="10.8520433"><ele>426.0</ele><time>2026-04-05T15:36:06.104Z</time></trkpt><trkpt lat="43.412815" lon="10.85216"><ele>426.0</ele><time>2026-04-05T15:36:07.104Z</time></trkpt><trkpt lat="43.412895" lon="10.852285"><ele>426.0</ele><time>2026-04-05T15:36:08.104Z</time></trkpt><trkpt lat="43.4129733" lon="10.852415"><ele>426.0</ele><time>2026-04-05T15:36:09.104Z</time></trkpt><trkpt lat="43.4130517" lon="10.8525433"><ele>426.0</ele><time>2026-04-05T15:36:10.104Z</time></trkpt><trkpt lat="43.4131317" lon="10.8526733"><ele>426.0</ele><time>2026-04-05T15:36:11.104Z</time></trkpt><trkpt lat="43.41321" lon="10.8527983"><ele>426.0</ele><time>2026-04-05T15:36:12.104Z</time></trkpt><trkpt lat="43.4132883" lon="10.85292"><ele>426.0</ele><time>2026-04-05T15:36:13.104Z</time></trkpt><trkpt lat="43.413385" lon="10.853"><ele>426.0</ele><time>2026-04-05T15:36:14.104Z</time></trkpt><trkpt lat="43.4134917" lon="10.853035"><ele>426.0</ele><time>2026-04-05T15:36:15.104Z</time></trkpt><trkpt lat="43.413595" lon="10.8530183"><ele>426.0</ele><time>2026-04-05T15:36:16.104Z</time></trkpt><trkpt lat="43.413685" lon="10.8529567"><ele>426.0</ele><time>2026-04-05T15:36:17.104Z</time></trkpt><trkpt lat="43.413765" lon="10.85288"><ele>426.0</ele><time>2026-04-05T15:36:18.103Z</time></trkpt><trkpt lat="43.4138333" lon="10.8527833"><ele>426.5</ele><time>2026-04-05T15:36:19.104Z</time></trkpt><trkpt lat="43.413905" lon="10.8526517"><ele>427.0</ele><time>2026-04-05T15:36:20.104Z</time></trkpt><trkpt lat="43.4139633" lon="10.85252"><ele>427.5</ele><time>2026-04-05T15:36:21.104Z</time></trkpt><trkpt lat="43.414015" lon="10.8523817"><ele>428.0</ele><time>2026-04-05T15:36:22.104Z</time></trkpt><trkpt lat="43.4140633" lon="10.8522383"><ele>428.0</ele><time>2026-04-05T15:36:23.104Z</time></trkpt><trkpt lat="43.4141133" lon="10.8520867"><ele>428.0</ele><time>2026-04-05T15:36:24.104Z</time></trkpt><trkpt lat="43.4141617" lon="10.851925"><ele>428.0</ele><time>2026-04-05T15:36:25.104Z</time></trkpt><trkpt lat="43.4142033" lon="10.8517617"><ele>428.0</ele><time>2026-04-05T15:36:26.104Z</time></trkpt><trkpt lat="43.4142467" lon="10.8516033"><ele>429.25</ele><time>2026-04-05T15:36:27.104Z</time></trkpt><trkpt lat="43.414305" lon="10.851455"><ele>430.5</ele><time>2026-04-05T15:36:28.104Z</time></trkpt><trkpt lat="43.4143883" lon="10.851325"><ele>431.75</ele><time>2026-04-05T15:36:29.104Z</time></trkpt><trkpt lat="43.4144833" lon="10.8512283"><ele>433.0</ele><time>2026-04-05T15:36:30.104Z</time></trkpt><trkpt lat="43.414585" lon="10.85116"><ele>427.25</ele><time>2026-04-05T15:36:31.103Z</time></trkpt><trkpt lat="43.4146967" lon="10.8511183"><ele>421.5</ele><time>2026-04-05T15:36:32.104Z</time></trkpt><trkpt lat="43.4148167" lon="10.8511083"><ele>415.75</ele><time>2026-04-05T15:36:33.104Z</time></trkpt><trkpt lat="43.4149367" lon="10.8511333"><ele>410.0</ele><time>2026-04-05T15:36:34.104Z</time></trkpt><trkpt lat="43.4150517" lon="10.85119"><ele>410.0</ele><time>2026-04-05T15:36:35.104Z</time></trkpt><trkpt lat="43.415155" lon="10.85127"><ele>410.0</ele><time>2026-04-05T15:36:36.104Z</time></trkpt><trkpt lat="43.4152517" lon="10.8513683"><ele>410.0</ele><time>2026-04-05T15:36:37.104Z</time></trkpt><trkpt lat="43.41535" lon="10.85146"><ele>410.0</ele><time>2026-04-05T15:36:38.104Z</time></trkpt><trkpt lat="43.41545" lon="10.85155"><ele>411.75</ele><time>2026-04-05T15:36:39.104Z</time></trkpt><trkpt lat="43.4155517" lon="10.8516367"><ele>413.5</ele><time>2026-04-05T15:36:40.104Z</time></trkpt><trkpt lat="43.41565" lon="10.8517217"><ele>415.25</ele><time>2026-04-05T15:36:41.104Z</time></trkpt><trkpt lat="43.415745" lon="10.8518167"><ele>417.0</ele><time>2026-04-05T15:36:42.104Z</time></trkpt><trkpt lat="43.4158367" lon="10.851925"><ele>413.5</ele><time>2026-04-05T15:36:43.104Z</time></trkpt><trkpt lat="43.415925" lon="10.852035"><ele>410.0</ele><time>2026-04-05T15:36:44.104Z</time></trkpt><trkpt lat="43.4160067" lon="10.8521517"><ele>406.5</ele><time>2026-04-05T15:36:45.104Z</time></trkpt><trkpt lat="43.4160817" lon="10.8522733"><ele>403.0</ele><time>2026-04-05T15:36:46.104Z</time></trkpt><trkpt lat="43.4161533" lon="10.8523983"><ele>403.0</ele><time>2026-04-05T15:36:47.104Z</time></trkpt><trkpt lat="43.416225" lon="10.8525217"><ele>403.0</ele><time>2026-04-05T15:36:48.104Z</time></trkpt><trkpt lat="43.4162933" lon="10.8526467"><ele>403.0</ele><time>2026-04-05T15:36:49.103Z</time></trkpt><trkpt lat="43.4163683" lon="10.852765"><ele>403.0</ele><time>2026-04-05T15:36:50.104Z</time></trkpt><trkpt lat="43.4164533" lon="10.8528667"><ele>403.0</ele><time>2026-04-05T15:36:51.104Z</time></trkpt><trkpt lat="43.41655" lon="10.8529483"><ele>403.0</ele><time>2026-04-05T15:36:52.103Z</time></trkpt><trkpt lat="43.4166417" lon="10.853025"><ele>403.0</ele><time>2026-04-05T15:36:53.104Z</time></trkpt><trkpt lat="43.41673" lon="10.8531067"><ele>403.0</ele><time>2026-04-05T15:36:54.104Z</time></trkpt><trkpt lat="43.4168033" lon="10.853205"><ele>403.0</ele><time>2026-04-05T15:36:55.104Z</time></trkpt><trkpt lat="43.4168517" lon="10.853325"><ele>403.0</ele><time>2026-04-05T15:36:56.104Z</time></trkpt><trkpt lat="43.4168783" lon="10.853455"><ele>403.0</ele><time>2026-04-05T15:36:57.104Z</time></trkpt><trkpt lat="43.416895" lon="10.8535933"><ele>403.0</ele><time>2026-04-05T15:36:58.104Z</time></trkpt><trkpt lat="43.4168983" lon="10.8537417"><ele>403.0</ele><time>2026-04-05T15:36:59.104Z</time></trkpt><trkpt lat="43.4168983" lon="10.8539"><ele>403.0</ele><time>2026-04-05T15:37:00.104Z</time></trkpt><trkpt lat="43.416915" lon="10.8540583"><ele>397.5</ele><time>2026-04-05T15:37:01.104Z</time></trkpt><trkpt lat="43.4169483" lon="10.85422"><ele>392.0</ele><time>2026-04-05T15:37:02.104Z</time></trkpt><trkpt lat="43.4169917" lon="10.8543767"><ele>386.5</ele><time>2026-04-05T15:37:03.104Z</time></trkpt><trkpt lat="43.4170383" lon="10.854535"><ele>381.0</ele><time>2026-04-05T15:37:04.104Z</time></trkpt><trkpt lat="43.417085" lon="10.8547"><ele>381.25</ele><time>2026-04-05T15:37:05.104Z</time></trkpt><trkpt lat="43.41713" lon="10.8548683"><ele>381.5</ele><time>2026-04-05T15:37:06.104Z</time></trkpt><trkpt lat="43.41717" lon="10.855045"><ele>381.75</ele><time>2026-04-05T15:37:07.104Z</time></trkpt><trkpt lat="43.417205" lon="10.8552283"><ele>382.0</ele><time>2026-04-05T15:37:08.104Z</time></trkpt><trkpt lat="43.4172283" lon="10.855415"><ele>382.0</ele><time>2026-04-05T15:37:09.104Z</time></trkpt><trkpt lat="43.4172483" lon="10.8556"><ele>382.0</ele><time>2026-04-05T15:37:10.104Z</time></trkpt><trkpt lat="43.4172633" lon="10.8557833"><ele>382.0</ele><time>2026-04-05T15:37:11.103Z</time></trkpt><trkpt lat="43.4172717" lon="10.855965"><ele>382.0</ele><time>2026-04-05T15:37:12.103Z</time></trkpt><trkpt lat="43.4172767" lon="10.8561467"><ele>378.75</ele><time>2026-04-05T15:37:13.104Z</time></trkpt><trkpt lat="43.417285" lon="10.8563267"><ele>375.5</ele><time>2026-04-05T15:37:14.103Z</time></trkpt><trkpt lat="43.4173117" lon="10.8564983"><ele>372.25</ele><time>2026-04-05T15:37:15.103Z</time></trkpt><trkpt lat="43.417365" lon="10.856655"><ele>369.0</ele><time>2026-04-05T15:37:16.104Z</time></trkpt><trkpt lat="43.4174467" lon="10.85679"><ele>369.0</ele><time>2026-04-05T15:37:17.104Z</time></trkpt><trkpt lat="43.4175483" lon="10.8568867"><ele>369.0</ele><time>2026-04-05T15:37:18.104Z</time></trkpt><trkpt lat="43.417645" lon="10.8569183"><ele>369.0</ele><time>2026-04-05T15:37:19.104Z</time></trkpt><trkpt lat="43.4177367" lon="10.8569"><ele>369.0</ele><time>2026-04-05T15:37:20.104Z</time></trkpt><trkpt lat="43.4178033" lon="10.856845"><ele>369.0</ele><time>2026-04-05T15:37:21.104Z</time></trkpt><trkpt lat="43.4178383" lon="10.8567633"><ele>369.0</ele><time>2026-04-05T15:37:22.104Z</time></trkpt><trkpt lat="43.4178467" lon="10.8566617"><ele>369.0</ele><time>2026-04-05T15:37:23.104Z</time></trkpt><trkpt lat="43.4178583" lon="10.8565383"><ele>369.0</ele><time>2026-04-05T15:37:24.104Z</time></trkpt><trkpt lat="43.4178867" lon="10.85639"><ele>369.0</ele><time>2026-04-05T15:37:25.104Z</time></trkpt><trkpt lat="43.4179367" lon="10.8562267"><ele>369.0</ele><time>2026-04-05T15:37:26.104Z</time></trkpt><trkpt lat="43.4179983" lon="10.8560883"><ele>369.0</ele><time>2026-04-05T15:37:27.104Z</time></trkpt><trkpt lat="43.4180667" lon="10.855965"><ele>369.0</ele><time>2026-04-05T15:37:28.104Z</time></trkpt><trkpt lat="43.41818" lon="10.8558933"><ele>369.0</ele><time>2026-04-05T15:37:29.104Z</time></trkpt><trkpt lat="43.4182933" lon="10.8558433"><ele>369.0</ele><time>2026-04-05T15:37:30.104Z</time></trkpt><trkpt lat="43.4183933" lon="10.855785"><ele>369.0</ele><time>2026-04-05T15:37:31.104Z</time></trkpt><trkpt lat="43.4184883" lon="10.8556983"><ele>369.0</ele><time>2026-04-05T15:37:32.104Z</time></trkpt><trkpt lat="43.4185617" lon="10.85558"><ele>369.0</ele><time>2026-04-05T15:37:33.104Z</time></trkpt><trkpt lat="43.4186" lon="10.8554367"><ele>369.0</ele><time>2026-04-05T15:37:34.104Z</time></trkpt><trkpt lat="43.4186067" lon="10.8552783"><ele>371.0</ele><time>2026-04-05T15:37:35.104Z</time></trkpt><trkpt lat="43.4186133" lon="10.8551183"><ele>373.0</ele><time>2026-04-05T15:37:36.104Z</time></trkpt><trkpt lat="43.4186117" lon="10.85496"><ele>375.0</ele><time>2026-04-05T15:37:37.104Z</time></trkpt><trkpt lat="43.4186117" lon="10.8548"><ele>377.0</ele><time>2026-04-05T15:37:38.104Z</time></trkpt><trkpt lat="43.4186183" lon="10.8546367"><ele>377.0</ele><time>2026-04-05T15:37:39.104Z</time></trkpt><trkpt lat="43.4186283" lon="10.854475"><ele>377.0</ele><time>2026-04-05T15:37:40.104Z</time></trkpt><trkpt lat="43.418645" lon="10.8543183"><ele>377.0</ele><time>2026-04-05T15:37:41.104Z</time></trkpt><trkpt lat="43.41866" lon="10.8541667"><ele>377.0</ele><time>2026-04-05T15:37:42.104Z</time></trkpt><trkpt lat="43.4186817" lon="10.8540183"><ele>377.0</ele><time>2026-04-05T15:37:43.104Z</time></trkpt><trkpt lat="43.4187067" lon="10.853875"><ele>377.0</ele><time>2026-04-05T15:37:44.104Z</time></trkpt><trkpt lat="43.418745" lon="10.85374"><ele>377.0</ele><time>2026-04-05T15:37:45.104Z</time></trkpt><trkpt lat="43.4187867" lon="10.853605"><ele>377.0</ele><time>2026-04-05T15:37:46.104Z</time></trkpt><trkpt lat="43.4188167" lon="10.8534683"><ele>377.0</ele><time>2026-04-05T15:37:47.104Z</time></trkpt><trkpt lat="43.4188383" lon="10.8533267"><ele>377.0</ele><time>2026-04-05T15:37:48.104Z</time></trkpt><trkpt lat="43.4188333" lon="10.8531717"><ele>377.0</ele><time>2026-04-05T15:37:49.104Z</time></trkpt><trkpt lat="43.4188133" lon="10.8530117"><ele>377.0</ele><time>2026-04-05T15:37:50.104Z</time></trkpt><trkpt lat="43.4187833" lon="10.85285"><ele>377.0</ele><time>2026-04-05T15:37:51.104Z</time></trkpt><trkpt lat="43.41874" lon="10.85269"><ele>374.0</ele><time>2026-04-05T15:37:52.104Z</time></trkpt><trkpt lat="43.4186983" lon="10.8525367"><ele>371.0</ele><time>2026-04-05T15:37:53.104Z</time></trkpt><trkpt lat="43.4186483" lon="10.85239"><ele>368.0</ele><time>2026-04-05T15:37:54.104Z</time></trkpt><trkpt lat="43.4185917" lon="10.8522417"><ele>365.0</ele><time>2026-04-05T15:37:55.104Z</time></trkpt><trkpt lat="43.4185383" lon="10.8520933"><ele>365.0</ele><time>2026-04-05T15:37:56.104Z</time></trkpt><trkpt lat="43.418485" lon="10.8519467"><ele>365.0</ele><time>2026-04-05T15:37:57.104Z</time></trkpt><trkpt lat="43.4184367" lon="10.851805"><ele>365.0</ele><time>2026-04-05T15:37:58.104Z</time></trkpt><trkpt lat="43.418415" lon="10.8516483"><ele>365.0</ele><time>2026-04-05T15:37:59.104Z</time></trkpt><trkpt lat="43.418405" lon="10.8514833"><ele>363.75</ele><time>2026-04-05T15:38:00.104Z</time></trkpt><trkpt lat="43.41841" lon="10.851315"><ele>362.5</ele><time>2026-04-05T15:38:01.104Z</time></trkpt><trkpt lat="43.418425" lon="10.8511417"><ele>361.25</ele><time>2026-04-05T15:38:02.104Z</time></trkpt><trkpt lat="43.4184367" lon="10.8509667"><ele>360.0</ele><time>2026-04-05T15:38:03.104Z</time></trkpt><trkpt lat="43.4184433" lon="10.8507867"><ele>358.75</ele><time>2026-04-05T15:38:04.103Z</time></trkpt><trkpt lat="43.41844" lon="10.8506"><ele>357.5</ele><time>2026-04-05T15:38:05.104Z</time></trkpt><trkpt lat="43.4184267" lon="10.850415"><ele>356.25</ele><time>2026-04-05T15:38:06.103Z</time></trkpt><trkpt lat="43.4183983" lon="10.8502333"><ele>355.0</ele><time>2026-04-05T15:38:07.103Z</time></trkpt><trkpt lat="43.4183733" lon="10.8500467"><ele>352.75</ele><time>2026-04-05T15:38:08.104Z</time></trkpt><trkpt lat="43.41836" lon="10.8498567"><ele>350.5</ele><time>2026-04-05T15:38:09.104Z</time></trkpt><trkpt lat="43.4183667" lon="10.8496683"><ele>348.25</ele><time>2026-04-05T15:38:10.104Z</time></trkpt><trkpt lat="43.4183733" lon="10.8494867"><ele>346.0</ele><time>2026-04-05T15:38:11.104Z</time></trkpt><trkpt lat="43.4183667" lon="10.8493133"><ele>343.75</ele><time>2026-04-05T15:38:12.104Z</time></trkpt><trkpt lat="43.4183317" lon="10.8491483"><ele>341.5</ele><time>2026-04-05T15:38:13.104Z</time></trkpt><trkpt lat="43.4182683" lon="10.849"><ele>339.25</ele><time>2026-04-05T15:38:14.104Z</time></trkpt><trkpt lat="43.4181917" lon="10.8488683"><ele>337.0</ele><time>2026-04-05T15:38:15.104Z</time></trkpt><trkpt lat="43.4181217" lon="10.848735"><ele>337.0</ele><time>2026-04-05T15:38:16.104Z</time></trkpt><trkpt lat="43.4180617" lon="10.8486"><ele>337.0</ele><time>2026-04-05T15:38:17.104Z</time></trkpt><trkpt lat="43.418015" lon="10.848455"><ele>337.0</ele><time>2026-04-05T15:38:18.104Z</time></trkpt><trkpt lat="43.4179867" lon="10.8483"><ele>337.0</ele><time>2026-04-05T15:38:19.103Z</time></trkpt><trkpt lat="43.41797" lon="10.8481417"><ele>337.75</ele><time>2026-04-05T15:38:20.104Z</time></trkpt><trkpt lat="43.417955" lon="10.8479817"><ele>338.5</ele><time>2026-04-05T15:38:21.104Z</time></trkpt><trkpt lat="43.417945" lon="10.847815"><ele>339.25</ele><time>2026-04-05T15:38:22.104Z</time></trkpt><trkpt lat="43.41794" lon="10.8476483"><ele>340.0</ele><time>2026-04-05T15:38:23.104Z</time></trkpt><trkpt lat="43.4179583" lon="10.8474883"><ele>333.25</ele><time>2026-04-05T15:38:24.104Z</time></trkpt><trkpt lat="43.4179967" lon="10.847335"><ele>326.5</ele><time>2026-04-05T15:38:25.103Z</time></trkpt><trkpt lat="43.4180683" lon="10.8471983"><ele>319.75</ele><time>2026-04-05T15:38:26.104Z</time></trkpt><trkpt lat="43.418165" lon="10.8470867"><ele>313.0</ele><time>2026-04-05T15:38:27.104Z</time></trkpt><trkpt lat="43.41826" lon="10.84698"><ele>313.0</ele><time>2026-04-05T15:38:28.104Z</time></trkpt><trkpt lat="43.4183333" lon="10.8468717"><ele>313.0</ele><time>2026-04-05T15:38:29.104Z</time></trkpt><trkpt lat="43.4183733" lon="10.8467483"><ele>313.0</ele><time>2026-04-05T15:38:30.104Z</time></trkpt><trkpt lat="43.41838" lon="10.84662"><ele>313.0</ele><time>2026-04-05T15:38:31.104Z</time></trkpt><trkpt lat="43.418385" lon="10.8464883"><ele>313.0</ele><time>2026-04-05T15:38:32.104Z</time></trkpt><trkpt lat="43.4184033" lon="10.8463617"><ele>313.0</ele><time>2026-04-05T15:38:33.104Z</time></trkpt><trkpt lat="43.41845" lon="10.846245"><ele>313.0</ele><time>2026-04-05T15:38:34.104Z</time></trkpt><trkpt lat="43.4185017" lon="10.84614"><ele>313.0</ele><time>2026-04-05T15:38:35.104Z</time></trkpt><trkpt lat="43.4185467" lon="10.846025"><ele>313.0</ele><time>2026-04-05T15:38:36.104Z</time></trkpt><trkpt lat="43.4185767" lon="10.8458967"><ele>313.0</ele><time>2026-04-05T15:38:37.104Z</time></trkpt><trkpt lat="43.4186017" lon="10.8457617"><ele>311.0</ele><time>2026-04-05T15:38:38.104Z</time></trkpt><trkpt lat="43.4186233" lon="10.84562"><ele>309.0</ele><time>2026-04-05T15:38:39.104Z</time></trkpt><trkpt lat="43.4186467" lon="10.845475"><ele>307.0</ele><time>2026-04-05T15:38:40.104Z</time></trkpt><trkpt lat="43.41867" lon="10.8453267"><ele>305.0</ele><time>2026-04-05T15:38:41.104Z</time></trkpt><trkpt lat="43.4186967" lon="10.8451783"><ele>303.0</ele><time>2026-04-05T15:38:42.104Z</time></trkpt><trkpt lat="43.418735" lon="10.845035"><ele>301.2</ele><time>2026-04-05T15:38:43.104Z</time></trkpt><trkpt lat="43.4187933" lon="10.8449117"><ele>299.4</ele><time>2026-04-05T15:38:44.103Z</time></trkpt><trkpt lat="43.4188733" lon="10.8448067"><ele>297.59999999999997</ele><time>2026-04-05T15:38:45.104Z</time></trkpt><trkpt lat="43.418965" lon="10.8447133"><ele>295.8</ele><time>2026-04-05T15:38:46.104Z</time></trkpt><trkpt lat="43.4190633" lon="10.8446267"><ele>294.0</ele><time>2026-04-05T15:38:47.104Z</time></trkpt><trkpt lat="43.419165" lon="10.8445367"><ele>294.0</ele><time>2026-04-05T15:38:48.104Z</time></trkpt><trkpt lat="43.41927" lon="10.8444467"><ele>294.0</ele><time>2026-04-05T15:38:49.104Z</time></trkpt><trkpt lat="43.419375" lon="10.84436"><ele>294.0</ele><time>2026-04-05T15:38:50.104Z</time></trkpt><trkpt lat="43.4194783" lon="10.8442733"><ele>294.0</ele><time>2026-04-05T15:38:51.104Z</time></trkpt><trkpt lat="43.419585" lon="10.844195"><ele>293.0</ele><time>2026-04-05T15:38:52.104Z</time></trkpt><trkpt lat="43.4196917" lon="10.8441317"><ele>292.0</ele><time>2026-04-05T15:38:53.104Z</time></trkpt><trkpt lat="43.4198" lon="10.844085"><ele>291.0</ele><time>2026-04-05T15:38:54.104Z</time></trkpt><trkpt lat="43.41991" lon="10.84404"><ele>290.0</ele><time>2026-04-05T15:38:55.103Z</time></trkpt><trkpt lat="43.420015" lon="10.8439783"><ele>290.0</ele><time>2026-04-05T15:38:56.104Z</time></trkpt><trkpt lat="43.4201117" lon="10.8439"><ele>290.0</ele><time>2026-04-05T15:38:57.103Z</time></trkpt><trkpt lat="43.420195" lon="10.8437933"><ele>290.0</ele><time>2026-04-05T15:38:58.104Z</time></trkpt><trkpt lat="43.42027" lon="10.8436783"><ele>290.0</ele><time>2026-04-05T15:38:59.104Z</time></trkpt><trkpt lat="43.42033" lon="10.84355"><ele>290.0</ele><time>2026-04-05T15:39:00.104Z</time></trkpt><trkpt lat="43.4203717" lon="10.843405"><ele>291.6</ele><time>2026-04-05T15:39:01.104Z</time></trkpt><trkpt lat="43.4204067" lon="10.8432517"><ele>293.2</ele><time>2026-04-05T15:39:02.104Z</time></trkpt><trkpt lat="43.4204317" lon="10.8431033"><ele>294.8</ele><time>2026-04-05T15:39:03.104Z</time></trkpt><trkpt lat="43.4204517" lon="10.8429567"><ele>296.4</ele><time>2026-04-05T15:39:04.104Z</time></trkpt><trkpt lat="43.4204633" lon="10.842805"><ele>298.0</ele><time>2026-04-05T15:39:05.104Z</time></trkpt><trkpt lat="43.420465" lon="10.8426467"><ele>296.5</ele><time>2026-04-05T15:39:06.104Z</time></trkpt><trkpt lat="43.42046" lon="10.84249"><ele>295.0</ele><time>2026-04-05T15:39:07.104Z</time></trkpt><trkpt lat="43.4204483" lon="10.8423267"><ele>293.5</ele><time>2026-04-05T15:39:08.104Z</time></trkpt><trkpt lat="43.4204433" lon="10.84216"><ele>292.0</ele><time>2026-04-05T15:39:09.104Z</time></trkpt><trkpt lat="43.420455" lon="10.8419917"><ele>289.25</ele><time>2026-04-05T15:39:10.103Z</time></trkpt><trkpt lat="43.4204917" lon="10.84183"><ele>286.5</ele><time>2026-04-05T15:39:11.104Z</time></trkpt><trkpt lat="43.4205567" lon="10.841675"><ele>283.75</ele><time>2026-04-05T15:39:12.104Z</time></trkpt><trkpt lat="43.4206383" lon="10.84153"><ele>281.0</ele><time>2026-04-05T15:39:13.104Z</time></trkpt><trkpt lat="43.4207233" lon="10.8413867"><ele>280.25</ele><time>2026-04-05T15:39:14.104Z</time></trkpt><trkpt lat="43.42081" lon="10.8412417"><ele>279.5</ele><time>2026-04-05T15:39:15.104Z</time></trkpt><trkpt lat="43.4208983" lon="10.8411017"><ele>278.75</ele><time>2026-04-05T15:39:16.104Z</time></trkpt><trkpt lat="43.42099" lon="10.840965"><ele>278.0</ele><time>2026-04-05T15:39:17.104Z</time></trkpt><trkpt lat="43.4210883" lon="10.8408383"><ele>276.75</ele><time>2026-04-05T15:39:18.104Z</time></trkpt><trkpt lat="43.4211883" lon="10.8407217"><ele>275.5</ele><time>2026-04-05T15:39:19.104Z</time></trkpt><trkpt lat="43.421295" lon="10.8406167"><ele>274.25</ele><time>2026-04-05T15:39:20.104Z</time></trkpt><trkpt lat="43.4214033" lon="10.8405183"><ele>273.0</ele><time>2026-04-05T15:39:21.104Z</time></trkpt><trkpt lat="43.4215133" lon="10.84042"><ele>272.75</ele><time>2026-04-05T15:39:22.104Z</time></trkpt><trkpt lat="43.4216217" lon="10.840325"><ele>272.5</ele><time>2026-04-05T15:39:23.104Z</time></trkpt><trkpt lat="43.4217317" lon="10.840235"><ele>272.25</ele><time>2026-04-05T15:39:24.104Z</time></trkpt><trkpt lat="43.42185" lon="10.8401567"><ele>272.0</ele><time>2026-04-05T15:39:25.103Z</time></trkpt><trkpt lat="43.4219717" lon="10.840095"><ele>274.25</ele><time>2026-04-05T15:39:26.104Z</time></trkpt><trkpt lat="43.4220933" lon="10.84005"><ele>276.5</ele><time>2026-04-05T15:39:27.104Z</time></trkpt><trkpt lat="43.42222" lon="10.840015"><ele>278.75</ele><time>2026-04-05T15:39:28.104Z</time></trkpt><trkpt lat="43.422345" lon="10.83998"><ele>281.0</ele><time>2026-04-05T15:39:29.104Z</time></trkpt><trkpt lat="43.42247" lon="10.8399467"><ele>281.0</ele><time>2026-04-05T15:39:30.104Z</time></trkpt><trkpt lat="43.422595" lon="10.839925"><ele>281.0</ele><time>2026-04-05T15:39:31.104Z</time></trkpt><trkpt lat="43.4227183" lon="10.8399267"><ele>281.0</ele><time>2026-04-05T15:39:32.104Z</time></trkpt><trkpt lat="43.4228383" lon="10.839955"><ele>281.0</ele><time>2026-04-05T15:39:33.104Z</time></trkpt><trkpt lat="43.4229583" lon="10.8399917"><ele>282.0</ele><time>2026-04-05T15:39:34.103Z</time></trkpt><trkpt lat="43.4230733" lon="10.8400317"><ele>283.0</ele><time>2026-04-05T15:39:35.104Z</time></trkpt><trkpt lat="43.423185" lon="10.84009"><ele>284.0</ele><time>2026-04-05T15:39:36.104Z</time></trkpt><trkpt lat="43.4232917" lon="10.8401567"><ele>285.0</ele><time>2026-04-05T15:39:37.104Z</time></trkpt><trkpt lat="43.4233983" lon="10.84023"><ele>280.75</ele><time>2026-04-05T15:39:38.104Z</time></trkpt><trkpt lat="43.4235017" lon="10.8403133"><ele>276.5</ele><time>2026-04-05T15:39:39.104Z</time></trkpt><trkpt lat="43.4236" lon="10.8404067"><ele>272.25</ele><time>2026-04-05T15:39:40.104Z</time></trkpt><trkpt lat="43.4236933" lon="10.84051"><ele>268.0</ele><time>2026-04-05T15:39:41.104Z</time></trkpt><trkpt lat="43.423795" lon="10.8406017"><ele>271.5</ele><time>2026-04-05T15:39:42.104Z</time></trkpt><trkpt lat="43.4239067" lon="10.8406817"><ele>275.0</ele><time>2026-04-05T15:39:43.104Z</time></trkpt><trkpt lat="43.4240217" lon="10.8407533"><ele>278.5</ele><time>2026-04-05T15:39:44.104Z</time></trkpt><trkpt lat="43.424135" lon="10.8408317"><ele>282.0</ele><time>2026-04-05T15:39:45.104Z</time></trkpt><trkpt lat="43.42424" lon="10.8409317"><ele>277.75</ele><time>2026-04-05T15:39:46.103Z</time></trkpt><trkpt lat="43.42433" lon="10.8410433"><ele>273.5</ele><time>2026-04-05T15:39:47.104Z</time></trkpt><trkpt lat="43.424415" lon="10.84116"><ele>269.25</ele><time>2026-04-05T15:39:48.104Z</time></trkpt><trkpt lat="43.4244967" lon="10.8412783"><ele>265.0</ele><time>2026-04-05T15:39:49.104Z</time></trkpt><trkpt lat="43.4245783" lon="10.8413933"><ele>268.5</ele><time>2026-04-05T15:39:50.104Z</time></trkpt><trkpt lat="43.42466" lon="10.8415067"><ele>272.0</ele><time>2026-04-05T15:39:51.104Z</time></trkpt><trkpt lat="43.4247417" lon="10.841615"><ele>275.5</ele><time>2026-04-05T15:39:52.104Z</time></trkpt><trkpt lat="43.4248267" lon="10.841715"><ele>279.0</ele><time>2026-04-05T15:39:53.104Z</time></trkpt><trkpt lat="43.4249217" lon="10.8417933"><ele>279.0</ele><time>2026-04-05T15:39:54.104Z</time></trkpt><trkpt lat="43.42502" lon="10.8418267"><ele>279.0</ele><time>2026-04-05T15:39:55.104Z</time></trkpt><trkpt lat="43.425125" lon="10.8418183"><ele>279.0</ele><time>2026-04-05T15:39:56.104Z</time></trkpt><trkpt lat="43.4252133" lon="10.84177"><ele>279.0</ele><time>2026-04-05T15:39:57.104Z</time></trkpt><trkpt lat="43.4252933" lon="10.841655"><ele>279.0</ele><time>2026-04-05T15:39:58.103Z</time></trkpt><trkpt lat="43.4253683" lon="10.8415317"><ele>279.0</ele><time>2026-04-05T15:39:59.104Z</time></trkpt><trkpt lat="43.425445" lon="10.8414"><ele>279.0</ele><time>2026-04-05T15:40:00.104Z</time></trkpt><trkpt lat="43.4255267" lon="10.8412633"><ele>279.0</ele><time>2026-04-05T15:40:01.104Z</time></trkpt><trkpt lat="43.4256133" lon="10.84113"><ele>279.0</ele><time>2026-04-05T15:40:02.104Z</time></trkpt><trkpt lat="43.425705" lon="10.8410067"><ele>277.75</ele><time>2026-04-05T15:40:03.104Z</time></trkpt><trkpt lat="43.4258083" lon="10.8408983"><ele>276.5</ele><time>2026-04-05T15:40:04.104Z</time></trkpt><trkpt lat="43.4259233" lon="10.8408067"><ele>275.25</ele><time>2026-04-05T15:40:05.104Z</time></trkpt><trkpt lat="43.4260467" lon="10.84073"><ele>274.0</ele><time>2026-04-05T15:40:06.104Z</time></trkpt><trkpt lat="43.42617" lon="10.8406617"><ele>274.0</ele><time>2026-04-05T15:40:07.104Z</time></trkpt><trkpt lat="43.4262933" lon="10.8405967"><ele>274.0</ele><time>2026-04-05T15:40:08.104Z</time></trkpt><trkpt lat="43.426415" lon="10.8405333"><ele>274.0</ele><time>2026-04-05T15:40:09.104Z</time></trkpt><trkpt lat="43.4265383" lon="10.840465"><ele>274.0</ele><time>2026-04-05T15:40:10.104Z</time></trkpt><trkpt lat="43.426655" lon="10.8403917"><ele>270.75</ele><time>2026-04-05T15:40:11.104Z</time></trkpt><trkpt lat="43.42677" lon="10.840315"><ele>267.5</ele><time>2026-04-05T15:40:12.103Z</time></trkpt><trkpt lat="43.42689" lon="10.8402417"><ele>264.25</ele><time>2026-04-05T15:40:13.103Z</time></trkpt><trkpt lat="43.4270117" lon="10.8401783"><ele>261.0</ele><time>2026-04-05T15:40:14.104Z</time></trkpt><trkpt lat="43.4271383" lon="10.8401383"><ele>260.0</ele><time>2026-04-05T15:40:15.104Z</time></trkpt><trkpt lat="43.42727" lon="10.84013"><ele>259.0</ele><time>2026-04-05T15:40:16.104Z</time></trkpt><trkpt lat="43.427395" lon="10.8401583"><ele>258.0</ele><time>2026-04-05T15:40:17.104Z</time></trkpt><trkpt lat="43.42752" lon="10.840205"><ele>257.0</ele><time>2026-04-05T15:40:18.104Z</time></trkpt><trkpt lat="43.42765" lon="10.8402533"><ele>257.0</ele><time>2026-04-05T15:40:19.104Z</time></trkpt><trkpt lat="43.42778" lon="10.8402967"><ele>257.0</ele><time>2026-04-05T15:40:20.104Z</time></trkpt><trkpt lat="43.4279133" lon="10.8403317"><ele>257.0</ele><time>2026-04-05T15:40:21.104Z</time></trkpt><trkpt lat="43.42805" lon="10.8403617"><ele>257.0</ele><time>2026-04-05T15:40:22.104Z</time></trkpt><trkpt lat="43.4281833" lon="10.8404033"><ele>258.5</ele><time>2026-04-05T15:40:23.104Z</time></trkpt><trkpt lat="43.428315" lon="10.8404617"><ele>260.0</ele><time>2026-04-05T15:40:24.104Z</time></trkpt><trkpt lat="43.42843" lon="10.8405583"><ele>261.5</ele><time>2026-04-05T15:40:25.104Z</time></trkpt><trkpt lat="43.428525" lon="10.84069"><ele>263.0</ele><time>2026-04-05T15:40:26.104Z</time></trkpt><trkpt lat="43.4286" lon="10.8408433"><ele>264.25</ele><time>2026-04-05T15:40:27.104Z</time></trkpt><trkpt lat="43.4286717" lon="10.841005"><ele>265.5</ele><time>2026-04-05T15:40:28.104Z</time></trkpt><trkpt lat="43.4287517" lon="10.8411583"><ele>266.75</ele><time>2026-04-05T15:40:29.104Z</time></trkpt><trkpt lat="43.42884" lon="10.8413117"><ele>268.0</ele><time>2026-04-05T15:40:30.104Z</time></trkpt><trkpt lat="43.42894" lon="10.8414567"><ele>268.0</ele><time>2026-04-05T15:40:31.104Z</time></trkpt><trkpt lat="43.429045" lon="10.8416"><ele>268.0</ele><time>2026-04-05T15:40:32.104Z</time></trkpt><trkpt lat="43.4291583" lon="10.84174"><ele>268.0</ele><time>2026-04-05T15:40:33.104Z</time></trkpt><trkpt lat="43.4292683" lon="10.84188"><ele>268.75</ele><time>2026-04-05T15:40:34.104Z</time></trkpt><trkpt lat="43.429375" lon="10.842025"><ele>269.5</ele><time>2026-04-05T15:40:35.104Z</time></trkpt><trkpt lat="43.42948" lon="10.8421683"><ele>270.25</ele><time>2026-04-05T15:40:36.104Z</time></trkpt><trkpt lat="43.429575" lon="10.8423217"><ele>271.0</ele><time>2026-04-05T15:40:37.104Z</time></trkpt><trkpt lat="43.429655" lon="10.842485"><ele>268.25</ele><time>2026-04-05T15:40:38.104Z</time></trkpt><trkpt lat="43.4297183" lon="10.8426583"><ele>265.5</ele><time>2026-04-05T15:40:39.104Z</time></trkpt><trkpt lat="43.42978" lon="10.84283"><ele>262.75</ele><time>2026-04-05T15:40:40.104Z</time></trkpt><trkpt lat="43.4298533" lon="10.84299"><ele>260.0</ele><time>2026-04-05T15:40:41.103Z</time></trkpt><trkpt lat="43.42994" lon="10.84313"><ele>260.0</ele><time>2026-04-05T15:40:42.104Z</time></trkpt><trkpt lat="43.4300417" lon="10.843245"><ele>260.0</ele><time>2026-04-05T15:40:43.104Z</time></trkpt><trkpt lat="43.4301533" lon="10.84334"><ele>260.0</ele><time>2026-04-05T15:40:44.104Z</time></trkpt><trkpt lat="43.430265" lon="10.8434267"><ele>260.0</ele><time>2026-04-05T15:40:45.104Z</time></trkpt><trkpt lat="43.4303783" lon="10.8435133"><ele>260.5</ele><time>2026-04-05T15:40:46.104Z</time></trkpt><trkpt lat="43.4304883" lon="10.84359"><ele>261.0</ele><time>2026-04-05T15:40:47.104Z</time></trkpt><trkpt lat="43.4306017" lon="10.843655"><ele>261.5</ele><time>2026-04-05T15:40:48.104Z</time></trkpt><trkpt lat="43.43072" lon="10.843695"><ele>262.0</ele><time>2026-04-05T15:40:49.103Z</time></trkpt><trkpt lat="43.4308417" lon="10.8437033"><ele>262.0</ele><time>2026-04-05T15:40:50.104Z</time></trkpt><trkpt lat="43.4309683" lon="10.8436667"><ele>262.0</ele><time>2026-04-05T15:40:51.104Z</time></trkpt><trkpt lat="43.4310883" lon="10.8436183"><ele>262.0</ele><time>2026-04-05T15:40:52.103Z</time></trkpt><trkpt lat="43.4312117" lon="10.8435533"><ele>262.0</ele><time>2026-04-05T15:40:53.103Z</time></trkpt><trkpt lat="43.4313317" lon="10.843475"><ele>260.25</ele><time>2026-04-05T15:40:54.103Z</time></trkpt><trkpt lat="43.4314567" lon="10.8433917"><ele>258.5</ele><time>2026-04-05T15:40:55.103Z</time></trkpt><trkpt lat="43.4315783" lon="10.8433083"><ele>256.75</ele><time>2026-04-05T15:40:56.102Z</time></trkpt><trkpt lat="43.4317" lon="10.843225"><ele>255.0</ele><time>2026-04-05T15:40:57.103Z</time></trkpt><trkpt lat="43.4318233" lon="10.8431417"><ele>255.0</ele><time>2026-04-05T15:40:58.103Z</time></trkpt><trkpt lat="43.43195" lon="10.8430567"><ele>255.0</ele><time>2026-04-05T15:40:59.103Z</time></trkpt><trkpt lat="43.4320767" lon="10.84298"><ele>255.0</ele><time>2026-04-05T15:41:00.103Z</time></trkpt><trkpt lat="43.432205" lon="10.8429217"><ele>255.0</ele><time>2026-04-05T15:41:01.102Z</time></trkpt><trkpt lat="43.432335" lon="10.84289"><ele>252.75</ele><time>2026-04-05T15:41:02.103Z</time></trkpt><trkpt lat="43.4324683" lon="10.842875"><ele>250.5</ele><time>2026-04-05T15:41:03.103Z</time></trkpt><trkpt lat="43.4326017" lon="10.842885"><ele>248.25</ele><time>2026-04-05T15:41:04.103Z</time></trkpt><trkpt lat="43.432735" lon="10.8429233"><ele>246.0</ele><time>2026-04-05T15:41:05.103Z</time></trkpt><trkpt lat="43.4328633" lon="10.842975"><ele>246.5</ele><time>2026-04-05T15:41:06.103Z</time></trkpt><trkpt lat="43.4329933" lon="10.84303"><ele>247.0</ele><time>2026-04-05T15:41:07.103Z</time></trkpt><trkpt lat="43.433125" lon="10.843085"><ele>247.5</ele><time>2026-04-05T15:41:08.102Z</time></trkpt><trkpt lat="43.4332533" lon="10.8431383"><ele>248.0</ele><time>2026-04-05T15:41:09.103Z</time></trkpt><trkpt lat="43.4333833" lon="10.843195"><ele>248.0</ele><time>2026-04-05T15:41:10.103Z</time></trkpt><trkpt lat="43.43351" lon="10.8432533"><ele>248.0</ele><time>2026-04-05T15:41:11.103Z</time></trkpt><trkpt lat="43.4336383" lon="10.84331"><ele>248.0</ele><time>2026-04-05T15:41:12.103Z</time></trkpt><trkpt lat="43.4337717" lon="10.84336"><ele>248.0</ele><time>2026-04-05T15:41:13.103Z</time></trkpt><trkpt lat="43.433905" lon="10.843395"><ele>248.5</ele><time>2026-04-05T15:41:14.103Z</time></trkpt><trkpt lat="43.4340417" lon="10.84342"><ele>249.0</ele><time>2026-04-05T15:41:15.103Z</time></trkpt><trkpt lat="43.4341717" lon="10.84344"><ele>249.5</ele><time>2026-04-05T15:41:16.103Z</time></trkpt><trkpt lat="43.4343" lon="10.8434633"><ele>250.0</ele><time>2026-04-05T15:41:17.103Z</time></trkpt><trkpt lat="43.4344267" lon="10.8434833"><ele>250.5</ele><time>2026-04-05T15:41:18.103Z</time></trkpt><trkpt lat="43.4345517" lon="10.8435083"><ele>251.0</ele><time>2026-04-05T15:41:19.103Z</time></trkpt><trkpt lat="43.4346683" lon="10.84355"><ele>251.5</ele><time>2026-04-05T15:41:20.103Z</time></trkpt><trkpt lat="43.43478" lon="10.8436183"><ele>252.0</ele><time>2026-04-05T15:41:21.103Z</time></trkpt><trkpt lat="43.43488" lon="10.8437017"><ele>252.25</ele><time>2026-04-05T15:41:22.103Z</time></trkpt><trkpt lat="43.434975" lon="10.8437933"><ele>252.5</ele><time>2026-04-05T15:41:23.103Z</time></trkpt><trkpt lat="43.4350733" lon="10.8438833"><ele>252.75</ele><time>2026-04-05T15:41:24.103Z</time></trkpt><trkpt lat="43.435175" lon="10.843965"><ele>253.0</ele><time>2026-04-05T15:41:25.103Z</time></trkpt><trkpt lat="43.4352783" lon="10.844035"><ele>253.0</ele><time>2026-04-05T15:41:26.103Z</time></trkpt><trkpt lat="43.4353883" lon="10.8440917"><ele>253.0</ele><time>2026-04-05T15:41:27.102Z</time></trkpt><trkpt lat="43.4355017" lon="10.8441417"><ele>253.0</ele><time>2026-04-05T15:41:28.103Z</time></trkpt><trkpt lat="43.4356117" lon="10.8441867"><ele>253.0</ele><time>2026-04-05T15:41:29.103Z</time></trkpt><trkpt lat="43.4357217" lon="10.8442283"><ele>252.0</ele><time>2026-04-05T15:41:30.103Z</time></trkpt><trkpt lat="43.4358283" lon="10.8442767"><ele>251.0</ele><time>2026-04-05T15:41:31.103Z</time></trkpt><trkpt lat="43.43594" lon="10.8443167"><ele>250.0</ele><time>2026-04-05T15:41:32.103Z</time></trkpt><trkpt lat="43.436045" lon="10.8443583"><ele>249.0</ele><time>2026-04-05T15:41:33.103Z</time></trkpt><trkpt lat="43.43615" lon="10.844395"><ele>248.0</ele><time>2026-04-05T15:41:34.103Z</time></trkpt><trkpt lat="43.4362567" lon="10.8444283"><ele>247.60000000000002</ele><time>2026-04-05T15:41:35.102Z</time></trkpt><trkpt lat="43.436365" lon="10.8444467"><ele>247.20000000000002</ele><time>2026-04-05T15:41:36.103Z</time></trkpt><trkpt lat="43.4364733" lon="10.844455"><ele>246.8</ele><time>2026-04-05T15:41:37.103Z</time></trkpt><trkpt lat="43.4365783" lon="10.8444383"><ele>246.4</ele><time>2026-04-05T15:41:38.103Z</time></trkpt><trkpt lat="43.4366833" lon="10.8444017"><ele>246.0</ele><time>2026-04-05T15:41:39.103Z</time></trkpt><trkpt lat="43.4367817" lon="10.8443517"><ele>245.60000000000002</ele><time>2026-04-05T15:41:40.103Z</time></trkpt><trkpt lat="43.4368733" lon="10.8442783"><ele>245.20000000000002</ele><time>2026-04-05T15:41:41.103Z</time></trkpt><trkpt lat="43.4369533" lon="10.8441767"><ele>244.79999999999998</ele><time>2026-04-05T15:41:42.103Z</time></trkpt><trkpt lat="43.4370283" lon="10.8440633"><ele>244.39999999999998</ele><time>2026-04-05T15:41:43.103Z</time></trkpt><trkpt lat="43.4371017" lon="10.8439533"><ele>244.0</ele><time>2026-04-05T15:41:44.103Z</time></trkpt><trkpt lat="43.4371833" lon="10.84386"><ele>242.79999999999998</ele><time>2026-04-05T15:41:45.103Z</time></trkpt><trkpt lat="43.4372733" lon="10.8437983"><ele>241.59999999999997</ele><time>2026-04-05T15:41:46.103Z</time></trkpt><trkpt lat="43.437365" lon="10.843785"><ele>240.4</ele><time>2026-04-05T15:41:47.103Z</time></trkpt><trkpt lat="43.437455" lon="10.8438033"><ele>239.2</ele><time>2026-04-05T15:41:48.103Z</time></trkpt><trkpt lat="43.4375333" lon="10.8439"><ele>238.0</ele><time>2026-04-05T15:41:49.103Z</time></trkpt><trkpt lat="43.4376083" lon="10.84398"><ele>238.0</ele><time>2026-04-05T15:41:50.103Z</time></trkpt><trkpt lat="43.4376917" lon="10.844055"><ele>238.0</ele><time>2026-04-05T15:41:51.103Z</time></trkpt><trkpt lat="43.4377833" lon="10.844115"><ele>238.0</ele><time>2026-04-05T15:41:52.103Z</time></trkpt><trkpt lat="43.437895" lon="10.8441367"><ele>238.0</ele><time>2026-04-05T15:41:53.103Z</time></trkpt><trkpt lat="43.43801" lon="10.8441367"><ele>238.0</ele><time>2026-04-05T15:41:54.103Z</time></trkpt><trkpt lat="43.4381283" lon="10.8441233"><ele>234.75</ele><time>2026-04-05T15:41:55.103Z</time></trkpt><trkpt lat="43.4382483" lon="10.8441117"><ele>231.5</ele><time>2026-04-05T15:41:56.103Z</time></trkpt><trkpt lat="43.4383717" lon="10.8440983"><ele>228.25</ele><time>2026-04-05T15:41:57.103Z</time></trkpt><trkpt lat="43.4384967" lon="10.8440783"><ele>225.0</ele><time>2026-04-05T15:41:58.102Z</time></trkpt><trkpt lat="43.43862" lon="10.844045"><ele>225.0</ele><time>2026-04-05T15:41:59.102Z</time></trkpt><trkpt lat="43.4387317" lon="10.8439767"><ele>225.0</ele><time>2026-04-05T15:42:00.102Z</time></trkpt><trkpt lat="43.4388333" lon="10.843875"><ele>225.0</ele><time>2026-04-05T15:42:01.103Z</time></trkpt><trkpt lat="43.4389267" lon="10.8437533"><ele>225.0</ele><time>2026-04-05T15:42:02.103Z</time></trkpt><trkpt lat="43.4390117" lon="10.843625"><ele>223.75</ele><time>2026-04-05T15:42:03.103Z</time></trkpt><trkpt lat="43.4390967" lon="10.84349"><ele>222.5</ele><time>2026-04-05T15:42:04.103Z</time></trkpt><trkpt lat="43.439185" lon="10.843355"><ele>221.25</ele><time>2026-04-05T15:42:05.103Z</time></trkpt><trkpt lat="43.43928" lon="10.84322"><ele>220.0</ele><time>2026-04-05T15:42:06.103Z</time></trkpt><trkpt lat="43.4393783" lon="10.8431"><ele>220.0</ele><time>2026-04-05T15:42:07.103Z</time></trkpt><trkpt lat="43.4394883" lon="10.8429983"><ele>220.0</ele><time>2026-04-05T15:42:08.103Z</time></trkpt><trkpt lat="43.4396017" lon="10.8429233"><ele>220.0</ele><time>2026-04-05T15:42:09.102Z</time></trkpt><trkpt lat="43.4397183" lon="10.8428717"><ele>220.0</ele><time>2026-04-05T15:42:10.103Z</time></trkpt><trkpt lat="43.43984" lon="10.8428467"><ele>219.5</ele><time>2026-04-05T15:42:11.103Z</time></trkpt><trkpt lat="43.439965" lon="10.842845"><ele>219.0</ele><time>2026-04-05T15:42:12.103Z</time></trkpt><trkpt lat="43.4400933" lon="10.8428667"><ele>218.5</ele><time>2026-04-05T15:42:13.103Z</time></trkpt><trkpt lat="43.4402233" lon="10.8429"><ele>218.0</ele><time>2026-04-05T15:42:14.103Z</time></trkpt><trkpt lat="43.4403567" lon="10.8429383"><ele>216.25</ele><time>2026-04-05T15:42:15.103Z</time></trkpt><trkpt lat="43.4404883" lon="10.842975"><ele>214.5</ele><time>2026-04-05T15:42:16.103Z</time></trkpt><trkpt lat="43.4406233" lon="10.8430067"><ele>212.75</ele><time>2026-04-05T15:42:17.103Z</time></trkpt><trkpt lat="43.44076" lon="10.8430317"><ele>211.0</ele><time>2026-04-05T15:42:18.103Z</time></trkpt><trkpt lat="43.4408967" lon="10.8430433"><ele>211.0</ele><time>2026-04-05T15:42:19.103Z</time></trkpt><trkpt lat="43.4410333" lon="10.8430417"><ele>211.0</ele><time>2026-04-05T15:42:20.103Z</time></trkpt><trkpt lat="43.4411683" lon="10.8430267"><ele>211.0</ele><time>2026-04-05T15:42:21.103Z</time></trkpt><trkpt lat="43.4413033" lon="10.8429967"><ele>211.0</ele><time>2026-04-05T15:42:22.102Z</time></trkpt><trkpt lat="43.4414333" lon="10.84296"><ele>211.5</ele><time>2026-04-05T15:42:23.103Z</time></trkpt><trkpt lat="43.4415617" lon="10.84292"><ele>212.0</ele><time>2026-04-05T15:42:24.103Z</time></trkpt><trkpt lat="43.441685" lon="10.8428733"><ele>212.5</ele><time>2026-04-05T15:42:25.103Z</time></trkpt><trkpt lat="43.4418067" lon="10.8428117"><ele>213.0</ele><time>2026-04-05T15:42:26.103Z</time></trkpt><trkpt lat="43.4419267" lon="10.842745"><ele>213.0</ele><time>2026-04-05T15:42:27.103Z</time></trkpt><trkpt lat="43.4420483" lon="10.8426833"><ele>213.0</ele><time>2026-04-05T15:42:28.103Z</time></trkpt><trkpt lat="43.44217" lon="10.8426267"><ele>213.0</ele><time>2026-04-05T15:42:29.103Z</time></trkpt><trkpt lat="43.4422933" lon="10.8425767"><ele>213.0</ele><time>2026-04-05T15:42:30.103Z</time></trkpt><trkpt lat="43.442415" lon="10.8425333"><ele>212.75</ele><time>2026-04-05T15:42:31.103Z</time></trkpt><trkpt lat="43.442535" lon="10.8424917"><ele>212.5</ele><time>2026-04-05T15:42:32.103Z</time></trkpt><trkpt lat="43.4426567" lon="10.8424533"><ele>212.25</ele><time>2026-04-05T15:42:33.103Z</time></trkpt><trkpt lat="43.4427783" lon="10.842415"><ele>212.0</ele><time>2026-04-05T15:42:34.103Z</time></trkpt><trkpt lat="43.4428983" lon="10.84238"><ele>210.5</ele><time>2026-04-05T15:42:35.103Z</time></trkpt><trkpt lat="43.4430233" lon="10.8423567"><ele>209.0</ele><time>2026-04-05T15:42:36.103Z</time></trkpt><trkpt lat="43.4431517" lon="10.842345"><ele>207.5</ele><time>2026-04-05T15:42:37.103Z</time></trkpt><trkpt lat="43.4432783" lon="10.8423383"><ele>206.0</ele><time>2026-04-05T15:42:38.103Z</time></trkpt><trkpt lat="43.4434033" lon="10.842325"><ele>206.0</ele><time>2026-04-05T15:42:39.103Z</time></trkpt><trkpt lat="43.4435317" lon="10.842295"><ele>206.0</ele><time>2026-04-05T15:42:40.103Z</time></trkpt><trkpt lat="43.4436583" lon="10.8422533"><ele>206.0</ele><time>2026-04-05T15:42:41.102Z</time></trkpt><trkpt lat="43.4437883" lon="10.8422183"><ele>206.0</ele><time>2026-04-05T15:42:42.103Z</time></trkpt><trkpt lat="43.443925" lon="10.84221"><ele>204.5</ele><time>2026-04-05T15:42:43.102Z</time></trkpt><trkpt lat="43.44406" lon="10.842225"><ele>203.0</ele><time>2026-04-05T15:42:44.102Z</time></trkpt><trkpt lat="43.444195" lon="10.8422517"><ele>201.5</ele><time>2026-04-05T15:42:45.103Z</time></trkpt><trkpt lat="43.4443317" lon="10.8422833"><ele>200.0</ele><time>2026-04-05T15:42:46.103Z</time></trkpt><trkpt lat="43.4444683" lon="10.8423083"><ele>200.0</ele><time>2026-04-05T15:42:47.103Z</time></trkpt><trkpt lat="43.4446" lon="10.8423233"><ele>200.0</ele><time>2026-04-05T15:42:48.102Z</time></trkpt><trkpt lat="43.4447317" lon="10.8423117"><ele>200.0</ele><time>2026-04-05T15:42:49.103Z</time></trkpt><trkpt lat="43.444855" lon="10.8422583"><ele>200.0</ele><time>2026-04-05T15:42:50.103Z</time></trkpt><trkpt lat="43.444965" lon="10.8421617"><ele>200.5</ele><time>2026-04-05T15:42:51.103Z</time></trkpt><trkpt lat="43.4450517" lon="10.842035"><ele>201.0</ele><time>2026-04-05T15:42:52.103Z</time></trkpt><trkpt lat="43.4451317" lon="10.8419033"><ele>201.5</ele><time>2026-04-05T15:42:53.103Z</time></trkpt><trkpt lat="43.4452233" lon="10.8417783"><ele>202.0</ele><time>2026-04-05T15:42:54.103Z</time></trkpt><trkpt lat="43.4453267" lon="10.841685"><ele>202.25</ele><time>2026-04-05T15:42:55.103Z</time></trkpt><trkpt lat="43.445445" lon="10.8416283"><ele>202.5</ele><time>2026-04-05T15:42:56.103Z</time></trkpt><trkpt lat="43.44557" lon="10.8415917"><ele>202.75</ele><time>2026-04-05T15:42:57.103Z</time></trkpt><trkpt lat="43.4456917" lon="10.841545"><ele>203.0</ele><time>2026-04-05T15:42:58.103Z</time></trkpt><trkpt lat="43.4458017" lon="10.8414617"><ele>200.25</ele><time>2026-04-05T15:42:59.103Z</time></trkpt><trkpt lat="43.445895" lon="10.841345"><ele>197.5</ele><time>2026-04-05T15:43:00.102Z</time></trkpt><trkpt lat="43.4459783" lon="10.8412133"><ele>194.75</ele><time>2026-04-05T15:43:01.103Z</time></trkpt><trkpt lat="43.4460617" lon="10.8410767"><ele>192.0</ele><time>2026-04-05T15:43:02.103Z</time></trkpt><trkpt lat="43.4461583" lon="10.8409517"><ele>191.0</ele><time>2026-04-05T15:43:03.103Z</time></trkpt><trkpt lat="43.44626" lon="10.8408317"><ele>190.0</ele><time>2026-04-05T15:43:04.103Z</time></trkpt><trkpt lat="43.446365" lon="10.8407183"><ele>189.0</ele><time>2026-04-05T15:43:05.102Z</time></trkpt><trkpt lat="43.4464733" lon="10.840615"><ele>188.0</ele><time>2026-04-05T15:43:06.103Z</time></trkpt><trkpt lat="43.4465883" lon="10.84052"><ele>187.0</ele><time>2026-04-05T15:43:07.103Z</time></trkpt><trkpt lat="43.4467067" lon="10.8404367"><ele>186.0</ele><time>2026-04-05T15:43:08.103Z</time></trkpt><trkpt lat="43.44683" lon="10.8403733"><ele>185.0</ele><time>2026-04-05T15:43:09.103Z</time></trkpt><trkpt lat="43.44696" lon="10.8403367"><ele>184.0</ele><time>2026-04-05T15:43:10.103Z</time></trkpt><trkpt lat="43.4470917" lon="10.84033"><ele>180.5</ele><time>2026-04-05T15:43:11.103Z</time></trkpt><trkpt lat="43.4472233" lon="10.8403367"><ele>177.0</ele><time>2026-04-05T15:43:12.103Z</time></trkpt><trkpt lat="43.4473517" lon="10.8403333"><ele>173.5</ele><time>2026-04-05T15:43:13.103Z</time></trkpt><trkpt lat="43.4474733" lon="10.8403067"><ele>170.0</ele><time>2026-04-05T15:43:14.103Z</time></trkpt><trkpt lat="43.4475883" lon="10.8402467"><ele>177.0</ele><time>2026-04-05T15:43:15.103Z</time></trkpt><trkpt lat="43.4478283" lon="10.8398983"><ele>184.0</ele><time>2026-04-05T15:43:18.103Z</time></trkpt><trkpt lat="43.4478783" lon="10.8397533"><ele>184.0</ele><time>2026-04-05T15:43:19.103Z</time></trkpt><trkpt lat="43.4479267" lon="10.8396083"><ele>184.0</ele><time>2026-04-05T15:43:20.103Z</time></trkpt><trkpt lat="43.4479783" lon="10.8394583"><ele>184.0</ele><time>2026-04-05T15:43:21.103Z</time></trkpt><trkpt lat="43.4480317" lon="10.83931"><ele>184.0</ele><time>2026-04-05T15:43:22.103Z</time></trkpt><trkpt lat="43.4480933" lon="10.8391683"><ele>181.5</ele><time>2026-04-05T15:43:23.103Z</time></trkpt><trkpt lat="43.4481583" lon="10.8390317"><ele>179.0</ele><time>2026-04-05T15:43:24.103Z</time></trkpt><trkpt lat="43.44822" lon="10.838895"><ele>176.5</ele><time>2026-04-05T15:43:25.103Z</time></trkpt><trkpt lat="43.4482817" lon="10.8387533"><ele>174.0</ele><time>2026-04-05T15:43:26.103Z</time></trkpt><trkpt lat="43.4483317" lon="10.8386017"><ele>175.25</ele><time>2026-04-05T15:43:27.103Z</time></trkpt><trkpt lat="43.4483717" lon="10.838445"><ele>176.5</ele><time>2026-04-05T15:43:28.103Z</time></trkpt><trkpt lat="43.4484117" lon="10.8382817"><ele>177.75</ele><time>2026-04-05T15:43:29.103Z</time></trkpt><trkpt lat="43.4484483" lon="10.83812"><ele>179.0</ele><time>2026-04-05T15:43:30.103Z</time></trkpt><trkpt lat="43.4484883" lon="10.83796"><ele>179.0</ele><time>2026-04-05T15:43:31.103Z</time></trkpt><trkpt lat="43.4485383" lon="10.8378067"><ele>179.0</ele><time>2026-04-05T15:43:32.103Z</time></trkpt><trkpt lat="43.4485833" lon="10.8376567"><ele>179.0</ele><time>2026-04-05T15:43:33.103Z</time></trkpt><trkpt lat="43.44863" lon="10.837505"><ele>179.0</ele><time>2026-04-05T15:43:34.103Z</time></trkpt><trkpt lat="43.4486683" lon="10.837355"><ele>179.33333333333331</ele><time>2026-04-05T15:43:35.103Z</time></trkpt><trkpt lat="43.4487617" lon="10.83699"><ele>179.66666666666666</ele><time>2026-04-05T15:43:38.103Z</time></trkpt><trkpt lat="43.4488" lon="10.8369183"><ele>180.0</ele><time>2026-04-05T15:43:39.103Z</time></trkpt><trkpt lat="43.4489233" lon="10.8369117"><ele>175.2</ele><time>2026-04-05T15:43:41.103Z</time></trkpt><trkpt lat="43.4489817" lon="10.8369567"><ele>170.4</ele><time>2026-04-05T15:43:42.103Z</time></trkpt><trkpt lat="43.4490183" lon="10.83704"><ele>165.6</ele><time>2026-04-05T15:43:43.103Z</time></trkpt><trkpt lat="43.449025" lon="10.8371617"><ele>160.8</ele><time>2026-04-05T15:43:44.103Z</time></trkpt><trkpt lat="43.4490117" lon="10.8373167"><ele>156.0</ele><time>2026-04-05T15:43:45.103Z</time></trkpt><trkpt lat="43.448995" lon="10.8374767"><ele>154.25</ele><time>2026-04-05T15:43:46.103Z</time></trkpt><trkpt lat="43.4489633" lon="10.8376483"><ele>152.5</ele><time>2026-04-05T15:43:47.103Z</time></trkpt><trkpt lat="43.4489267" lon="10.8378017"><ele>150.75</ele><time>2026-04-05T15:43:48.103Z</time></trkpt><trkpt lat="43.44889" lon="10.8379583"><ele>149.0</ele><time>2026-04-05T15:43:49.102Z</time></trkpt><trkpt lat="43.448865" lon="10.8381233"><ele>149.0</ele><time>2026-04-05T15:43:50.103Z</time></trkpt><trkpt lat="43.44886" lon="10.83829"><ele>149.0</ele><time>2026-04-05T15:43:51.103Z</time></trkpt><trkpt lat="43.4488567" lon="10.8384567"><ele>149.0</ele><time>2026-04-05T15:43:52.103Z</time></trkpt><trkpt lat="43.4488533" lon="10.83863"><ele>149.0</ele><time>2026-04-05T15:43:53.103Z</time></trkpt><trkpt lat="43.44884" lon="10.8388"><ele>148.0</ele><time>2026-04-05T15:43:54.103Z</time></trkpt><trkpt lat="43.4488317" lon="10.838975"><ele>147.0</ele><time>2026-04-05T15:43:55.103Z</time></trkpt><trkpt lat="43.44882" lon="10.8391517"><ele>146.0</ele><time>2026-04-05T15:43:56.103Z</time></trkpt><trkpt lat="43.4488017" lon="10.839325"><ele>145.0</ele><time>2026-04-05T15:43:57.103Z</time></trkpt><trkpt lat="43.448785" lon="10.8395017"><ele>147.0</ele><time>2026-04-05T15:43:58.103Z</time></trkpt><trkpt lat="43.4487683" lon="10.8396817"><ele>149.0</ele><time>2026-04-05T15:43:59.103Z</time></trkpt><trkpt lat="43.44875" lon="10.8398533"><ele>151.0</ele><time>2026-04-05T15:44:00.103Z</time></trkpt><trkpt lat="43.44873" lon="10.8400233"><ele>153.0</ele><time>2026-04-05T15:44:01.103Z</time></trkpt><trkpt lat="43.4487117" lon="10.8401817"><ele>153.0</ele><time>2026-04-05T15:44:02.103Z</time></trkpt><trkpt lat="43.4487" lon="10.840325"><ele>153.0</ele><time>2026-04-05T15:44:03.103Z</time></trkpt><trkpt lat="43.4487133" lon="10.8404383"><ele>153.0</ele><time>2026-04-05T15:44:04.103Z</time></trkpt><trkpt lat="43.4487383" lon="10.8405483"><ele>153.0</ele><time>2026-04-05T15:44:05.103Z</time></trkpt><trkpt lat="43.4488433" lon="10.8405417"><ele>153.0</ele><time>2026-04-05T15:44:07.103Z</time></trkpt><trkpt lat="43.4488883" lon="10.84047"><ele>153.0</ele><time>2026-04-05T15:44:08.103Z</time></trkpt><trkpt lat="43.4489117" lon="10.8403217"><ele>150.4</ele><time>2026-04-05T15:44:09.103Z</time></trkpt><trkpt lat="43.44893" lon="10.840185"><ele>147.8</ele><time>2026-04-05T15:44:10.102Z</time></trkpt><trkpt lat="43.4489567" lon="10.840045"><ele>145.2</ele><time>2026-04-05T15:44:11.103Z</time></trkpt><trkpt lat="43.4489917" lon="10.8398967"><ele>142.6</ele><time>2026-04-05T15:44:12.103Z</time></trkpt><trkpt lat="43.449035" lon="10.8397433"><ele>140.0</ele><time>2026-04-05T15:44:13.103Z</time></trkpt><trkpt lat="43.44908" lon="10.8395867"><ele>140.0</ele><time>2026-04-05T15:44:14.103Z</time></trkpt><trkpt lat="43.4491233" lon="10.8394233"><ele>140.0</ele><time>2026-04-05T15:44:15.103Z</time></trkpt><trkpt lat="43.4491617" lon="10.839245"><ele>140.0</ele><time>2026-04-05T15:44:16.103Z</time></trkpt><trkpt lat="43.4491917" lon="10.8390617"><ele>140.0</ele><time>2026-04-05T15:44:17.103Z</time></trkpt><trkpt lat="43.44922" lon="10.8388767"><ele>141.25</ele><time>2026-04-05T15:44:18.102Z</time></trkpt><trkpt lat="43.44925" lon="10.838685"><ele>142.5</ele><time>2026-04-05T15:44:19.103Z</time></trkpt><trkpt lat="43.4492817" lon="10.838495"><ele>143.75</ele><time>2026-04-05T15:44:20.103Z</time></trkpt><trkpt lat="43.4493217" lon="10.8382983"><ele>145.0</ele><time>2026-04-05T15:44:21.103Z</time></trkpt><trkpt lat="43.4493633" lon="10.8381017"><ele>146.33333333333334</ele><time>2026-04-05T15:44:22.103Z</time></trkpt><trkpt lat="43.449405" lon="10.8379033"><ele>147.66666666666666</ele><time>2026-04-05T15:44:23.103Z</time></trkpt><trkpt lat="43.4494483" lon="10.837705"><ele>149.0</ele><time>2026-04-05T15:44:24.103Z</time></trkpt><trkpt lat="43.4495" lon="10.8375067"><ele>151.33333333333331</ele><time>2026-04-05T15:44:25.103Z</time></trkpt><trkpt lat="43.4495567" lon="10.8373067"><ele>153.66666666666666</ele><time>2026-04-05T15:44:26.103Z</time></trkpt><trkpt lat="43.449625" lon="10.837115"><ele>156.0</ele><time>2026-04-05T15:44:27.103Z</time></trkpt><trkpt lat="43.4496983" lon="10.8369367"><ele>149.75</ele><time>2026-04-05T15:44:28.103Z</time></trkpt><trkpt lat="43.4497817" lon="10.8367683"><ele>143.5</ele><time>2026-04-05T15:44:29.103Z</time></trkpt><trkpt lat="43.4498767" lon="10.8366083"><ele>137.25</ele><time>2026-04-05T15:44:30.103Z</time></trkpt><trkpt lat="43.4499817" lon="10.83646"><ele>131.0</ele><time>2026-04-05T15:44:31.103Z</time></trkpt><trkpt lat="43.45009" lon="10.8363133"><ele>131.0</ele><time>2026-04-05T15:44:32.103Z</time></trkpt><trkpt lat="43.4502017" lon="10.8361733"><ele>131.0</ele><time>2026-04-05T15:44:33.102Z</time></trkpt><trkpt lat="43.4503117" lon="10.83603"><ele>131.0</ele><time>2026-04-05T15:44:34.103Z</time></trkpt><trkpt lat="43.45042" lon="10.8358817"><ele>124.0</ele><time>2026-04-05T15:44:35.103Z</time></trkpt><trkpt lat="43.4505217" lon="10.8357283"><ele>117.0</ele><time>2026-04-05T15:44:36.103Z</time></trkpt><trkpt lat="43.4507183" lon="10.8354083"><ele>117.0</ele><time>2026-04-05T15:44:38.103Z</time></trkpt><trkpt lat="43.4508117" lon="10.8352467"><ele>117.0</ele><time>2026-04-05T15:44:39.103Z</time></trkpt><trkpt lat="43.4509" lon="10.83508"><ele>117.0</ele><time>2026-04-05T15:44:40.103Z</time></trkpt><trkpt lat="43.4509867" lon="10.834915"><ele>117.0</ele><time>2026-04-05T15:44:41.103Z</time></trkpt><trkpt lat="43.4510767" lon="10.834755"><ele>114.33333333333334</ele><time>2026-04-05T15:44:42.103Z</time></trkpt><trkpt lat="43.4511767" lon="10.8345967"><ele>111.66666666666667</ele><time>2026-04-05T15:44:43.103Z</time></trkpt><trkpt lat="43.451285" lon="10.8344517"><ele>109.0</ele><time>2026-04-05T15:44:44.103Z</time></trkpt><trkpt lat="43.4513917" lon="10.8343133"><ele>111.66666666666667</ele><time>2026-04-05T15:44:45.103Z</time></trkpt><trkpt lat="43.4515" lon="10.834175"><ele>114.33333333333334</ele><time>2026-04-05T15:44:46.103Z</time></trkpt><trkpt lat="43.4516133" lon="10.834045"><ele>117.0</ele><time>2026-04-05T15:44:47.103Z</time></trkpt><trkpt lat="43.45174" lon="10.8339233"><ele>117.0</ele><time>2026-04-05T15:44:48.103Z</time></trkpt><trkpt lat="43.4518733" lon="10.8338117"><ele>117.0</ele><time>2026-04-05T15:44:49.103Z</time></trkpt><trkpt lat="43.4520083" lon="10.8337083"><ele>117.0</ele><time>2026-04-05T15:44:50.103Z</time></trkpt><trkpt lat="43.4521433" lon="10.8336083"><ele>117.0</ele><time>2026-04-05T15:44:51.103Z</time></trkpt><trkpt lat="43.45228" lon="10.8335083"><ele>117.0</ele><time>2026-04-05T15:44:52.103Z</time></trkpt><trkpt lat="43.452415" lon="10.8334067"><ele>117.0</ele><time>2026-04-05T15:44:53.103Z</time></trkpt><trkpt lat="43.4525467" lon="10.833305"><ele>117.0</ele><time>2026-04-05T15:44:54.103Z</time></trkpt><trkpt lat="43.4526667" lon="10.8331883"><ele>117.0</ele><time>2026-04-05T15:44:55.103Z</time></trkpt><trkpt lat="43.452775" lon="10.833045"><ele>117.0</ele><time>2026-04-05T15:44:56.103Z</time></trkpt><trkpt lat="43.45286" lon="10.8328733"><ele>117.0</ele><time>2026-04-05T15:44:57.103Z</time></trkpt><trkpt lat="43.45293" lon="10.8326917"><ele>114.25</ele><time>2026-04-05T15:44:58.103Z</time></trkpt><trkpt lat="43.4529917" lon="10.8325067"><ele>111.5</ele><time>2026-04-05T15:44:59.103Z</time></trkpt><trkpt lat="43.453055" lon="10.83232"><ele>108.75</ele><time>2026-04-05T15:45:00.102Z</time></trkpt><trkpt lat="43.453115" lon="10.8321333"><ele>106.0</ele><time>2026-04-05T15:45:01.103Z</time></trkpt><trkpt lat="43.4531783" lon="10.8319517"><ele>106.75</ele><time>2026-04-05T15:45:02.103Z</time></trkpt><trkpt lat="43.453245" lon="10.831775"><ele>107.5</ele><time>2026-04-05T15:45:03.103Z</time></trkpt><trkpt lat="43.4533217" lon="10.831605"><ele>108.25</ele><time>2026-04-05T15:45:04.102Z</time></trkpt><trkpt lat="43.4534017" lon="10.831435"><ele>109.0</ele><time>2026-04-05T15:45:05.103Z</time></trkpt><trkpt lat="43.4534817" lon="10.8312717"><ele>109.0</ele><time>2026-04-05T15:45:06.103Z</time></trkpt><trkpt lat="43.45356" lon="10.831115"><ele>109.0</ele><time>2026-04-05T15:45:07.103Z</time></trkpt><trkpt lat="43.4536367" lon="10.83097"><ele>109.0</ele><time>2026-04-05T15:45:08.102Z</time></trkpt><trkpt lat="43.4537167" lon="10.8308367"><ele>109.0</ele><time>2026-04-05T15:45:09.103Z</time></trkpt><trkpt lat="43.4538033" lon="10.8307233"><ele>107.75</ele><time>2026-04-05T15:45:10.103Z</time></trkpt><trkpt lat="43.4539017" lon="10.8306333"><ele>106.5</ele><time>2026-04-05T15:45:11.103Z</time></trkpt><trkpt lat="43.45401" lon="10.830575"><ele>105.25</ele><time>2026-04-05T15:45:12.103Z</time></trkpt><trkpt lat="43.4541233" lon="10.830545"><ele>104.0</ele><time>2026-04-05T15:45:13.103Z</time></trkpt><trkpt lat="43.4542417" lon="10.8305233"><ele>104.0</ele><time>2026-04-05T15:45:14.103Z</time></trkpt><trkpt lat="43.4543667" lon="10.8305017"><ele>104.0</ele><time>2026-04-05T15:45:15.103Z</time></trkpt><trkpt lat="43.4544967" lon="10.8304783"><ele>104.0</ele><time>2026-04-05T15:45:16.103Z</time></trkpt><trkpt lat="43.4546283" lon="10.8304517"><ele>104.0</ele><time>2026-04-05T15:45:17.103Z</time></trkpt><trkpt lat="43.4547633" lon="10.830415"><ele>103.5</ele><time>2026-04-05T15:45:18.103Z</time></trkpt><trkpt lat="43.4549017" lon="10.8303733"><ele>103.0</ele><time>2026-04-05T15:45:19.103Z</time></trkpt><trkpt lat="43.4550367" lon="10.8303283"><ele>102.5</ele><time>2026-04-05T15:45:20.103Z</time></trkpt><trkpt lat="43.4551667" lon="10.830275"><ele>102.0</ele><time>2026-04-05T15:45:21.103Z</time></trkpt><trkpt lat="43.4552967" lon="10.8302217"><ele>102.0</ele><time>2026-04-05T15:45:22.103Z</time></trkpt><trkpt lat="43.455425" lon="10.830165"><ele>102.0</ele><time>2026-04-05T15:45:23.102Z</time></trkpt><trkpt lat="43.455555" lon="10.830105"><ele>102.0</ele><time>2026-04-05T15:45:24.103Z</time></trkpt><trkpt lat="43.4556867" lon="10.8300467"><ele>102.0</ele><time>2026-04-05T15:45:25.103Z</time></trkpt><trkpt lat="43.45582" lon="10.82999"><ele>102.0</ele><time>2026-04-05T15:45:26.103Z</time></trkpt><trkpt lat="43.4559533" lon="10.8299317"><ele>102.0</ele><time>2026-04-05T15:45:27.103Z</time></trkpt><trkpt lat="43.4560833" lon="10.8298767"><ele>102.0</ele><time>2026-04-05T15:45:28.103Z</time></trkpt><trkpt lat="43.4562167" lon="10.82983"><ele>102.0</ele><time>2026-04-05T15:45:29.103Z</time></trkpt><trkpt lat="43.4563467" lon="10.82979"><ele>101.6</ele><time>2026-04-05T15:45:30.103Z</time></trkpt><trkpt lat="43.4564683" lon="10.829765"><ele>101.19999999999999</ele><time>2026-04-05T15:45:31.103Z</time></trkpt><trkpt lat="43.456585" lon="10.82976"><ele>100.8</ele><time>2026-04-05T15:45:32.103Z</time></trkpt><trkpt lat="43.45669" lon="10.8297767"><ele>100.4</ele><time>2026-04-05T15:45:33.103Z</time></trkpt><trkpt lat="43.45679" lon="10.8298033"><ele>100.0</ele><time>2026-04-05T15:45:34.102Z</time></trkpt><trkpt lat="43.4568867" lon="10.8298167"><ele>100.0</ele><time>2026-04-05T15:45:35.103Z</time></trkpt><trkpt lat="43.4569817" lon="10.8298133"><ele>100.0</ele><time>2026-04-05T15:45:36.103Z</time></trkpt><trkpt lat="43.4570817" lon="10.8297983"><ele>100.0</ele><time>2026-04-05T15:45:37.103Z</time></trkpt><trkpt lat="43.4571883" lon="10.829795"><ele>100.0</ele><time>2026-04-05T15:45:38.103Z</time></trkpt><trkpt lat="43.4573017" lon="10.829815"><ele>100.0</ele><time>2026-04-05T15:45:39.103Z</time></trkpt><trkpt lat="43.457425" lon="10.8298467"><ele>100.25</ele><time>2026-04-05T15:45:40.103Z</time></trkpt><trkpt lat="43.4575467" lon="10.8298883"><ele>100.5</ele><time>2026-04-05T15:45:41.103Z</time></trkpt><trkpt lat="43.4576683" lon="10.8299383"><ele>100.75</ele><time>2026-04-05T15:45:42.103Z</time></trkpt><trkpt lat="43.457795" lon="10.83"><ele>101.0</ele><time>2026-04-05T15:45:43.103Z</time></trkpt><trkpt lat="43.4579217" lon="10.8300617"><ele>101.0</ele><time>2026-04-05T15:45:44.103Z</time></trkpt><trkpt lat="43.4580533" lon="10.8301167"><ele>101.0</ele><time>2026-04-05T15:45:45.102Z</time></trkpt><trkpt lat="43.4581867" lon="10.8301717"><ele>101.0</ele><time>2026-04-05T15:45:46.103Z</time></trkpt><trkpt lat="43.4583217" lon="10.8302267"><ele>101.0</ele><time>2026-04-05T15:45:47.103Z</time></trkpt><trkpt lat="43.4584567" lon="10.8302833"><ele>101.0</ele><time>2026-04-05T15:45:48.102Z</time></trkpt><trkpt lat="43.458595" lon="10.83034"><ele>101.0</ele><time>2026-04-05T15:45:49.103Z</time></trkpt><trkpt lat="43.4588833" lon="10.830465"><ele>101.0</ele><time>2026-04-05T15:45:51.103Z</time></trkpt><trkpt lat="43.4590283" lon="10.8305217"><ele>103.5</ele><time>2026-04-05T15:45:52.103Z</time></trkpt><trkpt lat="43.4591683" lon="10.8305767"><ele>106.0</ele><time>2026-04-05T15:45:53.103Z</time></trkpt><trkpt lat="43.4593083" lon="10.8306383"><ele>108.5</ele><time>2026-04-05T15:45:54.103Z</time></trkpt><trkpt lat="43.4594467" lon="10.8307033"><ele>111.0</ele><time>2026-04-05T15:45:55.103Z</time></trkpt><trkpt lat="43.459585" lon="10.8307733"><ele>113.0</ele><time>2026-04-05T15:45:56.103Z</time></trkpt><trkpt lat="43.459725" lon="10.830835"><ele>115.0</ele><time>2026-04-05T15:45:57.103Z</time></trkpt><trkpt lat="43.4598583" lon="10.8308883"><ele>117.0</ele><time>2026-04-05T15:45:58.103Z</time></trkpt><trkpt lat="43.45999" lon="10.8309467"><ele>119.0</ele><time>2026-04-05T15:45:59.103Z</time></trkpt><trkpt lat="43.4601233" lon="10.8310067"><ele>122.0</ele><time>2026-04-05T15:46:00.103Z</time></trkpt><trkpt lat="43.46026" lon="10.8310667"><ele>125.0</ele><time>2026-04-05T15:46:01.103Z</time></trkpt><trkpt lat="43.4604017" lon="10.8311267"><ele>128.0</ele><time>2026-04-05T15:46:02.103Z</time></trkpt><trkpt lat="43.4605433" lon="10.8311883"><ele>131.0</ele><time>2026-04-05T15:46:03.103Z</time></trkpt><trkpt lat="43.460685" lon="10.83125"><ele>131.25</ele><time>2026-04-05T15:46:04.103Z</time></trkpt><trkpt lat="43.460825" lon="10.83131"><ele>131.5</ele><time>2026-04-05T15:46:05.103Z</time></trkpt><trkpt lat="43.460965" lon="10.8313733"><ele>131.75</ele><time>2026-04-05T15:46:06.103Z</time></trkpt><trkpt lat="43.4611033" lon="10.8314383"><ele>132.0</ele><time>2026-04-05T15:46:07.103Z</time></trkpt><trkpt lat="43.4612417" lon="10.831495"><ele>132.0</ele><time>2026-04-05T15:46:08.103Z</time></trkpt><trkpt lat="43.4613783" lon="10.83155"><ele>132.0</ele><time>2026-04-05T15:46:09.103Z</time></trkpt><trkpt lat="43.46152" lon="10.8316067"><ele>132.0</ele><time>2026-04-05T15:46:10.103Z</time></trkpt><trkpt lat="43.4616583" lon="10.8316667"><ele>132.0</ele><time>2026-04-05T15:46:11.103Z</time></trkpt><trkpt lat="43.4618017" lon="10.8317333"><ele>132.0</ele><time>2026-04-05T15:46:12.103Z</time></trkpt><trkpt lat="43.4619433" lon="10.831795"><ele>132.0</ele><time>2026-04-05T15:46:13.103Z</time></trkpt><trkpt lat="43.462085" lon="10.8318533"><ele>132.0</ele><time>2026-04-05T15:46:14.103Z</time></trkpt><trkpt lat="43.4622283" lon="10.8319133"><ele>132.0</ele><time>2026-04-05T15:46:15.102Z</time></trkpt><trkpt lat="43.4623717" lon="10.8319733"><ele>132.66666666666666</ele><time>2026-04-05T15:46:16.103Z</time></trkpt><trkpt lat="43.4625167" lon="10.83203"><ele>133.33333333333331</ele><time>2026-04-05T15:46:17.103Z</time></trkpt><trkpt lat="43.4626617" lon="10.8320867"><ele>134.0</ele><time>2026-04-05T15:46:18.103Z</time></trkpt><trkpt lat="43.4628083" lon="10.8321333"><ele>138.66666666666666</ele><time>2026-04-05T15:46:19.103Z</time></trkpt><trkpt lat="43.462955" lon="10.832175"><ele>143.33333333333334</ele><time>2026-04-05T15:46:20.103Z</time></trkpt><trkpt lat="43.4631067" lon="10.8322117"><ele>148.0</ele><time>2026-04-05T15:46:21.103Z</time></trkpt><trkpt lat="43.4632533" lon="10.8322433"><ele>148.0</ele><time>2026-04-05T15:46:22.103Z</time></trkpt><trkpt lat="43.4634" lon="10.83227"><ele>148.0</ele><time>2026-04-05T15:46:23.103Z</time></trkpt><trkpt lat="43.4635483" lon="10.8323"><ele>148.0</ele><time>2026-04-05T15:46:24.103Z</time></trkpt><trkpt lat="43.463695" lon="10.8323333"><ele>148.0</ele><time>2026-04-05T15:46:25.103Z</time></trkpt><trkpt lat="43.4638417" lon="10.8323667"><ele>150.25</ele><time>2026-04-05T15:46:26.103Z</time></trkpt><trkpt lat="43.463985" lon="10.8324117"><ele>152.5</ele><time>2026-04-05T15:46:27.103Z</time></trkpt><trkpt lat="43.4641267" lon="10.83247"><ele>154.75</ele><time>2026-04-05T15:46:28.103Z</time></trkpt><trkpt lat="43.4642633" lon="10.8325433"><ele>157.0</ele><time>2026-04-05T15:46:29.103Z</time></trkpt><trkpt lat="43.4643917" lon="10.8326383"><ele>157.75</ele><time>2026-04-05T15:46:30.103Z</time></trkpt><trkpt lat="43.46451" lon="10.8327533"><ele>158.5</ele><time>2026-04-05T15:46:31.103Z</time></trkpt><trkpt lat="43.4646217" lon="10.8328883"><ele>159.25</ele><time>2026-04-05T15:46:32.103Z</time></trkpt><trkpt lat="43.4647233" lon="10.8330383"><ele>160.0</ele><time>2026-04-05T15:46:33.102Z</time></trkpt><trkpt lat="43.4648117" lon="10.8332067"><ele>160.0</ele><time>2026-04-05T15:46:34.103Z</time></trkpt><trkpt lat="43.4648817" lon="10.8333867"><ele>160.0</ele><time>2026-04-05T15:46:35.103Z</time></trkpt><trkpt lat="43.4649517" lon="10.8335633"><ele>160.0</ele><time>2026-04-05T15:46:36.103Z</time></trkpt><trkpt lat="43.4650217" lon="10.8337367"><ele>160.0</ele><time>2026-04-05T15:46:37.102Z</time></trkpt><trkpt lat="43.4650967" lon="10.8339"><ele>160.75</ele><time>2026-04-05T15:46:38.103Z</time></trkpt><trkpt lat="43.4651717" lon="10.83406"><ele>161.5</ele><time>2026-04-05T15:46:39.103Z</time></trkpt><trkpt lat="43.4652483" lon="10.8342167"><ele>162.25</ele><time>2026-04-05T15:46:40.103Z</time></trkpt><trkpt lat="43.465325" lon="10.8343783"><ele>163.0</ele><time>2026-04-05T15:46:41.103Z</time></trkpt><trkpt lat="43.4654067" lon="10.8345383"><ele>164.0</ele><time>2026-04-05T15:46:42.103Z</time></trkpt><trkpt lat="43.46549" lon="10.834695"><ele>165.0</ele><time>2026-04-05T15:46:43.103Z</time></trkpt><trkpt lat="43.4655683" lon="10.8348583"><ele>166.0</ele><time>2026-04-05T15:46:44.103Z</time></trkpt><trkpt lat="43.465645" lon="10.835025"><ele>167.0</ele><time>2026-04-05T15:46:45.103Z</time></trkpt><trkpt lat="43.4657217" lon="10.83519"><ele>169.0</ele><time>2026-04-05T15:46:46.103Z</time></trkpt><trkpt lat="43.4658" lon="10.8353617"><ele>171.0</ele><time>2026-04-05T15:46:47.103Z</time></trkpt><trkpt lat="43.46588" lon="10.8355317"><ele>173.0</ele><time>2026-04-05T15:46:48.103Z</time></trkpt><trkpt lat="43.4659667" lon="10.8356967"><ele>175.0</ele><time>2026-04-05T15:46:49.103Z</time></trkpt><trkpt lat="43.46606" lon="10.8358533"><ele>175.0</ele><time>2026-04-05T15:46:50.103Z</time></trkpt><trkpt lat="43.4661567" lon="10.8360033"><ele>175.0</ele><time>2026-04-05T15:46:51.103Z</time></trkpt><trkpt lat="43.4662617" lon="10.8361417"><ele>175.0</ele><time>2026-04-05T15:46:52.103Z</time></trkpt><trkpt lat="43.4663733" lon="10.8362733"><ele>175.0</ele><time>2026-04-05T15:46:53.103Z</time></trkpt><trkpt lat="43.4664933" lon="10.8363933"><ele>175.75</ele><time>2026-04-05T15:46:54.103Z</time></trkpt><trkpt lat="43.4666217" lon="10.836495"><ele>176.5</ele><time>2026-04-05T15:46:55.103Z</time></trkpt><trkpt lat="43.4667533" lon="10.8365867"><ele>177.25</ele><time>2026-04-05T15:46:56.103Z</time></trkpt><trkpt lat="43.4668883" lon="10.8366633"><ele>178.0</ele><time>2026-04-05T15:46:57.103Z</time></trkpt><trkpt lat="43.4670183" lon="10.83673"><ele>178.0</ele><time>2026-04-05T15:46:58.102Z</time></trkpt><trkpt lat="43.4671433" lon="10.83678"><ele>178.0</ele><time>2026-04-05T15:46:59.103Z</time></trkpt><trkpt lat="43.4672617" lon="10.8368183"><ele>178.0</ele><time>2026-04-05T15:47:00.102Z</time></trkpt><trkpt lat="43.467365" lon="10.8368533"><ele>178.0</ele><time>2026-04-05T15:47:01.103Z</time></trkpt><trkpt lat="43.46746" lon="10.83688"><ele>180.0</ele><time>2026-04-05T15:47:02.103Z</time></trkpt><trkpt lat="43.4675433" lon="10.83691"><ele>182.0</ele><time>2026-04-05T15:47:03.103Z</time></trkpt><trkpt lat="43.4676267" lon="10.836955"><ele>184.0</ele><time>2026-04-05T15:47:04.103Z</time></trkpt><trkpt lat="43.4677167" lon="10.83702"><ele>186.0</ele><time>2026-04-05T15:47:05.103Z</time></trkpt><trkpt lat="43.467805" lon="10.8370883"><ele>188.0</ele><time>2026-04-05T15:47:06.102Z</time></trkpt><trkpt lat="43.4678967" lon="10.8371633"><ele>189.2</ele><time>2026-04-05T15:47:07.102Z</time></trkpt><trkpt lat="43.4679817" lon="10.8372467"><ele>190.4</ele><time>2026-04-05T15:47:08.103Z</time></trkpt><trkpt lat="43.4680683" lon="10.8373417"><ele>191.6</ele><time>2026-04-05T15:47:09.103Z</time></trkpt><trkpt lat="43.46815" lon="10.83745"><ele>192.79999999999998</ele><time>2026-04-05T15:47:10.103Z</time></trkpt><trkpt lat="43.4682333" lon="10.8375683"><ele>194.0</ele><time>2026-04-05T15:47:11.103Z</time></trkpt><trkpt lat="43.468315" lon="10.8376967"><ele>194.0</ele><time>2026-04-05T15:47:12.103Z</time></trkpt><trkpt lat="43.4683917" lon="10.8378367"><ele>194.0</ele><time>2026-04-05T15:47:13.103Z</time></trkpt><trkpt lat="43.468465" lon="10.8379883"><ele>194.0</ele><time>2026-04-05T15:47:14.103Z</time></trkpt><trkpt lat="43.4685283" lon="10.8381433"><ele>194.0</ele><time>2026-04-05T15:47:15.103Z</time></trkpt><trkpt lat="43.468585" lon="10.8383"><ele>194.0</ele><time>2026-04-05T15:47:16.103Z</time></trkpt><trkpt lat="43.4686367" lon="10.8384567"><ele>194.0</ele><time>2026-04-05T15:47:17.103Z</time></trkpt><trkpt lat="43.4687283" lon="10.8387733"><ele>194.0</ele><time>2026-04-05T15:47:19.103Z</time></trkpt><trkpt lat="43.468775" lon="10.838925"><ele>193.25</ele><time>2026-04-05T15:47:20.103Z</time></trkpt><trkpt lat="43.4688183" lon="10.8390783"><ele>192.5</ele><time>2026-04-05T15:47:21.103Z</time></trkpt><trkpt lat="43.4688633" lon="10.8392233"><ele>191.75</ele><time>2026-04-05T15:47:22.103Z</time></trkpt><trkpt lat="43.4689117" lon="10.8393733"><ele>191.0</ele><time>2026-04-05T15:47:23.103Z</time></trkpt><trkpt lat="43.4689567" lon="10.8395217"><ele>191.0</ele><time>2026-04-05T15:47:24.102Z</time></trkpt><trkpt lat="43.4689983" lon="10.8396717"><ele>191.0</ele><time>2026-04-05T15:47:25.103Z</time></trkpt><trkpt lat="43.46904" lon="10.83982"><ele>191.0</ele><time>2026-04-05T15:47:26.103Z</time></trkpt><trkpt lat="43.469085" lon="10.8399683"><ele>191.0</ele><time>2026-04-05T15:47:27.103Z</time></trkpt><trkpt lat="43.4691317" lon="10.8401167"><ele>192.75</ele><time>2026-04-05T15:47:28.103Z</time></trkpt><trkpt lat="43.4691783" lon="10.8402667"><ele>194.5</ele><time>2026-04-05T15:47:29.103Z</time></trkpt><trkpt lat="43.469225" lon="10.8404183"><ele>196.25</ele><time>2026-04-05T15:47:30.103Z</time></trkpt><trkpt lat="43.46927" lon="10.8405683"><ele>198.0</ele><time>2026-04-05T15:47:31.103Z</time></trkpt><trkpt lat="43.4693167" lon="10.8407217"><ele>198.0</ele><time>2026-04-05T15:47:32.103Z</time></trkpt><trkpt lat="43.4693583" lon="10.8408783"><ele>198.0</ele><time>2026-04-05T15:47:33.103Z</time></trkpt><trkpt lat="43.469385" lon="10.8410417"><ele>198.0</ele><time>2026-04-05T15:47:34.103Z</time></trkpt><trkpt lat="43.469375" lon="10.8412033"><ele>198.0</ele><time>2026-04-05T15:47:35.103Z</time></trkpt><trkpt lat="43.469325" lon="10.84136"><ele>196.33333333333331</ele><time>2026-04-05T15:47:36.102Z</time></trkpt><trkpt lat="43.469255" lon="10.8415117"><ele>194.66666666666666</ele><time>2026-04-05T15:47:37.103Z</time></trkpt><trkpt lat="43.46914" lon="10.8418067"><ele>193.0</ele><time>2026-04-05T15:47:39.103Z</time></trkpt><trkpt lat="43.4690933" lon="10.8419667"><ele>192.75</ele><time>2026-04-05T15:47:40.102Z</time></trkpt><trkpt lat="43.4690633" lon="10.8421367"><ele>192.5</ele><time>2026-04-05T15:47:41.103Z</time></trkpt><trkpt lat="43.469065" lon="10.8423"><ele>192.25</ele><time>2026-04-05T15:47:42.103Z</time></trkpt><trkpt lat="43.4690883" lon="10.84245"><ele>192.0</ele><time>2026-04-05T15:47:43.103Z</time></trkpt><trkpt lat="43.4691233" lon="10.8425867"><ele>191.75</ele><time>2026-04-05T15:47:44.103Z</time></trkpt><trkpt lat="43.4691683" lon="10.8427217"><ele>191.5</ele><time>2026-04-05T15:47:45.103Z</time></trkpt><trkpt lat="43.4692233" lon="10.8428617"><ele>191.25</ele><time>2026-04-05T15:47:46.103Z</time></trkpt><trkpt lat="43.4692717" lon="10.8430133"><ele>191.0</ele><time>2026-04-05T15:47:47.103Z</time></trkpt><trkpt lat="43.4693167" lon="10.8431717"><ele>191.0</ele><time>2026-04-05T15:47:48.103Z</time></trkpt><trkpt lat="43.4693567" lon="10.8433233"><ele>191.0</ele><time>2026-04-05T15:47:49.103Z</time></trkpt><trkpt lat="43.4693933" lon="10.8434667"><ele>191.0</ele><time>2026-04-05T15:47:50.102Z</time></trkpt><trkpt lat="43.4694283" lon="10.8436033"><ele>191.0</ele><time>2026-04-05T15:47:51.103Z</time></trkpt><trkpt lat="43.469455" lon="10.84374"><ele>191.0</ele><time>2026-04-05T15:47:52.103Z</time></trkpt><trkpt lat="43.469475" lon="10.8438883"><ele>189.5</ele><time>2026-04-05T15:47:53.103Z</time></trkpt><trkpt lat="43.4694833" lon="10.8440533"><ele>188.0</ele><time>2026-04-05T15:47:54.103Z</time></trkpt><trkpt lat="43.4694867" lon="10.8442233"><ele>186.5</ele><time>2026-04-05T15:47:55.103Z</time></trkpt><trkpt lat="43.4694817" lon="10.8443917"><ele>185.0</ele><time>2026-04-05T15:47:56.102Z</time></trkpt><trkpt lat="43.4694733" lon="10.844555"><ele>185.0</ele><time>2026-04-05T15:47:57.103Z</time></trkpt><trkpt lat="43.4694567" lon="10.844885"><ele>185.0</ele><time>2026-04-05T15:47:59.103Z</time></trkpt><trkpt lat="43.469445" lon="10.8450533"><ele>185.0</ele><time>2026-04-05T15:48:00.103Z</time></trkpt><trkpt lat="43.46944" lon="10.84522"><ele>184.25</ele><time>2026-04-05T15:48:01.103Z</time></trkpt><trkpt lat="43.469435" lon="10.8453833"><ele>183.5</ele><time>2026-04-05T15:48:02.102Z</time></trkpt><trkpt lat="43.469435" lon="10.845545"><ele>182.75</ele><time>2026-04-05T15:48:03.103Z</time></trkpt><trkpt lat="43.4694383" lon="10.8457083"><ele>182.0</ele><time>2026-04-05T15:48:04.103Z</time></trkpt><trkpt lat="43.4694483" lon="10.8458717"><ele>179.5</ele><time>2026-04-05T15:48:05.103Z</time></trkpt><trkpt lat="43.469475" lon="10.8460333"><ele>177.0</ele><time>2026-04-05T15:48:06.103Z</time></trkpt><trkpt lat="43.46952" lon="10.8461833"><ele>174.5</ele><time>2026-04-05T15:48:07.103Z</time></trkpt><trkpt lat="43.4695867" lon="10.84632"><ele>172.0</ele><time>2026-04-05T15:48:08.103Z</time></trkpt><trkpt lat="43.46966" lon="10.846445"><ele>176.5</ele><time>2026-04-05T15:48:09.103Z</time></trkpt><trkpt lat="43.4697367" lon="10.8465667"><ele>181.0</ele><time>2026-04-05T15:48:10.103Z</time></trkpt><trkpt lat="43.46981" lon="10.8466933"><ele>185.5</ele><time>2026-04-05T15:48:11.103Z</time></trkpt><trkpt lat="43.4698833" lon="10.8468233"><ele>190.0</ele><time>2026-04-05T15:48:12.103Z</time></trkpt><trkpt lat="43.4699567" lon="10.8469583"><ele>190.0</ele><time>2026-04-05T15:48:13.103Z</time></trkpt><trkpt lat="43.4700233" lon="10.8470967"><ele>190.0</ele><time>2026-04-05T15:48:14.103Z</time></trkpt><trkpt lat="43.4700833" lon="10.8472433"><ele>190.0</ele><time>2026-04-05T15:48:15.103Z</time></trkpt><trkpt lat="43.47014" lon="10.847395"><ele>190.0</ele><time>2026-04-05T15:48:16.103Z</time></trkpt><trkpt lat="43.4701983" lon="10.8475467"><ele>187.0</ele><time>2026-04-05T15:48:17.103Z</time></trkpt><trkpt lat="43.4703033" lon="10.84786"><ele>184.0</ele><time>2026-04-05T15:48:19.103Z</time></trkpt><trkpt lat="43.4703517" lon="10.84802"><ele>181.0</ele><time>2026-04-05T15:48:20.103Z</time></trkpt><trkpt lat="43.470395" lon="10.848185"><ele>181.0</ele><time>2026-04-05T15:48:21.103Z</time></trkpt><trkpt lat="43.47044" lon="10.8483517"><ele>181.0</ele><time>2026-04-05T15:48:22.103Z</time></trkpt><trkpt lat="43.4704883" lon="10.8485233"><ele>181.0</ele><time>2026-04-05T15:48:23.103Z</time></trkpt><trkpt lat="43.4705417" lon="10.8487"><ele>181.0</ele><time>2026-04-05T15:48:24.103Z</time></trkpt><trkpt lat="43.470595" lon="10.8488867"><ele>184.5</ele><time>2026-04-05T15:48:25.103Z</time></trkpt><trkpt lat="43.4706467" lon="10.84907"><ele>188.0</ele><time>2026-04-05T15:48:26.103Z</time></trkpt><trkpt lat="43.4706967" lon="10.8492483"><ele>191.5</ele><time>2026-04-05T15:48:27.102Z</time></trkpt><trkpt lat="43.470745" lon="10.8494333"><ele>195.0</ele><time>2026-04-05T15:48:28.103Z</time></trkpt><trkpt lat="43.47079" lon="10.8496183"><ele>195.0</ele><time>2026-04-05T15:48:29.103Z</time></trkpt><trkpt lat="43.4708317" lon="10.8498"><ele>195.0</ele><time>2026-04-05T15:48:30.103Z</time></trkpt><trkpt lat="43.4708683" lon="10.8499817"><ele>195.0</ele><time>2026-04-05T15:48:31.103Z</time></trkpt><trkpt lat="43.4709067" lon="10.8501667"><ele>195.0</ele><time>2026-04-05T15:48:32.103Z</time></trkpt><trkpt lat="43.4709433" lon="10.8503467"><ele>193.75</ele><time>2026-04-05T15:48:33.103Z</time></trkpt><trkpt lat="43.47098" lon="10.8505283"><ele>192.5</ele><time>2026-04-05T15:48:34.102Z</time></trkpt><trkpt lat="43.47102" lon="10.85071"><ele>191.25</ele><time>2026-04-05T15:48:35.103Z</time></trkpt><trkpt lat="43.4710583" lon="10.85089"><ele>190.0</ele><time>2026-04-05T15:48:36.103Z</time></trkpt><trkpt lat="43.4710983" lon="10.8510683"><ele>189.33333333333334</ele><time>2026-04-05T15:48:37.103Z</time></trkpt><trkpt lat="43.4711767" lon="10.8514233"><ele>188.66666666666666</ele><time>2026-04-05T15:48:39.103Z</time></trkpt><trkpt lat="43.4712117" lon="10.8516033"><ele>188.0</ele><time>2026-04-05T15:48:40.102Z</time></trkpt><trkpt lat="43.4712383" lon="10.8517883"><ele>189.25</ele><time>2026-04-05T15:48:41.103Z</time></trkpt><trkpt lat="43.4712583" lon="10.85198"><ele>190.5</ele><time>2026-04-05T15:48:42.103Z</time></trkpt><trkpt lat="43.47126" lon="10.852175"><ele>191.75</ele><time>2026-04-05T15:48:43.102Z</time></trkpt><trkpt lat="43.471235" lon="10.8523733"><ele>193.0</ele><time>2026-04-05T15:48:44.103Z</time></trkpt><trkpt lat="43.471195" lon="10.85257"><ele>194.25</ele><time>2026-04-05T15:48:45.103Z</time></trkpt><trkpt lat="43.4711467" lon="10.8527633"><ele>195.5</ele><time>2026-04-05T15:48:46.103Z</time></trkpt><trkpt lat="43.471095" lon="10.8529567"><ele>196.75</ele><time>2026-04-05T15:48:47.103Z</time></trkpt><trkpt lat="43.47105" lon="10.85315"><ele>198.0</ele><time>2026-04-05T15:48:48.103Z</time></trkpt><trkpt lat="43.4710117" lon="10.853345"><ele>199.25</ele><time>2026-04-05T15:48:49.103Z</time></trkpt><trkpt lat="43.4709733" lon="10.8535417"><ele>200.5</ele><time>2026-04-05T15:48:50.103Z</time></trkpt><trkpt lat="43.47094" lon="10.8537383"><ele>201.75</ele><time>2026-04-05T15:48:51.103Z</time></trkpt><trkpt lat="43.470915" lon="10.8539317"><ele>203.0</ele><time>2026-04-05T15:48:52.103Z</time></trkpt><trkpt lat="43.4709133" lon="10.8541217"><ele>204.75</ele><time>2026-04-05T15:48:53.103Z</time></trkpt><trkpt lat="43.470935" lon="10.8543133"><ele>206.5</ele><time>2026-04-05T15:48:54.102Z</time></trkpt><trkpt lat="43.4709683" lon="10.8544967"><ele>208.25</ele><time>2026-04-05T15:48:55.103Z</time></trkpt><trkpt lat="43.471005" lon="10.8546783"><ele>210.0</ele><time>2026-04-05T15:48:56.103Z</time></trkpt><trkpt lat="43.4710417" lon="10.85486"><ele>210.66666666666669</ele><time>2026-04-05T15:48:57.103Z</time></trkpt><trkpt lat="43.471105" lon="10.8552367"><ele>211.33333333333334</ele><time>2026-04-05T15:48:59.103Z</time></trkpt><trkpt lat="43.4711333" lon="10.8554217"><ele>212.0</ele><time>2026-04-05T15:49:00.103Z</time></trkpt><trkpt lat="43.4711517" lon="10.8556067"><ele>212.0</ele><time>2026-04-05T15:49:01.103Z</time></trkpt><trkpt lat="43.4711617" lon="10.85579"><ele>212.0</ele><time>2026-04-05T15:49:02.102Z</time></trkpt><trkpt lat="43.47116" lon="10.8559733"><ele>212.0</ele><time>2026-04-05T15:49:03.103Z</time></trkpt><trkpt lat="43.4711517" lon="10.8561583"><ele>212.0</ele><time>2026-04-05T15:49:04.103Z</time></trkpt><trkpt lat="43.4711333" lon="10.8563417"><ele>211.0</ele><time>2026-04-05T15:49:05.103Z</time></trkpt><trkpt lat="43.47111" lon="10.856525"><ele>210.0</ele><time>2026-04-05T15:49:06.103Z</time></trkpt><trkpt lat="43.4710867" lon="10.85671"><ele>209.0</ele><time>2026-04-05T15:49:07.103Z</time></trkpt><trkpt lat="43.471065" lon="10.856895"><ele>208.0</ele><time>2026-04-05T15:49:08.103Z</time></trkpt><trkpt lat="43.4710533" lon="10.8570833"><ele>206.5</ele><time>2026-04-05T15:49:09.103Z</time></trkpt><trkpt lat="43.47106" lon="10.8572717"><ele>205.0</ele><time>2026-04-05T15:49:10.103Z</time></trkpt><trkpt lat="43.4710817" lon="10.85746"><ele>203.5</ele><time>2026-04-05T15:49:11.103Z</time></trkpt><trkpt lat="43.4711117" lon="10.8576417"><ele>202.0</ele><time>2026-04-05T15:49:12.103Z</time></trkpt><trkpt lat="43.4711483" lon="10.8578183"><ele>201.5</ele><time>2026-04-05T15:49:13.103Z</time></trkpt><trkpt lat="43.4711867" lon="10.8579933"><ele>201.0</ele><time>2026-04-05T15:49:14.103Z</time></trkpt><trkpt lat="43.4712317" lon="10.858165"><ele>200.5</ele><time>2026-04-05T15:49:15.103Z</time></trkpt><trkpt lat="43.4712733" lon="10.85834"><ele>200.0</ele><time>2026-04-05T15:49:16.103Z</time></trkpt><trkpt lat="43.4713167" lon="10.8585217"><ele>201.33333333333334</ele><time>2026-04-05T15:49:17.103Z</time></trkpt><trkpt lat="43.4713983" lon="10.8589067"><ele>202.66666666666669</ele><time>2026-04-05T15:49:19.103Z</time></trkpt><trkpt lat="43.47144" lon="10.8591083"><ele>204.0</ele><time>2026-04-05T15:49:20.103Z</time></trkpt><trkpt lat="43.4714833" lon="10.8593067"><ele>204.75</ele><time>2026-04-05T15:49:21.103Z</time></trkpt><trkpt lat="43.4715283" lon="10.859505"><ele>205.5</ele><time>2026-04-05T15:49:22.103Z</time></trkpt><trkpt lat="43.4715733" lon="10.8597017"><ele>206.25</ele><time>2026-04-05T15:49:23.103Z</time></trkpt><trkpt lat="43.4716233" lon="10.859895"><ele>207.0</ele><time>2026-04-05T15:49:24.103Z</time></trkpt><trkpt lat="43.4716833" lon="10.8600833"><ele>207.75</ele><time>2026-04-05T15:49:25.103Z</time></trkpt><trkpt lat="43.471745" lon="10.860265"><ele>208.5</ele><time>2026-04-05T15:49:26.103Z</time></trkpt><trkpt lat="43.4718117" lon="10.86044"><ele>209.25</ele><time>2026-04-05T15:49:27.103Z</time></trkpt><trkpt lat="43.4718817" lon="10.8606117"><ele>210.0</ele><time>2026-04-05T15:49:28.103Z</time></trkpt><trkpt lat="43.4719517" lon="10.8607783"><ele>210.0</ele><time>2026-04-05T15:49:29.103Z</time></trkpt><trkpt lat="43.4720133" lon="10.8609517"><ele>210.0</ele><time>2026-04-05T15:49:30.103Z</time></trkpt><trkpt lat="43.4720617" lon="10.86113"><ele>210.0</ele><time>2026-04-05T15:49:31.103Z</time></trkpt><trkpt lat="43.4720983" lon="10.8613133"><ele>210.0</ele><time>2026-04-05T15:49:32.103Z</time></trkpt><trkpt lat="43.4721183" lon="10.8615017"><ele>209.25</ele><time>2026-04-05T15:49:33.103Z</time></trkpt><trkpt lat="43.472125" lon="10.861695"><ele>208.5</ele><time>2026-04-05T15:49:34.103Z</time></trkpt><trkpt lat="43.4721217" lon="10.8618917"><ele>207.75</ele><time>2026-04-05T15:49:35.103Z</time></trkpt><trkpt lat="43.47211" lon="10.862085"><ele>207.0</ele><time>2026-04-05T15:49:36.103Z</time></trkpt><trkpt lat="43.472095" lon="10.8622767"><ele>207.0</ele><time>2026-04-05T15:49:37.103Z</time></trkpt><trkpt lat="43.4720817" lon="10.86247"><ele>207.0</ele><time>2026-04-05T15:49:38.103Z</time></trkpt><trkpt lat="43.4720767" lon="10.86266"><ele>207.0</ele><time>2026-04-05T15:49:39.103Z</time></trkpt><trkpt lat="43.472075" lon="10.8628433"><ele>207.0</ele><time>2026-04-05T15:49:40.103Z</time></trkpt><trkpt lat="43.4720733" lon="10.8630267"><ele>206.5</ele><time>2026-04-05T15:49:41.103Z</time></trkpt><trkpt lat="43.47207" lon="10.8632033"><ele>206.0</ele><time>2026-04-05T15:49:42.103Z</time></trkpt><trkpt lat="43.4720667" lon="10.8633783"><ele>205.5</ele><time>2026-04-05T15:49:43.103Z</time></trkpt><trkpt lat="43.472075" lon="10.8635533"><ele>205.0</ele><time>2026-04-05T15:49:44.103Z</time></trkpt><trkpt lat="43.472105" lon="10.86373"><ele>205.5</ele><time>2026-04-05T15:49:45.103Z</time></trkpt><trkpt lat="43.4721533" lon="10.8639033"><ele>206.0</ele><time>2026-04-05T15:49:46.103Z</time></trkpt><trkpt lat="43.4722217" lon="10.8640717"><ele>206.5</ele><time>2026-04-05T15:49:47.103Z</time></trkpt><trkpt lat="43.4723083" lon="10.8642233"><ele>207.0</ele><time>2026-04-05T15:49:48.104Z</time></trkpt><trkpt lat="43.47241" lon="10.864375"><ele>208.33333333333331</ele><time>2026-04-05T15:49:49.103Z</time></trkpt><trkpt lat="43.4725183" lon="10.8645383"><ele>209.66666666666666</ele><time>2026-04-05T15:49:50.104Z</time></trkpt><trkpt lat="43.472625" lon="10.86472"><ele>211.0</ele><time>2026-04-05T15:49:51.103Z</time></trkpt><trkpt lat="43.4727333" lon="10.864915"><ele>211.0</ele><time>2026-04-05T15:49:52.104Z</time></trkpt><trkpt lat="43.472835" lon="10.865105"><ele>211.0</ele><time>2026-04-05T15:49:53.103Z</time></trkpt><trkpt lat="43.4729367" lon="10.865295"><ele>211.0</ele><time>2026-04-05T15:49:54.103Z</time></trkpt><trkpt lat="43.47304" lon="10.8654817"><ele>211.0</ele><time>2026-04-05T15:49:55.103Z</time></trkpt><trkpt lat="43.4731433" lon="10.8656633"><ele>211.0</ele><time>2026-04-05T15:49:56.104Z</time></trkpt><trkpt lat="43.47325" lon="10.8658417"><ele>211.0</ele><time>2026-04-05T15:49:57.103Z</time></trkpt><trkpt lat="43.4733567" lon="10.866015"><ele>210.66666666666666</ele><time>2026-04-05T15:49:58.104Z</time></trkpt><trkpt lat="43.47346" lon="10.8661883"><ele>210.33333333333331</ele><time>2026-04-05T15:49:59.104Z</time></trkpt><trkpt lat="43.47356" lon="10.866365"><ele>210.0</ele><time>2026-04-05T15:50:00.104Z</time></trkpt><trkpt lat="43.4736633" lon="10.86654"><ele>210.0</ele><time>2026-04-05T15:50:01.104Z</time></trkpt><trkpt lat="43.4737667" lon="10.8667117"><ele>210.0</ele><time>2026-04-05T15:50:02.104Z</time></trkpt><trkpt lat="43.4738667" lon="10.8668817"><ele>210.0</ele><time>2026-04-05T15:50:03.103Z</time></trkpt><trkpt lat="43.4739667" lon="10.86705"><ele>211.0</ele><time>2026-04-05T15:50:04.104Z</time></trkpt><trkpt lat="43.4740683" lon="10.867215"><ele>212.0</ele><time>2026-04-05T15:50:05.104Z</time></trkpt><trkpt lat="43.47417" lon="10.8673767"><ele>213.0</ele><time>2026-04-05T15:50:06.104Z</time></trkpt><trkpt lat="43.47427" lon="10.8675417"><ele>212.5</ele><time>2026-04-05T15:50:07.104Z</time></trkpt><trkpt lat="43.4743633" lon="10.8677017"><ele>212.0</ele><time>2026-04-05T15:50:08.104Z</time></trkpt><trkpt lat="43.4744517" lon="10.867865"><ele>211.5</ele><time>2026-04-05T15:50:09.104Z</time></trkpt><trkpt lat="43.4745317" lon="10.8680367"><ele>211.0</ele><time>2026-04-05T15:50:10.104Z</time></trkpt><trkpt lat="43.474605" lon="10.8682083"><ele>212.0</ele><time>2026-04-05T15:50:11.104Z</time></trkpt><trkpt lat="43.4746717" lon="10.868385"><ele>213.0</ele><time>2026-04-05T15:50:12.104Z</time></trkpt><trkpt lat="43.4747217" lon="10.8685683"><ele>214.0</ele><time>2026-04-05T15:50:13.104Z</time></trkpt><trkpt lat="43.474765" lon="10.8687633"><ele>215.0</ele><time>2026-04-05T15:50:14.104Z</time></trkpt><trkpt lat="43.4748033" lon="10.868955"><ele>216.0</ele><time>2026-04-05T15:50:15.104Z</time></trkpt><trkpt lat="43.4748367" lon="10.8691433"><ele>217.0</ele><time>2026-04-05T15:50:16.104Z</time></trkpt><trkpt lat="43.4748717" lon="10.869335"><ele>218.0</ele><time>2026-04-05T15:50:17.104Z</time></trkpt><trkpt lat="43.4749067" lon="10.8695283"><ele>219.0</ele><time>2026-04-05T15:50:18.104Z</time></trkpt><trkpt lat="43.47494" lon="10.8697283"><ele>219.0</ele><time>2026-04-05T15:50:19.104Z</time></trkpt><trkpt lat="43.474975" lon="10.8699333"><ele>219.0</ele><time>2026-04-05T15:50:20.104Z</time></trkpt><trkpt lat="43.4750083" lon="10.8701367"><ele>219.0</ele><time>2026-04-05T15:50:21.104Z</time></trkpt><trkpt lat="43.4750433" lon="10.870335"><ele>218.66666666666669</ele><time>2026-04-05T15:50:22.104Z</time></trkpt><trkpt lat="43.4750783" lon="10.8705367"><ele>218.33333333333334</ele><time>2026-04-05T15:50:23.104Z</time></trkpt><trkpt lat="43.4751133" lon="10.87074"><ele>218.0</ele><time>2026-04-05T15:50:24.104Z</time></trkpt><trkpt lat="43.4751483" lon="10.8709467"><ele>217.0</ele><time>2026-04-05T15:50:25.104Z</time></trkpt><trkpt lat="43.4751883" lon="10.8711533"><ele>216.0</ele><time>2026-04-05T15:50:26.104Z</time></trkpt><trkpt lat="43.475235" lon="10.871355"><ele>215.0</ele><time>2026-04-05T15:50:27.104Z</time></trkpt><trkpt lat="43.475295" lon="10.8715467"><ele>215.0</ele><time>2026-04-05T15:50:28.104Z</time></trkpt><trkpt lat="43.4753633" lon="10.8717367"><ele>215.0</ele><time>2026-04-05T15:50:29.104Z</time></trkpt><trkpt lat="43.4754317" lon="10.87192"><ele>215.0</ele><time>2026-04-05T15:50:30.104Z</time></trkpt><trkpt lat="43.475505" lon="10.8721017"><ele>215.66666666666669</ele><time>2026-04-05T15:50:31.104Z</time></trkpt><trkpt lat="43.475585" lon="10.8722817"><ele>216.33333333333331</ele><time>2026-04-05T15:50:32.104Z</time></trkpt><trkpt lat="43.47567" lon="10.8724567"><ele>217.0</ele><time>2026-04-05T15:50:33.104Z</time></trkpt><trkpt lat="43.4757667" lon="10.872615"><ele>217.0</ele><time>2026-04-05T15:50:34.104Z</time></trkpt><trkpt lat="43.475875" lon="10.8727567"><ele>217.0</ele><time>2026-04-05T15:50:35.103Z</time></trkpt><trkpt lat="43.4759933" lon="10.8728867"><ele>217.0</ele><time>2026-04-05T15:50:36.104Z</time></trkpt><trkpt lat="43.4761133" lon="10.8730167"><ele>217.0</ele><time>2026-04-05T15:50:37.104Z</time></trkpt><trkpt lat="43.4762367" lon="10.8731483"><ele>217.0</ele><time>2026-04-05T15:50:38.104Z</time></trkpt><trkpt lat="43.4763617" lon="10.873275"><ele>217.0</ele><time>2026-04-05T15:50:39.104Z</time></trkpt><trkpt lat="43.476485" lon="10.873405"><ele>221.66666666666666</ele><time>2026-04-05T15:50:40.104Z</time></trkpt><trkpt lat="43.476605" lon="10.873535"><ele>226.33333333333331</ele><time>2026-04-05T15:50:41.104Z</time></trkpt><trkpt lat="43.4767233" lon="10.8736617"><ele>231.0</ele><time>2026-04-05T15:50:42.104Z</time></trkpt><trkpt lat="43.4768433" lon="10.8737867"><ele>231.0</ele><time>2026-04-05T15:50:43.104Z</time></trkpt><trkpt lat="43.476965" lon="10.87391"><ele>231.0</ele><time>2026-04-05T15:50:44.103Z</time></trkpt><trkpt lat="43.4770883" lon="10.8740317"><ele>231.0</ele><time>2026-04-05T15:50:45.104Z</time></trkpt><trkpt lat="43.4772117" lon="10.8741533"><ele>231.33333333333331</ele><time>2026-04-05T15:50:46.104Z</time></trkpt><trkpt lat="43.4773367" lon="10.8742683"><ele>231.66666666666666</ele><time>2026-04-05T15:50:47.104Z</time></trkpt><trkpt lat="43.4774667" lon="10.874375"><ele>232.0</ele><time>2026-04-05T15:50:48.104Z</time></trkpt><trkpt lat="43.4776033" lon="10.87447"><ele>235.0</ele><time>2026-04-05T15:50:49.104Z</time></trkpt><trkpt lat="43.4777417" lon="10.8745633"><ele>238.0</ele><time>2026-04-05T15:50:50.104Z</time></trkpt><trkpt lat="43.4778783" lon="10.8746567"><ele>241.0</ele><time>2026-04-05T15:50:51.104Z</time></trkpt><trkpt lat="43.47802" lon="10.8747467"><ele>241.66666666666666</ele><time>2026-04-05T15:50:52.104Z</time></trkpt><trkpt lat="43.4781583" lon="10.8748333"><ele>242.33333333333331</ele><time>2026-04-05T15:50:53.103Z</time></trkpt><trkpt lat="43.4782917" lon="10.87492"><ele>243.0</ele><time>2026-04-05T15:50:54.104Z</time></trkpt><trkpt lat="43.4784283" lon="10.875015"><ele>244.5</ele><time>2026-04-05T15:50:55.104Z</time></trkpt><trkpt lat="43.4785617" lon="10.875105"><ele>246.0</ele><time>2026-04-05T15:50:56.104Z</time></trkpt><trkpt lat="43.4786983" lon="10.8751917"><ele>247.5</ele><time>2026-04-05T15:50:57.104Z</time></trkpt><trkpt lat="43.4788317" lon="10.8752767"><ele>249.0</ele><time>2026-04-05T15:50:58.104Z</time></trkpt><trkpt lat="43.4789533" lon="10.87537"><ele>249.0</ele><time>2026-04-05T15:50:59.104Z</time></trkpt><trkpt lat="43.4790567" lon="10.8754833"><ele>249.0</ele><time>2026-04-05T15:51:00.104Z</time></trkpt><trkpt lat="43.479135" lon="10.8756167"><ele>249.0</ele><time>2026-04-05T15:51:01.104Z</time></trkpt><trkpt lat="43.4791833" lon="10.8757733"><ele>249.0</ele><time>2026-04-05T15:51:02.104Z</time></trkpt><trkpt lat="43.4792167" lon="10.8759383"><ele>249.75</ele><time>2026-04-05T15:51:03.104Z</time></trkpt><trkpt lat="43.4792433" lon="10.8761067"><ele>250.5</ele><time>2026-04-05T15:51:04.104Z</time></trkpt><trkpt lat="43.4792633" lon="10.8762817"><ele>251.25</ele><time>2026-04-05T15:51:05.104Z</time></trkpt><trkpt lat="43.4792833" lon="10.87646"><ele>252.0</ele><time>2026-04-05T15:51:06.104Z</time></trkpt><trkpt lat="43.479305" lon="10.87664"><ele>252.0</ele><time>2026-04-05T15:51:07.104Z</time></trkpt><trkpt lat="43.4793417" lon="10.876815"><ele>252.0</ele><time>2026-04-05T15:51:08.104Z</time></trkpt><trkpt lat="43.479395" lon="10.87699"><ele>252.0</ele><time>2026-04-05T15:51:09.104Z</time></trkpt><trkpt lat="43.4794633" lon="10.8771633"><ele>252.0</ele><time>2026-04-05T15:51:10.104Z</time></trkpt><trkpt lat="43.479535" lon="10.8773433"><ele>252.0</ele><time>2026-04-05T15:51:11.104Z</time></trkpt><trkpt lat="43.4796083" lon="10.87753"><ele>252.0</ele><time>2026-04-05T15:51:12.104Z</time></trkpt><trkpt lat="43.4796867" lon="10.8777117"><ele>252.0</ele><time>2026-04-05T15:51:13.103Z</time></trkpt><trkpt lat="43.4797667" lon="10.8778933"><ele>252.0</ele><time>2026-04-05T15:51:14.104Z</time></trkpt><trkpt lat="43.4798483" lon="10.878065"><ele>252.0</ele><time>2026-04-05T15:51:15.104Z</time></trkpt><trkpt lat="43.4799267" lon="10.8782317"><ele>252.0</ele><time>2026-04-05T15:51:16.104Z</time></trkpt><trkpt lat="43.480005" lon="10.878395"><ele>252.0</ele><time>2026-04-05T15:51:17.104Z</time></trkpt><trkpt lat="43.4800817" lon="10.8785583"><ele>254.25</ele><time>2026-04-05T15:51:18.104Z</time></trkpt><trkpt lat="43.480155" lon="10.87872"><ele>256.5</ele><time>2026-04-05T15:51:19.104Z</time></trkpt><trkpt lat="43.4802267" lon="10.8788817"><ele>258.75</ele><time>2026-04-05T15:51:20.104Z</time></trkpt><trkpt lat="43.480295" lon="10.87904"><ele>261.0</ele><time>2026-04-05T15:51:21.104Z</time></trkpt><trkpt lat="43.480365" lon="10.8791933"><ele>261.25</ele><time>2026-04-05T15:51:22.104Z</time></trkpt><trkpt lat="43.4804283" lon="10.8793433"><ele>261.5</ele><time>2026-04-05T15:51:23.104Z</time></trkpt><trkpt lat="43.4804917" lon="10.8794867"><ele>261.75</ele><time>2026-04-05T15:51:24.104Z</time></trkpt><trkpt lat="43.480555" lon="10.8796267"><ele>262.0</ele><time>2026-04-05T15:51:25.104Z</time></trkpt><trkpt lat="43.4806167" lon="10.8797633"><ele>262.0</ele><time>2026-04-05T15:51:26.104Z</time></trkpt><trkpt lat="43.48067" lon="10.8798883"><ele>262.0</ele><time>2026-04-05T15:51:27.104Z</time></trkpt><trkpt lat="43.4807117" lon="10.8799983"><ele>262.0</ele><time>2026-04-05T15:51:28.104Z</time></trkpt><trkpt lat="43.4807633" lon="10.8801167"><ele>262.0</ele><time>2026-04-05T15:51:30.104Z</time></trkpt><trkpt lat="43.4807767" lon="10.8800033"><ele>262.0</ele><time>2026-04-05T15:51:38.104Z</time></trkpt><trkpt lat="43.4807417" lon="10.87993"><ele>262.0</ele><time>2026-04-05T15:51:39.104Z</time></trkpt><trkpt lat="43.4807" lon="10.8798417"><ele>262.0</ele><time>2026-04-05T15:51:40.104Z</time></trkpt><trkpt lat="43.4806517" lon="10.8797433"><ele>262.0</ele><time>2026-04-05T15:51:41.104Z</time></trkpt><trkpt lat="43.4805967" lon="10.8796333"><ele>262.0</ele><time>2026-04-05T15:51:42.104Z</time></trkpt><trkpt lat="43.4805483" lon="10.8795117"><ele>262.0</ele><time>2026-04-05T15:51:43.104Z</time></trkpt><trkpt lat="43.4804933" lon="10.87939"><ele>262.0</ele><time>2026-04-05T15:51:44.104Z</time></trkpt><trkpt lat="43.480435" lon="10.8792667"><ele>261.8</ele><time>2026-04-05T15:51:45.104Z</time></trkpt><trkpt lat="43.48038" lon="10.8791417"><ele>261.6</ele><time>2026-04-05T15:51:46.104Z</time></trkpt><trkpt lat="43.4803283" lon="10.8790217"><ele>261.40000000000003</ele><time>2026-04-05T15:51:47.104Z</time></trkpt><trkpt lat="43.480275" lon="10.8789083"><ele>261.2</ele><time>2026-04-05T15:51:48.104Z</time></trkpt><trkpt lat="43.4802267" lon="10.8788"><ele>261.0</ele><time>2026-04-05T15:51:49.104Z</time></trkpt><trkpt lat="43.48018" lon="10.8787133"><ele>261.0</ele><time>2026-04-05T15:51:50.104Z</time></trkpt><trkpt lat="43.48014" lon="10.8786383"><ele>261.0</ele><time>2026-04-05T15:51:51.104Z</time></trkpt><trkpt lat="43.4800867" lon="10.8785317"><ele>261.0</ele><time>2026-04-05T15:51:53.104Z</time></trkpt><trkpt lat="43.4800333" lon="10.878445"><ele>261.0</ele><time>2026-04-05T15:52:30.104Z</time></trkpt><trkpt lat="43.4799633" lon="10.8783283"><ele>261.0</ele><time>2026-04-05T15:52:32.104Z</time></trkpt><trkpt lat="43.479925" lon="10.8782433"><ele>261.0</ele><time>2026-04-05T15:52:33.104Z</time></trkpt><trkpt lat="43.4798817" lon="10.87815"><ele>259.2</ele><time>2026-04-05T15:52:34.104Z</time></trkpt><trkpt lat="43.4798317" lon="10.87805"><ele>257.40000000000003</ele><time>2026-04-05T15:52:35.104Z</time></trkpt><trkpt lat="43.4797783" lon="10.877935"><ele>255.6</ele><time>2026-04-05T15:52:36.103Z</time></trkpt><trkpt lat="43.4797217" lon="10.8778133"><ele>253.8</ele><time>2026-04-05T15:52:37.104Z</time></trkpt><trkpt lat="43.47966" lon="10.8776817"><ele>252.0</ele><time>2026-04-05T15:52:38.104Z</time></trkpt><trkpt lat="43.479595" lon="10.8775417"><ele>252.0</ele><time>2026-04-05T15:52:39.104Z</time></trkpt><trkpt lat="43.4795333" lon="10.8773983"><ele>252.0</ele><time>2026-04-05T15:52:40.104Z</time></trkpt><trkpt lat="43.479475" lon="10.87725"><ele>252.0</ele><time>2026-04-05T15:52:41.104Z</time></trkpt><trkpt lat="43.4794233" lon="10.8770917"><ele>252.0</ele><time>2026-04-05T15:52:42.104Z</time></trkpt><trkpt lat="43.4793783" lon="10.87692"><ele>252.0</ele><time>2026-04-05T15:52:43.104Z</time></trkpt><trkpt lat="43.479345" lon="10.8767433"><ele>252.0</ele><time>2026-04-05T15:52:44.104Z</time></trkpt><trkpt lat="43.479325" lon="10.8765583"><ele>252.0</ele><time>2026-04-05T15:52:45.104Z</time></trkpt><trkpt lat="43.47931" lon="10.8763717"><ele>252.0</ele><time>2026-04-05T15:52:46.104Z</time></trkpt><trkpt lat="43.4792983" lon="10.8761883"><ele>252.0</ele><time>2026-04-05T15:52:47.104Z</time></trkpt><trkpt lat="43.479285" lon="10.87601"><ele>252.0</ele><time>2026-04-05T15:52:48.104Z</time></trkpt><trkpt lat="43.4792567" lon="10.87584"><ele>252.0</ele><time>2026-04-05T15:52:49.104Z</time></trkpt><trkpt lat="43.479205" lon="10.87568"><ele>252.0</ele><time>2026-04-05T15:52:50.104Z</time></trkpt><trkpt lat="43.479125" lon="10.8755383"><ele>252.0</ele><time>2026-04-05T15:52:51.104Z</time></trkpt><trkpt lat="43.479025" lon="10.875425"><ele>252.0</ele><time>2026-04-05T15:52:52.104Z</time></trkpt><trkpt lat="43.47891" lon="10.8753283"><ele>252.0</ele><time>2026-04-05T15:52:53.104Z</time></trkpt><trkpt lat="43.4787817" lon="10.8752367"><ele>252.0</ele><time>2026-04-05T15:52:54.104Z</time></trkpt><trkpt lat="43.4786467" lon="10.8751517"><ele>249.0</ele><time>2026-04-05T15:52:55.104Z</time></trkpt><trkpt lat="43.4785083" lon="10.87506"><ele>246.0</ele><time>2026-04-05T15:52:56.104Z</time></trkpt><trkpt lat="43.4783733" lon="10.8749617"><ele>243.0</ele><time>2026-04-05T15:52:57.104Z</time></trkpt><trkpt lat="43.4782367" lon="10.87487"><ele>243.0</ele><time>2026-04-05T15:52:58.104Z</time></trkpt><trkpt lat="43.4781" lon="10.8747783"><ele>243.0</ele><time>2026-04-05T15:52:59.104Z</time></trkpt><trkpt lat="43.4779633" lon="10.8746833"><ele>243.0</ele><time>2026-04-05T15:53:00.104Z</time></trkpt><trkpt lat="43.477825" lon="10.8745867"><ele>242.33333333333331</ele><time>2026-04-05T15:53:01.104Z</time></trkpt><trkpt lat="43.4776867" lon="10.8744867"><ele>241.66666666666666</ele><time>2026-04-05T15:53:02.104Z</time></trkpt><trkpt lat="43.4775483" lon="10.8743767"><ele>241.0</ele><time>2026-04-05T15:53:03.104Z</time></trkpt><trkpt lat="43.47741" lon="10.8742617"><ele>238.0</ele><time>2026-04-05T15:53:04.104Z</time></trkpt><trkpt lat="43.4772733" lon="10.8741383"><ele>235.0</ele><time>2026-04-05T15:53:05.104Z</time></trkpt><trkpt lat="43.4771433" lon="10.8740083"><ele>232.0</ele><time>2026-04-05T15:53:06.104Z</time></trkpt><trkpt lat="43.4770133" lon="10.8738817"><ele>231.66666666666666</ele><time>2026-04-05T15:53:07.104Z</time></trkpt><trkpt lat="43.4768867" lon="10.8737567"><ele>231.33333333333331</ele><time>2026-04-05T15:53:08.104Z</time></trkpt><trkpt lat="43.4767617" lon="10.8736317"><ele>231.0</ele><time>2026-04-05T15:53:09.104Z</time></trkpt><trkpt lat="43.4766367" lon="10.8735133"><ele>229.33333333333331</ele><time>2026-04-05T15:53:10.104Z</time></trkpt><trkpt lat="43.4765133" lon="10.8733917"><ele>227.66666666666666</ele><time>2026-04-05T15:53:11.104Z</time></trkpt><trkpt lat="43.4763917" lon="10.8732667"><ele>226.0</ele><time>2026-04-05T15:53:12.104Z</time></trkpt><trkpt lat="43.47627" lon="10.8731417"><ele>223.0</ele><time>2026-04-05T15:53:13.104Z</time></trkpt><trkpt lat="43.4761483" lon="10.87302"><ele>220.0</ele><time>2026-04-05T15:53:14.104Z</time></trkpt><trkpt lat="43.4760267" lon="10.8728967"><ele>217.0</ele><time>2026-04-05T15:53:15.104Z</time></trkpt><trkpt lat="43.4759117" lon="10.8727667"><ele>217.0</ele><time>2026-04-05T15:53:16.104Z</time></trkpt><trkpt lat="43.47581" lon="10.87262"><ele>217.0</ele><time>2026-04-05T15:53:17.104Z</time></trkpt><trkpt lat="43.47572" lon="10.8724633"><ele>217.0</ele><time>2026-04-05T15:53:18.104Z</time></trkpt><trkpt lat="43.47564" lon="10.8722967"><ele>217.0</ele><time>2026-04-05T15:53:19.104Z</time></trkpt><trkpt lat="43.4755633" lon="10.8721233"><ele>216.5</ele><time>2026-04-05T15:53:20.104Z</time></trkpt><trkpt lat="43.47549" lon="10.8719517"><ele>216.0</ele><time>2026-04-05T15:53:21.104Z</time></trkpt><trkpt lat="43.4754183" lon="10.8717833"><ele>215.5</ele><time>2026-04-05T15:53:22.104Z</time></trkpt><trkpt lat="43.4753533" lon="10.8716117"><ele>215.0</ele><time>2026-04-05T15:53:23.104Z</time></trkpt><trkpt lat="43.4753" lon="10.8714383"><ele>215.0</ele><time>2026-04-05T15:53:24.104Z</time></trkpt><trkpt lat="43.4752483" lon="10.8712567"><ele>215.0</ele><time>2026-04-05T15:53:25.104Z</time></trkpt><trkpt lat="43.475205" lon="10.8710583"><ele>215.0</ele><time>2026-04-05T15:53:26.104Z</time></trkpt><trkpt lat="43.4751683" lon="10.8708533"><ele>215.0</ele><time>2026-04-05T15:53:27.104Z</time></trkpt><trkpt lat="43.4751317" lon="10.8706433"><ele>216.0</ele><time>2026-04-05T15:53:28.104Z</time></trkpt><trkpt lat="43.4750917" lon="10.870435"><ele>217.0</ele><time>2026-04-05T15:53:29.104Z</time></trkpt><trkpt lat="43.4750517" lon="10.8702183"><ele>218.0</ele><time>2026-04-05T15:53:30.104Z</time></trkpt><trkpt lat="43.4750117" lon="10.87"><ele>218.33333333333334</ele><time>2026-04-05T15:53:31.104Z</time></trkpt><trkpt lat="43.4749717" lon="10.8697783"><ele>218.66666666666669</ele><time>2026-04-05T15:53:32.104Z</time></trkpt><trkpt lat="43.4749283" lon="10.86956"><ele>219.0</ele><time>2026-04-05T15:53:33.104Z</time></trkpt><trkpt lat="43.47489" lon="10.8693367"><ele>219.0</ele><time>2026-04-05T15:53:34.104Z</time></trkpt><trkpt lat="43.47485" lon="10.86911"><ele>219.0</ele><time>2026-04-05T15:53:35.104Z</time></trkpt><trkpt lat="43.47481" lon="10.8688767"><ele>219.0</ele><time>2026-04-05T15:53:36.104Z</time></trkpt><trkpt lat="43.4747633" lon="10.8686467"><ele>217.66666666666669</ele><time>2026-04-05T15:53:37.104Z</time></trkpt><trkpt lat="43.474705" lon="10.8684283"><ele>216.33333333333334</ele><time>2026-04-05T15:53:38.104Z</time></trkpt><trkpt lat="43.4746333" lon="10.86822"><ele>215.0</ele><time>2026-04-05T15:53:39.104Z</time></trkpt><trkpt lat="43.47455" lon="10.8680283"><ele>214.33333333333334</ele><time>2026-04-05T15:53:40.104Z</time></trkpt><trkpt lat="43.4744533" lon="10.867845"><ele>213.66666666666669</ele><time>2026-04-05T15:53:41.104Z</time></trkpt><trkpt lat="43.4743483" lon="10.867665"><ele>213.0</ele><time>2026-04-05T15:53:42.103Z</time></trkpt><trkpt lat="43.474245" lon="10.86748"><ele>213.0</ele><time>2026-04-05T15:53:43.104Z</time></trkpt><trkpt lat="43.4741417" lon="10.867295"><ele>213.0</ele><time>2026-04-05T15:53:44.104Z</time></trkpt><trkpt lat="43.474035" lon="10.8671117"><ele>213.0</ele><time>2026-04-05T15:53:45.104Z</time></trkpt><trkpt lat="43.4739283" lon="10.86693"><ele>213.66666666666669</ele><time>2026-04-05T15:53:46.104Z</time></trkpt><trkpt lat="43.47382" lon="10.8667483"><ele>214.33333333333334</ele><time>2026-04-05T15:53:47.104Z</time></trkpt><trkpt lat="43.473715" lon="10.8665717"><ele>215.0</ele><time>2026-04-05T15:53:48.104Z</time></trkpt><trkpt lat="43.4736117" lon="10.8664"><ele>213.66666666666669</ele><time>2026-04-05T15:53:49.104Z</time></trkpt><trkpt lat="43.4735083" lon="10.866235"><ele>212.33333333333331</ele><time>2026-04-05T15:53:50.104Z</time></trkpt><trkpt lat="43.4734083" lon="10.8660717"><ele>211.0</ele><time>2026-04-05T15:53:51.104Z</time></trkpt><trkpt lat="43.4733133" lon="10.8659067"><ele>211.0</ele><time>2026-04-05T15:53:52.104Z</time></trkpt><trkpt lat="43.4732167" lon="10.8657383"><ele>211.0</ele><time>2026-04-05T15:53:53.104Z</time></trkpt><trkpt lat="43.4731167" lon="10.8655683"><ele>211.0</ele><time>2026-04-05T15:53:54.104Z</time></trkpt><trkpt lat="43.4730133" lon="10.8653967"><ele>211.0</ele><time>2026-04-05T15:53:55.104Z</time></trkpt><trkpt lat="43.4729083" lon="10.8652267"><ele>211.0</ele><time>2026-04-05T15:53:56.104Z</time></trkpt><trkpt lat="43.472805" lon="10.8650517"><ele>211.0</ele><time>2026-04-05T15:53:57.104Z</time></trkpt><trkpt lat="43.4727" lon="10.8648733"><ele>211.0</ele><time>2026-04-05T15:53:58.104Z</time></trkpt><trkpt lat="43.472595" lon="10.8646967"><ele>211.0</ele><time>2026-04-05T15:53:59.104Z</time></trkpt><trkpt lat="43.4724883" lon="10.8645183"><ele>211.0</ele><time>2026-04-05T15:54:00.104Z</time></trkpt><trkpt lat="43.4723867" lon="10.864335"><ele>209.66666666666666</ele><time>2026-04-05T15:54:01.104Z</time></trkpt><trkpt lat="43.47229" lon="10.8641433"><ele>208.33333333333331</ele><time>2026-04-05T15:54:02.104Z</time></trkpt><trkpt lat="43.4722067" lon="10.8639383"><ele>207.0</ele><time>2026-04-05T15:54:03.104Z</time></trkpt><trkpt lat="43.4721467" lon="10.8637183"><ele>207.0</ele><time>2026-04-05T15:54:04.104Z</time></trkpt><trkpt lat="43.472115" lon="10.8634867"><ele>207.0</ele><time>2026-04-05T15:54:05.104Z</time></trkpt><trkpt lat="43.4721083" lon="10.8632517"><ele>207.0</ele><time>2026-04-05T15:54:06.104Z</time></trkpt><trkpt lat="43.4721133" lon="10.8630167"><ele>204.0</ele><time>2026-04-05T15:54:07.104Z</time></trkpt><trkpt lat="43.4721183" lon="10.8625533"><ele>201.0</ele><time>2026-04-05T15:54:09.104Z</time></trkpt><trkpt lat="43.47212" lon="10.8623183"><ele>201.0</ele><time>2026-04-05T15:54:10.104Z</time></trkpt><trkpt lat="43.4721267" lon="10.862085"><ele>201.0</ele><time>2026-04-05T15:54:11.104Z</time></trkpt><trkpt lat="43.47213" lon="10.861855"><ele>201.0</ele><time>2026-04-05T15:54:12.104Z</time></trkpt><trkpt lat="43.4721267" lon="10.861625"><ele>204.0</ele><time>2026-04-05T15:54:13.104Z</time></trkpt><trkpt lat="43.472105" lon="10.8613983"><ele>207.0</ele><time>2026-04-05T15:54:14.104Z</time></trkpt><trkpt lat="43.4720683" lon="10.861175"><ele>210.0</ele><time>2026-04-05T15:54:15.104Z</time></trkpt><trkpt lat="43.472015" lon="10.8609567"><ele>210.0</ele><time>2026-04-05T15:54:16.104Z</time></trkpt><trkpt lat="43.4719517" lon="10.8607383"><ele>210.0</ele><time>2026-04-05T15:54:17.104Z</time></trkpt><trkpt lat="43.4718767" lon="10.8605317"><ele>210.0</ele><time>2026-04-05T15:54:18.104Z</time></trkpt><trkpt lat="43.4717983" lon="10.86033"><ele>210.0</ele><time>2026-04-05T15:54:19.104Z</time></trkpt><trkpt lat="43.4717217" lon="10.860125"><ele>210.0</ele><time>2026-04-05T15:54:20.104Z</time></trkpt><trkpt lat="43.4716567" lon="10.8599167"><ele>210.0</ele><time>2026-04-05T15:54:21.104Z</time></trkpt><trkpt lat="43.4716" lon="10.8597017"><ele>209.0</ele><time>2026-04-05T15:54:22.104Z</time></trkpt><trkpt lat="43.4715433" lon="10.8594767"><ele>208.0</ele><time>2026-04-05T15:54:23.104Z</time></trkpt><trkpt lat="43.4714883" lon="10.8592483"><ele>207.0</ele><time>2026-04-05T15:54:24.104Z</time></trkpt><trkpt lat="43.471435" lon="10.8590183"><ele>206.0</ele><time>2026-04-05T15:54:25.104Z</time></trkpt><trkpt lat="43.4713817" lon="10.8587883"><ele>205.0</ele><time>2026-04-05T15:54:26.104Z</time></trkpt><trkpt lat="43.4713317" lon="10.85856"><ele>204.0</ele><time>2026-04-05T15:54:27.104Z</time></trkpt><trkpt lat="43.4712817" lon="10.8583317"><ele>202.66666666666669</ele><time>2026-04-05T15:54:28.104Z</time></trkpt><trkpt lat="43.4712317" lon="10.8581"><ele>201.33333333333334</ele><time>2026-04-05T15:54:29.104Z</time></trkpt><trkpt lat="43.4711817" lon="10.8578733"><ele>200.0</ele><time>2026-04-05T15:54:30.104Z</time></trkpt><trkpt lat="43.4711383" lon="10.85764"><ele>200.66666666666669</ele><time>2026-04-05T15:54:31.104Z</time></trkpt><trkpt lat="43.4711133" lon="10.8573967"><ele>201.33333333333331</ele><time>2026-04-05T15:54:32.104Z</time></trkpt><trkpt lat="43.4711067" lon="10.8571483"><ele>202.0</ele><time>2026-04-05T15:54:33.104Z</time></trkpt><trkpt lat="43.4711117" lon="10.8569"><ele>204.0</ele><time>2026-04-05T15:54:34.104Z</time></trkpt><trkpt lat="43.4711267" lon="10.856655"><ele>206.0</ele><time>2026-04-05T15:54:35.103Z</time></trkpt><trkpt lat="43.4711517" lon="10.8564117"><ele>208.0</ele><time>2026-04-05T15:54:36.104Z</time></trkpt><trkpt lat="43.4711683" lon="10.8561683"><ele>209.33333333333331</ele><time>2026-04-05T15:54:37.104Z</time></trkpt><trkpt lat="43.47117" lon="10.8559267"><ele>210.66666666666669</ele><time>2026-04-05T15:54:38.104Z</time></trkpt><trkpt lat="43.4711533" lon="10.8556883"><ele>212.0</ele><time>2026-04-05T15:54:39.104Z</time></trkpt><trkpt lat="43.4711217" lon="10.8554467"><ele>212.0</ele><time>2026-04-05T15:54:40.104Z</time></trkpt><trkpt lat="43.471085" lon="10.855205"><ele>212.0</ele><time>2026-04-05T15:54:41.104Z</time></trkpt><trkpt lat="43.4710417" lon="10.8549717"><ele>212.0</ele><time>2026-04-05T15:54:42.104Z</time></trkpt><trkpt lat="43.471" lon="10.8547383"><ele>211.33333333333334</ele><time>2026-04-05T15:54:43.104Z</time></trkpt><trkpt lat="43.470965" lon="10.8545"><ele>210.66666666666669</ele><time>2026-04-05T15:54:44.104Z</time></trkpt><trkpt lat="43.47094" lon="10.8542633"><ele>210.0</ele><time>2026-04-05T15:54:45.104Z</time></trkpt><trkpt lat="43.4709367" lon="10.8540267"><ele>207.66666666666669</ele><time>2026-04-05T15:54:46.104Z</time></trkpt><trkpt lat="43.4709567" lon="10.8537967"><ele>205.33333333333334</ele><time>2026-04-05T15:54:47.104Z</time></trkpt><trkpt lat="43.4709933" lon="10.853575"><ele>203.0</ele><time>2026-04-05T15:54:48.104Z</time></trkpt><trkpt lat="43.4710317" lon="10.8533517"><ele>201.33333333333334</ele><time>2026-04-05T15:54:49.104Z</time></trkpt><trkpt lat="43.471075" lon="10.8531267"><ele>199.66666666666669</ele><time>2026-04-05T15:54:50.104Z</time></trkpt><trkpt lat="43.471125" lon="10.8528967"><ele>198.0</ele><time>2026-04-05T15:54:51.104Z</time></trkpt><trkpt lat="43.4711733" lon="10.8526667"><ele>196.33333333333331</ele><time>2026-04-05T15:54:52.104Z</time></trkpt><trkpt lat="43.4712183" lon="10.8524333"><ele>194.66666666666666</ele><time>2026-04-05T15:54:53.104Z</time></trkpt><trkpt lat="43.471245" lon="10.852195"><ele>193.0</ele><time>2026-04-05T15:54:54.104Z</time></trkpt><trkpt lat="43.47125" lon="10.8519533"><ele>191.33333333333331</ele><time>2026-04-05T15:54:55.104Z</time></trkpt><trkpt lat="43.4712267" lon="10.8517133"><ele>189.66666666666666</ele><time>2026-04-05T15:54:56.104Z</time></trkpt><trkpt lat="43.47119" lon="10.8514767"><ele>188.0</ele><time>2026-04-05T15:54:57.104Z</time></trkpt><trkpt lat="43.47114" lon="10.85124"><ele>188.0</ele><time>2026-04-05T15:54:58.104Z</time></trkpt><trkpt lat="43.4710867" lon="10.8510083"><ele>188.0</ele><time>2026-04-05T15:54:59.104Z</time></trkpt><trkpt lat="43.4710317" lon="10.8507767"><ele>188.0</ele><time>2026-04-05T15:55:00.104Z</time></trkpt><trkpt lat="43.4709767" lon="10.8505383"><ele>188.66666666666666</ele><time>2026-04-05T15:55:01.104Z</time></trkpt><trkpt lat="43.4709233" lon="10.850295"><ele>189.33333333333334</ele><time>2026-04-05T15:55:02.104Z</time></trkpt><trkpt lat="43.47087" lon="10.8500467"><ele>190.0</ele><time>2026-04-05T15:55:03.104Z</time></trkpt><trkpt lat="43.470815" lon="10.8497983"><ele>191.66666666666669</ele><time>2026-04-05T15:55:04.104Z</time></trkpt><trkpt lat="43.4707583" lon="10.8495467"><ele>193.33333333333334</ele><time>2026-04-05T15:55:05.104Z</time></trkpt><trkpt lat="43.4706983" lon="10.8492967"><ele>195.0</ele><time>2026-04-05T15:55:06.104Z</time></trkpt><trkpt lat="43.4706333" lon="10.849055"><ele>197.33333333333331</ele><time>2026-04-05T15:55:07.104Z</time></trkpt><trkpt lat="43.4705667" lon="10.84881"><ele>199.66666666666666</ele><time>2026-04-05T15:55:08.104Z</time></trkpt><trkpt lat="43.4705033" lon="10.84856"><ele>202.0</ele><time>2026-04-05T15:55:09.104Z</time></trkpt><trkpt lat="43.4704333" lon="10.8483167"><ele>198.0</ele><time>2026-04-05T15:55:10.104Z</time></trkpt><trkpt lat="43.4703617" lon="10.8480767"><ele>194.0</ele><time>2026-04-05T15:55:11.104Z</time></trkpt><trkpt lat="43.4702883" lon="10.8478433"><ele>190.0</ele><time>2026-04-05T15:55:12.104Z</time></trkpt><trkpt lat="43.4702133" lon="10.8476133"><ele>190.0</ele><time>2026-04-05T15:55:13.103Z</time></trkpt><trkpt lat="43.47013" lon="10.8473933"><ele>190.0</ele><time>2026-04-05T15:55:14.104Z</time></trkpt><trkpt lat="43.4700433" lon="10.8471833"><ele>190.0</ele><time>2026-04-05T15:55:15.104Z</time></trkpt><trkpt lat="43.4699467" lon="10.8469817"><ele>192.66666666666669</ele><time>2026-04-05T15:55:16.104Z</time></trkpt><trkpt lat="43.46985" lon="10.846785"><ele>195.33333333333334</ele><time>2026-04-05T15:55:17.104Z</time></trkpt><trkpt lat="43.4697467" lon="10.8465983"><ele>198.0</ele><time>2026-04-05T15:55:18.104Z</time></trkpt><trkpt lat="43.4696583" lon="10.8464167"><ele>192.66666666666666</ele><time>2026-04-05T15:55:19.104Z</time></trkpt><trkpt lat="43.46958" lon="10.8462333"><ele>187.33333333333331</ele><time>2026-04-05T15:55:20.104Z</time></trkpt><trkpt lat="43.4695233" lon="10.846035"><ele>182.0</ele><time>2026-04-05T15:55:21.104Z</time></trkpt><trkpt lat="43.4694933" lon="10.8458317"><ele>182.0</ele><time>2026-04-05T15:55:22.104Z</time></trkpt><trkpt lat="43.4694817" lon="10.8456233"><ele>182.0</ele><time>2026-04-05T15:55:23.104Z</time></trkpt><trkpt lat="43.4694867" lon="10.845405"><ele>182.0</ele><time>2026-04-05T15:55:24.104Z</time></trkpt><trkpt lat="43.4694933" lon="10.8451817"><ele>183.0</ele><time>2026-04-05T15:55:25.104Z</time></trkpt><trkpt lat="43.4695033" lon="10.844955"><ele>184.0</ele><time>2026-04-05T15:55:26.104Z</time></trkpt><trkpt lat="43.4695133" lon="10.8447283"><ele>185.0</ele><time>2026-04-05T15:55:27.104Z</time></trkpt><trkpt lat="43.4695233" lon="10.8445033"><ele>184.0</ele><time>2026-04-05T15:55:28.104Z</time></trkpt><trkpt lat="43.4695267" lon="10.8442733"><ele>183.0</ele><time>2026-04-05T15:55:29.104Z</time></trkpt><trkpt lat="43.469515" lon="10.84404"><ele>182.0</ele><time>2026-04-05T15:55:30.104Z</time></trkpt><trkpt lat="43.4694833" lon="10.84381"><ele>182.0</ele><time>2026-04-05T15:55:31.104Z</time></trkpt><trkpt lat="43.46944" lon="10.8435817"><ele>182.0</ele><time>2026-04-05T15:55:32.104Z</time></trkpt><trkpt lat="43.46939" lon="10.8433667"><ele>182.0</ele><time>2026-04-05T15:55:33.104Z</time></trkpt><trkpt lat="43.4693367" lon="10.8431717"><ele>184.25</ele><time>2026-04-05T15:55:34.104Z</time></trkpt><trkpt lat="43.4692833" lon="10.8429867"><ele>186.5</ele><time>2026-04-05T15:55:35.104Z</time></trkpt><trkpt lat="43.4692317" lon="10.842805"><ele>188.75</ele><time>2026-04-05T15:55:36.104Z</time></trkpt><trkpt lat="43.4691767" lon="10.84263"><ele>191.0</ele><time>2026-04-05T15:55:37.103Z</time></trkpt><trkpt lat="43.4691333" lon="10.8424467"><ele>191.25</ele><time>2026-04-05T15:55:38.104Z</time></trkpt><trkpt lat="43.4691067" lon="10.8422533"><ele>191.5</ele><time>2026-04-05T15:55:39.104Z</time></trkpt><trkpt lat="43.4691083" lon="10.8420583"><ele>191.75</ele><time>2026-04-05T15:55:40.104Z</time></trkpt><trkpt lat="43.4691333" lon="10.8418683"><ele>192.0</ele><time>2026-04-05T15:55:41.104Z</time></trkpt><trkpt lat="43.4691817" lon="10.84169"><ele>192.25</ele><time>2026-04-05T15:55:42.104Z</time></trkpt><trkpt lat="43.4692467" lon="10.841505"><ele>192.5</ele><time>2026-04-05T15:55:43.104Z</time></trkpt><trkpt lat="43.4693067" lon="10.8413217"><ele>192.75</ele><time>2026-04-05T15:55:44.104Z</time></trkpt><trkpt lat="43.4693467" lon="10.84113"><ele>193.0</ele><time>2026-04-05T15:55:45.104Z</time></trkpt><trkpt lat="43.4693583" lon="10.84093"><ele>194.66666666666666</ele><time>2026-04-05T15:55:46.104Z</time></trkpt><trkpt lat="43.46935" lon="10.8407283"><ele>196.33333333333331</ele><time>2026-04-05T15:55:47.104Z</time></trkpt><trkpt lat="43.4693183" lon="10.84053"><ele>198.0</ele><time>2026-04-05T15:55:48.103Z</time></trkpt><trkpt lat="43.4692617" lon="10.840325"><ele>195.66666666666666</ele><time>2026-04-05T15:55:49.104Z</time></trkpt><trkpt lat="43.4691917" lon="10.840115"><ele>193.33333333333331</ele><time>2026-04-05T15:55:50.104Z</time></trkpt><trkpt lat="43.46912" lon="10.839905"><ele>191.0</ele><time>2026-04-05T15:55:51.104Z</time></trkpt><trkpt lat="43.4690583" lon="10.8396917"><ele>191.0</ele><time>2026-04-05T15:55:52.104Z</time></trkpt><trkpt lat="43.4690017" lon="10.8394767"><ele>191.0</ele><time>2026-04-05T15:55:53.104Z</time></trkpt><trkpt lat="43.4689367" lon="10.8392683"><ele>191.0</ele><time>2026-04-05T15:55:54.103Z</time></trkpt><trkpt lat="43.4688733" lon="10.83906"><ele>192.0</ele><time>2026-04-05T15:55:55.104Z</time></trkpt><trkpt lat="43.4688133" lon="10.8388517"><ele>193.0</ele><time>2026-04-05T15:55:56.104Z</time></trkpt><trkpt lat="43.4687567" lon="10.838645"><ele>194.0</ele><time>2026-04-05T15:55:57.104Z</time></trkpt><trkpt lat="43.4686917" lon="10.8384467"><ele>194.0</ele><time>2026-04-05T15:55:58.104Z</time></trkpt><trkpt lat="43.4686217" lon="10.83825"><ele>194.0</ele><time>2026-04-05T15:55:59.104Z</time></trkpt><trkpt lat="43.4685433" lon="10.8380583"><ele>194.0</ele><time>2026-04-05T15:56:00.104Z</time></trkpt><trkpt lat="43.4684467" lon="10.8378817"><ele>194.0</ele><time>2026-04-05T15:56:01.103Z</time></trkpt><trkpt lat="43.468345" lon="10.8377067"><ele>194.0</ele><time>2026-04-05T15:56:02.104Z</time></trkpt><trkpt lat="43.46823" lon="10.837555"><ele>194.0</ele><time>2026-04-05T15:56:03.104Z</time></trkpt><trkpt lat="43.46811" lon="10.83741"><ele>192.0</ele><time>2026-04-05T15:56:04.104Z</time></trkpt><trkpt lat="43.4679883" lon="10.8372767"><ele>190.0</ele><time>2026-04-05T15:56:05.104Z</time></trkpt><trkpt lat="43.46786" lon="10.8371583"><ele>188.0</ele><time>2026-04-05T15:56:06.103Z</time></trkpt><trkpt lat="43.4677233" lon="10.8370633"><ele>188.0</ele><time>2026-04-05T15:56:07.104Z</time></trkpt><trkpt lat="43.4675783" lon="10.8369817"><ele>188.0</ele><time>2026-04-05T15:56:08.103Z</time></trkpt><trkpt lat="43.4674233" lon="10.8369083"><ele>188.0</ele><time>2026-04-05T15:56:09.103Z</time></trkpt><trkpt lat="43.4672667" lon="10.8368433"><ele>184.66666666666666</ele><time>2026-04-05T15:56:10.104Z</time></trkpt><trkpt lat="43.4671067" lon="10.8367767"><ele>181.33333333333334</ele><time>2026-04-05T15:56:11.104Z</time></trkpt><trkpt lat="43.4669517" lon="10.8366917"><ele>178.0</ele><time>2026-04-05T15:56:12.104Z</time></trkpt><trkpt lat="43.4668033" lon="10.836595"><ele>178.0</ele><time>2026-04-05T15:56:13.104Z</time></trkpt><trkpt lat="43.46665" lon="10.8364783"><ele>178.0</ele><time>2026-04-05T15:56:14.104Z</time></trkpt><trkpt lat="43.4665033" lon="10.8363467"><ele>178.0</ele><time>2026-04-05T15:56:15.104Z</time></trkpt><trkpt lat="43.466365" lon="10.8362017"><ele>177.0</ele><time>2026-04-05T15:56:16.104Z</time></trkpt><trkpt lat="43.4662383" lon="10.8360417"><ele>176.0</ele><time>2026-04-05T15:56:17.104Z</time></trkpt><trkpt lat="43.46612" lon="10.835875"><ele>175.0</ele><time>2026-04-05T15:56:18.104Z</time></trkpt><trkpt lat="43.466015" lon="10.8356983"><ele>175.0</ele><time>2026-04-05T15:56:19.104Z</time></trkpt><trkpt lat="43.4659167" lon="10.8355167"><ele>175.0</ele><time>2026-04-05T15:56:20.104Z</time></trkpt><trkpt lat="43.46582" lon="10.8353317"><ele>175.0</ele><time>2026-04-05T15:56:21.104Z</time></trkpt><trkpt lat="43.4657233" lon="10.8351483"><ele>172.33333333333334</ele><time>2026-04-05T15:56:22.104Z</time></trkpt><trkpt lat="43.4656233" lon="10.8349617"><ele>169.66666666666666</ele><time>2026-04-05T15:56:23.104Z</time></trkpt><trkpt lat="43.4655283" lon="10.834775"><ele>167.0</ele><time>2026-04-05T15:56:24.104Z</time></trkpt><trkpt lat="43.465435" lon="10.8345833"><ele>166.0</ele><time>2026-04-05T15:56:25.104Z</time></trkpt><trkpt lat="43.4653417" lon="10.83439"><ele>165.0</ele><time>2026-04-05T15:56:26.104Z</time></trkpt><trkpt lat="43.4652483" lon="10.8342033"><ele>164.0</ele><time>2026-04-05T15:56:27.104Z</time></trkpt><trkpt lat="43.4651567" lon="10.834015"><ele>163.66666666666666</ele><time>2026-04-05T15:56:28.104Z</time></trkpt><trkpt lat="43.4650667" lon="10.8338267"><ele>163.33333333333334</ele><time>2026-04-05T15:56:29.104Z</time></trkpt><trkpt lat="43.4649767" lon="10.83364"><ele>163.0</ele><time>2026-04-05T15:56:30.104Z</time></trkpt><trkpt lat="43.464885" lon="10.833455"><ele>162.0</ele><time>2026-04-05T15:56:31.104Z</time></trkpt><trkpt lat="43.464795" lon="10.83327"><ele>161.0</ele><time>2026-04-05T15:56:32.104Z</time></trkpt><trkpt lat="43.4646967" lon="10.833095"><ele>160.0</ele><time>2026-04-05T15:56:33.103Z</time></trkpt><trkpt lat="43.464585" lon="10.8329333"><ele>159.0</ele><time>2026-04-05T15:56:34.104Z</time></trkpt><trkpt lat="43.4644617" lon="10.83279"><ele>158.0</ele><time>2026-04-05T15:56:35.104Z</time></trkpt><trkpt lat="43.4643367" lon="10.8326717"><ele>157.0</ele><time>2026-04-05T15:56:36.104Z</time></trkpt><trkpt lat="43.4642083" lon="10.8325717"><ele>157.0</ele><time>2026-04-05T15:56:37.104Z</time></trkpt><trkpt lat="43.46407" lon="10.8324967"><ele>157.0</ele><time>2026-04-05T15:56:38.104Z</time></trkpt><trkpt lat="43.4639267" lon="10.8324383"><ele>157.0</ele><time>2026-04-05T15:56:39.104Z</time></trkpt><trkpt lat="43.4637817" lon="10.8323917"><ele>157.0</ele><time>2026-04-05T15:56:40.104Z</time></trkpt><trkpt lat="43.463635" lon="10.8323517"><ele>154.0</ele><time>2026-04-05T15:56:41.104Z</time></trkpt><trkpt lat="43.4634883" lon="10.8323133"><ele>151.0</ele><time>2026-04-05T15:56:42.104Z</time></trkpt><trkpt lat="43.46334" lon="10.8322733"><ele>148.0</ele><time>2026-04-05T15:56:43.104Z</time></trkpt><trkpt lat="43.4631917" lon="10.8322317"><ele>148.0</ele><time>2026-04-05T15:56:44.104Z</time></trkpt><trkpt lat="43.4630433" lon="10.83219"><ele>148.0</ele><time>2026-04-05T15:56:45.104Z</time></trkpt><trkpt lat="43.4628983" lon="10.8321433"><ele>148.0</ele><time>2026-04-05T15:56:46.104Z</time></trkpt><trkpt lat="43.462755" lon="10.8320967"><ele>148.0</ele><time>2026-04-05T15:56:47.104Z</time></trkpt><trkpt lat="43.4626117" lon="10.8320483"><ele>144.5</ele><time>2026-04-05T15:56:48.103Z</time></trkpt><trkpt lat="43.46247" lon="10.8319917"><ele>141.0</ele><time>2026-04-05T15:56:49.104Z</time></trkpt><trkpt lat="43.4623283" lon="10.8319317"><ele>137.5</ele><time>2026-04-05T15:56:50.104Z</time></trkpt><trkpt lat="43.4621883" lon="10.8318733"><ele>134.0</ele><time>2026-04-05T15:56:51.104Z</time></trkpt><trkpt lat="43.46205" lon="10.8318117"><ele>133.5</ele><time>2026-04-05T15:56:52.103Z</time></trkpt><trkpt lat="43.46191" lon="10.83175"><ele>133.0</ele><time>2026-04-05T15:56:53.104Z</time></trkpt><trkpt lat="43.4617683" lon="10.8316867"><ele>132.5</ele><time>2026-04-05T15:56:54.104Z</time></trkpt><trkpt lat="43.4616267" lon="10.831625"><ele>132.0</ele><time>2026-04-05T15:56:55.104Z</time></trkpt><trkpt lat="43.4614867" lon="10.8315633"><ele>132.0</ele><time>2026-04-05T15:56:56.103Z</time></trkpt><trkpt lat="43.4613483" lon="10.8315017"><ele>132.0</ele><time>2026-04-05T15:56:57.104Z</time></trkpt><trkpt lat="43.4612083" lon="10.83144"><ele>132.0</ele><time>2026-04-05T15:56:58.104Z</time></trkpt><trkpt lat="43.46107" lon="10.8313767"><ele>132.0</ele><time>2026-04-05T15:56:59.104Z</time></trkpt><trkpt lat="43.460935" lon="10.8313233"><ele>132.0</ele><time>2026-04-05T15:57:00.104Z</time></trkpt><trkpt lat="43.460815" lon="10.8312767"><ele>132.0</ele><time>2026-04-05T15:57:01.104Z</time></trkpt><trkpt lat="43.460705" lon="10.8312317"><ele>132.0</ele><time>2026-04-05T15:57:02.104Z</time></trkpt><trkpt lat="43.46062" lon="10.8311833"><ele>132.0</ele><time>2026-04-05T15:57:03.104Z</time></trkpt><trkpt lat="43.4605617" lon="10.8311317"><ele>132.0</ele><time>2026-04-05T15:57:04.104Z</time></trkpt><trkpt lat="43.4605217" lon="10.83099"><ele>130.25</ele><time>2026-04-05T15:57:06.104Z</time></trkpt><trkpt lat="43.4605883" lon="10.83084"><ele>128.5</ele><time>2026-04-05T15:57:08.104Z</time></trkpt><trkpt lat="43.4606317" lon="10.8307517"><ele>126.75</ele><time>2026-04-05T15:57:09.104Z</time></trkpt><trkpt lat="43.4606733" lon="10.8306367"><ele>125.0</ele><time>2026-04-05T15:57:10.104Z</time></trkpt><trkpt lat="43.4607" lon="10.83014"><ele>124.75</ele><time>2026-04-05T15:57:13.104Z</time></trkpt><trkpt lat="43.4607283" lon="10.8299783"><ele>124.5</ele><time>2026-04-05T15:57:14.104Z</time></trkpt><trkpt lat="43.4607883" lon="10.8298333"><ele>124.25</ele><time>2026-04-05T15:57:15.104Z</time></trkpt><trkpt lat="43.4608717" lon="10.82971"><ele>124.0</ele><time>2026-04-05T15:57:16.104Z</time></trkpt><trkpt lat="43.4609667" lon="10.8296033"><ele>124.0</ele><time>2026-04-05T15:57:17.104Z</time></trkpt><trkpt lat="43.46107" lon="10.8294967"><ele>124.0</ele><time>2026-04-05T15:57:18.103Z</time></trkpt><trkpt lat="43.4611833" lon="10.82941"><ele>124.0</ele><time>2026-04-05T15:57:19.104Z</time></trkpt><trkpt lat="43.4613033" lon="10.8293433"><ele>124.0</ele><time>2026-04-05T15:57:20.104Z</time></trkpt><trkpt lat="43.461425" lon="10.8292883"><ele>127.0</ele><time>2026-04-05T15:57:21.104Z</time></trkpt><trkpt lat="43.4615483" lon="10.8292367"><ele>130.0</ele><time>2026-04-05T15:57:22.104Z</time></trkpt><trkpt lat="43.4616717" lon="10.8291783"><ele>133.0</ele><time>2026-04-05T15:57:23.103Z</time></trkpt><trkpt lat="43.461795" lon="10.8291083"><ele>136.0</ele><time>2026-04-05T15:57:24.104Z</time></trkpt><trkpt lat="43.4619167" lon="10.8290383"><ele>136.0</ele><time>2026-04-05T15:57:25.104Z</time></trkpt><trkpt lat="43.4620367" lon="10.828975"><ele>136.0</ele><time>2026-04-05T15:57:26.104Z</time></trkpt><trkpt lat="43.4621567" lon="10.8289217"><ele>136.0</ele><time>2026-04-05T15:57:27.104Z</time></trkpt><trkpt lat="43.4622767" lon="10.8288767"><ele>136.0</ele><time>2026-04-05T15:57:28.104Z</time></trkpt><trkpt lat="43.4623933" lon="10.828835"><ele>140.5</ele><time>2026-04-05T15:57:29.104Z</time></trkpt><trkpt lat="43.4625167" lon="10.8287933"><ele>145.0</ele><time>2026-04-05T15:57:30.104Z</time></trkpt><trkpt lat="43.462925" lon="10.8286667"><ele>144.5</ele><time>2026-04-05T15:57:33.104Z</time></trkpt><trkpt lat="43.4630683" lon="10.8286217"><ele>144.0</ele><time>2026-04-05T15:57:34.103Z</time></trkpt><trkpt lat="43.4632133" lon="10.8285667"><ele>143.5</ele><time>2026-04-05T15:57:35.104Z</time></trkpt><trkpt lat="43.4633467" lon="10.8284933"><ele>143.0</ele><time>2026-04-05T15:57:36.104Z</time></trkpt><trkpt lat="43.4634717" lon="10.8284033"><ele>140.5</ele><time>2026-04-05T15:57:37.104Z</time></trkpt><trkpt lat="43.4635883" lon="10.8283083"><ele>138.0</ele><time>2026-04-05T15:57:38.104Z</time></trkpt><trkpt lat="43.463695" lon="10.8282367"><ele>135.5</ele><time>2026-04-05T15:57:39.103Z</time></trkpt><trkpt lat="43.4637967" lon="10.8281933"><ele>133.0</ele><time>2026-04-05T15:57:40.104Z</time></trkpt><trkpt lat="43.4638883" lon="10.8281917"><ele>132.8</ele><time>2026-04-05T15:57:41.104Z</time></trkpt><trkpt lat="43.4639833" lon="10.8282283"><ele>132.60000000000002</ele><time>2026-04-05T15:57:42.104Z</time></trkpt><trkpt lat="43.4640717" lon="10.8283083"><ele>132.39999999999998</ele><time>2026-04-05T15:57:43.104Z</time></trkpt><trkpt lat="43.4641583" lon="10.82842"><ele>132.2</ele><time>2026-04-05T15:57:44.104Z</time></trkpt><trkpt lat="43.464245" lon="10.8285433"><ele>132.0</ele><time>2026-04-05T15:57:45.104Z</time></trkpt><trkpt lat="43.4643333" lon="10.8286717"><ele>132.0</ele><time>2026-04-05T15:57:46.104Z</time></trkpt><trkpt lat="43.464425" lon="10.8288017"><ele>132.0</ele><time>2026-04-05T15:57:47.104Z</time></trkpt><trkpt lat="43.4645167" lon="10.82893"><ele>132.0</ele><time>2026-04-05T15:57:48.104Z</time></trkpt><trkpt lat="43.46461" lon="10.8290483"><ele>132.0</ele><time>2026-04-05T15:57:49.104Z</time></trkpt><trkpt lat="43.4647133" lon="10.8291433"><ele>131.2</ele><time>2026-04-05T15:57:50.104Z</time></trkpt><trkpt lat="43.4648233" lon="10.8291867"><ele>130.39999999999998</ele><time>2026-04-05T15:57:51.103Z</time></trkpt><trkpt lat="43.4649283" lon="10.829175"><ele>129.60000000000002</ele><time>2026-04-05T15:57:52.104Z</time></trkpt><trkpt lat="43.465015" lon="10.82912"><ele>128.8</ele><time>2026-04-05T15:57:53.104Z</time></trkpt><trkpt lat="43.46508" lon="10.8290167"><ele>128.0</ele><time>2026-04-05T15:57:54.104Z</time></trkpt><trkpt lat="43.4651283" lon="10.8288833"><ele>128.0</ele><time>2026-04-05T15:57:55.104Z</time></trkpt><trkpt lat="43.4651667" lon="10.8287333"><ele>128.0</ele><time>2026-04-05T15:57:56.104Z</time></trkpt><trkpt lat="43.465205" lon="10.82857"><ele>128.0</ele><time>2026-04-05T15:57:57.104Z</time></trkpt><trkpt lat="43.4652433" lon="10.828405"><ele>128.0</ele><time>2026-04-05T15:57:58.104Z</time></trkpt><trkpt lat="43.4652817" lon="10.8282433"><ele>126.25</ele><time>2026-04-05T15:57:59.104Z</time></trkpt><trkpt lat="43.465315" lon="10.8280867"><ele>124.5</ele><time>2026-04-05T15:58:00.104Z</time></trkpt><trkpt lat="43.465345" lon="10.8279267"><ele>122.75</ele><time>2026-04-05T15:58:01.104Z</time></trkpt><trkpt lat="43.465385" lon="10.82777"><ele>121.0</ele><time>2026-04-05T15:58:02.104Z</time></trkpt><trkpt lat="43.4654383" lon="10.827625"><ele>121.0</ele><time>2026-04-05T15:58:03.104Z</time></trkpt><trkpt lat="43.4655133" lon="10.8275033"><ele>121.0</ele><time>2026-04-05T15:58:04.104Z</time></trkpt><trkpt lat="43.4656067" lon="10.8274233"><ele>121.0</ele><time>2026-04-05T15:58:05.104Z</time></trkpt><trkpt lat="43.465715" lon="10.8273867"><ele>121.0</ele><time>2026-04-05T15:58:06.104Z</time></trkpt><trkpt lat="43.4658317" lon="10.8273783"><ele>121.0</ele><time>2026-04-05T15:58:07.104Z</time></trkpt><trkpt lat="43.465955" lon="10.8274033"><ele>121.0</ele><time>2026-04-05T15:58:08.104Z</time></trkpt><trkpt lat="43.4660833" lon="10.8274433"><ele>121.0</ele><time>2026-04-05T15:58:09.104Z</time></trkpt><trkpt lat="43.466215" lon="10.8274883"><ele>121.0</ele><time>2026-04-05T15:58:10.104Z</time></trkpt><trkpt lat="43.466345" lon="10.8275433"><ele>120.0</ele><time>2026-04-05T15:58:11.104Z</time></trkpt><trkpt lat="43.46647" lon="10.8276117"><ele>119.0</ele><time>2026-04-05T15:58:12.104Z</time></trkpt><trkpt lat="43.4665867" lon="10.8276933"><ele>118.0</ele><time>2026-04-05T15:58:13.104Z</time></trkpt><trkpt lat="43.4666917" lon="10.8277883"><ele>117.0</ele><time>2026-04-05T15:58:14.104Z</time></trkpt><trkpt lat="43.4667867" lon="10.8278933"><ele>116.75</ele><time>2026-04-05T15:58:15.104Z</time></trkpt><trkpt lat="43.4668767" lon="10.8280033"><ele>116.5</ele><time>2026-04-05T15:58:16.104Z</time></trkpt><trkpt lat="43.4669667" lon="10.8280983"><ele>116.25</ele><time>2026-04-05T15:58:17.104Z</time></trkpt><trkpt lat="43.4670683" lon="10.8281633"><ele>116.0</ele><time>2026-04-05T15:58:18.104Z</time></trkpt><trkpt lat="43.467185" lon="10.8281967"><ele>116.0</ele><time>2026-04-05T15:58:19.104Z</time></trkpt><trkpt lat="43.4673083" lon="10.8282"><ele>116.0</ele><time>2026-04-05T15:58:20.104Z</time></trkpt><trkpt lat="43.467435" lon="10.8281817"><ele>116.0</ele><time>2026-04-05T15:58:21.104Z</time></trkpt><trkpt lat="43.4675633" lon="10.8281667"><ele>116.0</ele><time>2026-04-05T15:58:22.104Z</time></trkpt><trkpt lat="43.467705" lon="10.8281617"><ele>116.0</ele><time>2026-04-05T15:58:23.104Z</time></trkpt><trkpt lat="43.4678467" lon="10.828145"><ele>116.0</ele><time>2026-04-05T15:58:24.104Z</time></trkpt><trkpt lat="43.467995" lon="10.8281283"><ele>116.0</ele><time>2026-04-05T15:58:25.103Z</time></trkpt><trkpt lat="43.4681417" lon="10.8281017"><ele>116.0</ele><time>2026-04-05T15:58:26.104Z</time></trkpt><trkpt lat="43.468285" lon="10.8280767"><ele>115.5</ele><time>2026-04-05T15:58:27.104Z</time></trkpt><trkpt lat="43.468425" lon="10.82805"><ele>115.0</ele><time>2026-04-05T15:58:28.104Z</time></trkpt><trkpt lat="43.4685633" lon="10.82804"><ele>114.5</ele><time>2026-04-05T15:58:29.104Z</time></trkpt><trkpt lat="43.468705" lon="10.8280617"><ele>114.0</ele><time>2026-04-05T15:58:30.104Z</time></trkpt><trkpt lat="43.4688483" lon="10.8281167"><ele>115.5</ele><time>2026-04-05T15:58:31.104Z</time></trkpt><trkpt lat="43.4689833" lon="10.8282033"><ele>117.0</ele><time>2026-04-05T15:58:32.104Z</time></trkpt><trkpt lat="43.4691067" lon="10.82831"><ele>118.5</ele><time>2026-04-05T15:58:33.104Z</time></trkpt><trkpt lat="43.4692283" lon="10.8284267"><ele>120.0</ele><time>2026-04-05T15:58:34.104Z</time></trkpt><trkpt lat="43.4693533" lon="10.8285417"><ele>120.0</ele><time>2026-04-05T15:58:35.104Z</time></trkpt><trkpt lat="43.4694783" lon="10.8286567"><ele>120.0</ele><time>2026-04-05T15:58:36.104Z</time></trkpt><trkpt lat="43.4696017" lon="10.8287817"><ele>120.0</ele><time>2026-04-05T15:58:37.104Z</time></trkpt><trkpt lat="43.469715" lon="10.82893"><ele>121.0</ele><time>2026-04-05T15:58:38.103Z</time></trkpt><trkpt lat="43.469805" lon="10.8291067"><ele>122.0</ele><time>2026-04-05T15:58:39.103Z</time></trkpt><trkpt lat="43.4698733" lon="10.8293067"><ele>123.0</ele><time>2026-04-05T15:58:40.104Z</time></trkpt><trkpt lat="43.469925" lon="10.82952"><ele>123.0</ele><time>2026-04-05T15:58:41.104Z</time></trkpt><trkpt lat="43.46997" lon="10.8297417"><ele>123.0</ele><time>2026-04-05T15:58:42.104Z</time></trkpt><trkpt lat="43.4700167" lon="10.8299733"><ele>123.0</ele><time>2026-04-05T15:58:43.104Z</time></trkpt><trkpt lat="43.4700667" lon="10.8302067"><ele>121.66666666666666</ele><time>2026-04-05T15:58:44.103Z</time></trkpt><trkpt lat="43.470125" lon="10.8304283"><ele>120.33333333333333</ele><time>2026-04-05T15:58:45.104Z</time></trkpt><trkpt lat="43.4702033" lon="10.8306333"><ele>119.0</ele><time>2026-04-05T15:58:46.103Z</time></trkpt><trkpt lat="43.4703" lon="10.830815"><ele>119.0</ele><time>2026-04-05T15:58:47.104Z</time></trkpt><trkpt lat="43.470415" lon="10.8309667"><ele>119.0</ele><time>2026-04-05T15:58:48.104Z</time></trkpt><trkpt lat="43.4705517" lon="10.8310883"><ele>119.0</ele><time>2026-04-05T15:58:49.104Z</time></trkpt><trkpt lat="43.470695" lon="10.83119"><ele>120.66666666666666</ele><time>2026-04-05T15:58:50.104Z</time></trkpt><trkpt lat="43.4708433" lon="10.8312817"><ele>122.33333333333334</ele><time>2026-04-05T15:58:51.104Z</time></trkpt><trkpt lat="43.470995" lon="10.8313667"><ele>124.0</ele><time>2026-04-05T15:58:52.104Z</time></trkpt><trkpt lat="43.471145" lon="10.8314533"><ele>125.66666666666667</ele><time>2026-04-05T15:58:53.104Z</time></trkpt><trkpt lat="43.471295" lon="10.8315433"><ele>127.33333333333334</ele><time>2026-04-05T15:58:54.104Z</time></trkpt><trkpt lat="43.4714383" lon="10.831645"><ele>129.0</ele><time>2026-04-05T15:58:55.104Z</time></trkpt><trkpt lat="43.471585" lon="10.8317433"><ele>127.66666666666666</ele><time>2026-04-05T15:58:56.104Z</time></trkpt><trkpt lat="43.47173" lon="10.8318417"><ele>126.33333333333333</ele><time>2026-04-05T15:58:57.104Z</time></trkpt><trkpt lat="43.4718767" lon="10.8319367"><ele>125.0</ele><time>2026-04-05T15:58:58.104Z</time></trkpt><trkpt lat="43.4720217" lon="10.8320267"><ele>126.33333333333333</ele><time>2026-04-05T15:58:59.104Z</time></trkpt><trkpt lat="43.4721733" lon="10.8321083"><ele>127.66666666666666</ele><time>2026-04-05T15:59:00.104Z</time></trkpt><trkpt lat="43.47233" lon="10.8321767"><ele>129.0</ele><time>2026-04-05T15:59:01.104Z</time></trkpt><trkpt lat="43.47249" lon="10.8322267"><ele>129.0</ele><time>2026-04-05T15:59:02.104Z</time></trkpt><trkpt lat="43.4726483" lon="10.8322617"><ele>129.0</ele><time>2026-04-05T15:59:03.104Z</time></trkpt><trkpt lat="43.4728017" lon="10.8322767"><ele>129.0</ele><time>2026-04-05T15:59:04.104Z</time></trkpt><trkpt lat="43.4729517" lon="10.832265"><ele>130.66666666666666</ele><time>2026-04-05T15:59:05.104Z</time></trkpt><trkpt lat="43.4730967" lon="10.8322217"><ele>132.33333333333331</ele><time>2026-04-05T15:59:06.104Z</time></trkpt><trkpt lat="43.4732367" lon="10.8321483"><ele>134.0</ele><time>2026-04-05T15:59:07.104Z</time></trkpt><trkpt lat="43.4733733" lon="10.8320583"><ele>134.0</ele><time>2026-04-05T15:59:08.104Z</time></trkpt><trkpt lat="43.47351" lon="10.83195"><ele>134.0</ele><time>2026-04-05T15:59:09.104Z</time></trkpt><trkpt lat="43.473645" lon="10.83184"><ele>134.0</ele><time>2026-04-05T15:59:10.104Z</time></trkpt><trkpt lat="43.4737783" lon="10.83173"><ele>138.0</ele><time>2026-04-05T15:59:11.104Z</time></trkpt><trkpt lat="43.4739117" lon="10.8316167"><ele>142.0</ele><time>2026-04-05T15:59:12.104Z</time></trkpt><trkpt lat="43.4740533" lon="10.8315"><ele>146.0</ele><time>2026-04-05T15:59:13.104Z</time></trkpt><trkpt lat="43.4741867" lon="10.8313917"><ele>146.0</ele><time>2026-04-05T15:59:14.104Z</time></trkpt><trkpt lat="43.47432" lon="10.8312833"><ele>146.0</ele><time>2026-04-05T15:59:15.104Z</time></trkpt><trkpt lat="43.4744483" lon="10.8311783"><ele>146.0</ele><time>2026-04-05T15:59:16.104Z</time></trkpt><trkpt lat="43.47458" lon="10.8310717"><ele>149.0</ele><time>2026-04-05T15:59:17.104Z</time></trkpt><trkpt lat="43.4747133" lon="10.83096"><ele>152.0</ele><time>2026-04-05T15:59:18.104Z</time></trkpt><trkpt lat="43.4748483" lon="10.8308433"><ele>155.0</ele><time>2026-04-05T15:59:19.104Z</time></trkpt><trkpt lat="43.4749833" lon="10.830725"><ele>155.0</ele><time>2026-04-05T15:59:20.104Z</time></trkpt><trkpt lat="43.47512" lon="10.83061"><ele>155.0</ele><time>2026-04-05T15:59:21.104Z</time></trkpt><trkpt lat="43.47526" lon="10.8304967"><ele>155.0</ele><time>2026-04-05T15:59:22.104Z</time></trkpt><trkpt lat="43.4753983" lon="10.83039"><ele>155.0</ele><time>2026-04-05T15:59:23.104Z</time></trkpt><trkpt lat="43.4755367" lon="10.8302917"><ele>155.0</ele><time>2026-04-05T15:59:24.104Z</time></trkpt><trkpt lat="43.4756717" lon="10.8301933"><ele>155.0</ele><time>2026-04-05T15:59:25.104Z</time></trkpt><trkpt lat="43.4758033" lon="10.8300933"><ele>155.0</ele><time>2026-04-05T15:59:26.104Z</time></trkpt><trkpt lat="43.4759333" lon="10.829995"><ele>155.0</ele><time>2026-04-05T15:59:27.103Z</time></trkpt><trkpt lat="43.4760633" lon="10.8298967"><ele>155.0</ele><time>2026-04-05T15:59:28.104Z</time></trkpt><trkpt lat="43.4761883" lon="10.8298017"><ele>155.0</ele><time>2026-04-05T15:59:29.104Z</time></trkpt><trkpt lat="43.4763167" lon="10.8297233"><ele>155.0</ele><time>2026-04-05T15:59:30.104Z</time></trkpt><trkpt lat="43.4764467" lon="10.829675"><ele>155.0</ele><time>2026-04-05T15:59:31.104Z</time></trkpt><trkpt lat="43.4765767" lon="10.8296483"><ele>155.0</ele><time>2026-04-05T15:59:32.104Z</time></trkpt><trkpt lat="43.4767083" lon="10.8296417"><ele>155.0</ele><time>2026-04-05T15:59:33.104Z</time></trkpt><trkpt lat="43.4768433" lon="10.8296467"><ele>155.0</ele><time>2026-04-05T15:59:34.104Z</time></trkpt><trkpt lat="43.4769817" lon="10.8296367"><ele>155.0</ele><time>2026-04-05T15:59:35.104Z</time></trkpt><trkpt lat="43.4771283" lon="10.829595"><ele>155.0</ele><time>2026-04-05T15:59:36.104Z</time></trkpt><trkpt lat="43.4772717" lon="10.8295283"><ele>155.0</ele><time>2026-04-05T15:59:37.104Z</time></trkpt><trkpt lat="43.477415" lon="10.8294517"><ele>157.33333333333331</ele><time>2026-04-05T15:59:38.104Z</time></trkpt><trkpt lat="43.4775617" lon="10.8293683"><ele>159.66666666666666</ele><time>2026-04-05T15:59:39.104Z</time></trkpt><trkpt lat="43.4777117" lon="10.829285"><ele>162.0</ele><time>2026-04-05T15:59:40.104Z</time></trkpt><trkpt lat="43.47786" lon="10.829205"><ele>165.0</ele><time>2026-04-05T15:59:41.104Z</time></trkpt><trkpt lat="43.4780083" lon="10.8291283"><ele>168.0</ele><time>2026-04-05T15:59:42.104Z</time></trkpt><trkpt lat="43.478155" lon="10.8290467"><ele>171.0</ele><time>2026-04-05T15:59:43.103Z</time></trkpt><trkpt lat="43.4783033" lon="10.82897"><ele>171.0</ele><time>2026-04-05T15:59:44.104Z</time></trkpt><trkpt lat="43.4784517" lon="10.8288917"><ele>171.0</ele><time>2026-04-05T15:59:45.104Z</time></trkpt><trkpt lat="43.4785983" lon="10.82881"><ele>171.0</ele><time>2026-04-05T15:59:46.104Z</time></trkpt><trkpt lat="43.478745" lon="10.82873"><ele>173.25</ele><time>2026-04-05T15:59:47.104Z</time></trkpt><trkpt lat="43.4788883" lon="10.8286483"><ele>175.5</ele><time>2026-04-05T15:59:48.104Z</time></trkpt><trkpt lat="43.4790283" lon="10.8285783"><ele>177.75</ele><time>2026-04-05T15:59:49.104Z</time></trkpt><trkpt lat="43.4791633" lon="10.8285283"><ele>180.0</ele><time>2026-04-05T15:59:50.104Z</time></trkpt><trkpt lat="43.4792917" lon="10.8285083"><ele>180.0</ele><time>2026-04-05T15:59:51.104Z</time></trkpt><trkpt lat="43.4794167" lon="10.8285233"><ele>180.0</ele><time>2026-04-05T15:59:52.104Z</time></trkpt><trkpt lat="43.4795417" lon="10.8285683"><ele>180.0</ele><time>2026-04-05T15:59:53.104Z</time></trkpt><trkpt lat="43.47967" lon="10.8286417"><ele>180.0</ele><time>2026-04-05T15:59:54.104Z</time></trkpt><trkpt lat="43.4798017" lon="10.8287333"><ele>180.5</ele><time>2026-04-05T15:59:55.104Z</time></trkpt><trkpt lat="43.4799283" lon="10.828825"><ele>181.0</ele><time>2026-04-05T15:59:56.104Z</time></trkpt><trkpt lat="43.480055" lon="10.8289067"><ele>181.5</ele><time>2026-04-05T15:59:57.104Z</time></trkpt><trkpt lat="43.4801933" lon="10.8289883"><ele>182.0</ele><time>2026-04-05T15:59:58.104Z</time></trkpt><trkpt lat="43.4803317" lon="10.8290717"><ele>184.0</ele><time>2026-04-05T15:59:59.104Z</time></trkpt><trkpt lat="43.4804717" lon="10.82916"><ele>186.0</ele><time>2026-04-05T16:00:00.104Z</time></trkpt><trkpt lat="43.4806067" lon="10.8292433"><ele>188.0</ele><time>2026-04-05T16:00:01.104Z</time></trkpt><trkpt lat="43.4807467" lon="10.8293267"><ele>189.25</ele><time>2026-04-05T16:00:02.104Z</time></trkpt><trkpt lat="43.480885" lon="10.8294033"><ele>190.5</ele><time>2026-04-05T16:00:03.104Z</time></trkpt><trkpt lat="43.4810167" lon="10.8294783"><ele>191.75</ele><time>2026-04-05T16:00:04.104Z</time></trkpt><trkpt lat="43.4811433" lon="10.82955"><ele>193.0</ele><time>2026-04-05T16:00:05.104Z</time></trkpt><trkpt lat="43.48126" lon="10.8296183"><ele>193.49999999999997</ele><time>2026-04-05T16:00:06.104Z</time></trkpt><trkpt lat="43.4813617" lon="10.829685"><ele>194.0</ele><time>2026-04-05T16:00:07.104Z</time></trkpt><trkpt lat="43.48145" lon="10.8297467"><ele>194.5</ele><time>2026-04-05T16:00:08.104Z</time></trkpt><trkpt lat="43.4815167" lon="10.8298017"><ele>195.0</ele><time>2026-04-05T16:00:09.104Z</time></trkpt><trkpt lat="43.4815717" lon="10.8298583"><ele>195.49999999999997</ele><time>2026-04-05T16:00:10.104Z</time></trkpt><trkpt lat="43.4816167" lon="10.8299267"><ele>196.0</ele><time>2026-04-05T16:00:11.104Z</time></trkpt><trkpt lat="43.4816433" lon="10.8300567"><ele>196.0</ele><time>2026-04-05T16:00:13.104Z</time></trkpt><trkpt lat="43.4816667" lon="10.8301583"><ele>196.0</ele><time>2026-04-05T16:00:15.103Z</time></trkpt><trkpt lat="43.4817467" lon="10.8301617"><ele>196.0</ele><time>2026-04-05T16:00:18.104Z</time></trkpt><trkpt lat="43.481835" lon="10.8300417"><ele>196.0</ele><time>2026-04-05T16:00:20.104Z</time></trkpt><trkpt lat="43.4818933" lon="10.829965"><ele>196.0</ele><time>2026-04-05T16:00:21.104Z</time></trkpt><trkpt lat="43.48196" lon="10.8298767"><ele>196.0</ele><time>2026-04-05T16:00:22.104Z</time></trkpt><trkpt lat="43.4820367" lon="10.829785"><ele>196.0</ele><time>2026-04-05T16:00:23.104Z</time></trkpt><trkpt lat="43.482115" lon="10.8296967"><ele>196.0</ele><time>2026-04-05T16:00:24.104Z</time></trkpt><trkpt lat="43.4822083" lon="10.829625"><ele>196.0</ele><time>2026-04-05T16:00:25.104Z</time></trkpt><trkpt lat="43.48231" lon="10.82957"><ele>196.0</ele><time>2026-04-05T16:00:26.104Z</time></trkpt><trkpt lat="43.48242" lon="10.8295317"><ele>196.8</ele><time>2026-04-05T16:00:27.104Z</time></trkpt><trkpt lat="43.48253" lon="10.8294967"><ele>197.60000000000002</ele><time>2026-04-05T16:00:28.104Z</time></trkpt><trkpt lat="43.4826367" lon="10.8294517"><ele>198.4</ele><time>2026-04-05T16:00:29.104Z</time></trkpt><trkpt lat="43.4827267" lon="10.8293933"><ele>199.2</ele><time>2026-04-05T16:00:30.104Z</time></trkpt><trkpt lat="43.482795" lon="10.82931"><ele>200.0</ele><time>2026-04-05T16:00:31.104Z</time></trkpt><trkpt lat="43.482835" lon="10.82921"><ele>200.0</ele><time>2026-04-05T16:00:32.104Z</time></trkpt><trkpt lat="43.4828583" lon="10.829095"><ele>200.0</ele><time>2026-04-05T16:00:33.104Z</time></trkpt><trkpt lat="43.48286" lon="10.828975"><ele>200.0</ele><time>2026-04-05T16:00:34.104Z</time></trkpt><trkpt lat="43.4828467" lon="10.8288533"><ele>200.0</ele><time>2026-04-05T16:00:35.104Z</time></trkpt><trkpt lat="43.4828117" lon="10.82873"><ele>200.0</ele><time>2026-04-05T16:00:36.104Z</time></trkpt><trkpt lat="43.482765" lon="10.8286"><ele>199.4</ele><time>2026-04-05T16:00:37.104Z</time></trkpt><trkpt lat="43.4827017" lon="10.8284733"><ele>198.8</ele><time>2026-04-05T16:00:38.104Z</time></trkpt><trkpt lat="43.4826367" lon="10.82835"><ele>198.2</ele><time>2026-04-05T16:00:39.104Z</time></trkpt><trkpt lat="43.4825783" lon="10.8282267"><ele>197.6</ele><time>2026-04-05T16:00:40.104Z</time></trkpt><trkpt lat="43.4825217" lon="10.8281133"><ele>197.0</ele><time>2026-04-05T16:00:41.104Z</time></trkpt><trkpt lat="43.4824817" lon="10.8279783"><ele>197.0</ele><time>2026-04-05T16:00:42.104Z</time></trkpt><trkpt lat="43.4824533" lon="10.8278333"><ele>197.0</ele><time>2026-04-05T16:00:43.103Z</time></trkpt><trkpt lat="43.4824367" lon="10.82768"><ele>197.0</ele><time>2026-04-05T16:00:44.104Z</time></trkpt><trkpt lat="43.4824333" lon="10.8275183"><ele>197.0</ele><time>2026-04-05T16:00:45.104Z</time></trkpt><trkpt lat="43.4824383" lon="10.8273433"><ele>195.25</ele><time>2026-04-05T16:00:46.104Z</time></trkpt><trkpt lat="43.4824383" lon="10.827165"><ele>193.5</ele><time>2026-04-05T16:00:47.104Z</time></trkpt><trkpt lat="43.4824483" lon="10.8269817"><ele>191.75</ele><time>2026-04-05T16:00:48.104Z</time></trkpt><trkpt lat="43.4824633" lon="10.8268"><ele>190.0</ele><time>2026-04-05T16:00:49.104Z</time></trkpt><trkpt lat="43.48248" lon="10.8266033"><ele>189.0</ele><time>2026-04-05T16:00:50.103Z</time></trkpt><trkpt lat="43.4825" lon="10.8264017"><ele>188.0</ele><time>2026-04-05T16:00:51.104Z</time></trkpt><trkpt lat="43.4825167" lon="10.8262017"><ele>187.0</ele><time>2026-04-05T16:00:52.104Z</time></trkpt><trkpt lat="43.4825383" lon="10.825995"><ele>186.0</ele><time>2026-04-05T16:00:53.104Z</time></trkpt><trkpt lat="43.48256" lon="10.8257867"><ele>184.33333333333334</ele><time>2026-04-05T16:00:54.104Z</time></trkpt><trkpt lat="43.4825817" lon="10.8255783"><ele>182.66666666666669</ele><time>2026-04-05T16:00:55.104Z</time></trkpt><trkpt lat="43.4826067" lon="10.825365"><ele>181.0</ele><time>2026-04-05T16:00:56.104Z</time></trkpt><trkpt lat="43.4826283" lon="10.8251517"><ele>178.0</ele><time>2026-04-05T16:00:57.104Z</time></trkpt><trkpt lat="43.4826433" lon="10.8249367"><ele>175.0</ele><time>2026-04-05T16:00:58.104Z</time></trkpt><trkpt lat="43.482645" lon="10.8247267"><ele>172.0</ele><time>2026-04-05T16:00:59.104Z</time></trkpt><trkpt lat="43.4826383" lon="10.8245217"><ele>172.0</ele><time>2026-04-05T16:01:00.104Z</time></trkpt><trkpt lat="43.4826283" lon="10.824315"><ele>172.0</ele><time>2026-04-05T16:01:01.104Z</time></trkpt><trkpt lat="43.4826167" lon="10.824115"><ele>172.0</ele><time>2026-04-05T16:01:02.104Z</time></trkpt><trkpt lat="43.48261" lon="10.8239167"><ele>172.0</ele><time>2026-04-05T16:01:03.104Z</time></trkpt><trkpt lat="43.48261" lon="10.82372"><ele>171.5</ele><time>2026-04-05T16:01:04.104Z</time></trkpt><trkpt lat="43.4826233" lon="10.8235267"><ele>171.0</ele><time>2026-04-05T16:01:05.104Z</time></trkpt><trkpt lat="43.482645" lon="10.8233433"><ele>170.5</ele><time>2026-04-05T16:01:06.104Z</time></trkpt><trkpt lat="43.4826783" lon="10.823165"><ele>170.0</ele><time>2026-04-05T16:01:07.104Z</time></trkpt><trkpt lat="43.4827133" lon="10.8229883"><ele>170.0</ele><time>2026-04-05T16:01:08.104Z</time></trkpt><trkpt lat="43.4827383" lon="10.8228067"><ele>170.0</ele><time>2026-04-05T16:01:09.104Z</time></trkpt><trkpt lat="43.482745" lon="10.8226183"><ele>170.0</ele><time>2026-04-05T16:01:10.104Z</time></trkpt><trkpt lat="43.4827417" lon="10.82242"><ele>170.0</ele><time>2026-04-05T16:01:11.104Z</time></trkpt><trkpt lat="43.48273" lon="10.8222167"><ele>169.66666666666666</ele><time>2026-04-05T16:01:12.104Z</time></trkpt><trkpt lat="43.4827067" lon="10.8220083"><ele>169.33333333333334</ele><time>2026-04-05T16:01:13.104Z</time></trkpt><trkpt lat="43.48268" lon="10.8217983"><ele>169.0</ele><time>2026-04-05T16:01:14.104Z</time></trkpt><trkpt lat="43.4826533" lon="10.821585"><ele>167.33333333333334</ele><time>2026-04-05T16:01:15.104Z</time></trkpt><trkpt lat="43.4826267" lon="10.8213683"><ele>165.66666666666666</ele><time>2026-04-05T16:01:16.104Z</time></trkpt><trkpt lat="43.4826067" lon="10.821145"><ele>164.0</ele><time>2026-04-05T16:01:17.103Z</time></trkpt><trkpt lat="43.482585" lon="10.8209233"><ele>163.66666666666666</ele><time>2026-04-05T16:01:18.104Z</time></trkpt><trkpt lat="43.4825717" lon="10.820705"><ele>163.33333333333334</ele><time>2026-04-05T16:01:19.104Z</time></trkpt><trkpt lat="43.4825667" lon="10.8204917"><ele>163.0</ele><time>2026-04-05T16:01:20.104Z</time></trkpt><trkpt lat="43.482575" lon="10.8202817"><ele>162.66666666666669</ele><time>2026-04-05T16:01:21.104Z</time></trkpt><trkpt lat="43.4825917" lon="10.820075"><ele>162.33333333333334</ele><time>2026-04-05T16:01:22.104Z</time></trkpt><trkpt lat="43.4826083" lon="10.819865"><ele>162.0</ele><time>2026-04-05T16:01:23.104Z</time></trkpt><trkpt lat="43.482615" lon="10.819655"><ele>162.0</ele><time>2026-04-05T16:01:24.104Z</time></trkpt><trkpt lat="43.4826133" lon="10.8194483"><ele>162.0</ele><time>2026-04-05T16:01:25.104Z</time></trkpt><trkpt lat="43.4826067" lon="10.8192467"><ele>162.0</ele><time>2026-04-05T16:01:26.104Z</time></trkpt><trkpt lat="43.4825967" lon="10.8190483"><ele>162.0</ele><time>2026-04-05T16:01:27.104Z</time></trkpt><trkpt lat="43.4825833" lon="10.8188517"><ele>161.5</ele><time>2026-04-05T16:01:28.104Z</time></trkpt><trkpt lat="43.4825617" lon="10.8186533"><ele>161.0</ele><time>2026-04-05T16:01:29.104Z</time></trkpt><trkpt lat="43.482535" lon="10.818455"><ele>160.5</ele><time>2026-04-05T16:01:30.103Z</time></trkpt><trkpt lat="43.4825017" lon="10.8182567"><ele>160.0</ele><time>2026-04-05T16:01:31.104Z</time></trkpt><trkpt lat="43.4824733" lon="10.8180633"><ele>158.5</ele><time>2026-04-05T16:01:32.104Z</time></trkpt><trkpt lat="43.48244" lon="10.8178783"><ele>157.0</ele><time>2026-04-05T16:01:33.103Z</time></trkpt><trkpt lat="43.4824083" lon="10.8177033"><ele>155.5</ele><time>2026-04-05T16:01:34.104Z</time></trkpt><trkpt lat="43.4823783" lon="10.8175467"><ele>154.0</ele><time>2026-04-05T16:01:35.104Z</time></trkpt><trkpt lat="43.482345" lon="10.8174117"><ele>152.0</ele><time>2026-04-05T16:01:36.104Z</time></trkpt><trkpt lat="43.4823183" lon="10.8172733"><ele>150.0</ele><time>2026-04-05T16:01:37.104Z</time></trkpt><trkpt lat="43.482315" lon="10.8171167"><ele>148.0</ele><time>2026-04-05T16:01:38.103Z</time></trkpt><trkpt lat="43.48233" lon="10.8169517"><ele>146.0</ele><time>2026-04-05T16:01:39.104Z</time></trkpt><trkpt lat="43.4823683" lon="10.8167833"><ele>144.75</ele><time>2026-04-05T16:01:40.104Z</time></trkpt><trkpt lat="43.4824233" lon="10.8166133"><ele>143.5</ele><time>2026-04-05T16:01:41.104Z</time></trkpt><trkpt lat="43.4824883" lon="10.8164367"><ele>142.25</ele><time>2026-04-05T16:01:42.104Z</time></trkpt><trkpt lat="43.4825567" lon="10.816255"><ele>141.0</ele><time>2026-04-05T16:01:43.103Z</time></trkpt><trkpt lat="43.4826267" lon="10.8160717"><ele>140.0</ele><time>2026-04-05T16:01:44.104Z</time></trkpt><trkpt lat="43.4826917" lon="10.815885"><ele>139.0</ele><time>2026-04-05T16:01:45.104Z</time></trkpt><trkpt lat="43.48276" lon="10.8156983"><ele>138.0</ele><time>2026-04-05T16:01:46.104Z</time></trkpt><trkpt lat="43.48283" lon="10.8155083"><ele>138.0</ele><time>2026-04-05T16:01:47.104Z</time></trkpt><trkpt lat="43.4829" lon="10.815315"><ele>138.0</ele><time>2026-04-05T16:01:48.104Z</time></trkpt><trkpt lat="43.4829717" lon="10.8151217"><ele>138.0</ele><time>2026-04-05T16:01:49.104Z</time></trkpt><trkpt lat="43.4830383" lon="10.8149267"><ele>136.33333333333334</ele><time>2026-04-05T16:01:50.104Z</time></trkpt><trkpt lat="43.4831017" lon="10.814735"><ele>134.66666666666669</ele><time>2026-04-05T16:01:51.104Z</time></trkpt><trkpt lat="43.4831667" lon="10.8145483"><ele>133.0</ele><time>2026-04-05T16:01:52.104Z</time></trkpt><trkpt lat="43.4832367" lon="10.814365"><ele>133.75</ele><time>2026-04-05T16:01:53.104Z</time></trkpt><trkpt lat="43.48331" lon="10.8141867"><ele>134.5</ele><time>2026-04-05T16:01:54.103Z</time></trkpt><trkpt lat="43.4833867" lon="10.8140117"><ele>135.25</ele><time>2026-04-05T16:01:55.104Z</time></trkpt><trkpt lat="43.4834667" lon="10.8138417"><ele>136.0</ele><time>2026-04-05T16:01:56.104Z</time></trkpt><trkpt lat="43.483565" lon="10.813685"><ele>136.0</ele><time>2026-04-05T16:01:57.104Z</time></trkpt><trkpt lat="43.4836733" lon="10.8135467"><ele>136.0</ele><time>2026-04-05T16:01:58.104Z</time></trkpt><trkpt lat="43.483795" lon="10.8134217"><ele>136.0</ele><time>2026-04-05T16:01:59.104Z</time></trkpt><trkpt lat="43.4839167" lon="10.8132983"><ele>136.33333333333334</ele><time>2026-04-05T16:02:00.104Z</time></trkpt><trkpt lat="43.48404" lon="10.813175"><ele>136.66666666666666</ele><time>2026-04-05T16:02:01.104Z</time></trkpt><trkpt lat="43.4841617" lon="10.8130533"><ele>137.0</ele><time>2026-04-05T16:02:02.104Z</time></trkpt><trkpt lat="43.4842817" lon="10.8129333"><ele>137.0</ele><time>2026-04-05T16:02:03.104Z</time></trkpt><trkpt lat="43.4843983" lon="10.8128167"><ele>137.0</ele><time>2026-04-05T16:02:04.104Z</time></trkpt><trkpt lat="43.484515" lon="10.8127"><ele>137.0</ele><time>2026-04-05T16:02:05.104Z</time></trkpt><trkpt lat="43.4846267" lon="10.8125783"><ele>137.0</ele><time>2026-04-05T16:02:06.104Z</time></trkpt><trkpt lat="43.4847317" lon="10.81244"><ele>137.25</ele><time>2026-04-05T16:02:07.104Z</time></trkpt><trkpt lat="43.484825" lon="10.8122883"><ele>137.5</ele><time>2026-04-05T16:02:08.104Z</time></trkpt><trkpt lat="43.4849033" lon="10.8121217"><ele>137.75</ele><time>2026-04-05T16:02:09.104Z</time></trkpt><trkpt lat="43.484965" lon="10.8119367"><ele>138.0</ele><time>2026-04-05T16:02:10.104Z</time></trkpt><trkpt lat="43.48502" lon="10.81175"><ele>137.25</ele><time>2026-04-05T16:02:11.104Z</time></trkpt><trkpt lat="43.48507" lon="10.8115633"><ele>136.5</ele><time>2026-04-05T16:02:12.104Z</time></trkpt><trkpt lat="43.4851233" lon="10.81138"><ele>135.75</ele><time>2026-04-05T16:02:13.104Z</time></trkpt><trkpt lat="43.4851867" lon="10.8112017"><ele>135.0</ele><time>2026-04-05T16:02:14.104Z</time></trkpt><trkpt lat="43.4852517" lon="10.8110217"><ele>136.0</ele><time>2026-04-05T16:02:15.104Z</time></trkpt><trkpt lat="43.4853133" lon="10.81084"><ele>137.0</ele><time>2026-04-05T16:02:16.104Z</time></trkpt><trkpt lat="43.485365" lon="10.810655"><ele>138.0</ele><time>2026-04-05T16:02:17.104Z</time></trkpt><trkpt lat="43.4854117" lon="10.8104667"><ele>139.0</ele><time>2026-04-05T16:02:18.104Z</time></trkpt><trkpt lat="43.4854567" lon="10.8102733"><ele>137.0</ele><time>2026-04-05T16:02:19.104Z</time></trkpt><trkpt lat="43.4854983" lon="10.8100833"><ele>135.0</ele><time>2026-04-05T16:02:20.104Z</time></trkpt><trkpt lat="43.4855367" lon="10.809895"><ele>133.0</ele><time>2026-04-05T16:02:21.104Z</time></trkpt><trkpt lat="43.4855767" lon="10.80971"><ele>131.0</ele><time>2026-04-05T16:02:22.104Z</time></trkpt><trkpt lat="43.4856217" lon="10.809525"><ele>131.0</ele><time>2026-04-05T16:02:23.104Z</time></trkpt><trkpt lat="43.4856717" lon="10.809345"><ele>131.0</ele><time>2026-04-05T16:02:24.104Z</time></trkpt><trkpt lat="43.4857217" lon="10.80917"><ele>131.0</ele><time>2026-04-05T16:02:25.104Z</time></trkpt><trkpt lat="43.4857633" lon="10.8089967"><ele>131.0</ele><time>2026-04-05T16:02:26.104Z</time></trkpt><trkpt lat="43.4857917" lon="10.8088183"><ele>132.0</ele><time>2026-04-05T16:02:27.104Z</time></trkpt><trkpt lat="43.4858117" lon="10.80863"><ele>133.0</ele><time>2026-04-05T16:02:28.104Z</time></trkpt><trkpt lat="43.485825" lon="10.808435"><ele>134.0</ele><time>2026-04-05T16:02:29.104Z</time></trkpt><trkpt lat="43.48583" lon="10.8082383"><ele>135.0</ele><time>2026-04-05T16:02:30.104Z</time></trkpt><trkpt lat="43.4858283" lon="10.8080467"><ele>135.5</ele><time>2026-04-05T16:02:31.103Z</time></trkpt><trkpt lat="43.4858283" lon="10.8078517"><ele>136.0</ele><time>2026-04-05T16:02:32.104Z</time></trkpt><trkpt lat="43.4858167" lon="10.8076617"><ele>136.5</ele><time>2026-04-05T16:02:33.104Z</time></trkpt><trkpt lat="43.48579" lon="10.80748"><ele>137.0</ele><time>2026-04-05T16:02:34.104Z</time></trkpt><trkpt lat="43.4857533" lon="10.8072967"><ele>137.25</ele><time>2026-04-05T16:02:35.104Z</time></trkpt><trkpt lat="43.485705" lon="10.8071233"><ele>137.5</ele><time>2026-04-05T16:02:36.104Z</time></trkpt><trkpt lat="43.4856533" lon="10.806945"><ele>137.75</ele><time>2026-04-05T16:02:37.104Z</time></trkpt><trkpt lat="43.4855917" lon="10.8067717"><ele>138.0</ele><time>2026-04-05T16:02:38.104Z</time></trkpt><trkpt lat="43.4855317" lon="10.8065967"><ele>138.0</ele><time>2026-04-05T16:02:39.104Z</time></trkpt><trkpt lat="43.4854667" lon="10.8064283"><ele>138.0</ele><time>2026-04-05T16:02:40.104Z</time></trkpt><trkpt lat="43.4853967" lon="10.8062583"><ele>138.0</ele><time>2026-04-05T16:02:41.104Z</time></trkpt><trkpt lat="43.485335" lon="10.8060833"><ele>138.0</ele><time>2026-04-05T16:02:42.104Z</time></trkpt><trkpt lat="43.4852683" lon="10.8059083"><ele>137.25</ele><time>2026-04-05T16:02:43.104Z</time></trkpt><trkpt lat="43.485205" lon="10.8057367"><ele>136.5</ele><time>2026-04-05T16:02:44.104Z</time></trkpt><trkpt lat="43.4851383" lon="10.8055683"><ele>135.75</ele><time>2026-04-05T16:02:45.104Z</time></trkpt><trkpt lat="43.4850733" lon="10.805395"><ele>135.0</ele><time>2026-04-05T16:02:46.104Z</time></trkpt><trkpt lat="43.48501" lon="10.805215"><ele>136.0</ele><time>2026-04-05T16:02:47.104Z</time></trkpt><trkpt lat="43.4849483" lon="10.805035"><ele>137.0</ele><time>2026-04-05T16:02:48.104Z</time></trkpt><trkpt lat="43.4848933" lon="10.8048533"><ele>138.0</ele><time>2026-04-05T16:02:49.104Z</time></trkpt><trkpt lat="43.4848483" lon="10.8046683"><ele>139.0</ele><time>2026-04-05T16:02:50.104Z</time></trkpt><trkpt lat="43.4848167" lon="10.804475"><ele>140.0</ele><time>2026-04-05T16:02:51.104Z</time></trkpt><trkpt lat="43.4847933" lon="10.8042717"><ele>141.0</ele><time>2026-04-05T16:02:52.104Z</time></trkpt><trkpt lat="43.484775" lon="10.8040667"><ele>142.0</ele><time>2026-04-05T16:02:53.104Z</time></trkpt><trkpt lat="43.48476" lon="10.80386"><ele>142.0</ele><time>2026-04-05T16:02:54.104Z</time></trkpt><trkpt lat="43.4847483" lon="10.8036583"><ele>142.0</ele><time>2026-04-05T16:02:55.104Z</time></trkpt><trkpt lat="43.4847517" lon="10.8034667"><ele>142.0</ele><time>2026-04-05T16:02:56.104Z</time></trkpt><trkpt lat="43.4847717" lon="10.8032767"><ele>142.0</ele><time>2026-04-05T16:02:57.104Z</time></trkpt><trkpt lat="43.4848083" lon="10.803085"><ele>142.0</ele><time>2026-04-05T16:02:58.104Z</time></trkpt><trkpt lat="43.4848583" lon="10.8028967"><ele>142.0</ele><time>2026-04-05T16:02:59.104Z</time></trkpt><trkpt lat="43.4849233" lon="10.8027167"><ele>142.0</ele><time>2026-04-05T16:03:00.104Z</time></trkpt><trkpt lat="43.4849917" lon="10.8025367"><ele>142.0</ele><time>2026-04-05T16:03:01.104Z</time></trkpt><trkpt lat="43.48506" lon="10.8023633"><ele>142.0</ele><time>2026-04-05T16:03:02.104Z</time></trkpt><trkpt lat="43.4851267" lon="10.8022033"><ele>142.0</ele><time>2026-04-05T16:03:03.104Z</time></trkpt><trkpt lat="43.4852083" lon="10.80206"><ele>142.0</ele><time>2026-04-05T16:03:04.104Z</time></trkpt><trkpt lat="43.4853" lon="10.80193"><ele>142.0</ele><time>2026-04-05T16:03:05.104Z</time></trkpt><trkpt lat="43.4854017" lon="10.8018033"><ele>141.75</ele><time>2026-04-05T16:03:06.104Z</time></trkpt><trkpt lat="43.4855117" lon="10.80168"><ele>141.5</ele><time>2026-04-05T16:03:07.104Z</time></trkpt><trkpt lat="43.485625" lon="10.80156"><ele>141.25</ele><time>2026-04-05T16:03:08.104Z</time></trkpt><trkpt lat="43.4857433" lon="10.8014433"><ele>141.0</ele><time>2026-04-05T16:03:09.104Z</time></trkpt><trkpt lat="43.4858567" lon="10.8013267"><ele>141.0</ele><time>2026-04-05T16:03:10.104Z</time></trkpt><trkpt lat="43.485965" lon="10.801205"><ele>141.0</ele><time>2026-04-05T16:03:11.104Z</time></trkpt><trkpt lat="43.486065" lon="10.8010717"><ele>141.0</ele><time>2026-04-05T16:03:12.103Z</time></trkpt><trkpt lat="43.486145" lon="10.8009183"><ele>141.0</ele><time>2026-04-05T16:03:13.104Z</time></trkpt><trkpt lat="43.4861983" lon="10.8007467"><ele>140.0</ele><time>2026-04-05T16:03:14.104Z</time></trkpt><trkpt lat="43.486235" lon="10.8005633"><ele>139.0</ele><time>2026-04-05T16:03:15.104Z</time></trkpt><trkpt lat="43.486265" lon="10.8003783"><ele>138.0</ele><time>2026-04-05T16:03:16.104Z</time></trkpt><trkpt lat="43.4862933" lon="10.800195"><ele>137.0</ele><time>2026-04-05T16:03:17.104Z</time></trkpt><trkpt lat="43.4863217" lon="10.80002"><ele>135.0</ele><time>2026-04-05T16:03:18.104Z</time></trkpt><trkpt lat="43.4863517" lon="10.79984"><ele>133.0</ele><time>2026-04-05T16:03:19.104Z</time></trkpt><trkpt lat="43.48638" lon="10.7996583"><ele>131.0</ele><time>2026-04-05T16:03:20.104Z</time></trkpt><trkpt lat="43.486405" lon="10.799475"><ele>129.0</ele><time>2026-04-05T16:03:21.104Z</time></trkpt><trkpt lat="43.48643" lon="10.7992917"><ele>128.5</ele><time>2026-04-05T16:03:22.104Z</time></trkpt><trkpt lat="43.48646" lon="10.7991133"><ele>128.0</ele><time>2026-04-05T16:03:23.104Z</time></trkpt><trkpt lat="43.486495" lon="10.79894"><ele>127.5</ele><time>2026-04-05T16:03:24.104Z</time></trkpt><trkpt lat="43.4865383" lon="10.7987733"><ele>127.0</ele><time>2026-04-05T16:03:25.104Z</time></trkpt><trkpt lat="43.4865933" lon="10.798615"><ele>127.5</ele><time>2026-04-05T16:03:26.104Z</time></trkpt><trkpt lat="43.48665" lon="10.7984683"><ele>128.0</ele><time>2026-04-05T16:03:27.104Z</time></trkpt><trkpt lat="43.4867083" lon="10.7983233"><ele>128.5</ele><time>2026-04-05T16:03:28.104Z</time></trkpt><trkpt lat="43.4867667" lon="10.7981833"><ele>129.0</ele><time>2026-04-05T16:03:29.104Z</time></trkpt><trkpt lat="43.4868217" lon="10.7980433"><ele>129.0</ele><time>2026-04-05T16:03:30.104Z</time></trkpt><trkpt lat="43.48688" lon="10.7979017"><ele>129.0</ele><time>2026-04-05T16:03:31.104Z</time></trkpt><trkpt lat="43.4869467" lon="10.797755"><ele>129.0</ele><time>2026-04-05T16:03:32.104Z</time></trkpt><trkpt lat="43.4870133" lon="10.7976033"><ele>129.0</ele><time>2026-04-05T16:03:33.104Z</time></trkpt><trkpt lat="43.487085" lon="10.7974467"><ele>128.5</ele><time>2026-04-05T16:03:34.103Z</time></trkpt><trkpt lat="43.4871583" lon="10.797285"><ele>128.0</ele><time>2026-04-05T16:03:35.103Z</time></trkpt><trkpt lat="43.48723" lon="10.7971233"><ele>127.5</ele><time>2026-04-05T16:03:36.104Z</time></trkpt><trkpt lat="43.4873" lon="10.7969617"><ele>127.0</ele><time>2026-04-05T16:03:37.104Z</time></trkpt><trkpt lat="43.4873717" lon="10.7968033"><ele>127.0</ele><time>2026-04-05T16:03:38.104Z</time></trkpt><trkpt lat="43.4874433" lon="10.79665"><ele>127.0</ele><time>2026-04-05T16:03:39.104Z</time></trkpt><trkpt lat="43.4875217" lon="10.7965117"><ele>127.0</ele><time>2026-04-05T16:03:40.104Z</time></trkpt><trkpt lat="43.487615" lon="10.7963917"><ele>127.0</ele><time>2026-04-05T16:03:41.104Z</time></trkpt><trkpt lat="43.487725" lon="10.7963133"><ele>127.0</ele><time>2026-04-05T16:03:42.104Z</time></trkpt><trkpt lat="43.4878467" lon="10.7962733"><ele>127.0</ele><time>2026-04-05T16:03:43.104Z</time></trkpt><trkpt lat="43.4879767" lon="10.7962583"><ele>127.0</ele><time>2026-04-05T16:03:44.104Z</time></trkpt><trkpt lat="43.4881133" lon="10.7962567"><ele>127.0</ele><time>2026-04-05T16:03:45.104Z</time></trkpt><trkpt lat="43.48825" lon="10.796265"><ele>125.5</ele><time>2026-04-05T16:03:46.104Z</time></trkpt><trkpt lat="43.4883933" lon="10.7962717"><ele>124.0</ele><time>2026-04-05T16:03:47.104Z</time></trkpt><trkpt lat="43.4885367" lon="10.7962667"><ele>122.5</ele><time>2026-04-05T16:03:48.103Z</time></trkpt><trkpt lat="43.4886783" lon="10.7962433"><ele>121.0</ele><time>2026-04-05T16:03:49.104Z</time></trkpt><trkpt lat="43.4888183" lon="10.79621"><ele>120.25</ele><time>2026-04-05T16:03:50.104Z</time></trkpt><trkpt lat="43.4889533" lon="10.7961717"><ele>119.5</ele><time>2026-04-05T16:03:51.104Z</time></trkpt><trkpt lat="43.4890817" lon="10.7961267"><ele>118.75</ele><time>2026-04-05T16:03:52.104Z</time></trkpt><trkpt lat="43.4892017" lon="10.7960733"><ele>118.0</ele><time>2026-04-05T16:03:53.104Z</time></trkpt><trkpt lat="43.4893083" lon="10.796"><ele>121.25</ele><time>2026-04-05T16:03:54.104Z</time></trkpt><trkpt lat="43.4894017" lon="10.7959033"><ele>124.5</ele><time>2026-04-05T16:03:55.104Z</time></trkpt><trkpt lat="43.4894783" lon="10.7957783"><ele>127.75</ele><time>2026-04-05T16:03:56.104Z</time></trkpt><trkpt lat="43.48954" lon="10.7956367"><ele>131.0</ele><time>2026-04-05T16:03:57.104Z</time></trkpt><trkpt lat="43.48959" lon="10.79548"><ele>128.75</ele><time>2026-04-05T16:03:58.103Z</time></trkpt><trkpt lat="43.4896383" lon="10.7953183"><ele>126.5</ele><time>2026-04-05T16:03:59.104Z</time></trkpt><trkpt lat="43.4896883" lon="10.7951517"><ele>124.25</ele><time>2026-04-05T16:04:00.104Z</time></trkpt><trkpt lat="43.48974" lon="10.79498"><ele>122.0</ele><time>2026-04-05T16:04:01.104Z</time></trkpt><trkpt lat="43.4897917" lon="10.7948067"><ele>122.0</ele><time>2026-04-05T16:04:02.104Z</time></trkpt><trkpt lat="43.4898433" lon="10.794635"><ele>122.0</ele><time>2026-04-05T16:04:03.104Z</time></trkpt><trkpt lat="43.4898967" lon="10.7944617"><ele>122.0</ele><time>2026-04-05T16:04:04.104Z</time></trkpt><trkpt lat="43.4899517" lon="10.79429"><ele>122.0</ele><time>2026-04-05T16:04:05.104Z</time></trkpt><trkpt lat="43.4901133" lon="10.7937717"><ele>123.25</ele><time>2026-04-05T16:04:08.104Z</time></trkpt><trkpt lat="43.4901633" lon="10.7936"><ele>124.5</ele><time>2026-04-05T16:04:09.103Z</time></trkpt><trkpt lat="43.4902167" lon="10.7934283"><ele>125.75</ele><time>2026-04-05T16:04:10.104Z</time></trkpt><trkpt lat="43.490275" lon="10.79326"><ele>127.0</ele><time>2026-04-05T16:04:11.104Z</time></trkpt><trkpt lat="43.4903333" lon="10.7930883"><ele>127.0</ele><time>2026-04-05T16:04:12.104Z</time></trkpt><trkpt lat="43.4903867" lon="10.7929217"><ele>127.0</ele><time>2026-04-05T16:04:13.104Z</time></trkpt><trkpt lat="43.4904433" lon="10.7927467"><ele>127.0</ele><time>2026-04-05T16:04:14.104Z</time></trkpt><trkpt lat="43.4905067" lon="10.7925717"><ele>127.0</ele><time>2026-04-05T16:04:15.104Z</time></trkpt><trkpt lat="43.4905733" lon="10.792405"><ele>127.75</ele><time>2026-04-05T16:04:16.104Z</time></trkpt><trkpt lat="43.49064" lon="10.7922467"><ele>128.5</ele><time>2026-04-05T16:04:17.104Z</time></trkpt><trkpt lat="43.490705" lon="10.7921017"><ele>129.25</ele><time>2026-04-05T16:04:18.104Z</time></trkpt><trkpt lat="43.4907683" lon="10.7919617"><ele>130.0</ele><time>2026-04-05T16:04:19.104Z</time></trkpt><trkpt lat="43.4908317" lon="10.7918183"><ele>130.5</ele><time>2026-04-05T16:04:20.104Z</time></trkpt><trkpt lat="43.4909" lon="10.7916767"><ele>131.0</ele><time>2026-04-05T16:04:21.104Z</time></trkpt><trkpt lat="43.4909633" lon="10.791535"><ele>131.5</ele><time>2026-04-05T16:04:22.104Z</time></trkpt><trkpt lat="43.4910267" lon="10.7913917"><ele>132.0</ele><time>2026-04-05T16:04:23.104Z</time></trkpt><trkpt lat="43.4910933" lon="10.79125"><ele>132.0</ele><time>2026-04-05T16:04:24.104Z</time></trkpt><trkpt lat="43.4911617" lon="10.791105"><ele>132.0</ele><time>2026-04-05T16:04:25.104Z</time></trkpt><trkpt lat="43.4912333" lon="10.7909583"><ele>132.0</ele><time>2026-04-05T16:04:26.103Z</time></trkpt><trkpt lat="43.4913067" lon="10.79081"><ele>132.0</ele><time>2026-04-05T16:04:27.104Z</time></trkpt><trkpt lat="43.4913883" lon="10.790665"><ele>129.75</ele><time>2026-04-05T16:04:28.104Z</time></trkpt><trkpt lat="43.491475" lon="10.7905233"><ele>127.5</ele><time>2026-04-05T16:04:29.104Z</time></trkpt><trkpt lat="43.4915617" lon="10.7903833"><ele>125.25</ele><time>2026-04-05T16:04:30.104Z</time></trkpt><trkpt lat="43.491645" lon="10.7902467"><ele>123.0</ele><time>2026-04-05T16:04:31.104Z</time></trkpt><trkpt lat="43.4917283" lon="10.7901133"><ele>123.0</ele><time>2026-04-05T16:04:32.104Z</time></trkpt><trkpt lat="43.4918117" lon="10.7899817"><ele>123.0</ele><time>2026-04-05T16:04:33.104Z</time></trkpt><trkpt lat="43.4918933" lon="10.7898483"><ele>123.0</ele><time>2026-04-05T16:04:34.104Z</time></trkpt><trkpt lat="43.4919717" lon="10.7897217"><ele>123.0</ele><time>2026-04-05T16:04:35.104Z</time></trkpt><trkpt lat="43.4920467" lon="10.7895967"><ele>121.75</ele><time>2026-04-05T16:04:36.104Z</time></trkpt><trkpt lat="43.4921217" lon="10.789465"><ele>120.5</ele><time>2026-04-05T16:04:37.104Z</time></trkpt><trkpt lat="43.4921983" lon="10.789335"><ele>119.25</ele><time>2026-04-05T16:04:38.104Z</time></trkpt><trkpt lat="43.4922783" lon="10.7892083"><ele>118.0</ele><time>2026-04-05T16:04:39.104Z</time></trkpt><trkpt lat="43.492365" lon="10.7890967"><ele>118.0</ele><time>2026-04-05T16:04:40.104Z</time></trkpt><trkpt lat="43.4924617" lon="10.7890133"><ele>118.00000000000001</ele><time>2026-04-05T16:04:41.104Z</time></trkpt><trkpt lat="43.4925633" lon="10.788955"><ele>118.00000000000001</ele><time>2026-04-05T16:04:42.104Z</time></trkpt><trkpt lat="43.4926717" lon="10.7889367"><ele>118.0</ele><time>2026-04-05T16:04:43.104Z</time></trkpt><trkpt lat="43.492785" lon="10.7889633"><ele>118.0</ele><time>2026-04-05T16:04:44.103Z</time></trkpt><trkpt lat="43.4929" lon="10.7890217"><ele>117.5</ele><time>2026-04-05T16:04:45.104Z</time></trkpt><trkpt lat="43.4930133" lon="10.7891017"><ele>117.0</ele><time>2026-04-05T16:04:46.104Z</time></trkpt><trkpt lat="43.4931267" lon="10.7891967"><ele>116.5</ele><time>2026-04-05T16:04:47.103Z</time></trkpt><trkpt lat="43.4932367" lon="10.7893067"><ele>116.0</ele><time>2026-04-05T16:04:48.104Z</time></trkpt><trkpt lat="43.493345" lon="10.789425"><ele>113.5</ele><time>2026-04-05T16:04:49.104Z</time></trkpt><trkpt lat="43.4934483" lon="10.78956"><ele>111.0</ele><time>2026-04-05T16:04:50.104Z</time></trkpt><trkpt lat="43.4935483" lon="10.789705"><ele>108.5</ele><time>2026-04-05T16:04:51.104Z</time></trkpt><trkpt lat="43.4936467" lon="10.789855"><ele>106.0</ele><time>2026-04-05T16:04:52.104Z</time></trkpt><trkpt lat="43.4937433" lon="10.7900067"><ele>105.75</ele><time>2026-04-05T16:04:53.104Z</time></trkpt><trkpt lat="43.493835" lon="10.7901617"><ele>105.5</ele><time>2026-04-05T16:04:54.104Z</time></trkpt><trkpt lat="43.4939233" lon="10.79032"><ele>105.25</ele><time>2026-04-05T16:04:55.104Z</time></trkpt><trkpt lat="43.4940033" lon="10.790485"><ele>105.0</ele><time>2026-04-05T16:04:56.103Z</time></trkpt><trkpt lat="43.4940733" lon="10.7906533"><ele>105.0</ele><time>2026-04-05T16:04:57.104Z</time></trkpt><trkpt lat="43.4941333" lon="10.7908267"><ele>105.0</ele><time>2026-04-05T16:04:58.103Z</time></trkpt><trkpt lat="43.4941883" lon="10.7909983"><ele>105.0</ele><time>2026-04-05T16:04:59.104Z</time></trkpt><trkpt lat="43.4942433" lon="10.7911667"><ele>105.0</ele><time>2026-04-05T16:05:00.104Z</time></trkpt><trkpt lat="43.4943083" lon="10.7913217"><ele>104.0</ele><time>2026-04-05T16:05:01.104Z</time></trkpt><trkpt lat="43.4943833" lon="10.7914667"><ele>103.0</ele><time>2026-04-05T16:05:02.104Z</time></trkpt><trkpt lat="43.494465" lon="10.7915967"><ele>102.0</ele><time>2026-04-05T16:05:03.104Z</time></trkpt><trkpt lat="43.494555" lon="10.7917133"><ele>101.0</ele><time>2026-04-05T16:05:04.104Z</time></trkpt><trkpt lat="43.4946617" lon="10.7918067"><ele>98.25</ele><time>2026-04-05T16:05:05.104Z</time></trkpt><trkpt lat="43.4947767" lon="10.7918633"><ele>95.5</ele><time>2026-04-05T16:05:06.104Z</time></trkpt><trkpt lat="43.4948967" lon="10.7918933"><ele>92.75</ele><time>2026-04-05T16:05:07.104Z</time></trkpt><trkpt lat="43.4950217" lon="10.7918983"><ele>90.0</ele><time>2026-04-05T16:05:08.104Z</time></trkpt><trkpt lat="43.4951533" lon="10.7918983"><ele>90.0</ele><time>2026-04-05T16:05:09.104Z</time></trkpt><trkpt lat="43.495285" lon="10.7918983"><ele>90.0</ele><time>2026-04-05T16:05:10.104Z</time></trkpt><trkpt lat="43.495415" lon="10.7918967"><ele>90.0</ele><time>2026-04-05T16:05:11.104Z</time></trkpt><trkpt lat="43.4955433" lon="10.791895"><ele>90.0</ele><time>2026-04-05T16:05:12.104Z</time></trkpt><trkpt lat="43.49567" lon="10.7919"><ele>89.25</ele><time>2026-04-05T16:05:13.104Z</time></trkpt><trkpt lat="43.4957967" lon="10.79192"><ele>88.5</ele><time>2026-04-05T16:05:14.104Z</time></trkpt><trkpt lat="43.4959167" lon="10.7919517"><ele>87.75</ele><time>2026-04-05T16:05:15.104Z</time></trkpt><trkpt lat="43.4960367" lon="10.791985"><ele>87.0</ele><time>2026-04-05T16:05:16.104Z</time></trkpt><trkpt lat="43.49616" lon="10.7919967"><ele>87.5</ele><time>2026-04-05T16:05:17.104Z</time></trkpt><trkpt lat="43.496285" lon="10.7919733"><ele>88.0</ele><time>2026-04-05T16:05:18.103Z</time></trkpt><trkpt lat="43.4964067" lon="10.7919317"><ele>88.5</ele><time>2026-04-05T16:05:19.104Z</time></trkpt><trkpt lat="43.49653" lon="10.7918717"><ele>89.0</ele><time>2026-04-05T16:05:20.104Z</time></trkpt><trkpt lat="43.4966517" lon="10.7917967"><ele>89.0</ele><time>2026-04-05T16:05:21.104Z</time></trkpt><trkpt lat="43.4967717" lon="10.7917133"><ele>89.0</ele><time>2026-04-05T16:05:22.104Z</time></trkpt><trkpt lat="43.496885" lon="10.791615"><ele>89.0</ele><time>2026-04-05T16:05:23.104Z</time></trkpt><trkpt lat="43.49699" lon="10.791505"><ele>89.0</ele><time>2026-04-05T16:05:24.104Z</time></trkpt><trkpt lat="43.4970933" lon="10.791385"><ele>87.5</ele><time>2026-04-05T16:05:25.104Z</time></trkpt><trkpt lat="43.4971933" lon="10.791265"><ele>86.0</ele><time>2026-04-05T16:05:26.103Z</time></trkpt><trkpt lat="43.4972917" lon="10.7911467"><ele>84.5</ele><time>2026-04-05T16:05:27.104Z</time></trkpt><trkpt lat="43.4973883" lon="10.7910317"><ele>83.0</ele><time>2026-04-05T16:05:28.104Z</time></trkpt><trkpt lat="43.4974817" lon="10.7909233"><ele>83.0</ele><time>2026-04-05T16:05:29.103Z</time></trkpt><trkpt lat="43.4975733" lon="10.7908267"><ele>83.0</ele><time>2026-04-05T16:05:30.104Z</time></trkpt><trkpt lat="43.4976683" lon="10.7907517"><ele>83.0</ele><time>2026-04-05T16:05:31.104Z</time></trkpt><trkpt lat="43.4977717" lon="10.79072"><ele>83.0</ele><time>2026-04-05T16:05:32.104Z</time></trkpt><trkpt lat="43.497875" lon="10.7907317"><ele>83.0</ele><time>2026-04-05T16:05:33.104Z</time></trkpt><trkpt lat="43.4979883" lon="10.790785"><ele>83.25</ele><time>2026-04-05T16:05:34.104Z</time></trkpt><trkpt lat="43.4980917" lon="10.79088"><ele>83.5</ele><time>2026-04-05T16:05:35.104Z</time></trkpt><trkpt lat="43.4981917" lon="10.790995"><ele>83.75</ele><time>2026-04-05T16:05:36.104Z</time></trkpt><trkpt lat="43.4982917" lon="10.791115"><ele>84.0</ele><time>2026-04-05T16:05:37.104Z</time></trkpt><trkpt lat="43.498395" lon="10.7912367"><ele>83.25</ele><time>2026-04-05T16:05:38.104Z</time></trkpt><trkpt lat="43.4985067" lon="10.79136"><ele>82.5</ele><time>2026-04-05T16:05:39.104Z</time></trkpt><trkpt lat="43.49862" lon="10.7914833"><ele>81.75</ele><time>2026-04-05T16:05:40.103Z</time></trkpt><trkpt lat="43.4987367" lon="10.79161"><ele>81.0</ele><time>2026-04-05T16:05:41.104Z</time></trkpt><trkpt lat="43.4988533" lon="10.791745"><ele>80.33333333333333</ele><time>2026-04-05T16:05:42.104Z</time></trkpt><trkpt lat="43.4989767" lon="10.791875"><ele>79.66666666666666</ele><time>2026-04-05T16:05:43.104Z</time></trkpt><trkpt lat="43.4991033" lon="10.7920083"><ele>79.0</ele><time>2026-04-05T16:05:44.104Z</time></trkpt><trkpt lat="43.4992267" lon="10.7921483"><ele>79.0</ele><time>2026-04-05T16:05:45.104Z</time></trkpt><trkpt lat="43.4993483" lon="10.7922917"><ele>79.0</ele><time>2026-04-05T16:05:46.104Z</time></trkpt><trkpt lat="43.4994733" lon="10.792435"><ele>79.0</ele><time>2026-04-05T16:05:47.104Z</time></trkpt><trkpt lat="43.4996" lon="10.7925717"><ele>78.33333333333333</ele><time>2026-04-05T16:05:48.104Z</time></trkpt><trkpt lat="43.4997267" lon="10.7927183"><ele>77.66666666666667</ele><time>2026-04-05T16:05:49.104Z</time></trkpt><trkpt lat="43.4998567" lon="10.7928583"><ele>77.0</ele><time>2026-04-05T16:05:50.104Z</time></trkpt><trkpt lat="43.499985" lon="10.7929983"><ele>77.0</ele><time>2026-04-05T16:05:51.104Z</time></trkpt><trkpt lat="43.500115" lon="10.7931417"><ele>77.0</ele><time>2026-04-05T16:05:52.104Z</time></trkpt><trkpt lat="43.5002433" lon="10.7932883"><ele>77.0</ele><time>2026-04-05T16:05:53.104Z</time></trkpt><trkpt lat="43.50037" lon="10.79344"><ele>77.0</ele><time>2026-04-05T16:05:54.104Z</time></trkpt><trkpt lat="43.5004967" lon="10.7935883"><ele>77.0</ele><time>2026-04-05T16:05:55.104Z</time></trkpt><trkpt lat="43.500625" lon="10.7937333"><ele>77.0</ele><time>2026-04-05T16:05:56.104Z</time></trkpt><trkpt lat="43.500755" lon="10.7938783"><ele>77.0</ele><time>2026-04-05T16:05:57.104Z</time></trkpt><trkpt lat="43.500885" lon="10.7940233"><ele>77.0</ele><time>2026-04-05T16:05:58.104Z</time></trkpt><trkpt lat="43.501015" lon="10.794165"><ele>77.0</ele><time>2026-04-05T16:05:59.104Z</time></trkpt><trkpt lat="43.5011417" lon="10.7943083"><ele>77.33333333333334</ele><time>2026-04-05T16:06:00.104Z</time></trkpt><trkpt lat="43.5012683" lon="10.79445"><ele>77.66666666666667</ele><time>2026-04-05T16:06:01.104Z</time></trkpt><trkpt lat="43.5013917" lon="10.7945883"><ele>78.0</ele><time>2026-04-05T16:06:02.104Z</time></trkpt><trkpt lat="43.5015167" lon="10.7947267"><ele>78.0</ele><time>2026-04-05T16:06:03.104Z</time></trkpt><trkpt lat="43.5016417" lon="10.7948683"><ele>78.0</ele><time>2026-04-05T16:06:04.104Z</time></trkpt><trkpt lat="43.501765" lon="10.79501"><ele>78.0</ele><time>2026-04-05T16:06:05.104Z</time></trkpt><trkpt lat="43.5018833" lon="10.7951533"><ele>77.33333333333333</ele><time>2026-04-05T16:06:06.103Z</time></trkpt><trkpt lat="43.5020017" lon="10.7953"><ele>76.66666666666666</ele><time>2026-04-05T16:06:07.104Z</time></trkpt><trkpt lat="43.5021167" lon="10.7954483"><ele>76.0</ele><time>2026-04-05T16:06:08.103Z</time></trkpt><trkpt lat="43.5022267" lon="10.7956083"><ele>76.0</ele><time>2026-04-05T16:06:09.103Z</time></trkpt><trkpt lat="43.5023317" lon="10.79577"><ele>76.0</ele><time>2026-04-05T16:06:10.104Z</time></trkpt><trkpt lat="43.50243" lon="10.79593"><ele>76.0</ele><time>2026-04-05T16:06:11.104Z</time></trkpt><trkpt lat="43.5025233" lon="10.7960867"><ele>76.5</ele><time>2026-04-05T16:06:12.104Z</time></trkpt><trkpt lat="43.502615" lon="10.796235"><ele>77.0</ele><time>2026-04-05T16:06:13.104Z</time></trkpt><trkpt lat="43.5026983" lon="10.796375"><ele>77.5</ele><time>2026-04-05T16:06:14.104Z</time></trkpt><trkpt lat="43.502785" lon="10.7964933"><ele>78.0</ele><time>2026-04-05T16:06:15.104Z</time></trkpt><trkpt lat="43.502885" lon="10.7965667"><ele>78.0</ele><time>2026-04-05T16:06:16.104Z</time></trkpt><trkpt lat="43.5029883" lon="10.796585"><ele>78.0</ele><time>2026-04-05T16:06:17.104Z</time></trkpt><trkpt lat="43.503095" lon="10.7965617"><ele>78.0</ele><time>2026-04-05T16:06:18.104Z</time></trkpt><trkpt lat="43.5032017" lon="10.7964967"><ele>78.0</ele><time>2026-04-05T16:06:19.104Z</time></trkpt><trkpt lat="43.5033167" lon="10.79642"><ele>78.0</ele><time>2026-04-05T16:06:20.104Z</time></trkpt><trkpt lat="43.5034333" lon="10.796335"><ele>78.0</ele><time>2026-04-05T16:06:21.104Z</time></trkpt><trkpt lat="43.503555" lon="10.7962533"><ele>78.0</ele><time>2026-04-05T16:06:22.104Z</time></trkpt><trkpt lat="43.5036783" lon="10.7961767"><ele>78.0</ele><time>2026-04-05T16:06:23.104Z</time></trkpt><trkpt lat="43.5038033" lon="10.7961033"><ele>77.75</ele><time>2026-04-05T16:06:24.104Z</time></trkpt><trkpt lat="43.5039283" lon="10.796025"><ele>77.5</ele><time>2026-04-05T16:06:25.104Z</time></trkpt><trkpt lat="43.5040567" lon="10.79594"><ele>77.25</ele><time>2026-04-05T16:06:26.104Z</time></trkpt><trkpt lat="43.5041833" lon="10.7958517"><ele>77.0</ele><time>2026-04-05T16:06:27.104Z</time></trkpt><trkpt lat="43.504315" lon="10.7957667"><ele>77.0</ele><time>2026-04-05T16:06:28.104Z</time></trkpt><trkpt lat="43.5044467" lon="10.79568"><ele>77.0</ele><time>2026-04-05T16:06:29.104Z</time></trkpt><trkpt lat="43.50458" lon="10.7955883"><ele>77.0</ele><time>2026-04-05T16:06:30.104Z</time></trkpt><trkpt lat="43.5047083" lon="10.7955017"><ele>77.0</ele><time>2026-04-05T16:06:31.104Z</time></trkpt><trkpt lat="43.5048333" lon="10.7954183"><ele>77.25</ele><time>2026-04-05T16:06:32.104Z</time></trkpt><trkpt lat="43.5049583" lon="10.7953317"><ele>77.5</ele><time>2026-04-05T16:06:33.104Z</time></trkpt><trkpt lat="43.5050817" lon="10.7952367"><ele>77.75</ele><time>2026-04-05T16:06:34.104Z</time></trkpt><trkpt lat="43.5051933" lon="10.7951267"><ele>78.0</ele><time>2026-04-05T16:06:35.104Z</time></trkpt><trkpt lat="43.50529" lon="10.794985"><ele>78.33333333333333</ele><time>2026-04-05T16:06:36.104Z</time></trkpt><trkpt lat="43.5053817" lon="10.79482"><ele>78.66666666666666</ele><time>2026-04-05T16:06:37.104Z</time></trkpt><trkpt lat="43.5054717" lon="10.79464"><ele>79.0</ele><time>2026-04-05T16:06:38.103Z</time></trkpt><trkpt lat="43.505555" lon="10.7944567"><ele>79.0</ele><time>2026-04-05T16:06:39.104Z</time></trkpt><trkpt lat="43.5056467" lon="10.7942817"><ele>79.0</ele><time>2026-04-05T16:06:40.104Z</time></trkpt><trkpt lat="43.5057333" lon="10.7940983"><ele>79.0</ele><time>2026-04-05T16:06:41.104Z</time></trkpt><trkpt lat="43.505825" lon="10.7939117"><ele>79.0</ele><time>2026-04-05T16:06:42.104Z</time></trkpt><trkpt lat="43.5059133" lon="10.7937217"><ele>79.0</ele><time>2026-04-05T16:06:43.104Z</time></trkpt><trkpt lat="43.5060017" lon="10.79353"><ele>79.0</ele><time>2026-04-05T16:06:44.103Z</time></trkpt><trkpt lat="43.506095" lon="10.7933367"><ele>79.0</ele><time>2026-04-05T16:06:45.104Z</time></trkpt><trkpt lat="43.5061883" lon="10.793145"><ele>79.0</ele><time>2026-04-05T16:06:46.103Z</time></trkpt><trkpt lat="43.506285" lon="10.792955"><ele>79.0</ele><time>2026-04-05T16:06:47.104Z</time></trkpt><trkpt lat="43.5063767" lon="10.7927667"><ele>78.33333333333333</ele><time>2026-04-05T16:06:48.104Z</time></trkpt><trkpt lat="43.5064667" lon="10.792575"><ele>77.66666666666667</ele><time>2026-04-05T16:06:49.104Z</time></trkpt><trkpt lat="43.5065483" lon="10.7923867"><ele>77.0</ele><time>2026-04-05T16:06:50.104Z</time></trkpt><trkpt lat="43.506635" lon="10.7921967"><ele>77.0</ele><time>2026-04-05T16:06:51.104Z</time></trkpt><trkpt lat="43.506725" lon="10.7920117"><ele>77.0</ele><time>2026-04-05T16:06:52.104Z</time></trkpt><trkpt lat="43.5068133" lon="10.791825"><ele>77.0</ele><time>2026-04-05T16:06:53.104Z</time></trkpt><trkpt lat="43.5069117" lon="10.7916417"><ele>77.0</ele><time>2026-04-05T16:06:54.104Z</time></trkpt><trkpt lat="43.5070167" lon="10.7914667"><ele>77.0</ele><time>2026-04-05T16:06:55.104Z</time></trkpt><trkpt lat="43.5071367" lon="10.7913133"><ele>77.0</ele><time>2026-04-05T16:06:56.104Z</time></trkpt><trkpt lat="43.5072733" lon="10.7911967"><ele>77.0</ele><time>2026-04-05T16:06:57.104Z</time></trkpt><trkpt lat="43.5074183" lon="10.7910933"><ele>77.0</ele><time>2026-04-05T16:06:58.104Z</time></trkpt><trkpt lat="43.5075717" lon="10.791"><ele>77.0</ele><time>2026-04-05T16:06:59.104Z</time></trkpt><trkpt lat="43.50773" lon="10.7909183"><ele>77.0</ele><time>2026-04-05T16:07:00.104Z</time></trkpt><trkpt lat="43.507885" lon="10.79083"><ele>77.0</ele><time>2026-04-05T16:07:01.104Z</time></trkpt><trkpt lat="43.5080417" lon="10.79074"><ele>77.0</ele><time>2026-04-05T16:07:02.104Z</time></trkpt><trkpt lat="43.5082017" lon="10.7906483"><ele>77.0</ele><time>2026-04-05T16:07:03.104Z</time></trkpt><trkpt lat="43.5083567" lon="10.7905583"><ele>77.0</ele><time>2026-04-05T16:07:04.104Z</time></trkpt><trkpt lat="43.5085083" lon="10.7904683"><ele>77.0</ele><time>2026-04-05T16:07:05.104Z</time></trkpt><trkpt lat="43.5086517" lon="10.7903833"><ele>76.0</ele><time>2026-04-05T16:07:06.104Z</time></trkpt><trkpt lat="43.5087883" lon="10.790305"><ele>75.0</ele><time>2026-04-05T16:07:07.104Z</time></trkpt><trkpt lat="43.50892" lon="10.7902367"><ele>74.0</ele><time>2026-04-05T16:07:08.104Z</time></trkpt><trkpt lat="43.509035" lon="10.7901517"><ele>73.0</ele><time>2026-04-05T16:07:09.103Z</time></trkpt><trkpt lat="43.5091267" lon="10.79004"><ele>73.0</ele><time>2026-04-05T16:07:10.104Z</time></trkpt><trkpt lat="43.509195" lon="10.7899133"><ele>73.0</ele><time>2026-04-05T16:07:11.104Z</time></trkpt><trkpt lat="43.5092367" lon="10.789785"><ele>73.0</ele><time>2026-04-05T16:07:12.104Z</time></trkpt><trkpt lat="43.5092767" lon="10.7896583"><ele>73.0</ele><time>2026-04-05T16:07:13.104Z</time></trkpt><trkpt lat="43.5093317" lon="10.7895433"><ele>73.0</ele><time>2026-04-05T16:07:14.104Z</time></trkpt><trkpt lat="43.5094083" lon="10.789455"><ele>73.0</ele><time>2026-04-05T16:07:15.104Z</time></trkpt><trkpt lat="43.5095083" lon="10.7894"><ele>73.0</ele><time>2026-04-05T16:07:16.103Z</time></trkpt><trkpt lat="43.509625" lon="10.7893717"><ele>73.0</ele><time>2026-04-05T16:07:17.104Z</time></trkpt><trkpt lat="43.509755" lon="10.7893483"><ele>73.0</ele><time>2026-04-05T16:07:18.104Z</time></trkpt><trkpt lat="43.5098917" lon="10.7893233"><ele>73.5</ele><time>2026-04-05T16:07:19.104Z</time></trkpt><trkpt lat="43.5100267" lon="10.7892933"><ele>74.0</ele><time>2026-04-05T16:07:20.104Z</time></trkpt><trkpt lat="43.5101683" lon="10.7892733"><ele>74.5</ele><time>2026-04-05T16:07:21.104Z</time></trkpt><trkpt lat="43.5103183" lon="10.789265"><ele>75.0</ele><time>2026-04-05T16:07:22.104Z</time></trkpt><trkpt lat="43.5104733" lon="10.7892667"><ele>75.0</ele><time>2026-04-05T16:07:23.104Z</time></trkpt><trkpt lat="43.5106367" lon="10.789285"><ele>75.0</ele><time>2026-04-05T16:07:24.104Z</time></trkpt><trkpt lat="43.510805" lon="10.7893133"><ele>75.0</ele><time>2026-04-05T16:07:25.104Z</time></trkpt><trkpt lat="43.5109733" lon="10.7893433"><ele>74.66666666666667</ele><time>2026-04-05T16:07:26.104Z</time></trkpt><trkpt lat="43.5111417" lon="10.7893767"><ele>74.33333333333334</ele><time>2026-04-05T16:07:27.104Z</time></trkpt><trkpt lat="43.51131" lon="10.78941"><ele>74.0</ele><time>2026-04-05T16:07:28.104Z</time></trkpt><trkpt lat="43.5114833" lon="10.78944"><ele>74.0</ele><time>2026-04-05T16:07:29.104Z</time></trkpt><trkpt lat="43.5116583" lon="10.78947"><ele>74.0</ele><time>2026-04-05T16:07:30.104Z</time></trkpt><trkpt lat="43.5118333" lon="10.7895017"><ele>74.0</ele><time>2026-04-05T16:07:31.104Z</time></trkpt><trkpt lat="43.5120083" lon="10.7895317"><ele>74.33333333333334</ele><time>2026-04-05T16:07:32.104Z</time></trkpt><trkpt lat="43.5121817" lon="10.7895633"><ele>74.66666666666667</ele><time>2026-04-05T16:07:33.104Z</time></trkpt><trkpt lat="43.5123567" lon="10.789595"><ele>75.0</ele><time>2026-04-05T16:07:34.104Z</time></trkpt><trkpt lat="43.5125283" lon="10.7896267"><ele>75.0</ele><time>2026-04-05T16:07:35.104Z</time></trkpt><trkpt lat="43.5126983" lon="10.7896567"><ele>75.0</ele><time>2026-04-05T16:07:36.104Z</time></trkpt><trkpt lat="43.51287" lon="10.78969"><ele>75.0</ele><time>2026-04-05T16:07:37.104Z</time></trkpt><trkpt lat="43.5130433" lon="10.7897267"><ele>74.33333333333333</ele><time>2026-04-05T16:07:38.104Z</time></trkpt><trkpt lat="43.5132167" lon="10.7897633"><ele>73.66666666666666</ele><time>2026-04-05T16:07:39.104Z</time></trkpt><trkpt lat="43.5133883" lon="10.789795"><ele>73.0</ele><time>2026-04-05T16:07:40.104Z</time></trkpt><trkpt lat="43.5135633" lon="10.78983"><ele>73.0</ele><time>2026-04-05T16:07:41.104Z</time></trkpt><trkpt lat="43.5137383" lon="10.7898633"><ele>73.0</ele><time>2026-04-05T16:07:42.104Z</time></trkpt><trkpt lat="43.5139117" lon="10.7898967"><ele>73.0</ele><time>2026-04-05T16:07:43.104Z</time></trkpt><trkpt lat="43.5140833" lon="10.7899283"><ele>72.66666666666666</ele><time>2026-04-05T16:07:44.104Z</time></trkpt><trkpt lat="43.5142517" lon="10.7899583"><ele>72.33333333333333</ele><time>2026-04-05T16:07:45.103Z</time></trkpt><trkpt lat="43.5144183" lon="10.789985"><ele>72.0</ele><time>2026-04-05T16:07:46.104Z</time></trkpt><trkpt lat="43.5145883" lon="10.7900067"><ele>71.66666666666667</ele><time>2026-04-05T16:07:47.104Z</time></trkpt><trkpt lat="43.5147583" lon="10.79003"><ele>71.33333333333334</ele><time>2026-04-05T16:07:48.104Z</time></trkpt><trkpt lat="43.5149333" lon="10.7900533"><ele>71.0</ele><time>2026-04-05T16:07:49.104Z</time></trkpt><trkpt lat="43.5151133" lon="10.7900783"><ele>71.0</ele><time>2026-04-05T16:07:50.103Z</time></trkpt><trkpt lat="43.5152967" lon="10.7901033"><ele>71.0</ele><time>2026-04-05T16:07:51.104Z</time></trkpt><trkpt lat="43.51548" lon="10.7901283"><ele>71.0</ele><time>2026-04-05T16:07:52.104Z</time></trkpt><trkpt lat="43.5156633" lon="10.7901533"><ele>71.0</ele><time>2026-04-05T16:07:53.104Z</time></trkpt><trkpt lat="43.5158467" lon="10.7901783"><ele>71.0</ele><time>2026-04-05T16:07:54.104Z</time></trkpt><trkpt lat="43.5160283" lon="10.790205"><ele>71.0</ele><time>2026-04-05T16:07:55.104Z</time></trkpt><trkpt lat="43.51621" lon="10.7902317"><ele>71.66666666666667</ele><time>2026-04-05T16:07:56.104Z</time></trkpt><trkpt lat="43.51639" lon="10.7902567"><ele>72.33333333333333</ele><time>2026-04-05T16:07:57.104Z</time></trkpt><trkpt lat="43.51657" lon="10.7902833"><ele>73.0</ele><time>2026-04-05T16:07:58.104Z</time></trkpt><trkpt lat="43.51675" lon="10.7903117"><ele>73.0</ele><time>2026-04-05T16:07:59.104Z</time></trkpt><trkpt lat="43.5169283" lon="10.7903433"><ele>73.0</ele><time>2026-04-05T16:08:00.104Z</time></trkpt><trkpt lat="43.5171033" lon="10.790375"><ele>73.0</ele><time>2026-04-05T16:08:01.103Z</time></trkpt><trkpt lat="43.5172783" lon="10.7904033"><ele>72.33333333333333</ele><time>2026-04-05T16:08:02.104Z</time></trkpt><trkpt lat="43.51745" lon="10.7904317"><ele>71.66666666666667</ele><time>2026-04-05T16:08:03.104Z</time></trkpt><trkpt lat="43.5176183" lon="10.790455"><ele>71.0</ele><time>2026-04-05T16:08:04.104Z</time></trkpt><trkpt lat="43.51778" lon="10.79047"><ele>71.0</ele><time>2026-04-05T16:08:05.104Z</time></trkpt><trkpt lat="43.5179417" lon="10.7904683"><ele>71.0</ele><time>2026-04-05T16:08:06.104Z</time></trkpt><trkpt lat="43.5180967" lon="10.79043"><ele>71.0</ele><time>2026-04-05T16:08:07.104Z</time></trkpt><trkpt lat="43.5182367" lon="10.79035"><ele>71.0</ele><time>2026-04-05T16:08:08.104Z</time></trkpt><trkpt lat="43.51837" lon="10.7902433"><ele>71.0</ele><time>2026-04-05T16:08:09.104Z</time></trkpt><trkpt lat="43.5185" lon="10.7901167"><ele>71.0</ele><time>2026-04-05T16:08:10.104Z</time></trkpt><trkpt lat="43.51863" lon="10.7899817"><ele>71.33333333333334</ele><time>2026-04-05T16:08:11.104Z</time></trkpt><trkpt lat="43.5187667" lon="10.7898383"><ele>71.66666666666667</ele><time>2026-04-05T16:08:12.104Z</time></trkpt><trkpt lat="43.5189067" lon="10.7896967"><ele>72.0</ele><time>2026-04-05T16:08:13.104Z</time></trkpt><trkpt lat="43.51905" lon="10.7895517"><ele>72.0</ele><time>2026-04-05T16:08:14.104Z</time></trkpt><trkpt lat="43.5191883" lon="10.78941"><ele>72.0</ele><time>2026-04-05T16:08:15.104Z</time></trkpt><trkpt lat="43.5193233" lon="10.7892683"><ele>72.0</ele><time>2026-04-05T16:08:16.104Z</time></trkpt><trkpt lat="43.5194517" lon="10.789115"><ele>71.33333333333333</ele><time>2026-04-05T16:08:17.104Z</time></trkpt><trkpt lat="43.5195733" lon="10.7889333"><ele>70.66666666666666</ele><time>2026-04-05T16:08:18.104Z</time></trkpt><trkpt lat="43.5196833" lon="10.7887333"><ele>70.0</ele><time>2026-04-05T16:08:19.104Z</time></trkpt><trkpt lat="43.5197917" lon="10.7885317"><ele>70.33333333333333</ele><time>2026-04-05T16:08:20.104Z</time></trkpt><trkpt lat="43.5199017" lon="10.7883267"><ele>70.66666666666667</ele><time>2026-04-05T16:08:21.104Z</time></trkpt><trkpt lat="43.5200083" lon="10.7881233"><ele>71.0</ele><time>2026-04-05T16:08:22.104Z</time></trkpt><trkpt lat="43.520115" lon="10.7879183"><ele>71.0</ele><time>2026-04-05T16:08:23.104Z</time></trkpt><trkpt lat="43.5202183" lon="10.7877133"><ele>71.0</ele><time>2026-04-05T16:08:24.104Z</time></trkpt><trkpt lat="43.5203233" lon="10.7875117"><ele>71.0</ele><time>2026-04-05T16:08:25.104Z</time></trkpt><trkpt lat="43.5204317" lon="10.7873133"><ele>70.33333333333334</ele><time>2026-04-05T16:08:26.103Z</time></trkpt><trkpt lat="43.5205417" lon="10.7871167"><ele>69.66666666666667</ele><time>2026-04-05T16:08:27.104Z</time></trkpt><trkpt lat="43.520645" lon="10.7869233"><ele>69.0</ele><time>2026-04-05T16:08:28.104Z</time></trkpt><trkpt lat="43.5207483" lon="10.7867267"><ele>69.0</ele><time>2026-04-05T16:08:29.104Z</time></trkpt><trkpt lat="43.5208517" lon="10.786535"><ele>69.0</ele><time>2026-04-05T16:08:30.104Z</time></trkpt><trkpt lat="43.5209533" lon="10.78635"><ele>69.0</ele><time>2026-04-05T16:08:31.104Z</time></trkpt><trkpt lat="43.5210533" lon="10.7861717"><ele>68.33333333333333</ele><time>2026-04-05T16:08:32.104Z</time></trkpt><trkpt lat="43.5211617" lon="10.786005"><ele>67.66666666666666</ele><time>2026-04-05T16:08:33.104Z</time></trkpt><trkpt lat="43.5212867" lon="10.7858783"><ele>67.0</ele><time>2026-04-05T16:08:34.104Z</time></trkpt><trkpt lat="43.52142" lon="10.78578"><ele>67.0</ele><time>2026-04-05T16:08:35.104Z</time></trkpt><trkpt lat="43.5215617" lon="10.7856917"><ele>67.0</ele><time>2026-04-05T16:08:36.104Z</time></trkpt><trkpt lat="43.521715" lon="10.7856067"><ele>67.0</ele><time>2026-04-05T16:08:37.104Z</time></trkpt><trkpt lat="43.5218683" lon="10.785515"><ele>67.0</ele><time>2026-04-05T16:08:38.104Z</time></trkpt><trkpt lat="43.5220217" lon="10.7854317"><ele>67.0</ele><time>2026-04-05T16:08:39.103Z</time></trkpt><trkpt lat="43.5221767" lon="10.7853383"><ele>67.0</ele><time>2026-04-05T16:08:40.104Z</time></trkpt><trkpt lat="43.5223267" lon="10.7852433"><ele>67.0</ele><time>2026-04-05T16:08:41.104Z</time></trkpt><trkpt lat="43.522485" lon="10.7851367"><ele>67.0</ele><time>2026-04-05T16:08:42.104Z</time></trkpt><trkpt lat="43.522645" lon="10.7850383"><ele>67.0</ele><time>2026-04-05T16:08:43.104Z</time></trkpt><trkpt lat="43.5228083" lon="10.7849417"><ele>67.66666666666666</ele><time>2026-04-05T16:08:44.104Z</time></trkpt><trkpt lat="43.5229717" lon="10.7848467"><ele>68.33333333333333</ele><time>2026-04-05T16:08:45.104Z</time></trkpt><trkpt lat="43.5231367" lon="10.7847567"><ele>69.0</ele><time>2026-04-05T16:08:46.104Z</time></trkpt><trkpt lat="43.5233033" lon="10.78467"><ele>69.0</ele><time>2026-04-05T16:08:47.104Z</time></trkpt><trkpt lat="43.5234667" lon="10.78458"><ele>69.0</ele><time>2026-04-05T16:08:48.104Z</time></trkpt><trkpt lat="43.52363" lon="10.78449"><ele>69.0</ele><time>2026-04-05T16:08:49.104Z</time></trkpt><trkpt lat="43.5237833" lon="10.78438"><ele>67.66666666666667</ele><time>2026-04-05T16:08:50.104Z</time></trkpt><trkpt lat="43.52393" lon="10.7842483"><ele>66.33333333333334</ele><time>2026-04-05T16:08:51.104Z</time></trkpt><trkpt lat="43.5240433" lon="10.78407"><ele>65.0</ele><time>2026-04-05T16:08:52.104Z</time></trkpt><trkpt lat="43.52413" lon="10.783865"><ele>65.0</ele><time>2026-04-05T16:08:53.104Z</time></trkpt><trkpt lat="43.5242033" lon="10.78366"><ele>65.0</ele><time>2026-04-05T16:08:54.103Z</time></trkpt><trkpt lat="43.52428" lon="10.7834617"><ele>65.0</ele><time>2026-04-05T16:08:55.104Z</time></trkpt><trkpt lat="43.52436" lon="10.7832733"><ele>65.0</ele><time>2026-04-05T16:08:56.104Z</time></trkpt><trkpt lat="43.5244433" lon="10.7830867"><ele>65.0</ele><time>2026-04-05T16:08:57.104Z</time></trkpt><trkpt lat="43.52453" lon="10.7829017"><ele>65.0</ele><time>2026-04-05T16:08:58.104Z</time></trkpt><trkpt lat="43.5246117" lon="10.782725"><ele>66.5</ele><time>2026-04-05T16:08:59.104Z</time></trkpt><trkpt lat="43.5247" lon="10.7825567"><ele>68.0</ele><time>2026-04-05T16:09:00.103Z</time></trkpt><trkpt lat="43.5248" lon="10.782405"><ele>69.5</ele><time>2026-04-05T16:09:01.104Z</time></trkpt><trkpt lat="43.5249117" lon="10.7822683"><ele>71.0</ele><time>2026-04-05T16:09:02.104Z</time></trkpt><trkpt lat="43.5250367" lon="10.7821433"><ele>71.0</ele><time>2026-04-05T16:09:03.104Z</time></trkpt><trkpt lat="43.5251667" lon="10.7820217"><ele>71.0</ele><time>2026-04-05T16:09:04.104Z</time></trkpt><trkpt lat="43.5253083" lon="10.7819017"><ele>71.0</ele><time>2026-04-05T16:09:05.104Z</time></trkpt><trkpt lat="43.5254517" lon="10.7817767"><ele>70.33333333333334</ele><time>2026-04-05T16:09:06.104Z</time></trkpt><trkpt lat="43.52559" lon="10.7816417"><ele>69.66666666666667</ele><time>2026-04-05T16:09:07.104Z</time></trkpt><trkpt lat="43.5257217" lon="10.7815"><ele>69.0</ele><time>2026-04-05T16:09:08.104Z</time></trkpt><trkpt lat="43.5258467" lon="10.7813617"><ele>69.0</ele><time>2026-04-05T16:09:09.104Z</time></trkpt><trkpt lat="43.52595" lon="10.7812283"><ele>69.0</ele><time>2026-04-05T16:09:10.103Z</time></trkpt><trkpt lat="43.5260333" lon="10.781115"><ele>69.0</ele><time>2026-04-05T16:09:11.104Z</time></trkpt><trkpt lat="43.5260983" lon="10.7810317"><ele>69.0</ele><time>2026-04-05T16:09:12.104Z</time></trkpt><trkpt lat="43.526145" lon="10.7809583"><ele>69.0</ele><time>2026-04-05T16:09:13.104Z</time></trkpt><trkpt lat="43.5261983" lon="10.7809017"><ele>68.83333333333333</ele><time>2026-04-05T16:09:16.104Z</time></trkpt><trkpt lat="43.5262617" lon="10.7808717"><ele>68.66666666666667</ele><time>2026-04-05T16:09:19.104Z</time></trkpt><trkpt lat="43.5263217" lon="10.780805"><ele>68.5</ele><time>2026-04-05T16:09:21.104Z</time></trkpt><trkpt lat="43.526405" lon="10.78073"><ele>68.33333333333334</ele><time>2026-04-05T16:09:23.104Z</time></trkpt><trkpt lat="43.5264583" lon="10.7806767"><ele>68.16666666666667</ele><time>2026-04-05T16:09:24.104Z</time></trkpt><trkpt lat="43.52652" lon="10.7806067"><ele>68.0</ele><time>2026-04-05T16:09:25.104Z</time></trkpt><trkpt lat="43.526595" lon="10.7805333"><ele>68.0</ele><time>2026-04-05T16:09:26.104Z</time></trkpt><trkpt lat="43.52668" lon="10.780455"><ele>68.0</ele><time>2026-04-05T16:09:27.104Z</time></trkpt><trkpt lat="43.5267717" lon="10.780375"><ele>68.0</ele><time>2026-04-05T16:09:28.104Z</time></trkpt><trkpt lat="43.5268667" lon="10.7802917"><ele>68.0</ele><time>2026-04-05T16:09:29.104Z</time></trkpt><trkpt lat="43.5269667" lon="10.780205"><ele>68.0</ele><time>2026-04-05T16:09:30.104Z</time></trkpt><trkpt lat="43.527075" lon="10.780115"><ele>68.0</ele><time>2026-04-05T16:09:31.104Z</time></trkpt><trkpt lat="43.5271867" lon="10.7800133"><ele>68.0</ele><time>2026-04-05T16:09:32.104Z</time></trkpt><trkpt lat="43.5273" lon="10.7799133"><ele>68.0</ele><time>2026-04-05T16:09:33.104Z</time></trkpt><trkpt lat="43.5274167" lon="10.7798117"><ele>68.0</ele><time>2026-04-05T16:09:34.104Z</time></trkpt><trkpt lat="43.527535" lon="10.7797067"><ele>68.0</ele><time>2026-04-05T16:09:35.104Z</time></trkpt><trkpt lat="43.52766" lon="10.7795967"><ele>68.0</ele><time>2026-04-05T16:09:36.104Z</time></trkpt><trkpt lat="43.52779" lon="10.7794833"><ele>68.0</ele><time>2026-04-05T16:09:37.104Z</time></trkpt><trkpt lat="43.5279233" lon="10.779375"><ele>67.0</ele><time>2026-04-05T16:09:38.104Z</time></trkpt><trkpt lat="43.5280517" lon="10.779265"><ele>66.0</ele><time>2026-04-05T16:09:39.104Z</time></trkpt><trkpt lat="43.5281817" lon="10.7791483"><ele>65.0</ele><time>2026-04-05T16:09:40.104Z</time></trkpt><trkpt lat="43.5283183" lon="10.7790333"><ele>65.0</ele><time>2026-04-05T16:09:41.104Z</time></trkpt><trkpt lat="43.5284567" lon="10.7789133"><ele>65.0</ele><time>2026-04-05T16:09:42.104Z</time></trkpt><trkpt lat="43.5285917" lon="10.77879"><ele>65.0</ele><time>2026-04-05T16:09:43.104Z</time></trkpt><trkpt lat="43.528725" lon="10.77866"><ele>65.0</ele><time>2026-04-05T16:09:44.104Z</time></trkpt><trkpt lat="43.5288517" lon="10.7785183"><ele>65.0</ele><time>2026-04-05T16:09:45.104Z</time></trkpt><trkpt lat="43.52898" lon="10.7783683"><ele>65.0</ele><time>2026-04-05T16:09:46.104Z</time></trkpt><trkpt lat="43.5291083" lon="10.7782117"><ele>65.0</ele><time>2026-04-05T16:09:47.104Z</time></trkpt><trkpt lat="43.5292383" lon="10.7780533"><ele>65.0</ele><time>2026-04-05T16:09:48.103Z</time></trkpt><trkpt lat="43.52937" lon="10.77789"><ele>65.0</ele><time>2026-04-05T16:09:49.104Z</time></trkpt><trkpt lat="43.5295067" lon="10.7777283"><ele>64.66666666666667</ele><time>2026-04-05T16:09:50.104Z</time></trkpt><trkpt lat="43.5296433" lon="10.7775667"><ele>64.33333333333333</ele><time>2026-04-05T16:09:51.104Z</time></trkpt><trkpt lat="43.52978" lon="10.777405"><ele>64.0</ele><time>2026-04-05T16:09:52.104Z</time></trkpt><trkpt lat="43.5299117" lon="10.777235"><ele>64.0</ele><time>2026-04-05T16:09:53.104Z</time></trkpt><trkpt lat="43.530045" lon="10.7770683"><ele>64.0</ele><time>2026-04-05T16:09:54.104Z</time></trkpt><trkpt lat="43.5301767" lon="10.7768967"><ele>64.0</ele><time>2026-04-05T16:09:55.104Z</time></trkpt><trkpt lat="43.5303117" lon="10.7767283"><ele>64.0</ele><time>2026-04-05T16:09:56.104Z</time></trkpt><trkpt lat="43.5304533" lon="10.7765667"><ele>64.0</ele><time>2026-04-05T16:09:57.103Z</time></trkpt><trkpt lat="43.53059" lon="10.7764067"><ele>64.0</ele><time>2026-04-05T16:09:58.104Z</time></trkpt><trkpt lat="43.530725" lon="10.7762467"><ele>64.0</ele><time>2026-04-05T16:09:59.104Z</time></trkpt><trkpt lat="43.5308617" lon="10.7760867"><ele>64.0</ele><time>2026-04-05T16:10:00.103Z</time></trkpt><trkpt lat="43.5310017" lon="10.7759217"><ele>64.0</ele><time>2026-04-05T16:10:01.104Z</time></trkpt><trkpt lat="43.5311383" lon="10.7757583"><ele>64.66666666666666</ele><time>2026-04-05T16:10:02.104Z</time></trkpt><trkpt lat="43.531275" lon="10.7756017"><ele>65.33333333333333</ele><time>2026-04-05T16:10:03.104Z</time></trkpt><trkpt lat="43.53141" lon="10.7754417"><ele>66.0</ele><time>2026-04-05T16:10:04.104Z</time></trkpt><trkpt lat="43.531545" lon="10.7752833"><ele>66.0</ele><time>2026-04-05T16:10:05.103Z</time></trkpt><trkpt lat="43.531675" lon="10.7751217"><ele>66.0</ele><time>2026-04-05T16:10:06.103Z</time></trkpt><trkpt lat="43.5318067" lon="10.77496"><ele>66.0</ele><time>2026-04-05T16:10:07.104Z</time></trkpt><trkpt lat="43.5319367" lon="10.774795"><ele>65.66666666666667</ele><time>2026-04-05T16:10:08.104Z</time></trkpt><trkpt lat="43.5320583" lon="10.774625"><ele>65.33333333333334</ele><time>2026-04-05T16:10:09.104Z</time></trkpt><trkpt lat="43.5321733" lon="10.7744433"><ele>65.0</ele><time>2026-04-05T16:10:10.104Z</time></trkpt><trkpt lat="43.5322817" lon="10.7742483"><ele>64.33333333333334</ele><time>2026-04-05T16:10:11.104Z</time></trkpt><trkpt lat="43.53239" lon="10.774045"><ele>63.66666666666667</ele><time>2026-04-05T16:10:12.104Z</time></trkpt><trkpt lat="43.5325083" lon="10.7738267"><ele>63.0</ele><time>2026-04-05T16:10:13.104Z</time></trkpt><trkpt lat="43.5326367" lon="10.7735983"><ele>62.33333333333333</ele><time>2026-04-05T16:10:14.104Z</time></trkpt><trkpt lat="43.5327667" lon="10.773365"><ele>61.666666666666664</ele><time>2026-04-05T16:10:15.104Z</time></trkpt><trkpt lat="43.5328967" lon="10.7731283"><ele>61.0</ele><time>2026-04-05T16:10:16.104Z</time></trkpt><trkpt lat="43.5330267" lon="10.77289"><ele>61.0</ele><time>2026-04-05T16:10:17.104Z</time></trkpt><trkpt lat="43.5331617" lon="10.7726483"><ele>61.0</ele><time>2026-04-05T16:10:18.104Z</time></trkpt><trkpt lat="43.5332983" lon="10.7724083"><ele>61.0</ele><time>2026-04-05T16:10:19.104Z</time></trkpt><trkpt lat="43.5334317" lon="10.7721717"><ele>61.0</ele><time>2026-04-05T16:10:20.104Z</time></trkpt><trkpt lat="43.5335633" lon="10.7719333"><ele>61.0</ele><time>2026-04-05T16:10:21.104Z</time></trkpt><trkpt lat="43.5336933" lon="10.7716933"><ele>61.0</ele><time>2026-04-05T16:10:22.104Z</time></trkpt><trkpt lat="43.5338233" lon="10.771455"><ele>61.0</ele><time>2026-04-05T16:10:23.104Z</time></trkpt><trkpt lat="43.533955" lon="10.77122"><ele>61.0</ele><time>2026-04-05T16:10:24.104Z</time></trkpt><trkpt lat="43.5340833" lon="10.7709883"><ele>61.0</ele><time>2026-04-05T16:10:25.104Z</time></trkpt><trkpt lat="43.5342083" lon="10.7707567"><ele>61.33333333333333</ele><time>2026-04-05T16:10:26.104Z</time></trkpt><trkpt lat="43.5343317" lon="10.7705283"><ele>61.66666666666667</ele><time>2026-04-05T16:10:27.104Z</time></trkpt><trkpt lat="43.53445" lon="10.7702983"><ele>62.0</ele><time>2026-04-05T16:10:28.104Z</time></trkpt><trkpt lat="43.5345733" lon="10.7700717"><ele>62.0</ele><time>2026-04-05T16:10:29.104Z</time></trkpt><trkpt lat="43.5346967" lon="10.7698467"><ele>62.0</ele><time>2026-04-05T16:10:30.104Z</time></trkpt><trkpt lat="43.53482" lon="10.7696217"><ele>62.0</ele><time>2026-04-05T16:10:31.104Z</time></trkpt><trkpt lat="43.5349433" lon="10.7693967"><ele>61.66666666666667</ele><time>2026-04-05T16:10:32.104Z</time></trkpt><trkpt lat="43.535065" lon="10.76917"><ele>61.33333333333333</ele><time>2026-04-05T16:10:33.103Z</time></trkpt><trkpt lat="43.53519" lon="10.7689433"><ele>61.0</ele><time>2026-04-05T16:10:34.104Z</time></trkpt><trkpt lat="43.5353217" lon="10.76872"><ele>63.666666666666664</ele><time>2026-04-05T16:10:35.104Z</time></trkpt><trkpt lat="43.535465" lon="10.76851"><ele>66.33333333333333</ele><time>2026-04-05T16:10:36.104Z</time></trkpt><trkpt lat="43.5356183" lon="10.7683017"><ele>69.0</ele><time>2026-04-05T16:10:37.104Z</time></trkpt><trkpt lat="43.5357717" lon="10.7681"><ele>69.0</ele><time>2026-04-05T16:10:38.104Z</time></trkpt><trkpt lat="43.5359233" lon="10.7679083"><ele>69.0</ele><time>2026-04-05T16:10:39.104Z</time></trkpt><trkpt lat="43.53607" lon="10.7677217"><ele>69.0</ele><time>2026-04-05T16:10:40.104Z</time></trkpt><trkpt lat="43.536215" lon="10.7675483"><ele>69.0</ele><time>2026-04-05T16:10:41.104Z</time></trkpt><trkpt lat="43.5363567" lon="10.7674"><ele>69.0</ele><time>2026-04-05T16:10:42.104Z</time></trkpt><trkpt lat="43.5364983" lon="10.7672733"><ele>69.0</ele><time>2026-04-05T16:10:43.104Z</time></trkpt><trkpt lat="43.5366433" lon="10.7671667"><ele>69.0</ele><time>2026-04-05T16:10:44.104Z</time></trkpt><trkpt lat="43.5367967" lon="10.7670833"><ele>69.0</ele><time>2026-04-05T16:10:45.104Z</time></trkpt><trkpt lat="43.53696" lon="10.7670117"><ele>69.0</ele><time>2026-04-05T16:10:46.104Z</time></trkpt><trkpt lat="43.537135" lon="10.7669467"><ele>69.0</ele><time>2026-04-05T16:10:47.104Z</time></trkpt><trkpt lat="43.5373167" lon="10.7668717"><ele>69.0</ele><time>2026-04-05T16:10:48.104Z</time></trkpt><trkpt lat="43.5375083" lon="10.766795"><ele>69.0</ele><time>2026-04-05T16:10:49.104Z</time></trkpt><trkpt lat="43.5377067" lon="10.7667233"><ele>66.0</ele><time>2026-04-05T16:10:50.104Z</time></trkpt><trkpt lat="43.537905" lon="10.766645"><ele>63.0</ele><time>2026-04-05T16:10:51.104Z</time></trkpt><trkpt lat="43.5381" lon="10.76657"><ele>60.0</ele><time>2026-04-05T16:10:52.104Z</time></trkpt><trkpt lat="43.5383" lon="10.7664917"><ele>60.0</ele><time>2026-04-05T16:10:53.104Z</time></trkpt><trkpt lat="43.5384967" lon="10.7664333"><ele>60.0</ele><time>2026-04-05T16:10:54.104Z</time></trkpt><trkpt lat="43.5386767" lon="10.7663733"><ele>60.0</ele><time>2026-04-05T16:10:55.104Z</time></trkpt><trkpt lat="43.5388517" lon="10.7663117"><ele>60.33333333333333</ele><time>2026-04-05T16:10:56.104Z</time></trkpt><trkpt lat="43.5390267" lon="10.7662433"><ele>60.666666666666664</ele><time>2026-04-05T16:10:57.104Z</time></trkpt><trkpt lat="43.5392083" lon="10.7661783"><ele>61.0</ele><time>2026-04-05T16:10:58.104Z</time></trkpt><trkpt lat="43.5393967" lon="10.7661167"><ele>61.0</ele><time>2026-04-05T16:10:59.103Z</time></trkpt><trkpt lat="43.5395917" lon="10.7660533"><ele>61.0</ele><time>2026-04-05T16:11:00.104Z</time></trkpt><trkpt lat="43.53979" lon="10.765985"><ele>61.0</ele><time>2026-04-05T16:11:01.104Z</time></trkpt><trkpt lat="43.5399933" lon="10.76592"><ele>61.0</ele><time>2026-04-05T16:11:02.104Z</time></trkpt><trkpt lat="43.5401983" lon="10.765855"><ele>61.0</ele><time>2026-04-05T16:11:03.104Z</time></trkpt><trkpt lat="43.540405" lon="10.7657933"><ele>61.0</ele><time>2026-04-05T16:11:04.104Z</time></trkpt><trkpt lat="43.540615" lon="10.7657267"><ele>60.33333333333333</ele><time>2026-04-05T16:11:05.104Z</time></trkpt><trkpt lat="43.540825" lon="10.7656533"><ele>59.66666666666667</ele><time>2026-04-05T16:11:06.103Z</time></trkpt><trkpt lat="43.5410367" lon="10.76558"><ele>59.0</ele><time>2026-04-05T16:11:07.104Z</time></trkpt><trkpt lat="43.5412483" lon="10.7655117"><ele>58.66666666666667</ele><time>2026-04-05T16:11:08.103Z</time></trkpt><trkpt lat="43.5414617" lon="10.7654417"><ele>58.33333333333333</ele><time>2026-04-05T16:11:09.104Z</time></trkpt><trkpt lat="43.5416733" lon="10.7653783"><ele>58.0</ele><time>2026-04-05T16:11:10.104Z</time></trkpt><trkpt lat="43.5418867" lon="10.7653183"><ele>58.33333333333333</ele><time>2026-04-05T16:11:11.104Z</time></trkpt><trkpt lat="43.5421" lon="10.7652583"><ele>58.66666666666667</ele><time>2026-04-05T16:11:12.104Z</time></trkpt><trkpt lat="43.5423117" lon="10.7651883"><ele>59.0</ele><time>2026-04-05T16:11:13.104Z</time></trkpt><trkpt lat="43.5425217" lon="10.7651183"><ele>58.66666666666667</ele><time>2026-04-05T16:11:14.104Z</time></trkpt><trkpt lat="43.5427317" lon="10.7650533"><ele>58.33333333333333</ele><time>2026-04-05T16:11:15.104Z</time></trkpt><trkpt lat="43.5429333" lon="10.7649917"><ele>58.0</ele><time>2026-04-05T16:11:16.104Z</time></trkpt><trkpt lat="43.5431233" lon="10.7649217"><ele>58.0</ele><time>2026-04-05T16:11:17.104Z</time></trkpt><trkpt lat="43.5433033" lon="10.7648283"><ele>58.0</ele><time>2026-04-05T16:11:18.104Z</time></trkpt><trkpt lat="43.5434767" lon="10.7647083"><ele>58.0</ele><time>2026-04-05T16:11:19.104Z</time></trkpt><trkpt lat="43.54365" lon="10.7645783"><ele>57.33333333333333</ele><time>2026-04-05T16:11:20.104Z</time></trkpt><trkpt lat="43.543825" lon="10.76445"><ele>56.66666666666667</ele><time>2026-04-05T16:11:21.104Z</time></trkpt><trkpt lat="43.544" lon="10.7643183"><ele>56.0</ele><time>2026-04-05T16:11:22.104Z</time></trkpt><trkpt lat="43.5441733" lon="10.7641833"><ele>55.66666666666667</ele><time>2026-04-05T16:11:23.104Z</time></trkpt><trkpt lat="43.5443517" lon="10.7640467"><ele>55.33333333333333</ele><time>2026-04-05T16:11:24.104Z</time></trkpt><trkpt lat="43.54453" lon="10.7639067"><ele>55.0</ele><time>2026-04-05T16:11:25.104Z</time></trkpt><trkpt lat="43.544705" lon="10.763765"><ele>55.0</ele><time>2026-04-05T16:11:26.104Z</time></trkpt><trkpt lat="43.5448767" lon="10.7636317"><ele>55.0</ele><time>2026-04-05T16:11:27.103Z</time></trkpt><trkpt lat="43.5450467" lon="10.763495"><ele>55.0</ele><time>2026-04-05T16:11:28.104Z</time></trkpt><trkpt lat="43.545215" lon="10.7633667"><ele>54.666666666666664</ele><time>2026-04-05T16:11:29.104Z</time></trkpt><trkpt lat="43.5453817" lon="10.7632383"><ele>54.33333333333333</ele><time>2026-04-05T16:11:30.104Z</time></trkpt><trkpt lat="43.5455467" lon="10.7631017"><ele>54.0</ele><time>2026-04-05T16:11:31.104Z</time></trkpt><trkpt lat="43.54571" lon="10.76297"><ele>54.0</ele><time>2026-04-05T16:11:32.104Z</time></trkpt><trkpt lat="43.5458767" lon="10.7628417"><ele>54.0</ele><time>2026-04-05T16:11:33.104Z</time></trkpt><trkpt lat="43.54604" lon="10.7627133"><ele>54.0</ele><time>2026-04-05T16:11:34.104Z</time></trkpt><trkpt lat="43.5462017" lon="10.7625867"><ele>54.0</ele><time>2026-04-05T16:11:35.104Z</time></trkpt><trkpt lat="43.5463633" lon="10.762465"><ele>54.0</ele><time>2026-04-05T16:11:36.104Z</time></trkpt><trkpt lat="43.5465183" lon="10.7623583"><ele>54.0</ele><time>2026-04-05T16:11:37.104Z</time></trkpt><trkpt lat="43.5466667" lon="10.7622567"><ele>54.0</ele><time>2026-04-05T16:11:38.104Z</time></trkpt><trkpt lat="43.546815" lon="10.7621617"><ele>54.0</ele><time>2026-04-05T16:11:39.104Z</time></trkpt><trkpt lat="43.5469633" lon="10.7620717"><ele>54.0</ele><time>2026-04-05T16:11:40.104Z</time></trkpt><trkpt lat="43.54711" lon="10.7619733"><ele>54.33333333333333</ele><time>2026-04-05T16:11:41.104Z</time></trkpt><trkpt lat="43.547255" lon="10.7618667"><ele>54.666666666666664</ele><time>2026-04-05T16:11:42.104Z</time></trkpt><trkpt lat="43.547405" lon="10.7617683"><ele>55.0</ele><time>2026-04-05T16:11:43.103Z</time></trkpt><trkpt lat="43.5475533" lon="10.7616917"><ele>55.0</ele><time>2026-04-05T16:11:44.104Z</time></trkpt><trkpt lat="43.5477" lon="10.7616383"><ele>55.0</ele><time>2026-04-05T16:11:45.104Z</time></trkpt><trkpt lat="43.547855" lon="10.761615"><ele>55.0</ele><time>2026-04-05T16:11:46.104Z</time></trkpt><trkpt lat="43.5480017" lon="10.76162"><ele>55.25</ele><time>2026-04-05T16:11:47.104Z</time></trkpt><trkpt lat="43.5481467" lon="10.7616333"><ele>55.5</ele><time>2026-04-05T16:11:48.104Z</time></trkpt><trkpt lat="43.548275" lon="10.76165"><ele>55.75</ele><time>2026-04-05T16:11:49.104Z</time></trkpt><trkpt lat="43.5483917" lon="10.761665"><ele>56.0</ele><time>2026-04-05T16:11:50.104Z</time></trkpt><trkpt lat="43.5484817" lon="10.7616717"><ele>56.00000000000001</ele><time>2026-04-05T16:11:51.104Z</time></trkpt><trkpt lat="43.5485483" lon="10.7616933"><ele>56.0</ele><time>2026-04-05T16:11:52.104Z</time></trkpt><trkpt lat="43.548615" lon="10.761755"><ele>56.0</ele><time>2026-04-05T16:11:54.104Z</time></trkpt><trkpt lat="43.548615" lon="10.76186"><ele>56.0</ele><time>2026-04-05T16:11:56.104Z</time></trkpt><trkpt lat="43.5485817" lon="10.762025"><ele>56.00000000000001</ele><time>2026-04-05T16:11:58.104Z</time></trkpt><trkpt lat="43.548555" lon="10.762135"><ele>56.0</ele><time>2026-04-05T16:11:59.104Z</time></trkpt><trkpt lat="43.54852" lon="10.762265"><ele>56.5</ele><time>2026-04-05T16:12:00.104Z</time></trkpt><trkpt lat="43.5484867" lon="10.7624067"><ele>57.0</ele><time>2026-04-05T16:12:01.104Z</time></trkpt><trkpt lat="43.548465" lon="10.7625617"><ele>57.5</ele><time>2026-04-05T16:12:02.104Z</time></trkpt><trkpt lat="43.5484517" lon="10.7627383"><ele>58.0</ele><time>2026-04-05T16:12:03.104Z</time></trkpt><trkpt lat="43.548445" lon="10.762925"><ele>58.25</ele><time>2026-04-05T16:12:04.104Z</time></trkpt><trkpt lat="43.5484433" lon="10.7631033"><ele>58.5</ele><time>2026-04-05T16:12:05.104Z</time></trkpt><trkpt lat="43.5484333" lon="10.7632917"><ele>58.75</ele><time>2026-04-05T16:12:06.104Z</time></trkpt><trkpt lat="43.5484183" lon="10.7634917"><ele>59.0</ele><time>2026-04-05T16:12:07.104Z</time></trkpt><trkpt lat="43.5483983" lon="10.7637033"><ele>59.333333333333336</ele><time>2026-04-05T16:12:08.103Z</time></trkpt><trkpt lat="43.54838" lon="10.7639267"><ele>59.66666666666667</ele><time>2026-04-05T16:12:09.104Z</time></trkpt><trkpt lat="43.5483667" lon="10.7641567"><ele>60.0</ele><time>2026-04-05T16:12:10.104Z</time></trkpt><trkpt lat="43.5483533" lon="10.7643833"><ele>60.0</ele><time>2026-04-05T16:12:11.104Z</time></trkpt><trkpt lat="43.5483467" lon="10.7646167"><ele>60.0</ele><time>2026-04-05T16:12:12.104Z</time></trkpt><trkpt lat="43.54835" lon="10.764855"><ele>60.0</ele><time>2026-04-05T16:12:13.104Z</time></trkpt><trkpt lat="43.5483567" lon="10.7650967"><ele>60.33333333333333</ele><time>2026-04-05T16:12:14.104Z</time></trkpt><trkpt lat="43.5483633" lon="10.76534"><ele>60.666666666666664</ele><time>2026-04-05T16:12:15.103Z</time></trkpt><trkpt lat="43.5483767" lon="10.7655767"><ele>61.0</ele><time>2026-04-05T16:12:16.104Z</time></trkpt><trkpt lat="43.5484017" lon="10.7658167"><ele>62.0</ele><time>2026-04-05T16:12:17.104Z</time></trkpt><trkpt lat="43.5484333" lon="10.766055"><ele>63.0</ele><time>2026-04-05T16:12:18.104Z</time></trkpt><trkpt lat="43.5484667" lon="10.76629"><ele>64.0</ele><time>2026-04-05T16:12:19.104Z</time></trkpt><trkpt lat="43.5484933" lon="10.7665267"><ele>64.0</ele><time>2026-04-05T16:12:20.104Z</time></trkpt><trkpt lat="43.548515" lon="10.76676"><ele>64.0</ele><time>2026-04-05T16:12:21.104Z</time></trkpt><trkpt lat="43.5485267" lon="10.7669933"><ele>64.0</ele><time>2026-04-05T16:12:22.104Z</time></trkpt><trkpt lat="43.548525" lon="10.7672233"><ele>64.66666666666666</ele><time>2026-04-05T16:12:23.104Z</time></trkpt><trkpt lat="43.548495" lon="10.7674567"><ele>65.33333333333333</ele><time>2026-04-05T16:12:24.104Z</time></trkpt><trkpt lat="43.5484483" lon="10.767685"><ele>66.0</ele><time>2026-04-05T16:12:25.104Z</time></trkpt><trkpt lat="43.5483867" lon="10.7679217"><ele>66.66666666666667</ele><time>2026-04-05T16:12:26.104Z</time></trkpt><trkpt lat="43.54832" lon="10.7681533"><ele>67.33333333333334</ele><time>2026-04-05T16:12:27.104Z</time></trkpt><trkpt lat="43.54825" lon="10.7683733"><ele>68.0</ele><time>2026-04-05T16:12:28.104Z</time></trkpt><trkpt lat="43.5481667" lon="10.7685783"><ele>70.33333333333334</ele><time>2026-04-05T16:12:29.104Z</time></trkpt><trkpt lat="43.54808" lon="10.7687783"><ele>72.66666666666667</ele><time>2026-04-05T16:12:30.104Z</time></trkpt><trkpt lat="43.54801" lon="10.7689683"><ele>75.0</ele><time>2026-04-05T16:12:31.104Z</time></trkpt><trkpt lat="43.5479583" lon="10.76916"><ele>75.0</ele><time>2026-04-05T16:12:32.104Z</time></trkpt><trkpt lat="43.547935" lon="10.769355"><ele>75.0</ele><time>2026-04-05T16:12:33.104Z</time></trkpt><trkpt lat="43.5479217" lon="10.7695533"><ele>75.0</ele><time>2026-04-05T16:12:34.104Z</time></trkpt><trkpt lat="43.5479117" lon="10.769755"><ele>75.0</ele><time>2026-04-05T16:12:35.104Z</time></trkpt><trkpt lat="43.54789" lon="10.7699433"><ele>71.5</ele><time>2026-04-05T16:12:36.104Z</time></trkpt><trkpt lat="43.5478533" lon="10.7701017"><ele>68.0</ele><time>2026-04-05T16:12:37.104Z</time></trkpt><trkpt lat="43.5477917" lon="10.7702367"><ele>64.5</ele><time>2026-04-05T16:12:38.104Z</time></trkpt><trkpt lat="43.547705" lon="10.7703433"><ele>61.0</ele><time>2026-04-05T16:12:39.104Z</time></trkpt><trkpt lat="43.54759" lon="10.7704233"><ele>61.0</ele><time>2026-04-05T16:12:40.104Z</time></trkpt><trkpt lat="43.5474683" lon="10.7704867"><ele>61.0</ele><time>2026-04-05T16:12:41.104Z</time></trkpt><trkpt lat="43.54734" lon="10.7705567"><ele>61.0</ele><time>2026-04-05T16:12:42.104Z</time></trkpt><trkpt lat="43.5472" lon="10.7706383"><ele>61.0</ele><time>2026-04-05T16:12:43.104Z</time></trkpt><trkpt lat="43.5470483" lon="10.770715"><ele>59.25</ele><time>2026-04-05T16:12:44.104Z</time></trkpt><trkpt lat="43.5469067" lon="10.77079"><ele>57.5</ele><time>2026-04-05T16:12:45.104Z</time></trkpt><trkpt lat="43.5467717" lon="10.7708633"><ele>55.75</ele><time>2026-04-05T16:12:46.104Z</time></trkpt><trkpt lat="43.54664" lon="10.7709333"><ele>54.0</ele><time>2026-04-05T16:12:47.104Z</time></trkpt><trkpt lat="43.5465083" lon="10.77101"><ele>54.25</ele><time>2026-04-05T16:12:48.104Z</time></trkpt><trkpt lat="43.5463767" lon="10.7710883"><ele>54.5</ele><time>2026-04-05T16:12:49.104Z</time></trkpt><trkpt lat="43.54625" lon="10.7711683"><ele>54.75</ele><time>2026-04-05T16:12:50.104Z</time></trkpt><trkpt lat="43.54614" lon="10.7712833"><ele>55.0</ele><time>2026-04-05T16:12:51.104Z</time></trkpt><trkpt lat="43.5460583" lon="10.7714317"><ele>55.75</ele><time>2026-04-05T16:12:52.104Z</time></trkpt><trkpt lat="43.5459817" lon="10.7715883"><ele>56.5</ele><time>2026-04-05T16:12:53.104Z</time></trkpt><trkpt lat="43.5459033" lon="10.7717433"><ele>57.25</ele><time>2026-04-05T16:12:54.104Z</time></trkpt><trkpt lat="43.5458117" lon="10.77189"><ele>58.0</ele><time>2026-04-05T16:12:55.104Z</time></trkpt><trkpt lat="43.5457167" lon="10.7720233"><ele>58.25</ele><time>2026-04-05T16:12:56.104Z</time></trkpt><trkpt lat="43.5456183" lon="10.7721467"><ele>58.5</ele><time>2026-04-05T16:12:57.104Z</time></trkpt><trkpt lat="43.5455117" lon="10.7722683"><ele>58.75</ele><time>2026-04-05T16:12:58.104Z</time></trkpt><trkpt lat="43.54541" lon="10.77239"><ele>59.0</ele><time>2026-04-05T16:12:59.104Z</time></trkpt><trkpt lat="43.5453183" lon="10.7725167"><ele>59.25</ele><time>2026-04-05T16:13:00.104Z</time></trkpt><trkpt lat="43.5452483" lon="10.7726533"><ele>59.5</ele><time>2026-04-05T16:13:01.104Z</time></trkpt><trkpt lat="43.5452083" lon="10.7728117"><ele>59.75</ele><time>2026-04-05T16:13:02.104Z</time></trkpt><trkpt lat="43.5452" lon="10.7729833"><ele>60.0</ele><time>2026-04-05T16:13:03.104Z</time></trkpt><trkpt lat="43.5452167" lon="10.773165"><ele>60.0</ele><time>2026-04-05T16:13:04.104Z</time></trkpt><trkpt lat="43.5452383" lon="10.7733533"><ele>60.0</ele><time>2026-04-05T16:13:05.104Z</time></trkpt><trkpt lat="43.54525" lon="10.773545"><ele>60.0</ele><time>2026-04-05T16:13:06.104Z</time></trkpt><trkpt lat="43.5452383" lon="10.77374"><ele>60.0</ele><time>2026-04-05T16:13:07.104Z</time></trkpt><trkpt lat="43.5451933" lon="10.773925"><ele>60.5</ele><time>2026-04-05T16:13:08.104Z</time></trkpt><trkpt lat="43.5451233" lon="10.77409"><ele>61.0</ele><time>2026-04-05T16:13:09.104Z</time></trkpt><trkpt lat="43.5450367" lon="10.7742417"><ele>61.5</ele><time>2026-04-05T16:13:10.104Z</time></trkpt><trkpt lat="43.54495" lon="10.7743983"><ele>62.0</ele><time>2026-04-05T16:13:11.104Z</time></trkpt><trkpt lat="43.5448733" lon="10.7745583"><ele>63.25</ele><time>2026-04-05T16:13:12.104Z</time></trkpt><trkpt lat="43.5448133" lon="10.7747283"><ele>64.5</ele><time>2026-04-05T16:13:13.103Z</time></trkpt><trkpt lat="43.5447867" lon="10.7749117"><ele>65.75</ele><time>2026-04-05T16:13:14.103Z</time></trkpt><trkpt lat="43.54479" lon="10.775095"><ele>67.0</ele><time>2026-04-05T16:13:15.104Z</time></trkpt><trkpt lat="43.544815" lon="10.7752767"><ele>68.4</ele><time>2026-04-05T16:13:16.104Z</time></trkpt><trkpt lat="43.5448433" lon="10.775445"><ele>69.80000000000001</ele><time>2026-04-05T16:13:17.103Z</time></trkpt><trkpt lat="43.5448717" lon="10.775595"><ele>71.2</ele><time>2026-04-05T16:13:18.104Z</time></trkpt><trkpt lat="43.5448883" lon="10.7757267"><ele>72.60000000000001</ele><time>2026-04-05T16:13:19.104Z</time></trkpt><trkpt lat="43.5448733" lon="10.7758483"><ele>74.0</ele><time>2026-04-05T16:13:20.104Z</time></trkpt><trkpt lat="43.54484" lon="10.7759533"><ele>75.0</ele><time>2026-04-05T16:13:21.104Z</time></trkpt><trkpt lat="43.544795" lon="10.7760483"><ele>76.0</ele><time>2026-04-05T16:13:22.104Z</time></trkpt><trkpt lat="43.5447367" lon="10.7761483"><ele>77.0</ele><time>2026-04-05T16:13:23.104Z</time></trkpt><trkpt lat="43.5446517" lon="10.77624"><ele>78.0</ele><time>2026-04-05T16:13:24.103Z</time></trkpt><trkpt lat="43.5445467" lon="10.77635"><ele>79.0</ele><time>2026-04-05T16:13:25.104Z</time></trkpt><trkpt lat="43.5444817" lon="10.7764783"><ele>81.5</ele><time>2026-04-05T16:13:26.104Z</time></trkpt><trkpt lat="43.5444183" lon="10.77661"><ele>84.0</ele><time>2026-04-05T16:13:27.104Z</time></trkpt><trkpt lat="43.54436" lon="10.7767517"><ele>86.5</ele><time>2026-04-05T16:13:28.104Z</time></trkpt><trkpt lat="43.5442833" lon="10.776895"><ele>89.0</ele><time>2026-04-05T16:13:29.104Z</time></trkpt><trkpt lat="43.544215" lon="10.7770433"><ele>90.0</ele><time>2026-04-05T16:13:30.104Z</time></trkpt><trkpt lat="43.54413" lon="10.7772017"><ele>91.0</ele><time>2026-04-05T16:13:31.104Z</time></trkpt><trkpt lat="43.5440533" lon="10.77735"><ele>92.0</ele><time>2026-04-05T16:13:32.104Z</time></trkpt><trkpt lat="43.5439633" lon="10.77749"><ele>93.0</ele><time>2026-04-05T16:13:33.104Z</time></trkpt><trkpt lat="43.5438633" lon="10.7776167"><ele>93.25</ele><time>2026-04-05T16:13:34.104Z</time></trkpt><trkpt lat="43.5437617" lon="10.7777233"><ele>93.5</ele><time>2026-04-05T16:13:35.104Z</time></trkpt><trkpt lat="43.5436417" lon="10.77781"><ele>93.75</ele><time>2026-04-05T16:13:36.103Z</time></trkpt><trkpt lat="43.5435233" lon="10.7778733"><ele>94.0</ele><time>2026-04-05T16:13:37.104Z</time></trkpt><trkpt lat="43.5434017" lon="10.777925"><ele>96.25</ele><time>2026-04-05T16:13:38.104Z</time></trkpt><trkpt lat="43.543275" lon="10.77797"><ele>98.5</ele><time>2026-04-05T16:13:39.104Z</time></trkpt><trkpt lat="43.54315" lon="10.77804"><ele>100.75</ele><time>2026-04-05T16:13:40.104Z</time></trkpt><trkpt lat="43.543025" lon="10.778135"><ele>103.0</ele><time>2026-04-05T16:13:41.104Z</time></trkpt><trkpt lat="43.5429117" lon="10.7782417"><ele>104.75</ele><time>2026-04-05T16:13:42.104Z</time></trkpt><trkpt lat="43.5428067" lon="10.7783533"><ele>106.5</ele><time>2026-04-05T16:13:43.104Z</time></trkpt><trkpt lat="43.5426983" lon="10.7784617"><ele>108.25</ele><time>2026-04-05T16:13:44.104Z</time></trkpt><trkpt lat="43.542595" lon="10.77858"><ele>110.0</ele><time>2026-04-05T16:13:45.104Z</time></trkpt><trkpt lat="43.5425133" lon="10.7786983"><ele>111.25</ele><time>2026-04-05T16:13:46.103Z</time></trkpt><trkpt lat="43.54244" lon="10.778825"><ele>112.5</ele><time>2026-04-05T16:13:47.104Z</time></trkpt><trkpt lat="43.542395" lon="10.77897"><ele>113.75</ele><time>2026-04-05T16:13:48.104Z</time></trkpt><trkpt lat="43.5423667" lon="10.7791233"><ele>115.0</ele><time>2026-04-05T16:13:49.104Z</time></trkpt><trkpt lat="43.5423583" lon="10.7793033"><ele>116.5</ele><time>2026-04-05T16:13:50.104Z</time></trkpt><trkpt lat="43.5423417" lon="10.779485"><ele>118.0</ele><time>2026-04-05T16:13:51.104Z</time></trkpt><trkpt lat="43.5423283" lon="10.7796733"><ele>119.5</ele><time>2026-04-05T16:13:52.104Z</time></trkpt><trkpt lat="43.542315" lon="10.7798667"><ele>121.0</ele><time>2026-04-05T16:13:53.104Z</time></trkpt><trkpt lat="43.5423067" lon="10.780065"><ele>121.0</ele><time>2026-04-05T16:13:54.104Z</time></trkpt><trkpt lat="43.5423067" lon="10.780265"><ele>125.0</ele><time>2026-04-05T16:13:55.104Z</time></trkpt><trkpt lat="43.542305" lon="10.7804617"><ele>125.0</ele><time>2026-04-05T16:13:56.104Z</time></trkpt><trkpt lat="43.5423117" lon="10.780655"><ele>125.0</ele><time>2026-04-05T16:13:57.104Z</time></trkpt></trkseg><trkseg><trkpt lat="43.53888" lon="10.7915733"><ele>188.0</ele><time>2026-04-05T16:42:41.104Z</time></trkpt><trkpt lat="43.5388483" lon="10.7913983"><ele>188.0</ele><time>2026-04-05T16:43:45.104Z</time></trkpt><trkpt lat="43.53878" lon="10.7912867"><ele>188.0</ele><time>2026-04-05T16:43:47.104Z</time></trkpt><trkpt lat="43.5386967" lon="10.7911583"><ele>188.0</ele><time>2026-04-05T16:43:49.104Z</time></trkpt><trkpt lat="43.5386517" lon="10.7910917"><ele>188.0</ele><time>2026-04-05T16:43:50.104Z</time></trkpt><trkpt lat="43.5385733" lon="10.790975"><ele>186.5</ele><time>2026-04-05T16:43:52.104Z</time></trkpt><trkpt lat="43.53852" lon="10.7908617"><ele>185.0</ele><time>2026-04-05T16:43:54.103Z</time></trkpt><trkpt lat="43.5385067" lon="10.7907117"><ele>183.5</ele><time>2026-04-05T16:43:56.104Z</time></trkpt><trkpt lat="43.53853" lon="10.7906217"><ele>182.0</ele><time>2026-04-05T16:43:57.104Z</time></trkpt><trkpt lat="43.5385483" lon="10.790535"><ele>180.5</ele><time>2026-04-05T16:43:58.104Z</time></trkpt><trkpt lat="43.5385767" lon="10.7904483"><ele>179.0</ele><time>2026-04-05T16:43:59.104Z</time></trkpt><trkpt lat="43.5386217" lon="10.7903583"><ele>179.0</ele><time>2026-04-05T16:44:00.104Z</time></trkpt><trkpt lat="43.5386767" lon="10.7902767"><ele>179.0</ele><time>2026-04-05T16:44:01.104Z</time></trkpt><trkpt lat="43.538745" lon="10.7902"><ele>179.0</ele><time>2026-04-05T16:44:02.104Z</time></trkpt><trkpt lat="43.5388117" lon="10.7901233"><ele>179.0</ele><time>2026-04-05T16:44:03.104Z</time></trkpt><trkpt lat="43.5388783" lon="10.790055"><ele>179.0</ele><time>2026-04-05T16:44:04.104Z</time></trkpt><trkpt lat="43.538945" lon="10.7899867"><ele>179.0</ele><time>2026-04-05T16:44:05.104Z</time></trkpt><trkpt lat="43.5390033" lon="10.7899217"><ele>178.83333333333331</ele><time>2026-04-05T16:44:06.104Z</time></trkpt><trkpt lat="43.5390683" lon="10.7898617"><ele>178.66666666666666</ele><time>2026-04-05T16:44:07.104Z</time></trkpt><trkpt lat="43.5391317" lon="10.789795"><ele>178.5</ele><time>2026-04-05T16:44:08.104Z</time></trkpt><trkpt lat="43.53919" lon="10.7897183"><ele>178.33333333333334</ele><time>2026-04-05T16:44:09.103Z</time></trkpt><trkpt lat="43.5392533" lon="10.78964"><ele>178.16666666666669</ele><time>2026-04-05T16:44:10.104Z</time></trkpt><trkpt lat="43.5393167" lon="10.7895583"><ele>178.0</ele><time>2026-04-05T16:44:11.104Z</time></trkpt><trkpt lat="43.5393767" lon="10.7894667"><ele>178.0</ele><time>2026-04-05T16:44:12.104Z</time></trkpt><trkpt lat="43.5394333" lon="10.7893633"><ele>178.0</ele><time>2026-04-05T16:44:13.103Z</time></trkpt><trkpt lat="43.53948" lon="10.7892533"><ele>178.0</ele><time>2026-04-05T16:44:14.104Z</time></trkpt><trkpt lat="43.53953" lon="10.7891383"><ele>178.0</ele><time>2026-04-05T16:44:15.104Z</time></trkpt><trkpt lat="43.5395867" lon="10.7890233"><ele>178.0</ele><time>2026-04-05T16:44:16.104Z</time></trkpt><trkpt lat="43.5396483" lon="10.788895"><ele>175.0</ele><time>2026-04-05T16:44:17.104Z</time></trkpt><trkpt lat="43.5397133" lon="10.7887783"><ele>172.0</ele><time>2026-04-05T16:44:18.104Z</time></trkpt><trkpt lat="43.53978" lon="10.7886517"><ele>169.0</ele><time>2026-04-05T16:44:19.104Z</time></trkpt><trkpt lat="43.5398517" lon="10.7885283"><ele>166.0</ele><time>2026-04-05T16:44:20.104Z</time></trkpt><trkpt lat="43.5399267" lon="10.7884033"><ele>164.5</ele><time>2026-04-05T16:44:21.104Z</time></trkpt><trkpt lat="43.5400133" lon="10.7882767"><ele>163.0</ele><time>2026-04-05T16:44:22.104Z</time></trkpt><trkpt lat="43.5400983" lon="10.7881433"><ele>161.5</ele><time>2026-04-05T16:44:23.104Z</time></trkpt><trkpt lat="43.5401783" lon="10.7880117"><ele>160.0</ele><time>2026-04-05T16:44:24.104Z</time></trkpt><trkpt lat="43.54025" lon="10.7878783"><ele>160.0</ele><time>2026-04-05T16:44:25.104Z</time></trkpt><trkpt lat="43.5403183" lon="10.7877467"><ele>160.0</ele><time>2026-04-05T16:44:26.104Z</time></trkpt><trkpt lat="43.540385" lon="10.78761"><ele>160.0</ele><time>2026-04-05T16:44:27.104Z</time></trkpt><trkpt lat="43.5404517" lon="10.7874667"><ele>160.0</ele><time>2026-04-05T16:44:28.104Z</time></trkpt><trkpt lat="43.54052" lon="10.7873217"><ele>157.5</ele><time>2026-04-05T16:44:29.104Z</time></trkpt><trkpt lat="43.5405667" lon="10.7871667"><ele>155.0</ele><time>2026-04-05T16:44:30.104Z</time></trkpt><trkpt lat="43.5406067" lon="10.787"><ele>152.5</ele><time>2026-04-05T16:44:31.104Z</time></trkpt><trkpt lat="43.5406367" lon="10.7868267"><ele>150.0</ele><time>2026-04-05T16:44:32.104Z</time></trkpt><trkpt lat="43.5406533" lon="10.7866483"><ele>150.0</ele><time>2026-04-05T16:44:33.104Z</time></trkpt><trkpt lat="43.5406583" lon="10.7864633"><ele>150.0</ele><time>2026-04-05T16:44:34.104Z</time></trkpt><trkpt lat="43.54066" lon="10.78628"><ele>150.0</ele><time>2026-04-05T16:44:35.104Z</time></trkpt><trkpt lat="43.5406567" lon="10.7860983"><ele>150.0</ele><time>2026-04-05T16:44:36.104Z</time></trkpt><trkpt lat="43.540645" lon="10.78592"><ele>149.25</ele><time>2026-04-05T16:44:37.104Z</time></trkpt><trkpt lat="43.5406267" lon="10.7857383"><ele>148.5</ele><time>2026-04-05T16:44:38.103Z</time></trkpt><trkpt lat="43.54061" lon="10.7855583"><ele>147.75</ele><time>2026-04-05T16:44:39.104Z</time></trkpt><trkpt lat="43.54059" lon="10.7853783"><ele>147.0</ele><time>2026-04-05T16:44:40.104Z</time></trkpt><trkpt lat="43.5405733" lon="10.7852017"><ele>146.5</ele><time>2026-04-05T16:44:41.104Z</time></trkpt><trkpt lat="43.5405683" lon="10.7850217"><ele>146.0</ele><time>2026-04-05T16:44:42.104Z</time></trkpt><trkpt lat="43.5405867" lon="10.784845"><ele>145.5</ele><time>2026-04-05T16:44:43.104Z</time></trkpt><trkpt lat="43.5406133" lon="10.784675"><ele>145.0</ele><time>2026-04-05T16:44:44.104Z</time></trkpt><trkpt lat="43.54066" lon="10.7845217"><ele>145.0</ele><time>2026-04-05T16:44:45.104Z</time></trkpt><trkpt lat="43.5407217" lon="10.784375"><ele>145.0</ele><time>2026-04-05T16:44:46.104Z</time></trkpt><trkpt lat="43.54079" lon="10.7842333"><ele>145.0</ele><time>2026-04-05T16:44:47.104Z</time></trkpt><trkpt lat="43.5408633" lon="10.784095"><ele>145.0</ele><time>2026-04-05T16:44:48.104Z</time></trkpt><trkpt lat="43.5409383" lon="10.78396"><ele>143.5</ele><time>2026-04-05T16:44:49.104Z</time></trkpt><trkpt lat="43.5410217" lon="10.78384"><ele>142.0</ele><time>2026-04-05T16:44:50.104Z</time></trkpt><trkpt lat="43.5410967" lon="10.78371"><ele>140.5</ele><time>2026-04-05T16:44:51.104Z</time></trkpt><trkpt lat="43.5411717" lon="10.783575"><ele>139.0</ele><time>2026-04-05T16:44:52.104Z</time></trkpt><trkpt lat="43.5412433" lon="10.78344"><ele>139.0</ele><time>2026-04-05T16:44:53.104Z</time></trkpt><trkpt lat="43.5413017" lon="10.7832933"><ele>139.0</ele><time>2026-04-05T16:44:54.104Z</time></trkpt><trkpt lat="43.5413533" lon="10.7831433"><ele>139.0</ele><time>2026-04-05T16:44:55.104Z</time></trkpt><trkpt lat="43.5413833" lon="10.7829833"><ele>139.0</ele><time>2026-04-05T16:44:56.104Z</time></trkpt><trkpt lat="43.5413967" lon="10.7828217"><ele>139.5</ele><time>2026-04-05T16:44:57.104Z</time></trkpt><trkpt lat="43.541405" lon="10.7826567"><ele>140.0</ele><time>2026-04-05T16:44:58.103Z</time></trkpt><trkpt lat="43.5414083" lon="10.7824967"><ele>140.5</ele><time>2026-04-05T16:44:59.104Z</time></trkpt><trkpt lat="43.5414183" lon="10.7823417"><ele>141.0</ele><time>2026-04-05T16:45:00.104Z</time></trkpt><trkpt lat="43.5414517" lon="10.7822033"><ele>141.0</ele><time>2026-04-05T16:45:01.104Z</time></trkpt><trkpt lat="43.5415117" lon="10.7820817"><ele>141.0</ele><time>2026-04-05T16:45:02.104Z</time></trkpt><trkpt lat="43.5415967" lon="10.781975"><ele>141.0</ele><time>2026-04-05T16:45:03.104Z</time></trkpt><trkpt lat="43.5416883" lon="10.7818667"><ele>141.0</ele><time>2026-04-05T16:45:04.104Z</time></trkpt><trkpt lat="43.5417833" lon="10.78176"><ele>139.5</ele><time>2026-04-05T16:45:05.104Z</time></trkpt><trkpt lat="43.5418817" lon="10.7816517"><ele>138.0</ele><time>2026-04-05T16:45:06.104Z</time></trkpt><trkpt lat="43.5419833" lon="10.7815483"><ele>136.5</ele><time>2026-04-05T16:45:07.104Z</time></trkpt><trkpt lat="43.5420867" lon="10.781445"><ele>135.0</ele><time>2026-04-05T16:45:08.104Z</time></trkpt><trkpt lat="43.5421833" lon="10.781345"><ele>134.0</ele><time>2026-04-05T16:45:09.104Z</time></trkpt><trkpt lat="43.542265" lon="10.7812367"><ele>133.0</ele><time>2026-04-05T16:45:10.104Z</time></trkpt><trkpt lat="43.5423183" lon="10.78112"><ele>132.0</ele><time>2026-04-05T16:45:11.104Z</time></trkpt><trkpt lat="43.54234" lon="10.7809933"><ele>131.0</ele><time>2026-04-05T16:45:12.104Z</time></trkpt><trkpt lat="43.5423333" lon="10.7808567"><ele>130.0</ele><time>2026-04-05T16:45:13.104Z</time></trkpt><trkpt lat="43.54232" lon="10.7807167"><ele>129.0</ele><time>2026-04-05T16:45:14.104Z</time></trkpt><trkpt lat="43.54231" lon="10.7805667"><ele>128.0</ele><time>2026-04-05T16:45:15.104Z</time></trkpt><trkpt lat="43.5423067" lon="10.78042"><ele>127.0</ele><time>2026-04-05T16:45:16.104Z</time></trkpt><trkpt lat="43.542305" lon="10.7802683"><ele>126.0</ele><time>2026-04-05T16:45:17.104Z</time></trkpt><trkpt lat="43.5423067" lon="10.78011"><ele>125.0</ele><time>2026-04-05T16:45:18.104Z</time></trkpt><trkpt lat="43.5423083" lon="10.7799517"><ele>124.0</ele><time>2026-04-05T16:45:19.104Z</time></trkpt><trkpt lat="43.5423067" lon="10.77979"><ele>123.0</ele><time>2026-04-05T16:45:20.103Z</time></trkpt><trkpt lat="43.54231" lon="10.779635"><ele>122.0</ele><time>2026-04-05T16:45:21.104Z</time></trkpt><trkpt lat="43.5423133" lon="10.779475"><ele>121.0</ele><time>2026-04-05T16:45:22.104Z</time></trkpt><trkpt lat="43.542315" lon="10.7793083"><ele>119.8</ele><time>2026-04-05T16:45:23.104Z</time></trkpt><trkpt lat="43.542325" lon="10.7791467"><ele>118.6</ele><time>2026-04-05T16:45:24.103Z</time></trkpt><trkpt lat="43.5423383" lon="10.7789983"><ele>117.4</ele><time>2026-04-05T16:45:25.104Z</time></trkpt><trkpt lat="43.5423633" lon="10.7788567"><ele>116.2</ele><time>2026-04-05T16:45:26.104Z</time></trkpt><trkpt lat="43.54241" lon="10.7787317"><ele>115.0</ele><time>2026-04-05T16:45:27.104Z</time></trkpt><trkpt lat="43.5424733" lon="10.7786233"><ele>113.75</ele><time>2026-04-05T16:45:28.104Z</time></trkpt><trkpt lat="43.54255" lon="10.778515"><ele>112.5</ele><time>2026-04-05T16:45:29.104Z</time></trkpt><trkpt lat="43.5426333" lon="10.77841"><ele>111.25</ele><time>2026-04-05T16:45:30.104Z</time></trkpt><trkpt lat="43.5427183" lon="10.778305"><ele>110.0</ele><time>2026-04-05T16:45:31.104Z</time></trkpt><trkpt lat="43.542815" lon="10.7781983"><ele>108.25</ele><time>2026-04-05T16:45:32.104Z</time></trkpt><trkpt lat="43.5429183" lon="10.7780983"><ele>106.5</ele><time>2026-04-05T16:45:33.104Z</time></trkpt><trkpt lat="43.5430317" lon="10.7780133"><ele>104.75</ele><time>2026-04-05T16:45:34.104Z</time></trkpt><trkpt lat="43.5431533" lon="10.7779483"><ele>103.0</ele><time>2026-04-05T16:45:35.104Z</time></trkpt><trkpt lat="43.5432783" lon="10.7779083"><ele>103.0</ele><time>2026-04-05T16:45:36.104Z</time></trkpt><trkpt lat="43.5434067" lon="10.777875"><ele>103.0</ele><time>2026-04-05T16:45:37.104Z</time></trkpt><trkpt lat="43.5435267" lon="10.77783"><ele>103.0</ele><time>2026-04-05T16:45:38.104Z</time></trkpt><trkpt lat="43.543645" lon="10.77776"><ele>103.0</ele><time>2026-04-05T16:45:39.104Z</time></trkpt><trkpt lat="43.5437533" lon="10.77767"><ele>100.5</ele><time>2026-04-05T16:45:40.104Z</time></trkpt><trkpt lat="43.543855" lon="10.77756"><ele>98.0</ele><time>2026-04-05T16:45:41.104Z</time></trkpt><trkpt lat="43.543945" lon="10.7774283"><ele>95.5</ele><time>2026-04-05T16:45:42.104Z</time></trkpt><trkpt lat="43.544025" lon="10.7772867"><ele>93.0</ele><time>2026-04-05T16:45:43.104Z</time></trkpt><trkpt lat="43.5440983" lon="10.7771333"><ele>93.0</ele><time>2026-04-05T16:45:44.104Z</time></trkpt><trkpt lat="43.5441667" lon="10.776975"><ele>93.0</ele><time>2026-04-05T16:45:45.104Z</time></trkpt><trkpt lat="43.5442317" lon="10.77681"><ele>93.0</ele><time>2026-04-05T16:45:46.104Z</time></trkpt><trkpt lat="43.5442917" lon="10.77665"><ele>93.0</ele><time>2026-04-05T16:45:47.104Z</time></trkpt><trkpt lat="43.5443567" lon="10.7764917"><ele>92.0</ele><time>2026-04-05T16:45:48.104Z</time></trkpt><trkpt lat="43.544435" lon="10.7763433"><ele>91.0</ele><time>2026-04-05T16:45:49.104Z</time></trkpt><trkpt lat="43.54453" lon="10.7762167"><ele>90.0</ele><time>2026-04-05T16:45:50.104Z</time></trkpt><trkpt lat="43.54463" lon="10.7761067"><ele>89.0</ele><time>2026-04-05T16:45:51.104Z</time></trkpt><trkpt lat="43.5447333" lon="10.776015"><ele>86.0</ele><time>2026-04-05T16:45:52.104Z</time></trkpt><trkpt lat="43.5448217" lon="10.7759333"><ele>83.0</ele><time>2026-04-05T16:45:53.103Z</time></trkpt><trkpt lat="43.5448833" lon="10.7758517"><ele>80.0</ele><time>2026-04-05T16:45:54.104Z</time></trkpt><trkpt lat="43.5449267" lon="10.77576"><ele>77.0</ele><time>2026-04-05T16:45:55.104Z</time></trkpt><trkpt lat="43.5449467" lon="10.7756483"><ele>74.0</ele><time>2026-04-05T16:45:56.104Z</time></trkpt><trkpt lat="43.544935" lon="10.7755183"><ele>74.0</ele><time>2026-04-05T16:45:57.103Z</time></trkpt><trkpt lat="43.5448817" lon="10.7753783"><ele>74.0</ele><time>2026-04-05T16:45:58.104Z</time></trkpt><trkpt lat="43.5448467" lon="10.7752267"><ele>74.0</ele><time>2026-04-05T16:45:59.104Z</time></trkpt><trkpt lat="43.5448217" lon="10.7750617"><ele>74.0</ele><time>2026-04-05T16:46:00.104Z</time></trkpt><trkpt lat="43.54481" lon="10.7748917"><ele>72.25</ele><time>2026-04-05T16:46:01.104Z</time></trkpt><trkpt lat="43.5448283" lon="10.7747167"><ele>70.5</ele><time>2026-04-05T16:46:02.103Z</time></trkpt><trkpt lat="43.5448733" lon="10.774555"><ele>68.75</ele><time>2026-04-05T16:46:03.104Z</time></trkpt><trkpt lat="43.544935" lon="10.7744183"><ele>67.0</ele><time>2026-04-05T16:46:04.104Z</time></trkpt><trkpt lat="43.545005" lon="10.77427"><ele>65.75</ele><time>2026-04-05T16:46:05.104Z</time></trkpt><trkpt lat="43.54508" lon="10.77412"><ele>64.5</ele><time>2026-04-05T16:46:06.104Z</time></trkpt><trkpt lat="43.5451483" lon="10.773965"><ele>63.25</ele><time>2026-04-05T16:46:07.104Z</time></trkpt><trkpt lat="43.54521" lon="10.7738"><ele>62.0</ele><time>2026-04-05T16:46:08.104Z</time></trkpt><trkpt lat="43.5452367" lon="10.7736083"><ele>61.5</ele><time>2026-04-05T16:46:09.104Z</time></trkpt><trkpt lat="43.5452333" lon="10.7734067"><ele>61.0</ele><time>2026-04-05T16:46:10.104Z</time></trkpt><trkpt lat="43.5452217" lon="10.7732017"><ele>60.5</ele><time>2026-04-05T16:46:11.104Z</time></trkpt><trkpt lat="43.5452067" lon="10.7730067"><ele>60.0</ele><time>2026-04-05T16:46:12.104Z</time></trkpt><trkpt lat="43.54521" lon="10.77282"><ele>60.0</ele><time>2026-04-05T16:46:13.104Z</time></trkpt><trkpt lat="43.5452383" lon="10.7726483"><ele>60.0</ele><time>2026-04-05T16:46:14.104Z</time></trkpt><trkpt lat="43.5453017" lon="10.7725017"><ele>60.0</ele><time>2026-04-05T16:46:15.104Z</time></trkpt><trkpt lat="43.5453833" lon="10.7723833"><ele>60.0</ele><time>2026-04-05T16:46:16.104Z</time></trkpt><trkpt lat="43.5454733" lon="10.7722867"><ele>59.75</ele><time>2026-04-05T16:46:17.104Z</time></trkpt><trkpt lat="43.5455733" lon="10.7721817"><ele>59.5</ele><time>2026-04-05T16:46:18.104Z</time></trkpt><trkpt lat="43.5456733" lon="10.77207"><ele>59.25</ele><time>2026-04-05T16:46:19.104Z</time></trkpt><trkpt lat="43.5457683" lon="10.77195"><ele>59.0</ele><time>2026-04-05T16:46:20.104Z</time></trkpt><trkpt lat="43.5458583" lon="10.7718133"><ele>58.75</ele><time>2026-04-05T16:46:21.104Z</time></trkpt><trkpt lat="43.5459333" lon="10.7716583"><ele>58.5</ele><time>2026-04-05T16:46:22.104Z</time></trkpt><trkpt lat="43.546005" lon="10.7715"><ele>58.25</ele><time>2026-04-05T16:46:23.104Z</time></trkpt><trkpt lat="43.5460767" lon="10.77134"><ele>58.0</ele><time>2026-04-05T16:46:24.104Z</time></trkpt><trkpt lat="43.54617" lon="10.77121"><ele>57.25</ele><time>2026-04-05T16:46:25.104Z</time></trkpt><trkpt lat="43.5462817" lon="10.7711167"><ele>56.5</ele><time>2026-04-05T16:46:26.104Z</time></trkpt><trkpt lat="43.546415" lon="10.77105"><ele>55.75</ele><time>2026-04-05T16:46:27.104Z</time></trkpt><trkpt lat="43.546545" lon="10.7709833"><ele>55.0</ele><time>2026-04-05T16:46:28.104Z</time></trkpt><trkpt lat="43.5466833" lon="10.7709183"><ele>54.75</ele><time>2026-04-05T16:46:29.104Z</time></trkpt><trkpt lat="43.5468217" lon="10.7708433"><ele>54.5</ele><time>2026-04-05T16:46:30.104Z</time></trkpt><trkpt lat="43.5469517" lon="10.7707683"><ele>54.25</ele><time>2026-04-05T16:46:31.103Z</time></trkpt><trkpt lat="43.547085" lon="10.7706917"><ele>54.0</ele><time>2026-04-05T16:46:32.104Z</time></trkpt><trkpt lat="43.5472183" lon="10.7706233"><ele>55.75</ele><time>2026-04-05T16:46:33.104Z</time></trkpt><trkpt lat="43.5473517" lon="10.7705567"><ele>57.5</ele><time>2026-04-05T16:46:34.104Z</time></trkpt><trkpt lat="43.5474767" lon="10.7704917"><ele>59.25</ele><time>2026-04-05T16:46:35.104Z</time></trkpt><trkpt lat="43.5476" lon="10.7704233"><ele>61.0</ele><time>2026-04-05T16:46:36.104Z</time></trkpt><trkpt lat="43.5477117" lon="10.7703433"><ele>61.0</ele><time>2026-04-05T16:46:37.104Z</time></trkpt><trkpt lat="43.5478" lon="10.7702183"><ele>61.0</ele><time>2026-04-05T16:46:38.104Z</time></trkpt><trkpt lat="43.5478617" lon="10.770065"><ele>61.0</ele><time>2026-04-05T16:46:39.104Z</time></trkpt><trkpt lat="43.5478917" lon="10.7698867"><ele>61.0</ele><time>2026-04-05T16:46:40.104Z</time></trkpt><trkpt lat="43.5479067" lon="10.769695"><ele>64.5</ele><time>2026-04-05T16:46:41.104Z</time></trkpt><trkpt lat="43.547915" lon="10.7694917"><ele>68.0</ele><time>2026-04-05T16:46:42.104Z</time></trkpt><trkpt lat="43.5479333" lon="10.769295"><ele>71.5</ele><time>2026-04-05T16:46:43.104Z</time></trkpt><trkpt lat="43.5479683" lon="10.7691017"><ele>75.0</ele><time>2026-04-05T16:46:44.104Z</time></trkpt><trkpt lat="43.5480183" lon="10.768905"><ele>75.0</ele><time>2026-04-05T16:46:45.104Z</time></trkpt><trkpt lat="43.5480883" lon="10.7687183"><ele>75.0</ele><time>2026-04-05T16:46:46.103Z</time></trkpt><trkpt lat="43.5481567" lon="10.76853"><ele>75.0</ele><time>2026-04-05T16:46:47.104Z</time></trkpt><trkpt lat="43.5482267" lon="10.7683367"><ele>72.66666666666667</ele><time>2026-04-05T16:46:48.104Z</time></trkpt><trkpt lat="43.5482883" lon="10.768145"><ele>70.33333333333334</ele><time>2026-04-05T16:46:49.104Z</time></trkpt><trkpt lat="43.5483517" lon="10.76795"><ele>68.0</ele><time>2026-04-05T16:46:50.104Z</time></trkpt><trkpt lat="43.5484133" lon="10.767755"><ele>67.5</ele><time>2026-04-05T16:46:51.104Z</time></trkpt><trkpt lat="43.5484733" lon="10.7675617"><ele>67.0</ele><time>2026-04-05T16:46:52.104Z</time></trkpt><trkpt lat="43.5485133" lon="10.767365"><ele>66.5</ele><time>2026-04-05T16:46:53.104Z</time></trkpt><trkpt lat="43.5485367" lon="10.7671683"><ele>66.0</ele><time>2026-04-05T16:46:54.104Z</time></trkpt><trkpt lat="43.5485433" lon="10.7669683"><ele>65.5</ele><time>2026-04-05T16:46:55.104Z</time></trkpt><trkpt lat="43.5485417" lon="10.7667733"><ele>65.0</ele><time>2026-04-05T16:46:56.104Z</time></trkpt><trkpt lat="43.548525" lon="10.7665767"><ele>64.5</ele><time>2026-04-05T16:46:57.104Z</time></trkpt><trkpt lat="43.5485067" lon="10.7663767"><ele>64.0</ele><time>2026-04-05T16:46:58.104Z</time></trkpt><trkpt lat="43.5484817" lon="10.7661783"><ele>63.25</ele><time>2026-04-05T16:46:59.104Z</time></trkpt><trkpt lat="43.5484533" lon="10.76598"><ele>62.5</ele><time>2026-04-05T16:47:00.104Z</time></trkpt><trkpt lat="43.548425" lon="10.7657767"><ele>61.75</ele><time>2026-04-05T16:47:01.104Z</time></trkpt><trkpt lat="43.5484" lon="10.76557"><ele>61.0</ele><time>2026-04-05T16:47:02.104Z</time></trkpt><trkpt lat="43.5483783" lon="10.7653583"><ele>60.666666666666664</ele><time>2026-04-05T16:47:03.104Z</time></trkpt><trkpt lat="43.5483617" lon="10.765145"><ele>60.33333333333333</ele><time>2026-04-05T16:47:04.104Z</time></trkpt><trkpt lat="43.548355" lon="10.7649283"><ele>60.0</ele><time>2026-04-05T16:47:05.103Z</time></trkpt><trkpt lat="43.5483533" lon="10.7647083"><ele>60.0</ele><time>2026-04-05T16:47:06.104Z</time></trkpt><trkpt lat="43.548355" lon="10.7644833"><ele>60.0</ele><time>2026-04-05T16:47:07.104Z</time></trkpt><trkpt lat="43.5483683" lon="10.7642583"><ele>60.0</ele><time>2026-04-05T16:47:08.104Z</time></trkpt><trkpt lat="43.548385" lon="10.7640367"><ele>60.0</ele><time>2026-04-05T16:47:09.104Z</time></trkpt><trkpt lat="43.5484033" lon="10.7638117"><ele>60.0</ele><time>2026-04-05T16:47:10.104Z</time></trkpt><trkpt lat="43.54842" lon="10.76359"><ele>60.0</ele><time>2026-04-05T16:47:11.104Z</time></trkpt><trkpt lat="43.5484367" lon="10.7633717"><ele>59.66666666666667</ele><time>2026-04-05T16:47:12.104Z</time></trkpt><trkpt lat="43.5484483" lon="10.76315"><ele>59.333333333333336</ele><time>2026-04-05T16:47:13.104Z</time></trkpt><trkpt lat="43.54846" lon="10.7629283"><ele>59.0</ele><time>2026-04-05T16:47:14.104Z</time></trkpt><trkpt lat="43.5484783" lon="10.7627083"><ele>58.66666666666667</ele><time>2026-04-05T16:47:15.104Z</time></trkpt><trkpt lat="43.5485067" lon="10.7624917"><ele>58.33333333333333</ele><time>2026-04-05T16:47:16.104Z</time></trkpt><trkpt lat="43.5485467" lon="10.7622833"><ele>58.0</ele><time>2026-04-05T16:47:17.104Z</time></trkpt><trkpt lat="43.5485983" lon="10.7620917"><ele>58.0</ele><time>2026-04-05T16:47:18.104Z</time></trkpt><trkpt lat="43.548655" lon="10.76192"><ele>58.0</ele><time>2026-04-05T16:47:19.104Z</time></trkpt><trkpt lat="43.5487217" lon="10.7617633"><ele>58.0</ele><time>2026-04-05T16:47:20.104Z</time></trkpt><trkpt lat="43.5488117" lon="10.7616233"><ele>58.0</ele><time>2026-04-05T16:47:21.104Z</time></trkpt><trkpt lat="43.5489183" lon="10.7615017"><ele>58.5</ele><time>2026-04-05T16:47:22.104Z</time></trkpt><trkpt lat="43.54904" lon="10.7614"><ele>59.0</ele><time>2026-04-05T16:47:23.104Z</time></trkpt><trkpt lat="43.549165" lon="10.7613017"><ele>59.5</ele><time>2026-04-05T16:47:24.104Z</time></trkpt><trkpt lat="43.5492967" lon="10.7612067"><ele>60.0</ele><time>2026-04-05T16:47:25.104Z</time></trkpt><trkpt lat="43.5494367" lon="10.7611117"><ele>59.66666666666667</ele><time>2026-04-05T16:47:26.104Z</time></trkpt><trkpt lat="43.54958" lon="10.7610217"><ele>59.333333333333336</ele><time>2026-04-05T16:47:27.103Z</time></trkpt><trkpt lat="43.5497217" lon="10.76093"><ele>59.0</ele><time>2026-04-05T16:47:28.103Z</time></trkpt><trkpt lat="43.54986" lon="10.7608383"><ele>59.0</ele><time>2026-04-05T16:47:29.104Z</time></trkpt><trkpt lat="43.5499983" lon="10.7607433"><ele>59.0</ele><time>2026-04-05T16:47:30.104Z</time></trkpt><trkpt lat="43.55014" lon="10.76065"><ele>59.0</ele><time>2026-04-05T16:47:31.104Z</time></trkpt><trkpt lat="43.550285" lon="10.7605617"><ele>59.66666666666667</ele><time>2026-04-05T16:47:32.104Z</time></trkpt><trkpt lat="43.5504333" lon="10.76048"><ele>60.33333333333333</ele><time>2026-04-05T16:47:33.104Z</time></trkpt><trkpt lat="43.5505867" lon="10.7604167"><ele>61.0</ele><time>2026-04-05T16:47:34.104Z</time></trkpt><trkpt lat="43.5507433" lon="10.7603417"><ele>61.0</ele><time>2026-04-05T16:47:35.104Z</time></trkpt><trkpt lat="43.5508933" lon="10.7602483"><ele>61.0</ele><time>2026-04-05T16:47:36.104Z</time></trkpt><trkpt lat="43.55103" lon="10.7601167"><ele>61.0</ele><time>2026-04-05T16:47:37.104Z</time></trkpt><trkpt lat="43.5511533" lon="10.759975"><ele>61.666666666666664</ele><time>2026-04-05T16:47:38.104Z</time></trkpt><trkpt lat="43.5512717" lon="10.7598233"><ele>62.33333333333333</ele><time>2026-04-05T16:47:39.104Z</time></trkpt><trkpt lat="43.5513867" lon="10.759675"><ele>63.0</ele><time>2026-04-05T16:47:40.104Z</time></trkpt><trkpt lat="43.5515" lon="10.759525"><ele>63.0</ele><time>2026-04-05T16:47:41.104Z</time></trkpt><trkpt lat="43.5516267" lon="10.7593983"><ele>63.0</ele><time>2026-04-05T16:47:42.104Z</time></trkpt><trkpt lat="43.5517617" lon="10.7592867"><ele>63.0</ele><time>2026-04-05T16:47:43.104Z</time></trkpt><trkpt lat="43.5518917" lon="10.75917"><ele>62.66666666666667</ele><time>2026-04-05T16:47:44.104Z</time></trkpt><trkpt lat="43.5520083" lon="10.7590217"><ele>62.333333333333336</ele><time>2026-04-05T16:47:45.104Z</time></trkpt><trkpt lat="43.5521067" lon="10.7588433"><ele>62.0</ele><time>2026-04-05T16:47:46.104Z</time></trkpt><trkpt lat="43.5521933" lon="10.7586517"><ele>61.0</ele><time>2026-04-05T16:47:47.104Z</time></trkpt><trkpt lat="43.5522767" lon="10.7584533"><ele>60.0</ele><time>2026-04-05T16:47:48.104Z</time></trkpt><trkpt lat="43.55236" lon="10.7582617"><ele>59.0</ele><time>2026-04-05T16:47:49.104Z</time></trkpt><trkpt lat="43.55246" lon="10.7580917"><ele>59.0</ele><time>2026-04-05T16:47:50.104Z</time></trkpt><trkpt lat="43.5525733" lon="10.757935"><ele>59.0</ele><time>2026-04-05T16:47:51.104Z</time></trkpt><trkpt lat="43.5527033" lon="10.7577983"><ele>59.0</ele><time>2026-04-05T16:47:52.104Z</time></trkpt><trkpt lat="43.5528317" lon="10.7576667"><ele>60.333333333333336</ele><time>2026-04-05T16:47:53.104Z</time></trkpt><trkpt lat="43.5529583" lon="10.7575283"><ele>61.66666666666667</ele><time>2026-04-05T16:47:54.104Z</time></trkpt><trkpt lat="43.5530833" lon="10.7573917"><ele>63.0</ele><time>2026-04-05T16:47:55.104Z</time></trkpt><trkpt lat="43.5532133" lon="10.757265"><ele>63.0</ele><time>2026-04-05T16:47:56.104Z</time></trkpt><trkpt lat="43.5533483" lon="10.7571483"><ele>63.0</ele><time>2026-04-05T16:47:57.104Z</time></trkpt><trkpt lat="43.5534867" lon="10.757045"><ele>63.0</ele><time>2026-04-05T16:47:58.104Z</time></trkpt><trkpt lat="43.55363" lon="10.7569567"><ele>63.0</ele><time>2026-04-05T16:47:59.104Z</time></trkpt><trkpt lat="43.55378" lon="10.75688"><ele>63.0</ele><time>2026-04-05T16:48:00.104Z</time></trkpt><trkpt lat="43.553935" lon="10.7568183"><ele>63.0</ele><time>2026-04-05T16:48:01.104Z</time></trkpt><trkpt lat="43.554085" lon="10.7567567"><ele>63.0</ele><time>2026-04-05T16:48:02.104Z</time></trkpt><trkpt lat="43.5542433" lon="10.7567033"><ele>63.0</ele><time>2026-04-05T16:48:03.104Z</time></trkpt><trkpt lat="43.5543983" lon="10.7566367"><ele>63.0</ele><time>2026-04-05T16:48:04.104Z</time></trkpt><trkpt lat="43.5545533" lon="10.756555"><ele>65.66666666666667</ele><time>2026-04-05T16:48:05.104Z</time></trkpt><trkpt lat="43.5547" lon="10.7564533"><ele>68.33333333333334</ele><time>2026-04-05T16:48:06.104Z</time></trkpt><trkpt lat="43.5548467" lon="10.7563483"><ele>71.0</ele><time>2026-04-05T16:48:07.104Z</time></trkpt><trkpt lat="43.5549833" lon="10.7562283"><ele>71.0</ele><time>2026-04-05T16:48:08.104Z</time></trkpt><trkpt lat="43.5551067" lon="10.756085"><ele>71.0</ele><time>2026-04-05T16:48:09.104Z</time></trkpt><trkpt lat="43.5552183" lon="10.7559217"><ele>71.0</ele><time>2026-04-05T16:48:10.104Z</time></trkpt><trkpt lat="43.5553217" lon="10.75575"><ele>68.0</ele><time>2026-04-05T16:48:11.104Z</time></trkpt><trkpt lat="43.5554233" lon="10.7555733"><ele>65.0</ele><time>2026-04-05T16:48:12.104Z</time></trkpt><trkpt lat="43.5555217" lon="10.7553967"><ele>62.0</ele><time>2026-04-05T16:48:13.104Z</time></trkpt><trkpt lat="43.5556083" lon="10.755215"><ele>62.0</ele><time>2026-04-05T16:48:14.104Z</time></trkpt><trkpt lat="43.555685" lon="10.7550283"><ele>62.0</ele><time>2026-04-05T16:48:15.104Z</time></trkpt><trkpt lat="43.555765" lon="10.7548533"><ele>62.0</ele><time>2026-04-05T16:48:16.104Z</time></trkpt><trkpt lat="43.555845" lon="10.7546767"><ele>62.0</ele><time>2026-04-05T16:48:17.104Z</time></trkpt><trkpt lat="43.5559233" lon="10.7544917"><ele>62.0</ele><time>2026-04-05T16:48:18.104Z</time></trkpt><trkpt lat="43.5560033" lon="10.754305"><ele>62.0</ele><time>2026-04-05T16:48:19.104Z</time></trkpt><trkpt lat="43.5560867" lon="10.7541217"><ele>62.66666666666667</ele><time>2026-04-05T16:48:20.104Z</time></trkpt><trkpt lat="43.5561833" lon="10.7539433"><ele>63.33333333333333</ele><time>2026-04-05T16:48:21.104Z</time></trkpt><trkpt lat="43.556285" lon="10.7537717"><ele>64.0</ele><time>2026-04-05T16:48:22.104Z</time></trkpt><trkpt lat="43.5563783" lon="10.753595"><ele>62.0</ele><time>2026-04-05T16:48:23.104Z</time></trkpt><trkpt lat="43.5564617" lon="10.7534133"><ele>60.0</ele><time>2026-04-05T16:48:24.104Z</time></trkpt><trkpt lat="43.5565333" lon="10.7532217"><ele>58.0</ele><time>2026-04-05T16:48:25.104Z</time></trkpt><trkpt lat="43.5566017" lon="10.7530317"><ele>58.0</ele><time>2026-04-05T16:48:26.104Z</time></trkpt><trkpt lat="43.55668" lon="10.7528583"><ele>58.0</ele><time>2026-04-05T16:48:27.104Z</time></trkpt><trkpt lat="43.55678" lon="10.7527133"><ele>58.0</ele><time>2026-04-05T16:48:28.104Z</time></trkpt><trkpt lat="43.5568917" lon="10.7525867"><ele>58.0</ele><time>2026-04-05T16:48:29.104Z</time></trkpt><trkpt lat="43.557015" lon="10.75248"><ele>58.25</ele><time>2026-04-05T16:48:30.103Z</time></trkpt><trkpt lat="43.557145" lon="10.7523867"><ele>58.5</ele><time>2026-04-05T16:48:31.104Z</time></trkpt><trkpt lat="43.5572767" lon="10.7522917"><ele>58.75</ele><time>2026-04-05T16:48:32.104Z</time></trkpt><trkpt lat="43.5574117" lon="10.7521967"><ele>59.0</ele><time>2026-04-05T16:48:33.104Z</time></trkpt><trkpt lat="43.5575433" lon="10.7520917"><ele>59.0</ele><time>2026-04-05T16:48:34.104Z</time></trkpt><trkpt lat="43.55767" lon="10.75197"><ele>59.0</ele><time>2026-04-05T16:48:35.103Z</time></trkpt><trkpt lat="43.5577917" lon="10.7518417"><ele>59.0</ele><time>2026-04-05T16:48:36.104Z</time></trkpt><trkpt lat="43.5579117" lon="10.7517183"><ele>59.333333333333336</ele><time>2026-04-05T16:48:37.104Z</time></trkpt><trkpt lat="43.5580267" lon="10.75159"><ele>59.66666666666667</ele><time>2026-04-05T16:48:38.104Z</time></trkpt><trkpt lat="43.5581317" lon="10.7514367"><ele>60.0</ele><time>2026-04-05T16:48:39.104Z</time></trkpt><trkpt lat="43.5582333" lon="10.751275"><ele>60.0</ele><time>2026-04-05T16:48:40.104Z</time></trkpt><trkpt lat="43.5583367" lon="10.7511117"><ele>60.0</ele><time>2026-04-05T16:48:41.104Z</time></trkpt><trkpt lat="43.5584383" lon="10.750945"><ele>60.0</ele><time>2026-04-05T16:48:42.104Z</time></trkpt><trkpt lat="43.5585433" lon="10.7507867"><ele>58.66666666666667</ele><time>2026-04-05T16:48:43.104Z</time></trkpt><trkpt lat="43.5586517" lon="10.7506333"><ele>57.333333333333336</ele><time>2026-04-05T16:48:44.104Z</time></trkpt><trkpt lat="43.55876" lon="10.7504817"><ele>56.0</ele><time>2026-04-05T16:48:45.104Z</time></trkpt><trkpt lat="43.5588733" lon="10.7503383"><ele>54.333333333333336</ele><time>2026-04-05T16:48:46.104Z</time></trkpt><trkpt lat="43.5589833" lon="10.750195"><ele>52.66666666666667</ele><time>2026-04-05T16:48:47.104Z</time></trkpt><trkpt lat="43.5590967" lon="10.7500483"><ele>51.0</ele><time>2026-04-05T16:48:48.104Z</time></trkpt><trkpt lat="43.55921" lon="10.749895"><ele>51.0</ele><time>2026-04-05T16:48:49.104Z</time></trkpt><trkpt lat="43.5593167" lon="10.7497367"><ele>51.0</ele><time>2026-04-05T16:48:50.103Z</time></trkpt><trkpt lat="43.5594217" lon="10.7495817"><ele>51.0</ele><time>2026-04-05T16:48:51.104Z</time></trkpt><trkpt lat="43.5595217" lon="10.7494367"><ele>51.0</ele><time>2026-04-05T16:48:52.104Z</time></trkpt><trkpt lat="43.5596317" lon="10.749315"><ele>51.0</ele><time>2026-04-05T16:48:53.104Z</time></trkpt><trkpt lat="43.5597533" lon="10.7492217"><ele>51.0</ele><time>2026-04-05T16:48:54.104Z</time></trkpt><trkpt lat="43.55988" lon="10.7491567"><ele>51.0</ele><time>2026-04-05T16:48:55.104Z</time></trkpt><trkpt lat="43.5600117" lon="10.7491067"><ele>51.0</ele><time>2026-04-05T16:48:56.104Z</time></trkpt><trkpt lat="43.5601467" lon="10.74906"><ele>51.0</ele><time>2026-04-05T16:48:57.103Z</time></trkpt><trkpt lat="43.560285" lon="10.749015"><ele>51.0</ele><time>2026-04-05T16:48:58.104Z</time></trkpt><trkpt lat="43.56042" lon="10.748975"><ele>51.0</ele><time>2026-04-05T16:48:59.104Z</time></trkpt><trkpt lat="43.5605533" lon="10.7489367"><ele>51.25</ele><time>2026-04-05T16:49:00.104Z</time></trkpt><trkpt lat="43.5606833" lon="10.7488967"><ele>51.5</ele><time>2026-04-05T16:49:01.104Z</time></trkpt><trkpt lat="43.56081" lon="10.74886"><ele>51.75</ele><time>2026-04-05T16:49:02.104Z</time></trkpt><trkpt lat="43.5609367" lon="10.7488283"><ele>52.0</ele><time>2026-04-05T16:49:03.104Z</time></trkpt><trkpt lat="43.5610533" lon="10.7488017"><ele>52.0</ele><time>2026-04-05T16:49:04.104Z</time></trkpt><trkpt lat="43.5611667" lon="10.7487717"><ele>52.0</ele><time>2026-04-05T16:49:05.104Z</time></trkpt><trkpt lat="43.5612833" lon="10.74875"><ele>52.0</ele><time>2026-04-05T16:49:06.104Z</time></trkpt><trkpt lat="43.5614083" lon="10.7487483"><ele>52.0</ele><time>2026-04-05T16:49:07.104Z</time></trkpt><trkpt lat="43.561535" lon="10.7487633"><ele>52.0</ele><time>2026-04-05T16:49:08.104Z</time></trkpt><trkpt lat="43.561665" lon="10.74879"><ele>52.0</ele><time>2026-04-05T16:49:09.104Z</time></trkpt><trkpt lat="43.5617917" lon="10.7488183"><ele>52.0</ele><time>2026-04-05T16:49:10.103Z</time></trkpt><trkpt lat="43.5619167" lon="10.7488417"><ele>52.0</ele><time>2026-04-05T16:49:11.104Z</time></trkpt><trkpt lat="43.5620383" lon="10.7488617"><ele>52.0</ele><time>2026-04-05T16:49:12.104Z</time></trkpt><trkpt lat="43.5621567" lon="10.748885"><ele>52.0</ele><time>2026-04-05T16:49:13.104Z</time></trkpt><trkpt lat="43.5622667" lon="10.7489067"><ele>52.0</ele><time>2026-04-05T16:49:14.104Z</time></trkpt><trkpt lat="43.5623733" lon="10.7489283"><ele>52.0</ele><time>2026-04-05T16:49:15.104Z</time></trkpt><trkpt lat="43.56247" lon="10.7489467"><ele>52.0</ele><time>2026-04-05T16:49:16.104Z</time></trkpt><trkpt lat="43.5625567" lon="10.7489517"><ele>51.99999999999999</ele><time>2026-04-05T16:49:17.104Z</time></trkpt><trkpt lat="43.56263" lon="10.7489533"><ele>52.0</ele><time>2026-04-05T16:49:18.104Z</time></trkpt><trkpt lat="43.562735" lon="10.748935"><ele>52.0</ele><time>2026-04-05T16:49:20.104Z</time></trkpt><trkpt lat="43.5628033" lon="10.7489017"><ele>52.0</ele><time>2026-04-05T16:49:22.104Z</time></trkpt><trkpt lat="43.5628583" lon="10.7488067"><ele>51.99999999999999</ele><time>2026-04-05T16:49:31.104Z</time></trkpt><trkpt lat="43.562835" lon="10.7486717"><ele>52.0</ele><time>2026-04-05T16:49:33.104Z</time></trkpt><trkpt lat="43.5628" lon="10.748575"><ele>52.2</ele><time>2026-04-05T16:49:34.104Z</time></trkpt><trkpt lat="43.5627567" lon="10.7484567"><ele>52.400000000000006</ele><time>2026-04-05T16:49:35.104Z</time></trkpt><trkpt lat="43.562705" lon="10.748335"><ele>52.599999999999994</ele><time>2026-04-05T16:49:36.104Z</time></trkpt><trkpt lat="43.5626567" lon="10.7482067"><ele>52.8</ele><time>2026-04-05T16:49:37.103Z</time></trkpt><trkpt lat="43.56261" lon="10.74806"><ele>53.0</ele><time>2026-04-05T16:49:38.104Z</time></trkpt><trkpt lat="43.5625617" lon="10.7479083"><ele>53.0</ele><time>2026-04-05T16:49:39.104Z</time></trkpt><trkpt lat="43.5625067" lon="10.747745"><ele>53.0</ele><time>2026-04-05T16:49:40.103Z</time></trkpt><trkpt lat="43.5624533" lon="10.7475767"><ele>53.0</ele><time>2026-04-05T16:49:41.103Z</time></trkpt><trkpt lat="43.5623983" lon="10.7474033"><ele>53.0</ele><time>2026-04-05T16:49:42.104Z</time></trkpt><trkpt lat="43.5623433" lon="10.7472217"><ele>52.75</ele><time>2026-04-05T16:49:43.103Z</time></trkpt><trkpt lat="43.562295" lon="10.7470317"><ele>52.5</ele><time>2026-04-05T16:49:44.104Z</time></trkpt><trkpt lat="43.5622517" lon="10.7468317"><ele>52.25</ele><time>2026-04-05T16:49:45.104Z</time></trkpt><trkpt lat="43.562215" lon="10.7466283"><ele>52.0</ele><time>2026-04-05T16:49:46.104Z</time></trkpt><trkpt lat="43.56219" lon="10.746415"><ele>52.666666666666664</ele><time>2026-04-05T16:49:47.104Z</time></trkpt><trkpt lat="43.562175" lon="10.7462017"><ele>53.33333333333333</ele><time>2026-04-05T16:49:48.103Z</time></trkpt><trkpt lat="43.562175" lon="10.7459883"><ele>54.0</ele><time>2026-04-05T16:49:49.104Z</time></trkpt><trkpt lat="43.5621767" lon="10.7457717"><ele>55.33333333333333</ele><time>2026-04-05T16:49:50.104Z</time></trkpt><trkpt lat="43.562185" lon="10.7455533"><ele>56.666666666666664</ele><time>2026-04-05T16:49:51.104Z</time></trkpt><trkpt lat="43.5622033" lon="10.745335"><ele>58.0</ele><time>2026-04-05T16:49:52.104Z</time></trkpt><trkpt lat="43.5622267" lon="10.7451167"><ele>58.0</ele><time>2026-04-05T16:49:53.104Z</time></trkpt><trkpt lat="43.5622617" lon="10.7449017"><ele>58.0</ele><time>2026-04-05T16:49:54.104Z</time></trkpt><trkpt lat="43.5623083" lon="10.74469"><ele>58.0</ele><time>2026-04-05T16:49:55.104Z</time></trkpt><trkpt lat="43.5623633" lon="10.744485"><ele>57.0</ele><time>2026-04-05T16:49:56.103Z</time></trkpt><trkpt lat="43.5624283" lon="10.7442867"><ele>56.0</ele><time>2026-04-05T16:49:57.104Z</time></trkpt><trkpt lat="43.562505" lon="10.7440967"><ele>55.0</ele><time>2026-04-05T16:49:58.104Z</time></trkpt><trkpt lat="43.56259" lon="10.7439067"><ele>55.0</ele><time>2026-04-05T16:49:59.104Z</time></trkpt><trkpt lat="43.5626833" lon="10.7437233"><ele>55.0</ele><time>2026-04-05T16:50:00.104Z</time></trkpt><trkpt lat="43.56278" lon="10.7435383"><ele>55.0</ele><time>2026-04-05T16:50:01.104Z</time></trkpt><trkpt lat="43.56288" lon="10.743355"><ele>56.0</ele><time>2026-04-05T16:50:02.104Z</time></trkpt><trkpt lat="43.5629817" lon="10.7431683"><ele>57.0</ele><time>2026-04-05T16:50:03.104Z</time></trkpt><trkpt lat="43.5630817" lon="10.74298"><ele>58.0</ele><time>2026-04-05T16:50:04.104Z</time></trkpt><trkpt lat="43.5631867" lon="10.742785"><ele>57.0</ele><time>2026-04-05T16:50:05.104Z</time></trkpt><trkpt lat="43.563295" lon="10.7425967"><ele>56.0</ele><time>2026-04-05T16:50:06.104Z</time></trkpt><trkpt lat="43.5634017" lon="10.7424083"><ele>55.0</ele><time>2026-04-05T16:50:07.104Z</time></trkpt><trkpt lat="43.5635083" lon="10.7422217"><ele>55.0</ele><time>2026-04-05T16:50:08.104Z</time></trkpt><trkpt lat="43.563615" lon="10.7420333"><ele>55.0</ele><time>2026-04-05T16:50:09.104Z</time></trkpt><trkpt lat="43.5637217" lon="10.7418483"><ele>55.0</ele><time>2026-04-05T16:50:10.104Z</time></trkpt><trkpt lat="43.5638283" lon="10.7416583"><ele>55.666666666666664</ele><time>2026-04-05T16:50:11.104Z</time></trkpt><trkpt lat="43.563935" lon="10.7414683"><ele>56.33333333333333</ele><time>2026-04-05T16:50:12.104Z</time></trkpt><trkpt lat="43.5640383" lon="10.7412783"><ele>57.0</ele><time>2026-04-05T16:50:13.104Z</time></trkpt><trkpt lat="43.5641417" lon="10.7410933"><ele>55.0</ele><time>2026-04-05T16:50:14.104Z</time></trkpt><trkpt lat="43.5642417" lon="10.740915"><ele>53.0</ele><time>2026-04-05T16:50:15.104Z</time></trkpt><trkpt lat="43.5643383" lon="10.74074"><ele>51.0</ele><time>2026-04-05T16:50:16.104Z</time></trkpt><trkpt lat="43.5644317" lon="10.74057"><ele>51.0</ele><time>2026-04-05T16:50:17.104Z</time></trkpt><trkpt lat="43.5645267" lon="10.7404017"><ele>51.0</ele><time>2026-04-05T16:50:18.104Z</time></trkpt><trkpt lat="43.5646183" lon="10.7402383"><ele>51.0</ele><time>2026-04-05T16:50:19.104Z</time></trkpt><trkpt lat="43.5647067" lon="10.7400783"><ele>51.5</ele><time>2026-04-05T16:50:20.104Z</time></trkpt><trkpt lat="43.5647917" lon="10.7399233"><ele>52.0</ele><time>2026-04-05T16:50:21.104Z</time></trkpt><trkpt lat="43.564875" lon="10.739775"><ele>52.5</ele><time>2026-04-05T16:50:22.104Z</time></trkpt><trkpt lat="43.564955" lon="10.739635"><ele>53.0</ele><time>2026-04-05T16:50:23.104Z</time></trkpt><trkpt lat="43.5650233" lon="10.7395133"><ele>53.0</ele><time>2026-04-05T16:50:24.104Z</time></trkpt><trkpt lat="43.565075" lon="10.7394083"><ele>53.0</ele><time>2026-04-05T16:50:25.104Z</time></trkpt><trkpt lat="43.56511" lon="10.7393183"><ele>53.0</ele><time>2026-04-05T16:50:26.103Z</time></trkpt><trkpt lat="43.5651017" lon="10.7391583"><ele>53.0</ele><time>2026-04-05T16:50:28.104Z</time></trkpt><trkpt lat="43.565035" lon="10.739035"><ele>53.0</ele><time>2026-04-05T16:50:30.104Z</time></trkpt><trkpt lat="43.56497" lon="10.738955"><ele>52.5</ele><time>2026-04-05T16:50:31.104Z</time></trkpt><trkpt lat="43.5648917" lon="10.7388583"><ele>52.0</ele><time>2026-04-05T16:50:32.104Z</time></trkpt><trkpt lat="43.5648133" lon="10.7387517"><ele>51.5</ele><time>2026-04-05T16:50:33.103Z</time></trkpt><trkpt lat="43.5647367" lon="10.7386317"><ele>51.0</ele><time>2026-04-05T16:50:34.104Z</time></trkpt><trkpt lat="43.564665" lon="10.7384967"><ele>50.5</ele><time>2026-04-05T16:50:35.104Z</time></trkpt><trkpt lat="43.5645967" lon="10.7383433"><ele>50.0</ele><time>2026-04-05T16:50:36.104Z</time></trkpt><trkpt lat="43.5645233" lon="10.738185"><ele>49.5</ele><time>2026-04-05T16:50:37.104Z</time></trkpt><trkpt lat="43.5644517" lon="10.73802"><ele>49.0</ele><time>2026-04-05T16:50:38.104Z</time></trkpt><trkpt lat="43.5643783" lon="10.7378533"><ele>48.75</ele><time>2026-04-05T16:50:39.104Z</time></trkpt><trkpt lat="43.5643117" lon="10.7376767"><ele>48.5</ele><time>2026-04-05T16:50:40.104Z</time></trkpt><trkpt lat="43.5642417" lon="10.7375"><ele>48.25</ele><time>2026-04-05T16:50:41.104Z</time></trkpt><trkpt lat="43.5641667" lon="10.7373183"><ele>48.0</ele><time>2026-04-05T16:50:42.104Z</time></trkpt><trkpt lat="43.56409" lon="10.7371383"><ele>48.0</ele><time>2026-04-05T16:50:43.104Z</time></trkpt><trkpt lat="43.5640117" lon="10.7369567"><ele>48.0</ele><time>2026-04-05T16:50:44.104Z</time></trkpt><trkpt lat="43.5639317" lon="10.7367733"><ele>48.0</ele><time>2026-04-05T16:50:45.104Z</time></trkpt><trkpt lat="43.5638517" lon="10.7365833"><ele>48.0</ele><time>2026-04-05T16:50:46.103Z</time></trkpt><trkpt lat="43.56377" lon="10.7363917"><ele>48.0</ele><time>2026-04-05T16:50:47.104Z</time></trkpt><trkpt lat="43.5636883" lon="10.7361983"><ele>48.0</ele><time>2026-04-05T16:50:48.104Z</time></trkpt><trkpt lat="43.563605" lon="10.7360033"><ele>47.666666666666664</ele><time>2026-04-05T16:50:49.104Z</time></trkpt><trkpt lat="43.5635217" lon="10.735805"><ele>47.33333333333333</ele><time>2026-04-05T16:50:50.104Z</time></trkpt><trkpt lat="43.56344" lon="10.73561"><ele>47.0</ele><time>2026-04-05T16:50:51.104Z</time></trkpt><trkpt lat="43.5633583" lon="10.7354167"><ele>47.0</ele><time>2026-04-05T16:50:52.103Z</time></trkpt><trkpt lat="43.563275" lon="10.7352233"><ele>47.0</ele><time>2026-04-05T16:50:53.104Z</time></trkpt><trkpt lat="43.5631917" lon="10.73503"><ele>47.0</ele><time>2026-04-05T16:50:54.104Z</time></trkpt><trkpt lat="43.563105" lon="10.734835"><ele>47.0</ele><time>2026-04-05T16:50:55.104Z</time></trkpt><trkpt lat="43.5630133" lon="10.7346317"><ele>47.0</ele><time>2026-04-05T16:50:56.104Z</time></trkpt><trkpt lat="43.562915" lon="10.7344367"><ele>47.0</ele><time>2026-04-05T16:50:57.104Z</time></trkpt><trkpt lat="43.5628067" lon="10.7342467"><ele>47.0</ele><time>2026-04-05T16:50:58.104Z</time></trkpt><trkpt lat="43.5626933" lon="10.7340667"><ele>47.0</ele><time>2026-04-05T16:50:59.104Z</time></trkpt><trkpt lat="43.5625817" lon="10.7338883"><ele>47.0</ele><time>2026-04-05T16:51:00.104Z</time></trkpt><trkpt lat="43.56247" lon="10.7337117"><ele>47.0</ele><time>2026-04-05T16:51:01.104Z</time></trkpt><trkpt lat="43.56236" lon="10.7335317"><ele>47.0</ele><time>2026-04-05T16:51:02.104Z</time></trkpt><trkpt lat="43.5622467" lon="10.733355"><ele>47.0</ele><time>2026-04-05T16:51:03.104Z</time></trkpt><trkpt lat="43.5621367" lon="10.7331717"><ele>46.666666666666664</ele><time>2026-04-05T16:51:04.104Z</time></trkpt><trkpt lat="43.5620283" lon="10.732995"><ele>46.333333333333336</ele><time>2026-04-05T16:51:05.104Z</time></trkpt><trkpt lat="43.5619183" lon="10.73283"><ele>46.0</ele><time>2026-04-05T16:51:06.103Z</time></trkpt><trkpt lat="43.5618083" lon="10.73266"><ele>45.66666666666667</ele><time>2026-04-05T16:51:07.104Z</time></trkpt><trkpt lat="43.5617" lon="10.7324867"><ele>45.333333333333336</ele><time>2026-04-05T16:51:08.104Z</time></trkpt><trkpt lat="43.56159" lon="10.732315"><ele>45.0</ele><time>2026-04-05T16:51:09.103Z</time></trkpt><trkpt lat="43.5614783" lon="10.7321417"><ele>45.0</ele><time>2026-04-05T16:51:10.104Z</time></trkpt><trkpt lat="43.5613683" lon="10.7319683"><ele>45.0</ele><time>2026-04-05T16:51:11.104Z</time></trkpt><trkpt lat="43.5612583" lon="10.7317967"><ele>45.0</ele><time>2026-04-05T16:51:12.104Z</time></trkpt><trkpt lat="43.5611467" lon="10.7316267"><ele>45.666666666666664</ele><time>2026-04-05T16:51:13.104Z</time></trkpt><trkpt lat="43.561035" lon="10.73145"><ele>46.33333333333333</ele><time>2026-04-05T16:51:14.104Z</time></trkpt><trkpt lat="43.56092" lon="10.7312683"><ele>47.0</ele><time>2026-04-05T16:51:15.104Z</time></trkpt><trkpt lat="43.5608083" lon="10.7310817"><ele>46.33333333333333</ele><time>2026-04-05T16:51:16.104Z</time></trkpt><trkpt lat="43.560695" lon="10.7308983"><ele>45.666666666666664</ele><time>2026-04-05T16:51:17.103Z</time></trkpt><trkpt lat="43.5605817" lon="10.730715"><ele>45.0</ele><time>2026-04-05T16:51:18.104Z</time></trkpt><trkpt lat="43.5604683" lon="10.73053"><ele>45.0</ele><time>2026-04-05T16:51:19.104Z</time></trkpt><trkpt lat="43.5603533" lon="10.73035"><ele>45.0</ele><time>2026-04-05T16:51:20.104Z</time></trkpt><trkpt lat="43.56024" lon="10.7301683"><ele>45.0</ele><time>2026-04-05T16:51:21.104Z</time></trkpt><trkpt lat="43.5601283" lon="10.7299867"><ele>45.0</ele><time>2026-04-05T16:51:22.103Z</time></trkpt><trkpt lat="43.5600167" lon="10.7298067"><ele>45.0</ele><time>2026-04-05T16:51:23.104Z</time></trkpt><trkpt lat="43.5599067" lon="10.7296317"><ele>45.0</ele><time>2026-04-05T16:51:24.104Z</time></trkpt><trkpt lat="43.5597983" lon="10.7294583"><ele>45.0</ele><time>2026-04-05T16:51:25.104Z</time></trkpt><trkpt lat="43.5596917" lon="10.7292833"><ele>45.0</ele><time>2026-04-05T16:51:26.104Z</time></trkpt><trkpt lat="43.5595817" lon="10.7291117"><ele>45.0</ele><time>2026-04-05T16:51:27.104Z</time></trkpt><trkpt lat="43.559475" lon="10.7289383"><ele>45.666666666666664</ele><time>2026-04-05T16:51:28.104Z</time></trkpt><trkpt lat="43.5593683" lon="10.7287717"><ele>46.33333333333333</ele><time>2026-04-05T16:51:29.104Z</time></trkpt><trkpt lat="43.559265" lon="10.728605"><ele>47.0</ele><time>2026-04-05T16:51:30.104Z</time></trkpt><trkpt lat="43.5591567" lon="10.7284467"><ele>47.0</ele><time>2026-04-05T16:51:31.104Z</time></trkpt><trkpt lat="43.5590517" lon="10.72828"><ele>47.0</ele><time>2026-04-05T16:51:32.104Z</time></trkpt><trkpt lat="43.5589417" lon="10.72811"><ele>47.0</ele><time>2026-04-05T16:51:33.104Z</time></trkpt><trkpt lat="43.5588317" lon="10.7279367"><ele>47.0</ele><time>2026-04-05T16:51:34.104Z</time></trkpt><trkpt lat="43.5587217" lon="10.72776"><ele>47.0</ele><time>2026-04-05T16:51:35.104Z</time></trkpt><trkpt lat="43.5586083" lon="10.7275867"><ele>47.0</ele><time>2026-04-05T16:51:36.104Z</time></trkpt><trkpt lat="43.5584967" lon="10.72741"><ele>47.0</ele><time>2026-04-05T16:51:37.104Z</time></trkpt><trkpt lat="43.5583817" lon="10.72723"><ele>47.0</ele><time>2026-04-05T16:51:38.103Z</time></trkpt><trkpt lat="43.558265" lon="10.72705"><ele>47.0</ele><time>2026-04-05T16:51:39.104Z</time></trkpt><trkpt lat="43.5581517" lon="10.7268717"><ele>47.33333333333333</ele><time>2026-04-05T16:51:40.104Z</time></trkpt><trkpt lat="43.55804" lon="10.72669"><ele>47.666666666666664</ele><time>2026-04-05T16:51:41.104Z</time></trkpt><trkpt lat="43.55793" lon="10.7265117"><ele>48.0</ele><time>2026-04-05T16:51:42.103Z</time></trkpt><trkpt lat="43.55782" lon="10.7263367"><ele>48.0</ele><time>2026-04-05T16:51:43.104Z</time></trkpt><trkpt lat="43.5577117" lon="10.7261633"><ele>48.0</ele><time>2026-04-05T16:51:44.104Z</time></trkpt><trkpt lat="43.5576067" lon="10.7259917"><ele>48.0</ele><time>2026-04-05T16:51:45.104Z</time></trkpt><trkpt lat="43.5575033" lon="10.7258217"><ele>48.66666666666667</ele><time>2026-04-05T16:51:46.104Z</time></trkpt><trkpt lat="43.5573917" lon="10.7256583"><ele>49.333333333333336</ele><time>2026-04-05T16:51:47.104Z</time></trkpt><trkpt lat="43.55727" lon="10.7255083"><ele>50.0</ele><time>2026-04-05T16:51:48.104Z</time></trkpt><trkpt lat="43.5571317" lon="10.7253833"><ele>50.66666666666667</ele><time>2026-04-05T16:51:49.104Z</time></trkpt><trkpt lat="43.55698" lon="10.7252817"><ele>51.33333333333333</ele><time>2026-04-05T16:51:50.103Z</time></trkpt><trkpt lat="43.5568217" lon="10.7251983"><ele>52.0</ele><time>2026-04-05T16:51:51.104Z</time></trkpt><trkpt lat="43.5566567" lon="10.725125"><ele>56.33333333333333</ele><time>2026-04-05T16:51:52.104Z</time></trkpt><trkpt lat="43.5564867" lon="10.7250633"><ele>60.66666666666667</ele><time>2026-04-05T16:51:53.104Z</time></trkpt><trkpt lat="43.556315" lon="10.7250067"><ele>65.0</ele><time>2026-04-05T16:51:54.104Z</time></trkpt><trkpt lat="43.5561433" lon="10.7249533"><ele>65.66666666666667</ele><time>2026-04-05T16:51:55.104Z</time></trkpt><trkpt lat="43.555975" lon="10.7249033"><ele>66.33333333333333</ele><time>2026-04-05T16:51:56.104Z</time></trkpt><trkpt lat="43.5558067" lon="10.7248633"><ele>67.0</ele><time>2026-04-05T16:51:57.103Z</time></trkpt><trkpt lat="43.55564" lon="10.724845"><ele>67.0</ele><time>2026-04-05T16:51:58.103Z</time></trkpt><trkpt lat="43.555475" lon="10.7248333"><ele>67.0</ele><time>2026-04-05T16:51:59.104Z</time></trkpt><trkpt lat="43.55531" lon="10.72483"><ele>67.0</ele><time>2026-04-05T16:52:00.104Z</time></trkpt><trkpt lat="43.5551467" lon="10.7248333"><ele>68.66666666666666</ele><time>2026-04-05T16:52:01.104Z</time></trkpt><trkpt lat="43.5549817" lon="10.7248433"><ele>70.33333333333333</ele><time>2026-04-05T16:52:02.104Z</time></trkpt><trkpt lat="43.5548167" lon="10.7248483"><ele>72.0</ele><time>2026-04-05T16:52:03.104Z</time></trkpt><trkpt lat="43.5546517" lon="10.724855"><ele>75.0</ele><time>2026-04-05T16:52:04.104Z</time></trkpt><trkpt lat="43.5544817" lon="10.7248717"><ele>78.0</ele><time>2026-04-05T16:52:05.104Z</time></trkpt><trkpt lat="43.5543117" lon="10.7248767"><ele>81.0</ele><time>2026-04-05T16:52:06.104Z</time></trkpt><trkpt lat="43.5541417" lon="10.72487"><ele>81.0</ele><time>2026-04-05T16:52:07.104Z</time></trkpt><trkpt lat="43.55397" lon="10.7248533"><ele>81.0</ele><time>2026-04-05T16:52:08.104Z</time></trkpt><trkpt lat="43.5537983" lon="10.72482"><ele>81.0</ele><time>2026-04-05T16:52:09.104Z</time></trkpt><trkpt lat="43.55363" lon="10.724775"><ele>82.66666666666667</ele><time>2026-04-05T16:52:10.104Z</time></trkpt><trkpt lat="43.553465" lon="10.7247283"><ele>84.33333333333334</ele><time>2026-04-05T16:52:11.104Z</time></trkpt><trkpt lat="43.5533" lon="10.7246867"><ele>86.0</ele><time>2026-04-05T16:52:12.104Z</time></trkpt><trkpt lat="43.5531383" lon="10.72464"><ele>86.0</ele><time>2026-04-05T16:52:13.104Z</time></trkpt><trkpt lat="43.5529783" lon="10.7245967"><ele>86.0</ele><time>2026-04-05T16:52:14.104Z</time></trkpt><trkpt lat="43.552825" lon="10.7245467"><ele>86.0</ele><time>2026-04-05T16:52:15.104Z</time></trkpt><trkpt lat="43.5526717" lon="10.72451"><ele>88.25</ele><time>2026-04-05T16:52:16.104Z</time></trkpt><trkpt lat="43.5525233" lon="10.7244783"><ele>90.5</ele><time>2026-04-05T16:52:17.104Z</time></trkpt><trkpt lat="43.55238" lon="10.7244667"><ele>92.75</ele><time>2026-04-05T16:52:18.104Z</time></trkpt><trkpt lat="43.5522433" lon="10.7244783"><ele>95.0</ele><time>2026-04-05T16:52:19.104Z</time></trkpt><trkpt lat="43.552105" lon="10.7244917"><ele>96.5</ele><time>2026-04-05T16:52:20.104Z</time></trkpt><trkpt lat="43.5519633" lon="10.7245"><ele>98.0</ele><time>2026-04-05T16:52:21.104Z</time></trkpt><trkpt lat="43.551825" lon="10.7245017"><ele>99.5</ele><time>2026-04-05T16:52:22.104Z</time></trkpt><trkpt lat="43.551685" lon="10.72448"><ele>101.0</ele><time>2026-04-05T16:52:23.104Z</time></trkpt><trkpt lat="43.55155" lon="10.7244417"><ele>104.75</ele><time>2026-04-05T16:52:24.104Z</time></trkpt><trkpt lat="43.5514117" lon="10.7243883"><ele>108.5</ele><time>2026-04-05T16:52:25.104Z</time></trkpt><trkpt lat="43.5512733" lon="10.7243367"><ele>112.25</ele><time>2026-04-05T16:52:26.104Z</time></trkpt><trkpt lat="43.5511367" lon="10.7242933"><ele>116.0</ele><time>2026-04-05T16:52:27.104Z</time></trkpt><trkpt lat="43.5509933" lon="10.7242567"><ele>118.5</ele><time>2026-04-05T16:52:28.104Z</time></trkpt><trkpt lat="43.550855" lon="10.7242233"><ele>121.0</ele><time>2026-04-05T16:52:29.104Z</time></trkpt><trkpt lat="43.5507183" lon="10.7241967"><ele>123.5</ele><time>2026-04-05T16:52:30.104Z</time></trkpt><trkpt lat="43.55059" lon="10.7241783"><ele>126.0</ele><time>2026-04-05T16:52:31.104Z</time></trkpt><trkpt lat="43.5504717" lon="10.7241567"><ele>125.19999999999999</ele><time>2026-04-05T16:52:32.104Z</time></trkpt><trkpt lat="43.5503633" lon="10.72412"><ele>124.39999999999999</ele><time>2026-04-05T16:52:33.104Z</time></trkpt><trkpt lat="43.5502733" lon="10.7240533"><ele>123.6</ele><time>2026-04-05T16:52:34.104Z</time></trkpt><trkpt lat="43.5501917" lon="10.7239717"><ele>122.8</ele><time>2026-04-05T16:52:35.104Z</time></trkpt><trkpt lat="43.5501217" lon="10.723875"><ele>122.0</ele><time>2026-04-05T16:52:36.104Z</time></trkpt><trkpt lat="43.55006" lon="10.7237683"><ele>122.0</ele><time>2026-04-05T16:52:37.104Z</time></trkpt><trkpt lat="43.5500183" lon="10.7236517"><ele>121.99999999999999</ele><time>2026-04-05T16:52:38.104Z</time></trkpt><trkpt lat="43.5499867" lon="10.7235133"><ele>121.99999999999999</ele><time>2026-04-05T16:52:39.104Z</time></trkpt><trkpt lat="43.549975" lon="10.7233667"><ele>122.0</ele><time>2026-04-05T16:52:40.104Z</time></trkpt><trkpt lat="43.5499383" lon="10.7232117"><ele>122.0</ele><time>2026-04-05T16:52:41.104Z</time></trkpt><trkpt lat="43.5498917" lon="10.723065"><ele>124.19999999999999</ele><time>2026-04-05T16:52:42.104Z</time></trkpt><trkpt lat="43.5498583" lon="10.722915"><ele>126.39999999999999</ele><time>2026-04-05T16:52:43.104Z</time></trkpt><trkpt lat="43.54984" lon="10.7227733"><ele>128.60000000000002</ele><time>2026-04-05T16:52:44.104Z</time></trkpt><trkpt lat="43.5498433" lon="10.722635"><ele>130.8</ele><time>2026-04-05T16:52:45.104Z</time></trkpt><trkpt lat="43.5498433" lon="10.7224967"><ele>133.0</ele><time>2026-04-05T16:52:46.104Z</time></trkpt><trkpt lat="43.5498283" lon="10.7223667"><ele>133.14285714285714</ele><time>2026-04-05T16:52:47.104Z</time></trkpt><trkpt lat="43.5498017" lon="10.7222483"><ele>133.28571428571428</ele><time>2026-04-05T16:52:48.104Z</time></trkpt><trkpt lat="43.549775" lon="10.722145"><ele>133.42857142857144</ele><time>2026-04-05T16:52:49.104Z</time></trkpt><trkpt lat="43.5497467" lon="10.7220583"><ele>133.57142857142856</ele><time>2026-04-05T16:52:50.104Z</time></trkpt><trkpt lat="43.549725" lon="10.7219717"><ele>133.71428571428572</ele><time>2026-04-05T16:52:51.104Z</time></trkpt><trkpt lat="43.5496983" lon="10.721885"><ele>133.85714285714286</ele><time>2026-04-05T16:52:52.104Z</time></trkpt><trkpt lat="43.5496733" lon="10.7217983"><ele>134.0</ele><time>2026-04-05T16:52:53.104Z</time></trkpt><trkpt lat="43.549655" lon="10.7217083"><ele>134.0</ele><time>2026-04-05T16:52:54.104Z</time></trkpt><trkpt lat="43.5496267" lon="10.7215633"><ele>134.0</ele><time>2026-04-05T16:52:56.104Z</time></trkpt><trkpt lat="43.5496183" lon="10.7214667"><ele>134.0</ele><time>2026-04-05T16:52:58.104Z</time></trkpt><trkpt lat="43.5496283" lon="10.721365"><ele>134.0</ele><time>2026-04-05T16:53:02.104Z</time></trkpt><trkpt lat="43.5496467" lon="10.7212667"><ele>134.0</ele><time>2026-04-05T16:53:06.103Z</time></trkpt><trkpt lat="43.549675" lon="10.7211317"><ele>134.0</ele><time>2026-04-05T16:53:09.104Z</time></trkpt><trkpt lat="43.5496817" lon="10.721005"><ele>133.0</ele><time>2026-04-05T16:53:11.104Z</time></trkpt><trkpt lat="43.5497" lon="10.720905"><ele>132.0</ele><time>2026-04-05T16:53:13.104Z</time></trkpt><trkpt lat="43.5497083" lon="10.720805"><ele>131.0</ele><time>2026-04-05T16:53:15.104Z</time></trkpt><trkpt lat="43.5497133" lon="10.720675"><ele>130.0</ele><time>2026-04-05T16:53:17.104Z</time></trkpt><trkpt lat="43.5497233" lon="10.72051"><ele>129.0</ele><time>2026-04-05T16:53:19.104Z</time></trkpt><trkpt lat="43.5497267" lon="10.7204217"><ele>128.0</ele><time>2026-04-05T16:53:20.104Z</time></trkpt><trkpt lat="43.5497233" lon="10.7203317"><ele>127.0</ele><time>2026-04-05T16:53:21.104Z</time></trkpt><trkpt lat="43.5496917" lon="10.72017"><ele>126.00000000000001</ele><time>2026-04-05T16:53:23.104Z</time></trkpt><trkpt lat="43.5496417" lon="10.720035"><ele>125.00000000000001</ele><time>2026-04-05T16:53:25.104Z</time></trkpt><trkpt lat="43.5495833" lon="10.7199317"><ele>124.0</ele><time>2026-04-05T16:53:27.104Z</time></trkpt><trkpt lat="43.5495433" lon="10.719835"><ele>123.0</ele><time>2026-04-05T16:53:29.104Z</time></trkpt><trkpt lat="43.5495417" lon="10.7197367"><ele>123.0</ele><time>2026-04-05T16:53:31.104Z</time></trkpt><trkpt lat="43.5495917" lon="10.7196517"><ele>123.0</ele><time>2026-04-05T16:53:33.104Z</time></trkpt><trkpt lat="43.54969" lon="10.71964"><ele>123.0</ele><time>2026-04-05T16:53:35.104Z</time></trkpt><trkpt lat="43.5498067" lon="10.7197033"><ele>123.0</ele><time>2026-04-05T16:53:37.104Z</time></trkpt><trkpt lat="43.5498683" lon="10.719735"><ele>123.0</ele><time>2026-04-05T16:53:38.104Z</time></trkpt><trkpt lat="43.5499283" lon="10.719765"><ele>123.0</ele><time>2026-04-05T16:53:39.104Z</time></trkpt><trkpt lat="43.5500367" lon="10.7198017"><ele>123.0</ele><time>2026-04-05T16:53:41.104Z</time></trkpt><trkpt lat="43.55015" lon="10.71975"><ele>123.0</ele><time>2026-04-05T16:53:43.104Z</time></trkpt><trkpt lat="43.5502" lon="10.71968"><ele>123.0</ele><time>2026-04-05T16:53:44.104Z</time></trkpt><trkpt lat="43.55024" lon="10.7196033"><ele>123.0</ele><time>2026-04-05T16:53:45.104Z</time></trkpt><trkpt lat="43.5502783" lon="10.7195133"><ele>123.0</ele><time>2026-04-05T16:53:46.104Z</time></trkpt><trkpt lat="43.5503167" lon="10.719415"><ele>123.0</ele><time>2026-04-05T16:53:47.104Z</time></trkpt><trkpt lat="43.55036" lon="10.7193117"><ele>120.4</ele><time>2026-04-05T16:53:48.103Z</time></trkpt><trkpt lat="43.5504083" lon="10.7192067"><ele>117.80000000000001</ele><time>2026-04-05T16:53:49.104Z</time></trkpt><trkpt lat="43.5504617" lon="10.7191"><ele>115.2</ele><time>2026-04-05T16:53:50.104Z</time></trkpt><trkpt lat="43.5505167" lon="10.7189967"><ele>112.6</ele><time>2026-04-05T16:53:51.104Z</time></trkpt><trkpt lat="43.5505767" lon="10.7188917"><ele>110.0</ele><time>2026-04-05T16:53:52.104Z</time></trkpt><trkpt lat="43.55064" lon="10.7187883"><ele>110.0</ele><time>2026-04-05T16:53:53.104Z</time></trkpt><trkpt lat="43.55071" lon="10.7186917"><ele>110.0</ele><time>2026-04-05T16:53:54.104Z</time></trkpt><trkpt lat="43.5507867" lon="10.7185983"><ele>110.0</ele><time>2026-04-05T16:53:55.104Z</time></trkpt><trkpt lat="43.5508667" lon="10.718505"><ele>110.0</ele><time>2026-04-05T16:53:56.104Z</time></trkpt><trkpt lat="43.5509467" lon="10.718415"><ele>110.0</ele><time>2026-04-05T16:53:57.104Z</time></trkpt><trkpt lat="43.5510283" lon="10.718325"><ele>109.2</ele><time>2026-04-05T16:53:58.104Z</time></trkpt><trkpt lat="43.5511117" lon="10.7182383"><ele>108.4</ele><time>2026-04-05T16:53:59.104Z</time></trkpt><trkpt lat="43.551195" lon="10.7181533"><ele>107.6</ele><time>2026-04-05T16:54:00.104Z</time></trkpt><trkpt lat="43.5512817" lon="10.7180783"><ele>106.8</ele><time>2026-04-05T16:54:01.104Z</time></trkpt><trkpt lat="43.551365" lon="10.718015"><ele>106.0</ele><time>2026-04-05T16:54:02.104Z</time></trkpt><trkpt lat="43.551475" lon="10.7179917"><ele>105.4</ele><time>2026-04-05T16:54:03.104Z</time></trkpt><trkpt lat="43.5515767" lon="10.717965"><ele>104.8</ele><time>2026-04-05T16:54:04.104Z</time></trkpt><trkpt lat="43.5516783" lon="10.7179417"><ele>104.2</ele><time>2026-04-05T16:54:05.104Z</time></trkpt><trkpt lat="43.5517833" lon="10.7179233"><ele>103.60000000000001</ele><time>2026-04-05T16:54:06.104Z</time></trkpt><trkpt lat="43.55189" lon="10.71791"><ele>103.0</ele><time>2026-04-05T16:54:07.104Z</time></trkpt><trkpt lat="43.5519967" lon="10.7178933"><ele>102.2</ele><time>2026-04-05T16:54:08.104Z</time></trkpt><trkpt lat="43.5521033" lon="10.7178733"><ele>101.4</ele><time>2026-04-05T16:54:09.104Z</time></trkpt><trkpt lat="43.5522133" lon="10.7178517"><ele>100.60000000000001</ele><time>2026-04-05T16:54:10.104Z</time></trkpt><trkpt lat="43.5523267" lon="10.717845"><ele>99.80000000000001</ele><time>2026-04-05T16:54:11.104Z</time></trkpt><trkpt lat="43.55244" lon="10.717855"><ele>99.0</ele><time>2026-04-05T16:54:12.104Z</time></trkpt><trkpt lat="43.55255" lon="10.7178783"><ele>99.0</ele><time>2026-04-05T16:54:13.104Z</time></trkpt><trkpt lat="43.5526583" lon="10.7179133"><ele>99.0</ele><time>2026-04-05T16:54:14.104Z</time></trkpt><trkpt lat="43.5527717" lon="10.71794"><ele>99.0</ele><time>2026-04-05T16:54:15.104Z</time></trkpt><trkpt lat="43.552885" lon="10.7179567"><ele>99.0</ele><time>2026-04-05T16:54:16.103Z</time></trkpt><trkpt lat="43.5530017" lon="10.7179633"><ele>98.5</ele><time>2026-04-05T16:54:17.104Z</time></trkpt><trkpt lat="43.5531233" lon="10.71796"><ele>98.0</ele><time>2026-04-05T16:54:18.104Z</time></trkpt><trkpt lat="43.5532467" lon="10.7179633"><ele>97.5</ele><time>2026-04-05T16:54:19.104Z</time></trkpt><trkpt lat="43.553375" lon="10.7179633"><ele>97.0</ele><time>2026-04-05T16:54:20.104Z</time></trkpt><trkpt lat="43.5534983" lon="10.7179483"><ele>97.0</ele><time>2026-04-05T16:54:21.103Z</time></trkpt><trkpt lat="43.5536217" lon="10.7179267"><ele>97.0</ele><time>2026-04-05T16:54:22.104Z</time></trkpt><trkpt lat="43.5537467" lon="10.7179017"><ele>97.0</ele><time>2026-04-05T16:54:23.104Z</time></trkpt><trkpt lat="43.55387" lon="10.71787"><ele>97.0</ele><time>2026-04-05T16:54:24.104Z</time></trkpt><trkpt lat="43.55399" lon="10.7178283"><ele>98.0</ele><time>2026-04-05T16:54:25.104Z</time></trkpt><trkpt lat="43.5541067" lon="10.7177817"><ele>99.0</ele><time>2026-04-05T16:54:26.104Z</time></trkpt><trkpt lat="43.554225" lon="10.717745"><ele>100.0</ele><time>2026-04-05T16:54:27.104Z</time></trkpt><trkpt lat="43.5543417" lon="10.717715"><ele>101.0</ele><time>2026-04-05T16:54:28.104Z</time></trkpt><trkpt lat="43.5544567" lon="10.7176967"><ele>98.99999999999999</ele><time>2026-04-05T16:54:29.104Z</time></trkpt><trkpt lat="43.5545683" lon="10.717675"><ele>97.0</ele><time>2026-04-05T16:54:30.104Z</time></trkpt><trkpt lat="43.5546633" lon="10.7176383"><ele>95.0</ele><time>2026-04-05T16:54:31.104Z</time></trkpt><trkpt lat="43.5547367" lon="10.7175817"><ele>93.0</ele><time>2026-04-05T16:54:32.104Z</time></trkpt><trkpt lat="43.554805" lon="10.7175283"><ele>91.0</ele><time>2026-04-05T16:54:33.104Z</time></trkpt><trkpt lat="43.554855" lon="10.7174567"><ele>89.0</ele><time>2026-04-05T16:54:34.104Z</time></trkpt><trkpt lat="43.5548667" lon="10.7173517"><ele>89.0</ele><time>2026-04-05T16:54:35.104Z</time></trkpt><trkpt lat="43.5547783" lon="10.7172183"><ele>89.0</ele><time>2026-04-05T16:54:36.104Z</time></trkpt><trkpt lat="43.5547017" lon="10.71711"><ele>89.0</ele><time>2026-04-05T16:54:37.104Z</time></trkpt><trkpt lat="43.55462" lon="10.7170033"><ele>89.0</ele><time>2026-04-05T16:54:38.104Z</time></trkpt><trkpt lat="43.55454" lon="10.7168917"><ele>90.75</ele><time>2026-04-05T16:54:39.104Z</time></trkpt><trkpt lat="43.5544583" lon="10.7167817"><ele>92.5</ele><time>2026-04-05T16:54:40.104Z</time></trkpt><trkpt lat="43.55438" lon="10.71665"><ele>94.25</ele><time>2026-04-05T16:54:41.104Z</time></trkpt><trkpt lat="43.55431" lon="10.7165133"><ele>96.0</ele><time>2026-04-05T16:54:42.104Z</time></trkpt><trkpt lat="43.5542483" lon="10.716375"><ele>52.0</ele><time>2026-04-05T16:54:43.104Z</time></trkpt><trkpt lat="43.5579783" lon="10.7160367"><ele>52.0</ele><time>2026-04-05T16:55:21.104Z</time></trkpt><trkpt lat="43.558115" lon="10.716005"><ele>52.0</ele><time>2026-04-05T16:55:22.104Z</time></trkpt><trkpt lat="43.55825" lon="10.715965"><ele>52.0</ele><time>2026-04-05T16:55:23.104Z</time></trkpt><trkpt lat="43.5583917" lon="10.71593"><ele>52.0</ele><time>2026-04-05T16:55:24.104Z</time></trkpt><trkpt lat="43.5585217" lon="10.715875"><ele>52.0</ele><time>2026-04-05T16:55:25.104Z</time></trkpt><trkpt lat="43.5586483" lon="10.7158117"><ele>52.0</ele><time>2026-04-05T16:55:26.104Z</time></trkpt><trkpt lat="43.5587733" lon="10.715745"><ele>52.0</ele><time>2026-04-05T16:55:27.104Z</time></trkpt><trkpt lat="43.5588967" lon="10.7156617"><ele>52.0</ele><time>2026-04-05T16:55:28.104Z</time></trkpt><trkpt lat="43.5590083" lon="10.7155567"><ele>51.75</ele><time>2026-04-05T16:55:29.104Z</time></trkpt><trkpt lat="43.559105" lon="10.7154267"><ele>51.5</ele><time>2026-04-05T16:55:30.104Z</time></trkpt><trkpt lat="43.559175" lon="10.7152667"><ele>51.25</ele><time>2026-04-05T16:55:31.104Z</time></trkpt><trkpt lat="43.5592283" lon="10.7150917"><ele>51.0</ele><time>2026-04-05T16:55:32.104Z</time></trkpt><trkpt lat="43.55927" lon="10.7149133"><ele>49.75</ele><time>2026-04-05T16:55:33.104Z</time></trkpt><trkpt lat="43.5593067" lon="10.7147333"><ele>48.5</ele><time>2026-04-05T16:55:34.104Z</time></trkpt><trkpt lat="43.55934" lon="10.714545"><ele>47.25</ele><time>2026-04-05T16:55:35.104Z</time></trkpt><trkpt lat="43.5593783" lon="10.7143533"><ele>46.0</ele><time>2026-04-05T16:55:36.104Z</time></trkpt><trkpt lat="43.55942" lon="10.7141717"><ele>45.333333333333336</ele><time>2026-04-05T16:55:37.104Z</time></trkpt><trkpt lat="43.5594717" lon="10.713995"><ele>44.666666666666664</ele><time>2026-04-05T16:55:38.104Z</time></trkpt><trkpt lat="43.5595317" lon="10.7138217"><ele>44.0</ele><time>2026-04-05T16:55:39.104Z</time></trkpt><trkpt lat="43.55966" lon="10.7134817"><ele>43.75</ele><time>2026-04-05T16:55:41.104Z</time></trkpt><trkpt lat="43.5597233" lon="10.71332"><ele>43.5</ele><time>2026-04-05T16:55:42.103Z</time></trkpt><trkpt lat="43.5597917" lon="10.7131717"><ele>43.25</ele><time>2026-04-05T16:55:43.104Z</time></trkpt><trkpt lat="43.5598717" lon="10.7130367"><ele>43.0</ele><time>2026-04-05T16:55:44.104Z</time></trkpt><trkpt lat="43.5599517" lon="10.7129133"><ele>43.0</ele><time>2026-04-05T16:55:45.104Z</time></trkpt><trkpt lat="43.56004" lon="10.712815"><ele>43.0</ele><time>2026-04-05T16:55:46.104Z</time></trkpt><trkpt lat="43.5601283" lon="10.712725"><ele>43.0</ele><time>2026-04-05T16:55:47.104Z</time></trkpt><trkpt lat="43.560215" lon="10.7126433"><ele>43.0</ele><time>2026-04-05T16:55:48.104Z</time></trkpt><trkpt lat="43.5602967" lon="10.71256"><ele>43.0</ele><time>2026-04-05T16:55:49.104Z</time></trkpt><trkpt lat="43.56044" lon="10.7123233"><ele>43.0</ele><time>2026-04-05T16:55:52.103Z</time></trkpt><trkpt lat="43.5604717" lon="10.7122083"><ele>43.0</ele><time>2026-04-05T16:55:54.104Z</time></trkpt><trkpt lat="43.5603817" lon="10.7121117"><ele>43.0</ele><time>2026-04-05T16:55:57.104Z</time></trkpt><trkpt lat="43.5602517" lon="10.7121"><ele>43.0</ele><time>2026-04-05T16:55:59.104Z</time></trkpt><trkpt lat="43.56017" lon="10.7121183"><ele>43.0</ele><time>2026-04-05T16:56:00.104Z</time></trkpt><trkpt lat="43.55997" lon="10.712145"><ele>43.25</ele><time>2026-04-05T16:56:02.104Z</time></trkpt><trkpt lat="43.5598633" lon="10.712155"><ele>43.5</ele><time>2026-04-05T16:56:03.104Z</time></trkpt><trkpt lat="43.55975" lon="10.712165"><ele>43.75</ele><time>2026-04-05T16:56:04.104Z</time></trkpt><trkpt lat="43.5596317" lon="10.7121733"><ele>44.0</ele><time>2026-04-05T16:56:05.104Z</time></trkpt><trkpt lat="43.5595117" lon="10.71218"><ele>44.0</ele><time>2026-04-05T16:56:06.104Z</time></trkpt><trkpt lat="43.559385" lon="10.7121833"><ele>44.0</ele><time>2026-04-05T16:56:07.104Z</time></trkpt><trkpt lat="43.5592583" lon="10.71219"><ele>44.0</ele><time>2026-04-05T16:56:08.104Z</time></trkpt><trkpt lat="43.559125" lon="10.7122"><ele>44.0</ele><time>2026-04-05T16:56:09.104Z</time></trkpt><trkpt lat="43.5589883" lon="10.712205"><ele>44.0</ele><time>2026-04-05T16:56:10.104Z</time></trkpt><trkpt lat="43.5588483" lon="10.7122133"><ele>44.0</ele><time>2026-04-05T16:56:11.104Z</time></trkpt><trkpt lat="43.5587067" lon="10.71222"><ele>44.0</ele><time>2026-04-05T16:56:12.104Z</time></trkpt><trkpt lat="43.5585667" lon="10.7122267"><ele>44.0</ele><time>2026-04-05T16:56:13.104Z</time></trkpt><trkpt lat="43.558425" lon="10.712235"><ele>44.0</ele><time>2026-04-05T16:56:14.104Z</time></trkpt><trkpt lat="43.55828" lon="10.7122433"><ele>44.0</ele><time>2026-04-05T16:56:15.104Z</time></trkpt><trkpt lat="43.558135" lon="10.7122533"><ele>44.0</ele><time>2026-04-05T16:56:16.104Z</time></trkpt><trkpt lat="43.55799" lon="10.7122683"><ele>44.0</ele><time>2026-04-05T16:56:17.104Z</time></trkpt><trkpt lat="43.5578433" lon="10.712275"><ele>44.25</ele><time>2026-04-05T16:56:18.104Z</time></trkpt><trkpt lat="43.5576967" lon="10.7122817"><ele>44.5</ele><time>2026-04-05T16:56:19.104Z</time></trkpt><trkpt lat="43.5575467" lon="10.7122933"><ele>44.75</ele><time>2026-04-05T16:56:20.104Z</time></trkpt><trkpt lat="43.5573983" lon="10.7123067"><ele>45.0</ele><time>2026-04-05T16:56:21.104Z</time></trkpt><trkpt lat="43.5570983" lon="10.7123283"><ele>45.333333333333336</ele><time>2026-04-05T16:56:23.104Z</time></trkpt><trkpt lat="43.5569467" lon="10.7123367"><ele>45.66666666666667</ele><time>2026-04-05T16:56:24.104Z</time></trkpt><trkpt lat="43.5567967" lon="10.712345"><ele>46.0</ele><time>2026-04-05T16:56:25.104Z</time></trkpt><trkpt lat="43.5566467" lon="10.712355"><ele>46.0</ele><time>2026-04-05T16:56:26.104Z</time></trkpt><trkpt lat="43.5565" lon="10.7123667"><ele>46.0</ele><time>2026-04-05T16:56:27.104Z</time></trkpt><trkpt lat="43.5563567" lon="10.7123783"><ele>46.0</ele><time>2026-04-05T16:56:28.104Z</time></trkpt><trkpt lat="43.5562167" lon="10.71239"><ele>46.0</ele><time>2026-04-05T16:56:29.104Z</time></trkpt><trkpt lat="43.5560817" lon="10.7123983"><ele>46.25</ele><time>2026-04-05T16:56:30.103Z</time></trkpt><trkpt lat="43.5559517" lon="10.7124033"><ele>46.5</ele><time>2026-04-05T16:56:31.104Z</time></trkpt><trkpt lat="43.555825" lon="10.7124083"><ele>46.75</ele><time>2026-04-05T16:56:32.103Z</time></trkpt><trkpt lat="43.555705" lon="10.71241"><ele>47.0</ele><time>2026-04-05T16:56:33.104Z</time></trkpt><trkpt lat="43.5555967" lon="10.7124083"><ele>47.0</ele><time>2026-04-05T16:56:34.104Z</time></trkpt><trkpt lat="43.5555083" lon="10.7124067"><ele>47.0</ele><time>2026-04-05T16:56:35.104Z</time></trkpt><trkpt lat="43.55544" lon="10.71239"><ele>47.0</ele><time>2026-04-05T16:56:36.103Z</time></trkpt><trkpt lat="43.5553383" lon="10.7123167"><ele>47.0</ele><time>2026-04-05T16:56:38.103Z</time></trkpt><trkpt lat="43.5552383" lon="10.7122433"><ele>47.0</ele><time>2026-04-05T16:56:40.104Z</time></trkpt><trkpt lat="43.555115" lon="10.7122317"><ele>47.0</ele><time>2026-04-05T16:56:42.104Z</time></trkpt><trkpt lat="43.55496" lon="10.7122533"><ele>47.0</ele><time>2026-04-05T16:56:44.104Z</time></trkpt><trkpt lat="43.5548833" lon="10.71226"><ele>47.0</ele><time>2026-04-05T16:56:45.104Z</time></trkpt><trkpt lat="43.55481" lon="10.71226"><ele>47.0</ele><time>2026-04-05T16:56:46.104Z</time></trkpt><trkpt lat="43.554735" lon="10.7122633"><ele>47.0</ele><time>2026-04-05T16:56:47.104Z</time></trkpt><trkpt lat="43.5546583" lon="10.71227"><ele>47.0</ele><time>2026-04-05T16:56:48.104Z</time></trkpt><trkpt lat="43.554575" lon="10.71228"><ele>47.0</ele><time>2026-04-05T16:56:49.104Z</time></trkpt><trkpt lat="43.5544833" lon="10.7122867"><ele>47.0</ele><time>2026-04-05T16:56:50.103Z</time></trkpt><trkpt lat="43.55439" lon="10.712295"><ele>47.0</ele><time>2026-04-05T16:56:51.104Z</time></trkpt><trkpt lat="43.554295" lon="10.7123033"><ele>47.0</ele><time>2026-04-05T16:56:52.104Z</time></trkpt><trkpt lat="43.5542" lon="10.7123083"><ele>47.0</ele><time>2026-04-05T16:56:53.104Z</time></trkpt><trkpt lat="43.5541" lon="10.7123183"><ele>47.0</ele><time>2026-04-05T16:56:54.104Z</time></trkpt><trkpt lat="43.5539983" lon="10.7123233"><ele>47.0</ele><time>2026-04-05T16:56:55.104Z</time></trkpt><trkpt lat="43.5539" lon="10.7123317"><ele>47.0</ele><time>2026-04-05T16:56:56.104Z</time></trkpt><trkpt lat="43.55381" lon="10.7123433"><ele>47.0</ele><time>2026-04-05T16:56:57.103Z</time></trkpt><trkpt lat="43.5537217" lon="10.7123567"><ele>47.0</ele><time>2026-04-05T16:56:58.104Z</time></trkpt><trkpt lat="43.5536433" lon="10.7123583"><ele>47.0</ele><time>2026-04-05T16:56:59.104Z</time></trkpt><trkpt lat="43.5535733" lon="10.7123533"><ele>47.0</ele><time>2026-04-05T16:57:00.104Z</time></trkpt><trkpt lat="43.553475" lon="10.712265"><ele>47.0</ele><time>2026-04-05T16:57:02.104Z</time></trkpt><trkpt lat="43.5534417" lon="10.7120867"><ele>47.0</ele><time>2026-04-05T16:57:04.104Z</time></trkpt><trkpt lat="43.5534567" lon="10.7118267"><ele>46.8</ele><time>2026-04-05T16:57:06.104Z</time></trkpt><trkpt lat="43.5534617" lon="10.7116967"><ele>46.6</ele><time>2026-04-05T16:57:07.104Z</time></trkpt><trkpt lat="43.5534617" lon="10.7115833"><ele>46.4</ele><time>2026-04-05T16:57:08.104Z</time></trkpt><trkpt lat="43.5534667" lon="10.7114817"><ele>46.199999999999996</ele><time>2026-04-05T16:57:09.104Z</time></trkpt><trkpt lat="43.5535017" lon="10.7113467"><ele>46.0</ele><time>2026-04-05T16:57:11.104Z</time></trkpt><trkpt lat="43.5535917" lon="10.7112867"><ele>46.0</ele><time>2026-04-05T16:57:13.104Z</time></trkpt><trkpt lat="43.5536583" lon="10.7112683"><ele>46.0</ele><time>2026-04-05T16:57:14.104Z</time></trkpt><trkpt lat="43.55373" lon="10.711245"><ele>46.0</ele><time>2026-04-05T16:57:15.104Z</time></trkpt><trkpt lat="43.5538083" lon="10.7112183"><ele>46.0</ele><time>2026-04-05T16:57:16.104Z</time></trkpt><trkpt lat="43.5538867" lon="10.71119"><ele>46.0</ele><time>2026-04-05T16:57:17.104Z</time></trkpt><trkpt lat="43.553965" lon="10.7111683"><ele>46.0</ele><time>2026-04-05T16:57:18.104Z</time></trkpt><trkpt lat="43.55404" lon="10.7111467"><ele>46.0</ele><time>2026-04-05T16:57:19.104Z</time></trkpt><trkpt lat="43.5541067" lon="10.711125"><ele>46.0</ele><time>2026-04-05T16:57:20.103Z</time></trkpt><trkpt lat="43.5542167" lon="10.711085"><ele>46.0</ele><time>2026-04-05T16:57:22.104Z</time></trkpt><trkpt lat="43.55429" lon="10.7110617"><ele>45.0</ele><time>2026-04-05T16:57:24.104Z</time></trkpt><trkpt lat="43.5543467" lon="10.7111017"><ele>46.0</ele><time>2026-04-05T16:57:27.104Z</time></trkpt></trkseg><trkseg><trkpt lat="43.5540817" lon="10.711055"><ele>45.166666666666664</ele><time>2026-04-06T08:07:33.658Z</time></trkpt><trkpt lat="43.55396" lon="10.7111067"><ele>45.333333333333336</ele><time>2026-04-06T08:07:35.658Z</time></trkpt><trkpt lat="43.5538933" lon="10.7111317"><ele>45.5</ele><time>2026-04-06T08:07:36.658Z</time></trkpt><trkpt lat="43.5538233" lon="10.7111567"><ele>45.66666666666667</ele><time>2026-04-06T08:07:37.658Z</time></trkpt><trkpt lat="43.5537483" lon="10.71118"><ele>45.833333333333336</ele><time>2026-04-06T08:07:38.658Z</time></trkpt><trkpt lat="43.55367" lon="10.7112083"><ele>46.0</ele><time>2026-04-06T08:07:39.658Z</time></trkpt><trkpt lat="43.55359" lon="10.7112383"><ele>46.0</ele><time>2026-04-06T08:07:40.658Z</time></trkpt><trkpt lat="43.5535083" lon="10.71127"><ele>46.0</ele><time>2026-04-06T08:07:41.658Z</time></trkpt><trkpt lat="43.5534217" lon="10.7113017"><ele>46.0</ele><time>2026-04-06T08:07:42.658Z</time></trkpt><trkpt lat="43.553335" lon="10.71133"><ele>46.0</ele><time>2026-04-06T08:07:43.658Z</time></trkpt><trkpt lat="43.553245" lon="10.7113583"><ele>46.0</ele><time>2026-04-06T08:07:44.659Z</time></trkpt><trkpt lat="43.5531633" lon="10.711385"><ele>46.0</ele><time>2026-04-06T08:07:45.659Z</time></trkpt><trkpt lat="43.5530883" lon="10.71141"><ele>46.0</ele><time>2026-04-06T08:07:46.66Z</time></trkpt><trkpt lat="43.5530183" lon="10.7114317"><ele>46.0</ele><time>2026-04-06T08:07:47.658Z</time></trkpt><trkpt lat="43.5529517" lon="10.7114533"><ele>46.0</ele><time>2026-04-06T08:07:48.658Z</time></trkpt><trkpt lat="43.552885" lon="10.7114767"><ele>46.0</ele><time>2026-04-06T08:07:49.659Z</time></trkpt><trkpt lat="43.55282" lon="10.7114967"><ele>46.0</ele><time>2026-04-06T08:07:50.659Z</time></trkpt><trkpt lat="43.552705" lon="10.7115417"><ele>46.0</ele><time>2026-04-06T08:07:52.659Z</time></trkpt><trkpt lat="43.5526417" lon="10.71156"><ele>46.0</ele><time>2026-04-06T08:07:53.659Z</time></trkpt><trkpt lat="43.5525767" lon="10.711585"><ele>46.0</ele><time>2026-04-06T08:07:54.66Z</time></trkpt><trkpt lat="43.55251" lon="10.711615"><ele>46.0</ele><time>2026-04-06T08:07:55.659Z</time></trkpt><trkpt lat="43.5524483" lon="10.7116517"><ele>46.0</ele><time>2026-04-06T08:07:56.659Z</time></trkpt><trkpt lat="43.5523917" lon="10.7117067"><ele>46.0</ele><time>2026-04-06T08:07:57.66Z</time></trkpt><trkpt lat="43.552345" lon="10.7117767"><ele>46.0</ele><time>2026-04-06T08:07:58.659Z</time></trkpt><trkpt lat="43.5523083" lon="10.7118567"><ele>46.0</ele><time>2026-04-06T08:07:59.659Z</time></trkpt><trkpt lat="43.5522817" lon="10.7119433"><ele>46.16666666666667</ele><time>2026-04-06T08:08:00.659Z</time></trkpt><trkpt lat="43.5522583" lon="10.712035"><ele>46.333333333333336</ele><time>2026-04-06T08:08:01.659Z</time></trkpt><trkpt lat="43.5522317" lon="10.712135"><ele>46.5</ele><time>2026-04-06T08:08:02.659Z</time></trkpt><trkpt lat="43.5522133" lon="10.71223"><ele>46.666666666666664</ele><time>2026-04-06T08:08:03.659Z</time></trkpt><trkpt lat="43.5522" lon="10.712325"><ele>46.83333333333333</ele><time>2026-04-06T08:08:04.659Z</time></trkpt><trkpt lat="43.5521883" lon="10.71248"><ele>47.0</ele><time>2026-04-06T08:08:06.659Z</time></trkpt><trkpt lat="43.5521817" lon="10.7125683"><ele>47.0</ele><time>2026-04-06T08:08:08.659Z</time></trkpt><trkpt lat="43.552155" lon="10.71269"><ele>47.0</ele><time>2026-04-06T08:08:11.659Z</time></trkpt><trkpt lat="43.5520783" lon="10.71279"><ele>47.0</ele><time>2026-04-06T08:08:13.659Z</time></trkpt><trkpt lat="43.55202" lon="10.7128283"><ele>47.0</ele><time>2026-04-06T08:08:14.66Z</time></trkpt><trkpt lat="43.551955" lon="10.7128633"><ele>47.0</ele><time>2026-04-06T08:08:15.659Z</time></trkpt><trkpt lat="43.5518767" lon="10.7129"><ele>47.0</ele><time>2026-04-06T08:08:16.659Z</time></trkpt><trkpt lat="43.5517933" lon="10.7129383"><ele>47.8</ele><time>2026-04-06T08:08:17.659Z</time></trkpt><trkpt lat="43.551715" lon="10.71298"><ele>48.6</ele><time>2026-04-06T08:08:18.659Z</time></trkpt><trkpt lat="43.5516317" lon="10.7130233"><ele>49.4</ele><time>2026-04-06T08:08:19.659Z</time></trkpt><trkpt lat="43.55154" lon="10.7130667"><ele>50.199999999999996</ele><time>2026-04-06T08:08:20.659Z</time></trkpt><trkpt lat="43.5514467" lon="10.713115"><ele>51.0</ele><time>2026-04-06T08:08:21.659Z</time></trkpt><trkpt lat="43.55135" lon="10.7131683"><ele>51.0</ele><time>2026-04-06T08:08:22.659Z</time></trkpt><trkpt lat="43.5512533" lon="10.71322"><ele>51.0</ele><time>2026-04-06T08:08:23.659Z</time></trkpt><trkpt lat="43.55116" lon="10.71327"><ele>51.0</ele><time>2026-04-06T08:08:24.659Z</time></trkpt><trkpt lat="43.5510667" lon="10.7133217"><ele>51.0</ele><time>2026-04-06T08:08:25.659Z</time></trkpt><trkpt lat="43.5509717" lon="10.7133733"><ele>51.0</ele><time>2026-04-06T08:08:26.659Z</time></trkpt><trkpt lat="43.5508767" lon="10.7134217"><ele>51.199999999999996</ele><time>2026-04-06T08:08:27.659Z</time></trkpt><trkpt lat="43.55078" lon="10.7134733"><ele>51.4</ele><time>2026-04-06T08:08:28.66Z</time></trkpt><trkpt lat="43.550685" lon="10.7135233"><ele>51.6</ele><time>2026-04-06T08:08:29.659Z</time></trkpt><trkpt lat="43.5505867" lon="10.7135733"><ele>51.8</ele><time>2026-04-06T08:08:30.659Z</time></trkpt><trkpt lat="43.5504883" lon="10.71362"><ele>52.0</ele><time>2026-04-06T08:08:31.66Z</time></trkpt><trkpt lat="43.5503883" lon="10.7136667"><ele>52.8</ele><time>2026-04-06T08:08:32.66Z</time></trkpt><trkpt lat="43.550285" lon="10.7137167"><ele>53.6</ele><time>2026-04-06T08:08:33.66Z</time></trkpt><trkpt lat="43.55018" lon="10.713765"><ele>54.39999999999999</ele><time>2026-04-06T08:08:34.66Z</time></trkpt><trkpt lat="43.5500733" lon="10.7138117"><ele>55.199999999999996</ele><time>2026-04-06T08:08:35.659Z</time></trkpt><trkpt lat="43.5499667" lon="10.713865"><ele>56.0</ele><time>2026-04-06T08:08:36.659Z</time></trkpt><trkpt lat="43.54986" lon="10.71392"><ele>56.0</ele><time>2026-04-06T08:08:37.659Z</time></trkpt><trkpt lat="43.5497533" lon="10.7139717"><ele>55.99999999999999</ele><time>2026-04-06T08:08:38.659Z</time></trkpt><trkpt lat="43.54965" lon="10.7140167"><ele>55.99999999999999</ele><time>2026-04-06T08:08:39.659Z</time></trkpt><trkpt lat="43.5495417" lon="10.714055"><ele>56.0</ele><time>2026-04-06T08:08:40.66Z</time></trkpt><trkpt lat="43.5494367" lon="10.714085"><ele>56.0</ele><time>2026-04-06T08:08:41.66Z</time></trkpt><trkpt lat="43.5493383" lon="10.714105"><ele>55.8</ele><time>2026-04-06T08:08:42.66Z</time></trkpt><trkpt lat="43.5492433" lon="10.714115"><ele>55.599999999999994</ele><time>2026-04-06T08:08:43.659Z</time></trkpt><trkpt lat="43.549145" lon="10.7141167"><ele>55.4</ele><time>2026-04-06T08:08:44.66Z</time></trkpt><trkpt lat="43.54904" lon="10.7141083"><ele>55.2</ele><time>2026-04-06T08:08:45.659Z</time></trkpt><trkpt lat="43.5489333" lon="10.7141"><ele>55.0</ele><time>2026-04-06T08:08:46.659Z</time></trkpt><trkpt lat="43.5488233" lon="10.7140933"><ele>54.5</ele><time>2026-04-06T08:08:47.66Z</time></trkpt><trkpt lat="43.5487067" lon="10.7140867"><ele>54.0</ele><time>2026-04-06T08:08:48.66Z</time></trkpt><trkpt lat="43.548585" lon="10.7140783"><ele>53.5</ele><time>2026-04-06T08:08:49.66Z</time></trkpt><trkpt lat="43.5484633" lon="10.714075"><ele>53.0</ele><time>2026-04-06T08:08:50.659Z</time></trkpt><trkpt lat="43.5483417" lon="10.714075"><ele>53.0</ele><time>2026-04-06T08:08:51.659Z</time></trkpt><trkpt lat="43.5482233" lon="10.71408"><ele>53.0</ele><time>2026-04-06T08:08:52.659Z</time></trkpt><trkpt lat="43.5480983" lon="10.7140917"><ele>53.0</ele><time>2026-04-06T08:08:53.659Z</time></trkpt><trkpt lat="43.5479717" lon="10.7141083"><ele>53.0</ele><time>2026-04-06T08:08:54.659Z</time></trkpt><trkpt lat="43.5478417" lon="10.7141317"><ele>53.0</ele><time>2026-04-06T08:08:55.659Z</time></trkpt><trkpt lat="43.5477083" lon="10.7141567"><ele>53.0</ele><time>2026-04-06T08:08:56.659Z</time></trkpt><trkpt lat="43.5475767" lon="10.7141833"><ele>53.0</ele><time>2026-04-06T08:08:57.659Z</time></trkpt><trkpt lat="43.547445" lon="10.7142133"><ele>53.0</ele><time>2026-04-06T08:08:58.659Z</time></trkpt><trkpt lat="43.547315" lon="10.7142433"><ele>53.0</ele><time>2026-04-06T08:08:59.659Z</time></trkpt><trkpt lat="43.5471833" lon="10.7142783"><ele>53.0</ele><time>2026-04-06T08:09:00.66Z</time></trkpt><trkpt lat="43.5470517" lon="10.7143233"><ele>53.0</ele><time>2026-04-06T08:09:01.66Z</time></trkpt><trkpt lat="43.54692" lon="10.7143633"><ele>53.0</ele><time>2026-04-06T08:09:02.659Z</time></trkpt><trkpt lat="43.546795" lon="10.7144033"><ele>54.75</ele><time>2026-04-06T08:09:03.66Z</time></trkpt><trkpt lat="43.5466767" lon="10.71445"><ele>56.5</ele><time>2026-04-06T08:09:04.659Z</time></trkpt><trkpt lat="43.54656" lon="10.7144967"><ele>58.25</ele><time>2026-04-06T08:09:05.659Z</time></trkpt><trkpt lat="43.5464433" lon="10.7145483"><ele>60.0</ele><time>2026-04-06T08:09:06.66Z</time></trkpt><trkpt lat="43.5463267" lon="10.7145967"><ele>60.0</ele><time>2026-04-06T08:09:07.66Z</time></trkpt><trkpt lat="43.5462117" lon="10.7146367"><ele>60.0</ele><time>2026-04-06T08:09:08.659Z</time></trkpt><trkpt lat="43.546095" lon="10.7146683"><ele>60.0</ele><time>2026-04-06T08:09:09.659Z</time></trkpt><trkpt lat="43.5459767" lon="10.7146967"><ele>60.0</ele><time>2026-04-06T08:09:10.659Z</time></trkpt><trkpt lat="43.5458567" lon="10.71472"><ele>59.25</ele><time>2026-04-06T08:09:11.659Z</time></trkpt><trkpt lat="43.545735" lon="10.714735"><ele>58.5</ele><time>2026-04-06T08:09:12.66Z</time></trkpt><trkpt lat="43.5456133" lon="10.7147417"><ele>57.75</ele><time>2026-04-06T08:09:13.659Z</time></trkpt><trkpt lat="43.5454917" lon="10.71474"><ele>57.0</ele><time>2026-04-06T08:09:14.66Z</time></trkpt><trkpt lat="43.5453733" lon="10.714745"><ele>57.0</ele><time>2026-04-06T08:09:15.659Z</time></trkpt><trkpt lat="43.5452567" lon="10.71475"><ele>57.0</ele><time>2026-04-06T08:09:16.659Z</time></trkpt><trkpt lat="43.5451483" lon="10.714755"><ele>57.0</ele><time>2026-04-06T08:09:17.659Z</time></trkpt><trkpt lat="43.5450517" lon="10.7147583"><ele>57.0</ele><time>2026-04-06T08:09:18.659Z</time></trkpt><trkpt lat="43.54497" lon="10.7147617"><ele>57.0</ele><time>2026-04-06T08:09:19.659Z</time></trkpt><trkpt lat="43.544875" lon="10.7148083"><ele>57.0</ele><time>2026-04-06T08:09:21.659Z</time></trkpt><trkpt lat="43.5448383" lon="10.71488"><ele>57.0</ele><time>2026-04-06T08:09:24.659Z</time></trkpt><trkpt lat="43.5448417" lon="10.71498"><ele>57.0</ele><time>2026-04-06T08:09:34.66Z</time></trkpt><trkpt lat="43.544925" lon="10.71499"><ele>57.0</ele><time>2026-04-06T08:09:36.66Z</time></trkpt><trkpt lat="43.5450483" lon="10.7149767"><ele>57.0</ele><time>2026-04-06T08:09:38.659Z</time></trkpt><trkpt lat="43.5451167" lon="10.7149733"><ele>57.0</ele><time>2026-04-06T08:09:39.66Z</time></trkpt><trkpt lat="43.545195" lon="10.7149733"><ele>57.0</ele><time>2026-04-06T08:09:40.659Z</time></trkpt><trkpt lat="43.545275" lon="10.7149683"><ele>57.0</ele><time>2026-04-06T08:09:41.659Z</time></trkpt><trkpt lat="43.5453583" lon="10.7149683"><ele>57.0</ele><time>2026-04-06T08:09:42.659Z</time></trkpt><trkpt lat="43.5454417" lon="10.714965"><ele>57.0</ele><time>2026-04-06T08:09:43.66Z</time></trkpt><trkpt lat="43.5455333" lon="10.7149667"><ele>57.0</ele><time>2026-04-06T08:09:44.659Z</time></trkpt><trkpt lat="43.5456267" lon="10.7149633"><ele>57.0</ele><time>2026-04-06T08:09:45.659Z</time></trkpt><trkpt lat="43.54572" lon="10.7149767"><ele>57.0</ele><time>2026-04-06T08:09:46.66Z</time></trkpt><trkpt lat="43.5458017" lon="10.71502"><ele>57.0</ele><time>2026-04-06T08:09:47.659Z</time></trkpt><trkpt lat="43.5458583" lon="10.7150867"><ele>57.0</ele><time>2026-04-06T08:09:48.659Z</time></trkpt><trkpt lat="43.54587" lon="10.7151767"><ele>57.0</ele><time>2026-04-06T08:09:49.659Z</time></trkpt><trkpt lat="43.545835" lon="10.715255"><ele>57.0</ele><time>2026-04-06T08:09:50.659Z</time></trkpt><trkpt lat="43.5457733" lon="10.715315"><ele>57.0</ele><time>2026-04-06T08:09:51.659Z</time></trkpt><trkpt lat="43.5456917" lon="10.715355"><ele>58.8</ele><time>2026-04-06T08:09:52.659Z</time></trkpt><trkpt lat="43.5456083" lon="10.715395"><ele>60.6</ele><time>2026-04-06T08:09:53.659Z</time></trkpt><trkpt lat="43.5455267" lon="10.715435"><ele>62.39999999999999</ele><time>2026-04-06T08:09:54.659Z</time></trkpt><trkpt lat="43.54544" lon="10.7154817"><ele>64.2</ele><time>2026-04-06T08:09:55.659Z</time></trkpt><trkpt lat="43.545345" lon="10.7155333"><ele>66.0</ele><time>2026-04-06T08:09:56.659Z</time></trkpt><trkpt lat="43.5452533" lon="10.7155817"><ele>66.0</ele><time>2026-04-06T08:09:57.659Z</time></trkpt><trkpt lat="43.54516" lon="10.7156333"><ele>66.0</ele><time>2026-04-06T08:09:58.659Z</time></trkpt><trkpt lat="43.5450683" lon="10.71568"><ele>66.0</ele><time>2026-04-06T08:09:59.659Z</time></trkpt><trkpt lat="43.54498" lon="10.7157233"><ele>66.0</ele><time>2026-04-06T08:10:00.659Z</time></trkpt><trkpt lat="43.5448967" lon="10.7157683"><ele>66.0</ele><time>2026-04-06T08:10:01.66Z</time></trkpt><trkpt lat="43.5448267" lon="10.715825"><ele>66.0</ele><time>2026-04-06T08:10:02.659Z</time></trkpt><trkpt lat="43.5447783" lon="10.715905"><ele>66.0</ele><time>2026-04-06T08:10:03.66Z</time></trkpt><trkpt lat="43.5447567" lon="10.716005"><ele>66.0</ele><time>2026-04-06T08:10:04.659Z</time></trkpt><trkpt lat="43.54477" lon="10.71611"><ele>66.0</ele><time>2026-04-06T08:10:05.659Z</time></trkpt><trkpt lat="43.5448083" lon="10.7162017"><ele>66.0</ele><time>2026-04-06T08:10:06.66Z</time></trkpt><trkpt lat="43.544915" lon="10.7162683"><ele>66.0</ele><time>2026-04-06T08:10:08.66Z</time></trkpt><trkpt lat="43.5449883" lon="10.7162817"><ele>69.0</ele><time>2026-04-06T08:10:09.659Z</time></trkpt><trkpt lat="43.5450783" lon="10.7162867"><ele>72.0</ele><time>2026-04-06T08:10:10.659Z</time></trkpt><trkpt lat="43.54517" lon="10.716295"><ele>75.0</ele><time>2026-04-06T08:10:11.659Z</time></trkpt><trkpt lat="43.5452667" lon="10.7163067"><ele>78.0</ele><time>2026-04-06T08:10:12.659Z</time></trkpt><trkpt lat="43.5453583" lon="10.7163217"><ele>81.0</ele><time>2026-04-06T08:10:13.659Z</time></trkpt><trkpt lat="43.54545" lon="10.7163317"><ele>81.33333333333333</ele><time>2026-04-06T08:10:14.659Z</time></trkpt><trkpt lat="43.5455417" lon="10.7163433"><ele>81.66666666666667</ele><time>2026-04-06T08:10:15.659Z</time></trkpt><trkpt lat="43.54563" lon="10.7163717"><ele>82.0</ele><time>2026-04-06T08:10:16.659Z</time></trkpt><trkpt lat="43.5457167" lon="10.716405"><ele>82.33333333333334</ele><time>2026-04-06T08:10:17.659Z</time></trkpt><trkpt lat="43.5457983" lon="10.71646"><ele>82.66666666666667</ele><time>2026-04-06T08:10:18.659Z</time></trkpt><trkpt lat="43.5458417" lon="10.7165433"><ele>83.0</ele><time>2026-04-06T08:10:19.659Z</time></trkpt><trkpt lat="43.545865" lon="10.716635"><ele>83.0</ele><time>2026-04-06T08:10:20.659Z</time></trkpt><trkpt lat="43.5458333" lon="10.7167283"><ele>83.0</ele><time>2026-04-06T08:10:21.659Z</time></trkpt><trkpt lat="43.545795" lon="10.7168017"><ele>83.0</ele><time>2026-04-06T08:10:22.659Z</time></trkpt><trkpt lat="43.545735" lon="10.71685"><ele>83.0</ele><time>2026-04-06T08:10:23.659Z</time></trkpt><trkpt lat="43.5456567" lon="10.71688"><ele>83.0</ele><time>2026-04-06T08:10:24.659Z</time></trkpt><trkpt lat="43.5455667" lon="10.7168933"><ele>83.0</ele><time>2026-04-06T08:10:25.659Z</time></trkpt><trkpt lat="43.54547" lon="10.7169067"><ele>84.33333333333334</ele><time>2026-04-06T08:10:26.659Z</time></trkpt><trkpt lat="43.54538" lon="10.7169283"><ele>85.66666666666667</ele><time>2026-04-06T08:10:27.659Z</time></trkpt><trkpt lat="43.5452917" lon="10.7169483"><ele>87.0</ele><time>2026-04-06T08:10:28.659Z</time></trkpt><trkpt lat="43.5452033" lon="10.7169767"><ele>88.33333333333333</ele><time>2026-04-06T08:10:29.659Z</time></trkpt><trkpt lat="43.5451183" lon="10.7170017"><ele>89.66666666666666</ele><time>2026-04-06T08:10:30.66Z</time></trkpt><trkpt lat="43.54503" lon="10.7170267"><ele>91.0</ele><time>2026-04-06T08:10:31.659Z</time></trkpt><trkpt lat="43.5449433" lon="10.7170517"><ele>91.33333333333333</ele><time>2026-04-06T08:10:32.66Z</time></trkpt><trkpt lat="43.54486" lon="10.7170733"><ele>91.66666666666666</ele><time>2026-04-06T08:10:33.659Z</time></trkpt><trkpt lat="43.544775" lon="10.7170933"><ele>92.0</ele><time>2026-04-06T08:10:34.659Z</time></trkpt><trkpt lat="43.5446917" lon="10.7171183"><ele>92.33333333333333</ele><time>2026-04-06T08:10:35.659Z</time></trkpt><trkpt lat="43.5446117" lon="10.7171383"><ele>92.66666666666667</ele><time>2026-04-06T08:10:36.659Z</time></trkpt><trkpt lat="43.5445367" lon="10.7171767"><ele>93.0</ele><time>2026-04-06T08:10:37.659Z</time></trkpt><trkpt lat="43.54448" lon="10.7172367"><ele>93.0</ele><time>2026-04-06T08:10:38.66Z</time></trkpt><trkpt lat="43.5444367" lon="10.7173033"><ele>93.0</ele><time>2026-04-06T08:10:39.66Z</time></trkpt><trkpt lat="43.5444983" lon="10.71745"><ele>93.0</ele><time>2026-04-06T08:10:41.66Z</time></trkpt><trkpt lat="43.5445617" lon="10.7175"><ele>93.0</ele><time>2026-04-06T08:10:42.659Z</time></trkpt><trkpt lat="43.5446467" lon="10.7175333"><ele>93.0</ele><time>2026-04-06T08:10:43.66Z</time></trkpt><trkpt lat="43.5447417" lon="10.717545"><ele>93.0</ele><time>2026-04-06T08:10:44.659Z</time></trkpt><trkpt lat="43.5448367" lon="10.7175533"><ele>93.0</ele><time>2026-04-06T08:10:45.659Z</time></trkpt><trkpt lat="43.54493" lon="10.7175633"><ele>93.0</ele><time>2026-04-06T08:10:46.659Z</time></trkpt><trkpt lat="43.5450217" lon="10.7175767"><ele>93.0</ele><time>2026-04-06T08:10:47.659Z</time></trkpt><trkpt lat="43.5451133" lon="10.7175917"><ele>93.0</ele><time>2026-04-06T08:10:48.659Z</time></trkpt><trkpt lat="43.5452083" lon="10.7176017"><ele>93.0</ele><time>2026-04-06T08:10:49.659Z</time></trkpt><trkpt lat="43.5453067" lon="10.7176133"><ele>92.60000000000001</ele><time>2026-04-06T08:10:50.659Z</time></trkpt><trkpt lat="43.54541" lon="10.7176233"><ele>92.2</ele><time>2026-04-06T08:10:51.659Z</time></trkpt><trkpt lat="43.54551" lon="10.7176367"><ele>91.8</ele><time>2026-04-06T08:10:52.659Z</time></trkpt><trkpt lat="43.5456083" lon="10.7176467"><ele>91.4</ele><time>2026-04-06T08:10:53.66Z</time></trkpt><trkpt lat="43.5457033" lon="10.7176583"><ele>91.0</ele><time>2026-04-06T08:10:54.659Z</time></trkpt><trkpt lat="43.545795" lon="10.7176717"><ele>91.0</ele><time>2026-04-06T08:10:55.659Z</time></trkpt><trkpt lat="43.545885" lon="10.7176833"><ele>91.0</ele><time>2026-04-06T08:10:56.66Z</time></trkpt><trkpt lat="43.5459717" lon="10.717705"><ele>91.0</ele><time>2026-04-06T08:10:57.659Z</time></trkpt><trkpt lat="43.5460583" lon="10.7177417"><ele>91.0</ele><time>2026-04-06T08:10:58.659Z</time></trkpt><trkpt lat="43.5461417" lon="10.717795"><ele>91.0</ele><time>2026-04-06T08:10:59.659Z</time></trkpt><trkpt lat="43.546215" lon="10.7178583"><ele>91.0</ele><time>2026-04-06T08:11:00.66Z</time></trkpt><trkpt lat="43.5462683" lon="10.71795"><ele>92.83333333333333</ele><time>2026-04-06T08:11:01.659Z</time></trkpt><trkpt lat="43.5463" lon="10.7180567"><ele>94.66666666666666</ele><time>2026-04-06T08:11:02.66Z</time></trkpt><trkpt lat="43.5463233" lon="10.71818"><ele>96.5</ele><time>2026-04-06T08:11:03.659Z</time></trkpt><trkpt lat="43.5463517" lon="10.7183"><ele>98.33333333333333</ele><time>2026-04-06T08:11:04.659Z</time></trkpt><trkpt lat="43.5463817" lon="10.718415"><ele>100.16666666666667</ele><time>2026-04-06T08:11:05.66Z</time></trkpt><trkpt lat="43.5464083" lon="10.7185317"><ele>102.0</ele><time>2026-04-06T08:11:06.659Z</time></trkpt><trkpt lat="43.5464333" lon="10.7186433"><ele>103.33333333333333</ele><time>2026-04-06T08:11:07.659Z</time></trkpt><trkpt lat="43.5464633" lon="10.718755"><ele>104.66666666666666</ele><time>2026-04-06T08:11:08.659Z</time></trkpt><trkpt lat="43.54649" lon="10.7188617"><ele>106.0</ele><time>2026-04-06T08:11:09.659Z</time></trkpt><trkpt lat="43.5465167" lon="10.71897"><ele>107.33333333333333</ele><time>2026-04-06T08:11:10.659Z</time></trkpt><trkpt lat="43.5465283" lon="10.7190717"><ele>108.66666666666666</ele><time>2026-04-06T08:11:11.659Z</time></trkpt><trkpt lat="43.546525" lon="10.7192133"><ele>110.0</ele><time>2026-04-06T08:11:13.659Z</time></trkpt><trkpt lat="43.54649" lon="10.71929"><ele>108.0</ele><time>2026-04-06T08:11:16.659Z</time></trkpt><trkpt lat="43.54775" lon="10.7193567"><ele>108.0</ele><time>2026-04-06T08:12:50.659Z</time></trkpt><trkpt lat="43.5478233" lon="10.719355"><ele>108.0</ele><time>2026-04-06T08:12:51.659Z</time></trkpt><trkpt lat="43.547895" lon="10.7193483"><ele>108.0</ele><time>2026-04-06T08:12:52.66Z</time></trkpt><trkpt lat="43.5479633" lon="10.7193417"><ele>108.0</ele><time>2026-04-06T08:12:53.659Z</time></trkpt><trkpt lat="43.5480333" lon="10.7193317"><ele>108.0</ele><time>2026-04-06T08:12:54.659Z</time></trkpt><trkpt lat="43.54811" lon="10.7193283"><ele>108.0</ele><time>2026-04-06T08:12:55.66Z</time></trkpt><trkpt lat="43.5481883" lon="10.7193233"><ele>108.0</ele><time>2026-04-06T08:12:56.66Z</time></trkpt><trkpt lat="43.54827" lon="10.7193133"><ele>109.0</ele><time>2026-04-06T08:12:57.659Z</time></trkpt><trkpt lat="43.5483533" lon="10.7193067"><ele>110.0</ele><time>2026-04-06T08:12:58.659Z</time></trkpt><trkpt lat="43.5484383" lon="10.7193083"><ele>111.0</ele><time>2026-04-06T08:12:59.659Z</time></trkpt><trkpt lat="43.54852" lon="10.719305"><ele>112.0</ele><time>2026-04-06T08:13:00.659Z</time></trkpt><trkpt lat="43.5486033" lon="10.7192967"><ele>113.0</ele><time>2026-04-06T08:13:01.659Z</time></trkpt><trkpt lat="43.54869" lon="10.71929"><ele>114.0</ele><time>2026-04-06T08:13:02.659Z</time></trkpt><trkpt lat="43.548775" lon="10.7192983"><ele>114.4</ele><time>2026-04-06T08:13:03.659Z</time></trkpt><trkpt lat="43.5488567" lon="10.7193133"><ele>114.80000000000001</ele><time>2026-04-06T08:13:04.659Z</time></trkpt><trkpt lat="43.54894" lon="10.7193383"><ele>115.19999999999999</ele><time>2026-04-06T08:13:05.659Z</time></trkpt><trkpt lat="43.5490183" lon="10.71937"><ele>115.6</ele><time>2026-04-06T08:13:06.659Z</time></trkpt><trkpt lat="43.5491617" lon="10.7194517"><ele>116.0</ele><time>2026-04-06T08:13:08.659Z</time></trkpt><trkpt lat="43.5492183" lon="10.7195133"><ele>119.66666666666666</ele><time>2026-04-06T08:13:09.66Z</time></trkpt><trkpt lat="43.54927" lon="10.7195867"><ele>123.33333333333333</ele><time>2026-04-06T08:13:10.659Z</time></trkpt><trkpt lat="43.54932" lon="10.719675"><ele>127.0</ele><time>2026-04-06T08:13:11.659Z</time></trkpt><trkpt lat="43.5493683" lon="10.719755"><ele>130.66666666666666</ele><time>2026-04-06T08:13:12.659Z</time></trkpt><trkpt lat="43.5494167" lon="10.7198267"><ele>134.33333333333334</ele><time>2026-04-06T08:13:13.659Z</time></trkpt><trkpt lat="43.54947" lon="10.7199267"><ele>138.0</ele><time>2026-04-06T08:13:15.66Z</time></trkpt><trkpt lat="43.549425" lon="10.720005"><ele>138.0</ele><time>2026-04-06T08:13:19.66Z</time></trkpt><trkpt lat="43.5493433" lon="10.7199467"><ele>138.0</ele><time>2026-04-06T08:13:22.659Z</time></trkpt><trkpt lat="43.549275" lon="10.7199367"><ele>138.0</ele><time>2026-04-06T08:13:25.659Z</time></trkpt><trkpt lat="43.54921" lon="10.7198983"><ele>138.0</ele><time>2026-04-06T08:13:57.659Z</time></trkpt></trkseg><trkseg><trkpt lat="43.54148" lon="10.7214133"><ele>117.0</ele><time>2026-04-06T09:25:28.659Z</time></trkpt><trkpt lat="43.5415233" lon="10.7213117"><ele>117.0</ele><time>2026-04-06T09:25:30.659Z</time></trkpt><trkpt lat="43.5416033" lon="10.721125"><ele>117.0</ele><time>2026-04-06T09:25:35.659Z</time></trkpt><trkpt lat="43.5417033" lon="10.7211133"><ele>117.0</ele><time>2026-04-06T09:25:37.66Z</time></trkpt><trkpt lat="43.54182" lon="10.7211083"><ele>117.0</ele><time>2026-04-06T09:25:39.659Z</time></trkpt><trkpt lat="43.5419433" lon="10.721105"><ele>117.0</ele><time>2026-04-06T09:25:41.659Z</time></trkpt><trkpt lat="43.5420483" lon="10.7211017"><ele>117.0</ele><time>2026-04-06T09:25:43.659Z</time></trkpt><trkpt lat="43.5421133" lon="10.7211183"><ele>117.0</ele><time>2026-04-06T09:25:45.659Z</time></trkpt><trkpt lat="43.5421717" lon="10.7211867"><ele>117.0</ele><time>2026-04-06T09:25:47.659Z</time></trkpt><trkpt lat="43.5422017" lon="10.7212633"><ele>117.0</ele><time>2026-04-06T09:25:49.659Z</time></trkpt><trkpt lat="43.542275" lon="10.72141"><ele>117.66666666666667</ele><time>2026-04-06T09:25:59.659Z</time></trkpt><trkpt lat="43.54233" lon="10.721615"><ele>118.33333333333334</ele><time>2026-04-06T09:26:05.659Z</time></trkpt><trkpt lat="43.5423717" lon="10.721685"><ele>119.0</ele><time>2026-04-06T09:26:08.659Z</time></trkpt><trkpt lat="43.5424367" lon="10.7217383"><ele>119.66666666666667</ele><time>2026-04-06T09:26:11.659Z</time></trkpt><trkpt lat="43.5425017" lon="10.72176"><ele>120.33333333333334</ele><time>2026-04-06T09:26:13.66Z</time></trkpt><trkpt lat="43.5425733" lon="10.721755"><ele>121.0</ele><time>2026-04-06T09:26:15.659Z</time></trkpt><trkpt lat="43.54265" lon="10.7217617"><ele>121.0</ele><time>2026-04-06T09:26:17.659Z</time></trkpt><trkpt lat="43.542735" lon="10.7217717"><ele>121.0</ele><time>2026-04-06T09:26:19.659Z</time></trkpt><trkpt lat="43.54292" lon="10.7218417"><ele>121.0</ele><time>2026-04-06T09:26:23.659Z</time></trkpt><trkpt lat="43.5430333" lon="10.72188"><ele>121.0</ele><time>2026-04-06T09:26:25.659Z</time></trkpt><trkpt lat="43.5430983" lon="10.721885"><ele>121.28571428571428</ele><time>2026-04-06T09:26:26.66Z</time></trkpt><trkpt lat="43.543165" lon="10.72189"><ele>121.57142857142856</ele><time>2026-04-06T09:26:27.659Z</time></trkpt><trkpt lat="43.5432333" lon="10.7218867"><ele>121.85714285714286</ele><time>2026-04-06T09:26:28.659Z</time></trkpt><trkpt lat="43.5433033" lon="10.72188"><ele>122.14285714285714</ele><time>2026-04-06T09:26:29.659Z</time></trkpt><trkpt lat="43.54338" lon="10.721875"><ele>122.42857142857143</ele><time>2026-04-06T09:26:30.66Z</time></trkpt><trkpt lat="43.5434567" lon="10.7218683"><ele>122.71428571428572</ele><time>2026-04-06T09:26:31.659Z</time></trkpt><trkpt lat="43.543535" lon="10.7218617"><ele>123.00000000000001</ele><time>2026-04-06T09:26:32.66Z</time></trkpt><trkpt lat="43.5436183" lon="10.72186"><ele>123.0</ele><time>2026-04-06T09:26:33.66Z</time></trkpt><trkpt lat="43.5437" lon="10.7218583"><ele>123.0</ele><time>2026-04-06T09:26:34.659Z</time></trkpt><trkpt lat="43.5437733" lon="10.7218533"><ele>123.0</ele><time>2026-04-06T09:26:35.659Z</time></trkpt><trkpt lat="43.5438367" lon="10.7218417"><ele>123.0</ele><time>2026-04-06T09:26:36.659Z</time></trkpt><trkpt lat="43.5439467" lon="10.7218133"><ele>123.0</ele><time>2026-04-06T09:26:38.66Z</time></trkpt><trkpt lat="43.54402" lon="10.7217767"><ele>123.0</ele><time>2026-04-06T09:26:40.659Z</time></trkpt><trkpt lat="43.5441583" lon="10.7218717"><ele>122.83333333333333</ele><time>2026-04-06T09:26:44.659Z</time></trkpt><trkpt lat="43.544235" lon="10.7219417"><ele>122.66666666666666</ele><time>2026-04-06T09:26:46.659Z</time></trkpt><trkpt lat="43.5443017" lon="10.7219767"><ele>122.5</ele><time>2026-04-06T09:26:48.659Z</time></trkpt><trkpt lat="43.544365" lon="10.7219817"><ele>122.33333333333333</ele><time>2026-04-06T09:26:50.659Z</time></trkpt><trkpt lat="43.544425" lon="10.7220317"><ele>122.16666666666666</ele><time>2026-04-06T09:26:54.659Z</time></trkpt><trkpt lat="43.5444017" lon="10.722125"><ele>122.0</ele><time>2026-04-06T09:26:57.66Z</time></trkpt><trkpt lat="43.54434" lon="10.7222183"><ele>122.0</ele><time>2026-04-06T09:26:59.66Z</time></trkpt><trkpt lat="43.544275" lon="10.7223433"><ele>122.0</ele><time>2026-04-06T09:27:01.659Z</time></trkpt><trkpt lat="43.54421" lon="10.7225"><ele>122.0</ele><time>2026-04-06T09:27:03.659Z</time></trkpt><trkpt lat="43.5441533" lon="10.722645"><ele>122.0</ele><time>2026-04-06T09:27:05.659Z</time></trkpt><trkpt lat="43.54411" lon="10.72276"><ele>117.0</ele><time>2026-04-06T09:27:07.66Z</time></trkpt><trkpt lat="43.5441183" lon="10.7228867"><ele>117.0</ele><time>2026-04-06T09:27:10.659Z</time></trkpt><trkpt lat="43.5441633" lon="10.7229567"><ele>117.0</ele><time>2026-04-06T09:27:12.659Z</time></trkpt><trkpt lat="43.5442383" lon="10.723015"><ele>117.0</ele><time>2026-04-06T09:27:15.659Z</time></trkpt><trkpt lat="43.54431" lon="10.723055"><ele>117.0</ele><time>2026-04-06T09:27:18.659Z</time></trkpt><trkpt lat="43.544405" lon="10.723105"><ele>117.0</ele><time>2026-04-06T09:27:32.659Z</time></trkpt></trkseg><trkseg><trkpt lat="43.5443767" lon="10.7233717"><ele>117.0</ele><time>2026-04-06T09:46:54.658Z</time></trkpt><trkpt lat="43.544385" lon="10.72327"><ele>117.00000000000001</ele><time>2026-04-06T09:46:56.658Z</time></trkpt><trkpt lat="43.54438" lon="10.72317"><ele>117.0</ele><time>2026-04-06T09:46:58.658Z</time></trkpt><trkpt lat="43.54435" lon="10.72309"><ele>117.0</ele><time>2026-04-06T09:47:00.658Z</time></trkpt><trkpt lat="43.5443" lon="10.723025"><ele>117.00000000000001</ele><time>2026-04-06T09:47:02.658Z</time></trkpt><trkpt lat="43.54423" lon="10.7229817"><ele>117.0</ele><time>2026-04-06T09:47:05.659Z</time></trkpt><trkpt lat="43.5441783" lon="10.7229267"><ele>117.0</ele><time>2026-04-06T09:47:51.658Z</time></trkpt><trkpt lat="43.54413" lon="10.7228533"><ele>117.0</ele><time>2026-04-06T09:47:53.658Z</time></trkpt><trkpt lat="43.5441333" lon="10.7227333"><ele>117.0</ele><time>2026-04-06T09:48:27.658Z</time></trkpt><trkpt lat="43.5441833" lon="10.7225817"><ele>117.0</ele><time>2026-04-06T09:48:29.659Z</time></trkpt><trkpt lat="43.544215" lon="10.722505"><ele>117.0</ele><time>2026-04-06T09:48:30.658Z</time></trkpt><trkpt lat="43.544255" lon="10.7224267"><ele>117.0</ele><time>2026-04-06T09:48:31.658Z</time></trkpt><trkpt lat="43.544295" lon="10.7223533"><ele>117.0</ele><time>2026-04-06T09:48:32.658Z</time></trkpt><trkpt lat="43.544335" lon="10.7222783"><ele>116.5</ele><time>2026-04-06T09:48:33.658Z</time></trkpt><trkpt lat="43.54438" lon="10.7222033"><ele>116.0</ele><time>2026-04-06T09:48:34.658Z</time></trkpt><trkpt lat="43.5444267" lon="10.7221333"><ele>115.5</ele><time>2026-04-06T09:48:35.658Z</time></trkpt><trkpt lat="43.5444783" lon="10.7220667"><ele>115.0</ele><time>2026-04-06T09:48:36.658Z</time></trkpt><trkpt lat="43.5445767" lon="10.7219617"><ele>114.5</ele><time>2026-04-06T09:48:38.658Z</time></trkpt><trkpt lat="43.5446617" lon="10.721865"><ele>114.0</ele><time>2026-04-06T09:48:40.658Z</time></trkpt><trkpt lat="43.5447083" lon="10.7218017"><ele>115.0</ele><time>2026-04-06T09:48:42.658Z</time></trkpt><trkpt lat="43.544765" lon="10.72174"><ele>116.0</ele><time>2026-04-06T09:48:45.658Z</time></trkpt><trkpt lat="43.5448317" lon="10.7216783"><ele>117.0</ele><time>2026-04-06T09:48:47.658Z</time></trkpt><trkpt lat="43.54495" lon="10.7216183"><ele>118.0</ele><time>2026-04-06T09:48:49.658Z</time></trkpt><trkpt lat="43.5450217" lon="10.72159"><ele>119.0</ele><time>2026-04-06T09:48:50.658Z</time></trkpt><trkpt lat="43.5450967" lon="10.7215667"><ele>120.0</ele><time>2026-04-06T09:48:51.658Z</time></trkpt><trkpt lat="43.5451667" lon="10.7215417"><ele>120.0</ele><time>2026-04-06T09:48:52.658Z</time></trkpt><trkpt lat="43.5452283" lon="10.7215133"><ele>120.0</ele><time>2026-04-06T09:48:53.658Z</time></trkpt><trkpt lat="43.5452883" lon="10.721475"><ele>120.0</ele><time>2026-04-06T09:48:54.658Z</time></trkpt><trkpt lat="43.5453517" lon="10.7214367"><ele>120.0</ele><time>2026-04-06T09:48:55.658Z</time></trkpt><trkpt lat="43.5454167" lon="10.7213983"><ele>120.0</ele><time>2026-04-06T09:48:56.658Z</time></trkpt><trkpt lat="43.545485" lon="10.7213667"><ele>120.0</ele><time>2026-04-06T09:48:57.658Z</time></trkpt><trkpt lat="43.5455583" lon="10.721335"><ele>120.0</ele><time>2026-04-06T09:48:58.659Z</time></trkpt><trkpt lat="43.5456283" lon="10.7213067"><ele>119.5</ele><time>2026-04-06T09:48:59.658Z</time></trkpt><trkpt lat="43.5457417" lon="10.721255"><ele>119.0</ele><time>2026-04-06T09:49:01.658Z</time></trkpt><trkpt lat="43.5458167" lon="10.7211917"><ele>118.5</ele><time>2026-04-06T09:49:03.658Z</time></trkpt><trkpt lat="43.5458267" lon="10.721095"><ele>118.0</ele><time>2026-04-06T09:49:05.658Z</time></trkpt><trkpt lat="43.5457683" lon="10.7209933"><ele>117.5</ele><time>2026-04-06T09:49:07.658Z</time></trkpt><trkpt lat="43.5457117" lon="10.7209467"><ele>117.0</ele><time>2026-04-06T09:49:08.658Z</time></trkpt><trkpt lat="43.5456483" lon="10.7209"><ele>117.66666666666667</ele><time>2026-04-06T09:49:09.658Z</time></trkpt><trkpt lat="43.5455783" lon="10.72085"><ele>118.33333333333334</ele><time>2026-04-06T09:49:10.658Z</time></trkpt><trkpt lat="43.5455133" lon="10.7208067"><ele>119.0</ele><time>2026-04-06T09:49:11.658Z</time></trkpt><trkpt lat="43.5454317" lon="10.720775"><ele>119.66666666666667</ele><time>2026-04-06T09:49:12.658Z</time></trkpt><trkpt lat="43.5453567" lon="10.72075"><ele>120.33333333333334</ele><time>2026-04-06T09:49:13.658Z</time></trkpt><trkpt lat="43.5452867" lon="10.7207267"><ele>121.0</ele><time>2026-04-06T09:49:14.658Z</time></trkpt><trkpt lat="43.5452233" lon="10.7206967"><ele>121.0</ele><time>2026-04-06T09:49:15.659Z</time></trkpt><trkpt lat="43.545115" lon="10.7206317"><ele>121.0</ele><time>2026-04-06T09:49:17.658Z</time></trkpt><trkpt lat="43.5450483" lon="10.72053"><ele>121.0</ele><time>2026-04-06T09:49:19.658Z</time></trkpt><trkpt lat="43.545055" lon="10.7203767"><ele>121.0</ele><time>2026-04-06T09:49:21.659Z</time></trkpt><trkpt lat="43.5450967" lon="10.720285"><ele>121.0</ele><time>2026-04-06T09:49:22.659Z</time></trkpt><trkpt lat="43.5451517" lon="10.720195"><ele>120.6</ele><time>2026-04-06T09:49:23.659Z</time></trkpt><trkpt lat="43.5452183" lon="10.7201017"><ele>120.19999999999999</ele><time>2026-04-06T09:49:24.658Z</time></trkpt><trkpt lat="43.5452867" lon="10.7200117"><ele>119.80000000000001</ele><time>2026-04-06T09:49:25.658Z</time></trkpt><trkpt lat="43.545365" lon="10.71992"><ele>119.4</ele><time>2026-04-06T09:49:26.658Z</time></trkpt><trkpt lat="43.5454533" lon="10.7198383"><ele>119.0</ele><time>2026-04-06T09:49:27.658Z</time></trkpt><trkpt lat="43.5455483" lon="10.7197667"><ele>119.0</ele><time>2026-04-06T09:49:28.658Z</time></trkpt><trkpt lat="43.54565" lon="10.71971"><ele>119.0</ele><time>2026-04-06T09:49:29.658Z</time></trkpt><trkpt lat="43.5457483" lon="10.7196633"><ele>119.0</ele><time>2026-04-06T09:49:30.658Z</time></trkpt><trkpt lat="43.545845" lon="10.7196183"><ele>119.0</ele><time>2026-04-06T09:49:31.658Z</time></trkpt><trkpt lat="43.5459433" lon="10.7195783"><ele>119.0</ele><time>2026-04-06T09:49:32.658Z</time></trkpt><trkpt lat="43.546045" lon="10.7195333"><ele>119.0</ele><time>2026-04-06T09:49:33.658Z</time></trkpt><trkpt lat="43.5461483" lon="10.71949"><ele>119.0</ele><time>2026-04-06T09:49:34.658Z</time></trkpt><trkpt lat="43.5462517" lon="10.7194467"><ele>119.0</ele><time>2026-04-06T09:49:35.658Z</time></trkpt><trkpt lat="43.5463567" lon="10.7194067"><ele>119.0</ele><time>2026-04-06T09:49:36.658Z</time></trkpt><trkpt lat="43.5464517" lon="10.7193717"><ele>119.0</ele><time>2026-04-06T09:49:37.658Z</time></trkpt><trkpt lat="43.5465383" lon="10.7193533"><ele>117.2</ele><time>2026-04-06T09:49:38.658Z</time></trkpt><trkpt lat="43.5466267" lon="10.71935"><ele>115.4</ele><time>2026-04-06T09:49:39.658Z</time></trkpt><trkpt lat="43.54672" lon="10.7193583"><ele>113.6</ele><time>2026-04-06T09:49:40.659Z</time></trkpt><trkpt lat="43.5468167" lon="10.71937"><ele>111.8</ele><time>2026-04-06T09:49:41.658Z</time></trkpt><trkpt lat="43.5469133" lon="10.719375"><ele>110.0</ele><time>2026-04-06T09:49:42.659Z</time></trkpt><trkpt lat="43.5470067" lon="10.71937"><ele>109.66666666666666</ele><time>2026-04-06T09:49:43.658Z</time></trkpt><trkpt lat="43.5470983" lon="10.7193683"><ele>109.33333333333333</ele><time>2026-04-06T09:49:44.658Z</time></trkpt><trkpt lat="43.547185" lon="10.7193683"><ele>109.0</ele><time>2026-04-06T09:49:45.659Z</time></trkpt><trkpt lat="43.54726" lon="10.719365"><ele>108.66666666666666</ele><time>2026-04-06T09:49:46.658Z</time></trkpt><trkpt lat="43.5473233" lon="10.7193567"><ele>108.33333333333333</ele><time>2026-04-06T09:49:47.658Z</time></trkpt><trkpt lat="43.5474133" lon="10.7193317"><ele>108.0</ele><time>2026-04-06T09:49:49.658Z</time></trkpt><trkpt lat="43.5474883" lon="10.719305"><ele>108.0</ele><time>2026-04-06T09:49:52.659Z</time></trkpt><trkpt lat="43.5475783" lon="10.7193033"><ele>108.00000000000001</ele><time>2026-04-06T09:49:54.658Z</time></trkpt><trkpt lat="43.54771" lon="10.7193183"><ele>108.00000000000001</ele><time>2026-04-06T09:49:56.658Z</time></trkpt><trkpt lat="43.5477867" lon="10.7193183"><ele>108.0</ele><time>2026-04-06T09:49:57.658Z</time></trkpt><trkpt lat="43.5478683" lon="10.7193217"><ele>108.0</ele><time>2026-04-06T09:49:58.658Z</time></trkpt><trkpt lat="43.5479517" lon="10.71932"><ele>109.2</ele><time>2026-04-06T09:49:59.658Z</time></trkpt><trkpt lat="43.5480317" lon="10.71932"><ele>110.4</ele><time>2026-04-06T09:50:00.658Z</time></trkpt><trkpt lat="43.54812" lon="10.71932"><ele>111.60000000000001</ele><time>2026-04-06T09:50:01.659Z</time></trkpt><trkpt lat="43.54821" lon="10.719315"><ele>112.80000000000001</ele><time>2026-04-06T09:50:02.658Z</time></trkpt><trkpt lat="43.5483033" lon="10.7193083"><ele>114.0</ele><time>2026-04-06T09:50:03.658Z</time></trkpt><trkpt lat="43.5484067" lon="10.71931"><ele>114.0</ele><time>2026-04-06T09:50:04.658Z</time></trkpt><trkpt lat="43.54851" lon="10.719315"><ele>114.0</ele><time>2026-04-06T09:50:05.658Z</time></trkpt><trkpt lat="43.5486183" lon="10.7193183"><ele>114.0</ele><time>2026-04-06T09:50:06.658Z</time></trkpt><trkpt lat="43.548725" lon="10.7193217"><ele>114.0</ele><time>2026-04-06T09:50:07.658Z</time></trkpt><trkpt lat="43.5488283" lon="10.7193383"><ele>114.0</ele><time>2026-04-06T09:50:08.658Z</time></trkpt><trkpt lat="43.5489267" lon="10.719365"><ele>114.4</ele><time>2026-04-06T09:50:09.658Z</time></trkpt><trkpt lat="43.549025" lon="10.7194"><ele>114.80000000000001</ele><time>2026-04-06T09:50:10.658Z</time></trkpt><trkpt lat="43.54912" lon="10.7194417"><ele>115.19999999999999</ele><time>2026-04-06T09:50:11.658Z</time></trkpt><trkpt lat="43.5492083" lon="10.71949"><ele>115.6</ele><time>2026-04-06T09:50:12.658Z</time></trkpt><trkpt lat="43.5492867" lon="10.7195467"><ele>116.0</ele><time>2026-04-06T09:50:13.658Z</time></trkpt><trkpt lat="43.54935" lon="10.7196133"><ele>117.16666666666666</ele><time>2026-04-06T09:50:14.658Z</time></trkpt><trkpt lat="43.5494017" lon="10.7196833"><ele>118.33333333333333</ele><time>2026-04-06T09:50:15.659Z</time></trkpt><trkpt lat="43.5494817" lon="10.7197717"><ele>119.5</ele><time>2026-04-06T09:50:17.658Z</time></trkpt><trkpt lat="43.5495667" lon="10.7197917"><ele>120.66666666666666</ele><time>2026-04-06T09:50:19.658Z</time></trkpt><trkpt lat="43.5496783" lon="10.719745"><ele>121.83333333333333</ele><time>2026-04-06T09:50:21.658Z</time></trkpt><trkpt lat="43.549745" lon="10.7197267"><ele>123.0</ele><time>2026-04-06T09:50:22.658Z</time></trkpt><trkpt lat="43.5498733" lon="10.7197683"><ele>123.00000000000001</ele><time>2026-04-06T09:50:24.658Z</time></trkpt><trkpt lat="43.54994" lon="10.719805"><ele>123.0</ele><time>2026-04-06T09:50:25.659Z</time></trkpt><trkpt lat="43.5500033" lon="10.71984"><ele>123.00000000000001</ele><time>2026-04-06T09:50:26.658Z</time></trkpt><trkpt lat="43.5500667" lon="10.7198617"><ele>123.00000000000001</ele><time>2026-04-06T09:50:27.658Z</time></trkpt><trkpt lat="43.5501317" lon="10.7198517"><ele>123.0</ele><time>2026-04-06T09:50:28.658Z</time></trkpt><trkpt lat="43.5501833" lon="10.7198"><ele>123.00000000000001</ele><time>2026-04-06T09:50:29.658Z</time></trkpt><trkpt lat="43.550225" lon="10.7197183"><ele>123.00000000000001</ele><time>2026-04-06T09:50:30.658Z</time></trkpt><trkpt lat="43.5502667" lon="10.7196467"><ele>123.0</ele><time>2026-04-06T09:50:31.658Z</time></trkpt><trkpt lat="43.5503017" lon="10.719555"><ele>123.0</ele><time>2026-04-06T09:50:32.658Z</time></trkpt><trkpt lat="43.550335" lon="10.719465"><ele>123.0</ele><time>2026-04-06T09:50:33.658Z</time></trkpt><trkpt lat="43.5503733" lon="10.7193767"><ele>123.0</ele><time>2026-04-06T09:50:34.658Z</time></trkpt><trkpt lat="43.5504233" lon="10.7192933"><ele>123.0</ele><time>2026-04-06T09:50:35.658Z</time></trkpt><trkpt lat="43.5504633" lon="10.7191983"><ele>123.0</ele><time>2026-04-06T09:50:36.658Z</time></trkpt><trkpt lat="43.5505117" lon="10.719105"><ele>120.4</ele><time>2026-04-06T09:50:37.658Z</time></trkpt><trkpt lat="43.550575" lon="10.7190167"><ele>117.80000000000001</ele><time>2026-04-06T09:50:38.658Z</time></trkpt><trkpt lat="43.5506433" lon="10.718925"><ele>115.2</ele><time>2026-04-06T09:50:39.658Z</time></trkpt><trkpt lat="43.55071" lon="10.7188267"><ele>112.6</ele><time>2026-04-06T09:50:40.658Z</time></trkpt><trkpt lat="43.5507783" lon="10.718735"><ele>110.0</ele><time>2026-04-06T09:50:41.658Z</time></trkpt><trkpt lat="43.55085" lon="10.7186433"><ele>109.2</ele><time>2026-04-06T09:50:42.658Z</time></trkpt><trkpt lat="43.550925" lon="10.7185533"><ele>108.4</ele><time>2026-04-06T09:50:43.658Z</time></trkpt><trkpt lat="43.5509967" lon="10.71846"><ele>107.6</ele><time>2026-04-06T09:50:44.658Z</time></trkpt><trkpt lat="43.5510683" lon="10.7183667"><ele>106.8</ele><time>2026-04-06T09:50:45.659Z</time></trkpt><trkpt lat="43.551145" lon="10.7182817"><ele>106.0</ele><time>2026-04-06T09:50:46.659Z</time></trkpt><trkpt lat="43.5512283" lon="10.7182033"><ele>105.4</ele><time>2026-04-06T09:50:47.659Z</time></trkpt><trkpt lat="43.5513133" lon="10.7181383"><ele>104.8</ele><time>2026-04-06T09:50:48.658Z</time></trkpt><trkpt lat="43.5513967" lon="10.7180783"><ele>104.2</ele><time>2026-04-06T09:50:49.658Z</time></trkpt><trkpt lat="43.551485" lon="10.7180317"><ele>103.60000000000001</ele><time>2026-04-06T09:50:50.659Z</time></trkpt><trkpt lat="43.5515867" lon="10.7180067"><ele>103.0</ele><time>2026-04-06T09:50:51.658Z</time></trkpt><trkpt lat="43.5516883" lon="10.7179833"><ele>103.0</ele><time>2026-04-06T09:50:52.658Z</time></trkpt><trkpt lat="43.5517967" lon="10.717965"><ele>103.0</ele><time>2026-04-06T09:50:53.658Z</time></trkpt><trkpt lat="43.5519017" lon="10.7179483"><ele>103.0</ele><time>2026-04-06T09:50:54.658Z</time></trkpt><trkpt lat="43.55201" lon="10.7179333"><ele>103.0</ele><time>2026-04-06T09:50:55.658Z</time></trkpt><trkpt lat="43.5521117" lon="10.7179183"><ele>103.0</ele><time>2026-04-06T09:50:56.658Z</time></trkpt><trkpt lat="43.5522167" lon="10.717895"><ele>102.2</ele><time>2026-04-06T09:50:57.658Z</time></trkpt><trkpt lat="43.5523167" lon="10.717875"><ele>101.4</ele><time>2026-04-06T09:50:58.658Z</time></trkpt><trkpt lat="43.5524233" lon="10.7178667"><ele>100.60000000000001</ele><time>2026-04-06T09:50:59.658Z</time></trkpt><trkpt lat="43.5525267" lon="10.7178783"><ele>99.80000000000001</ele><time>2026-04-06T09:51:00.658Z</time></trkpt><trkpt lat="43.5526317" lon="10.7179083"><ele>99.0</ele><time>2026-04-06T09:51:01.658Z</time></trkpt><trkpt lat="43.552735" lon="10.7179433"><ele>99.0</ele><time>2026-04-06T09:51:02.658Z</time></trkpt><trkpt lat="43.5528433" lon="10.717965"><ele>99.0</ele><time>2026-04-06T09:51:03.658Z</time></trkpt><trkpt lat="43.5529483" lon="10.7179783"><ele>99.0</ele><time>2026-04-06T09:51:04.658Z</time></trkpt><trkpt lat="43.5530633" lon="10.7179817"><ele>99.0</ele><time>2026-04-06T09:51:05.658Z</time></trkpt><trkpt lat="43.553175" lon="10.7179917"><ele>99.0</ele><time>2026-04-06T09:51:06.658Z</time></trkpt><trkpt lat="43.553285" lon="10.7179983"><ele>98.6</ele><time>2026-04-06T09:51:07.658Z</time></trkpt><trkpt lat="43.5533983" lon="10.7179983"><ele>98.2</ele><time>2026-04-06T09:51:08.658Z</time></trkpt><trkpt lat="43.5535067" lon="10.7179967"><ele>97.8</ele><time>2026-04-06T09:51:09.658Z</time></trkpt><trkpt lat="43.5536167" lon="10.71799"><ele>97.39999999999999</ele><time>2026-04-06T09:51:10.658Z</time></trkpt><trkpt lat="43.5537267" lon="10.7179767"><ele>97.0</ele><time>2026-04-06T09:51:11.658Z</time></trkpt><trkpt lat="43.5538383" lon="10.7179533"><ele>95.0</ele><time>2026-04-06T09:51:12.658Z</time></trkpt><trkpt lat="43.5539517" lon="10.7179267"><ele>93.0</ele><time>2026-04-06T09:51:13.659Z</time></trkpt><trkpt lat="43.5540683" lon="10.7179033"><ele>91.0</ele><time>2026-04-06T09:51:14.659Z</time></trkpt><trkpt lat="43.554185" lon="10.7178767"><ele>89.0</ele><time>2026-04-06T09:51:15.658Z</time></trkpt><trkpt lat="43.5543017" lon="10.717845"><ele>89.0</ele><time>2026-04-06T09:51:16.658Z</time></trkpt><trkpt lat="43.5544167" lon="10.71782"><ele>89.0</ele><time>2026-04-06T09:51:17.658Z</time></trkpt><trkpt lat="43.5545317" lon="10.7177933"><ele>89.0</ele><time>2026-04-06T09:51:18.658Z</time></trkpt><trkpt lat="43.5546417" lon="10.71776"><ele>89.0</ele><time>2026-04-06T09:51:19.658Z</time></trkpt><trkpt lat="43.55473" lon="10.7177067"><ele>89.0</ele><time>2026-04-06T09:51:20.658Z</time></trkpt><trkpt lat="43.554805" lon="10.71764"><ele>89.0</ele><time>2026-04-06T09:51:21.658Z</time></trkpt><trkpt lat="43.554855" lon="10.7175517"><ele>89.0</ele><time>2026-04-06T09:51:22.658Z</time></trkpt><trkpt lat="43.55485" lon="10.71742"><ele>89.0</ele><time>2026-04-06T09:51:23.658Z</time></trkpt><trkpt lat="43.5548333" lon="10.7172933"><ele>89.0</ele><time>2026-04-06T09:51:24.658Z</time></trkpt><trkpt lat="43.554755" lon="10.7171783"><ele>89.0</ele><time>2026-04-06T09:51:25.658Z</time></trkpt><trkpt lat="43.5546783" lon="10.7170617"><ele>89.0</ele><time>2026-04-06T09:51:26.659Z</time></trkpt><trkpt lat="43.5545983" lon="10.7169383"><ele>89.0</ele><time>2026-04-06T09:51:27.658Z</time></trkpt><trkpt lat="43.5545183" lon="10.716815"><ele>89.0</ele><time>2026-04-06T09:51:28.658Z</time></trkpt><trkpt lat="43.5544417" lon="10.7166933"><ele>89.0</ele><time>2026-04-06T09:51:29.658Z</time></trkpt><trkpt lat="43.5543733" lon="10.716565"><ele>90.4</ele><time>2026-04-06T09:51:30.659Z</time></trkpt><trkpt lat="43.554315" lon="10.7164317"><ele>91.80000000000001</ele><time>2026-04-06T09:51:31.658Z</time></trkpt><trkpt lat="43.5542617" lon="10.7162983"><ele>93.19999999999999</ele><time>2026-04-06T09:51:32.658Z</time></trkpt><trkpt lat="43.5542133" lon="10.7161617"><ele>94.6</ele><time>2026-04-06T09:51:33.658Z</time></trkpt><trkpt lat="43.55417" lon="10.7160217"><ele>96.0</ele><time>2026-04-06T09:51:34.658Z</time></trkpt><trkpt lat="43.5541283" lon="10.7158833"><ele>92.8</ele><time>2026-04-06T09:51:35.658Z</time></trkpt><trkpt lat="43.5541017" lon="10.71575"><ele>89.6</ele><time>2026-04-06T09:51:36.659Z</time></trkpt><trkpt lat="43.5541" lon="10.7156317"><ele>86.4</ele><time>2026-04-06T09:51:37.658Z</time></trkpt><trkpt lat="43.5541267" lon="10.7155167"><ele>83.2</ele><time>2026-04-06T09:51:38.658Z</time></trkpt><trkpt lat="43.5541717" lon="10.715415"><ele>80.0</ele><time>2026-04-06T09:51:39.658Z</time></trkpt><trkpt lat="43.55426" lon="10.7153633"><ele>80.0</ele><time>2026-04-06T09:51:40.658Z</time></trkpt><trkpt lat="43.554355" lon="10.7153283"><ele>80.0</ele><time>2026-04-06T09:51:41.658Z</time></trkpt><trkpt lat="43.5544667" lon="10.7153317"><ele>80.0</ele><time>2026-04-06T09:51:42.658Z</time></trkpt><trkpt lat="43.5545817" lon="10.715345"><ele>80.0</ele><time>2026-04-06T09:51:43.658Z</time></trkpt><trkpt lat="43.5547017" lon="10.715375"><ele>80.0</ele><time>2026-04-06T09:51:44.658Z</time></trkpt><trkpt lat="43.5548133" lon="10.7154267"><ele>77.75</ele><time>2026-04-06T09:51:45.658Z</time></trkpt><trkpt lat="43.5549217" lon="10.71549"><ele>75.5</ele><time>2026-04-06T09:51:46.658Z</time></trkpt><trkpt lat="43.5550267" lon="10.7155633"><ele>73.25</ele><time>2026-04-06T09:51:47.658Z</time></trkpt><trkpt lat="43.55513" lon="10.7156367"><ele>71.0</ele><time>2026-04-06T09:51:48.659Z</time></trkpt><trkpt lat="43.55523" lon="10.715715"><ele>71.0</ele><time>2026-04-06T09:51:49.658Z</time></trkpt><trkpt lat="43.5553333" lon="10.7158"><ele>71.0</ele><time>2026-04-06T09:51:50.659Z</time></trkpt><trkpt lat="43.55544" lon="10.7158817"><ele>71.0</ele><time>2026-04-06T09:51:51.658Z</time></trkpt><trkpt lat="43.5555517" lon="10.715945"><ele>71.0</ele><time>2026-04-06T09:51:52.658Z</time></trkpt><trkpt lat="43.5556667" lon="10.71599"><ele>68.75</ele><time>2026-04-06T09:51:53.658Z</time></trkpt><trkpt lat="43.55579" lon="10.7160133"><ele>66.5</ele><time>2026-04-06T09:51:54.658Z</time></trkpt><trkpt lat="43.555915" lon="10.7160167"><ele>64.25</ele><time>2026-04-06T09:51:55.658Z</time></trkpt><trkpt lat="43.5560483" lon="10.71601"><ele>62.0</ele><time>2026-04-06T09:51:56.658Z</time></trkpt><trkpt lat="43.5561833" lon="10.7159967"><ele>60.25</ele><time>2026-04-06T09:51:57.659Z</time></trkpt><trkpt lat="43.55632" lon="10.71598"><ele>58.5</ele><time>2026-04-06T09:51:58.658Z</time></trkpt><trkpt lat="43.5564567" lon="10.7159667"><ele>56.75</ele><time>2026-04-06T09:51:59.658Z</time></trkpt><trkpt lat="43.5565933" lon="10.715965"><ele>55.0</ele><time>2026-04-06T09:52:00.658Z</time></trkpt><trkpt lat="43.5567267" lon="10.7159783"><ele>55.0</ele><time>2026-04-06T09:52:01.658Z</time></trkpt><trkpt lat="43.5568567" lon="10.7160133"><ele>55.0</ele><time>2026-04-06T09:52:02.658Z</time></trkpt><trkpt lat="43.556985" lon="10.7160617"><ele>55.0</ele><time>2026-04-06T09:52:03.659Z</time></trkpt><trkpt lat="43.5571133" lon="10.7161033"><ele>55.0</ele><time>2026-04-06T09:52:04.658Z</time></trkpt><trkpt lat="43.5572467" lon="10.7161317"><ele>58.75</ele><time>2026-04-06T09:52:05.658Z</time></trkpt><trkpt lat="43.5573817" lon="10.7161383"><ele>62.5</ele><time>2026-04-06T09:52:06.658Z</time></trkpt><trkpt lat="43.5575167" lon="10.7161383"><ele>66.25</ele><time>2026-04-06T09:52:07.658Z</time></trkpt><trkpt lat="43.5576483" lon="10.71613"><ele>70.0</ele><time>2026-04-06T09:52:08.658Z</time></trkpt><trkpt lat="43.5577817" lon="10.71612"><ele>68.75</ele><time>2026-04-06T09:52:09.658Z</time></trkpt><trkpt lat="43.5579117" lon="10.716105"><ele>67.5</ele><time>2026-04-06T09:52:10.658Z</time></trkpt><trkpt lat="43.55804" lon="10.7160867"><ele>66.25</ele><time>2026-04-06T09:52:11.658Z</time></trkpt><trkpt lat="43.5581667" lon="10.7160567"><ele>65.0</ele><time>2026-04-06T09:52:12.658Z</time></trkpt><trkpt lat="43.558295" lon="10.7160233"><ele>61.75</ele><time>2026-04-06T09:52:13.658Z</time></trkpt><trkpt lat="43.5584217" lon="10.7159767"><ele>58.5</ele><time>2026-04-06T09:52:14.659Z</time></trkpt><trkpt lat="43.5585467" lon="10.7159217"><ele>55.25</ele><time>2026-04-06T09:52:15.658Z</time></trkpt><trkpt lat="43.5586717" lon="10.7158583"><ele>52.0</ele><time>2026-04-06T09:52:16.658Z</time></trkpt><trkpt lat="43.5587983" lon="10.71579"><ele>51.75</ele><time>2026-04-06T09:52:17.658Z</time></trkpt><trkpt lat="43.55892" lon="10.7157117"><ele>51.5</ele><time>2026-04-06T09:52:18.658Z</time></trkpt><trkpt lat="43.55903" lon="10.7156167"><ele>51.25</ele><time>2026-04-06T09:52:19.658Z</time></trkpt><trkpt lat="43.55912" lon="10.7154967"><ele>51.0</ele><time>2026-04-06T09:52:20.658Z</time></trkpt><trkpt lat="43.5591917" lon="10.715355"><ele>49.75</ele><time>2026-04-06T09:52:21.658Z</time></trkpt><trkpt lat="43.55924" lon="10.7152017"><ele>48.5</ele><time>2026-04-06T09:52:22.658Z</time></trkpt><trkpt lat="43.559275" lon="10.71505"><ele>47.25</ele><time>2026-04-06T09:52:23.658Z</time></trkpt><trkpt lat="43.5593033" lon="10.7149"><ele>46.0</ele><time>2026-04-06T09:52:24.658Z</time></trkpt><trkpt lat="43.55933" lon="10.7147533"><ele>46.0</ele><time>2026-04-06T09:52:25.658Z</time></trkpt><trkpt lat="43.5593583" lon="10.714605"><ele>46.0</ele><time>2026-04-06T09:52:26.659Z</time></trkpt><trkpt lat="43.5593883" lon="10.714455"><ele>46.0</ele><time>2026-04-06T09:52:27.659Z</time></trkpt><trkpt lat="43.55942" lon="10.7143017"><ele>46.0</ele><time>2026-04-06T09:52:28.658Z</time></trkpt><trkpt lat="43.5594567" lon="10.71415"><ele>45.5</ele><time>2026-04-06T09:52:29.659Z</time></trkpt><trkpt lat="43.5595033" lon="10.7139967"><ele>45.0</ele><time>2026-04-06T09:52:30.659Z</time></trkpt><trkpt lat="43.5595533" lon="10.7138417"><ele>44.5</ele><time>2026-04-06T09:52:31.66Z</time></trkpt><trkpt lat="43.55961" lon="10.7136867"><ele>44.0</ele><time>2026-04-06T09:52:32.659Z</time></trkpt><trkpt lat="43.5596667" lon="10.7135317"><ele>43.75</ele><time>2026-04-06T09:52:33.659Z</time></trkpt><trkpt lat="43.5597283" lon="10.7133817"><ele>43.5</ele><time>2026-04-06T09:52:34.659Z</time></trkpt><trkpt lat="43.5597933" lon="10.7132383"><ele>43.25</ele><time>2026-04-06T09:52:35.66Z</time></trkpt><trkpt lat="43.559865" lon="10.7131"><ele>43.0</ele><time>2026-04-06T09:52:36.659Z</time></trkpt><trkpt lat="43.5599467" lon="10.712975"><ele>43.0</ele><time>2026-04-06T09:52:37.659Z</time></trkpt><trkpt lat="43.5600367" lon="10.7128617"><ele>43.0</ele><time>2026-04-06T09:52:38.659Z</time></trkpt><trkpt lat="43.5601317" lon="10.7127633"><ele>43.0</ele><time>2026-04-06T09:52:39.66Z</time></trkpt><trkpt lat="43.5602283" lon="10.71267"><ele>43.0</ele><time>2026-04-06T09:52:40.66Z</time></trkpt><trkpt lat="43.560325" lon="10.7125767"><ele>43.0</ele><time>2026-04-06T09:52:41.659Z</time></trkpt><trkpt lat="43.5604167" lon="10.71248"><ele>43.0</ele><time>2026-04-06T09:52:42.659Z</time></trkpt><trkpt lat="43.560505" lon="10.7123883"><ele>43.0</ele><time>2026-04-06T09:52:43.659Z</time></trkpt><trkpt lat="43.560585" lon="10.7123017"><ele>43.0</ele><time>2026-04-06T09:52:44.659Z</time></trkpt><trkpt lat="43.5606533" lon="10.7122433"><ele>43.0</ele><time>2026-04-06T09:52:45.659Z</time></trkpt><trkpt lat="43.560715" lon="10.7121983"><ele>43.0</ele><time>2026-04-06T09:52:46.659Z</time></trkpt><trkpt lat="43.5607867" lon="10.7121583"><ele>43.0</ele><time>2026-04-06T09:52:47.659Z</time></trkpt><trkpt lat="43.5608733" lon="10.712125"><ele>43.0</ele><time>2026-04-06T09:52:48.659Z</time></trkpt><trkpt lat="43.5609717" lon="10.71209"><ele>43.0</ele><time>2026-04-06T09:52:49.659Z</time></trkpt><trkpt lat="43.561075" lon="10.7120517"><ele>43.0</ele><time>2026-04-06T09:52:50.659Z</time></trkpt><trkpt lat="43.56118" lon="10.7120117"><ele>43.0</ele><time>2026-04-06T09:52:51.659Z</time></trkpt><trkpt lat="43.5612917" lon="10.7119683"><ele>43.0</ele><time>2026-04-06T09:52:52.659Z</time></trkpt><trkpt lat="43.56141" lon="10.7119233"><ele>43.0</ele><time>2026-04-06T09:52:53.659Z</time></trkpt><trkpt lat="43.5615317" lon="10.7118767"><ele>43.0</ele><time>2026-04-06T09:52:54.659Z</time></trkpt><trkpt lat="43.5616533" lon="10.7118283"><ele>43.0</ele><time>2026-04-06T09:52:55.659Z</time></trkpt><trkpt lat="43.5617767" lon="10.71178"><ele>43.0</ele><time>2026-04-06T09:52:56.659Z</time></trkpt><trkpt lat="43.5619083" lon="10.7117317"><ele>43.0</ele><time>2026-04-06T09:52:57.659Z</time></trkpt><trkpt lat="43.5620483" lon="10.7116817"><ele>43.0</ele><time>2026-04-06T09:52:58.659Z</time></trkpt><trkpt lat="43.5621917" lon="10.7116267"><ele>43.0</ele><time>2026-04-06T09:52:59.659Z</time></trkpt><trkpt lat="43.56234" lon="10.7115667"><ele>43.0</ele><time>2026-04-06T09:53:00.659Z</time></trkpt><trkpt lat="43.5624867" lon="10.7115067"><ele>43.0</ele><time>2026-04-06T09:53:01.659Z</time></trkpt><trkpt lat="43.56263" lon="10.7114467"><ele>43.0</ele><time>2026-04-06T09:53:02.659Z</time></trkpt><trkpt lat="43.562775" lon="10.7113883"><ele>43.0</ele><time>2026-04-06T09:53:03.659Z</time></trkpt><trkpt lat="43.5629217" lon="10.7113317"><ele>43.0</ele><time>2026-04-06T09:53:04.66Z</time></trkpt><trkpt lat="43.56307" lon="10.711275"><ele>42.66666666666667</ele><time>2026-04-06T09:53:05.659Z</time></trkpt><trkpt lat="43.5632167" lon="10.711215"><ele>42.333333333333336</ele><time>2026-04-06T09:53:06.66Z</time></trkpt><trkpt lat="43.5633633" lon="10.7111567"><ele>42.0</ele><time>2026-04-06T09:53:07.659Z</time></trkpt><trkpt lat="43.5635133" lon="10.7111017"><ele>42.0</ele><time>2026-04-06T09:53:08.659Z</time></trkpt><trkpt lat="43.5636633" lon="10.7110433"><ele>42.0</ele><time>2026-04-06T09:53:09.659Z</time></trkpt><trkpt lat="43.5638133" lon="10.7109867"><ele>42.0</ele><time>2026-04-06T09:53:10.659Z</time></trkpt><trkpt lat="43.56396" lon="10.7109317"><ele>42.0</ele><time>2026-04-06T09:53:11.659Z</time></trkpt><trkpt lat="43.56411" lon="10.7108733"><ele>42.0</ele><time>2026-04-06T09:53:12.659Z</time></trkpt><trkpt lat="43.5642683" lon="10.71082"><ele>42.0</ele><time>2026-04-06T09:53:13.66Z</time></trkpt><trkpt lat="43.5644233" lon="10.7107633"><ele>41.666666666666664</ele><time>2026-04-06T09:53:14.659Z</time></trkpt><trkpt lat="43.56458" lon="10.7107017"><ele>41.33333333333333</ele><time>2026-04-06T09:53:15.659Z</time></trkpt><trkpt lat="43.564735" lon="10.7106417"><ele>41.0</ele><time>2026-04-06T09:53:16.659Z</time></trkpt><trkpt lat="43.5648867" lon="10.7105817"><ele>41.0</ele><time>2026-04-06T09:53:17.659Z</time></trkpt><trkpt lat="43.5650383" lon="10.7105233"><ele>41.0</ele><time>2026-04-06T09:53:18.659Z</time></trkpt><trkpt lat="43.5651933" lon="10.7104633"><ele>41.0</ele><time>2026-04-06T09:53:19.66Z</time></trkpt><trkpt lat="43.565345" lon="10.7104"><ele>41.33333333333333</ele><time>2026-04-06T09:53:20.659Z</time></trkpt><trkpt lat="43.5654967" lon="10.71034"><ele>41.666666666666664</ele><time>2026-04-06T09:53:21.659Z</time></trkpt><trkpt lat="43.5656517" lon="10.7102817"><ele>42.0</ele><time>2026-04-06T09:53:22.659Z</time></trkpt><trkpt lat="43.5658067" lon="10.71022"><ele>42.0</ele><time>2026-04-06T09:53:23.659Z</time></trkpt><trkpt lat="43.5659633" lon="10.7101567"><ele>42.0</ele><time>2026-04-06T09:53:24.659Z</time></trkpt><trkpt lat="43.56612" lon="10.7100933"><ele>42.0</ele><time>2026-04-06T09:53:25.659Z</time></trkpt><trkpt lat="43.5662733" lon="10.71003"><ele>42.0</ele><time>2026-04-06T09:53:26.659Z</time></trkpt><trkpt lat="43.5664267" lon="10.70997"><ele>42.0</ele><time>2026-04-06T09:53:27.659Z</time></trkpt><trkpt lat="43.5665817" lon="10.7099083"><ele>42.0</ele><time>2026-04-06T09:53:28.659Z</time></trkpt><trkpt lat="43.56674" lon="10.7098467"><ele>42.0</ele><time>2026-04-06T09:53:29.66Z</time></trkpt><trkpt lat="43.5668967" lon="10.7097867"><ele>42.0</ele><time>2026-04-06T09:53:30.659Z</time></trkpt><trkpt lat="43.5670583" lon="10.7097217"><ele>42.0</ele><time>2026-04-06T09:53:31.659Z</time></trkpt><trkpt lat="43.5672183" lon="10.7096567"><ele>41.0</ele><time>2026-04-06T09:53:32.659Z</time></trkpt><trkpt lat="43.5673783" lon="10.70959"><ele>40.0</ele><time>2026-04-06T09:53:33.659Z</time></trkpt><trkpt lat="43.5675383" lon="10.7095233"><ele>39.0</ele><time>2026-04-06T09:53:34.659Z</time></trkpt><trkpt lat="43.5676967" lon="10.709455"><ele>39.333333333333336</ele><time>2026-04-06T09:53:35.659Z</time></trkpt><trkpt lat="43.567855" lon="10.7093867"><ele>39.66666666666667</ele><time>2026-04-06T09:53:36.659Z</time></trkpt><trkpt lat="43.5680167" lon="10.70932"><ele>40.0</ele><time>2026-04-06T09:53:37.659Z</time></trkpt><trkpt lat="43.5681767" lon="10.7092533"><ele>40.0</ele><time>2026-04-06T09:53:38.659Z</time></trkpt><trkpt lat="43.5683367" lon="10.709185"><ele>40.0</ele><time>2026-04-06T09:53:39.659Z</time></trkpt><trkpt lat="43.5684967" lon="10.7091167"><ele>40.0</ele><time>2026-04-06T09:53:40.659Z</time></trkpt><trkpt lat="43.56866" lon="10.7090483"><ele>40.333333333333336</ele><time>2026-04-06T09:53:41.659Z</time></trkpt><trkpt lat="43.5688233" lon="10.7089817"><ele>40.666666666666664</ele><time>2026-04-06T09:53:42.659Z</time></trkpt><trkpt lat="43.56899" lon="10.7089167"><ele>41.0</ele><time>2026-04-06T09:53:43.659Z</time></trkpt><trkpt lat="43.5691583" lon="10.708855"><ele>41.0</ele><time>2026-04-06T09:53:44.659Z</time></trkpt><trkpt lat="43.5693283" lon="10.7087883"><ele>41.0</ele><time>2026-04-06T09:53:45.659Z</time></trkpt><trkpt lat="43.5695017" lon="10.7087217"><ele>41.0</ele><time>2026-04-06T09:53:46.659Z</time></trkpt><trkpt lat="43.5696717" lon="10.7086533"><ele>40.666666666666664</ele><time>2026-04-06T09:53:47.659Z</time></trkpt><trkpt lat="43.5698433" lon="10.7085867"><ele>40.333333333333336</ele><time>2026-04-06T09:53:48.659Z</time></trkpt><trkpt lat="43.5700133" lon="10.70852"><ele>40.0</ele><time>2026-04-06T09:53:49.659Z</time></trkpt><trkpt lat="43.5701867" lon="10.708455"><ele>39.333333333333336</ele><time>2026-04-06T09:53:50.66Z</time></trkpt><trkpt lat="43.5703583" lon="10.7083867"><ele>38.666666666666664</ele><time>2026-04-06T09:53:51.659Z</time></trkpt><trkpt lat="43.57053" lon="10.7083183"><ele>38.0</ele><time>2026-04-06T09:53:52.659Z</time></trkpt><trkpt lat="43.5707017" lon="10.70825"><ele>38.0</ele><time>2026-04-06T09:53:53.659Z</time></trkpt><trkpt lat="43.5708683" lon="10.7081817"><ele>38.0</ele><time>2026-04-06T09:53:54.659Z</time></trkpt><trkpt lat="43.5710367" lon="10.7081117"><ele>38.0</ele><time>2026-04-06T09:53:55.659Z</time></trkpt><trkpt lat="43.5712033" lon="10.7080433"><ele>38.0</ele><time>2026-04-06T09:53:56.66Z</time></trkpt><trkpt lat="43.5713717" lon="10.7079767"><ele>38.0</ele><time>2026-04-06T09:53:57.659Z</time></trkpt><trkpt lat="43.5715417" lon="10.70791"><ele>38.0</ele><time>2026-04-06T09:53:58.659Z</time></trkpt><trkpt lat="43.57171" lon="10.7078433"><ele>38.0</ele><time>2026-04-06T09:53:59.659Z</time></trkpt><trkpt lat="43.5718783" lon="10.707775"><ele>38.0</ele><time>2026-04-06T09:54:00.66Z</time></trkpt><trkpt lat="43.5720483" lon="10.7077083"><ele>38.0</ele><time>2026-04-06T09:54:01.659Z</time></trkpt><trkpt lat="43.5722167" lon="10.70764"><ele>38.666666666666664</ele><time>2026-04-06T09:54:02.659Z</time></trkpt><trkpt lat="43.572385" lon="10.7075767"><ele>39.333333333333336</ele><time>2026-04-06T09:54:03.659Z</time></trkpt><trkpt lat="43.572555" lon="10.707515"><ele>40.0</ele><time>2026-04-06T09:54:04.659Z</time></trkpt><trkpt lat="43.5727233" lon="10.7074483"><ele>39.66666666666667</ele><time>2026-04-06T09:54:05.659Z</time></trkpt><trkpt lat="43.5728917" lon="10.7073783"><ele>39.333333333333336</ele><time>2026-04-06T09:54:06.659Z</time></trkpt><trkpt lat="43.5730633" lon="10.7073067"><ele>39.0</ele><time>2026-04-06T09:54:07.659Z</time></trkpt><trkpt lat="43.5732317" lon="10.707235"><ele>39.0</ele><time>2026-04-06T09:54:08.659Z</time></trkpt><trkpt lat="43.5734" lon="10.7071633"><ele>39.0</ele><time>2026-04-06T09:54:09.659Z</time></trkpt><trkpt lat="43.5735683" lon="10.7070933"><ele>39.0</ele><time>2026-04-06T09:54:10.659Z</time></trkpt><trkpt lat="43.5737367" lon="10.7070267"><ele>38.333333333333336</ele><time>2026-04-06T09:54:11.659Z</time></trkpt><trkpt lat="43.5739067" lon="10.7069617"><ele>37.66666666666667</ele><time>2026-04-06T09:54:12.66Z</time></trkpt><trkpt lat="43.5740767" lon="10.706895"><ele>37.0</ele><time>2026-04-06T09:54:13.659Z</time></trkpt><trkpt lat="43.5742467" lon="10.7068283"><ele>37.0</ele><time>2026-04-06T09:54:14.659Z</time></trkpt><trkpt lat="43.574415" lon="10.7067633"><ele>37.0</ele><time>2026-04-06T09:54:15.659Z</time></trkpt><trkpt lat="43.5745817" lon="10.7067"><ele>37.0</ele><time>2026-04-06T09:54:16.659Z</time></trkpt><trkpt lat="43.5747533" lon="10.706635"><ele>37.333333333333336</ele><time>2026-04-06T09:54:17.659Z</time></trkpt><trkpt lat="43.57492" lon="10.70657"><ele>37.666666666666664</ele><time>2026-04-06T09:54:18.659Z</time></trkpt><trkpt lat="43.5750867" lon="10.7065017"><ele>38.0</ele><time>2026-04-06T09:54:19.659Z</time></trkpt><trkpt lat="43.5752517" lon="10.7064383"><ele>38.0</ele><time>2026-04-06T09:54:20.659Z</time></trkpt><trkpt lat="43.5754117" lon="10.7063733"><ele>38.0</ele><time>2026-04-06T09:54:21.659Z</time></trkpt><trkpt lat="43.5755683" lon="10.7063083"><ele>38.0</ele><time>2026-04-06T09:54:22.659Z</time></trkpt><trkpt lat="43.575725" lon="10.7062467"><ele>38.0</ele><time>2026-04-06T09:54:23.659Z</time></trkpt><trkpt lat="43.575875" lon="10.7061833"><ele>38.0</ele><time>2026-04-06T09:54:24.66Z</time></trkpt><trkpt lat="43.5760267" lon="10.7061183"><ele>38.0</ele><time>2026-04-06T09:54:25.659Z</time></trkpt><trkpt lat="43.5761817" lon="10.7060517"><ele>38.0</ele><time>2026-04-06T09:54:26.659Z</time></trkpt><trkpt lat="43.5763383" lon="10.7059867"><ele>38.0</ele><time>2026-04-06T09:54:27.659Z</time></trkpt><trkpt lat="43.576495" lon="10.705925"><ele>38.0</ele><time>2026-04-06T09:54:28.659Z</time></trkpt><trkpt lat="43.5766567" lon="10.705865"><ele>38.0</ele><time>2026-04-06T09:54:29.659Z</time></trkpt><trkpt lat="43.5768133" lon="10.7058017"><ele>38.0</ele><time>2026-04-06T09:54:30.66Z</time></trkpt><trkpt lat="43.5769683" lon="10.7057383"><ele>38.0</ele><time>2026-04-06T09:54:31.659Z</time></trkpt><trkpt lat="43.57712" lon="10.7056717"><ele>37.666666666666664</ele><time>2026-04-06T09:54:32.66Z</time></trkpt><trkpt lat="43.577275" lon="10.7056083"><ele>37.333333333333336</ele><time>2026-04-06T09:54:33.659Z</time></trkpt><trkpt lat="43.5774317" lon="10.7055483"><ele>37.0</ele><time>2026-04-06T09:54:34.659Z</time></trkpt><trkpt lat="43.57759" lon="10.70549"><ele>37.0</ele><time>2026-04-06T09:54:35.659Z</time></trkpt><trkpt lat="43.5777467" lon="10.7054283"><ele>37.0</ele><time>2026-04-06T09:54:36.659Z</time></trkpt><trkpt lat="43.5779" lon="10.7053667"><ele>37.0</ele><time>2026-04-06T09:54:37.659Z</time></trkpt><trkpt lat="43.5780533" lon="10.7053067"><ele>36.66666666666667</ele><time>2026-04-06T09:54:38.659Z</time></trkpt><trkpt lat="43.5782083" lon="10.7052467"><ele>36.333333333333336</ele><time>2026-04-06T09:54:39.659Z</time></trkpt><trkpt lat="43.5783633" lon="10.7051883"><ele>36.0</ele><time>2026-04-06T09:54:40.659Z</time></trkpt><trkpt lat="43.5785133" lon="10.705125"><ele>36.0</ele><time>2026-04-06T09:54:41.659Z</time></trkpt><trkpt lat="43.5786633" lon="10.705065"><ele>36.0</ele><time>2026-04-06T09:54:42.659Z</time></trkpt><trkpt lat="43.5788117" lon="10.7050067"><ele>36.0</ele><time>2026-04-06T09:54:43.659Z</time></trkpt><trkpt lat="43.5789583" lon="10.704945"><ele>36.0</ele><time>2026-04-06T09:54:44.659Z</time></trkpt><trkpt lat="43.5791033" lon="10.7048867"><ele>36.0</ele><time>2026-04-06T09:54:45.659Z</time></trkpt><trkpt lat="43.579245" lon="10.704835"><ele>36.0</ele><time>2026-04-06T09:54:46.659Z</time></trkpt><trkpt lat="43.57938" lon="10.70479"><ele>36.0</ele><time>2026-04-06T09:54:47.659Z</time></trkpt><trkpt lat="43.5795117" lon="10.7047517"><ele>36.25</ele><time>2026-04-06T09:54:48.659Z</time></trkpt><trkpt lat="43.57964" lon="10.70472"><ele>36.5</ele><time>2026-04-06T09:54:49.659Z</time></trkpt><trkpt lat="43.5797633" lon="10.70469"><ele>36.75</ele><time>2026-04-06T09:54:50.659Z</time></trkpt><trkpt lat="43.57988" lon="10.70467"><ele>37.0</ele><time>2026-04-06T09:54:51.659Z</time></trkpt><trkpt lat="43.579985" lon="10.7046517"><ele>37.0</ele><time>2026-04-06T09:54:52.66Z</time></trkpt><trkpt lat="43.5800767" lon="10.7046383"><ele>37.0</ele><time>2026-04-06T09:54:53.659Z</time></trkpt><trkpt lat="43.580155" lon="10.7046283"><ele>37.0</ele><time>2026-04-06T09:54:54.659Z</time></trkpt><trkpt lat="43.5802267" lon="10.7046217"><ele>37.0</ele><time>2026-04-06T09:54:55.66Z</time></trkpt><trkpt lat="43.5802967" lon="10.7046133"><ele>37.0</ele><time>2026-04-06T09:54:56.659Z</time></trkpt><trkpt lat="43.5803767" lon="10.7046117"><ele>37.0</ele><time>2026-04-06T09:54:57.659Z</time></trkpt><trkpt lat="43.580465" lon="10.704605"><ele>37.0</ele><time>2026-04-06T09:54:58.659Z</time></trkpt><trkpt lat="43.5805683" lon="10.704585"><ele>37.0</ele><time>2026-04-06T09:54:59.659Z</time></trkpt><trkpt lat="43.5806717" lon="10.7045417"><ele>37.0</ele><time>2026-04-06T09:55:00.659Z</time></trkpt><trkpt lat="43.5807767" lon="10.70448"><ele>37.0</ele><time>2026-04-06T09:55:01.659Z</time></trkpt><trkpt lat="43.5808833" lon="10.70441"><ele>37.0</ele><time>2026-04-06T09:55:02.66Z</time></trkpt><trkpt lat="43.5809933" lon="10.7043383"><ele>37.0</ele><time>2026-04-06T09:55:03.659Z</time></trkpt><trkpt lat="43.58111" lon="10.7042667"><ele>37.0</ele><time>2026-04-06T09:55:04.659Z</time></trkpt><trkpt lat="43.58123" lon="10.7041967"><ele>37.0</ele><time>2026-04-06T09:55:05.659Z</time></trkpt><trkpt lat="43.5813517" lon="10.7041283"><ele>37.0</ele><time>2026-04-06T09:55:06.659Z</time></trkpt><trkpt lat="43.58148" lon="10.7040617"><ele>36.75</ele><time>2026-04-06T09:55:07.659Z</time></trkpt><trkpt lat="43.58161" lon="10.7039983"><ele>36.5</ele><time>2026-04-06T09:55:08.66Z</time></trkpt><trkpt lat="43.581745" lon="10.70394"><ele>36.25</ele><time>2026-04-06T09:55:09.659Z</time></trkpt><trkpt lat="43.581885" lon="10.7038817"><ele>36.0</ele><time>2026-04-06T09:55:10.659Z</time></trkpt><trkpt lat="43.5820283" lon="10.7038267"><ele>35.333333333333336</ele><time>2026-04-06T09:55:11.659Z</time></trkpt><trkpt lat="43.582175" lon="10.7037733"><ele>34.66666666666667</ele><time>2026-04-06T09:55:12.659Z</time></trkpt><trkpt lat="43.5823233" lon="10.7037217"><ele>34.0</ele><time>2026-04-06T09:55:13.659Z</time></trkpt><trkpt lat="43.58247" lon="10.7036717"><ele>34.0</ele><time>2026-04-06T09:55:14.659Z</time></trkpt><trkpt lat="43.5826167" lon="10.7036167"><ele>34.0</ele><time>2026-04-06T09:55:15.659Z</time></trkpt><trkpt lat="43.5827667" lon="10.7035633"><ele>34.0</ele><time>2026-04-06T09:55:16.659Z</time></trkpt><trkpt lat="43.5829167" lon="10.7035133"><ele>35.0</ele><time>2026-04-06T09:55:17.66Z</time></trkpt><trkpt lat="43.5830667" lon="10.7034633"><ele>36.0</ele><time>2026-04-06T09:55:18.659Z</time></trkpt><trkpt lat="43.583215" lon="10.703415"><ele>37.0</ele><time>2026-04-06T09:55:19.66Z</time></trkpt><trkpt lat="43.58336" lon="10.7033667"><ele>37.0</ele><time>2026-04-06T09:55:20.659Z</time></trkpt><trkpt lat="43.5835067" lon="10.7033183"><ele>37.0</ele><time>2026-04-06T09:55:21.659Z</time></trkpt><trkpt lat="43.5836517" lon="10.7032667"><ele>37.0</ele><time>2026-04-06T09:55:22.659Z</time></trkpt><trkpt lat="43.5837967" lon="10.7032167"><ele>36.66666666666667</ele><time>2026-04-06T09:55:23.659Z</time></trkpt><trkpt lat="43.5839417" lon="10.7031667"><ele>36.333333333333336</ele><time>2026-04-06T09:55:24.659Z</time></trkpt><trkpt lat="43.5840867" lon="10.7031183"><ele>36.0</ele><time>2026-04-06T09:55:25.659Z</time></trkpt><trkpt lat="43.584235" lon="10.7030683"><ele>36.0</ele><time>2026-04-06T09:55:26.659Z</time></trkpt><trkpt lat="43.58438" lon="10.70302"><ele>36.0</ele><time>2026-04-06T09:55:27.659Z</time></trkpt><trkpt lat="43.5845267" lon="10.70297"><ele>36.0</ele><time>2026-04-06T09:55:28.659Z</time></trkpt><trkpt lat="43.5846767" lon="10.7029183"><ele>36.0</ele><time>2026-04-06T09:55:29.659Z</time></trkpt><trkpt lat="43.584825" lon="10.7028683"><ele>36.0</ele><time>2026-04-06T09:55:30.659Z</time></trkpt><trkpt lat="43.5849717" lon="10.702815"><ele>36.0</ele><time>2026-04-06T09:55:31.659Z</time></trkpt><trkpt lat="43.5851217" lon="10.7027633"><ele>35.666666666666664</ele><time>2026-04-06T09:55:32.659Z</time></trkpt><trkpt lat="43.585275" lon="10.7027117"><ele>35.33333333333333</ele><time>2026-04-06T09:55:33.659Z</time></trkpt><trkpt lat="43.5854283" lon="10.7026617"><ele>35.0</ele><time>2026-04-06T09:55:34.659Z</time></trkpt><trkpt lat="43.58558" lon="10.70261"><ele>34.666666666666664</ele><time>2026-04-06T09:55:35.659Z</time></trkpt><trkpt lat="43.5857333" lon="10.70256"><ele>34.333333333333336</ele><time>2026-04-06T09:55:36.659Z</time></trkpt><trkpt lat="43.5858867" lon="10.70251"><ele>34.0</ele><time>2026-04-06T09:55:37.659Z</time></trkpt><trkpt lat="43.58604" lon="10.7024583"><ele>34.333333333333336</ele><time>2026-04-06T09:55:38.659Z</time></trkpt><trkpt lat="43.5861933" lon="10.702405"><ele>34.666666666666664</ele><time>2026-04-06T09:55:39.659Z</time></trkpt><trkpt lat="43.5863483" lon="10.70235"><ele>35.0</ele><time>2026-04-06T09:55:40.659Z</time></trkpt><trkpt lat="43.586505" lon="10.7022983"><ele>35.0</ele><time>2026-04-06T09:55:41.659Z</time></trkpt><trkpt lat="43.5866583" lon="10.7022467"><ele>35.0</ele><time>2026-04-06T09:55:42.659Z</time></trkpt><trkpt lat="43.586815" lon="10.7021933"><ele>35.0</ele><time>2026-04-06T09:55:43.659Z</time></trkpt><trkpt lat="43.5869717" lon="10.70214"><ele>35.666666666666664</ele><time>2026-04-06T09:55:44.659Z</time></trkpt><trkpt lat="43.587125" lon="10.7020883"><ele>36.333333333333336</ele><time>2026-04-06T09:55:45.659Z</time></trkpt><trkpt lat="43.5872767" lon="10.702035"><ele>37.0</ele><time>2026-04-06T09:55:46.659Z</time></trkpt><trkpt lat="43.58743" lon="10.70198"><ele>37.0</ele><time>2026-04-06T09:55:47.659Z</time></trkpt><trkpt lat="43.587585" lon="10.7019283"><ele>37.0</ele><time>2026-04-06T09:55:48.659Z</time></trkpt><trkpt lat="43.5877417" lon="10.701875"><ele>37.0</ele><time>2026-04-06T09:55:49.659Z</time></trkpt><trkpt lat="43.5878967" lon="10.7018217"><ele>36.66666666666667</ele><time>2026-04-06T09:55:50.659Z</time></trkpt><trkpt lat="43.5880533" lon="10.70177"><ele>36.333333333333336</ele><time>2026-04-06T09:55:51.659Z</time></trkpt><trkpt lat="43.5882083" lon="10.7017167"><ele>36.0</ele><time>2026-04-06T09:55:52.659Z</time></trkpt><trkpt lat="43.5883633" lon="10.7016617"><ele>36.0</ele><time>2026-04-06T09:55:53.659Z</time></trkpt><trkpt lat="43.5885217" lon="10.7016083"><ele>36.0</ele><time>2026-04-06T09:55:54.659Z</time></trkpt><trkpt lat="43.5886833" lon="10.701555"><ele>36.0</ele><time>2026-04-06T09:55:55.659Z</time></trkpt><trkpt lat="43.5888433" lon="10.7015"><ele>36.333333333333336</ele><time>2026-04-06T09:55:56.66Z</time></trkpt><trkpt lat="43.5890017" lon="10.701445"><ele>36.66666666666667</ele><time>2026-04-06T09:55:57.659Z</time></trkpt><trkpt lat="43.5891617" lon="10.7013917"><ele>37.0</ele><time>2026-04-06T09:55:58.659Z</time></trkpt><trkpt lat="43.5893233" lon="10.7013367"><ele>37.0</ele><time>2026-04-06T09:55:59.659Z</time></trkpt><trkpt lat="43.5894867" lon="10.70128"><ele>37.0</ele><time>2026-04-06T09:56:00.66Z</time></trkpt><trkpt lat="43.5896483" lon="10.7012217"><ele>37.0</ele><time>2026-04-06T09:56:01.659Z</time></trkpt><trkpt lat="43.58981" lon="10.7011633"><ele>36.66666666666667</ele><time>2026-04-06T09:56:02.659Z</time></trkpt><trkpt lat="43.58997" lon="10.7011033"><ele>36.333333333333336</ele><time>2026-04-06T09:56:03.659Z</time></trkpt><trkpt lat="43.5901317" lon="10.7010417"><ele>36.0</ele><time>2026-04-06T09:56:04.659Z</time></trkpt><trkpt lat="43.590295" lon="10.7009783"><ele>35.0</ele><time>2026-04-06T09:56:05.659Z</time></trkpt><trkpt lat="43.590455" lon="10.7009117"><ele>34.0</ele><time>2026-04-06T09:56:06.659Z</time></trkpt><trkpt lat="43.5906167" lon="10.7008417"><ele>33.0</ele><time>2026-04-06T09:56:07.66Z</time></trkpt><trkpt lat="43.5907767" lon="10.7007667"><ele>33.0</ele><time>2026-04-06T09:56:08.659Z</time></trkpt><trkpt lat="43.5909367" lon="10.7006867"><ele>33.0</ele><time>2026-04-06T09:56:09.659Z</time></trkpt><trkpt lat="43.5911" lon="10.7006"><ele>33.0</ele><time>2026-04-06T09:56:10.659Z</time></trkpt><trkpt lat="43.5912617" lon="10.7005117"><ele>33.666666666666664</ele><time>2026-04-06T09:56:11.659Z</time></trkpt><trkpt lat="43.5914217" lon="10.7004267"><ele>34.33333333333333</ele><time>2026-04-06T09:56:12.659Z</time></trkpt><trkpt lat="43.5915817" lon="10.70034"><ele>35.0</ele><time>2026-04-06T09:56:13.659Z</time></trkpt><trkpt lat="43.5917433" lon="10.7002483"><ele>35.33333333333333</ele><time>2026-04-06T09:56:14.659Z</time></trkpt><trkpt lat="43.5919033" lon="10.7001567"><ele>35.666666666666664</ele><time>2026-04-06T09:56:15.659Z</time></trkpt><trkpt lat="43.5920617" lon="10.700065"><ele>36.0</ele><time>2026-04-06T09:56:16.659Z</time></trkpt><trkpt lat="43.5922233" lon="10.6999717"><ele>35.0</ele><time>2026-04-06T09:56:17.659Z</time></trkpt><trkpt lat="43.59254" lon="10.6997833"><ele>34.0</ele><time>2026-04-06T09:56:19.659Z</time></trkpt><trkpt lat="43.5926983" lon="10.69969"><ele>34.0</ele><time>2026-04-06T09:56:20.659Z</time></trkpt><trkpt lat="43.59286" lon="10.699595"><ele>34.0</ele><time>2026-04-06T09:56:21.66Z</time></trkpt><trkpt lat="43.593015" lon="10.6995"><ele>34.0</ele><time>2026-04-06T09:56:22.659Z</time></trkpt><trkpt lat="43.5931717" lon="10.6994033"><ele>34.333333333333336</ele><time>2026-04-06T09:56:23.66Z</time></trkpt><trkpt lat="43.5933283" lon="10.699305"><ele>34.666666666666664</ele><time>2026-04-06T09:56:24.659Z</time></trkpt><trkpt lat="43.593485" lon="10.69921"><ele>35.0</ele><time>2026-04-06T09:56:25.659Z</time></trkpt><trkpt lat="43.59364" lon="10.6991167"><ele>35.33333333333333</ele><time>2026-04-06T09:56:26.659Z</time></trkpt><trkpt lat="43.5937933" lon="10.6990217"><ele>35.666666666666664</ele><time>2026-04-06T09:56:27.659Z</time></trkpt><trkpt lat="43.593945" lon="10.6989283"><ele>36.0</ele><time>2026-04-06T09:56:28.659Z</time></trkpt><trkpt lat="43.5940983" lon="10.6988333"><ele>36.0</ele><time>2026-04-06T09:56:29.659Z</time></trkpt><trkpt lat="43.5942533" lon="10.6987417"><ele>36.0</ele><time>2026-04-06T09:56:30.659Z</time></trkpt><trkpt lat="43.5944117" lon="10.6986483"><ele>36.0</ele><time>2026-04-06T09:56:31.659Z</time></trkpt><trkpt lat="43.5945633" lon="10.6985517"><ele>35.333333333333336</ele><time>2026-04-06T09:56:32.659Z</time></trkpt><trkpt lat="43.5947183" lon="10.6984567"><ele>34.66666666666667</ele><time>2026-04-06T09:56:33.659Z</time></trkpt><trkpt lat="43.5948733" lon="10.698365"><ele>34.0</ele><time>2026-04-06T09:56:34.659Z</time></trkpt><trkpt lat="43.5950283" lon="10.6982717"><ele>34.0</ele><time>2026-04-06T09:56:35.659Z</time></trkpt><trkpt lat="43.595185" lon="10.69818"><ele>34.0</ele><time>2026-04-06T09:56:36.659Z</time></trkpt><trkpt lat="43.595345" lon="10.698085"><ele>34.0</ele><time>2026-04-06T09:56:37.659Z</time></trkpt><trkpt lat="43.5956633" lon="10.697895"><ele>34.333333333333336</ele><time>2026-04-06T09:56:39.66Z</time></trkpt><trkpt lat="43.59582" lon="10.6977983"><ele>34.666666666666664</ele><time>2026-04-06T09:56:40.66Z</time></trkpt><trkpt lat="43.5959783" lon="10.6977"><ele>35.0</ele><time>2026-04-06T09:56:41.658Z</time></trkpt><trkpt lat="43.596135" lon="10.6976017"><ele>34.666666666666664</ele><time>2026-04-06T09:56:42.658Z</time></trkpt><trkpt lat="43.5962933" lon="10.697505"><ele>34.333333333333336</ele><time>2026-04-06T09:56:43.658Z</time></trkpt><trkpt lat="43.5964533" lon="10.6974083"><ele>34.0</ele><time>2026-04-06T09:56:44.658Z</time></trkpt><trkpt lat="43.596615" lon="10.69731"><ele>34.0</ele><time>2026-04-06T09:56:45.658Z</time></trkpt><trkpt lat="43.596775" lon="10.6972117"><ele>34.0</ele><time>2026-04-06T09:56:46.658Z</time></trkpt><trkpt lat="43.5969367" lon="10.6971117"><ele>34.0</ele><time>2026-04-06T09:56:47.659Z</time></trkpt><trkpt lat="43.5970983" lon="10.69701"><ele>34.0</ele><time>2026-04-06T09:56:48.658Z</time></trkpt><trkpt lat="43.5972633" lon="10.696905"><ele>34.0</ele><time>2026-04-06T09:56:49.658Z</time></trkpt><trkpt lat="43.5974283" lon="10.6968033"><ele>34.0</ele><time>2026-04-06T09:56:50.658Z</time></trkpt><trkpt lat="43.5975917" lon="10.6967033"><ele>34.0</ele><time>2026-04-06T09:56:51.658Z</time></trkpt><trkpt lat="43.5977533" lon="10.696605"><ele>34.0</ele><time>2026-04-06T09:56:52.658Z</time></trkpt><trkpt lat="43.5979167" lon="10.696505"><ele>34.0</ele><time>2026-04-06T09:56:53.658Z</time></trkpt><trkpt lat="43.598075" lon="10.6964033"><ele>33.66666666666667</ele><time>2026-04-06T09:56:54.658Z</time></trkpt><trkpt lat="43.5982367" lon="10.6963033"><ele>33.333333333333336</ele><time>2026-04-06T09:56:55.659Z</time></trkpt><trkpt lat="43.5983933" lon="10.6962033"><ele>33.0</ele><time>2026-04-06T09:56:56.658Z</time></trkpt><trkpt lat="43.59855" lon="10.6961067"><ele>33.333333333333336</ele><time>2026-04-06T09:56:57.658Z</time></trkpt><trkpt lat="43.5987017" lon="10.6960067"><ele>33.66666666666667</ele><time>2026-04-06T09:56:58.659Z</time></trkpt><trkpt lat="43.5988483" lon="10.6959067"><ele>34.0</ele><time>2026-04-06T09:56:59.658Z</time></trkpt><trkpt lat="43.5989883" lon="10.6958117"><ele>34.0</ele><time>2026-04-06T09:57:00.658Z</time></trkpt><trkpt lat="43.5991267" lon="10.6957183"><ele>34.0</ele><time>2026-04-06T09:57:01.658Z</time></trkpt><trkpt lat="43.5992617" lon="10.6956267"><ele>34.0</ele><time>2026-04-06T09:57:02.658Z</time></trkpt><trkpt lat="43.59939" lon="10.69554"><ele>34.0</ele><time>2026-04-06T09:57:03.658Z</time></trkpt><trkpt lat="43.5995133" lon="10.6954567"><ele>33.75</ele><time>2026-04-06T09:57:04.658Z</time></trkpt><trkpt lat="43.5996283" lon="10.69538"><ele>33.5</ele><time>2026-04-06T09:57:05.658Z</time></trkpt><trkpt lat="43.599735" lon="10.695305"><ele>33.25</ele><time>2026-04-06T09:57:06.658Z</time></trkpt><trkpt lat="43.599835" lon="10.6952383"><ele>33.0</ele><time>2026-04-06T09:57:07.658Z</time></trkpt><trkpt lat="43.5999267" lon="10.695175"><ele>33.0</ele><time>2026-04-06T09:57:08.659Z</time></trkpt><trkpt lat="43.60001" lon="10.69512"><ele>33.0</ele><time>2026-04-06T09:57:09.659Z</time></trkpt><trkpt lat="43.6000867" lon="10.695075"><ele>33.0</ele><time>2026-04-06T09:57:10.658Z</time></trkpt><trkpt lat="43.6001533" lon="10.695035"><ele>33.0</ele><time>2026-04-06T09:57:11.659Z</time></trkpt><trkpt lat="43.6002183" lon="10.69501"><ele>33.0</ele><time>2026-04-06T09:57:12.659Z</time></trkpt><trkpt lat="43.6002833" lon="10.6950033"><ele>33.0</ele><time>2026-04-06T09:57:13.658Z</time></trkpt><trkpt lat="43.6003483" lon="10.695015"><ele>33.0</ele><time>2026-04-06T09:57:14.658Z</time></trkpt><trkpt lat="43.60042" lon="10.6950267"><ele>32.8</ele><time>2026-04-06T09:57:15.658Z</time></trkpt><trkpt lat="43.600495" lon="10.6950217"><ele>32.599999999999994</ele><time>2026-04-06T09:57:16.658Z</time></trkpt><trkpt lat="43.6005683" lon="10.69499"><ele>32.400000000000006</ele><time>2026-04-06T09:57:17.658Z</time></trkpt><trkpt lat="43.60069" lon="10.6948517"><ele>32.2</ele><time>2026-04-06T09:57:19.658Z</time></trkpt><trkpt lat="43.600745" lon="10.69477"><ele>32.0</ele><time>2026-04-06T09:57:20.658Z</time></trkpt><trkpt lat="43.600805" lon="10.694695"><ele>32.0</ele><time>2026-04-06T09:57:21.658Z</time></trkpt><trkpt lat="43.60088" lon="10.694635"><ele>32.0</ele><time>2026-04-06T09:57:22.658Z</time></trkpt><trkpt lat="43.6009717" lon="10.69459"><ele>32.0</ele><time>2026-04-06T09:57:23.658Z</time></trkpt><trkpt lat="43.6010733" lon="10.69456"><ele>32.0</ele><time>2026-04-06T09:57:24.658Z</time></trkpt><trkpt lat="43.6011783" lon="10.6945283"><ele>32.0</ele><time>2026-04-06T09:57:25.658Z</time></trkpt><trkpt lat="43.6012883" lon="10.69449"><ele>32.25</ele><time>2026-04-06T09:57:26.658Z</time></trkpt><trkpt lat="43.6014067" lon="10.6944467"><ele>32.5</ele><time>2026-04-06T09:57:27.658Z</time></trkpt><trkpt lat="43.60153" lon="10.694405"><ele>32.75</ele><time>2026-04-06T09:57:28.658Z</time></trkpt><trkpt lat="43.60165" lon="10.694365"><ele>33.0</ele><time>2026-04-06T09:57:29.658Z</time></trkpt><trkpt lat="43.60177" lon="10.6943283"><ele>33.0</ele><time>2026-04-06T09:57:30.658Z</time></trkpt><trkpt lat="43.60189" lon="10.6942917"><ele>33.0</ele><time>2026-04-06T09:57:31.658Z</time></trkpt><trkpt lat="43.60201" lon="10.6942567"><ele>33.0</ele><time>2026-04-06T09:57:32.658Z</time></trkpt><trkpt lat="43.60213" lon="10.69422"><ele>33.0</ele><time>2026-04-06T09:57:33.658Z</time></trkpt><trkpt lat="43.6022517" lon="10.69418"><ele>33.0</ele><time>2026-04-06T09:57:34.658Z</time></trkpt><trkpt lat="43.6023767" lon="10.694135"><ele>33.0</ele><time>2026-04-06T09:57:35.658Z</time></trkpt><trkpt lat="43.602505" lon="10.6940867"><ele>33.0</ele><time>2026-04-06T09:57:36.658Z</time></trkpt><trkpt lat="43.602635" lon="10.6940317"><ele>33.0</ele><time>2026-04-06T09:57:37.658Z</time></trkpt><trkpt lat="43.6030517" lon="10.6938167"><ele>33.0</ele><time>2026-04-06T09:57:40.659Z</time></trkpt><trkpt lat="43.6031967" lon="10.693725"><ele>33.0</ele><time>2026-04-06T09:57:41.659Z</time></trkpt><trkpt lat="43.6033367" lon="10.6936217"><ele>33.0</ele><time>2026-04-06T09:57:42.659Z</time></trkpt><trkpt lat="43.6034733" lon="10.6935167"><ele>33.333333333333336</ele><time>2026-04-06T09:57:43.658Z</time></trkpt><trkpt lat="43.6036083" lon="10.693405"><ele>33.66666666666667</ele><time>2026-04-06T09:57:44.658Z</time></trkpt><trkpt lat="43.603745" lon="10.6932867"><ele>34.0</ele><time>2026-04-06T09:57:45.658Z</time></trkpt><trkpt lat="43.60388" lon="10.6931567"><ele>33.66666666666667</ele><time>2026-04-06T09:57:46.658Z</time></trkpt><trkpt lat="43.60401" lon="10.6930183"><ele>33.333333333333336</ele><time>2026-04-06T09:57:47.658Z</time></trkpt><trkpt lat="43.604135" lon="10.6928717"><ele>33.0</ele><time>2026-04-06T09:57:48.658Z</time></trkpt><trkpt lat="43.6042533" lon="10.69272"><ele>33.0</ele><time>2026-04-06T09:57:49.658Z</time></trkpt><trkpt lat="43.604365" lon="10.6925617"><ele>33.0</ele><time>2026-04-06T09:57:50.658Z</time></trkpt><trkpt lat="43.6044767" lon="10.6923983"><ele>33.0</ele><time>2026-04-06T09:57:51.659Z</time></trkpt><trkpt lat="43.6045833" lon="10.6922283"><ele>32.333333333333336</ele><time>2026-04-06T09:57:52.658Z</time></trkpt><trkpt lat="43.6046883" lon="10.6920533"><ele>31.666666666666668</ele><time>2026-04-06T09:57:53.659Z</time></trkpt><trkpt lat="43.60479" lon="10.69188"><ele>31.0</ele><time>2026-04-06T09:57:54.658Z</time></trkpt><trkpt lat="43.6048917" lon="10.6917083"><ele>31.0</ele><time>2026-04-06T09:57:55.658Z</time></trkpt><trkpt lat="43.6049917" lon="10.6915367"><ele>31.0</ele><time>2026-04-06T09:57:56.658Z</time></trkpt><trkpt lat="43.605095" lon="10.6913683"><ele>31.0</ele><time>2026-04-06T09:57:57.658Z</time></trkpt><trkpt lat="43.6054283" lon="10.690915"><ele>31.0</ele><time>2026-04-06T09:58:00.658Z</time></trkpt><trkpt lat="43.60555" lon="10.6907833"><ele>31.0</ele><time>2026-04-06T09:58:01.658Z</time></trkpt><trkpt lat="43.6056717" lon="10.6906683"><ele>31.0</ele><time>2026-04-06T09:58:02.659Z</time></trkpt><trkpt lat="43.6058033" lon="10.6905683"><ele>31.0</ele><time>2026-04-06T09:58:03.658Z</time></trkpt><trkpt lat="43.6059367" lon="10.690475"><ele>31.0</ele><time>2026-04-06T09:58:04.659Z</time></trkpt><trkpt lat="43.606075" lon="10.6903883"><ele>31.0</ele><time>2026-04-06T09:58:05.658Z</time></trkpt><trkpt lat="43.6062133" lon="10.690315"><ele>31.666666666666668</ele><time>2026-04-06T09:58:06.658Z</time></trkpt><trkpt lat="43.60636" lon="10.69025"><ele>32.333333333333336</ele><time>2026-04-06T09:58:07.658Z</time></trkpt><trkpt lat="43.60651" lon="10.6901933"><ele>33.0</ele><time>2026-04-06T09:58:08.658Z</time></trkpt><trkpt lat="43.6066617" lon="10.69015"><ele>33.0</ele><time>2026-04-06T09:58:09.658Z</time></trkpt><trkpt lat="43.606815" lon="10.6901183"><ele>33.0</ele><time>2026-04-06T09:58:10.658Z</time></trkpt><trkpt lat="43.60697" lon="10.6901"><ele>33.0</ele><time>2026-04-06T09:58:11.659Z</time></trkpt><trkpt lat="43.607125" lon="10.6900883"><ele>32.0</ele><time>2026-04-06T09:58:12.658Z</time></trkpt><trkpt lat="43.6072767" lon="10.6900883"><ele>31.0</ele><time>2026-04-06T09:58:13.659Z</time></trkpt><trkpt lat="43.607425" lon="10.6900933"><ele>30.0</ele><time>2026-04-06T09:58:14.658Z</time></trkpt><trkpt lat="43.6075633" lon="10.6900983"><ele>29.0</ele><time>2026-04-06T09:58:15.658Z</time></trkpt><trkpt lat="43.6076983" lon="10.6901067"><ele>29.0</ele><time>2026-04-06T09:58:16.659Z</time></trkpt><trkpt lat="43.6078267" lon="10.6901183"><ele>29.0</ele><time>2026-04-06T09:58:17.658Z</time></trkpt><trkpt lat="43.6079517" lon="10.69013"><ele>29.0</ele><time>2026-04-06T09:58:18.658Z</time></trkpt><trkpt lat="43.6080717" lon="10.6901383"><ele>29.0</ele><time>2026-04-06T09:58:19.658Z</time></trkpt><trkpt lat="43.6081883" lon="10.690145"><ele>28.799999999999997</ele><time>2026-04-06T09:58:20.658Z</time></trkpt><trkpt lat="43.6083033" lon="10.69015"><ele>28.599999999999998</ele><time>2026-04-06T09:58:21.658Z</time></trkpt><trkpt lat="43.608415" lon="10.6901517"><ele>28.4</ele><time>2026-04-06T09:58:22.658Z</time></trkpt><trkpt lat="43.60852" lon="10.6901533"><ele>28.2</ele><time>2026-04-06T09:58:23.658Z</time></trkpt><trkpt lat="43.6086183" lon="10.690155"><ele>28.0</ele><time>2026-04-06T09:58:24.658Z</time></trkpt><trkpt lat="43.6087117" lon="10.69015"><ele>28.666666666666668</ele><time>2026-04-06T09:58:25.659Z</time></trkpt><trkpt lat="43.6087967" lon="10.6901433"><ele>29.333333333333336</ele><time>2026-04-06T09:58:26.658Z</time></trkpt><trkpt lat="43.6088767" lon="10.690135"><ele>30.0</ele><time>2026-04-06T09:58:27.659Z</time></trkpt><trkpt lat="43.6089467" lon="10.6901283"><ele>30.666666666666664</ele><time>2026-04-06T09:58:28.659Z</time></trkpt><trkpt lat="43.6090117" lon="10.6901167"><ele>31.333333333333332</ele><time>2026-04-06T09:58:29.658Z</time></trkpt><trkpt lat="43.60913" lon="10.6901117"><ele>32.0</ele><time>2026-04-06T09:58:31.658Z</time></trkpt><trkpt lat="43.6092333" lon="10.690135"><ele>32.0</ele><time>2026-04-06T09:58:33.658Z</time></trkpt><trkpt lat="43.6093417" lon="10.6902017"><ele>32.0</ele><time>2026-04-06T09:58:35.658Z</time></trkpt><trkpt lat="43.609405" lon="10.690235"><ele>32.0</ele><time>2026-04-06T09:58:36.658Z</time></trkpt><trkpt lat="43.6094683" lon="10.6902433"><ele>32.0</ele><time>2026-04-06T09:58:37.658Z</time></trkpt><trkpt lat="43.60963" lon="10.6900917"><ele>32.0</ele><time>2026-04-06T09:58:40.659Z</time></trkpt><trkpt lat="43.60968" lon="10.6900133"><ele>32.2</ele><time>2026-04-06T09:58:41.658Z</time></trkpt><trkpt lat="43.6097467" lon="10.68993"><ele>32.400000000000006</ele><time>2026-04-06T09:58:42.658Z</time></trkpt><trkpt lat="43.609825" lon="10.689845"><ele>32.599999999999994</ele><time>2026-04-06T09:58:43.658Z</time></trkpt><trkpt lat="43.6099083" lon="10.6897483"><ele>32.8</ele><time>2026-04-06T09:58:44.658Z</time></trkpt><trkpt lat="43.609995" lon="10.6896383"><ele>33.0</ele><time>2026-04-06T09:58:45.658Z</time></trkpt><trkpt lat="43.610085" lon="10.6895083"><ele>32.0</ele><time>2026-04-06T09:58:46.659Z</time></trkpt><trkpt lat="43.6101817" lon="10.6893633"><ele>31.0</ele><time>2026-04-06T09:58:47.658Z</time></trkpt><trkpt lat="43.610285" lon="10.6892"><ele>30.0</ele><time>2026-04-06T09:58:48.658Z</time></trkpt><trkpt lat="43.6103817" lon="10.689035"><ele>32.0</ele><time>2026-04-06T09:58:49.658Z</time></trkpt><trkpt lat="43.6104633" lon="10.6888717"><ele>34.0</ele><time>2026-04-06T09:58:50.659Z</time></trkpt><trkpt lat="43.6105333" lon="10.6887033"><ele>36.0</ele><time>2026-04-06T09:58:51.659Z</time></trkpt><trkpt lat="43.6106" lon="10.6885367"><ele>38.0</ele><time>2026-04-06T09:58:52.659Z</time></trkpt><trkpt lat="43.6106633" lon="10.6883717"><ele>38.0</ele><time>2026-04-06T09:58:53.659Z</time></trkpt><trkpt lat="43.6107267" lon="10.6882083"><ele>38.0</ele><time>2026-04-06T09:58:54.659Z</time></trkpt><trkpt lat="43.6107867" lon="10.6880483"><ele>38.0</ele><time>2026-04-06T09:58:55.658Z</time></trkpt><trkpt lat="43.6108467" lon="10.6878917"><ele>38.0</ele><time>2026-04-06T09:58:56.658Z</time></trkpt><trkpt lat="43.6109067" lon="10.6877333"><ele>37.0</ele><time>2026-04-06T09:58:57.658Z</time></trkpt><trkpt lat="43.6109683" lon="10.6875767"><ele>36.0</ele><time>2026-04-06T09:58:58.658Z</time></trkpt><trkpt lat="43.6110367" lon="10.6874183"><ele>35.0</ele><time>2026-04-06T09:58:59.658Z</time></trkpt><trkpt lat="43.6111" lon="10.6872567"><ele>34.0</ele><time>2026-04-06T09:59:00.658Z</time></trkpt><trkpt lat="43.6111717" lon="10.6870917"><ele>35.5</ele><time>2026-04-06T09:59:01.658Z</time></trkpt><trkpt lat="43.611245" lon="10.6869267"><ele>37.0</ele><time>2026-04-06T09:59:02.658Z</time></trkpt><trkpt lat="43.61132" lon="10.6867617"><ele>38.5</ele><time>2026-04-06T09:59:03.658Z</time></trkpt><trkpt lat="43.6113967" lon="10.6865967"><ele>40.0</ele><time>2026-04-06T09:59:04.658Z</time></trkpt><trkpt lat="43.6114767" lon="10.686435"><ele>40.0</ele><time>2026-04-06T09:59:05.658Z</time></trkpt><trkpt lat="43.6115533" lon="10.6862733"><ele>40.0</ele><time>2026-04-06T09:59:06.658Z</time></trkpt><trkpt lat="43.6116283" lon="10.6861067"><ele>40.0</ele><time>2026-04-06T09:59:07.658Z</time></trkpt><trkpt lat="43.6117033" lon="10.6859383"><ele>40.0</ele><time>2026-04-06T09:59:08.658Z</time></trkpt><trkpt lat="43.6117783" lon="10.685765"><ele>40.0</ele><time>2026-04-06T09:59:09.658Z</time></trkpt><trkpt lat="43.611855" lon="10.6855917"><ele>40.0</ele><time>2026-04-06T09:59:10.658Z</time></trkpt><trkpt lat="43.6119283" lon="10.68542"><ele>40.0</ele><time>2026-04-06T09:59:11.658Z</time></trkpt><trkpt lat="43.612" lon="10.68525"><ele>40.0</ele><time>2026-04-06T09:59:12.659Z</time></trkpt><trkpt lat="43.6120733" lon="10.6850767"><ele>40.0</ele><time>2026-04-06T09:59:13.658Z</time></trkpt><trkpt lat="43.6121467" lon="10.6849067"><ele>40.0</ele><time>2026-04-06T09:59:14.658Z</time></trkpt><trkpt lat="43.6122167" lon="10.684735"><ele>40.0</ele><time>2026-04-06T09:59:15.659Z</time></trkpt><trkpt lat="43.6122883" lon="10.6845667"><ele>40.0</ele><time>2026-04-06T09:59:16.659Z</time></trkpt><trkpt lat="43.6123583" lon="10.6843967"><ele>37.5</ele><time>2026-04-06T09:59:17.658Z</time></trkpt><trkpt lat="43.612595" lon="10.6838783"><ele>35.0</ele><time>2026-04-06T09:59:20.658Z</time></trkpt><trkpt lat="43.6126767" lon="10.683705"><ele>35.25</ele><time>2026-04-06T09:59:21.658Z</time></trkpt><trkpt lat="43.6127583" lon="10.683535"><ele>35.5</ele><time>2026-04-06T09:59:22.658Z</time></trkpt><trkpt lat="43.6128383" lon="10.68337"><ele>35.75</ele><time>2026-04-06T09:59:23.659Z</time></trkpt><trkpt lat="43.61292" lon="10.6832033"><ele>36.0</ele><time>2026-04-06T09:59:24.658Z</time></trkpt><trkpt lat="43.6130067" lon="10.6830367"><ele>36.0</ele><time>2026-04-06T09:59:25.658Z</time></trkpt><trkpt lat="43.6130933" lon="10.6828617"><ele>36.0</ele><time>2026-04-06T09:59:26.658Z</time></trkpt><trkpt lat="43.6131867" lon="10.682675"><ele>36.0</ele><time>2026-04-06T09:59:27.658Z</time></trkpt><trkpt lat="43.61328" lon="10.68248"><ele>36.0</ele><time>2026-04-06T09:59:28.658Z</time></trkpt><trkpt lat="43.61337" lon="10.682285"><ele>36.0</ele><time>2026-04-06T09:59:29.659Z</time></trkpt><trkpt lat="43.613465" lon="10.6821017"><ele>36.0</ele><time>2026-04-06T09:59:30.658Z</time></trkpt><trkpt lat="43.6135583" lon="10.6819267"><ele>35.666666666666664</ele><time>2026-04-06T09:59:31.658Z</time></trkpt><trkpt lat="43.6136517" lon="10.6817483"><ele>35.33333333333333</ele><time>2026-04-06T09:59:32.658Z</time></trkpt><trkpt lat="43.6137433" lon="10.68157"><ele>35.0</ele><time>2026-04-06T09:59:33.658Z</time></trkpt><trkpt lat="43.6138317" lon="10.6813967"><ele>34.666666666666664</ele><time>2026-04-06T09:59:34.658Z</time></trkpt><trkpt lat="43.6139217" lon="10.6812267"><ele>34.333333333333336</ele><time>2026-04-06T09:59:35.658Z</time></trkpt><trkpt lat="43.61401" lon="10.6810567"><ele>34.0</ele><time>2026-04-06T09:59:36.658Z</time></trkpt><trkpt lat="43.6140983" lon="10.6808867"><ele>34.0</ele><time>2026-04-06T09:59:37.659Z</time></trkpt><trkpt lat="43.6141883" lon="10.6807217"><ele>34.0</ele><time>2026-04-06T09:59:38.658Z</time></trkpt><trkpt lat="43.6142767" lon="10.6805567"><ele>34.0</ele><time>2026-04-06T09:59:39.658Z</time></trkpt><trkpt lat="43.6143617" lon="10.68039"><ele>34.0</ele><time>2026-04-06T09:59:40.658Z</time></trkpt><trkpt lat="43.614445" lon="10.6802233"><ele>33.75</ele><time>2026-04-06T09:59:41.659Z</time></trkpt><trkpt lat="43.6145283" lon="10.6800567"><ele>33.5</ele><time>2026-04-06T09:59:42.658Z</time></trkpt><trkpt lat="43.6146133" lon="10.67989"><ele>33.25</ele><time>2026-04-06T09:59:43.658Z</time></trkpt><trkpt lat="43.6146983" lon="10.6797283"><ele>33.0</ele><time>2026-04-06T09:59:44.658Z</time></trkpt><trkpt lat="43.6147817" lon="10.6795667"><ele>32.25</ele><time>2026-04-06T09:59:45.658Z</time></trkpt><trkpt lat="43.6148633" lon="10.679405"><ele>31.5</ele><time>2026-04-06T09:59:46.659Z</time></trkpt><trkpt lat="43.614945" lon="10.679245"><ele>30.75</ele><time>2026-04-06T09:59:47.658Z</time></trkpt><trkpt lat="43.6150283" lon="10.6790883"><ele>30.0</ele><time>2026-04-06T09:59:48.658Z</time></trkpt><trkpt lat="43.6151133" lon="10.6789283"><ele>30.0</ele><time>2026-04-06T09:59:49.659Z</time></trkpt><trkpt lat="43.6151983" lon="10.6787633"><ele>30.0</ele><time>2026-04-06T09:59:50.658Z</time></trkpt><trkpt lat="43.61529" lon="10.6785983"><ele>30.0</ele><time>2026-04-06T09:59:51.658Z</time></trkpt><trkpt lat="43.615385" lon="10.678435"><ele>30.0</ele><time>2026-04-06T09:59:52.658Z</time></trkpt><trkpt lat="43.615485" lon="10.6782817"><ele>30.0</ele><time>2026-04-06T09:59:53.658Z</time></trkpt><trkpt lat="43.6155917" lon="10.6781333"><ele>30.0</ele><time>2026-04-06T09:59:54.658Z</time></trkpt><trkpt lat="43.6157033" lon="10.677995"><ele>30.0</ele><time>2026-04-06T09:59:55.658Z</time></trkpt><trkpt lat="43.6158167" lon="10.67786"><ele>30.0</ele><time>2026-04-06T09:59:56.658Z</time></trkpt><trkpt lat="43.6159317" lon="10.6777283"><ele>30.0</ele><time>2026-04-06T09:59:57.658Z</time></trkpt><trkpt lat="43.61605" lon="10.6776"><ele>30.0</ele><time>2026-04-06T09:59:58.659Z</time></trkpt><trkpt lat="43.6161667" lon="10.67747"><ele>30.0</ele><time>2026-04-06T09:59:59.658Z</time></trkpt><trkpt lat="43.6162817" lon="10.67734"><ele>30.0</ele><time>2026-04-06T10:00:00.658Z</time></trkpt><trkpt lat="43.6163983" lon="10.6772067"><ele>30.0</ele><time>2026-04-06T10:00:01.658Z</time></trkpt><trkpt lat="43.6165167" lon="10.6770717"><ele>30.0</ele><time>2026-04-06T10:00:02.658Z</time></trkpt><trkpt lat="43.616635" lon="10.6769383"><ele>30.0</ele><time>2026-04-06T10:00:03.658Z</time></trkpt><trkpt lat="43.6167483" lon="10.6768067"><ele>30.0</ele><time>2026-04-06T10:00:04.658Z</time></trkpt><trkpt lat="43.616865" lon="10.676675"><ele>29.75</ele><time>2026-04-06T10:00:05.658Z</time></trkpt><trkpt lat="43.6169783" lon="10.676545"><ele>29.5</ele><time>2026-04-06T10:00:06.658Z</time></trkpt><trkpt lat="43.6170917" lon="10.6764167"><ele>29.25</ele><time>2026-04-06T10:00:07.658Z</time></trkpt><trkpt lat="43.617205" lon="10.67629"><ele>29.0</ele><time>2026-04-06T10:00:08.658Z</time></trkpt><trkpt lat="43.6173167" lon="10.676165"><ele>28.75</ele><time>2026-04-06T10:00:09.658Z</time></trkpt><trkpt lat="43.617425" lon="10.6760383"><ele>28.5</ele><time>2026-04-06T10:00:10.658Z</time></trkpt><trkpt lat="43.6175333" lon="10.675915"><ele>28.25</ele><time>2026-04-06T10:00:11.658Z</time></trkpt><trkpt lat="43.6176417" lon="10.6757933"><ele>28.0</ele><time>2026-04-06T10:00:12.658Z</time></trkpt><trkpt lat="43.6177433" lon="10.6756767"><ele>28.5</ele><time>2026-04-06T10:00:13.659Z</time></trkpt><trkpt lat="43.6178417" lon="10.6755633"><ele>29.0</ele><time>2026-04-06T10:00:14.658Z</time></trkpt><trkpt lat="43.6179367" lon="10.67546"><ele>29.5</ele><time>2026-04-06T10:00:15.659Z</time></trkpt><trkpt lat="43.618025" lon="10.6753683"><ele>30.0</ele><time>2026-04-06T10:00:16.658Z</time></trkpt><trkpt lat="43.6181033" lon="10.675285"><ele>29.833333333333332</ele><time>2026-04-06T10:00:17.659Z</time></trkpt><trkpt lat="43.6181783" lon="10.67521"><ele>29.666666666666664</ele><time>2026-04-06T10:00:18.658Z</time></trkpt><trkpt lat="43.61825" lon="10.675145"><ele>29.5</ele><time>2026-04-06T10:00:19.658Z</time></trkpt><trkpt lat="43.6183167" lon="10.6750883"><ele>29.333333333333332</ele><time>2026-04-06T10:00:20.658Z</time></trkpt><trkpt lat="43.6183867" lon="10.675045"><ele>29.166666666666664</ele><time>2026-04-06T10:00:21.658Z</time></trkpt><trkpt lat="43.6184617" lon="10.675015"><ele>29.0</ele><time>2026-04-06T10:00:22.658Z</time></trkpt><trkpt lat="43.6185483" lon="10.675"><ele>29.0</ele><time>2026-04-06T10:00:23.658Z</time></trkpt><trkpt lat="43.6186517" lon="10.67499"><ele>29.0</ele><time>2026-04-06T10:00:24.659Z</time></trkpt><trkpt lat="43.6187567" lon="10.6749633"><ele>29.0</ele><time>2026-04-06T10:00:25.658Z</time></trkpt><trkpt lat="43.61885" lon="10.6748983"><ele>29.0</ele><time>2026-04-06T10:00:26.658Z</time></trkpt><trkpt lat="43.6189317" lon="10.6747917"><ele>29.0</ele><time>2026-04-06T10:00:27.658Z</time></trkpt><trkpt lat="43.6189983" lon="10.6746467"><ele>29.0</ele><time>2026-04-06T10:00:28.658Z</time></trkpt><trkpt lat="43.6190567" lon="10.67449"><ele>29.0</ele><time>2026-04-06T10:00:29.659Z</time></trkpt><trkpt lat="43.6191233" lon="10.6743383"><ele>29.0</ele><time>2026-04-06T10:00:30.658Z</time></trkpt><trkpt lat="43.6192" lon="10.6741933"><ele>29.0</ele><time>2026-04-06T10:00:31.658Z</time></trkpt><trkpt lat="43.6192833" lon="10.6740533"><ele>28.75</ele><time>2026-04-06T10:00:32.658Z</time></trkpt><trkpt lat="43.6193717" lon="10.673915"><ele>28.5</ele><time>2026-04-06T10:00:33.658Z</time></trkpt><trkpt lat="43.6194633" lon="10.6737817"><ele>28.25</ele><time>2026-04-06T10:00:34.658Z</time></trkpt><trkpt lat="43.6195583" lon="10.6736517"><ele>28.0</ele><time>2026-04-06T10:00:35.658Z</time></trkpt><trkpt lat="43.6196583" lon="10.673525"><ele>29.0</ele><time>2026-04-06T10:00:36.658Z</time></trkpt><trkpt lat="43.619765" lon="10.673395"><ele>30.0</ele><time>2026-04-06T10:00:37.658Z</time></trkpt><trkpt lat="43.619875" lon="10.673255"><ele>31.0</ele><time>2026-04-06T10:00:38.658Z</time></trkpt><trkpt lat="43.61999" lon="10.6731133"><ele>32.0</ele><time>2026-04-06T10:00:39.658Z</time></trkpt><trkpt lat="43.6201083" lon="10.6729683"><ele>32.0</ele><time>2026-04-06T10:00:40.658Z</time></trkpt><trkpt lat="43.6202267" lon="10.6728217"><ele>32.0</ele><time>2026-04-06T10:00:41.658Z</time></trkpt><trkpt lat="43.6203467" lon="10.67268"><ele>32.0</ele><time>2026-04-06T10:00:42.658Z</time></trkpt><trkpt lat="43.6204633" lon="10.6725433"><ele>32.666666666666664</ele><time>2026-04-06T10:00:43.658Z</time></trkpt><trkpt lat="43.620585" lon="10.67241"><ele>33.333333333333336</ele><time>2026-04-06T10:00:44.658Z</time></trkpt><trkpt lat="43.620705" lon="10.67228"><ele>34.0</ele><time>2026-04-06T10:00:45.658Z</time></trkpt><trkpt lat="43.6208217" lon="10.67215"><ele>34.0</ele><time>2026-04-06T10:00:46.658Z</time></trkpt><trkpt lat="43.620935" lon="10.6720233"><ele>34.0</ele><time>2026-04-06T10:00:47.658Z</time></trkpt><trkpt lat="43.6210433" lon="10.6719"><ele>34.0</ele><time>2026-04-06T10:00:48.658Z</time></trkpt><trkpt lat="43.62115" lon="10.6717767"><ele>34.0</ele><time>2026-04-06T10:00:49.658Z</time></trkpt><trkpt lat="43.621255" lon="10.6716533"><ele>34.75</ele><time>2026-04-06T10:00:50.658Z</time></trkpt><trkpt lat="43.621355" lon="10.6715333"><ele>35.5</ele><time>2026-04-06T10:00:51.659Z</time></trkpt><trkpt lat="43.6214467" lon="10.6714133"><ele>36.25</ele><time>2026-04-06T10:00:52.658Z</time></trkpt><trkpt lat="43.6215317" lon="10.6712983"><ele>37.0</ele><time>2026-04-06T10:00:53.658Z</time></trkpt><trkpt lat="43.6216117" lon="10.6711867"><ele>37.0</ele><time>2026-04-06T10:00:54.658Z</time></trkpt><trkpt lat="43.6216867" lon="10.6710817"><ele>37.0</ele><time>2026-04-06T10:00:55.658Z</time></trkpt><trkpt lat="43.6217583" lon="10.6709833"><ele>37.0</ele><time>2026-04-06T10:00:56.659Z</time></trkpt><trkpt lat="43.6218267" lon="10.670885"><ele>37.0</ele><time>2026-04-06T10:00:57.659Z</time></trkpt><trkpt lat="43.621895" lon="10.67079"><ele>37.0</ele><time>2026-04-06T10:00:58.658Z</time></trkpt><trkpt lat="43.6219633" lon="10.6706933"><ele>37.0</ele><time>2026-04-06T10:00:59.659Z</time></trkpt><trkpt lat="43.6220283" lon="10.6705933"><ele>37.0</ele><time>2026-04-06T10:01:00.658Z</time></trkpt><trkpt lat="43.6220933" lon="10.6704933"><ele>37.0</ele><time>2026-04-06T10:01:01.658Z</time></trkpt><trkpt lat="43.6221583" lon="10.6703917"><ele>37.0</ele><time>2026-04-06T10:01:02.658Z</time></trkpt><trkpt lat="43.6222233" lon="10.6702933"><ele>37.0</ele><time>2026-04-06T10:01:03.658Z</time></trkpt><trkpt lat="43.6222917" lon="10.6701917"><ele>37.0</ele><time>2026-04-06T10:01:04.658Z</time></trkpt><trkpt lat="43.6223567" lon="10.6700933"><ele>37.0</ele><time>2026-04-06T10:01:05.658Z</time></trkpt><trkpt lat="43.6224267" lon="10.6699933"><ele>37.0</ele><time>2026-04-06T10:01:06.658Z</time></trkpt><trkpt lat="43.6224967" lon="10.669895"><ele>37.0</ele><time>2026-04-06T10:01:07.659Z</time></trkpt><trkpt lat="43.6225667" lon="10.6697983"><ele>37.0</ele><time>2026-04-06T10:01:08.658Z</time></trkpt><trkpt lat="43.6226367" lon="10.6697033"><ele>37.0</ele><time>2026-04-06T10:01:09.658Z</time></trkpt><trkpt lat="43.6227067" lon="10.6696067"><ele>37.0</ele><time>2026-04-06T10:01:10.659Z</time></trkpt><trkpt lat="43.622775" lon="10.66951"><ele>37.0</ele><time>2026-04-06T10:01:11.658Z</time></trkpt><trkpt lat="43.6228417" lon="10.6694133"><ele>37.0</ele><time>2026-04-06T10:01:12.658Z</time></trkpt><trkpt lat="43.6229067" lon="10.6693167"><ele>37.0</ele><time>2026-04-06T10:01:13.658Z</time></trkpt><trkpt lat="43.6229683" lon="10.6692217"><ele>36.85714285714286</ele><time>2026-04-06T10:01:14.658Z</time></trkpt><trkpt lat="43.6230267" lon="10.6691367"><ele>36.714285714285715</ele><time>2026-04-06T10:01:15.658Z</time></trkpt><trkpt lat="43.6230783" lon="10.6690617"><ele>36.57142857142857</ele><time>2026-04-06T10:01:16.658Z</time></trkpt><trkpt lat="43.623125" lon="10.6689833"><ele>36.42857142857143</ele><time>2026-04-06T10:01:17.658Z</time></trkpt><trkpt lat="43.6231733" lon="10.668915"><ele>36.285714285714285</ele><time>2026-04-06T10:01:18.658Z</time></trkpt><trkpt lat="43.62322" lon="10.6688483"><ele>36.142857142857146</ele><time>2026-04-06T10:01:19.659Z</time></trkpt><trkpt lat="43.6232733" lon="10.6687833"><ele>36.0</ele><time>2026-04-06T10:01:20.658Z</time></trkpt><trkpt lat="43.623375" lon="10.6686417"><ele>35.833333333333336</ele><time>2026-04-06T10:01:22.658Z</time></trkpt><trkpt lat="43.623425" lon="10.6685667"><ele>35.666666666666664</ele><time>2026-04-06T10:01:23.658Z</time></trkpt><trkpt lat="43.6234783" lon="10.6684883"><ele>35.5</ele><time>2026-04-06T10:01:24.659Z</time></trkpt><trkpt lat="43.6235367" lon="10.6684117"><ele>35.33333333333333</ele><time>2026-04-06T10:01:25.658Z</time></trkpt><trkpt lat="43.6235967" lon="10.6683317"><ele>35.166666666666664</ele><time>2026-04-06T10:01:26.658Z</time></trkpt><trkpt lat="43.6236567" lon="10.6682533"><ele>35.0</ele><time>2026-04-06T10:01:27.658Z</time></trkpt><trkpt lat="43.6237167" lon="10.668175"><ele>35.4</ele><time>2026-04-06T10:01:28.658Z</time></trkpt><trkpt lat="43.6237733" lon="10.6680933"><ele>35.8</ele><time>2026-04-06T10:01:29.658Z</time></trkpt><trkpt lat="43.6238283" lon="10.668005"><ele>36.2</ele><time>2026-04-06T10:01:30.658Z</time></trkpt><trkpt lat="43.62389" lon="10.6679183"><ele>36.6</ele><time>2026-04-06T10:01:31.658Z</time></trkpt><trkpt lat="43.623955" lon="10.667825"><ele>37.0</ele><time>2026-04-06T10:01:32.659Z</time></trkpt><trkpt lat="43.624025" lon="10.6677183"><ele>35.75</ele><time>2026-04-06T10:01:33.658Z</time></trkpt><trkpt lat="43.6241083" lon="10.6675983"><ele>34.5</ele><time>2026-04-06T10:01:34.658Z</time></trkpt><trkpt lat="43.6241983" lon="10.667465"><ele>33.25</ele><time>2026-04-06T10:01:35.659Z</time></trkpt><trkpt lat="43.624295" lon="10.667315"><ele>32.0</ele><time>2026-04-06T10:01:36.658Z</time></trkpt><trkpt lat="43.6244017" lon="10.6671433"><ele>32.33333333333333</ele><time>2026-04-06T10:01:37.658Z</time></trkpt><trkpt lat="43.62452" lon="10.666965"><ele>32.666666666666664</ele><time>2026-04-06T10:01:38.658Z</time></trkpt><trkpt lat="43.6246467" lon="10.666775"><ele>33.0</ele><time>2026-04-06T10:01:39.658Z</time></trkpt><trkpt lat="43.6247783" lon="10.6665767"><ele>32.0</ele><time>2026-04-06T10:01:40.658Z</time></trkpt><trkpt lat="43.6249133" lon="10.6663733"><ele>31.0</ele><time>2026-04-06T10:01:41.659Z</time></trkpt><trkpt lat="43.62505" lon="10.6661717"><ele>30.0</ele><time>2026-04-06T10:01:42.658Z</time></trkpt><trkpt lat="43.62519" lon="10.6659767"><ele>30.666666666666664</ele><time>2026-04-06T10:01:43.658Z</time></trkpt><trkpt lat="43.62533" lon="10.6657867"><ele>31.333333333333332</ele><time>2026-04-06T10:01:44.659Z</time></trkpt><trkpt lat="43.62547" lon="10.665595"><ele>32.0</ele><time>2026-04-06T10:01:45.658Z</time></trkpt><trkpt lat="43.625605" lon="10.6654033"><ele>31.333333333333332</ele><time>2026-04-06T10:01:46.658Z</time></trkpt><trkpt lat="43.6257317" lon="10.6652117"><ele>30.666666666666664</ele><time>2026-04-06T10:01:47.658Z</time></trkpt><trkpt lat="43.6258583" lon="10.6650233"><ele>30.0</ele><time>2026-04-06T10:01:48.658Z</time></trkpt><trkpt lat="43.625985" lon="10.6648417"><ele>30.0</ele><time>2026-04-06T10:01:49.658Z</time></trkpt><trkpt lat="43.6261083" lon="10.66466"><ele>30.0</ele><time>2026-04-06T10:01:50.658Z</time></trkpt><trkpt lat="43.62623" lon="10.66448"><ele>30.0</ele><time>2026-04-06T10:01:51.658Z</time></trkpt><trkpt lat="43.6263533" lon="10.6643"><ele>28.666666666666664</ele><time>2026-04-06T10:01:52.658Z</time></trkpt><trkpt lat="43.6264767" lon="10.6641217"><ele>27.333333333333332</ele><time>2026-04-06T10:01:53.658Z</time></trkpt><trkpt lat="43.6266" lon="10.6639433"><ele>26.0</ele><time>2026-04-06T10:01:54.659Z</time></trkpt><trkpt lat="43.6267217" lon="10.66377"><ele>26.0</ele><time>2026-04-06T10:01:55.658Z</time></trkpt><trkpt lat="43.6268433" lon="10.663595"><ele>26.0</ele><time>2026-04-06T10:01:56.658Z</time></trkpt><trkpt lat="43.6269617" lon="10.6634183"><ele>26.0</ele><time>2026-04-06T10:01:57.658Z</time></trkpt><trkpt lat="43.6270817" lon="10.6632417"><ele>26.333333333333332</ele><time>2026-04-06T10:01:58.659Z</time></trkpt><trkpt lat="43.6272033" lon="10.663065"><ele>26.666666666666664</ele><time>2026-04-06T10:01:59.658Z</time></trkpt><trkpt lat="43.6273233" lon="10.6628867"><ele>27.0</ele><time>2026-04-06T10:02:00.659Z</time></trkpt><trkpt lat="43.6274433" lon="10.66271"><ele>26.333333333333336</ele><time>2026-04-06T10:02:01.658Z</time></trkpt><trkpt lat="43.62756" lon="10.662535"><ele>25.666666666666668</ele><time>2026-04-06T10:02:02.658Z</time></trkpt><trkpt lat="43.6276783" lon="10.6623633"><ele>25.0</ele><time>2026-04-06T10:02:03.658Z</time></trkpt><trkpt lat="43.6277983" lon="10.662195"><ele>25.333333333333336</ele><time>2026-04-06T10:02:04.658Z</time></trkpt><trkpt lat="43.627915" lon="10.6620317"><ele>25.666666666666664</ele><time>2026-04-06T10:02:05.658Z</time></trkpt><trkpt lat="43.628025" lon="10.661875"><ele>26.0</ele><time>2026-04-06T10:02:06.658Z</time></trkpt><trkpt lat="43.62813" lon="10.6617217"><ele>26.0</ele><time>2026-04-06T10:02:07.658Z</time></trkpt><trkpt lat="43.6282233" lon="10.6615633"><ele>26.0</ele><time>2026-04-06T10:02:08.658Z</time></trkpt><trkpt lat="43.6282983" lon="10.661395"><ele>26.0</ele><time>2026-04-06T10:02:09.658Z</time></trkpt><trkpt lat="43.6283467" lon="10.6612133"><ele>26.0</ele><time>2026-04-06T10:02:10.659Z</time></trkpt><trkpt lat="43.6283683" lon="10.6610267"><ele>26.0</ele><time>2026-04-06T10:02:11.658Z</time></trkpt><trkpt lat="43.6283617" lon="10.6608433"><ele>26.0</ele><time>2026-04-06T10:02:12.658Z</time></trkpt><trkpt lat="43.62834" lon="10.66068"><ele>26.0</ele><time>2026-04-06T10:02:13.658Z</time></trkpt><trkpt lat="43.6283183" lon="10.6605383"><ele>26.0</ele><time>2026-04-06T10:02:14.658Z</time></trkpt><trkpt lat="43.6283067" lon="10.6604167"><ele>26.0</ele><time>2026-04-06T10:02:15.659Z</time></trkpt><trkpt lat="43.62832" lon="10.6603033"><ele>26.0</ele><time>2026-04-06T10:02:16.658Z</time></trkpt><trkpt lat="43.62836" lon="10.6601883"><ele>26.0</ele><time>2026-04-06T10:02:17.658Z</time></trkpt><trkpt lat="43.6284217" lon="10.660065"><ele>26.0</ele><time>2026-04-06T10:02:18.658Z</time></trkpt><trkpt lat="43.6284983" lon="10.6599567"><ele>26.0</ele><time>2026-04-06T10:02:19.659Z</time></trkpt><trkpt lat="43.6287283" lon="10.6598167"><ele>26.0</ele><time>2026-04-06T10:02:21.658Z</time></trkpt><trkpt lat="43.6288667" lon="10.6597783"><ele>26.0</ele><time>2026-04-06T10:02:22.659Z</time></trkpt><trkpt lat="43.62901" lon="10.659745"><ele>26.0</ele><time>2026-04-06T10:02:23.658Z</time></trkpt><trkpt lat="43.6291567" lon="10.659705"><ele>26.0</ele><time>2026-04-06T10:02:24.658Z</time></trkpt><trkpt lat="43.6293083" lon="10.6596667"><ele>26.0</ele><time>2026-04-06T10:02:25.658Z</time></trkpt><trkpt lat="43.6294617" lon="10.6596233"><ele>26.0</ele><time>2026-04-06T10:02:26.658Z</time></trkpt><trkpt lat="43.6296133" lon="10.6595817"><ele>26.0</ele><time>2026-04-06T10:02:27.658Z</time></trkpt><trkpt lat="43.629765" lon="10.6595333"><ele>26.333333333333332</ele><time>2026-04-06T10:02:28.658Z</time></trkpt><trkpt lat="43.629915" lon="10.65948"><ele>26.666666666666664</ele><time>2026-04-06T10:02:29.658Z</time></trkpt><trkpt lat="43.6300683" lon="10.659425"><ele>27.0</ele><time>2026-04-06T10:02:30.658Z</time></trkpt><trkpt lat="43.6302183" lon="10.6593683"><ele>26.0</ele><time>2026-04-06T10:02:31.658Z</time></trkpt><trkpt lat="43.63037" lon="10.6593083"><ele>25.0</ele><time>2026-04-06T10:02:32.659Z</time></trkpt><trkpt lat="43.63052" lon="10.6592467"><ele>24.0</ele><time>2026-04-06T10:02:33.658Z</time></trkpt><trkpt lat="43.6306717" lon="10.6591817"><ele>24.0</ele><time>2026-04-06T10:02:34.658Z</time></trkpt><trkpt lat="43.63082" lon="10.65911"><ele>24.0</ele><time>2026-04-06T10:02:35.658Z</time></trkpt><trkpt lat="43.6309667" lon="10.6590383"><ele>24.0</ele><time>2026-04-06T10:02:36.658Z</time></trkpt><trkpt lat="43.6311117" lon="10.6589617"><ele>24.666666666666664</ele><time>2026-04-06T10:02:37.658Z</time></trkpt><trkpt lat="43.631255" lon="10.65888"><ele>25.333333333333332</ele><time>2026-04-06T10:02:38.658Z</time></trkpt><trkpt lat="43.6313983" lon="10.658795"><ele>26.0</ele><time>2026-04-06T10:02:39.658Z</time></trkpt><trkpt lat="43.631545" lon="10.658705"><ele>25.0</ele><time>2026-04-06T10:02:40.658Z</time></trkpt><trkpt lat="43.6316917" lon="10.6586083"><ele>24.0</ele><time>2026-04-06T10:02:41.658Z</time></trkpt><trkpt lat="43.63184" lon="10.65851"><ele>23.0</ele><time>2026-04-06T10:02:42.658Z</time></trkpt><trkpt lat="43.63199" lon="10.6584083"><ele>23.0</ele><time>2026-04-06T10:02:43.659Z</time></trkpt><trkpt lat="43.6321383" lon="10.6583033"><ele>23.0</ele><time>2026-04-06T10:02:44.658Z</time></trkpt><trkpt lat="43.632285" lon="10.65819"><ele>23.0</ele><time>2026-04-06T10:02:45.658Z</time></trkpt><trkpt lat="43.6324317" lon="10.6580767"><ele>23.0</ele><time>2026-04-06T10:02:46.659Z</time></trkpt><trkpt lat="43.632575" lon="10.6579617"><ele>23.0</ele><time>2026-04-06T10:02:47.658Z</time></trkpt><trkpt lat="43.63272" lon="10.657845"><ele>23.0</ele><time>2026-04-06T10:02:48.658Z</time></trkpt><trkpt lat="43.6328633" lon="10.6577333"><ele>23.666666666666668</ele><time>2026-04-06T10:02:49.658Z</time></trkpt><trkpt lat="43.6330067" lon="10.6576217"><ele>24.333333333333336</ele><time>2026-04-06T10:02:50.658Z</time></trkpt><trkpt lat="43.633155" lon="10.6575133"><ele>25.0</ele><time>2026-04-06T10:02:51.658Z</time></trkpt><trkpt lat="43.6333" lon="10.6574033"><ele>25.0</ele><time>2026-04-06T10:02:52.658Z</time></trkpt><trkpt lat="43.633445" lon="10.6572967"><ele>25.0</ele><time>2026-04-06T10:02:53.658Z</time></trkpt><trkpt lat="43.63359" lon="10.6571867"><ele>25.0</ele><time>2026-04-06T10:02:54.658Z</time></trkpt><trkpt lat="43.6337317" lon="10.657075"><ele>25.333333333333336</ele><time>2026-04-06T10:02:55.658Z</time></trkpt><trkpt lat="43.6338767" lon="10.6569617"><ele>25.666666666666664</ele><time>2026-04-06T10:02:56.658Z</time></trkpt><trkpt lat="43.63402" lon="10.6568517"><ele>26.0</ele><time>2026-04-06T10:02:57.658Z</time></trkpt><trkpt lat="43.6341617" lon="10.6567367"><ele>26.0</ele><time>2026-04-06T10:02:58.659Z</time></trkpt><trkpt lat="43.6343067" lon="10.65662"><ele>26.0</ele><time>2026-04-06T10:02:59.658Z</time></trkpt><trkpt lat="43.63445" lon="10.656505"><ele>26.0</ele><time>2026-04-06T10:03:00.658Z</time></trkpt><trkpt lat="43.6345967" lon="10.6563917"><ele>25.666666666666664</ele><time>2026-04-06T10:03:01.659Z</time></trkpt><trkpt lat="43.63474" lon="10.6562783"><ele>25.333333333333336</ele><time>2026-04-06T10:03:02.658Z</time></trkpt><trkpt lat="43.6348833" lon="10.65616"><ele>25.0</ele><time>2026-04-06T10:03:03.658Z</time></trkpt><trkpt lat="43.6350283" lon="10.656045"><ele>25.666666666666668</ele><time>2026-04-06T10:03:04.659Z</time></trkpt><trkpt lat="43.6351767" lon="10.65593"><ele>26.333333333333336</ele><time>2026-04-06T10:03:05.658Z</time></trkpt><trkpt lat="43.6353233" lon="10.655815"><ele>27.0</ele><time>2026-04-06T10:03:06.658Z</time></trkpt><trkpt lat="43.63547" lon="10.6556983"><ele>27.0</ele><time>2026-04-06T10:03:07.658Z</time></trkpt><trkpt lat="43.6356167" lon="10.6555817"><ele>27.0</ele><time>2026-04-06T10:03:08.658Z</time></trkpt><trkpt lat="43.6357633" lon="10.655465"><ele>27.0</ele><time>2026-04-06T10:03:09.658Z</time></trkpt><trkpt lat="43.6359067" lon="10.6553433"><ele>26.666666666666664</ele><time>2026-04-06T10:03:10.658Z</time></trkpt><trkpt lat="43.6360483" lon="10.655215"><ele>26.333333333333332</ele><time>2026-04-06T10:03:11.658Z</time></trkpt><trkpt lat="43.6361817" lon="10.65508"><ele>26.0</ele><time>2026-04-06T10:03:12.659Z</time></trkpt><trkpt lat="43.6363067" lon="10.6549417"><ele>27.0</ele><time>2026-04-06T10:03:13.659Z</time></trkpt><trkpt lat="43.6364283" lon="10.6547967"><ele>28.0</ele><time>2026-04-06T10:03:14.658Z</time></trkpt><trkpt lat="43.6365433" lon="10.65465"><ele>29.0</ele><time>2026-04-06T10:03:15.658Z</time></trkpt><trkpt lat="43.6366517" lon="10.6545117"><ele>28.25</ele><time>2026-04-06T10:03:16.658Z</time></trkpt><trkpt lat="43.6367583" lon="10.6543767"><ele>27.5</ele><time>2026-04-06T10:03:17.658Z</time></trkpt><trkpt lat="43.63686" lon="10.654245"><ele>26.75</ele><time>2026-04-06T10:03:18.658Z</time></trkpt><trkpt lat="43.6369583" lon="10.6541117"><ele>26.0</ele><time>2026-04-06T10:03:19.658Z</time></trkpt><trkpt lat="43.637055" lon="10.6539767"><ele>26.0</ele><time>2026-04-06T10:03:20.658Z</time></trkpt><trkpt lat="43.63715" lon="10.6538483"><ele>26.0</ele><time>2026-04-06T10:03:21.658Z</time></trkpt><trkpt lat="43.6372483" lon="10.653725"><ele>26.0</ele><time>2026-04-06T10:03:22.658Z</time></trkpt><trkpt lat="43.637345" lon="10.6536017"><ele>26.0</ele><time>2026-04-06T10:03:23.658Z</time></trkpt><trkpt lat="43.6374433" lon="10.65348"><ele>26.0</ele><time>2026-04-06T10:03:24.658Z</time></trkpt><trkpt lat="43.6375383" lon="10.653355"><ele>26.0</ele><time>2026-04-06T10:03:25.658Z</time></trkpt><trkpt lat="43.6376333" lon="10.65323"><ele>26.0</ele><time>2026-04-06T10:03:26.658Z</time></trkpt><trkpt lat="43.63773" lon="10.6531067"><ele>26.0</ele><time>2026-04-06T10:03:27.658Z</time></trkpt><trkpt lat="43.6378283" lon="10.65298"><ele>25.5</ele><time>2026-04-06T10:03:28.658Z</time></trkpt><trkpt lat="43.6379283" lon="10.65286"><ele>25.0</ele><time>2026-04-06T10:03:29.658Z</time></trkpt><trkpt lat="43.6380283" lon="10.6527417"><ele>24.5</ele><time>2026-04-06T10:03:30.658Z</time></trkpt><trkpt lat="43.6381283" lon="10.6526317"><ele>24.0</ele><time>2026-04-06T10:03:31.658Z</time></trkpt><trkpt lat="43.6382267" lon="10.6525183"><ele>24.0</ele><time>2026-04-06T10:03:32.658Z</time></trkpt><trkpt lat="43.6383217" lon="10.6524067"><ele>24.0</ele><time>2026-04-06T10:03:33.658Z</time></trkpt><trkpt lat="43.6384183" lon="10.6522967"><ele>24.0</ele><time>2026-04-06T10:03:34.658Z</time></trkpt><trkpt lat="43.6385133" lon="10.6521883"><ele>24.0</ele><time>2026-04-06T10:03:35.659Z</time></trkpt><trkpt lat="43.6386083" lon="10.6520783"><ele>24.0</ele><time>2026-04-06T10:03:36.658Z</time></trkpt><trkpt lat="43.6387033" lon="10.651965"><ele>24.0</ele><time>2026-04-06T10:03:37.658Z</time></trkpt><trkpt lat="43.6388" lon="10.6518517"><ele>24.0</ele><time>2026-04-06T10:03:38.658Z</time></trkpt><trkpt lat="43.6388967" lon="10.6517383"><ele>24.0</ele><time>2026-04-06T10:03:39.658Z</time></trkpt><trkpt lat="43.63899" lon="10.651625"><ele>24.0</ele><time>2026-04-06T10:03:40.658Z</time></trkpt><trkpt lat="43.6390817" lon="10.6515117"><ele>24.0</ele><time>2026-04-06T10:03:41.658Z</time></trkpt><trkpt lat="43.63917" lon="10.651395"><ele>24.0</ele><time>2026-04-06T10:03:42.658Z</time></trkpt><trkpt lat="43.6392533" lon="10.6512833"><ele>24.0</ele><time>2026-04-06T10:03:43.659Z</time></trkpt><trkpt lat="43.639335" lon="10.6511817"><ele>23.799999999999997</ele><time>2026-04-06T10:03:44.658Z</time></trkpt><trkpt lat="43.6394233" lon="10.65111"><ele>23.599999999999998</ele><time>2026-04-06T10:03:45.659Z</time></trkpt><trkpt lat="43.6395167" lon="10.6510483"><ele>23.4</ele><time>2026-04-06T10:03:46.659Z</time></trkpt><trkpt lat="43.6396083" lon="10.6509767"><ele>23.2</ele><time>2026-04-06T10:03:47.658Z</time></trkpt><trkpt lat="43.6396933" lon="10.6508883"><ele>23.0</ele><time>2026-04-06T10:03:48.658Z</time></trkpt><trkpt lat="43.6397867" lon="10.650805"><ele>23.0</ele><time>2026-04-06T10:03:49.658Z</time></trkpt><trkpt lat="43.6398867" lon="10.6507417"><ele>23.0</ele><time>2026-04-06T10:03:50.659Z</time></trkpt><trkpt lat="43.6399967" lon="10.6506883"><ele>23.0</ele><time>2026-04-06T10:03:51.659Z</time></trkpt><trkpt lat="43.640115" lon="10.6506383"><ele>23.0</ele><time>2026-04-06T10:03:52.658Z</time></trkpt><trkpt lat="43.640235" lon="10.650595"><ele>23.25</ele><time>2026-04-06T10:03:53.658Z</time></trkpt><trkpt lat="43.640355" lon="10.650555"><ele>23.5</ele><time>2026-04-06T10:03:54.658Z</time></trkpt><trkpt lat="43.6404767" lon="10.6505217"><ele>23.75</ele><time>2026-04-06T10:03:55.658Z</time></trkpt><trkpt lat="43.6406" lon="10.650495"><ele>24.0</ele><time>2026-04-06T10:03:56.659Z</time></trkpt><trkpt lat="43.6407233" lon="10.65047"><ele>24.0</ele><time>2026-04-06T10:03:57.658Z</time></trkpt><trkpt lat="43.6408483" lon="10.650445"><ele>24.0</ele><time>2026-04-06T10:03:58.658Z</time></trkpt><trkpt lat="43.6409717" lon="10.6504183"><ele>24.0</ele><time>2026-04-06T10:03:59.658Z</time></trkpt><trkpt lat="43.6410933" lon="10.6503883"><ele>24.0</ele><time>2026-04-06T10:04:00.658Z</time></trkpt><trkpt lat="43.6412117" lon="10.650355"><ele>24.0</ele><time>2026-04-06T10:04:01.658Z</time></trkpt><trkpt lat="43.6413317" lon="10.6503183"><ele>24.0</ele><time>2026-04-06T10:04:02.658Z</time></trkpt><trkpt lat="43.6414533" lon="10.6502867"><ele>24.0</ele><time>2026-04-06T10:04:03.658Z</time></trkpt><trkpt lat="43.641575" lon="10.6502533"><ele>24.0</ele><time>2026-04-06T10:04:04.658Z</time></trkpt><trkpt lat="43.641695" lon="10.65022"><ele>24.0</ele><time>2026-04-06T10:04:05.658Z</time></trkpt><trkpt lat="43.641815" lon="10.6501833"><ele>24.0</ele><time>2026-04-06T10:04:06.658Z</time></trkpt><trkpt lat="43.641935" lon="10.650145"><ele>24.0</ele><time>2026-04-06T10:04:07.658Z</time></trkpt><trkpt lat="43.6420583" lon="10.6501167"><ele>24.0</ele><time>2026-04-06T10:04:08.658Z</time></trkpt><trkpt lat="43.6421867" lon="10.6500817"><ele>23.5</ele><time>2026-04-06T10:04:09.658Z</time></trkpt><trkpt lat="43.64232" lon="10.6500483"><ele>23.0</ele><time>2026-04-06T10:04:10.658Z</time></trkpt><trkpt lat="43.6424617" lon="10.6500133"><ele>22.5</ele><time>2026-04-06T10:04:11.658Z</time></trkpt><trkpt lat="43.64261" lon="10.6499733"><ele>22.0</ele><time>2026-04-06T10:04:12.658Z</time></trkpt><trkpt lat="43.6427583" lon="10.6499283"><ele>22.333333333333332</ele><time>2026-04-06T10:04:13.658Z</time></trkpt><trkpt lat="43.6429133" lon="10.649885"><ele>22.666666666666668</ele><time>2026-04-06T10:04:14.659Z</time></trkpt><trkpt lat="43.6430667" lon="10.6498417"><ele>23.0</ele><time>2026-04-06T10:04:15.658Z</time></trkpt><trkpt lat="43.6432167" lon="10.6498033"><ele>23.0</ele><time>2026-04-06T10:04:16.658Z</time></trkpt><trkpt lat="43.643375" lon="10.6497733"><ele>23.0</ele><time>2026-04-06T10:04:17.658Z</time></trkpt><trkpt lat="43.6435333" lon="10.6497517"><ele>23.0</ele><time>2026-04-06T10:04:18.658Z</time></trkpt><trkpt lat="43.643695" lon="10.6497483"><ele>22.666666666666668</ele><time>2026-04-06T10:04:19.659Z</time></trkpt><trkpt lat="43.6438583" lon="10.6497617"><ele>22.333333333333332</ele><time>2026-04-06T10:04:20.659Z</time></trkpt><trkpt lat="43.6440217" lon="10.6497933"><ele>22.0</ele><time>2026-04-06T10:04:21.658Z</time></trkpt><trkpt lat="43.6441867" lon="10.64985"><ele>22.0</ele><time>2026-04-06T10:04:22.658Z</time></trkpt><trkpt lat="43.6443433" lon="10.64993"><ele>22.0</ele><time>2026-04-06T10:04:23.658Z</time></trkpt><trkpt lat="43.644495" lon="10.65003"><ele>22.0</ele><time>2026-04-06T10:04:24.659Z</time></trkpt><trkpt lat="43.6446417" lon="10.6501467"><ele>21.0</ele><time>2026-04-06T10:04:25.658Z</time></trkpt><trkpt lat="43.64478" lon="10.65028"><ele>20.0</ele><time>2026-04-06T10:04:26.658Z</time></trkpt><trkpt lat="43.6449133" lon="10.6504317"><ele>19.0</ele><time>2026-04-06T10:04:27.658Z</time></trkpt><trkpt lat="43.6450367" lon="10.6506"><ele>19.0</ele><time>2026-04-06T10:04:28.658Z</time></trkpt><trkpt lat="43.6451483" lon="10.650785"><ele>19.0</ele><time>2026-04-06T10:04:29.658Z</time></trkpt><trkpt lat="43.64525" lon="10.65099"><ele>19.0</ele><time>2026-04-06T10:04:30.658Z</time></trkpt><trkpt lat="43.6453417" lon="10.651215"><ele>17.333333333333332</ele><time>2026-04-06T10:04:31.658Z</time></trkpt><trkpt lat="43.6454267" lon="10.651445"><ele>15.666666666666668</ele><time>2026-04-06T10:04:32.658Z</time></trkpt><trkpt lat="43.6455083" lon="10.6516783"><ele>14.0</ele><time>2026-04-06T10:04:33.658Z</time></trkpt><trkpt lat="43.6455833" lon="10.6519083"><ele>15.0</ele><time>2026-04-06T10:04:34.658Z</time></trkpt><trkpt lat="43.6456617" lon="10.6521367"><ele>16.0</ele><time>2026-04-06T10:04:35.658Z</time></trkpt><trkpt lat="43.6457333" lon="10.6523667"><ele>17.0</ele><time>2026-04-06T10:04:36.658Z</time></trkpt><trkpt lat="43.6458083" lon="10.652595"><ele>18.333333333333336</ele><time>2026-04-06T10:04:37.658Z</time></trkpt><trkpt lat="43.6458833" lon="10.6528233"><ele>19.666666666666668</ele><time>2026-04-06T10:04:38.658Z</time></trkpt><trkpt lat="43.645955" lon="10.6530517"><ele>21.0</ele><time>2026-04-06T10:04:39.659Z</time></trkpt><trkpt lat="43.646025" lon="10.6532783"><ele>21.0</ele><time>2026-04-06T10:04:40.658Z</time></trkpt><trkpt lat="43.6461" lon="10.6534983"><ele>21.0</ele><time>2026-04-06T10:04:41.658Z</time></trkpt><trkpt lat="43.6461783" lon="10.6537117"><ele>21.0</ele><time>2026-04-06T10:04:42.658Z</time></trkpt><trkpt lat="43.6462633" lon="10.65392"><ele>22.666666666666664</ele><time>2026-04-06T10:04:43.658Z</time></trkpt><trkpt lat="43.6463617" lon="10.6541133"><ele>24.333333333333332</ele><time>2026-04-06T10:04:44.658Z</time></trkpt><trkpt lat="43.6464667" lon="10.6543033"><ele>26.0</ele><time>2026-04-06T10:04:45.658Z</time></trkpt><trkpt lat="43.6465783" lon="10.6544883"><ele>27.333333333333332</ele><time>2026-04-06T10:04:46.658Z</time></trkpt><trkpt lat="43.646695" lon="10.65467"><ele>28.666666666666664</ele><time>2026-04-06T10:04:47.658Z</time></trkpt><trkpt lat="43.6468183" lon="10.6548433"><ele>30.0</ele><time>2026-04-06T10:04:48.658Z</time></trkpt><trkpt lat="43.6469483" lon="10.655005"><ele>30.333333333333336</ele><time>2026-04-06T10:04:49.658Z</time></trkpt><trkpt lat="43.647085" lon="10.65516"><ele>30.666666666666668</ele><time>2026-04-06T10:04:50.658Z</time></trkpt><trkpt lat="43.6472317" lon="10.6553033"><ele>31.0</ele><time>2026-04-06T10:04:51.658Z</time></trkpt><trkpt lat="43.6473833" lon="10.655435"><ele>31.0</ele><time>2026-04-06T10:04:52.658Z</time></trkpt><trkpt lat="43.647545" lon="10.6555483"><ele>31.0</ele><time>2026-04-06T10:04:53.658Z</time></trkpt><trkpt lat="43.6477167" lon="10.6556417"><ele>31.0</ele><time>2026-04-06T10:04:54.659Z</time></trkpt><trkpt lat="43.647885" lon="10.655725"><ele>31.0</ele><time>2026-04-06T10:04:55.658Z</time></trkpt><trkpt lat="43.648055" lon="10.6557983"><ele>31.0</ele><time>2026-04-06T10:04:56.658Z</time></trkpt><trkpt lat="43.648225" lon="10.6558567"><ele>31.0</ele><time>2026-04-06T10:04:57.658Z</time></trkpt><trkpt lat="43.648395" lon="10.6559083"><ele>31.0</ele><time>2026-04-06T10:04:58.658Z</time></trkpt><trkpt lat="43.648565" lon="10.65595"><ele>31.0</ele><time>2026-04-06T10:04:59.658Z</time></trkpt><trkpt lat="43.6487333" lon="10.6559817"><ele>31.0</ele><time>2026-04-06T10:05:00.658Z</time></trkpt><trkpt lat="43.648905" lon="10.6560133"><ele>30.0</ele><time>2026-04-06T10:05:01.658Z</time></trkpt><trkpt lat="43.6490783" lon="10.656045"><ele>29.0</ele><time>2026-04-06T10:05:02.658Z</time></trkpt><trkpt lat="43.64925" lon="10.656075"><ele>28.0</ele><time>2026-04-06T10:05:03.658Z</time></trkpt><trkpt lat="43.6494233" lon="10.6561017"><ele>28.666666666666668</ele><time>2026-04-06T10:05:04.658Z</time></trkpt><trkpt lat="43.6495933" lon="10.6561283"><ele>29.333333333333336</ele><time>2026-04-06T10:05:05.659Z</time></trkpt><trkpt lat="43.649765" lon="10.6561533"><ele>30.0</ele><time>2026-04-06T10:05:06.658Z</time></trkpt><trkpt lat="43.6499367" lon="10.6561683"><ele>30.0</ele><time>2026-04-06T10:05:07.658Z</time></trkpt><trkpt lat="43.6501083" lon="10.65617"><ele>30.0</ele><time>2026-04-06T10:05:08.658Z</time></trkpt><trkpt lat="43.6502783" lon="10.656165"><ele>30.0</ele><time>2026-04-06T10:05:09.658Z</time></trkpt><trkpt lat="43.6504467" lon="10.656145"><ele>29.333333333333336</ele><time>2026-04-06T10:05:10.658Z</time></trkpt><trkpt lat="43.65061" lon="10.656105"><ele>28.666666666666668</ele><time>2026-04-06T10:05:11.658Z</time></trkpt><trkpt lat="43.6507717" lon="10.6560483"><ele>28.0</ele><time>2026-04-06T10:05:12.658Z</time></trkpt><trkpt lat="43.6509333" lon="10.65598"><ele>28.0</ele><time>2026-04-06T10:05:13.658Z</time></trkpt><trkpt lat="43.651095" lon="10.6559"><ele>28.0</ele><time>2026-04-06T10:05:14.658Z</time></trkpt><trkpt lat="43.651255" lon="10.65582"><ele>28.0</ele><time>2026-04-06T10:05:15.658Z</time></trkpt><trkpt lat="43.6514117" lon="10.6557417"><ele>27.333333333333336</ele><time>2026-04-06T10:05:16.658Z</time></trkpt><trkpt lat="43.6515717" lon="10.6556633"><ele>26.666666666666664</ele><time>2026-04-06T10:05:17.658Z</time></trkpt><trkpt lat="43.6517333" lon="10.6555833"><ele>26.0</ele><time>2026-04-06T10:05:18.658Z</time></trkpt><trkpt lat="43.6518967" lon="10.6555017"><ele>25.333333333333332</ele><time>2026-04-06T10:05:19.658Z</time></trkpt><trkpt lat="43.6520617" lon="10.6554217"><ele>24.666666666666664</ele><time>2026-04-06T10:05:20.659Z</time></trkpt><trkpt lat="43.6522283" lon="10.6553433"><ele>24.0</ele><time>2026-04-06T10:05:21.658Z</time></trkpt><trkpt lat="43.65239" lon="10.6552717"><ele>19.0</ele><time>2026-04-06T10:05:22.658Z</time></trkpt><trkpt lat="43.6528617" lon="10.6551233"><ele>19.0</ele><time>2026-04-06T10:05:25.658Z</time></trkpt><trkpt lat="43.653015" lon="10.6551067"><ele>19.0</ele><time>2026-04-06T10:05:26.658Z</time></trkpt><trkpt lat="43.6531617" lon="10.6551033"><ele>19.0</ele><time>2026-04-06T10:05:27.658Z</time></trkpt><trkpt lat="43.6533083" lon="10.65511"><ele>19.0</ele><time>2026-04-06T10:05:28.658Z</time></trkpt><trkpt lat="43.6534467" lon="10.655135"><ele>19.0</ele><time>2026-04-06T10:05:29.658Z</time></trkpt><trkpt lat="43.653575" lon="10.6551683"><ele>19.0</ele><time>2026-04-06T10:05:30.659Z</time></trkpt><trkpt lat="43.6536867" lon="10.6552133"><ele>19.0</ele><time>2026-04-06T10:05:31.658Z</time></trkpt><trkpt lat="43.6537783" lon="10.6552617"><ele>19.0</ele><time>2026-04-06T10:05:32.658Z</time></trkpt><trkpt lat="43.6538433" lon="10.6553133"><ele>19.0</ele><time>2026-04-06T10:05:33.658Z</time></trkpt><trkpt lat="43.65393" lon="10.6554283"><ele>18.0</ele><time>2026-04-06T10:05:35.658Z</time></trkpt><trkpt lat="43.6539667" lon="10.6555083"><ele>17.0</ele><time>2026-04-06T10:05:36.658Z</time></trkpt><trkpt lat="43.6540067" lon="10.6555983"><ele>16.0</ele><time>2026-04-06T10:05:37.658Z</time></trkpt><trkpt lat="43.654055" lon="10.6557"><ele>15.0</ele><time>2026-04-06T10:05:38.658Z</time></trkpt><trkpt lat="43.6541067" lon="10.655805"><ele>13.999999999999998</ele><time>2026-04-06T10:05:39.658Z</time></trkpt><trkpt lat="43.6541683" lon="10.6559133"><ele>13.0</ele><time>2026-04-06T10:05:40.659Z</time></trkpt><trkpt lat="43.65424" lon="10.6560167"><ele>13.0</ele><time>2026-04-06T10:05:41.658Z</time></trkpt><trkpt lat="43.6543217" lon="10.6561133"><ele>13.0</ele><time>2026-04-06T10:05:42.658Z</time></trkpt><trkpt lat="43.654415" lon="10.6561917"><ele>13.0</ele><time>2026-04-06T10:05:43.658Z</time></trkpt><trkpt lat="43.6545267" lon="10.6562517"><ele>13.0</ele><time>2026-04-06T10:05:44.659Z</time></trkpt><trkpt lat="43.6546467" lon="10.65629"><ele>13.5</ele><time>2026-04-06T10:05:45.658Z</time></trkpt><trkpt lat="43.65477" lon="10.65632"><ele>14.0</ele><time>2026-04-06T10:05:46.658Z</time></trkpt><trkpt lat="43.6548867" lon="10.6563433"><ele>14.5</ele><time>2026-04-06T10:05:47.658Z</time></trkpt><trkpt lat="43.6549983" lon="10.65637"><ele>15.0</ele><time>2026-04-06T10:05:48.658Z</time></trkpt><trkpt lat="43.6551033" lon="10.6564117"><ele>15.0</ele><time>2026-04-06T10:05:49.658Z</time></trkpt><trkpt lat="43.6552" lon="10.6564867"><ele>15.0</ele><time>2026-04-06T10:05:50.658Z</time></trkpt><trkpt lat="43.6552833" lon="10.6565767"><ele>15.0</ele><time>2026-04-06T10:05:51.658Z</time></trkpt><trkpt lat="43.6553667" lon="10.656685"><ele>15.0</ele><time>2026-04-06T10:05:52.658Z</time></trkpt><trkpt lat="43.6554533" lon="10.656805"><ele>15.0</ele><time>2026-04-06T10:05:53.658Z</time></trkpt><trkpt lat="43.6555483" lon="10.65693"><ele>15.0</ele><time>2026-04-06T10:05:54.658Z</time></trkpt><trkpt lat="43.6556483" lon="10.65705"><ele>15.0</ele><time>2026-04-06T10:05:55.658Z</time></trkpt><trkpt lat="43.6557483" lon="10.657165"><ele>15.0</ele><time>2026-04-06T10:05:56.658Z</time></trkpt><trkpt lat="43.65585" lon="10.6572733"><ele>15.0</ele><time>2026-04-06T10:05:57.658Z</time></trkpt><trkpt lat="43.6559617" lon="10.6573717"><ele>15.0</ele><time>2026-04-06T10:05:58.658Z</time></trkpt><trkpt lat="43.6560767" lon="10.6574583"><ele>15.0</ele><time>2026-04-06T10:05:59.658Z</time></trkpt><trkpt lat="43.6561983" lon="10.6575383"><ele>15.0</ele><time>2026-04-06T10:06:00.658Z</time></trkpt><trkpt lat="43.6563267" lon="10.6576033"><ele>15.5</ele><time>2026-04-06T10:06:01.658Z</time></trkpt><trkpt lat="43.65645" lon="10.65766"><ele>16.0</ele><time>2026-04-06T10:06:02.658Z</time></trkpt><trkpt lat="43.6568367" lon="10.6577733"><ele>16.0</ele><time>2026-04-06T10:06:05.658Z</time></trkpt><trkpt lat="43.656975" lon="10.65779"><ele>16.0</ele><time>2026-04-06T10:06:06.658Z</time></trkpt><trkpt lat="43.6571167" lon="10.6578017"><ele>16.0</ele><time>2026-04-06T10:06:07.658Z</time></trkpt><trkpt lat="43.6572567" lon="10.657805"><ele>16.0</ele><time>2026-04-06T10:06:08.659Z</time></trkpt><trkpt lat="43.6573967" lon="10.6578067"><ele>16.0</ele><time>2026-04-06T10:06:09.658Z</time></trkpt><trkpt lat="43.6575317" lon="10.6578017"><ele>16.0</ele><time>2026-04-06T10:06:10.658Z</time></trkpt><trkpt lat="43.657665" lon="10.657795"><ele>16.0</ele><time>2026-04-06T10:06:11.659Z</time></trkpt><trkpt lat="43.6577967" lon="10.657785"><ele>16.0</ele><time>2026-04-06T10:06:12.658Z</time></trkpt><trkpt lat="43.65793" lon="10.6577733"><ele>15.75</ele><time>2026-04-06T10:06:13.658Z</time></trkpt><trkpt lat="43.658065" lon="10.6577667"><ele>15.5</ele><time>2026-04-06T10:06:14.658Z</time></trkpt><trkpt lat="43.6581983" lon="10.65776"><ele>15.25</ele><time>2026-04-06T10:06:15.658Z</time></trkpt><trkpt lat="43.6583333" lon="10.6577567"><ele>15.0</ele><time>2026-04-06T10:06:16.658Z</time></trkpt><trkpt lat="43.6584667" lon="10.657755"><ele>15.0</ele><time>2026-04-06T10:06:17.658Z</time></trkpt><trkpt lat="43.6586033" lon="10.65775"><ele>15.0</ele><time>2026-04-06T10:06:18.658Z</time></trkpt><trkpt lat="43.6587417" lon="10.6577433"><ele>15.0</ele><time>2026-04-06T10:06:19.658Z</time></trkpt><trkpt lat="43.65888" lon="10.657735"><ele>15.0</ele><time>2026-04-06T10:06:20.658Z</time></trkpt><trkpt lat="43.6590183" lon="10.6577283"><ele>15.0</ele><time>2026-04-06T10:06:21.658Z</time></trkpt><trkpt lat="43.6591583" lon="10.6577217"><ele>15.0</ele><time>2026-04-06T10:06:22.658Z</time></trkpt><trkpt lat="43.6595817" lon="10.6577083"><ele>14.5</ele><time>2026-04-06T10:06:25.658Z</time></trkpt><trkpt lat="43.6597233" lon="10.6577"><ele>14.0</ele><time>2026-04-06T10:06:26.659Z</time></trkpt><trkpt lat="43.65987" lon="10.6576883"><ele>13.5</ele><time>2026-04-06T10:06:27.658Z</time></trkpt><trkpt lat="43.6600167" lon="10.65768"><ele>13.0</ele><time>2026-04-06T10:06:28.658Z</time></trkpt><trkpt lat="43.6601667" lon="10.657675"><ele>13.0</ele><time>2026-04-06T10:06:29.658Z</time></trkpt><trkpt lat="43.6603183" lon="10.65767"><ele>13.0</ele><time>2026-04-06T10:06:30.658Z</time></trkpt><trkpt lat="43.6604683" lon="10.65766"><ele>13.0</ele><time>2026-04-06T10:06:31.658Z</time></trkpt><trkpt lat="43.6606167" lon="10.65765"><ele>13.0</ele><time>2026-04-06T10:06:32.658Z</time></trkpt><trkpt lat="43.6607667" lon="10.6576417"><ele>13.0</ele><time>2026-04-06T10:06:33.658Z</time></trkpt><trkpt lat="43.660915" lon="10.657635"><ele>13.0</ele><time>2026-04-06T10:06:34.658Z</time></trkpt><trkpt lat="43.6610633" lon="10.6576267"><ele>13.0</ele><time>2026-04-06T10:06:35.658Z</time></trkpt><trkpt lat="43.66121" lon="10.6576183"><ele>13.0</ele><time>2026-04-06T10:06:36.659Z</time></trkpt><trkpt lat="43.661355" lon="10.6576083"><ele>13.0</ele><time>2026-04-06T10:06:37.658Z</time></trkpt><trkpt lat="43.6615" lon="10.6575983"><ele>13.0</ele><time>2026-04-06T10:06:38.658Z</time></trkpt><trkpt lat="43.661645" lon="10.65759"><ele>13.0</ele><time>2026-04-06T10:06:39.658Z</time></trkpt><trkpt lat="43.6617883" lon="10.6575833"><ele>13.0</ele><time>2026-04-06T10:06:40.658Z</time></trkpt><trkpt lat="43.6619317" lon="10.6575783"><ele>13.0</ele><time>2026-04-06T10:06:41.658Z</time></trkpt><trkpt lat="43.6620767" lon="10.6575733"><ele>13.0</ele><time>2026-04-06T10:06:42.659Z</time></trkpt><trkpt lat="43.6622217" lon="10.657565"><ele>13.0</ele><time>2026-04-06T10:06:43.658Z</time></trkpt><trkpt lat="43.6623683" lon="10.6575583"><ele>13.0</ele><time>2026-04-06T10:06:44.658Z</time></trkpt><trkpt lat="43.6625167" lon="10.6575517"><ele>13.0</ele><time>2026-04-06T10:06:45.659Z</time></trkpt><trkpt lat="43.6626633" lon="10.657545"><ele>13.0</ele><time>2026-04-06T10:06:46.659Z</time></trkpt><trkpt lat="43.66281" lon="10.65753"><ele>13.0</ele><time>2026-04-06T10:06:47.658Z</time></trkpt><trkpt lat="43.6629583" lon="10.65752"><ele>13.25</ele><time>2026-04-06T10:06:48.658Z</time></trkpt><trkpt lat="43.663105" lon="10.65751"><ele>13.5</ele><time>2026-04-06T10:06:49.658Z</time></trkpt><trkpt lat="43.66325" lon="10.6575067"><ele>13.75</ele><time>2026-04-06T10:06:50.658Z</time></trkpt><trkpt lat="43.6633917" lon="10.6575217"><ele>14.0</ele><time>2026-04-06T10:06:51.658Z</time></trkpt><trkpt lat="43.6635333" lon="10.6575417"><ele>14.25</ele><time>2026-04-06T10:06:52.658Z</time></trkpt><trkpt lat="43.66367" lon="10.657565"><ele>14.5</ele><time>2026-04-06T10:06:53.658Z</time></trkpt><trkpt lat="43.6637983" lon="10.6576"><ele>14.75</ele><time>2026-04-06T10:06:54.658Z</time></trkpt><trkpt lat="43.6639183" lon="10.65764"><ele>15.0</ele><time>2026-04-06T10:06:55.658Z</time></trkpt><trkpt lat="43.6640283" lon="10.6576817"><ele>15.0</ele><time>2026-04-06T10:06:56.659Z</time></trkpt><trkpt lat="43.6641283" lon="10.6577333"><ele>15.0</ele><time>2026-04-06T10:06:57.658Z</time></trkpt><trkpt lat="43.664215" lon="10.657785"><ele>15.0</ele><time>2026-04-06T10:06:58.658Z</time></trkpt><trkpt lat="43.66429" lon="10.6578467"><ele>15.0</ele><time>2026-04-06T10:06:59.658Z</time></trkpt><trkpt lat="43.664355" lon="10.6579133"><ele>15.0</ele><time>2026-04-06T10:07:00.658Z</time></trkpt><trkpt lat="43.66441" lon="10.6579817"><ele>15.0</ele><time>2026-04-06T10:07:01.658Z</time></trkpt><trkpt lat="43.664455" lon="10.6580567"><ele>15.0</ele><time>2026-04-06T10:07:02.658Z</time></trkpt><trkpt lat="43.6644817" lon="10.6581533"><ele>15.0</ele><time>2026-04-06T10:07:03.659Z</time></trkpt><trkpt lat="43.6644967" lon="10.658265"><ele>15.0</ele><time>2026-04-06T10:07:04.658Z</time></trkpt><trkpt lat="43.664515" lon="10.6583767"><ele>15.0</ele><time>2026-04-06T10:07:05.658Z</time></trkpt><trkpt lat="43.6645417" lon="10.6584867"><ele>15.0</ele><time>2026-04-06T10:07:06.658Z</time></trkpt><trkpt lat="43.6645767" lon="10.658585"><ele>15.0</ele><time>2026-04-06T10:07:07.658Z</time></trkpt><trkpt lat="43.6646333" lon="10.6586633"><ele>15.0</ele><time>2026-04-06T10:07:08.659Z</time></trkpt><trkpt lat="43.6647067" lon="10.6587183"><ele>15.0</ele><time>2026-04-06T10:07:09.658Z</time></trkpt><trkpt lat="43.6647917" lon="10.65874"><ele>15.0</ele><time>2026-04-06T10:07:10.658Z</time></trkpt><trkpt lat="43.6648817" lon="10.658725"><ele>15.0</ele><time>2026-04-06T10:07:11.658Z</time></trkpt><trkpt lat="43.6649617" lon="10.658655"><ele>15.0</ele><time>2026-04-06T10:07:12.658Z</time></trkpt><trkpt lat="43.66503" lon="10.6585683"><ele>15.0</ele><time>2026-04-06T10:07:13.658Z</time></trkpt><trkpt lat="43.6650817" lon="10.6584683"><ele>14.8</ele><time>2026-04-06T10:07:14.658Z</time></trkpt><trkpt lat="43.6651183" lon="10.6583483"><ele>14.6</ele><time>2026-04-06T10:07:15.658Z</time></trkpt><trkpt lat="43.6651317" lon="10.6581883"><ele>14.399999999999999</ele><time>2026-04-06T10:07:16.658Z</time></trkpt><trkpt lat="43.6651517" lon="10.6580317"><ele>14.2</ele><time>2026-04-06T10:07:17.658Z</time></trkpt><trkpt lat="43.665185" lon="10.6578833"><ele>14.0</ele><time>2026-04-06T10:07:18.658Z</time></trkpt><trkpt lat="43.6652233" lon="10.65773"><ele>14.0</ele><time>2026-04-06T10:07:19.659Z</time></trkpt><trkpt lat="43.6652583" lon="10.6575683"><ele>14.0</ele><time>2026-04-06T10:07:20.658Z</time></trkpt><trkpt lat="43.66529" lon="10.6574033"><ele>14.0</ele><time>2026-04-06T10:07:21.658Z</time></trkpt><trkpt lat="43.6653233" lon="10.657235"><ele>14.0</ele><time>2026-04-06T10:07:22.658Z</time></trkpt><trkpt lat="43.6653533" lon="10.65706"><ele>14.0</ele><time>2026-04-06T10:07:23.658Z</time></trkpt><trkpt lat="43.6653833" lon="10.656885"><ele>14.0</ele><time>2026-04-06T10:07:24.658Z</time></trkpt><trkpt lat="43.6654133" lon="10.6567083"><ele>14.0</ele><time>2026-04-06T10:07:25.658Z</time></trkpt><trkpt lat="43.6654417" lon="10.6565317"><ele>14.0</ele><time>2026-04-06T10:07:26.658Z</time></trkpt><trkpt lat="43.6654733" lon="10.656355"><ele>14.0</ele><time>2026-04-06T10:07:27.658Z</time></trkpt><trkpt lat="43.6655117" lon="10.6561883"><ele>13.999999999999998</ele><time>2026-04-06T10:07:28.658Z</time></trkpt><trkpt lat="43.6655583" lon="10.6560433"><ele>13.999999999999998</ele><time>2026-04-06T10:07:29.659Z</time></trkpt><trkpt lat="43.6656183" lon="10.655925"><ele>14.0</ele><time>2026-04-06T10:07:30.658Z</time></trkpt><trkpt lat="43.665695" lon="10.655835"><ele>14.0</ele><time>2026-04-06T10:07:31.658Z</time></trkpt><trkpt lat="43.6657817" lon="10.6557833"><ele>14.0</ele><time>2026-04-06T10:07:32.658Z</time></trkpt><trkpt lat="43.6658683" lon="10.6557683"><ele>13.999999999999998</ele><time>2026-04-06T10:07:33.658Z</time></trkpt><trkpt lat="43.6659567" lon="10.65577"><ele>13.999999999999998</ele><time>2026-04-06T10:07:34.658Z</time></trkpt><trkpt lat="43.6660417" lon="10.6558083"><ele>14.0</ele><time>2026-04-06T10:07:35.658Z</time></trkpt><trkpt lat="43.6661317" lon="10.65588"><ele>14.0</ele><time>2026-04-06T10:07:36.658Z</time></trkpt><trkpt lat="43.6662283" lon="10.6559083"><ele>13.799999999999999</ele><time>2026-04-06T10:07:37.658Z</time></trkpt><trkpt lat="43.6663267" lon="10.6559083"><ele>13.599999999999998</ele><time>2026-04-06T10:07:38.659Z</time></trkpt><trkpt lat="43.6664183" lon="10.65587"><ele>13.4</ele><time>2026-04-06T10:07:39.658Z</time></trkpt><trkpt lat="43.666505" lon="10.6557933"><ele>13.2</ele><time>2026-04-06T10:07:40.658Z</time></trkpt><trkpt lat="43.6665933" lon="10.6557333"><ele>13.0</ele><time>2026-04-06T10:07:41.658Z</time></trkpt><trkpt lat="43.6666967" lon="10.655705"><ele>13.0</ele><time>2026-04-06T10:07:42.658Z</time></trkpt><trkpt lat="43.6668133" lon="10.6557067"><ele>13.0</ele><time>2026-04-06T10:07:43.658Z</time></trkpt><trkpt lat="43.6669383" lon="10.655725"><ele>13.0</ele><time>2026-04-06T10:07:44.658Z</time></trkpt><trkpt lat="43.6670683" lon="10.655745"><ele>13.0</ele><time>2026-04-06T10:07:45.658Z</time></trkpt><trkpt lat="43.6671983" lon="10.6557683"><ele>13.25</ele><time>2026-04-06T10:07:46.658Z</time></trkpt><trkpt lat="43.6673333" lon="10.6557917"><ele>13.5</ele><time>2026-04-06T10:07:47.658Z</time></trkpt><trkpt lat="43.667475" lon="10.6558167"><ele>13.75</ele><time>2026-04-06T10:07:48.658Z</time></trkpt><trkpt lat="43.66762" lon="10.6558383"><ele>14.0</ele><time>2026-04-06T10:07:49.658Z</time></trkpt><trkpt lat="43.6677667" lon="10.6558583"><ele>14.0</ele><time>2026-04-06T10:07:50.658Z</time></trkpt><trkpt lat="43.6679167" lon="10.6558783"><ele>14.0</ele><time>2026-04-06T10:07:51.658Z</time></trkpt><trkpt lat="43.6680667" lon="10.6558967"><ele>14.0</ele><time>2026-04-06T10:07:52.659Z</time></trkpt><trkpt lat="43.6682183" lon="10.6559167"><ele>14.0</ele><time>2026-04-06T10:07:53.658Z</time></trkpt><trkpt lat="43.6683717" lon="10.6559367"><ele>14.0</ele><time>2026-04-06T10:07:54.658Z</time></trkpt><trkpt lat="43.668525" lon="10.65596"><ele>14.0</ele><time>2026-04-06T10:07:55.658Z</time></trkpt><trkpt lat="43.6686783" lon="10.6559817"><ele>14.0</ele><time>2026-04-06T10:07:56.659Z</time></trkpt><trkpt lat="43.6688383" lon="10.656"><ele>14.0</ele><time>2026-04-06T10:07:57.658Z</time></trkpt><trkpt lat="43.6689983" lon="10.65602"><ele>14.0</ele><time>2026-04-06T10:07:58.658Z</time></trkpt><trkpt lat="43.66916" lon="10.656045"><ele>14.0</ele><time>2026-04-06T10:07:59.658Z</time></trkpt><trkpt lat="43.669325" lon="10.6560667"><ele>14.0</ele><time>2026-04-06T10:08:00.658Z</time></trkpt><trkpt lat="43.6694933" lon="10.6560817"><ele>14.0</ele><time>2026-04-06T10:08:01.659Z</time></trkpt><trkpt lat="43.6696617" lon="10.6560917"><ele>13.666666666666668</ele><time>2026-04-06T10:08:02.658Z</time></trkpt><trkpt lat="43.6698317" lon="10.6560883"><ele>13.333333333333332</ele><time>2026-04-06T10:08:03.658Z</time></trkpt><trkpt lat="43.67" lon="10.6560767"><ele>13.0</ele><time>2026-04-06T10:08:04.658Z</time></trkpt><trkpt lat="43.67017" lon="10.656055"><ele>13.666666666666666</ele><time>2026-04-06T10:08:05.658Z</time></trkpt><trkpt lat="43.6703383" lon="10.6560167"><ele>14.333333333333332</ele><time>2026-04-06T10:08:06.659Z</time></trkpt><trkpt lat="43.670505" lon="10.65596"><ele>15.0</ele><time>2026-04-06T10:08:07.658Z</time></trkpt><trkpt lat="43.6706667" lon="10.6558833"><ele>15.0</ele><time>2026-04-06T10:08:08.658Z</time></trkpt><trkpt lat="43.6708217" lon="10.6557883"><ele>15.0</ele><time>2026-04-06T10:08:09.658Z</time></trkpt><trkpt lat="43.670975" lon="10.6556767"><ele>15.0</ele><time>2026-04-06T10:08:10.659Z</time></trkpt><trkpt lat="43.6711233" lon="10.6555467"><ele>15.0</ele><time>2026-04-06T10:08:11.658Z</time></trkpt><trkpt lat="43.67127" lon="10.6553933"><ele>15.0</ele><time>2026-04-06T10:08:12.658Z</time></trkpt><trkpt lat="43.6714017" lon="10.6552367"><ele>15.0</ele><time>2026-04-06T10:08:13.658Z</time></trkpt><trkpt lat="43.6715283" lon="10.65506"><ele>15.0</ele><time>2026-04-06T10:08:14.658Z</time></trkpt><trkpt lat="43.671645" lon="10.654875"><ele>15.0</ele><time>2026-04-06T10:08:15.658Z</time></trkpt><trkpt lat="43.6717517" lon="10.654675"><ele>15.0</ele><time>2026-04-06T10:08:16.658Z</time></trkpt><trkpt lat="43.6718433" lon="10.6544667"><ele>15.0</ele><time>2026-04-06T10:08:17.658Z</time></trkpt><trkpt lat="43.6719233" lon="10.6542533"><ele>15.0</ele><time>2026-04-06T10:08:18.658Z</time></trkpt><trkpt lat="43.6719883" lon="10.6540267"><ele>15.0</ele><time>2026-04-06T10:08:19.658Z</time></trkpt><trkpt lat="43.6720433" lon="10.6537917"><ele>14.666666666666668</ele><time>2026-04-06T10:08:20.658Z</time></trkpt><trkpt lat="43.6720883" lon="10.6535517"><ele>14.333333333333334</ele><time>2026-04-06T10:08:21.658Z</time></trkpt><trkpt lat="43.67212" lon="10.6533083"><ele>14.0</ele><time>2026-04-06T10:08:22.658Z</time></trkpt><trkpt lat="43.6721417" lon="10.6530633"><ele>14.0</ele><time>2026-04-06T10:08:23.658Z</time></trkpt><trkpt lat="43.672155" lon="10.6528267"><ele>14.0</ele><time>2026-04-06T10:08:24.658Z</time></trkpt><trkpt lat="43.6721633" lon="10.6525933"><ele>14.0</ele><time>2026-04-06T10:08:25.658Z</time></trkpt><trkpt lat="43.6721717" lon="10.6523617"><ele>13.666666666666668</ele><time>2026-04-06T10:08:26.658Z</time></trkpt><trkpt lat="43.67218" lon="10.652135"><ele>13.333333333333332</ele><time>2026-04-06T10:08:27.658Z</time></trkpt><trkpt lat="43.672185" lon="10.6519117"><ele>13.0</ele><time>2026-04-06T10:08:28.658Z</time></trkpt><trkpt lat="43.6721917" lon="10.6516967"><ele>13.0</ele><time>2026-04-06T10:08:29.658Z</time></trkpt><trkpt lat="43.6722" lon="10.6514883"><ele>13.0</ele><time>2026-04-06T10:08:30.658Z</time></trkpt><trkpt lat="43.67221" lon="10.6512883"><ele>13.0</ele><time>2026-04-06T10:08:31.659Z</time></trkpt><trkpt lat="43.6722283" lon="10.6510983"><ele>13.0</ele><time>2026-04-06T10:08:32.658Z</time></trkpt><trkpt lat="43.672255" lon="10.6509217"><ele>13.0</ele><time>2026-04-06T10:08:33.658Z</time></trkpt><trkpt lat="43.67229" lon="10.6507633"><ele>13.0</ele><time>2026-04-06T10:08:34.659Z</time></trkpt><trkpt lat="43.672345" lon="10.65062"><ele>13.0</ele><time>2026-04-06T10:08:35.658Z</time></trkpt><trkpt lat="43.6724" lon="10.6504883"><ele>13.0</ele><time>2026-04-06T10:08:36.658Z</time></trkpt><trkpt lat="43.67243" lon="10.6503483"><ele>13.2</ele><time>2026-04-06T10:08:37.658Z</time></trkpt><trkpt lat="43.672425" lon="10.6502033"><ele>13.4</ele><time>2026-04-06T10:08:38.658Z</time></trkpt><trkpt lat="43.6723867" lon="10.6500767"><ele>13.599999999999998</ele><time>2026-04-06T10:08:39.658Z</time></trkpt><trkpt lat="43.6723383" lon="10.649955"><ele>13.799999999999999</ele><time>2026-04-06T10:08:40.658Z</time></trkpt><trkpt lat="43.6723117" lon="10.649815"><ele>14.0</ele><time>2026-04-06T10:08:41.659Z</time></trkpt><trkpt lat="43.67231" lon="10.6496567"><ele>14.0</ele><time>2026-04-06T10:08:42.658Z</time></trkpt><trkpt lat="43.6723317" lon="10.649485"><ele>14.0</ele><time>2026-04-06T10:08:43.659Z</time></trkpt><trkpt lat="43.6723667" lon="10.6493"><ele>14.0</ele><time>2026-04-06T10:08:44.658Z</time></trkpt><trkpt lat="43.6724133" lon="10.6491117"><ele>14.0</ele><time>2026-04-06T10:08:45.658Z</time></trkpt><trkpt lat="43.672465" lon="10.6489267"><ele>14.0</ele><time>2026-04-06T10:08:46.658Z</time></trkpt><trkpt lat="43.672525" lon="10.6487433"><ele>14.0</ele><time>2026-04-06T10:08:47.658Z</time></trkpt><trkpt lat="43.672595" lon="10.64856"><ele>14.0</ele><time>2026-04-06T10:08:48.658Z</time></trkpt><trkpt lat="43.6726717" lon="10.6483767"><ele>14.0</ele><time>2026-04-06T10:08:49.658Z</time></trkpt><trkpt lat="43.6727583" lon="10.6481933"><ele>14.333333333333334</ele><time>2026-04-06T10:08:50.658Z</time></trkpt><trkpt lat="43.6728517" lon="10.6480133"><ele>14.666666666666668</ele><time>2026-04-06T10:08:51.658Z</time></trkpt><trkpt lat="43.6729567" lon="10.6478417"><ele>15.0</ele><time>2026-04-06T10:08:52.658Z</time></trkpt><trkpt lat="43.6730667" lon="10.6476783"><ele>14.333333333333332</ele><time>2026-04-06T10:08:53.658Z</time></trkpt><trkpt lat="43.67318" lon="10.6475217"><ele>13.666666666666666</ele><time>2026-04-06T10:08:54.658Z</time></trkpt><trkpt lat="43.6732967" lon="10.6473767"><ele>13.0</ele><time>2026-04-06T10:08:55.659Z</time></trkpt><trkpt lat="43.6734183" lon="10.6472317"><ele>13.0</ele><time>2026-04-06T10:08:56.658Z</time></trkpt><trkpt lat="43.673535" lon="10.647085"><ele>13.0</ele><time>2026-04-06T10:08:57.658Z</time></trkpt><trkpt lat="43.673655" lon="10.64694"><ele>13.0</ele><time>2026-04-06T10:08:58.658Z</time></trkpt><trkpt lat="43.6737767" lon="10.6467983"><ele>12.666666666666666</ele><time>2026-04-06T10:08:59.658Z</time></trkpt><trkpt lat="43.673895" lon="10.6466583"><ele>12.333333333333332</ele><time>2026-04-06T10:09:00.658Z</time></trkpt><trkpt lat="43.6740117" lon="10.64652"><ele>12.0</ele><time>2026-04-06T10:09:01.659Z</time></trkpt><trkpt lat="43.6741283" lon="10.64638"><ele>12.0</ele><time>2026-04-06T10:09:02.658Z</time></trkpt><trkpt lat="43.6742467" lon="10.6462417"><ele>12.0</ele><time>2026-04-06T10:09:03.658Z</time></trkpt><trkpt lat="43.674365" lon="10.6460983"><ele>12.0</ele><time>2026-04-06T10:09:04.658Z</time></trkpt><trkpt lat="43.6744867" lon="10.6459583"><ele>12.666666666666668</ele><time>2026-04-06T10:09:05.659Z</time></trkpt><trkpt lat="43.6746017" lon="10.6458183"><ele>13.333333333333334</ele><time>2026-04-06T10:09:06.658Z</time></trkpt><trkpt lat="43.6747133" lon="10.645675"><ele>14.0</ele><time>2026-04-06T10:09:07.658Z</time></trkpt><trkpt lat="43.6748233" lon="10.645525"><ele>14.0</ele><time>2026-04-06T10:09:08.658Z</time></trkpt><trkpt lat="43.674925" lon="10.6453717"><ele>14.0</ele><time>2026-04-06T10:09:09.658Z</time></trkpt><trkpt lat="43.67502" lon="10.6452117"><ele>14.0</ele><time>2026-04-06T10:09:10.658Z</time></trkpt><trkpt lat="43.6751083" lon="10.64505"><ele>14.0</ele><time>2026-04-06T10:09:11.658Z</time></trkpt><trkpt lat="43.67519" lon="10.644885"><ele>14.0</ele><time>2026-04-06T10:09:12.658Z</time></trkpt><trkpt lat="43.675265" lon="10.64473"><ele>13.999999999999998</ele><time>2026-04-06T10:09:13.659Z</time></trkpt><trkpt lat="43.6753283" lon="10.6445883"><ele>13.999999999999998</ele><time>2026-04-06T10:09:14.659Z</time></trkpt><trkpt lat="43.675385" lon="10.6444667"><ele>14.0</ele><time>2026-04-06T10:09:15.658Z</time></trkpt><trkpt lat="43.675435" lon="10.644375"><ele>14.0</ele><time>2026-04-06T10:09:16.658Z</time></trkpt><trkpt lat="43.6754783" lon="10.6443033"><ele>13.799999999999999</ele><time>2026-04-06T10:09:17.658Z</time></trkpt><trkpt lat="43.6755683" lon="10.6442067"><ele>13.599999999999998</ele><time>2026-04-06T10:09:19.658Z</time></trkpt><trkpt lat="43.675675" lon="10.6441267"><ele>13.4</ele><time>2026-04-06T10:09:21.658Z</time></trkpt><trkpt lat="43.675725" lon="10.6440667"><ele>13.2</ele><time>2026-04-06T10:09:22.658Z</time></trkpt><trkpt lat="43.6757733" lon="10.6439867"><ele>13.0</ele><time>2026-04-06T10:09:23.658Z</time></trkpt><trkpt lat="43.6758117" lon="10.6438917"><ele>12.999999999999998</ele><time>2026-04-06T10:09:24.658Z</time></trkpt><trkpt lat="43.6758417" lon="10.6437817"><ele>13.0</ele><time>2026-04-06T10:09:25.658Z</time></trkpt><trkpt lat="43.6758767" lon="10.6436717"><ele>13.0</ele><time>2026-04-06T10:09:26.658Z</time></trkpt><trkpt lat="43.6759233" lon="10.64357"><ele>13.0</ele><time>2026-04-06T10:09:27.658Z</time></trkpt><trkpt lat="43.6759867" lon="10.6434817"><ele>12.999999999999998</ele><time>2026-04-06T10:09:28.658Z</time></trkpt><trkpt lat="43.6760533" lon="10.6434033"><ele>13.0</ele><time>2026-04-06T10:09:29.658Z</time></trkpt><trkpt lat="43.6761233" lon="10.6433233"><ele>13.4</ele><time>2026-04-06T10:09:30.658Z</time></trkpt><trkpt lat="43.6761967" lon="10.64324"><ele>13.8</ele><time>2026-04-06T10:09:31.658Z</time></trkpt><trkpt lat="43.6762767" lon="10.64315"><ele>14.2</ele><time>2026-04-06T10:09:32.658Z</time></trkpt><trkpt lat="43.67636" lon="10.6430533"><ele>14.6</ele><time>2026-04-06T10:09:33.658Z</time></trkpt><trkpt lat="43.67644" lon="10.6429483"><ele>15.0</ele><time>2026-04-06T10:09:34.659Z</time></trkpt><trkpt lat="43.6765183" lon="10.6428333"><ele>16.25</ele><time>2026-04-06T10:09:35.658Z</time></trkpt><trkpt lat="43.6765917" lon="10.64271"><ele>17.5</ele><time>2026-04-06T10:09:36.658Z</time></trkpt><trkpt lat="43.67667" lon="10.6425867"><ele>18.75</ele><time>2026-04-06T10:09:37.658Z</time></trkpt><trkpt lat="43.676745" lon="10.642465"><ele>20.0</ele><time>2026-04-06T10:09:38.658Z</time></trkpt><trkpt lat="43.6768183" lon="10.6423317"><ele>20.0</ele><time>2026-04-06T10:09:39.658Z</time></trkpt><trkpt lat="43.676885" lon="10.6421917"><ele>20.0</ele><time>2026-04-06T10:09:40.658Z</time></trkpt><trkpt lat="43.6769467" lon="10.64204"><ele>20.0</ele><time>2026-04-06T10:09:41.658Z</time></trkpt><trkpt lat="43.6770017" lon="10.6418783"><ele>20.0</ele><time>2026-04-06T10:09:42.659Z</time></trkpt><trkpt lat="43.67705" lon="10.6417117"><ele>19.5</ele><time>2026-04-06T10:09:43.659Z</time></trkpt><trkpt lat="43.677095" lon="10.6415433"><ele>19.0</ele><time>2026-04-06T10:09:44.658Z</time></trkpt><trkpt lat="43.6771383" lon="10.6413683"><ele>18.5</ele><time>2026-04-06T10:09:45.658Z</time></trkpt><trkpt lat="43.6771733" lon="10.6411917"><ele>18.0</ele><time>2026-04-06T10:09:46.658Z</time></trkpt><trkpt lat="43.6772033" lon="10.6410133"><ele>17.75</ele><time>2026-04-06T10:09:47.658Z</time></trkpt><trkpt lat="43.6772267" lon="10.64083"><ele>17.5</ele><time>2026-04-06T10:09:48.658Z</time></trkpt><trkpt lat="43.6772433" lon="10.6406417"><ele>17.25</ele><time>2026-04-06T10:09:49.658Z</time></trkpt><trkpt lat="43.6772517" lon="10.6404467"><ele>17.0</ele><time>2026-04-06T10:09:50.658Z</time></trkpt><trkpt lat="43.677255" lon="10.6402467"><ele>16.75</ele><time>2026-04-06T10:09:51.658Z</time></trkpt><trkpt lat="43.6772517" lon="10.6400433"><ele>16.5</ele><time>2026-04-06T10:09:52.659Z</time></trkpt><trkpt lat="43.6772433" lon="10.63984"><ele>16.25</ele><time>2026-04-06T10:09:53.658Z</time></trkpt><trkpt lat="43.6772283" lon="10.6396333"><ele>16.0</ele><time>2026-04-06T10:09:54.658Z</time></trkpt><trkpt lat="43.6772067" lon="10.639425"><ele>16.0</ele><time>2026-04-06T10:09:55.658Z</time></trkpt><trkpt lat="43.677185" lon="10.6392133"><ele>16.0</ele><time>2026-04-06T10:09:56.658Z</time></trkpt><trkpt lat="43.6771633" lon="10.6390033"><ele>16.0</ele><time>2026-04-06T10:09:57.659Z</time></trkpt><trkpt lat="43.677135" lon="10.63879"><ele>17.0</ele><time>2026-04-06T10:09:58.658Z</time></trkpt><trkpt lat="43.677105" lon="10.6385733"><ele>18.0</ele><time>2026-04-06T10:09:59.658Z</time></trkpt><trkpt lat="43.6770767" lon="10.638355"><ele>19.0</ele><time>2026-04-06T10:10:00.658Z</time></trkpt><trkpt lat="43.6770467" lon="10.6381333"><ele>19.0</ele><time>2026-04-06T10:10:01.658Z</time></trkpt><trkpt lat="43.6770133" lon="10.63791"><ele>19.0</ele><time>2026-04-06T10:10:02.658Z</time></trkpt><trkpt lat="43.6769783" lon="10.6376883"><ele>19.0</ele><time>2026-04-06T10:10:03.658Z</time></trkpt><trkpt lat="43.6769433" lon="10.6374617"><ele>17.333333333333332</ele><time>2026-04-06T10:10:04.658Z</time></trkpt><trkpt lat="43.6769083" lon="10.6372283"><ele>15.666666666666668</ele><time>2026-04-06T10:10:05.658Z</time></trkpt><trkpt lat="43.6768733" lon="10.636995"><ele>14.0</ele><time>2026-04-06T10:10:06.658Z</time></trkpt><trkpt lat="43.67684" lon="10.6367633"><ele>13.666666666666668</ele><time>2026-04-06T10:10:07.658Z</time></trkpt><trkpt lat="43.6768067" lon="10.6365333"><ele>13.333333333333332</ele><time>2026-04-06T10:10:08.658Z</time></trkpt><trkpt lat="43.676775" lon="10.6363017"><ele>13.0</ele><time>2026-04-06T10:10:09.658Z</time></trkpt><trkpt lat="43.6767417" lon="10.6360683"><ele>13.0</ele><time>2026-04-06T10:10:10.658Z</time></trkpt><trkpt lat="43.6767117" lon="10.6358317"><ele>13.0</ele><time>2026-04-06T10:10:11.658Z</time></trkpt><trkpt lat="43.6766783" lon="10.6355967"><ele>13.0</ele><time>2026-04-06T10:10:12.658Z</time></trkpt><trkpt lat="43.6766467" lon="10.6353633"><ele>12.666666666666666</ele><time>2026-04-06T10:10:13.658Z</time></trkpt><trkpt lat="43.67662" lon="10.6351317"><ele>12.333333333333332</ele><time>2026-04-06T10:10:14.658Z</time></trkpt><trkpt lat="43.6765983" lon="10.6349"><ele>12.0</ele><time>2026-04-06T10:10:15.658Z</time></trkpt><trkpt lat="43.6765833" lon="10.6346667"><ele>11.666666666666666</ele><time>2026-04-06T10:10:16.658Z</time></trkpt><trkpt lat="43.6765783" lon="10.6344383"><ele>11.333333333333332</ele><time>2026-04-06T10:10:17.658Z</time></trkpt><trkpt lat="43.676585" lon="10.63421"><ele>11.0</ele><time>2026-04-06T10:10:18.658Z</time></trkpt><trkpt lat="43.67661" lon="10.6339883"><ele>11.0</ele><time>2026-04-06T10:10:19.658Z</time></trkpt><trkpt lat="43.6766417" lon="10.6337717"><ele>11.0</ele><time>2026-04-06T10:10:20.658Z</time></trkpt><trkpt lat="43.6766833" lon="10.6335667"><ele>11.0</ele><time>2026-04-06T10:10:21.658Z</time></trkpt><trkpt lat="43.6767417" lon="10.6333717"><ele>11.0</ele><time>2026-04-06T10:10:22.659Z</time></trkpt><trkpt lat="43.6768133" lon="10.6331833"><ele>11.0</ele><time>2026-04-06T10:10:23.658Z</time></trkpt><trkpt lat="43.676895" lon="10.6330067"><ele>11.0</ele><time>2026-04-06T10:10:24.658Z</time></trkpt><trkpt lat="43.6769883" lon="10.6328467"><ele>11.5</ele><time>2026-04-06T10:10:25.658Z</time></trkpt><trkpt lat="43.6770867" lon="10.6327083"><ele>12.0</ele><time>2026-04-06T10:10:26.658Z</time></trkpt><trkpt lat="43.67719" lon="10.632585"><ele>12.5</ele><time>2026-04-06T10:10:27.658Z</time></trkpt><trkpt lat="43.6772983" lon="10.632485"><ele>13.0</ele><time>2026-04-06T10:10:28.658Z</time></trkpt><trkpt lat="43.6774067" lon="10.6324"><ele>13.0</ele><time>2026-04-06T10:10:29.658Z</time></trkpt><trkpt lat="43.6775183" lon="10.6323267"><ele>13.0</ele><time>2026-04-06T10:10:30.658Z</time></trkpt><trkpt lat="43.6776283" lon="10.632265"><ele>13.0</ele><time>2026-04-06T10:10:31.659Z</time></trkpt><trkpt lat="43.67774" lon="10.6322167"><ele>13.0</ele><time>2026-04-06T10:10:32.658Z</time></trkpt><trkpt lat="43.6778567" lon="10.632175"><ele>13.0</ele><time>2026-04-06T10:10:33.658Z</time></trkpt><trkpt lat="43.6779733" lon="10.632145"><ele>13.0</ele><time>2026-04-06T10:10:34.658Z</time></trkpt><trkpt lat="43.6780933" lon="10.6321267"><ele>13.0</ele><time>2026-04-06T10:10:35.659Z</time></trkpt><trkpt lat="43.6782117" lon="10.6321217"><ele>13.0</ele><time>2026-04-06T10:10:36.658Z</time></trkpt><trkpt lat="43.678335" lon="10.63213"><ele>13.0</ele><time>2026-04-06T10:10:37.658Z</time></trkpt><trkpt lat="43.678455" lon="10.63215"><ele>13.0</ele><time>2026-04-06T10:10:38.658Z</time></trkpt><trkpt lat="43.678565" lon="10.6321817"><ele>13.0</ele><time>2026-04-06T10:10:39.659Z</time></trkpt><trkpt lat="43.6786667" lon="10.632225"><ele>13.0</ele><time>2026-04-06T10:10:40.658Z</time></trkpt><trkpt lat="43.6787567" lon="10.63228"><ele>13.0</ele><time>2026-04-06T10:10:41.658Z</time></trkpt><trkpt lat="43.67883" lon="10.6323383"><ele>13.285714285714285</ele><time>2026-04-06T10:10:42.658Z</time></trkpt><trkpt lat="43.67889" lon="10.6324"><ele>13.571428571428573</ele><time>2026-04-06T10:10:43.659Z</time></trkpt><trkpt lat="43.6789417" lon="10.6324633"><ele>13.857142857142858</ele><time>2026-04-06T10:10:44.659Z</time></trkpt><trkpt lat="43.6789833" lon="10.6325333"><ele>14.142857142857142</ele><time>2026-04-06T10:10:45.658Z</time></trkpt><trkpt lat="43.6790233" lon="10.6326217"><ele>14.428571428571427</ele><time>2026-04-06T10:10:46.658Z</time></trkpt><trkpt lat="43.6790683" lon="10.6327083"><ele>14.714285714285715</ele><time>2026-04-06T10:10:47.659Z</time></trkpt><trkpt lat="43.6791217" lon="10.6327783"><ele>15.0</ele><time>2026-04-06T10:10:48.658Z</time></trkpt><trkpt lat="43.6791817" lon="10.6328333"><ele>15.0</ele><time>2026-04-06T10:10:49.658Z</time></trkpt><trkpt lat="43.6792533" lon="10.632845"><ele>15.0</ele><time>2026-04-06T10:10:50.658Z</time></trkpt><trkpt lat="43.679325" lon="10.63283"><ele>15.0</ele><time>2026-04-06T10:10:51.658Z</time></trkpt><trkpt lat="43.6793983" lon="10.6327767"><ele>15.0</ele><time>2026-04-06T10:10:52.658Z</time></trkpt><trkpt lat="43.6794583" lon="10.6326883"><ele>15.0</ele><time>2026-04-06T10:10:53.658Z</time></trkpt><trkpt lat="43.6795" lon="10.6325783"><ele>15.0</ele><time>2026-04-06T10:10:54.658Z</time></trkpt><trkpt lat="43.6795283" lon="10.632435"><ele>15.75</ele><time>2026-04-06T10:10:55.658Z</time></trkpt><trkpt lat="43.6795783" lon="10.63231"><ele>16.5</ele><time>2026-04-06T10:10:56.658Z</time></trkpt><trkpt lat="43.6796333" lon="10.632175"><ele>17.25</ele><time>2026-04-06T10:10:57.658Z</time></trkpt><trkpt lat="43.6797" lon="10.632045"><ele>18.0</ele><time>2026-04-06T10:10:58.659Z</time></trkpt><trkpt lat="43.6797667" lon="10.6319083"><ele>15.5</ele><time>2026-04-06T10:10:59.658Z</time></trkpt><trkpt lat="43.6798383" lon="10.6317717"><ele>13.0</ele><time>2026-04-06T10:11:00.658Z</time></trkpt><trkpt lat="43.679915" lon="10.631635"><ele>10.5</ele><time>2026-04-06T10:11:01.658Z</time></trkpt><trkpt lat="43.6799917" lon="10.63149"><ele>8.0</ele><time>2026-04-06T10:11:02.658Z</time></trkpt><trkpt lat="43.68007" lon="10.631345"><ele>8.0</ele><time>2026-04-06T10:11:03.658Z</time></trkpt><trkpt lat="43.6801517" lon="10.6312"><ele>8.0</ele><time>2026-04-06T10:11:04.658Z</time></trkpt><trkpt lat="43.6802333" lon="10.63105"><ele>8.0</ele><time>2026-04-06T10:11:05.658Z</time></trkpt><trkpt lat="43.6803167" lon="10.6308967"><ele>8.0</ele><time>2026-04-06T10:11:06.658Z</time></trkpt><trkpt lat="43.6804033" lon="10.63073"><ele>10.666666666666666</ele><time>2026-04-06T10:11:07.658Z</time></trkpt><trkpt lat="43.6804933" lon="10.6305617"><ele>13.333333333333332</ele><time>2026-04-06T10:11:08.659Z</time></trkpt><trkpt lat="43.6805833" lon="10.63039"><ele>16.0</ele><time>2026-04-06T10:11:09.658Z</time></trkpt><trkpt lat="43.6806717" lon="10.6302183"><ele>16.333333333333332</ele><time>2026-04-06T10:11:10.658Z</time></trkpt><trkpt lat="43.68076" lon="10.6300433"><ele>16.666666666666668</ele><time>2026-04-06T10:11:11.658Z</time></trkpt><trkpt lat="43.68085" lon="10.62987"><ele>17.0</ele><time>2026-04-06T10:11:12.658Z</time></trkpt><trkpt lat="43.680945" lon="10.6296933"><ele>17.0</ele><time>2026-04-06T10:11:13.659Z</time></trkpt><trkpt lat="43.681035" lon="10.6295183"><ele>17.0</ele><time>2026-04-06T10:11:14.658Z</time></trkpt><trkpt lat="43.68113" lon="10.62934"><ele>17.0</ele><time>2026-04-06T10:11:15.658Z</time></trkpt><trkpt lat="43.6812233" lon="10.6291633"><ele>17.333333333333336</ele><time>2026-04-06T10:11:16.658Z</time></trkpt><trkpt lat="43.6813183" lon="10.628985"><ele>17.666666666666668</ele><time>2026-04-06T10:11:17.658Z</time></trkpt><trkpt lat="43.681415" lon="10.628805"><ele>18.0</ele><time>2026-04-06T10:11:18.659Z</time></trkpt><trkpt lat="43.68151" lon="10.62863"><ele>18.0</ele><time>2026-04-06T10:11:19.658Z</time></trkpt><trkpt lat="43.6816067" lon="10.6284517"><ele>18.0</ele><time>2026-04-06T10:11:20.658Z</time></trkpt><trkpt lat="43.6817" lon="10.6282783"><ele>18.0</ele><time>2026-04-06T10:11:21.659Z</time></trkpt><trkpt lat="43.681795" lon="10.628105"><ele>18.0</ele><time>2026-04-06T10:11:22.658Z</time></trkpt><trkpt lat="43.6818933" lon="10.6279283"><ele>18.0</ele><time>2026-04-06T10:11:23.658Z</time></trkpt><trkpt lat="43.6819933" lon="10.6277517"><ele>18.0</ele><time>2026-04-06T10:11:24.658Z</time></trkpt><trkpt lat="43.6820967" lon="10.6275717"><ele>24.0</ele><time>2026-04-06T10:11:25.659Z</time></trkpt><trkpt lat="43.682195" lon="10.627395"><ele>30.0</ele><time>2026-04-06T10:11:26.658Z</time></trkpt><trkpt lat="43.68229" lon="10.6272183"><ele>36.0</ele><time>2026-04-06T10:11:27.658Z</time></trkpt><trkpt lat="43.682385" lon="10.627045"><ele>34.5</ele><time>2026-04-06T10:11:28.658Z</time></trkpt><trkpt lat="43.6824767" lon="10.6268733"><ele>33.0</ele><time>2026-04-06T10:11:29.658Z</time></trkpt><trkpt lat="43.68257" lon="10.6267117"><ele>31.5</ele><time>2026-04-06T10:11:30.659Z</time></trkpt><trkpt lat="43.6826583" lon="10.6265567"><ele>30.0</ele><time>2026-04-06T10:11:31.658Z</time></trkpt><trkpt lat="43.68274" lon="10.6264067"><ele>30.0</ele><time>2026-04-06T10:11:32.658Z</time></trkpt><trkpt lat="43.682825" lon="10.6262717"><ele>30.0</ele><time>2026-04-06T10:11:33.658Z</time></trkpt><trkpt lat="43.6829117" lon="10.62614"><ele>30.0</ele><time>2026-04-06T10:11:34.658Z</time></trkpt><trkpt lat="43.6829767" lon="10.6259967"><ele>30.0</ele><time>2026-04-06T10:11:35.658Z</time></trkpt><trkpt lat="43.68306" lon="10.6258567"><ele>30.0</ele><time>2026-04-06T10:11:36.658Z</time></trkpt><trkpt lat="43.6831433" lon="10.625725"><ele>30.0</ele><time>2026-04-06T10:11:37.658Z</time></trkpt><trkpt lat="43.6832217" lon="10.6256117"><ele>30.0</ele><time>2026-04-06T10:11:38.658Z</time></trkpt><trkpt lat="43.6833017" lon="10.625515"><ele>30.0</ele><time>2026-04-06T10:11:39.658Z</time></trkpt><trkpt lat="43.6833767" lon="10.6254283"><ele>30.0</ele><time>2026-04-06T10:11:40.658Z</time></trkpt><trkpt lat="43.6834483" lon="10.6253683"><ele>30.0</ele><time>2026-04-06T10:11:41.658Z</time></trkpt><trkpt lat="43.6835233" lon="10.625325"><ele>30.0</ele><time>2026-04-06T10:11:42.658Z</time></trkpt><trkpt lat="43.6836067" lon="10.6252833"><ele>30.0</ele><time>2026-04-06T10:11:43.658Z</time></trkpt><trkpt lat="43.6837033" lon="10.6252467"><ele>30.0</ele><time>2026-04-06T10:11:44.658Z</time></trkpt><trkpt lat="43.683805" lon="10.6252083"><ele>30.0</ele><time>2026-04-06T10:11:45.658Z</time></trkpt><trkpt lat="43.6839167" lon="10.625175"><ele>27.25</ele><time>2026-04-06T10:11:46.659Z</time></trkpt><trkpt lat="43.6840333" lon="10.62516"><ele>24.5</ele><time>2026-04-06T10:11:47.658Z</time></trkpt><trkpt lat="43.684155" lon="10.6251583"><ele>21.75</ele><time>2026-04-06T10:11:48.658Z</time></trkpt><trkpt lat="43.6842817" lon="10.6251617"><ele>19.0</ele><time>2026-04-06T10:11:49.658Z</time></trkpt><trkpt lat="43.6844167" lon="10.625155"><ele>18.0</ele><time>2026-04-06T10:11:50.658Z</time></trkpt><trkpt lat="43.6845567" lon="10.6251367"><ele>17.0</ele><time>2026-04-06T10:11:51.658Z</time></trkpt><trkpt lat="43.6846983" lon="10.625115"><ele>16.0</ele><time>2026-04-06T10:11:52.658Z</time></trkpt><trkpt lat="43.684845" lon="10.62509"><ele>15.0</ele><time>2026-04-06T10:11:53.658Z</time></trkpt><trkpt lat="43.684995" lon="10.6250683"><ele>15.0</ele><time>2026-04-06T10:11:54.658Z</time></trkpt><trkpt lat="43.685145" lon="10.625045"><ele>15.0</ele><time>2026-04-06T10:11:55.658Z</time></trkpt><trkpt lat="43.685295" lon="10.6250283"><ele>15.0</ele><time>2026-04-06T10:11:56.658Z</time></trkpt><trkpt lat="43.6854417" lon="10.625005"><ele>15.0</ele><time>2026-04-06T10:11:57.658Z</time></trkpt><trkpt lat="43.6855917" lon="10.6249817"><ele>14.333333333333332</ele><time>2026-04-06T10:11:58.658Z</time></trkpt><trkpt lat="43.6857417" lon="10.6249567"><ele>13.666666666666666</ele><time>2026-04-06T10:11:59.658Z</time></trkpt><trkpt lat="43.68589" lon="10.6249333"><ele>13.0</ele><time>2026-04-06T10:12:00.658Z</time></trkpt><trkpt lat="43.68604" lon="10.62491"><ele>13.25</ele><time>2026-04-06T10:12:01.658Z</time></trkpt><trkpt lat="43.686185" lon="10.6248883"><ele>13.5</ele><time>2026-04-06T10:12:02.658Z</time></trkpt><trkpt lat="43.6863317" lon="10.624865"><ele>13.75</ele><time>2026-04-06T10:12:03.658Z</time></trkpt><trkpt lat="43.6864783" lon="10.6248417"><ele>14.0</ele><time>2026-04-06T10:12:04.658Z</time></trkpt><trkpt lat="43.6866233" lon="10.6248167"><ele>14.0</ele><time>2026-04-06T10:12:05.658Z</time></trkpt><trkpt lat="43.6867683" lon="10.62479"><ele>14.0</ele><time>2026-04-06T10:12:06.659Z</time></trkpt><trkpt lat="43.686915" lon="10.6247633"><ele>14.0</ele><time>2026-04-06T10:12:07.658Z</time></trkpt><trkpt lat="43.6870583" lon="10.6247367"><ele>14.0</ele><time>2026-04-06T10:12:08.658Z</time></trkpt><trkpt lat="43.6871983" lon="10.62471"><ele>13.5</ele><time>2026-04-06T10:12:09.658Z</time></trkpt><trkpt lat="43.6873367" lon="10.624685"><ele>13.0</ele><time>2026-04-06T10:12:10.658Z</time></trkpt><trkpt lat="43.687475" lon="10.624665"><ele>12.5</ele><time>2026-04-06T10:12:11.658Z</time></trkpt><trkpt lat="43.68762" lon="10.6246367"><ele>12.0</ele><time>2026-04-06T10:12:12.658Z</time></trkpt><trkpt lat="43.6877583" lon="10.624615"><ele>11.5</ele><time>2026-04-06T10:12:13.659Z</time></trkpt><trkpt lat="43.6878983" lon="10.6245883"><ele>11.0</ele><time>2026-04-06T10:12:14.658Z</time></trkpt><trkpt lat="43.6880383" lon="10.6245633"><ele>10.5</ele><time>2026-04-06T10:12:15.658Z</time></trkpt><trkpt lat="43.6881833" lon="10.624545"><ele>10.0</ele><time>2026-04-06T10:12:16.659Z</time></trkpt><trkpt lat="43.6883283" lon="10.6245233"><ele>10.0</ele><time>2026-04-06T10:12:17.658Z</time></trkpt><trkpt lat="43.6884717" lon="10.6245033"><ele>10.0</ele><time>2026-04-06T10:12:18.658Z</time></trkpt><trkpt lat="43.6886133" lon="10.62448"><ele>10.0</ele><time>2026-04-06T10:12:19.66Z</time></trkpt><trkpt lat="43.6887533" lon="10.6244517"><ele>10.0</ele><time>2026-04-06T10:12:20.659Z</time></trkpt><trkpt lat="43.6888933" lon="10.6244167"><ele>10.5</ele><time>2026-04-06T10:12:21.659Z</time></trkpt><trkpt lat="43.6890367" lon="10.6243767"><ele>11.0</ele><time>2026-04-06T10:12:22.659Z</time></trkpt><trkpt lat="43.6891833" lon="10.624335"><ele>11.5</ele><time>2026-04-06T10:12:23.659Z</time></trkpt><trkpt lat="43.6893267" lon="10.6242883"><ele>12.0</ele><time>2026-04-06T10:12:24.659Z</time></trkpt><trkpt lat="43.6894717" lon="10.6242417"><ele>12.0</ele><time>2026-04-06T10:12:25.659Z</time></trkpt><trkpt lat="43.6896133" lon="10.624195"><ele>12.0</ele><time>2026-04-06T10:12:26.659Z</time></trkpt><trkpt lat="43.6897533" lon="10.6241417"><ele>12.0</ele><time>2026-04-06T10:12:27.659Z</time></trkpt><trkpt lat="43.6898917" lon="10.6240883"><ele>12.0</ele><time>2026-04-06T10:12:28.659Z</time></trkpt><trkpt lat="43.6900317" lon="10.624035"><ele>12.0</ele><time>2026-04-06T10:12:29.659Z</time></trkpt><trkpt lat="43.690175" lon="10.623985"><ele>12.0</ele><time>2026-04-06T10:12:30.659Z</time></trkpt><trkpt lat="43.6903133" lon="10.6239333"><ele>12.0</ele><time>2026-04-06T10:12:31.659Z</time></trkpt><trkpt lat="43.6904533" lon="10.6238817"><ele>12.0</ele><time>2026-04-06T10:12:32.659Z</time></trkpt><trkpt lat="43.6905917" lon="10.6238267"><ele>12.25</ele><time>2026-04-06T10:12:33.659Z</time></trkpt><trkpt lat="43.690735" lon="10.6237767"><ele>12.5</ele><time>2026-04-06T10:12:34.659Z</time></trkpt><trkpt lat="43.6908817" lon="10.6237267"><ele>12.75</ele><time>2026-04-06T10:12:35.66Z</time></trkpt><trkpt lat="43.6910217" lon="10.6236767"><ele>13.0</ele><time>2026-04-06T10:12:36.66Z</time></trkpt><trkpt lat="43.691165" lon="10.6236267"><ele>13.0</ele><time>2026-04-06T10:12:37.659Z</time></trkpt><trkpt lat="43.6913067" lon="10.62358"><ele>13.0</ele><time>2026-04-06T10:12:38.659Z</time></trkpt><trkpt lat="43.6914467" lon="10.6235317"><ele>13.0</ele><time>2026-04-06T10:12:39.659Z</time></trkpt><trkpt lat="43.6915883" lon="10.6234833"><ele>13.0</ele><time>2026-04-06T10:12:40.659Z</time></trkpt><trkpt lat="43.6917317" lon="10.6234333"><ele>13.0</ele><time>2026-04-06T10:12:41.659Z</time></trkpt><trkpt lat="43.6918717" lon="10.6233817"><ele>13.0</ele><time>2026-04-06T10:12:42.659Z</time></trkpt><trkpt lat="43.69201" lon="10.6233317"><ele>13.0</ele><time>2026-04-06T10:12:43.659Z</time></trkpt><trkpt lat="43.6921483" lon="10.6232833"><ele>13.0</ele><time>2026-04-06T10:12:44.659Z</time></trkpt><trkpt lat="43.692285" lon="10.6232333"><ele>13.0</ele><time>2026-04-06T10:12:45.659Z</time></trkpt><trkpt lat="43.69242" lon="10.62318"><ele>13.0</ele><time>2026-04-06T10:12:46.659Z</time></trkpt><trkpt lat="43.69256" lon="10.6231283"><ele>13.0</ele><time>2026-04-06T10:12:47.66Z</time></trkpt><trkpt lat="43.6926983" lon="10.6230767"><ele>13.0</ele><time>2026-04-06T10:12:48.659Z</time></trkpt><trkpt lat="43.6928383" lon="10.6230267"><ele>13.0</ele><time>2026-04-06T10:12:49.659Z</time></trkpt><trkpt lat="43.6929783" lon="10.6229817"><ele>13.0</ele><time>2026-04-06T10:12:50.659Z</time></trkpt><trkpt lat="43.693115" lon="10.6229317"><ele>13.0</ele><time>2026-04-06T10:12:51.659Z</time></trkpt><trkpt lat="43.6932517" lon="10.6228817"><ele>13.0</ele><time>2026-04-06T10:12:52.659Z</time></trkpt><trkpt lat="43.693395" lon="10.6228317"><ele>12.5</ele><time>2026-04-06T10:12:53.659Z</time></trkpt><trkpt lat="43.693535" lon="10.62278"><ele>12.0</ele><time>2026-04-06T10:12:54.659Z</time></trkpt><trkpt lat="43.6936717" lon="10.6227283"><ele>11.5</ele><time>2026-04-06T10:12:55.659Z</time></trkpt><trkpt lat="43.6938083" lon="10.62268"><ele>11.0</ele><time>2026-04-06T10:12:56.659Z</time></trkpt><trkpt lat="43.693945" lon="10.6226317"><ele>11.0</ele><time>2026-04-06T10:12:57.659Z</time></trkpt><trkpt lat="43.6940817" lon="10.6225817"><ele>11.0</ele><time>2026-04-06T10:12:58.659Z</time></trkpt><trkpt lat="43.694215" lon="10.6225267"><ele>11.0</ele><time>2026-04-06T10:12:59.659Z</time></trkpt><trkpt lat="43.6943533" lon="10.6224767"><ele>11.0</ele><time>2026-04-06T10:13:00.659Z</time></trkpt><trkpt lat="43.6944933" lon="10.6224267"><ele>11.5</ele><time>2026-04-06T10:13:01.659Z</time></trkpt><trkpt lat="43.6946317" lon="10.6223767"><ele>12.0</ele><time>2026-04-06T10:13:02.659Z</time></trkpt><trkpt lat="43.6947717" lon="10.6223267"><ele>12.5</ele><time>2026-04-06T10:13:03.659Z</time></trkpt><trkpt lat="43.6949067" lon="10.62228"><ele>13.0</ele><time>2026-04-06T10:13:04.659Z</time></trkpt><trkpt lat="43.69504" lon="10.6222333"><ele>13.0</ele><time>2026-04-06T10:13:05.659Z</time></trkpt><trkpt lat="43.6951733" lon="10.6221867"><ele>13.0</ele><time>2026-04-06T10:13:06.659Z</time></trkpt><trkpt lat="43.6953083" lon="10.6221367"><ele>13.0</ele><time>2026-04-06T10:13:07.659Z</time></trkpt><trkpt lat="43.6954467" lon="10.6220883"><ele>13.0</ele><time>2026-04-06T10:13:08.659Z</time></trkpt><trkpt lat="43.69558" lon="10.6220433"><ele>12.75</ele><time>2026-04-06T10:13:09.66Z</time></trkpt><trkpt lat="43.6957133" lon="10.6220017"><ele>12.5</ele><time>2026-04-06T10:13:10.66Z</time></trkpt><trkpt lat="43.69585" lon="10.6219583"><ele>12.25</ele><time>2026-04-06T10:13:11.659Z</time></trkpt><trkpt lat="43.6959883" lon="10.6219183"><ele>12.0</ele><time>2026-04-06T10:13:12.659Z</time></trkpt><trkpt lat="43.696125" lon="10.62188"><ele>12.5</ele><time>2026-04-06T10:13:13.66Z</time></trkpt><trkpt lat="43.69626" lon="10.6218433"><ele>13.0</ele><time>2026-04-06T10:13:14.66Z</time></trkpt><trkpt lat="43.6963933" lon="10.6218083"><ele>13.5</ele><time>2026-04-06T10:13:15.659Z</time></trkpt><trkpt lat="43.6965267" lon="10.6217733"><ele>14.0</ele><time>2026-04-06T10:13:16.659Z</time></trkpt><trkpt lat="43.6966617" lon="10.6217383"><ele>14.0</ele><time>2026-04-06T10:13:17.659Z</time></trkpt><trkpt lat="43.696795" lon="10.6217033"><ele>14.0</ele><time>2026-04-06T10:13:18.659Z</time></trkpt><trkpt lat="43.6969333" lon="10.6216683"><ele>14.0</ele><time>2026-04-06T10:13:19.659Z</time></trkpt><trkpt lat="43.69707" lon="10.6216367"><ele>14.0</ele><time>2026-04-06T10:13:20.659Z</time></trkpt><trkpt lat="43.697205" lon="10.6216033"><ele>13.75</ele><time>2026-04-06T10:13:21.659Z</time></trkpt><trkpt lat="43.6973417" lon="10.6215683"><ele>13.5</ele><time>2026-04-06T10:13:22.659Z</time></trkpt><trkpt lat="43.69748" lon="10.621535"><ele>13.25</ele><time>2026-04-06T10:13:23.659Z</time></trkpt><trkpt lat="43.6976183" lon="10.6214983"><ele>13.0</ele><time>2026-04-06T10:13:24.659Z</time></trkpt><trkpt lat="43.697755" lon="10.6214617"><ele>13.0</ele><time>2026-04-06T10:13:25.659Z</time></trkpt><trkpt lat="43.6978917" lon="10.621425"><ele>13.0</ele><time>2026-04-06T10:13:26.659Z</time></trkpt><trkpt lat="43.6980283" lon="10.6213867"><ele>13.0</ele><time>2026-04-06T10:13:27.659Z</time></trkpt><trkpt lat="43.6981633" lon="10.62135"><ele>13.0</ele><time>2026-04-06T10:13:28.659Z</time></trkpt><trkpt lat="43.6982983" lon="10.6213133"><ele>13.0</ele><time>2026-04-06T10:13:29.659Z</time></trkpt><trkpt lat="43.69843" lon="10.621275"><ele>13.0</ele><time>2026-04-06T10:13:30.659Z</time></trkpt><trkpt lat="43.6985633" lon="10.6212333"><ele>13.0</ele><time>2026-04-06T10:13:31.659Z</time></trkpt><trkpt lat="43.6987" lon="10.6211883"><ele>13.0</ele><time>2026-04-06T10:13:32.659Z</time></trkpt><trkpt lat="43.6988383" lon="10.6211417"><ele>13.0</ele><time>2026-04-06T10:13:33.659Z</time></trkpt><trkpt lat="43.6989767" lon="10.621095"><ele>13.0</ele><time>2026-04-06T10:13:34.659Z</time></trkpt><trkpt lat="43.699115" lon="10.6210433"><ele>13.0</ele><time>2026-04-06T10:13:35.659Z</time></trkpt><trkpt lat="43.6992467" lon="10.6209883"><ele>13.0</ele><time>2026-04-06T10:13:36.66Z</time></trkpt><trkpt lat="43.6993783" lon="10.620935"><ele>13.0</ele><time>2026-04-06T10:13:37.66Z</time></trkpt><trkpt lat="43.6995083" lon="10.6208817"><ele>13.0</ele><time>2026-04-06T10:13:38.659Z</time></trkpt><trkpt lat="43.6996417" lon="10.62083"><ele>13.0</ele><time>2026-04-06T10:13:39.659Z</time></trkpt><trkpt lat="43.699775" lon="10.6207817"><ele>13.0</ele><time>2026-04-06T10:13:40.66Z</time></trkpt><trkpt lat="43.6999083" lon="10.6207317"><ele>13.0</ele><time>2026-04-06T10:13:41.659Z</time></trkpt><trkpt lat="43.7000383" lon="10.6206817"><ele>13.0</ele><time>2026-04-06T10:13:42.659Z</time></trkpt><trkpt lat="43.700165" lon="10.62063"><ele>13.0</ele><time>2026-04-06T10:13:43.66Z</time></trkpt><trkpt lat="43.7004217" lon="10.6205217"><ele>12.75</ele><time>2026-04-06T10:13:45.66Z</time></trkpt><trkpt lat="43.70055" lon="10.6204683"><ele>12.5</ele><time>2026-04-06T10:13:46.659Z</time></trkpt><trkpt lat="43.7006783" lon="10.6204117"><ele>12.25</ele><time>2026-04-06T10:13:47.659Z</time></trkpt><trkpt lat="43.7008083" lon="10.6203533"><ele>12.0</ele><time>2026-04-06T10:13:48.66Z</time></trkpt><trkpt lat="43.7009417" lon="10.6202967"><ele>12.0</ele><time>2026-04-06T10:13:49.659Z</time></trkpt><trkpt lat="43.7010767" lon="10.6202417"><ele>12.0</ele><time>2026-04-06T10:13:50.659Z</time></trkpt><trkpt lat="43.7012067" lon="10.6201833"><ele>12.0</ele><time>2026-04-06T10:13:51.659Z</time></trkpt><trkpt lat="43.7013417" lon="10.6201267"><ele>12.0</ele><time>2026-04-06T10:13:52.659Z</time></trkpt><trkpt lat="43.7014767" lon="10.6200667"><ele>12.0</ele><time>2026-04-06T10:13:53.659Z</time></trkpt><trkpt lat="43.7016067" lon="10.62001"><ele>12.0</ele><time>2026-04-06T10:13:54.66Z</time></trkpt><trkpt lat="43.701735" lon="10.6199533"><ele>12.0</ele><time>2026-04-06T10:13:55.659Z</time></trkpt><trkpt lat="43.701865" lon="10.6198983"><ele>12.0</ele><time>2026-04-06T10:13:56.659Z</time></trkpt><trkpt lat="43.701995" lon="10.619845"><ele>11.5</ele><time>2026-04-06T10:13:57.659Z</time></trkpt><trkpt lat="43.7021217" lon="10.6197917"><ele>11.0</ele><time>2026-04-06T10:13:58.659Z</time></trkpt><trkpt lat="43.7022483" lon="10.6197333"><ele>10.5</ele><time>2026-04-06T10:13:59.659Z</time></trkpt><trkpt lat="43.70238" lon="10.619675"><ele>10.0</ele><time>2026-04-06T10:14:00.659Z</time></trkpt><trkpt lat="43.7025083" lon="10.61962"><ele>10.0</ele><time>2026-04-06T10:14:01.659Z</time></trkpt><trkpt lat="43.7026383" lon="10.619565"><ele>10.0</ele><time>2026-04-06T10:14:02.659Z</time></trkpt><trkpt lat="43.70277" lon="10.6195067"><ele>10.0</ele><time>2026-04-06T10:14:03.659Z</time></trkpt><trkpt lat="43.7029017" lon="10.6194467"><ele>10.0</ele><time>2026-04-06T10:14:04.659Z</time></trkpt><trkpt lat="43.70303" lon="10.619385"><ele>10.75</ele><time>2026-04-06T10:14:05.659Z</time></trkpt><trkpt lat="43.70316" lon="10.6193233"><ele>11.5</ele><time>2026-04-06T10:14:06.659Z</time></trkpt><trkpt lat="43.7032883" lon="10.61926"><ele>12.25</ele><time>2026-04-06T10:14:07.659Z</time></trkpt><trkpt lat="43.7034183" lon="10.6191933"><ele>13.0</ele><time>2026-04-06T10:14:08.659Z</time></trkpt><trkpt lat="43.70355" lon="10.6191267"><ele>12.75</ele><time>2026-04-06T10:14:09.659Z</time></trkpt><trkpt lat="43.7036767" lon="10.61906"><ele>12.5</ele><time>2026-04-06T10:14:10.659Z</time></trkpt><trkpt lat="43.703805" lon="10.61899"><ele>12.25</ele><time>2026-04-06T10:14:11.659Z</time></trkpt><trkpt lat="43.7039317" lon="10.61892"><ele>12.0</ele><time>2026-04-06T10:14:12.659Z</time></trkpt><trkpt lat="43.70406" lon="10.61885"><ele>12.0</ele><time>2026-04-06T10:14:13.659Z</time></trkpt><trkpt lat="43.7041883" lon="10.6187833"><ele>12.0</ele><time>2026-04-06T10:14:14.659Z</time></trkpt><trkpt lat="43.7043167" lon="10.6187183"><ele>12.0</ele><time>2026-04-06T10:14:15.659Z</time></trkpt><trkpt lat="43.704445" lon="10.61865"><ele>12.0</ele><time>2026-04-06T10:14:16.66Z</time></trkpt><trkpt lat="43.7045717" lon="10.6185783"><ele>12.0</ele><time>2026-04-06T10:14:17.659Z</time></trkpt><trkpt lat="43.7046983" lon="10.6185033"><ele>12.0</ele><time>2026-04-06T10:14:18.66Z</time></trkpt><trkpt lat="43.7048267" lon="10.61843"><ele>12.0</ele><time>2026-04-06T10:14:19.659Z</time></trkpt><trkpt lat="43.7049533" lon="10.6183583"><ele>12.0</ele><time>2026-04-06T10:14:20.659Z</time></trkpt><trkpt lat="43.70508" lon="10.6182867"><ele>12.0</ele><time>2026-04-06T10:14:21.659Z</time></trkpt><trkpt lat="43.7052067" lon="10.618215"><ele>12.0</ele><time>2026-04-06T10:14:22.659Z</time></trkpt><trkpt lat="43.7053367" lon="10.6181517"><ele>12.0</ele><time>2026-04-06T10:14:23.659Z</time></trkpt><trkpt lat="43.705475" lon="10.61811"><ele>12.0</ele><time>2026-04-06T10:14:24.659Z</time></trkpt><trkpt lat="43.70561" lon="10.6180967"><ele>12.0</ele><time>2026-04-06T10:14:25.659Z</time></trkpt><trkpt lat="43.705745" lon="10.61812"><ele>12.0</ele><time>2026-04-06T10:14:26.659Z</time></trkpt><trkpt lat="43.7058783" lon="10.6181633"><ele>12.0</ele><time>2026-04-06T10:14:27.659Z</time></trkpt><trkpt lat="43.7060067" lon="10.618215"><ele>12.0</ele><time>2026-04-06T10:14:28.659Z</time></trkpt><trkpt lat="43.7061367" lon="10.6182683"><ele>12.0</ele><time>2026-04-06T10:14:29.659Z</time></trkpt><trkpt lat="43.706265" lon="10.6183217"><ele>12.0</ele><time>2026-04-06T10:14:30.659Z</time></trkpt><trkpt lat="43.7063917" lon="10.6183717"><ele>12.0</ele><time>2026-04-06T10:14:31.659Z</time></trkpt><trkpt lat="43.70652" lon="10.618425"><ele>12.0</ele><time>2026-04-06T10:14:32.659Z</time></trkpt><trkpt lat="43.7066433" lon="10.6184767"><ele>12.0</ele><time>2026-04-06T10:14:33.66Z</time></trkpt><trkpt lat="43.7067683" lon="10.6185267"><ele>12.0</ele><time>2026-04-06T10:14:34.659Z</time></trkpt><trkpt lat="43.706895" lon="10.6185817"><ele>12.0</ele><time>2026-04-06T10:14:35.659Z</time></trkpt><trkpt lat="43.7070183" lon="10.6186333"><ele>12.0</ele><time>2026-04-06T10:14:36.659Z</time></trkpt><trkpt lat="43.7071417" lon="10.6186833"><ele>12.0</ele><time>2026-04-06T10:14:37.66Z</time></trkpt><trkpt lat="43.7072633" lon="10.6187317"><ele>12.0</ele><time>2026-04-06T10:14:38.659Z</time></trkpt><trkpt lat="43.707385" lon="10.6187767"><ele>12.0</ele><time>2026-04-06T10:14:39.659Z</time></trkpt><trkpt lat="43.7075083" lon="10.6188233"><ele>12.0</ele><time>2026-04-06T10:14:40.659Z</time></trkpt><trkpt lat="43.70763" lon="10.6188667"><ele>12.25</ele><time>2026-04-06T10:14:41.659Z</time></trkpt><trkpt lat="43.70775" lon="10.6189167"><ele>12.5</ele><time>2026-04-06T10:14:42.659Z</time></trkpt><trkpt lat="43.7078683" lon="10.618965"><ele>12.75</ele><time>2026-04-06T10:14:43.659Z</time></trkpt><trkpt lat="43.7079867" lon="10.619015"><ele>13.0</ele><time>2026-04-06T10:14:44.659Z</time></trkpt><trkpt lat="43.7081017" lon="10.6190667"><ele>13.0</ele><time>2026-04-06T10:14:45.659Z</time></trkpt><trkpt lat="43.70822" lon="10.61912"><ele>13.0</ele><time>2026-04-06T10:14:46.659Z</time></trkpt><trkpt lat="43.708335" lon="10.6191717"><ele>13.0</ele><time>2026-04-06T10:14:47.659Z</time></trkpt><trkpt lat="43.70845" lon="10.6192183"><ele>13.0</ele><time>2026-04-06T10:14:48.66Z</time></trkpt><trkpt lat="43.7085683" lon="10.6192683"><ele>13.0</ele><time>2026-04-06T10:14:49.659Z</time></trkpt><trkpt lat="43.7086867" lon="10.6193133"><ele>13.0</ele><time>2026-04-06T10:14:50.659Z</time></trkpt><trkpt lat="43.7088117" lon="10.6193467"><ele>13.0</ele><time>2026-04-06T10:14:51.659Z</time></trkpt><trkpt lat="43.7089383" lon="10.61938"><ele>13.0</ele><time>2026-04-06T10:14:52.659Z</time></trkpt><trkpt lat="43.70905" lon="10.6194267"><ele>13.0</ele><time>2026-04-06T10:14:53.66Z</time></trkpt><trkpt lat="43.70915" lon="10.6194783"><ele>13.0</ele><time>2026-04-06T10:14:54.66Z</time></trkpt><trkpt lat="43.7092433" lon="10.6195217"><ele>13.0</ele><time>2026-04-06T10:14:55.659Z</time></trkpt><trkpt lat="43.7093317" lon="10.6195483"><ele>13.0</ele><time>2026-04-06T10:14:56.66Z</time></trkpt><trkpt lat="43.7094117" lon="10.61958"><ele>13.0</ele><time>2026-04-06T10:14:57.659Z</time></trkpt><trkpt lat="43.7094817" lon="10.6196117"><ele>12.833333333333332</ele><time>2026-04-06T10:14:58.659Z</time></trkpt><trkpt lat="43.709555" lon="10.6196383"><ele>12.666666666666666</ele><time>2026-04-06T10:14:59.659Z</time></trkpt><trkpt lat="43.709635" lon="10.6196517"><ele>12.5</ele><time>2026-04-06T10:15:00.659Z</time></trkpt><trkpt lat="43.70971" lon="10.619645"><ele>12.333333333333332</ele><time>2026-04-06T10:15:01.66Z</time></trkpt><trkpt lat="43.709795" lon="10.619625"><ele>12.166666666666666</ele><time>2026-04-06T10:15:02.659Z</time></trkpt><trkpt lat="43.7098867" lon="10.61961"><ele>12.0</ele><time>2026-04-06T10:15:03.659Z</time></trkpt><trkpt lat="43.7099767" lon="10.6195933"><ele>12.0</ele><time>2026-04-06T10:15:04.659Z</time></trkpt><trkpt lat="43.7100667" lon="10.61958"><ele>12.0</ele><time>2026-04-06T10:15:05.659Z</time></trkpt><trkpt lat="43.7101583" lon="10.6195667"><ele>12.0</ele><time>2026-04-06T10:15:06.659Z</time></trkpt><trkpt lat="43.710255" lon="10.6195583"><ele>12.0</ele><time>2026-04-06T10:15:07.659Z</time></trkpt><trkpt lat="43.7103533" lon="10.61954"><ele>12.0</ele><time>2026-04-06T10:15:08.66Z</time></trkpt><trkpt lat="43.7104533" lon="10.6195233"><ele>12.0</ele><time>2026-04-06T10:15:09.659Z</time></trkpt><trkpt lat="43.7105533" lon="10.6195117"><ele>12.0</ele><time>2026-04-06T10:15:10.659Z</time></trkpt><trkpt lat="43.7106533" lon="10.6194933"><ele>12.0</ele><time>2026-04-06T10:15:11.659Z</time></trkpt><trkpt lat="43.71075" lon="10.6194783"><ele>12.0</ele><time>2026-04-06T10:15:12.659Z</time></trkpt><trkpt lat="43.7108467" lon="10.6194733"><ele>12.0</ele><time>2026-04-06T10:15:13.659Z</time></trkpt><trkpt lat="43.7109333" lon="10.6194567"><ele>12.166666666666666</ele><time>2026-04-06T10:15:14.659Z</time></trkpt><trkpt lat="43.7110117" lon="10.6194383"><ele>12.333333333333332</ele><time>2026-04-06T10:15:15.66Z</time></trkpt><trkpt lat="43.7110917" lon="10.6194133"><ele>12.5</ele><time>2026-04-06T10:15:16.659Z</time></trkpt><trkpt lat="43.7111717" lon="10.6194033"><ele>12.666666666666666</ele><time>2026-04-06T10:15:17.659Z</time></trkpt><trkpt lat="43.7112617" lon="10.6193983"><ele>12.833333333333332</ele><time>2026-04-06T10:15:18.659Z</time></trkpt><trkpt lat="43.711345" lon="10.6194017"><ele>13.0</ele><time>2026-04-06T10:15:19.659Z</time></trkpt><trkpt lat="43.71143" lon="10.6194083"><ele>13.0</ele><time>2026-04-06T10:15:20.659Z</time></trkpt><trkpt lat="43.7115233" lon="10.6193983"><ele>13.0</ele><time>2026-04-06T10:15:21.659Z</time></trkpt><trkpt lat="43.711615" lon="10.6193917"><ele>13.0</ele><time>2026-04-06T10:15:22.659Z</time></trkpt><trkpt lat="43.7117117" lon="10.619385"><ele>13.0</ele><time>2026-04-06T10:15:23.659Z</time></trkpt><trkpt lat="43.7118117" lon="10.61938"><ele>13.0</ele><time>2026-04-06T10:15:24.66Z</time></trkpt><trkpt lat="43.7119067" lon="10.61937"><ele>13.0</ele><time>2026-04-06T10:15:25.66Z</time></trkpt><trkpt lat="43.711995" lon="10.6193583"><ele>13.0</ele><time>2026-04-06T10:15:26.659Z</time></trkpt><trkpt lat="43.71208" lon="10.6193517"><ele>13.0</ele><time>2026-04-06T10:15:27.659Z</time></trkpt><trkpt lat="43.7121733" lon="10.6192967"><ele>13.0</ele><time>2026-04-06T10:15:28.659Z</time></trkpt><trkpt lat="43.712265" lon="10.6192583"><ele>13.0</ele><time>2026-04-06T10:15:29.659Z</time></trkpt><trkpt lat="43.7123567" lon="10.6192367"><ele>13.0</ele><time>2026-04-06T10:15:30.659Z</time></trkpt><trkpt lat="43.7124467" lon="10.61922"><ele>13.0</ele><time>2026-04-06T10:15:31.659Z</time></trkpt><trkpt lat="43.7125317" lon="10.6192067"><ele>13.0</ele><time>2026-04-06T10:15:32.659Z</time></trkpt><trkpt lat="43.712625" lon="10.6191983"><ele>13.0</ele><time>2026-04-06T10:15:33.659Z</time></trkpt><trkpt lat="43.7127183" lon="10.61919"><ele>13.0</ele><time>2026-04-06T10:15:34.659Z</time></trkpt><trkpt lat="43.7128133" lon="10.619175"><ele>13.2</ele><time>2026-04-06T10:15:35.659Z</time></trkpt><trkpt lat="43.7129133" lon="10.6191683"><ele>13.4</ele><time>2026-04-06T10:15:36.659Z</time></trkpt><trkpt lat="43.7130167" lon="10.6191567"><ele>13.599999999999998</ele><time>2026-04-06T10:15:37.659Z</time></trkpt><trkpt lat="43.71313" lon="10.6191433"><ele>13.799999999999999</ele><time>2026-04-06T10:15:38.659Z</time></trkpt><trkpt lat="43.7132433" lon="10.6191267"><ele>14.0</ele><time>2026-04-06T10:15:39.659Z</time></trkpt><trkpt lat="43.7133567" lon="10.6191067"><ele>14.0</ele><time>2026-04-06T10:15:40.659Z</time></trkpt><trkpt lat="43.7134667" lon="10.6190917"><ele>14.0</ele><time>2026-04-06T10:15:41.659Z</time></trkpt><trkpt lat="43.71358" lon="10.6190767"><ele>14.0</ele><time>2026-04-06T10:15:42.659Z</time></trkpt><trkpt lat="43.7136933" lon="10.6190583"><ele>14.0</ele><time>2026-04-06T10:15:43.659Z</time></trkpt><trkpt lat="43.713805" lon="10.6190383"><ele>13.399999999999999</ele><time>2026-04-06T10:15:44.659Z</time></trkpt><trkpt lat="43.7139167" lon="10.6190217"><ele>12.799999999999999</ele><time>2026-04-06T10:15:45.659Z</time></trkpt><trkpt lat="43.7140267" lon="10.619"><ele>12.2</ele><time>2026-04-06T10:15:46.659Z</time></trkpt><trkpt lat="43.7141367" lon="10.6189817"><ele>11.600000000000001</ele><time>2026-04-06T10:15:47.66Z</time></trkpt><trkpt lat="43.7142483" lon="10.6189617"><ele>11.0</ele><time>2026-04-06T10:15:48.659Z</time></trkpt><trkpt lat="43.7143567" lon="10.6189433"><ele>11.0</ele><time>2026-04-06T10:15:49.659Z</time></trkpt><trkpt lat="43.7144633" lon="10.618925"><ele>11.0</ele><time>2026-04-06T10:15:50.659Z</time></trkpt><trkpt lat="43.714575" lon="10.6189067"><ele>11.0</ele><time>2026-04-06T10:15:51.659Z</time></trkpt><trkpt lat="43.7146867" lon="10.6188983"><ele>11.0</ele><time>2026-04-06T10:15:52.659Z</time></trkpt><trkpt lat="43.7147967" lon="10.61889"><ele>11.0</ele><time>2026-04-06T10:15:53.659Z</time></trkpt><trkpt lat="43.7149067" lon="10.61888"><ele>11.0</ele><time>2026-04-06T10:15:54.659Z</time></trkpt><trkpt lat="43.7150133" lon="10.6188617"><ele>11.0</ele><time>2026-04-06T10:15:55.659Z</time></trkpt><trkpt lat="43.7151217" lon="10.618845"><ele>11.0</ele><time>2026-04-06T10:15:56.659Z</time></trkpt><trkpt lat="43.71523" lon="10.618825"><ele>11.0</ele><time>2026-04-06T10:15:57.66Z</time></trkpt><trkpt lat="43.7153383" lon="10.618805"><ele>11.0</ele><time>2026-04-06T10:15:58.659Z</time></trkpt><trkpt lat="43.7154483" lon="10.6187867"><ele>11.0</ele><time>2026-04-06T10:15:59.659Z</time></trkpt><trkpt lat="43.7155567" lon="10.6187683"><ele>11.0</ele><time>2026-04-06T10:16:00.66Z</time></trkpt><trkpt lat="43.715665" lon="10.6187533"><ele>11.0</ele><time>2026-04-06T10:16:01.659Z</time></trkpt><trkpt lat="43.7157767" lon="10.61874"><ele>11.0</ele><time>2026-04-06T10:16:02.659Z</time></trkpt><trkpt lat="43.7158883" lon="10.6187233"><ele>11.0</ele><time>2026-04-06T10:16:03.659Z</time></trkpt><trkpt lat="43.7159983" lon="10.6187033"><ele>11.0</ele><time>2026-04-06T10:16:04.659Z</time></trkpt><trkpt lat="43.7161067" lon="10.6186833"><ele>11.0</ele><time>2026-04-06T10:16:05.659Z</time></trkpt><trkpt lat="43.7162133" lon="10.618665"><ele>11.0</ele><time>2026-04-06T10:16:06.659Z</time></trkpt><trkpt lat="43.7163183" lon="10.6186483"><ele>11.0</ele><time>2026-04-06T10:16:07.659Z</time></trkpt><trkpt lat="43.7164283" lon="10.618625"><ele>11.0</ele><time>2026-04-06T10:16:08.659Z</time></trkpt><trkpt lat="43.7165333" lon="10.6186033"><ele>11.0</ele><time>2026-04-06T10:16:09.66Z</time></trkpt><trkpt lat="43.7166433" lon="10.6185833"><ele>11.0</ele><time>2026-04-06T10:16:10.659Z</time></trkpt><trkpt lat="43.7167517" lon="10.618565"><ele>11.0</ele><time>2026-04-06T10:16:11.659Z</time></trkpt><trkpt lat="43.7168617" lon="10.6185467"><ele>11.0</ele><time>2026-04-06T10:16:12.659Z</time></trkpt><trkpt lat="43.7169683" lon="10.6185317"><ele>11.0</ele><time>2026-04-06T10:16:13.659Z</time></trkpt><trkpt lat="43.7170783" lon="10.6185233"><ele>11.0</ele><time>2026-04-06T10:16:14.66Z</time></trkpt><trkpt lat="43.7171867" lon="10.6185133"><ele>11.0</ele><time>2026-04-06T10:16:15.66Z</time></trkpt><trkpt lat="43.7172967" lon="10.6184983"><ele>11.0</ele><time>2026-04-06T10:16:16.659Z</time></trkpt><trkpt lat="43.7174067" lon="10.618485"><ele>11.0</ele><time>2026-04-06T10:16:17.659Z</time></trkpt><trkpt lat="43.7175083" lon="10.6184667"><ele>11.0</ele><time>2026-04-06T10:16:18.659Z</time></trkpt><trkpt lat="43.717605" lon="10.6184517"><ele>11.0</ele><time>2026-04-06T10:16:19.659Z</time></trkpt><trkpt lat="43.7176817" lon="10.618445"><ele>11.0</ele><time>2026-04-06T10:16:20.659Z</time></trkpt><trkpt lat="43.7177933" lon="10.6184283"><ele>11.0</ele><time>2026-04-06T10:16:22.659Z</time></trkpt><trkpt lat="43.7178883" lon="10.6184"><ele>11.0</ele><time>2026-04-06T10:16:24.66Z</time></trkpt><trkpt lat="43.7179817" lon="10.6183683"><ele>11.0</ele><time>2026-04-06T10:16:26.66Z</time></trkpt><trkpt lat="43.7181083" lon="10.618335"><ele>11.142857142857142</ele><time>2026-04-06T10:16:28.659Z</time></trkpt><trkpt lat="43.7181783" lon="10.6183117"><ele>11.285714285714285</ele><time>2026-04-06T10:16:29.66Z</time></trkpt><trkpt lat="43.7182483" lon="10.618285"><ele>11.428571428571427</ele><time>2026-04-06T10:16:30.659Z</time></trkpt><trkpt lat="43.7183217" lon="10.6182567"><ele>11.571428571428571</ele><time>2026-04-06T10:16:31.659Z</time></trkpt><trkpt lat="43.7183967" lon="10.6182333"><ele>11.714285714285714</ele><time>2026-04-06T10:16:32.659Z</time></trkpt><trkpt lat="43.7184683" lon="10.61821"><ele>11.857142857142856</ele><time>2026-04-06T10:16:33.659Z</time></trkpt><trkpt lat="43.7185333" lon="10.6181867"><ele>12.0</ele><time>2026-04-06T10:16:34.66Z</time></trkpt><trkpt lat="43.71863" lon="10.61815"><ele>11.5</ele><time>2026-04-06T10:16:36.659Z</time></trkpt><trkpt lat="43.7186917" lon="10.6181217"><ele>11.0</ele><time>2026-04-06T10:16:38.659Z</time></trkpt><trkpt lat="43.7188033" lon="10.6181317"><ele>10.5</ele><time>2026-04-06T10:16:54.659Z</time></trkpt><trkpt lat="43.71887" lon="10.6181067"><ele>10.0</ele><time>2026-04-06T10:16:55.659Z</time></trkpt><trkpt lat="43.7189533" lon="10.618065"><ele>9.5</ele><time>2026-04-06T10:16:56.659Z</time></trkpt><trkpt lat="43.7190333" lon="10.6180283"><ele>9.0</ele><time>2026-04-06T10:16:57.659Z</time></trkpt><trkpt lat="43.7191133" lon="10.6179933"><ele>9.0</ele><time>2026-04-06T10:16:58.659Z</time></trkpt><trkpt lat="43.719195" lon="10.6179567"><ele>9.0</ele><time>2026-04-06T10:16:59.659Z</time></trkpt><trkpt lat="43.7192783" lon="10.6179233"><ele>9.0</ele><time>2026-04-06T10:17:00.659Z</time></trkpt><trkpt lat="43.719365" lon="10.61789"><ele>9.0</ele><time>2026-04-06T10:17:01.659Z</time></trkpt><trkpt lat="43.71945" lon="10.6178567"><ele>9.0</ele><time>2026-04-06T10:17:02.659Z</time></trkpt><trkpt lat="43.719545" lon="10.6178183"><ele>9.4</ele><time>2026-04-06T10:17:03.659Z</time></trkpt><trkpt lat="43.7196417" lon="10.6177833"><ele>9.8</ele><time>2026-04-06T10:17:04.66Z</time></trkpt><trkpt lat="43.7197433" lon="10.6177467"><ele>10.200000000000001</ele><time>2026-04-06T10:17:05.66Z</time></trkpt><trkpt lat="43.7198483" lon="10.61771"><ele>10.600000000000001</ele><time>2026-04-06T10:17:06.659Z</time></trkpt><trkpt lat="43.71996" lon="10.6176667"><ele>11.0</ele><time>2026-04-06T10:17:07.658Z</time></trkpt><trkpt lat="43.7200783" lon="10.6176167"><ele>11.0</ele><time>2026-04-06T10:17:08.658Z</time></trkpt><trkpt lat="43.7202" lon="10.61757"><ele>11.0</ele><time>2026-04-06T10:17:09.658Z</time></trkpt><trkpt lat="43.7203217" lon="10.617525"><ele>11.0</ele><time>2026-04-06T10:17:10.658Z</time></trkpt><trkpt lat="43.720445" lon="10.6174733"><ele>11.0</ele><time>2026-04-06T10:17:11.658Z</time></trkpt><trkpt lat="43.7205767" lon="10.617425"><ele>10.75</ele><time>2026-04-06T10:17:12.658Z</time></trkpt><trkpt lat="43.7207083" lon="10.6173767"><ele>10.5</ele><time>2026-04-06T10:17:13.659Z</time></trkpt><trkpt lat="43.7208367" lon="10.6173283"><ele>10.25</ele><time>2026-04-06T10:17:14.658Z</time></trkpt><trkpt lat="43.720965" lon="10.6172783"><ele>10.0</ele><time>2026-04-06T10:17:15.658Z</time></trkpt><trkpt lat="43.7210917" lon="10.6172267"><ele>10.0</ele><time>2026-04-06T10:17:16.658Z</time></trkpt><trkpt lat="43.7212217" lon="10.6171767"><ele>10.0</ele><time>2026-04-06T10:17:17.658Z</time></trkpt><trkpt lat="43.7213517" lon="10.61713"><ele>10.0</ele><time>2026-04-06T10:17:18.658Z</time></trkpt><trkpt lat="43.7214783" lon="10.6170817"><ele>10.0</ele><time>2026-04-06T10:17:19.658Z</time></trkpt><trkpt lat="43.7216083" lon="10.617035"><ele>10.0</ele><time>2026-04-06T10:17:20.659Z</time></trkpt><trkpt lat="43.7217333" lon="10.616985"><ele>10.0</ele><time>2026-04-06T10:17:21.658Z</time></trkpt><trkpt lat="43.7218617" lon="10.6169417"><ele>10.0</ele><time>2026-04-06T10:17:22.659Z</time></trkpt><trkpt lat="43.7219867" lon="10.6169017"><ele>10.0</ele><time>2026-04-06T10:17:23.658Z</time></trkpt><trkpt lat="43.7221017" lon="10.6168567"><ele>10.6</ele><time>2026-04-06T10:17:24.659Z</time></trkpt><trkpt lat="43.7222117" lon="10.61681"><ele>11.2</ele><time>2026-04-06T10:17:25.658Z</time></trkpt><trkpt lat="43.722315" lon="10.616765"><ele>11.8</ele><time>2026-04-06T10:17:26.658Z</time></trkpt><trkpt lat="43.72241" lon="10.6167283"><ele>12.4</ele><time>2026-04-06T10:17:27.658Z</time></trkpt><trkpt lat="43.7225" lon="10.6167"><ele>13.0</ele><time>2026-04-06T10:17:28.658Z</time></trkpt><trkpt lat="43.7225867" lon="10.6166833"><ele>12.999999999999998</ele><time>2026-04-06T10:17:29.658Z</time></trkpt><trkpt lat="43.7226683" lon="10.6167083"><ele>13.0</ele><time>2026-04-06T10:17:30.658Z</time></trkpt><trkpt lat="43.7227383" lon="10.6167367"><ele>13.0</ele><time>2026-04-06T10:17:31.658Z</time></trkpt><trkpt lat="43.7228" lon="10.616805"><ele>13.0</ele><time>2026-04-06T10:17:32.659Z</time></trkpt><trkpt lat="43.7228417" lon="10.61693"><ele>12.999999999999998</ele><time>2026-04-06T10:17:33.658Z</time></trkpt><trkpt lat="43.7228867" lon="10.6170683"><ele>13.0</ele><time>2026-04-06T10:17:34.658Z</time></trkpt><trkpt lat="43.722945" lon="10.6171783"><ele>13.600000000000001</ele><time>2026-04-06T10:17:35.658Z</time></trkpt><trkpt lat="43.7230117" lon="10.61729"><ele>14.200000000000001</ele><time>2026-04-06T10:17:36.658Z</time></trkpt><trkpt lat="43.723095" lon="10.617385"><ele>14.8</ele><time>2026-04-06T10:17:37.658Z</time></trkpt><trkpt lat="43.723195" lon="10.6174567"><ele>15.4</ele><time>2026-04-06T10:17:38.658Z</time></trkpt><trkpt lat="43.7233017" lon="10.617505"><ele>16.0</ele><time>2026-04-06T10:17:39.658Z</time></trkpt><trkpt lat="43.72342" lon="10.6175233"><ele>16.0</ele><time>2026-04-06T10:17:40.658Z</time></trkpt><trkpt lat="43.7235433" lon="10.61752"><ele>16.0</ele><time>2026-04-06T10:17:41.658Z</time></trkpt><trkpt lat="43.72366" lon="10.6175"><ele>16.0</ele><time>2026-04-06T10:17:42.658Z</time></trkpt><trkpt lat="43.7237817" lon="10.6174683"><ele>16.0</ele><time>2026-04-06T10:17:43.658Z</time></trkpt><trkpt lat="43.723905" lon="10.6174283"><ele>17.5</ele><time>2026-04-06T10:17:44.658Z</time></trkpt><trkpt lat="43.7240283" lon="10.6173833"><ele>19.0</ele><time>2026-04-06T10:17:45.659Z</time></trkpt><trkpt lat="43.7241483" lon="10.617335"><ele>20.5</ele><time>2026-04-06T10:17:46.658Z</time></trkpt><trkpt lat="43.7242617" lon="10.61729"><ele>22.0</ele><time>2026-04-06T10:17:47.658Z</time></trkpt><trkpt lat="43.7243717" lon="10.6172483"><ele>22.0</ele><time>2026-04-06T10:17:48.658Z</time></trkpt><trkpt lat="43.7244767" lon="10.61721"><ele>22.0</ele><time>2026-04-06T10:17:49.658Z</time></trkpt><trkpt lat="43.7245833" lon="10.6171717"><ele>22.0</ele><time>2026-04-06T10:17:50.659Z</time></trkpt><trkpt lat="43.7246967" lon="10.6171417"><ele>22.0</ele><time>2026-04-06T10:17:51.658Z</time></trkpt><trkpt lat="43.7248083" lon="10.6171167"><ele>22.0</ele><time>2026-04-06T10:17:52.658Z</time></trkpt><trkpt lat="43.7249167" lon="10.6170983"><ele>22.0</ele><time>2026-04-06T10:17:53.658Z</time></trkpt><trkpt lat="43.7250233" lon="10.61709"><ele>22.0</ele><time>2026-04-06T10:17:54.658Z</time></trkpt><trkpt lat="43.7251317" lon="10.6171"><ele>22.0</ele><time>2026-04-06T10:17:55.658Z</time></trkpt><trkpt lat="43.7252433" lon="10.61711"><ele>22.0</ele><time>2026-04-06T10:17:56.658Z</time></trkpt><trkpt lat="43.7253617" lon="10.6171133"><ele>22.0</ele><time>2026-04-06T10:17:57.658Z</time></trkpt><trkpt lat="43.7254733" lon="10.6171183"><ele>20.75</ele><time>2026-04-06T10:17:58.658Z</time></trkpt><trkpt lat="43.72559" lon="10.6171217"><ele>19.5</ele><time>2026-04-06T10:17:59.658Z</time></trkpt><trkpt lat="43.7257033" lon="10.6171267"><ele>18.25</ele><time>2026-04-06T10:18:00.658Z</time></trkpt><trkpt lat="43.72582" lon="10.6171317"><ele>17.0</ele><time>2026-04-06T10:18:01.658Z</time></trkpt><trkpt lat="43.7259317" lon="10.6171333"><ele>17.0</ele><time>2026-04-06T10:18:02.658Z</time></trkpt><trkpt lat="43.726045" lon="10.6171367"><ele>17.0</ele><time>2026-04-06T10:18:03.658Z</time></trkpt><trkpt lat="43.72616" lon="10.6171483"><ele>17.0</ele><time>2026-04-06T10:18:04.658Z</time></trkpt><trkpt lat="43.7262767" lon="10.61716"><ele>17.0</ele><time>2026-04-06T10:18:05.658Z</time></trkpt><trkpt lat="43.726395" lon="10.6171633"><ele>17.0</ele><time>2026-04-06T10:18:06.658Z</time></trkpt><trkpt lat="43.7265133" lon="10.61716"><ele>17.0</ele><time>2026-04-06T10:18:07.659Z</time></trkpt><trkpt lat="43.726625" lon="10.6171617"><ele>17.0</ele><time>2026-04-06T10:18:08.658Z</time></trkpt><trkpt lat="43.7267417" lon="10.6171633"><ele>17.0</ele><time>2026-04-06T10:18:09.658Z</time></trkpt><trkpt lat="43.7268617" lon="10.6171633"><ele>17.5</ele><time>2026-04-06T10:18:10.658Z</time></trkpt><trkpt lat="43.7269783" lon="10.6171667"><ele>18.0</ele><time>2026-04-06T10:18:11.658Z</time></trkpt><trkpt lat="43.7270917" lon="10.617165"><ele>18.5</ele><time>2026-04-06T10:18:12.658Z</time></trkpt><trkpt lat="43.7272067" lon="10.6171733"><ele>19.0</ele><time>2026-04-06T10:18:13.659Z</time></trkpt><trkpt lat="43.727325" lon="10.6171783"><ele>19.0</ele><time>2026-04-06T10:18:14.658Z</time></trkpt><trkpt lat="43.7274467" lon="10.61718"><ele>19.0</ele><time>2026-04-06T10:18:15.658Z</time></trkpt><trkpt lat="43.7275667" lon="10.6171783"><ele>19.0</ele><time>2026-04-06T10:18:16.658Z</time></trkpt><trkpt lat="43.7276867" lon="10.6171767"><ele>19.0</ele><time>2026-04-06T10:18:17.658Z</time></trkpt><trkpt lat="43.7278083" lon="10.6171867"><ele>19.0</ele><time>2026-04-06T10:18:18.659Z</time></trkpt><trkpt lat="43.7279383" lon="10.6171917"><ele>19.0</ele><time>2026-04-06T10:18:19.658Z</time></trkpt><trkpt lat="43.72807" lon="10.6171967"><ele>19.0</ele><time>2026-04-06T10:18:20.658Z</time></trkpt><trkpt lat="43.7282017" lon="10.6172033"><ele>19.0</ele><time>2026-04-06T10:18:21.659Z</time></trkpt><trkpt lat="43.7283333" lon="10.6172083"><ele>19.0</ele><time>2026-04-06T10:18:22.659Z</time></trkpt><trkpt lat="43.7284667" lon="10.6172133"><ele>19.0</ele><time>2026-04-06T10:18:23.659Z</time></trkpt><trkpt lat="43.728605" lon="10.6172167"><ele>19.0</ele><time>2026-04-06T10:18:24.658Z</time></trkpt><trkpt lat="43.728745" lon="10.6172133"><ele>19.0</ele><time>2026-04-06T10:18:25.658Z</time></trkpt><trkpt lat="43.728885" lon="10.6172167"><ele>18.5</ele><time>2026-04-06T10:18:26.658Z</time></trkpt><trkpt lat="43.7290283" lon="10.6172267"><ele>18.0</ele><time>2026-04-06T10:18:27.658Z</time></trkpt><trkpt lat="43.72917" lon="10.61723"><ele>17.5</ele><time>2026-04-06T10:18:28.658Z</time></trkpt><trkpt lat="43.7293133" lon="10.6172333"><ele>17.0</ele><time>2026-04-06T10:18:29.658Z</time></trkpt><trkpt lat="43.7294567" lon="10.61724"><ele>16.5</ele><time>2026-04-06T10:18:30.658Z</time></trkpt><trkpt lat="43.7295983" lon="10.6172483"><ele>16.0</ele><time>2026-04-06T10:18:31.658Z</time></trkpt><trkpt lat="43.72974" lon="10.617255"><ele>15.5</ele><time>2026-04-06T10:18:32.658Z</time></trkpt><trkpt lat="43.7298817" lon="10.6172617"><ele>15.0</ele><time>2026-04-06T10:18:33.658Z</time></trkpt><trkpt lat="43.7300217" lon="10.6172683"><ele>15.0</ele><time>2026-04-06T10:18:34.658Z</time></trkpt><trkpt lat="43.7301617" lon="10.6172733"><ele>15.0</ele><time>2026-04-06T10:18:35.658Z</time></trkpt><trkpt lat="43.7303017" lon="10.61729"><ele>15.0</ele><time>2026-04-06T10:18:36.658Z</time></trkpt><trkpt lat="43.7304383" lon="10.61733"><ele>15.0</ele><time>2026-04-06T10:18:37.659Z</time></trkpt><trkpt lat="43.7305733" lon="10.617395"><ele>15.0</ele><time>2026-04-06T10:18:38.659Z</time></trkpt><trkpt lat="43.7307" lon="10.6174817"><ele>15.0</ele><time>2026-04-06T10:18:39.658Z</time></trkpt><trkpt lat="43.73082" lon="10.617585"><ele>15.0</ele><time>2026-04-06T10:18:40.658Z</time></trkpt><trkpt lat="43.7309367" lon="10.6176933"><ele>15.0</ele><time>2026-04-06T10:18:41.658Z</time></trkpt><trkpt lat="43.731055" lon="10.61781"><ele>15.0</ele><time>2026-04-06T10:18:42.659Z</time></trkpt><trkpt lat="43.73117" lon="10.61792"><ele>15.0</ele><time>2026-04-06T10:18:43.658Z</time></trkpt><trkpt lat="43.73129" lon="10.618025"><ele>15.0</ele><time>2026-04-06T10:18:44.658Z</time></trkpt><trkpt lat="43.7314083" lon="10.6181317"><ele>15.0</ele><time>2026-04-06T10:18:45.659Z</time></trkpt><trkpt lat="43.7315267" lon="10.6182383"><ele>15.0</ele><time>2026-04-06T10:18:46.658Z</time></trkpt><trkpt lat="43.7316467" lon="10.6183433"><ele>15.0</ele><time>2026-04-06T10:18:47.658Z</time></trkpt><trkpt lat="43.731765" lon="10.6184483"><ele>15.0</ele><time>2026-04-06T10:18:48.658Z</time></trkpt><trkpt lat="43.73188" lon="10.6185567"><ele>15.0</ele><time>2026-04-06T10:18:49.658Z</time></trkpt><trkpt lat="43.7319967" lon="10.618665"><ele>15.0</ele><time>2026-04-06T10:18:50.658Z</time></trkpt><trkpt lat="43.732115" lon="10.6187717"><ele>15.0</ele><time>2026-04-06T10:18:51.658Z</time></trkpt><trkpt lat="43.732235" lon="10.6188733"><ele>15.0</ele><time>2026-04-06T10:18:52.658Z</time></trkpt><trkpt lat="43.73235" lon="10.6189817"><ele>15.0</ele><time>2026-04-06T10:18:53.658Z</time></trkpt><trkpt lat="43.732465" lon="10.6190867"><ele>15.0</ele><time>2026-04-06T10:18:54.658Z</time></trkpt><trkpt lat="43.7325783" lon="10.61919"><ele>15.0</ele><time>2026-04-06T10:18:55.658Z</time></trkpt><trkpt lat="43.73269" lon="10.6192983"><ele>15.0</ele><time>2026-04-06T10:18:56.658Z</time></trkpt><trkpt lat="43.7328017" lon="10.6194017"><ele>15.0</ele><time>2026-04-06T10:18:57.658Z</time></trkpt><trkpt lat="43.732915" lon="10.6195033"><ele>15.25</ele><time>2026-04-06T10:18:58.658Z</time></trkpt><trkpt lat="43.7330283" lon="10.6196067"><ele>15.5</ele><time>2026-04-06T10:18:59.658Z</time></trkpt><trkpt lat="43.7331367" lon="10.619705"><ele>15.75</ele><time>2026-04-06T10:19:00.658Z</time></trkpt><trkpt lat="43.7332467" lon="10.619805"><ele>16.0</ele><time>2026-04-06T10:19:01.658Z</time></trkpt><trkpt lat="43.733355" lon="10.619905"><ele>16.0</ele><time>2026-04-06T10:19:02.658Z</time></trkpt><trkpt lat="43.7334633" lon="10.6199983"><ele>16.0</ele><time>2026-04-06T10:19:03.658Z</time></trkpt><trkpt lat="43.73357" lon="10.62009"><ele>16.0</ele><time>2026-04-06T10:19:04.658Z</time></trkpt><trkpt lat="43.7336817" lon="10.6201883"><ele>16.0</ele><time>2026-04-06T10:19:05.658Z</time></trkpt><trkpt lat="43.7337983" lon="10.6202983"><ele>15.75</ele><time>2026-04-06T10:19:06.658Z</time></trkpt><trkpt lat="43.7339183" lon="10.6204133"><ele>15.5</ele><time>2026-04-06T10:19:07.658Z</time></trkpt><trkpt lat="43.7340417" lon="10.62053"><ele>15.25</ele><time>2026-04-06T10:19:08.658Z</time></trkpt><trkpt lat="43.734165" lon="10.62065"><ele>15.0</ele><time>2026-04-06T10:19:09.658Z</time></trkpt><trkpt lat="43.73429" lon="10.6207733"><ele>18.666666666666664</ele><time>2026-04-06T10:19:10.658Z</time></trkpt><trkpt lat="43.7344183" lon="10.6208867"><ele>22.333333333333332</ele><time>2026-04-06T10:19:11.658Z</time></trkpt><trkpt lat="43.7345433" lon="10.621"><ele>26.0</ele><time>2026-04-06T10:19:12.659Z</time></trkpt><trkpt lat="43.7346767" lon="10.621105"><ele>23.25</ele><time>2026-04-06T10:19:13.658Z</time></trkpt><trkpt lat="43.7348067" lon="10.621205"><ele>20.5</ele><time>2026-04-06T10:19:14.658Z</time></trkpt><trkpt lat="43.734935" lon="10.6213067"><ele>17.75</ele><time>2026-04-06T10:19:15.658Z</time></trkpt><trkpt lat="43.7350717" lon="10.6213867"><ele>15.0</ele><time>2026-04-06T10:19:16.658Z</time></trkpt><trkpt lat="43.735215" lon="10.62144"><ele>17.0</ele><time>2026-04-06T10:19:17.658Z</time></trkpt><trkpt lat="43.7353683" lon="10.621475"><ele>19.0</ele><time>2026-04-06T10:19:18.658Z</time></trkpt><trkpt lat="43.7355233" lon="10.6215"><ele>21.0</ele><time>2026-04-06T10:19:19.658Z</time></trkpt><trkpt lat="43.7356833" lon="10.621515"><ele>21.0</ele><time>2026-04-06T10:19:20.659Z</time></trkpt><trkpt lat="43.735845" lon="10.6215233"><ele>21.0</ele><time>2026-04-06T10:19:21.658Z</time></trkpt><trkpt lat="43.736" lon="10.621535"><ele>21.0</ele><time>2026-04-06T10:19:22.658Z</time></trkpt><trkpt lat="43.7361567" lon="10.62154"><ele>20.666666666666668</ele><time>2026-04-06T10:19:23.658Z</time></trkpt><trkpt lat="43.7363183" lon="10.62154"><ele>20.333333333333336</ele><time>2026-04-06T10:19:24.658Z</time></trkpt><trkpt lat="43.7364783" lon="10.621535"><ele>20.0</ele><time>2026-04-06T10:19:25.658Z</time></trkpt><trkpt lat="43.73664" lon="10.62152"><ele>20.0</ele><time>2026-04-06T10:19:26.658Z</time></trkpt><trkpt lat="43.736805" lon="10.6215083"><ele>20.0</ele><time>2026-04-06T10:19:27.659Z</time></trkpt><trkpt lat="43.7369667" lon="10.621495"><ele>20.0</ele><time>2026-04-06T10:19:28.658Z</time></trkpt><trkpt lat="43.7371317" lon="10.621485"><ele>19.0</ele><time>2026-04-06T10:19:29.658Z</time></trkpt><trkpt lat="43.7372933" lon="10.6214817"><ele>18.0</ele><time>2026-04-06T10:19:30.658Z</time></trkpt><trkpt lat="43.737455" lon="10.6214667"><ele>17.0</ele><time>2026-04-06T10:19:31.658Z</time></trkpt><trkpt lat="43.7376133" lon="10.6214517"><ele>16.333333333333336</ele><time>2026-04-06T10:19:32.658Z</time></trkpt><trkpt lat="43.7377783" lon="10.621425"><ele>15.666666666666668</ele><time>2026-04-06T10:19:33.658Z</time></trkpt><trkpt lat="43.737945" lon="10.621395"><ele>15.0</ele><time>2026-04-06T10:19:34.658Z</time></trkpt><trkpt lat="43.738105" lon="10.6213683"><ele>15.0</ele><time>2026-04-06T10:19:35.658Z</time></trkpt><trkpt lat="43.7382617" lon="10.6213417"><ele>15.0</ele><time>2026-04-06T10:19:36.658Z</time></trkpt><trkpt lat="43.73842" lon="10.62131"><ele>15.0</ele><time>2026-04-06T10:19:37.658Z</time></trkpt><trkpt lat="43.7385817" lon="10.621265"><ele>13.666666666666666</ele><time>2026-04-06T10:19:38.659Z</time></trkpt><trkpt lat="43.738745" lon="10.6212083"><ele>12.333333333333332</ele><time>2026-04-06T10:19:39.658Z</time></trkpt><trkpt lat="43.73891" lon="10.6211517"><ele>11.0</ele><time>2026-04-06T10:19:40.659Z</time></trkpt><trkpt lat="43.7390667" lon="10.62109"><ele>16.0</ele><time>2026-04-06T10:19:41.658Z</time></trkpt><trkpt lat="43.7392317" lon="10.62102"><ele>21.0</ele><time>2026-04-06T10:19:42.658Z</time></trkpt><trkpt lat="43.7393983" lon="10.6209583"><ele>26.0</ele><time>2026-04-06T10:19:43.658Z</time></trkpt><trkpt lat="43.7395633" lon="10.6209233"><ele>26.0</ele><time>2026-04-06T10:19:44.658Z</time></trkpt><trkpt lat="43.7397367" lon="10.6209117"><ele>26.0</ele><time>2026-04-06T10:19:45.658Z</time></trkpt><trkpt lat="43.7399083" lon="10.620925"><ele>26.0</ele><time>2026-04-06T10:19:46.658Z</time></trkpt><trkpt lat="43.740075" lon="10.6209567"><ele>26.333333333333332</ele><time>2026-04-06T10:19:47.658Z</time></trkpt><trkpt lat="43.7402367" lon="10.6209917"><ele>26.666666666666664</ele><time>2026-04-06T10:19:48.658Z</time></trkpt><trkpt lat="43.7404" lon="10.62103"><ele>27.0</ele><time>2026-04-06T10:19:49.658Z</time></trkpt><trkpt lat="43.7405633" lon="10.6210633"><ele>27.0</ele><time>2026-04-06T10:19:50.658Z</time></trkpt><trkpt lat="43.7407233" lon="10.6211017"><ele>27.0</ele><time>2026-04-06T10:19:51.658Z</time></trkpt><trkpt lat="43.7408817" lon="10.621135"><ele>27.0</ele><time>2026-04-06T10:19:52.658Z</time></trkpt><trkpt lat="43.7410383" lon="10.6211717"><ele>22.333333333333332</ele><time>2026-04-06T10:19:53.658Z</time></trkpt><trkpt lat="43.741195" lon="10.6212083"><ele>17.666666666666664</ele><time>2026-04-06T10:19:54.658Z</time></trkpt><trkpt lat="43.7413483" lon="10.6212467"><ele>13.0</ele><time>2026-04-06T10:19:55.658Z</time></trkpt><trkpt lat="43.7415017" lon="10.621285"><ele>13.0</ele><time>2026-04-06T10:19:56.658Z</time></trkpt><trkpt lat="43.74165" lon="10.6213167"><ele>13.0</ele><time>2026-04-06T10:19:57.658Z</time></trkpt><trkpt lat="43.7418" lon="10.6213333"><ele>13.0</ele><time>2026-04-06T10:19:58.658Z</time></trkpt><trkpt lat="43.74195" lon="10.6213217"><ele>12.666666666666666</ele><time>2026-04-06T10:19:59.658Z</time></trkpt><trkpt lat="43.7420983" lon="10.621285"><ele>12.333333333333332</ele><time>2026-04-06T10:20:00.658Z</time></trkpt><trkpt lat="43.74225" lon="10.6212417"><ele>12.0</ele><time>2026-04-06T10:20:01.659Z</time></trkpt><trkpt lat="43.7424" lon="10.6211933"><ele>13.0</ele><time>2026-04-06T10:20:02.659Z</time></trkpt><trkpt lat="43.7425483" lon="10.621135"><ele>14.0</ele><time>2026-04-06T10:20:03.658Z</time></trkpt><trkpt lat="43.7426933" lon="10.6210683"><ele>15.0</ele><time>2026-04-06T10:20:04.658Z</time></trkpt><trkpt lat="43.74283" lon="10.6209883"><ele>15.0</ele><time>2026-04-06T10:20:05.658Z</time></trkpt><trkpt lat="43.7429617" lon="10.620885"><ele>15.0</ele><time>2026-04-06T10:20:06.658Z</time></trkpt><trkpt lat="43.7430833" lon="10.6207633"><ele>15.0</ele><time>2026-04-06T10:20:07.658Z</time></trkpt><trkpt lat="43.7432017" lon="10.6206333"><ele>15.0</ele><time>2026-04-06T10:20:08.659Z</time></trkpt><trkpt lat="43.74332" lon="10.6205"><ele>15.0</ele><time>2026-04-06T10:20:09.658Z</time></trkpt><trkpt lat="43.743435" lon="10.620365"><ele>15.0</ele><time>2026-04-06T10:20:10.658Z</time></trkpt><trkpt lat="43.74355" lon="10.6202267"><ele>15.333333333333332</ele><time>2026-04-06T10:20:11.658Z</time></trkpt><trkpt lat="43.743665" lon="10.62009"><ele>15.666666666666666</ele><time>2026-04-06T10:20:12.658Z</time></trkpt><trkpt lat="43.7437817" lon="10.6199567"><ele>16.0</ele><time>2026-04-06T10:20:13.658Z</time></trkpt><trkpt lat="43.7438967" lon="10.619825"><ele>16.0</ele><time>2026-04-06T10:20:14.658Z</time></trkpt><trkpt lat="43.7440083" lon="10.619695"><ele>16.0</ele><time>2026-04-06T10:20:15.658Z</time></trkpt><trkpt lat="43.74412" lon="10.619565"><ele>16.0</ele><time>2026-04-06T10:20:16.658Z</time></trkpt><trkpt lat="43.7442283" lon="10.6194367"><ele>16.0</ele><time>2026-04-06T10:20:17.658Z</time></trkpt><trkpt lat="43.7443367" lon="10.6193133"><ele>16.75</ele><time>2026-04-06T10:20:18.658Z</time></trkpt><trkpt lat="43.7444517" lon="10.6192033"><ele>17.5</ele><time>2026-04-06T10:20:19.658Z</time></trkpt><trkpt lat="43.7445767" lon="10.6191033"><ele>18.25</ele><time>2026-04-06T10:20:20.658Z</time></trkpt><trkpt lat="43.7447083" lon="10.6190183"><ele>19.0</ele><time>2026-04-06T10:20:21.659Z</time></trkpt><trkpt lat="43.74484" lon="10.6189333"><ele>19.0</ele><time>2026-04-06T10:20:22.658Z</time></trkpt><trkpt lat="43.744975" lon="10.6188533"><ele>19.0</ele><time>2026-04-06T10:20:23.658Z</time></trkpt><trkpt lat="43.74511" lon="10.618775"><ele>19.0</ele><time>2026-04-06T10:20:24.658Z</time></trkpt><trkpt lat="43.7452483" lon="10.6187"><ele>19.0</ele><time>2026-04-06T10:20:25.658Z</time></trkpt><trkpt lat="43.7453867" lon="10.6186233"><ele>20.0</ele><time>2026-04-06T10:20:26.658Z</time></trkpt><trkpt lat="43.7455267" lon="10.6185467"><ele>21.0</ele><time>2026-04-06T10:20:27.658Z</time></trkpt><trkpt lat="43.7456667" lon="10.61847"><ele>22.0</ele><time>2026-04-06T10:20:28.658Z</time></trkpt><trkpt lat="43.7458067" lon="10.6183917"><ele>22.0</ele><time>2026-04-06T10:20:29.658Z</time></trkpt><trkpt lat="43.7459467" lon="10.6183167"><ele>22.0</ele><time>2026-04-06T10:20:30.658Z</time></trkpt><trkpt lat="43.7460883" lon="10.6182383"><ele>22.0</ele><time>2026-04-06T10:20:31.659Z</time></trkpt><trkpt lat="43.7462317" lon="10.618165"><ele>21.666666666666664</ele><time>2026-04-06T10:20:32.658Z</time></trkpt><trkpt lat="43.74638" lon="10.618095"><ele>21.333333333333332</ele><time>2026-04-06T10:20:33.658Z</time></trkpt><trkpt lat="43.74653" lon="10.6180333"><ele>21.0</ele><time>2026-04-06T10:20:34.658Z</time></trkpt><trkpt lat="43.7466867" lon="10.6179867"><ele>21.0</ele><time>2026-04-06T10:20:35.658Z</time></trkpt><trkpt lat="43.7468433" lon="10.61796"><ele>21.0</ele><time>2026-04-06T10:20:36.658Z</time></trkpt><trkpt lat="43.7470017" lon="10.6179417"><ele>21.0</ele><time>2026-04-06T10:20:37.658Z</time></trkpt><trkpt lat="43.7471667" lon="10.6179283"><ele>21.0</ele><time>2026-04-06T10:20:38.658Z</time></trkpt><trkpt lat="43.7473333" lon="10.6179183"><ele>21.0</ele><time>2026-04-06T10:20:39.658Z</time></trkpt><trkpt lat="43.7474967" lon="10.61791"><ele>21.0</ele><time>2026-04-06T10:20:40.658Z</time></trkpt><trkpt lat="43.7476567" lon="10.617905"><ele>20.0</ele><time>2026-04-06T10:20:41.658Z</time></trkpt><trkpt lat="43.7478133" lon="10.617905"><ele>19.0</ele><time>2026-04-06T10:20:42.659Z</time></trkpt><trkpt lat="43.74797" lon="10.6179183"><ele>18.0</ele><time>2026-04-06T10:20:43.658Z</time></trkpt><trkpt lat="43.7481267" lon="10.6179417"><ele>18.0</ele><time>2026-04-06T10:20:44.658Z</time></trkpt><trkpt lat="43.7482833" lon="10.6179817"><ele>18.0</ele><time>2026-04-06T10:20:45.658Z</time></trkpt><trkpt lat="43.7484383" lon="10.61803"><ele>18.0</ele><time>2026-04-06T10:20:46.658Z</time></trkpt><trkpt lat="43.74859" lon="10.6180867"><ele>17.333333333333332</ele><time>2026-04-06T10:20:47.658Z</time></trkpt><trkpt lat="43.7487383" lon="10.6181467"><ele>16.666666666666664</ele><time>2026-04-06T10:20:48.658Z</time></trkpt><trkpt lat="43.7488883" lon="10.6182033"><ele>16.0</ele><time>2026-04-06T10:20:49.658Z</time></trkpt><trkpt lat="43.7490417" lon="10.6182617"><ele>16.0</ele><time>2026-04-06T10:20:50.658Z</time></trkpt><trkpt lat="43.749195" lon="10.6183217"><ele>16.0</ele><time>2026-04-06T10:20:51.658Z</time></trkpt><trkpt lat="43.7493483" lon="10.6183833"><ele>16.0</ele><time>2026-04-06T10:20:52.658Z</time></trkpt><trkpt lat="43.7494967" lon="10.6184483"><ele>18.333333333333332</ele><time>2026-04-06T10:20:53.658Z</time></trkpt><trkpt lat="43.7496467" lon="10.6185117"><ele>20.666666666666668</ele><time>2026-04-06T10:20:54.658Z</time></trkpt><trkpt lat="43.7497983" lon="10.618575"><ele>23.0</ele><time>2026-04-06T10:20:55.659Z</time></trkpt><trkpt lat="43.7499483" lon="10.61864"><ele>19.666666666666668</ele><time>2026-04-06T10:20:56.658Z</time></trkpt><trkpt lat="43.7501" lon="10.6186967"><ele>16.333333333333332</ele><time>2026-04-06T10:20:57.658Z</time></trkpt><trkpt lat="43.7502483" lon="10.6187567"><ele>13.0</ele><time>2026-04-06T10:20:58.658Z</time></trkpt><trkpt lat="43.7503967" lon="10.618815"><ele>13.0</ele><time>2026-04-06T10:20:59.658Z</time></trkpt><trkpt lat="43.750545" lon="10.6188767"><ele>13.0</ele><time>2026-04-06T10:21:00.658Z</time></trkpt><trkpt lat="43.7506917" lon="10.6189383"><ele>13.0</ele><time>2026-04-06T10:21:01.658Z</time></trkpt><trkpt lat="43.7508383" lon="10.6190017"><ele>13.0</ele><time>2026-04-06T10:21:02.658Z</time></trkpt><trkpt lat="43.7509867" lon="10.6190617"><ele>13.0</ele><time>2026-04-06T10:21:03.659Z</time></trkpt><trkpt lat="43.7511367" lon="10.6191183"><ele>13.0</ele><time>2026-04-06T10:21:04.658Z</time></trkpt><trkpt lat="43.7512883" lon="10.619165"><ele>14.666666666666666</ele><time>2026-04-06T10:21:05.658Z</time></trkpt><trkpt lat="43.75144" lon="10.6191933"><ele>16.333333333333332</ele><time>2026-04-06T10:21:06.658Z</time></trkpt><trkpt lat="43.751595" lon="10.6192017"><ele>18.0</ele><time>2026-04-06T10:21:07.659Z</time></trkpt><trkpt lat="43.7517517" lon="10.6191917"><ele>17.333333333333332</ele><time>2026-04-06T10:21:08.659Z</time></trkpt><trkpt lat="43.7519083" lon="10.619175"><ele>16.666666666666664</ele><time>2026-04-06T10:21:09.658Z</time></trkpt><trkpt lat="43.7520633" lon="10.6191617"><ele>16.0</ele><time>2026-04-06T10:21:10.658Z</time></trkpt><trkpt lat="43.7522217" lon="10.6191517"><ele>16.0</ele><time>2026-04-06T10:21:11.658Z</time></trkpt><trkpt lat="43.7523783" lon="10.619135"><ele>16.0</ele><time>2026-04-06T10:21:12.658Z</time></trkpt><trkpt lat="43.7525333" lon="10.6191167"><ele>16.0</ele><time>2026-04-06T10:21:13.658Z</time></trkpt><trkpt lat="43.7526867" lon="10.6191033"><ele>16.25</ele><time>2026-04-06T10:21:14.658Z</time></trkpt><trkpt lat="43.7528367" lon="10.6190933"><ele>16.5</ele><time>2026-04-06T10:21:15.658Z</time></trkpt><trkpt lat="43.7529833" lon="10.6190867"><ele>16.75</ele><time>2026-04-06T10:21:16.658Z</time></trkpt><trkpt lat="43.7531283" lon="10.6190783"><ele>17.0</ele><time>2026-04-06T10:21:17.658Z</time></trkpt><trkpt lat="43.7532733" lon="10.6190683"><ele>17.0</ele><time>2026-04-06T10:21:18.658Z</time></trkpt><trkpt lat="43.75342" lon="10.6190567"><ele>17.0</ele><time>2026-04-06T10:21:19.659Z</time></trkpt><trkpt lat="43.753565" lon="10.6190483"><ele>17.0</ele><time>2026-04-06T10:21:20.658Z</time></trkpt><trkpt lat="43.7537117" lon="10.6190433"><ele>17.0</ele><time>2026-04-06T10:21:21.658Z</time></trkpt><trkpt lat="43.7538567" lon="10.61904"><ele>17.0</ele><time>2026-04-06T10:21:22.658Z</time></trkpt><trkpt lat="43.7539983" lon="10.6190317"><ele>17.0</ele><time>2026-04-06T10:21:23.659Z</time></trkpt><trkpt lat="43.7541383" lon="10.6190283"><ele>17.0</ele><time>2026-04-06T10:21:24.658Z</time></trkpt><trkpt lat="43.7542717" lon="10.6190267"><ele>17.0</ele><time>2026-04-06T10:21:25.658Z</time></trkpt><trkpt lat="43.754405" lon="10.61902"><ele>17.0</ele><time>2026-04-06T10:21:26.658Z</time></trkpt><trkpt lat="43.7545383" lon="10.6190083"><ele>17.0</ele><time>2026-04-06T10:21:27.658Z</time></trkpt><trkpt lat="43.7546683" lon="10.6189933"><ele>17.0</ele><time>2026-04-06T10:21:28.658Z</time></trkpt><trkpt lat="43.754795" lon="10.6189833"><ele>17.0</ele><time>2026-04-06T10:21:29.658Z</time></trkpt><trkpt lat="43.7549167" lon="10.6189733"><ele>17.0</ele><time>2026-04-06T10:21:30.658Z</time></trkpt><trkpt lat="43.7550333" lon="10.6189633"><ele>17.0</ele><time>2026-04-06T10:21:31.658Z</time></trkpt><trkpt lat="43.755145" lon="10.6189533"><ele>17.0</ele><time>2026-04-06T10:21:32.658Z</time></trkpt><trkpt lat="43.7552467" lon="10.6189467"><ele>17.0</ele><time>2026-04-06T10:21:33.658Z</time></trkpt><trkpt lat="43.7553467" lon="10.6189417"><ele>17.0</ele><time>2026-04-06T10:21:34.658Z</time></trkpt><trkpt lat="43.7554417" lon="10.6189317"><ele>16.6</ele><time>2026-04-06T10:21:35.658Z</time></trkpt><trkpt lat="43.7555333" lon="10.6189183"><ele>16.2</ele><time>2026-04-06T10:21:36.658Z</time></trkpt><trkpt lat="43.7556333" lon="10.6189083"><ele>15.8</ele><time>2026-04-06T10:21:37.658Z</time></trkpt><trkpt lat="43.75573" lon="10.6188917"><ele>15.4</ele><time>2026-04-06T10:21:38.658Z</time></trkpt><trkpt lat="43.7558317" lon="10.618865"><ele>15.0</ele><time>2026-04-06T10:21:39.658Z</time></trkpt><trkpt lat="43.7559383" lon="10.618845"><ele>14.4</ele><time>2026-04-06T10:21:40.658Z</time></trkpt><trkpt lat="43.7560433" lon="10.6188267"><ele>13.8</ele><time>2026-04-06T10:21:41.658Z</time></trkpt><trkpt lat="43.75615" lon="10.6188033"><ele>13.2</ele><time>2026-04-06T10:21:42.658Z</time></trkpt><trkpt lat="43.75626" lon="10.6187683"><ele>12.6</ele><time>2026-04-06T10:21:43.658Z</time></trkpt><trkpt lat="43.7563717" lon="10.6187267"><ele>12.0</ele><time>2026-04-06T10:21:44.658Z</time></trkpt><trkpt lat="43.7564817" lon="10.618685"><ele>12.75</ele><time>2026-04-06T10:21:45.658Z</time></trkpt><trkpt lat="43.7565917" lon="10.61865"><ele>13.5</ele><time>2026-04-06T10:21:46.658Z</time></trkpt><trkpt lat="43.756705" lon="10.6186133"><ele>14.25</ele><time>2026-04-06T10:21:47.658Z</time></trkpt><trkpt lat="43.75682" lon="10.618575"><ele>15.0</ele><time>2026-04-06T10:21:48.658Z</time></trkpt><trkpt lat="43.756935" lon="10.6185367"><ele>15.0</ele><time>2026-04-06T10:21:49.658Z</time></trkpt><trkpt lat="43.7570517" lon="10.6185"><ele>15.0</ele><time>2026-04-06T10:21:50.659Z</time></trkpt><trkpt lat="43.7571683" lon="10.618465"><ele>15.0</ele><time>2026-04-06T10:21:51.658Z</time></trkpt><trkpt lat="43.7572867" lon="10.6184317"><ele>15.0</ele><time>2026-04-06T10:21:52.658Z</time></trkpt><trkpt lat="43.7574067" lon="10.6183933"><ele>15.0</ele><time>2026-04-06T10:21:53.658Z</time></trkpt><trkpt lat="43.7575283" lon="10.618355"><ele>15.0</ele><time>2026-04-06T10:21:54.659Z</time></trkpt><trkpt lat="43.75765" lon="10.6183133"><ele>15.0</ele><time>2026-04-06T10:21:55.658Z</time></trkpt><trkpt lat="43.75777" lon="10.6182633"><ele>15.0</ele><time>2026-04-06T10:21:56.659Z</time></trkpt><trkpt lat="43.7578833" lon="10.6182067"><ele>15.25</ele><time>2026-04-06T10:21:57.658Z</time></trkpt><trkpt lat="43.757995" lon="10.61814"><ele>15.5</ele><time>2026-04-06T10:21:58.658Z</time></trkpt><trkpt lat="43.7581033" lon="10.6180683"><ele>15.75</ele><time>2026-04-06T10:21:59.658Z</time></trkpt><trkpt lat="43.75821" lon="10.6179933"><ele>16.0</ele><time>2026-04-06T10:22:00.658Z</time></trkpt><trkpt lat="43.7583133" lon="10.617925"><ele>16.0</ele><time>2026-04-06T10:22:01.658Z</time></trkpt><trkpt lat="43.7584167" lon="10.6178683"><ele>16.0</ele><time>2026-04-06T10:22:02.658Z</time></trkpt><trkpt lat="43.7585183" lon="10.6178233"><ele>16.0</ele><time>2026-04-06T10:22:03.658Z</time></trkpt><trkpt lat="43.7586167" lon="10.6177867"><ele>16.0</ele><time>2026-04-06T10:22:04.658Z</time></trkpt><trkpt lat="43.7587167" lon="10.6177517"><ele>16.0</ele><time>2026-04-06T10:22:05.658Z</time></trkpt><trkpt lat="43.7588167" lon="10.6177183"><ele>17.200000000000003</ele><time>2026-04-06T10:22:06.658Z</time></trkpt><trkpt lat="43.7589167" lon="10.617685"><ele>18.400000000000002</ele><time>2026-04-06T10:22:07.658Z</time></trkpt><trkpt lat="43.7590167" lon="10.617655"><ele>19.6</ele><time>2026-04-06T10:22:08.658Z</time></trkpt><trkpt lat="43.759115" lon="10.6176233"><ele>20.8</ele><time>2026-04-06T10:22:09.659Z</time></trkpt><trkpt lat="43.759215" lon="10.61759"><ele>22.0</ele><time>2026-04-06T10:22:10.658Z</time></trkpt><trkpt lat="43.75932" lon="10.6175567"><ele>22.0</ele><time>2026-04-06T10:22:11.658Z</time></trkpt><trkpt lat="43.7594267" lon="10.6175217"><ele>22.0</ele><time>2026-04-06T10:22:12.658Z</time></trkpt><trkpt lat="43.759535" lon="10.6174833"><ele>22.0</ele><time>2026-04-06T10:22:13.658Z</time></trkpt><trkpt lat="43.759645" lon="10.6174467"><ele>22.0</ele><time>2026-04-06T10:22:14.658Z</time></trkpt><trkpt lat="43.7597567" lon="10.61741"><ele>22.0</ele><time>2026-04-06T10:22:15.658Z</time></trkpt><trkpt lat="43.7598683" lon="10.617375"><ele>22.0</ele><time>2026-04-06T10:22:16.658Z</time></trkpt><trkpt lat="43.7599817" lon="10.6173417"><ele>22.0</ele><time>2026-04-06T10:22:17.658Z</time></trkpt><trkpt lat="43.7600933" lon="10.617305"><ele>22.0</ele><time>2026-04-06T10:22:18.658Z</time></trkpt><trkpt lat="43.760205" lon="10.6172667"><ele>22.0</ele><time>2026-04-06T10:22:19.658Z</time></trkpt><trkpt lat="43.7603167" lon="10.6172233"><ele>21.25</ele><time>2026-04-06T10:22:20.658Z</time></trkpt><trkpt lat="43.7604283" lon="10.6171783"><ele>20.5</ele><time>2026-04-06T10:22:21.658Z</time></trkpt><trkpt lat="43.7605417" lon="10.6171333"><ele>19.75</ele><time>2026-04-06T10:22:22.659Z</time></trkpt><trkpt lat="43.7606583" lon="10.617085"><ele>19.0</ele><time>2026-04-06T10:22:23.659Z</time></trkpt><trkpt lat="43.76077" lon="10.6170383"><ele>19.5</ele><time>2026-04-06T10:22:24.659Z</time></trkpt><trkpt lat="43.76088" lon="10.6169833"><ele>20.0</ele><time>2026-04-06T10:22:25.658Z</time></trkpt><trkpt lat="43.7609817" lon="10.61692"><ele>20.5</ele><time>2026-04-06T10:22:26.658Z</time></trkpt><trkpt lat="43.7610783" lon="10.6168367"><ele>21.0</ele><time>2026-04-06T10:22:27.658Z</time></trkpt><trkpt lat="43.7611683" lon="10.6167333"><ele>21.0</ele><time>2026-04-06T10:22:28.658Z</time></trkpt><trkpt lat="43.7612567" lon="10.6166233"><ele>21.0</ele><time>2026-04-06T10:22:29.658Z</time></trkpt><trkpt lat="43.7613433" lon="10.6165117"><ele>21.0</ele><time>2026-04-06T10:22:30.658Z</time></trkpt><trkpt lat="43.7614333" lon="10.616405"><ele>21.0</ele><time>2026-04-06T10:22:31.659Z</time></trkpt><trkpt lat="43.7615233" lon="10.6163"><ele>21.0</ele><time>2026-04-06T10:22:32.659Z</time></trkpt><trkpt lat="43.7616133" lon="10.6161967"><ele>21.0</ele><time>2026-04-06T10:22:33.658Z</time></trkpt><trkpt lat="43.7617067" lon="10.6160933"><ele>21.0</ele><time>2026-04-06T10:22:34.659Z</time></trkpt><trkpt lat="43.7618033" lon="10.615995"><ele>21.0</ele><time>2026-04-06T10:22:35.658Z</time></trkpt><trkpt lat="43.7619017" lon="10.6159"><ele>21.25</ele><time>2026-04-06T10:22:36.658Z</time></trkpt><trkpt lat="43.7620033" lon="10.61581"><ele>21.5</ele><time>2026-04-06T10:22:37.658Z</time></trkpt><trkpt lat="43.762105" lon="10.6157233"><ele>21.75</ele><time>2026-04-06T10:22:38.658Z</time></trkpt><trkpt lat="43.7622083" lon="10.6156383"><ele>22.0</ele><time>2026-04-06T10:22:39.658Z</time></trkpt><trkpt lat="43.7623133" lon="10.6155533"><ele>22.0</ele><time>2026-04-06T10:22:40.658Z</time></trkpt><trkpt lat="43.7624183" lon="10.6154633"><ele>22.0</ele><time>2026-04-06T10:22:41.658Z</time></trkpt><trkpt lat="43.762525" lon="10.615375"><ele>22.0</ele><time>2026-04-06T10:22:42.658Z</time></trkpt><trkpt lat="43.7626333" lon="10.6152833"><ele>22.0</ele><time>2026-04-06T10:22:43.658Z</time></trkpt><trkpt lat="43.7627433" lon="10.61519"><ele>22.5</ele><time>2026-04-06T10:22:44.658Z</time></trkpt><trkpt lat="43.7628533" lon="10.61509"><ele>23.0</ele><time>2026-04-06T10:22:45.659Z</time></trkpt><trkpt lat="43.7629633" lon="10.6149933"><ele>23.5</ele><time>2026-04-06T10:22:46.658Z</time></trkpt><trkpt lat="43.7630767" lon="10.6149033"><ele>24.0</ele><time>2026-04-06T10:22:47.658Z</time></trkpt><trkpt lat="43.7631867" lon="10.61483"><ele>24.0</ele><time>2026-04-06T10:22:48.658Z</time></trkpt><trkpt lat="43.7632933" lon="10.6147583"><ele>24.0</ele><time>2026-04-06T10:22:49.658Z</time></trkpt><trkpt lat="43.763395" lon="10.61469"><ele>24.0</ele><time>2026-04-06T10:22:50.658Z</time></trkpt><trkpt lat="43.7634883" lon="10.614615"><ele>24.0</ele><time>2026-04-06T10:22:51.659Z</time></trkpt><trkpt lat="43.7635733" lon="10.61453"><ele>24.0</ele><time>2026-04-06T10:22:52.659Z</time></trkpt><trkpt lat="43.7636483" lon="10.6144333"><ele>25.2</ele><time>2026-04-06T10:22:53.658Z</time></trkpt><trkpt lat="43.76371" lon="10.614325"><ele>26.4</ele><time>2026-04-06T10:22:54.658Z</time></trkpt><trkpt lat="43.7637733" lon="10.61422"><ele>27.6</ele><time>2026-04-06T10:22:55.658Z</time></trkpt><trkpt lat="43.7638467" lon="10.6141333"><ele>28.8</ele><time>2026-04-06T10:22:56.658Z</time></trkpt><trkpt lat="43.7639267" lon="10.6140633"><ele>30.0</ele><time>2026-04-06T10:22:57.658Z</time></trkpt><trkpt lat="43.7640117" lon="10.61401"><ele>30.0</ele><time>2026-04-06T10:22:58.658Z</time></trkpt><trkpt lat="43.7641" lon="10.6139533"><ele>30.0</ele><time>2026-04-06T10:22:59.658Z</time></trkpt><trkpt lat="43.76419" lon="10.6139017"><ele>30.0</ele><time>2026-04-06T10:23:00.658Z</time></trkpt><trkpt lat="43.7642733" lon="10.613845"><ele>30.0</ele><time>2026-04-06T10:23:01.658Z</time></trkpt><trkpt lat="43.7643617" lon="10.6137833"><ele>30.0</ele><time>2026-04-06T10:23:02.659Z</time></trkpt><trkpt lat="43.764455" lon="10.6137167"><ele>30.75</ele><time>2026-04-06T10:23:03.658Z</time></trkpt><trkpt lat="43.7645533" lon="10.6136517"><ele>31.5</ele><time>2026-04-06T10:23:04.658Z</time></trkpt><trkpt lat="43.76465" lon="10.6135817"><ele>32.25</ele><time>2026-04-06T10:23:05.658Z</time></trkpt><trkpt lat="43.7647567" lon="10.613505"><ele>33.0</ele><time>2026-04-06T10:23:06.658Z</time></trkpt><trkpt lat="43.764865" lon="10.613425"><ele>33.0</ele><time>2026-04-06T10:23:07.658Z</time></trkpt><trkpt lat="43.7649767" lon="10.6133517"><ele>33.0</ele><time>2026-04-06T10:23:08.658Z</time></trkpt><trkpt lat="43.7650917" lon="10.61327"><ele>33.0</ele><time>2026-04-06T10:23:09.658Z</time></trkpt><trkpt lat="43.7652067" lon="10.6131867"><ele>33.0</ele><time>2026-04-06T10:23:10.658Z</time></trkpt><trkpt lat="43.765325" lon="10.613105"><ele>33.75</ele><time>2026-04-06T10:23:11.658Z</time></trkpt><trkpt lat="43.7654383" lon="10.6130133"><ele>34.5</ele><time>2026-04-06T10:23:12.658Z</time></trkpt><trkpt lat="43.7655483" lon="10.6129117"><ele>35.25</ele><time>2026-04-06T10:23:13.658Z</time></trkpt><trkpt lat="43.7656583" lon="10.61281"><ele>36.0</ele><time>2026-04-06T10:23:14.658Z</time></trkpt><trkpt lat="43.765765" lon="10.6127"><ele>36.0</ele><time>2026-04-06T10:23:15.658Z</time></trkpt><trkpt lat="43.7658667" lon="10.6125833"><ele>36.0</ele><time>2026-04-06T10:23:16.658Z</time></trkpt><trkpt lat="43.76596" lon="10.6124567"><ele>36.0</ele><time>2026-04-06T10:23:17.658Z</time></trkpt><trkpt lat="43.7660467" lon="10.6123167"><ele>36.0</ele><time>2026-04-06T10:23:18.659Z</time></trkpt><trkpt lat="43.76613" lon="10.6121567"><ele>35.25</ele><time>2026-04-06T10:23:19.658Z</time></trkpt><trkpt lat="43.76621" lon="10.6119917"><ele>34.5</ele><time>2026-04-06T10:23:20.658Z</time></trkpt><trkpt lat="43.7662817" lon="10.6118233"><ele>33.75</ele><time>2026-04-06T10:23:21.658Z</time></trkpt><trkpt lat="43.7663467" lon="10.61165"><ele>33.0</ele><time>2026-04-06T10:23:22.658Z</time></trkpt><trkpt lat="43.7664" lon="10.611475"><ele>33.0</ele><time>2026-04-06T10:23:23.658Z</time></trkpt><trkpt lat="43.766445" lon="10.6112883"><ele>33.0</ele><time>2026-04-06T10:23:24.658Z</time></trkpt><trkpt lat="43.7664833" lon="10.6111017"><ele>33.0</ele><time>2026-04-06T10:23:25.658Z</time></trkpt><trkpt lat="43.76652" lon="10.6109117"><ele>33.0</ele><time>2026-04-06T10:23:26.658Z</time></trkpt><trkpt lat="43.7665533" lon="10.6107217"><ele>33.75</ele><time>2026-04-06T10:23:27.658Z</time></trkpt><trkpt lat="43.7665833" lon="10.6105383"><ele>34.5</ele><time>2026-04-06T10:23:28.658Z</time></trkpt><trkpt lat="43.7666" lon="10.6103567"><ele>35.25</ele><time>2026-04-06T10:23:29.659Z</time></trkpt><trkpt lat="43.7666067" lon="10.6101733"><ele>36.0</ele><time>2026-04-06T10:23:30.658Z</time></trkpt><trkpt lat="43.7666067" lon="10.60999"><ele>36.75</ele><time>2026-04-06T10:23:31.658Z</time></trkpt><trkpt lat="43.766605" lon="10.6098083"><ele>37.5</ele><time>2026-04-06T10:23:32.659Z</time></trkpt><trkpt lat="43.7666033" lon="10.6096267"><ele>38.25</ele><time>2026-04-06T10:23:33.658Z</time></trkpt><trkpt lat="43.766605" lon="10.6094533"><ele>39.0</ele><time>2026-04-06T10:23:34.658Z</time></trkpt><trkpt lat="43.766625" lon="10.6092833"><ele>38.8</ele><time>2026-04-06T10:23:35.658Z</time></trkpt><trkpt lat="43.76666" lon="10.6091317"><ele>38.599999999999994</ele><time>2026-04-06T10:23:36.658Z</time></trkpt><trkpt lat="43.766705" lon="10.6090067"><ele>38.4</ele><time>2026-04-06T10:23:37.658Z</time></trkpt><trkpt lat="43.7667567" lon="10.6088933"><ele>38.199999999999996</ele><time>2026-04-06T10:23:38.658Z</time></trkpt><trkpt lat="43.766815" lon="10.6087867"><ele>38.0</ele><time>2026-04-06T10:23:39.658Z</time></trkpt><trkpt lat="43.7668767" lon="10.6086817"><ele>38.8</ele><time>2026-04-06T10:23:40.658Z</time></trkpt><trkpt lat="43.76694" lon="10.608575"><ele>39.599999999999994</ele><time>2026-04-06T10:23:41.658Z</time></trkpt><trkpt lat="43.7670083" lon="10.6084733"><ele>40.400000000000006</ele><time>2026-04-06T10:23:42.658Z</time></trkpt><trkpt lat="43.7670717" lon="10.6083683"><ele>41.2</ele><time>2026-04-06T10:23:43.658Z</time></trkpt><trkpt lat="43.7671333" lon="10.608265"><ele>42.0</ele><time>2026-04-06T10:23:44.658Z</time></trkpt><trkpt lat="43.7671967" lon="10.60816"><ele>42.0</ele><time>2026-04-06T10:23:45.658Z</time></trkpt><trkpt lat="43.76726" lon="10.6080617"><ele>42.0</ele><time>2026-04-06T10:23:46.658Z</time></trkpt><trkpt lat="43.7673233" lon="10.6079667"><ele>42.0</ele><time>2026-04-06T10:23:47.658Z</time></trkpt><trkpt lat="43.76739" lon="10.6078817"><ele>42.0</ele><time>2026-04-06T10:23:48.658Z</time></trkpt><trkpt lat="43.76746" lon="10.6078067"><ele>42.0</ele><time>2026-04-06T10:23:49.658Z</time></trkpt><trkpt lat="43.7675417" lon="10.6077483"><ele>42.0</ele><time>2026-04-06T10:23:50.658Z</time></trkpt><trkpt lat="43.76763" lon="10.607705"><ele>42.0</ele><time>2026-04-06T10:23:51.658Z</time></trkpt><trkpt lat="43.76773" lon="10.6076733"><ele>42.0</ele><time>2026-04-06T10:23:52.658Z</time></trkpt><trkpt lat="43.7678317" lon="10.6076417"><ele>42.0</ele><time>2026-04-06T10:23:53.658Z</time></trkpt><trkpt lat="43.7679317" lon="10.6076067"><ele>42.0</ele><time>2026-04-06T10:23:54.659Z</time></trkpt><trkpt lat="43.7680333" lon="10.6075683"><ele>42.2</ele><time>2026-04-06T10:23:55.658Z</time></trkpt><trkpt lat="43.768135" lon="10.6075267"><ele>42.400000000000006</ele><time>2026-04-06T10:23:56.658Z</time></trkpt><trkpt lat="43.7682367" lon="10.607485"><ele>42.599999999999994</ele><time>2026-04-06T10:23:57.659Z</time></trkpt><trkpt lat="43.7683383" lon="10.6074467"><ele>42.8</ele><time>2026-04-06T10:23:58.658Z</time></trkpt><trkpt lat="43.76844" lon="10.6074017"><ele>43.0</ele><time>2026-04-06T10:23:59.658Z</time></trkpt><trkpt lat="43.7685367" lon="10.6073517"><ele>42.599999999999994</ele><time>2026-04-06T10:24:00.658Z</time></trkpt><trkpt lat="43.7686267" lon="10.6072933"><ele>42.199999999999996</ele><time>2026-04-06T10:24:01.658Z</time></trkpt><trkpt lat="43.7687" lon="10.607215"><ele>41.8</ele><time>2026-04-06T10:24:02.658Z</time></trkpt><trkpt lat="43.76876" lon="10.60712"><ele>41.4</ele><time>2026-04-06T10:24:03.658Z</time></trkpt><trkpt lat="43.7688117" lon="10.60702"><ele>41.0</ele><time>2026-04-06T10:24:04.658Z</time></trkpt><trkpt lat="43.7688583" lon="10.6069033"><ele>41.8</ele><time>2026-04-06T10:24:05.658Z</time></trkpt><trkpt lat="43.7689067" lon="10.6067733"><ele>42.599999999999994</ele><time>2026-04-06T10:24:06.658Z</time></trkpt><trkpt lat="43.768955" lon="10.6066417"><ele>43.4</ele><time>2026-04-06T10:24:07.658Z</time></trkpt><trkpt lat="43.7690067" lon="10.6065017"><ele>44.2</ele><time>2026-04-06T10:24:08.658Z</time></trkpt><trkpt lat="43.7690633" lon="10.6063583"><ele>45.0</ele><time>2026-04-06T10:24:09.658Z</time></trkpt><trkpt lat="43.76912" lon="10.6062233"><ele>45.6</ele><time>2026-04-06T10:24:10.658Z</time></trkpt><trkpt lat="43.7691783" lon="10.6060933"><ele>46.2</ele><time>2026-04-06T10:24:11.659Z</time></trkpt><trkpt lat="43.769245" lon="10.60597"><ele>46.8</ele><time>2026-04-06T10:24:12.658Z</time></trkpt><trkpt lat="43.7693167" lon="10.6058567"><ele>47.4</ele><time>2026-04-06T10:24:13.658Z</time></trkpt><trkpt lat="43.769395" lon="10.6057433"><ele>48.0</ele><time>2026-04-06T10:24:14.658Z</time></trkpt><trkpt lat="43.769475" lon="10.605635"><ele>48.4</ele><time>2026-04-06T10:24:15.658Z</time></trkpt><trkpt lat="43.76955" lon="10.60554"><ele>48.8</ele><time>2026-04-06T10:24:16.658Z</time></trkpt><trkpt lat="43.7696233" lon="10.6054517"><ele>49.2</ele><time>2026-04-06T10:24:17.658Z</time></trkpt><trkpt lat="43.7696933" lon="10.6053667"><ele>49.6</ele><time>2026-04-06T10:24:18.658Z</time></trkpt><trkpt lat="43.7697483" lon="10.6052733"><ele>50.0</ele><time>2026-04-06T10:24:19.658Z</time></trkpt><trkpt lat="43.7697833" lon="10.6051683"><ele>50.50000000000001</ele><time>2026-04-06T10:24:20.658Z</time></trkpt><trkpt lat="43.7698017" lon="10.605055"><ele>51.0</ele><time>2026-04-06T10:24:21.659Z</time></trkpt><trkpt lat="43.7698133" lon="10.6049383"><ele>51.5</ele><time>2026-04-06T10:24:22.659Z</time></trkpt><trkpt lat="43.7698333" lon="10.604825"><ele>52.0</ele><time>2026-04-06T10:24:23.658Z</time></trkpt><trkpt lat="43.7698733" lon="10.604725"><ele>52.50000000000001</ele><time>2026-04-06T10:24:24.658Z</time></trkpt><trkpt lat="43.76993" lon="10.60463"><ele>53.0</ele><time>2026-04-06T10:24:25.658Z</time></trkpt><trkpt lat="43.7700233" lon="10.604565"><ele>53.0</ele><time>2026-04-06T10:24:26.658Z</time></trkpt><trkpt lat="43.7701167" lon="10.6044983"><ele>53.0</ele><time>2026-04-06T10:24:27.658Z</time></trkpt><trkpt lat="43.7702167" lon="10.6044133"><ele>53.0</ele><time>2026-04-06T10:24:28.658Z</time></trkpt><trkpt lat="43.7703217" lon="10.60433"><ele>53.0</ele><time>2026-04-06T10:24:29.658Z</time></trkpt><trkpt lat="43.7704167" lon="10.604235"><ele>53.25</ele><time>2026-04-06T10:24:30.659Z</time></trkpt><trkpt lat="43.7705067" lon="10.6041317"><ele>53.5</ele><time>2026-04-06T10:24:31.658Z</time></trkpt><trkpt lat="43.7705967" lon="10.6040233"><ele>53.75</ele><time>2026-04-06T10:24:32.659Z</time></trkpt><trkpt lat="43.77069" lon="10.6039117"><ele>54.0</ele><time>2026-04-06T10:24:33.658Z</time></trkpt><trkpt lat="43.7707817" lon="10.6037967"><ele>54.0</ele><time>2026-04-06T10:24:34.658Z</time></trkpt><trkpt lat="43.7708767" lon="10.6036733"><ele>54.0</ele><time>2026-04-06T10:24:35.659Z</time></trkpt><trkpt lat="43.770975" lon="10.6035583"><ele>54.0</ele><time>2026-04-06T10:24:36.658Z</time></trkpt><trkpt lat="43.771075" lon="10.603445"><ele>54.0</ele><time>2026-04-06T10:24:37.658Z</time></trkpt><trkpt lat="43.7711733" lon="10.6033317"><ele>55.0</ele><time>2026-04-06T10:24:38.658Z</time></trkpt><trkpt lat="43.7712733" lon="10.60322"><ele>56.0</ele><time>2026-04-06T10:24:39.659Z</time></trkpt><trkpt lat="43.77137" lon="10.603105"><ele>57.0</ele><time>2026-04-06T10:24:40.658Z</time></trkpt><trkpt lat="43.7714633" lon="10.6029867"><ele>58.0</ele><time>2026-04-06T10:24:41.658Z</time></trkpt><trkpt lat="43.771555" lon="10.6028617"><ele>58.0</ele><time>2026-04-06T10:24:42.658Z</time></trkpt><trkpt lat="43.7716417" lon="10.6027333"><ele>58.0</ele><time>2026-04-06T10:24:43.658Z</time></trkpt><trkpt lat="43.77173" lon="10.6026117"><ele>58.0</ele><time>2026-04-06T10:24:44.659Z</time></trkpt><trkpt lat="43.77183" lon="10.6025117"><ele>58.0</ele><time>2026-04-06T10:24:45.658Z</time></trkpt><trkpt lat="43.7719367" lon="10.6024233"><ele>56.5</ele><time>2026-04-06T10:24:46.658Z</time></trkpt><trkpt lat="43.772045" lon="10.6023433"><ele>55.0</ele><time>2026-04-06T10:24:47.658Z</time></trkpt><trkpt lat="43.7721517" lon="10.6022683"><ele>53.5</ele><time>2026-04-06T10:24:48.658Z</time></trkpt><trkpt lat="43.7722517" lon="10.6021983"><ele>52.0</ele><time>2026-04-06T10:24:49.658Z</time></trkpt><trkpt lat="43.772345" lon="10.60213"><ele>51.99999999999999</ele><time>2026-04-06T10:24:50.658Z</time></trkpt><trkpt lat="43.7724267" lon="10.60206"><ele>52.0</ele><time>2026-04-06T10:24:51.658Z</time></trkpt><trkpt lat="43.7724933" lon="10.6019883"><ele>52.0</ele><time>2026-04-06T10:24:52.658Z</time></trkpt><trkpt lat="43.77255" lon="10.6019067"><ele>52.0</ele><time>2026-04-06T10:24:53.658Z</time></trkpt><trkpt lat="43.7725917" lon="10.6018067"><ele>51.99999999999999</ele><time>2026-04-06T10:24:54.658Z</time></trkpt><trkpt lat="43.7726167" lon="10.6017"><ele>52.0</ele><time>2026-04-06T10:24:55.658Z</time></trkpt><trkpt lat="43.7726067" lon="10.60159"><ele>51.99999999999999</ele><time>2026-04-06T10:24:56.658Z</time></trkpt><trkpt lat="43.77258" lon="10.6014717"><ele>52.0</ele><time>2026-04-06T10:24:57.658Z</time></trkpt><trkpt lat="43.77255" lon="10.6013583"><ele>52.0</ele><time>2026-04-06T10:24:58.658Z</time></trkpt><trkpt lat="43.7725383" lon="10.6012367"><ele>52.0</ele><time>2026-04-06T10:24:59.658Z</time></trkpt><trkpt lat="43.77254" lon="10.601125"><ele>51.99999999999999</ele><time>2026-04-06T10:25:00.658Z</time></trkpt><trkpt lat="43.772565" lon="10.601025"><ele>52.0</ele><time>2026-04-06T10:25:01.658Z</time></trkpt><trkpt lat="43.7726083" lon="10.6009367"><ele>52.5</ele><time>2026-04-06T10:25:02.658Z</time></trkpt><trkpt lat="43.7726767" lon="10.6008583"><ele>53.0</ele><time>2026-04-06T10:25:03.658Z</time></trkpt><trkpt lat="43.7728167" lon="10.6008367"><ele>53.5</ele><time>2026-04-06T10:25:04.658Z</time></trkpt><trkpt lat="43.7729533" lon="10.6008083"><ele>54.0</ele><time>2026-04-06T10:25:05.658Z</time></trkpt><trkpt lat="43.7730867" lon="10.6007967"><ele>54.0</ele><time>2026-04-06T10:25:06.658Z</time></trkpt><trkpt lat="43.7732167" lon="10.6007833"><ele>54.0</ele><time>2026-04-06T10:25:07.658Z</time></trkpt><trkpt lat="43.77335" lon="10.6007683"><ele>54.0</ele><time>2026-04-06T10:25:08.658Z</time></trkpt><trkpt lat="43.77348" lon="10.6007483"><ele>54.0</ele><time>2026-04-06T10:25:09.658Z</time></trkpt><trkpt lat="43.7736117" lon="10.60074"><ele>53.5</ele><time>2026-04-06T10:25:10.659Z</time></trkpt><trkpt lat="43.773745" lon="10.6007383"><ele>53.0</ele><time>2026-04-06T10:25:11.658Z</time></trkpt><trkpt lat="43.7738733" lon="10.6007417"><ele>52.5</ele><time>2026-04-06T10:25:12.658Z</time></trkpt><trkpt lat="43.774" lon="10.6007483"><ele>52.0</ele><time>2026-04-06T10:25:13.658Z</time></trkpt><trkpt lat="43.77412" lon="10.600765"><ele>52.0</ele><time>2026-04-06T10:25:14.658Z</time></trkpt><trkpt lat="43.7742417" lon="10.6007833"><ele>52.0</ele><time>2026-04-06T10:25:15.658Z</time></trkpt><trkpt lat="43.7743633" lon="10.600795"><ele>52.0</ele><time>2026-04-06T10:25:16.658Z</time></trkpt><trkpt lat="43.774485" lon="10.600805"><ele>52.0</ele><time>2026-04-06T10:25:17.658Z</time></trkpt><trkpt lat="43.774605" lon="10.600815"><ele>51.6</ele><time>2026-04-06T10:25:18.658Z</time></trkpt><trkpt lat="43.77472" lon="10.6008183"><ele>51.2</ele><time>2026-04-06T10:25:19.659Z</time></trkpt><trkpt lat="43.77483" lon="10.60081"><ele>50.8</ele><time>2026-04-06T10:25:20.658Z</time></trkpt><trkpt lat="43.7749367" lon="10.60078"><ele>50.4</ele><time>2026-04-06T10:25:21.658Z</time></trkpt><trkpt lat="43.7750283" lon="10.600725"><ele>50.0</ele><time>2026-04-06T10:25:22.658Z</time></trkpt><trkpt lat="43.7751" lon="10.60065"><ele>50.0</ele><time>2026-04-06T10:25:23.658Z</time></trkpt><trkpt lat="43.7751567" lon="10.600545"><ele>50.0</ele><time>2026-04-06T10:25:24.658Z</time></trkpt><trkpt lat="43.7751883" lon="10.6004133"><ele>50.0</ele><time>2026-04-06T10:25:25.659Z</time></trkpt><trkpt lat="43.7751967" lon="10.60027"><ele>50.0</ele><time>2026-04-06T10:25:26.658Z</time></trkpt><trkpt lat="43.775185" lon="10.600135"><ele>50.0</ele><time>2026-04-06T10:25:27.659Z</time></trkpt><trkpt lat="43.7751567" lon="10.5999983"><ele>49.50000000000001</ele><time>2026-04-06T10:25:28.658Z</time></trkpt><trkpt lat="43.775125" lon="10.5998933"><ele>49.0</ele><time>2026-04-06T10:25:29.659Z</time></trkpt><trkpt lat="43.775095" lon="10.5998083"><ele>48.5</ele><time>2026-04-06T10:25:30.658Z</time></trkpt><trkpt lat="43.775105" lon="10.5996883"><ele>48.0</ele><time>2026-04-06T10:25:32.658Z</time></trkpt><trkpt lat="43.7752" lon="10.599675"><ele>47.5</ele><time>2026-04-06T10:25:34.658Z</time></trkpt><trkpt lat="43.7752667" lon="10.599755"><ele>47.0</ele><time>2026-04-06T10:25:35.658Z</time></trkpt><trkpt lat="43.775335" lon="10.5998417"><ele>45.2</ele><time>2026-04-06T10:25:36.659Z</time></trkpt><trkpt lat="43.7754117" lon="10.5999233"><ele>43.400000000000006</ele><time>2026-04-06T10:25:37.658Z</time></trkpt><trkpt lat="43.7755" lon="10.599995"><ele>41.599999999999994</ele><time>2026-04-06T10:25:38.658Z</time></trkpt><trkpt lat="43.77559" lon="10.60007"><ele>39.8</ele><time>2026-04-06T10:25:39.658Z</time></trkpt><trkpt lat="43.775685" lon="10.6001467"><ele>38.0</ele><time>2026-04-06T10:25:40.658Z</time></trkpt><trkpt lat="43.7757867" lon="10.6002183"><ele>38.0</ele><time>2026-04-06T10:25:41.658Z</time></trkpt><trkpt lat="43.77588" lon="10.600295"><ele>38.0</ele><time>2026-04-06T10:25:42.658Z</time></trkpt><trkpt lat="43.7759733" lon="10.6003767"><ele>38.0</ele><time>2026-04-06T10:25:43.658Z</time></trkpt><trkpt lat="43.7760667" lon="10.6004567"><ele>38.0</ele><time>2026-04-06T10:25:44.658Z</time></trkpt><trkpt lat="43.7761633" lon="10.6005267"><ele>38.0</ele><time>2026-04-06T10:25:45.658Z</time></trkpt><trkpt lat="43.7762633" lon="10.6005683"><ele>37.6</ele><time>2026-04-06T10:25:46.658Z</time></trkpt><trkpt lat="43.7763617" lon="10.60058"><ele>37.199999999999996</ele><time>2026-04-06T10:25:47.658Z</time></trkpt><trkpt lat="43.7764533" lon="10.60055"><ele>36.8</ele><time>2026-04-06T10:25:48.658Z</time></trkpt><trkpt lat="43.7765333" lon="10.60047"><ele>36.4</ele><time>2026-04-06T10:25:49.659Z</time></trkpt><trkpt lat="43.7765867" lon="10.6003617"><ele>36.0</ele><time>2026-04-06T10:25:50.658Z</time></trkpt><trkpt lat="43.7766233" lon="10.6002317"><ele>36.0</ele><time>2026-04-06T10:25:51.658Z</time></trkpt><trkpt lat="43.7766567" lon="10.6001067"><ele>36.0</ele><time>2026-04-06T10:25:52.659Z</time></trkpt><trkpt lat="43.776705" lon="10.600005"><ele>36.0</ele><time>2026-04-06T10:25:53.658Z</time></trkpt><trkpt lat="43.7767667" lon="10.599925"><ele>36.0</ele><time>2026-04-06T10:25:54.658Z</time></trkpt><trkpt lat="43.77684" lon="10.599875"><ele>36.0</ele><time>2026-04-06T10:25:55.658Z</time></trkpt><trkpt lat="43.7769133" lon="10.599815"><ele>36.0</ele><time>2026-04-06T10:25:56.658Z</time></trkpt><trkpt lat="43.777" lon="10.5997683"><ele>35.2</ele><time>2026-04-06T10:25:57.658Z</time></trkpt><trkpt lat="43.7770883" lon="10.5997267"><ele>34.400000000000006</ele><time>2026-04-06T10:25:58.658Z</time></trkpt><trkpt lat="43.7771717" lon="10.5996833"><ele>33.6</ele><time>2026-04-06T10:25:59.658Z</time></trkpt><trkpt lat="43.7772483" lon="10.5996333"><ele>32.800000000000004</ele><time>2026-04-06T10:26:00.658Z</time></trkpt><trkpt lat="43.77732" lon="10.5995583"><ele>32.0</ele><time>2026-04-06T10:26:01.658Z</time></trkpt><trkpt lat="43.7773983" lon="10.59948"><ele>32.0</ele><time>2026-04-06T10:26:02.658Z</time></trkpt><trkpt lat="43.77748" lon="10.5993933"><ele>32.0</ele><time>2026-04-06T10:26:03.658Z</time></trkpt><trkpt lat="43.77756" lon="10.599295"><ele>32.0</ele><time>2026-04-06T10:26:04.658Z</time></trkpt><trkpt lat="43.7776417" lon="10.5991867"><ele>32.0</ele><time>2026-04-06T10:26:05.658Z</time></trkpt><trkpt lat="43.77772" lon="10.599075"><ele>32.0</ele><time>2026-04-06T10:26:06.658Z</time></trkpt><trkpt lat="43.7778" lon="10.5989567"><ele>31.25</ele><time>2026-04-06T10:26:07.658Z</time></trkpt><trkpt lat="43.7778883" lon="10.5988533"><ele>30.5</ele><time>2026-04-06T10:26:08.658Z</time></trkpt><trkpt lat="43.7779833" lon="10.5987583"><ele>29.75</ele><time>2026-04-06T10:26:09.658Z</time></trkpt><trkpt lat="43.7780967" lon="10.598705"><ele>29.0</ele><time>2026-04-06T10:26:10.658Z</time></trkpt><trkpt lat="43.7782067" lon="10.59865"><ele>29.0</ele><time>2026-04-06T10:26:11.658Z</time></trkpt><trkpt lat="43.7783067" lon="10.5985833"><ele>29.0</ele><time>2026-04-06T10:26:12.659Z</time></trkpt><trkpt lat="43.7784" lon="10.5984967"><ele>29.0</ele><time>2026-04-06T10:26:13.658Z</time></trkpt><trkpt lat="43.7784833" lon="10.5983917"><ele>29.0</ele><time>2026-04-06T10:26:14.658Z</time></trkpt><trkpt lat="43.7785617" lon="10.5982783"><ele>29.0</ele><time>2026-04-06T10:26:15.658Z</time></trkpt><trkpt lat="43.7786267" lon="10.5981583"><ele>27.75</ele><time>2026-04-06T10:26:16.658Z</time></trkpt><trkpt lat="43.7786783" lon="10.5980233"><ele>26.5</ele><time>2026-04-06T10:26:17.658Z</time></trkpt><trkpt lat="43.7787067" lon="10.597875"><ele>25.25</ele><time>2026-04-06T10:26:18.658Z</time></trkpt><trkpt lat="43.7787033" lon="10.5977317"><ele>24.0</ele><time>2026-04-06T10:26:19.658Z</time></trkpt><trkpt lat="43.7786667" lon="10.5974367"><ele>24.0</ele><time>2026-04-06T10:26:21.658Z</time></trkpt><trkpt lat="43.7786433" lon="10.5972833"><ele>24.0</ele><time>2026-04-06T10:26:22.659Z</time></trkpt><trkpt lat="43.7786233" lon="10.5971283"><ele>24.0</ele><time>2026-04-06T10:26:23.658Z</time></trkpt><trkpt lat="43.7786" lon="10.5969683"><ele>24.0</ele><time>2026-04-06T10:26:24.658Z</time></trkpt><trkpt lat="43.7785783" lon="10.5968117"><ele>24.0</ele><time>2026-04-06T10:26:25.658Z</time></trkpt><trkpt lat="43.7785633" lon="10.5966567"><ele>24.0</ele><time>2026-04-06T10:26:26.659Z</time></trkpt><trkpt lat="43.778555" lon="10.5964983"><ele>24.0</ele><time>2026-04-06T10:26:27.659Z</time></trkpt><trkpt lat="43.7785617" lon="10.59634"><ele>24.0</ele><time>2026-04-06T10:26:28.658Z</time></trkpt><trkpt lat="43.778575" lon="10.5961883"><ele>24.25</ele><time>2026-04-06T10:26:29.658Z</time></trkpt><trkpt lat="43.7786067" lon="10.596035"><ele>24.5</ele><time>2026-04-06T10:26:30.658Z</time></trkpt><trkpt lat="43.77865" lon="10.595885"><ele>24.75</ele><time>2026-04-06T10:26:31.658Z</time></trkpt><trkpt lat="43.7787067" lon="10.5957433"><ele>25.0</ele><time>2026-04-06T10:26:32.658Z</time></trkpt><trkpt lat="43.77878" lon="10.5956133"><ele>25.0</ele><time>2026-04-06T10:26:33.658Z</time></trkpt><trkpt lat="43.7788617" lon="10.5954883"><ele>25.0</ele><time>2026-04-06T10:26:34.658Z</time></trkpt><trkpt lat="43.7789467" lon="10.59537"><ele>25.0</ele><time>2026-04-06T10:26:35.658Z</time></trkpt><trkpt lat="43.7790383" lon="10.5952617"><ele>25.0</ele><time>2026-04-06T10:26:36.658Z</time></trkpt><trkpt lat="43.77914" lon="10.5951683"><ele>26.0</ele><time>2026-04-06T10:26:37.658Z</time></trkpt><trkpt lat="43.7792517" lon="10.5950917"><ele>27.0</ele><time>2026-04-06T10:26:38.659Z</time></trkpt><trkpt lat="43.779365" lon="10.5950217"><ele>28.0</ele><time>2026-04-06T10:26:39.658Z</time></trkpt><trkpt lat="43.77948" lon="10.5949583"><ele>29.0</ele><time>2026-04-06T10:26:40.658Z</time></trkpt><trkpt lat="43.7795883" lon="10.5948967"><ele>29.5</ele><time>2026-04-06T10:26:41.658Z</time></trkpt><trkpt lat="43.779695" lon="10.5948383"><ele>30.0</ele><time>2026-04-06T10:26:42.659Z</time></trkpt><trkpt lat="43.7797967" lon="10.5947717"><ele>30.5</ele><time>2026-04-06T10:26:43.658Z</time></trkpt><trkpt lat="43.779895" lon="10.5946967"><ele>31.0</ele><time>2026-04-06T10:26:44.659Z</time></trkpt><trkpt lat="43.7799883" lon="10.5946067"><ele>30.75</ele><time>2026-04-06T10:26:45.658Z</time></trkpt><trkpt lat="43.7800767" lon="10.5945"><ele>30.5</ele><time>2026-04-06T10:26:46.658Z</time></trkpt><trkpt lat="43.7801617" lon="10.5943767"><ele>30.25</ele><time>2026-04-06T10:26:47.658Z</time></trkpt><trkpt lat="43.780235" lon="10.59424"><ele>30.0</ele><time>2026-04-06T10:26:48.658Z</time></trkpt><trkpt lat="43.7803" lon="10.59409"><ele>28.25</ele><time>2026-04-06T10:26:49.658Z</time></trkpt><trkpt lat="43.780355" lon="10.59393"><ele>26.5</ele><time>2026-04-06T10:26:50.658Z</time></trkpt><trkpt lat="43.780405" lon="10.5937633"><ele>24.75</ele><time>2026-04-06T10:26:51.658Z</time></trkpt><trkpt lat="43.7804467" lon="10.5935917"><ele>23.0</ele><time>2026-04-06T10:26:52.658Z</time></trkpt><trkpt lat="43.7804917" lon="10.5934167"><ele>23.0</ele><time>2026-04-06T10:26:53.659Z</time></trkpt><trkpt lat="43.7805517" lon="10.5932483"><ele>23.0</ele><time>2026-04-06T10:26:54.658Z</time></trkpt><trkpt lat="43.7806267" lon="10.5930883"><ele>23.0</ele><time>2026-04-06T10:26:55.658Z</time></trkpt><trkpt lat="43.7807133" lon="10.59295"><ele>23.0</ele><time>2026-04-06T10:26:56.658Z</time></trkpt><trkpt lat="43.780815" lon="10.592835"><ele>23.0</ele><time>2026-04-06T10:26:57.658Z</time></trkpt><trkpt lat="43.7809283" lon="10.5927283"><ele>23.0</ele><time>2026-04-06T10:26:58.658Z</time></trkpt><trkpt lat="43.7810417" lon="10.592625"><ele>23.0</ele><time>2026-04-06T10:26:59.658Z</time></trkpt><trkpt lat="43.7812667" lon="10.5924283"><ele>23.0</ele><time>2026-04-06T10:27:01.658Z</time></trkpt><trkpt lat="43.7813767" lon="10.59233"><ele>23.0</ele><time>2026-04-06T10:27:02.658Z</time></trkpt><trkpt lat="43.7814883" lon="10.5922283"><ele>23.0</ele><time>2026-04-06T10:27:03.658Z</time></trkpt><trkpt lat="43.7816017" lon="10.59213"><ele>23.0</ele><time>2026-04-06T10:27:04.658Z</time></trkpt><trkpt lat="43.7817167" lon="10.5920283"><ele>23.5</ele><time>2026-04-06T10:27:05.658Z</time></trkpt><trkpt lat="43.7818267" lon="10.591925"><ele>24.0</ele><time>2026-04-06T10:27:06.658Z</time></trkpt><trkpt lat="43.7819333" lon="10.59182"><ele>24.5</ele><time>2026-04-06T10:27:07.659Z</time></trkpt><trkpt lat="43.7820417" lon="10.5917217"><ele>25.0</ele><time>2026-04-06T10:27:08.659Z</time></trkpt><trkpt lat="43.78215" lon="10.5916233"><ele>25.0</ele><time>2026-04-06T10:27:09.658Z</time></trkpt><trkpt lat="43.7822583" lon="10.59152"><ele>25.0</ele><time>2026-04-06T10:27:10.658Z</time></trkpt><trkpt lat="43.7823683" lon="10.59142"><ele>25.0</ele><time>2026-04-06T10:27:11.658Z</time></trkpt><trkpt lat="43.78248" lon="10.5913167"><ele>25.0</ele><time>2026-04-06T10:27:12.658Z</time></trkpt><trkpt lat="43.7825917" lon="10.5912083"><ele>25.0</ele><time>2026-04-06T10:27:13.658Z</time></trkpt><trkpt lat="43.782705" lon="10.5911017"><ele>25.0</ele><time>2026-04-06T10:27:14.658Z</time></trkpt><trkpt lat="43.7828133" lon="10.5909867"><ele>25.0</ele><time>2026-04-06T10:27:15.659Z</time></trkpt><trkpt lat="43.7829183" lon="10.5908667"><ele>25.0</ele><time>2026-04-06T10:27:16.658Z</time></trkpt><trkpt lat="43.78302" lon="10.59074"><ele>25.0</ele><time>2026-04-06T10:27:17.658Z</time></trkpt><trkpt lat="43.7831233" lon="10.5906167"><ele>25.0</ele><time>2026-04-06T10:27:18.658Z</time></trkpt><trkpt lat="43.7832267" lon="10.5904967"><ele>25.0</ele><time>2026-04-06T10:27:19.659Z</time></trkpt><trkpt lat="43.78333" lon="10.5903767"><ele>25.0</ele><time>2026-04-06T10:27:20.658Z</time></trkpt><trkpt lat="43.7834333" lon="10.59025"><ele>25.25</ele><time>2026-04-06T10:27:21.658Z</time></trkpt><trkpt lat="43.78354" lon="10.5901283"><ele>25.5</ele><time>2026-04-06T10:27:22.658Z</time></trkpt><trkpt lat="43.783645" lon="10.590005"><ele>25.75</ele><time>2026-04-06T10:27:23.658Z</time></trkpt><trkpt lat="43.78375" lon="10.58988"><ele>26.0</ele><time>2026-04-06T10:27:24.658Z</time></trkpt><trkpt lat="43.7838533" lon="10.5897617"><ele>26.0</ele><time>2026-04-06T10:27:25.659Z</time></trkpt><trkpt lat="43.783955" lon="10.5896467"><ele>26.0</ele><time>2026-04-06T10:27:26.659Z</time></trkpt><trkpt lat="43.7840517" lon="10.58953"><ele>26.0</ele><time>2026-04-06T10:27:27.658Z</time></trkpt><trkpt lat="43.7841567" lon="10.5894117"><ele>26.0</ele><time>2026-04-06T10:27:28.658Z</time></trkpt><trkpt lat="43.784255" lon="10.5892883"><ele>25.5</ele><time>2026-04-06T10:27:29.658Z</time></trkpt><trkpt lat="43.784355" lon="10.5891683"><ele>25.0</ele><time>2026-04-06T10:27:30.658Z</time></trkpt><trkpt lat="43.7844567" lon="10.5890517"><ele>24.5</ele><time>2026-04-06T10:27:31.658Z</time></trkpt><trkpt lat="43.784555" lon="10.5889383"><ele>24.0</ele><time>2026-04-06T10:27:32.658Z</time></trkpt><trkpt lat="43.784655" lon="10.5888233"><ele>24.0</ele><time>2026-04-06T10:27:33.658Z</time></trkpt><trkpt lat="43.784755" lon="10.58871"><ele>24.0</ele><time>2026-04-06T10:27:34.658Z</time></trkpt><trkpt lat="43.7848533" lon="10.5885933"><ele>24.0</ele><time>2026-04-06T10:27:35.658Z</time></trkpt><trkpt lat="43.7849533" lon="10.588485"><ele>24.0</ele><time>2026-04-06T10:27:36.658Z</time></trkpt><trkpt lat="43.7850467" lon="10.5883933"><ele>24.0</ele><time>2026-04-06T10:27:37.658Z</time></trkpt><trkpt lat="43.78514" lon="10.5883333"><ele>24.0</ele><time>2026-04-06T10:27:38.659Z</time></trkpt><trkpt lat="43.7852317" lon="10.5883217"><ele>24.0</ele><time>2026-04-06T10:27:39.659Z</time></trkpt><trkpt lat="43.78532" lon="10.58834"><ele>24.0</ele><time>2026-04-06T10:27:40.66Z</time></trkpt><trkpt lat="43.7854033" lon="10.5883717"><ele>24.0</ele><time>2026-04-06T10:27:41.659Z</time></trkpt><trkpt lat="43.78549" lon="10.588415"><ele>24.0</ele><time>2026-04-06T10:27:42.659Z</time></trkpt><trkpt lat="43.785575" lon="10.5884617"><ele>24.0</ele><time>2026-04-06T10:27:43.659Z</time></trkpt><trkpt lat="43.7856583" lon="10.5884883"><ele>24.0</ele><time>2026-04-06T10:27:44.66Z</time></trkpt><trkpt lat="43.7857467" lon="10.5884983"><ele>24.0</ele><time>2026-04-06T10:27:45.659Z</time></trkpt><trkpt lat="43.7858317" lon="10.588455"><ele>24.0</ele><time>2026-04-06T10:27:46.659Z</time></trkpt><trkpt lat="43.78591" lon="10.5883833"><ele>24.0</ele><time>2026-04-06T10:27:47.659Z</time></trkpt><trkpt lat="43.785985" lon="10.5882867"><ele>24.0</ele><time>2026-04-06T10:27:48.659Z</time></trkpt><trkpt lat="43.7860633" lon="10.5881767"><ele>24.0</ele><time>2026-04-06T10:27:49.659Z</time></trkpt><trkpt lat="43.7861383" lon="10.58805"><ele>24.0</ele><time>2026-04-06T10:27:50.66Z</time></trkpt><trkpt lat="43.7862183" lon="10.58792"><ele>23.25</ele><time>2026-04-06T10:27:51.66Z</time></trkpt><trkpt lat="43.7863033" lon="10.587785"><ele>22.5</ele><time>2026-04-06T10:27:52.659Z</time></trkpt><trkpt lat="43.786395" lon="10.58765"><ele>21.75</ele><time>2026-04-06T10:27:53.659Z</time></trkpt><trkpt lat="43.786485" lon="10.5875133"><ele>21.0</ele><time>2026-04-06T10:27:54.659Z</time></trkpt><trkpt lat="43.7865783" lon="10.58738"><ele>21.0</ele><time>2026-04-06T10:27:55.659Z</time></trkpt><trkpt lat="43.7866767" lon="10.5872467"><ele>21.0</ele><time>2026-04-06T10:27:56.659Z</time></trkpt><trkpt lat="43.7867783" lon="10.5871117"><ele>21.0</ele><time>2026-04-06T10:27:57.659Z</time></trkpt><trkpt lat="43.78688" lon="10.586975"><ele>21.0</ele><time>2026-04-06T10:27:58.659Z</time></trkpt><trkpt lat="43.7869817" lon="10.5868367"><ele>19.75</ele><time>2026-04-06T10:27:59.659Z</time></trkpt><trkpt lat="43.7870733" lon="10.5866883"><ele>18.5</ele><time>2026-04-06T10:28:00.659Z</time></trkpt><trkpt lat="43.7871567" lon="10.58653"><ele>17.25</ele><time>2026-04-06T10:28:01.66Z</time></trkpt><trkpt lat="43.7872367" lon="10.5863683"><ele>16.0</ele><time>2026-04-06T10:28:02.659Z</time></trkpt><trkpt lat="43.7873167" lon="10.586205"><ele>16.25</ele><time>2026-04-06T10:28:03.659Z</time></trkpt><trkpt lat="43.7874" lon="10.5860483"><ele>16.5</ele><time>2026-04-06T10:28:04.659Z</time></trkpt><trkpt lat="43.7875033" lon="10.5859067"><ele>16.75</ele><time>2026-04-06T10:28:05.659Z</time></trkpt><trkpt lat="43.7876133" lon="10.5857767"><ele>17.0</ele><time>2026-04-06T10:28:06.659Z</time></trkpt><trkpt lat="43.7877283" lon="10.5856667"><ele>17.0</ele><time>2026-04-06T10:28:07.66Z</time></trkpt><trkpt lat="43.7878417" lon="10.5855567"><ele>17.0</ele><time>2026-04-06T10:28:08.659Z</time></trkpt><trkpt lat="43.7879483" lon="10.5854383"><ele>17.0</ele><time>2026-04-06T10:28:09.659Z</time></trkpt><trkpt lat="43.7880433" lon="10.5853083"><ele>17.0</ele><time>2026-04-06T10:28:10.659Z</time></trkpt><trkpt lat="43.7881367" lon="10.585165"><ele>17.5</ele><time>2026-04-06T10:28:11.659Z</time></trkpt><trkpt lat="43.788225" lon="10.5850167"><ele>18.0</ele><time>2026-04-06T10:28:12.66Z</time></trkpt><trkpt lat="43.7883083" lon="10.5848683"><ele>18.5</ele><time>2026-04-06T10:28:13.659Z</time></trkpt><trkpt lat="43.7883917" lon="10.5847167"><ele>19.0</ele><time>2026-04-06T10:28:14.659Z</time></trkpt><trkpt lat="43.788475" lon="10.584565"><ele>18.5</ele><time>2026-04-06T10:28:15.659Z</time></trkpt><trkpt lat="43.78856" lon="10.584415"><ele>18.0</ele><time>2026-04-06T10:28:16.659Z</time></trkpt><trkpt lat="43.7886467" lon="10.5842633"><ele>17.5</ele><time>2026-04-06T10:28:17.659Z</time></trkpt><trkpt lat="43.7887333" lon="10.5841083"><ele>17.0</ele><time>2026-04-06T10:28:18.659Z</time></trkpt><trkpt lat="43.7888217" lon="10.5839467"><ele>17.0</ele><time>2026-04-06T10:28:19.66Z</time></trkpt><trkpt lat="43.78891" lon="10.5837883"><ele>17.0</ele><time>2026-04-06T10:28:20.659Z</time></trkpt><trkpt lat="43.7889983" lon="10.583635"><ele>17.0</ele><time>2026-04-06T10:28:21.659Z</time></trkpt><trkpt lat="43.7890883" lon="10.583485"><ele>17.0</ele><time>2026-04-06T10:28:22.659Z</time></trkpt><trkpt lat="43.7891833" lon="10.5833467"><ele>17.0</ele><time>2026-04-06T10:28:23.659Z</time></trkpt><trkpt lat="43.7892867" lon="10.5832217"><ele>17.0</ele><time>2026-04-06T10:28:24.659Z</time></trkpt><trkpt lat="43.7893983" lon="10.5831083"><ele>17.0</ele><time>2026-04-06T10:28:25.659Z</time></trkpt><trkpt lat="43.7895167" lon="10.5830133"><ele>17.0</ele><time>2026-04-06T10:28:26.66Z</time></trkpt><trkpt lat="43.7896383" lon="10.5829283"><ele>17.75</ele><time>2026-04-06T10:28:27.659Z</time></trkpt><trkpt lat="43.78976" lon="10.5828417"><ele>18.5</ele><time>2026-04-06T10:28:28.659Z</time></trkpt><trkpt lat="43.78988" lon="10.5827483"><ele>19.25</ele><time>2026-04-06T10:28:29.659Z</time></trkpt><trkpt lat="43.7899933" lon="10.582635"><ele>20.0</ele><time>2026-04-06T10:28:30.659Z</time></trkpt><trkpt lat="43.7901" lon="10.5825083"><ele>19.5</ele><time>2026-04-06T10:28:31.659Z</time></trkpt><trkpt lat="43.7902" lon="10.5823667"><ele>19.0</ele><time>2026-04-06T10:28:32.659Z</time></trkpt><trkpt lat="43.7902967" lon="10.5822217"><ele>18.5</ele><time>2026-04-06T10:28:33.659Z</time></trkpt><trkpt lat="43.7903933" lon="10.582075"><ele>18.0</ele><time>2026-04-06T10:28:34.659Z</time></trkpt><trkpt lat="43.7904883" lon="10.581935"><ele>18.0</ele><time>2026-04-06T10:28:35.659Z</time></trkpt><trkpt lat="43.7905833" lon="10.5817917"><ele>18.0</ele><time>2026-04-06T10:28:36.659Z</time></trkpt><trkpt lat="43.7906833" lon="10.58165"><ele>18.0</ele><time>2026-04-06T10:28:37.659Z</time></trkpt><trkpt lat="43.7907817" lon="10.581505"><ele>18.0</ele><time>2026-04-06T10:28:38.659Z</time></trkpt><trkpt lat="43.790875" lon="10.5813533"><ele>18.0</ele><time>2026-04-06T10:28:39.659Z</time></trkpt><trkpt lat="43.7909633" lon="10.5812017"><ele>18.0</ele><time>2026-04-06T10:28:40.659Z</time></trkpt><trkpt lat="43.791045" lon="10.5810483"><ele>18.0</ele><time>2026-04-06T10:28:41.659Z</time></trkpt><trkpt lat="43.79112" lon="10.5808867"><ele>18.0</ele><time>2026-04-06T10:28:42.659Z</time></trkpt><trkpt lat="43.7911883" lon="10.580725"><ele>18.0</ele><time>2026-04-06T10:28:43.659Z</time></trkpt><trkpt lat="43.7912467" lon="10.58055"><ele>18.0</ele><time>2026-04-06T10:28:44.659Z</time></trkpt><trkpt lat="43.7912867" lon="10.5803683"><ele>18.0</ele><time>2026-04-06T10:28:45.66Z</time></trkpt><trkpt lat="43.7913133" lon="10.5801833"><ele>18.0</ele><time>2026-04-06T10:28:46.659Z</time></trkpt><trkpt lat="43.7913417" lon="10.58"><ele>18.0</ele><time>2026-04-06T10:28:47.66Z</time></trkpt><trkpt lat="43.79138" lon="10.57983"><ele>18.0</ele><time>2026-04-06T10:28:48.659Z</time></trkpt><trkpt lat="43.7914367" lon="10.5796717"><ele>18.0</ele><time>2026-04-06T10:28:49.659Z</time></trkpt><trkpt lat="43.79151" lon="10.5795283"><ele>18.0</ele><time>2026-04-06T10:28:50.659Z</time></trkpt><trkpt lat="43.7916017" lon="10.579405"><ele>19.5</ele><time>2026-04-06T10:28:51.659Z</time></trkpt><trkpt lat="43.7917083" lon="10.579295"><ele>21.0</ele><time>2026-04-06T10:28:52.659Z</time></trkpt><trkpt lat="43.791825" lon="10.5792"><ele>22.5</ele><time>2026-04-06T10:28:53.66Z</time></trkpt><trkpt lat="43.7919483" lon="10.5791067"><ele>24.0</ele><time>2026-04-06T10:28:54.659Z</time></trkpt><trkpt lat="43.7920683" lon="10.57902"><ele>24.0</ele><time>2026-04-06T10:28:55.659Z</time></trkpt><trkpt lat="43.7921867" lon="10.57893"><ele>24.0</ele><time>2026-04-06T10:28:56.66Z</time></trkpt><trkpt lat="43.792305" lon="10.5788433"><ele>24.0</ele><time>2026-04-06T10:28:57.66Z</time></trkpt><trkpt lat="43.7924217" lon="10.5787483"><ele>24.0</ele><time>2026-04-06T10:28:58.66Z</time></trkpt><trkpt lat="43.79253" lon="10.5786317"><ele>23.5</ele><time>2026-04-06T10:28:59.66Z</time></trkpt><trkpt lat="43.7926283" lon="10.5785033"><ele>23.0</ele><time>2026-04-06T10:29:00.659Z</time></trkpt><trkpt lat="43.792715" lon="10.578365"><ele>22.5</ele><time>2026-04-06T10:29:01.659Z</time></trkpt><trkpt lat="43.7927883" lon="10.5782217"><ele>22.0</ele><time>2026-04-06T10:29:02.659Z</time></trkpt><trkpt lat="43.792865" lon="10.5780867"><ele>22.0</ele><time>2026-04-06T10:29:03.659Z</time></trkpt><trkpt lat="43.7929433" lon="10.5779767"><ele>22.0</ele><time>2026-04-06T10:29:04.659Z</time></trkpt><trkpt lat="43.7930417" lon="10.5779083"><ele>22.0</ele><time>2026-04-06T10:29:05.659Z</time></trkpt><trkpt lat="43.7931467" lon="10.5778683"><ele>22.0</ele><time>2026-04-06T10:29:06.659Z</time></trkpt><trkpt lat="43.793255" lon="10.5778317"><ele>22.0</ele><time>2026-04-06T10:29:07.659Z</time></trkpt><trkpt lat="43.7933567" lon="10.577785"><ele>22.0</ele><time>2026-04-06T10:29:08.659Z</time></trkpt><trkpt lat="43.7934517" lon="10.5777167"><ele>22.0</ele><time>2026-04-06T10:29:09.659Z</time></trkpt><trkpt lat="43.79354" lon="10.5776367"><ele>22.0</ele><time>2026-04-06T10:29:10.659Z</time></trkpt><trkpt lat="43.7936317" lon="10.5775467"><ele>22.0</ele><time>2026-04-06T10:29:11.659Z</time></trkpt><trkpt lat="43.7937267" lon="10.5774517"><ele>22.0</ele><time>2026-04-06T10:29:12.659Z</time></trkpt><trkpt lat="43.7938267" lon="10.577355"><ele>22.0</ele><time>2026-04-06T10:29:13.659Z</time></trkpt><trkpt lat="43.7939317" lon="10.5772567"><ele>22.0</ele><time>2026-04-06T10:29:14.659Z</time></trkpt><trkpt lat="43.7940367" lon="10.5771533"><ele>22.0</ele><time>2026-04-06T10:29:15.66Z</time></trkpt><trkpt lat="43.7941367" lon="10.5770483"><ele>22.0</ele><time>2026-04-06T10:29:16.659Z</time></trkpt><trkpt lat="43.7942333" lon="10.57694"><ele>22.25</ele><time>2026-04-06T10:29:17.66Z</time></trkpt><trkpt lat="43.794325" lon="10.5768233"><ele>22.5</ele><time>2026-04-06T10:29:18.659Z</time></trkpt><trkpt lat="43.79441" lon="10.5766983"><ele>22.75</ele><time>2026-04-06T10:29:19.659Z</time></trkpt><trkpt lat="43.7944883" lon="10.5765667"><ele>23.0</ele><time>2026-04-06T10:29:20.659Z</time></trkpt><trkpt lat="43.7945583" lon="10.5764233"><ele>23.0</ele><time>2026-04-06T10:29:21.659Z</time></trkpt><trkpt lat="43.7946117" lon="10.5762783"><ele>23.0</ele><time>2026-04-06T10:29:22.659Z</time></trkpt><trkpt lat="43.7946617" lon="10.5761183"><ele>23.0</ele><time>2026-04-06T10:29:23.659Z</time></trkpt><trkpt lat="43.7947133" lon="10.5759533"><ele>23.0</ele><time>2026-04-06T10:29:24.659Z</time></trkpt><trkpt lat="43.7947633" lon="10.5757833"><ele>23.75</ele><time>2026-04-06T10:29:25.659Z</time></trkpt><trkpt lat="43.794815" lon="10.575615"><ele>24.5</ele><time>2026-04-06T10:29:26.66Z</time></trkpt><trkpt lat="43.7948717" lon="10.57544"><ele>25.25</ele><time>2026-04-06T10:29:27.659Z</time></trkpt><trkpt lat="43.794925" lon="10.5752667"><ele>26.0</ele><time>2026-04-06T10:29:28.66Z</time></trkpt><trkpt lat="43.7949783" lon="10.5750917"><ele>27.0</ele><time>2026-04-06T10:29:29.659Z</time></trkpt><trkpt lat="43.7950267" lon="10.5749183"><ele>28.0</ele><time>2026-04-06T10:29:30.659Z</time></trkpt><trkpt lat="43.7950783" lon="10.57475"><ele>29.0</ele><time>2026-04-06T10:29:31.659Z</time></trkpt><trkpt lat="43.7951283" lon="10.574585"><ele>30.0</ele><time>2026-04-06T10:29:32.66Z</time></trkpt><trkpt lat="43.7951817" lon="10.5744183"><ele>30.0</ele><time>2026-04-06T10:29:33.659Z</time></trkpt><trkpt lat="43.79524" lon="10.5742583"><ele>30.0</ele><time>2026-04-06T10:29:34.659Z</time></trkpt><trkpt lat="43.7952983" lon="10.57411"><ele>30.0</ele><time>2026-04-06T10:29:35.659Z</time></trkpt><trkpt lat="43.7953567" lon="10.5739617"><ele>30.0</ele><time>2026-04-06T10:29:36.659Z</time></trkpt><trkpt lat="43.7954167" lon="10.5738133"><ele>31.0</ele><time>2026-04-06T10:29:37.659Z</time></trkpt><trkpt lat="43.79548" lon="10.5736717"><ele>32.0</ele><time>2026-04-06T10:29:38.659Z</time></trkpt><trkpt lat="43.795555" lon="10.57354"><ele>33.0</ele><time>2026-04-06T10:29:39.659Z</time></trkpt><trkpt lat="43.7956417" lon="10.5734233"><ele>34.0</ele><time>2026-04-06T10:29:40.659Z</time></trkpt><trkpt lat="43.7957367" lon="10.5733217"><ele>34.0</ele><time>2026-04-06T10:29:41.659Z</time></trkpt><trkpt lat="43.7958333" lon="10.5732283"><ele>34.0</ele><time>2026-04-06T10:29:42.659Z</time></trkpt><trkpt lat="43.79593" lon="10.5731467"><ele>34.0</ele><time>2026-04-06T10:29:43.66Z</time></trkpt><trkpt lat="43.7960283" lon="10.5730783"><ele>34.0</ele><time>2026-04-06T10:29:44.659Z</time></trkpt><trkpt lat="43.79613" lon="10.5730183"><ele>33.75</ele><time>2026-04-06T10:29:45.659Z</time></trkpt><trkpt lat="43.7962383" lon="10.572965"><ele>33.5</ele><time>2026-04-06T10:29:46.659Z</time></trkpt><trkpt lat="43.79635" lon="10.5729167"><ele>33.25</ele><time>2026-04-06T10:29:47.659Z</time></trkpt><trkpt lat="43.7964567" lon="10.5728633"><ele>33.0</ele><time>2026-04-06T10:29:48.659Z</time></trkpt><trkpt lat="43.796565" lon="10.5728033"><ele>33.0</ele><time>2026-04-06T10:29:49.659Z</time></trkpt><trkpt lat="43.7966733" lon="10.5727417"><ele>33.0</ele><time>2026-04-06T10:29:50.659Z</time></trkpt><trkpt lat="43.7967767" lon="10.5726733"><ele>33.0</ele><time>2026-04-06T10:29:51.659Z</time></trkpt><trkpt lat="43.7968767" lon="10.5726"><ele>33.0</ele><time>2026-04-06T10:29:52.659Z</time></trkpt><trkpt lat="43.7969717" lon="10.5725167"><ele>32.6</ele><time>2026-04-06T10:29:53.659Z</time></trkpt><trkpt lat="43.7970617" lon="10.5724283"><ele>32.199999999999996</ele><time>2026-04-06T10:29:54.659Z</time></trkpt><trkpt lat="43.7971417" lon="10.5723333"><ele>31.8</ele><time>2026-04-06T10:29:55.659Z</time></trkpt><trkpt lat="43.7972183" lon="10.572235"><ele>31.4</ele><time>2026-04-06T10:29:56.66Z</time></trkpt><trkpt lat="43.797295" lon="10.572135"><ele>31.0</ele><time>2026-04-06T10:29:57.659Z</time></trkpt><trkpt lat="43.79737" lon="10.5720383"><ele>30.8</ele><time>2026-04-06T10:29:58.659Z</time></trkpt><trkpt lat="43.7974417" lon="10.5719433"><ele>30.6</ele><time>2026-04-06T10:29:59.66Z</time></trkpt><trkpt lat="43.79751" lon="10.5718483"><ele>30.4</ele><time>2026-04-06T10:30:00.659Z</time></trkpt><trkpt lat="43.7975783" lon="10.571755"><ele>30.2</ele><time>2026-04-06T10:30:01.66Z</time></trkpt><trkpt lat="43.797645" lon="10.5716583"><ele>30.0</ele><time>2026-04-06T10:30:02.66Z</time></trkpt><trkpt lat="43.79771" lon="10.571545"><ele>30.0</ele><time>2026-04-06T10:30:03.659Z</time></trkpt><trkpt lat="43.7977617" lon="10.57142"><ele>30.0</ele><time>2026-04-06T10:30:04.659Z</time></trkpt><trkpt lat="43.7977917" lon="10.5712767"><ele>30.0</ele><time>2026-04-06T10:30:05.659Z</time></trkpt><trkpt lat="43.7978067" lon="10.5711333"><ele>30.0</ele><time>2026-04-06T10:30:06.66Z</time></trkpt><trkpt lat="43.79781" lon="10.5709867"><ele>30.0</ele><time>2026-04-06T10:30:07.659Z</time></trkpt><trkpt lat="43.797815" lon="10.5708433"><ele>30.0</ele><time>2026-04-06T10:30:08.659Z</time></trkpt><trkpt lat="43.7978233" lon="10.570705"><ele>30.0</ele><time>2026-04-06T10:30:09.66Z</time></trkpt><trkpt lat="43.797835" lon="10.5705567"><ele>30.0</ele><time>2026-04-06T10:30:10.659Z</time></trkpt><trkpt lat="43.797855" lon="10.5704117"><ele>30.0</ele><time>2026-04-06T10:30:11.659Z</time></trkpt><trkpt lat="43.79789" lon="10.57026"><ele>30.0</ele><time>2026-04-06T10:30:12.659Z</time></trkpt><trkpt lat="43.797935" lon="10.5701083"><ele>30.0</ele><time>2026-04-06T10:30:13.659Z</time></trkpt><trkpt lat="43.7979833" lon="10.5699567"><ele>30.0</ele><time>2026-04-06T10:30:14.659Z</time></trkpt><trkpt lat="43.7980333" lon="10.5698067"><ele>30.0</ele><time>2026-04-06T10:30:15.659Z</time></trkpt><trkpt lat="43.79808" lon="10.5696617"><ele>30.0</ele><time>2026-04-06T10:30:16.659Z</time></trkpt><trkpt lat="43.7981333" lon="10.5695217"><ele>30.2</ele><time>2026-04-06T10:30:17.659Z</time></trkpt><trkpt lat="43.798195" lon="10.5693983"><ele>30.4</ele><time>2026-04-06T10:30:18.659Z</time></trkpt><trkpt lat="43.7982633" lon="10.569295"><ele>30.6</ele><time>2026-04-06T10:30:19.659Z</time></trkpt><trkpt lat="43.7983483" lon="10.569225"><ele>30.8</ele><time>2026-04-06T10:30:20.659Z</time></trkpt><trkpt lat="43.7984467" lon="10.5691683"><ele>31.0</ele><time>2026-04-06T10:30:21.659Z</time></trkpt><trkpt lat="43.7985517" lon="10.5691333"><ele>30.4</ele><time>2026-04-06T10:30:22.659Z</time></trkpt><trkpt lat="43.7986583" lon="10.56911"><ele>29.8</ele><time>2026-04-06T10:30:23.659Z</time></trkpt><trkpt lat="43.798765" lon="10.5690883"><ele>29.199999999999996</ele><time>2026-04-06T10:30:24.659Z</time></trkpt><trkpt lat="43.7988783" lon="10.5690683"><ele>28.599999999999998</ele><time>2026-04-06T10:30:25.659Z</time></trkpt><trkpt lat="43.7989917" lon="10.56905"><ele>28.0</ele><time>2026-04-06T10:30:26.659Z</time></trkpt><trkpt lat="43.7991033" lon="10.56903"><ele>28.0</ele><time>2026-04-06T10:30:27.659Z</time></trkpt><trkpt lat="43.79921" lon="10.5690017"><ele>27.999999999999996</ele><time>2026-04-06T10:30:28.659Z</time></trkpt><trkpt lat="43.799315" lon="10.568955"><ele>27.999999999999996</ele><time>2026-04-06T10:30:29.659Z</time></trkpt><trkpt lat="43.7994183" lon="10.5688983"><ele>28.0</ele><time>2026-04-06T10:30:30.659Z</time></trkpt><trkpt lat="43.7995233" lon="10.5688317"><ele>28.0</ele><time>2026-04-06T10:30:31.659Z</time></trkpt><trkpt lat="43.7996217" lon="10.5687533"><ele>27.599999999999998</ele><time>2026-04-06T10:30:32.659Z</time></trkpt><trkpt lat="43.7997133" lon="10.56866"><ele>27.199999999999996</ele><time>2026-04-06T10:30:33.659Z</time></trkpt><trkpt lat="43.799795" lon="10.568555"><ele>26.8</ele><time>2026-04-06T10:30:34.66Z</time></trkpt><trkpt lat="43.7998733" lon="10.5684417"><ele>26.4</ele><time>2026-04-06T10:30:35.659Z</time></trkpt><trkpt lat="43.7999467" lon="10.56833"><ele>26.0</ele><time>2026-04-06T10:30:36.659Z</time></trkpt><trkpt lat="43.8000233" lon="10.5682133"><ele>26.0</ele><time>2026-04-06T10:30:37.66Z</time></trkpt><trkpt lat="43.8000967" lon="10.56809"><ele>26.0</ele><time>2026-04-06T10:30:38.659Z</time></trkpt><trkpt lat="43.8001667" lon="10.567965"><ele>26.0</ele><time>2026-04-06T10:30:39.659Z</time></trkpt><trkpt lat="43.8002383" lon="10.5678367"><ele>26.0</ele><time>2026-04-06T10:30:40.659Z</time></trkpt><trkpt lat="43.8003033" lon="10.5677083"><ele>25.4</ele><time>2026-04-06T10:30:41.659Z</time></trkpt><trkpt lat="43.8003617" lon="10.56758"><ele>24.8</ele><time>2026-04-06T10:30:42.659Z</time></trkpt><trkpt lat="43.80041" lon="10.567445"><ele>24.2</ele><time>2026-04-06T10:30:43.659Z</time></trkpt><trkpt lat="43.80045" lon="10.5673117"><ele>23.599999999999998</ele><time>2026-04-06T10:30:44.66Z</time></trkpt><trkpt lat="43.8004833" lon="10.5671783"><ele>23.0</ele><time>2026-04-06T10:30:45.66Z</time></trkpt><trkpt lat="43.800515" lon="10.5670517"><ele>23.0</ele><time>2026-04-06T10:30:46.659Z</time></trkpt><trkpt lat="43.8005517" lon="10.5669267"><ele>23.0</ele><time>2026-04-06T10:30:47.659Z</time></trkpt><trkpt lat="43.8005917" lon="10.56681"><ele>23.0</ele><time>2026-04-06T10:30:48.66Z</time></trkpt><trkpt lat="43.800635" lon="10.5667017"><ele>23.0</ele><time>2026-04-06T10:30:49.659Z</time></trkpt><trkpt lat="43.8007033" lon="10.5666167"><ele>23.0</ele><time>2026-04-06T10:30:50.659Z</time></trkpt><trkpt lat="43.8007867" lon="10.56656"><ele>23.0</ele><time>2026-04-06T10:30:51.659Z</time></trkpt><trkpt lat="43.800885" lon="10.5665183"><ele>23.0</ele><time>2026-04-06T10:30:52.659Z</time></trkpt><trkpt lat="43.8009917" lon="10.5664917"><ele>23.0</ele><time>2026-04-06T10:30:53.659Z</time></trkpt><trkpt lat="43.8011017" lon="10.5664717"><ele>23.0</ele><time>2026-04-06T10:30:54.659Z</time></trkpt><trkpt lat="43.8012117" lon="10.5664567"><ele>23.0</ele><time>2026-04-06T10:30:55.659Z</time></trkpt><trkpt lat="43.8013317" lon="10.56644"><ele>22.5</ele><time>2026-04-06T10:30:56.659Z</time></trkpt><trkpt lat="43.8014517" lon="10.566425"><ele>22.0</ele><time>2026-04-06T10:30:57.659Z</time></trkpt><trkpt lat="43.801575" lon="10.566405"><ele>21.5</ele><time>2026-04-06T10:30:58.659Z</time></trkpt><trkpt lat="43.8016983" lon="10.566385"><ele>21.0</ele><time>2026-04-06T10:30:59.659Z</time></trkpt><trkpt lat="43.80182" lon="10.5663633"><ele>20.75</ele><time>2026-04-06T10:31:00.659Z</time></trkpt><trkpt lat="43.8019483" lon="10.5663467"><ele>20.5</ele><time>2026-04-06T10:31:01.66Z</time></trkpt><trkpt lat="43.8020717" lon="10.5663283"><ele>20.25</ele><time>2026-04-06T10:31:02.659Z</time></trkpt><trkpt lat="43.8021883" lon="10.5663133"><ele>20.0</ele><time>2026-04-06T10:31:03.659Z</time></trkpt><trkpt lat="43.802305" lon="10.5662983"><ele>20.0</ele><time>2026-04-06T10:31:04.659Z</time></trkpt><trkpt lat="43.80242" lon="10.5663033"><ele>20.0</ele><time>2026-04-06T10:31:05.659Z</time></trkpt><trkpt lat="43.80253" lon="10.5663467"><ele>20.0</ele><time>2026-04-06T10:31:06.659Z</time></trkpt><trkpt lat="43.80264" lon="10.566415"><ele>20.0</ele><time>2026-04-06T10:31:07.658Z</time></trkpt><trkpt lat="43.8027517" lon="10.5664933"><ele>20.25</ele><time>2026-04-06T10:31:08.658Z</time></trkpt><trkpt lat="43.802865" lon="10.5665733"><ele>20.5</ele><time>2026-04-06T10:31:09.658Z</time></trkpt><trkpt lat="43.802975" lon="10.5666533"><ele>20.75</ele><time>2026-04-06T10:31:10.658Z</time></trkpt><trkpt lat="43.8030917" lon="10.566725"><ele>21.0</ele><time>2026-04-06T10:31:11.658Z</time></trkpt><trkpt lat="43.80321" lon="10.566775"><ele>21.0</ele><time>2026-04-06T10:31:12.658Z</time></trkpt><trkpt lat="43.803335" lon="10.5667967"><ele>21.0</ele><time>2026-04-06T10:31:13.658Z</time></trkpt><trkpt lat="43.8034667" lon="10.5667767"><ele>21.0</ele><time>2026-04-06T10:31:14.658Z</time></trkpt><trkpt lat="43.803595" lon="10.5667383"><ele>21.0</ele><time>2026-04-06T10:31:15.658Z</time></trkpt><trkpt lat="43.8037133" lon="10.5666967"><ele>20.75</ele><time>2026-04-06T10:31:16.659Z</time></trkpt><trkpt lat="43.8038417" lon="10.5666417"><ele>20.5</ele><time>2026-04-06T10:31:17.658Z</time></trkpt><trkpt lat="43.8039733" lon="10.5665867"><ele>20.25</ele><time>2026-04-06T10:31:18.658Z</time></trkpt><trkpt lat="43.8041033" lon="10.5665317"><ele>20.0</ele><time>2026-04-06T10:31:19.658Z</time></trkpt><trkpt lat="43.8042383" lon="10.5664717"><ele>20.0</ele><time>2026-04-06T10:31:20.658Z</time></trkpt><trkpt lat="43.8043717" lon="10.5664133"><ele>20.0</ele><time>2026-04-06T10:31:21.658Z</time></trkpt><trkpt lat="43.8045033" lon="10.5663583"><ele>20.0</ele><time>2026-04-06T10:31:22.658Z</time></trkpt><trkpt lat="43.8046333" lon="10.566305"><ele>20.0</ele><time>2026-04-06T10:31:23.658Z</time></trkpt><trkpt lat="43.8047633" lon="10.5662533"><ele>20.0</ele><time>2026-04-06T10:31:24.659Z</time></trkpt><trkpt lat="43.8048917" lon="10.5662017"><ele>20.0</ele><time>2026-04-06T10:31:25.659Z</time></trkpt><trkpt lat="43.8050133" lon="10.5661333"><ele>20.0</ele><time>2026-04-06T10:31:26.658Z</time></trkpt><trkpt lat="43.805135" lon="10.5660617"><ele>20.0</ele><time>2026-04-06T10:31:27.658Z</time></trkpt><trkpt lat="43.8052567" lon="10.5659933"><ele>19.75</ele><time>2026-04-06T10:31:28.658Z</time></trkpt><trkpt lat="43.8053783" lon="10.565935"><ele>19.5</ele><time>2026-04-06T10:31:29.658Z</time></trkpt><trkpt lat="43.8055033" lon="10.56589"><ele>19.25</ele><time>2026-04-06T10:31:30.658Z</time></trkpt><trkpt lat="43.8056333" lon="10.5658583"><ele>19.0</ele><time>2026-04-06T10:31:31.658Z</time></trkpt><trkpt lat="43.805765" lon="10.56585"><ele>19.0</ele><time>2026-04-06T10:31:32.658Z</time></trkpt><trkpt lat="43.8058983" lon="10.5658583"><ele>19.0</ele><time>2026-04-06T10:31:33.658Z</time></trkpt><trkpt lat="43.8060267" lon="10.5658917"><ele>19.0</ele><time>2026-04-06T10:31:34.658Z</time></trkpt><trkpt lat="43.806155" lon="10.56594"><ele>19.0</ele><time>2026-04-06T10:31:35.658Z</time></trkpt><trkpt lat="43.8062783" lon="10.5659933"><ele>18.75</ele><time>2026-04-06T10:31:36.658Z</time></trkpt><trkpt lat="43.8064" lon="10.5660433"><ele>18.5</ele><time>2026-04-06T10:31:37.658Z</time></trkpt><trkpt lat="43.8065283" lon="10.5660633"><ele>18.25</ele><time>2026-04-06T10:31:38.658Z</time></trkpt><trkpt lat="43.8066633" lon="10.566065"><ele>18.0</ele><time>2026-04-06T10:31:39.658Z</time></trkpt><trkpt lat="43.806795" lon="10.5660417"><ele>17.75</ele><time>2026-04-06T10:31:40.658Z</time></trkpt><trkpt lat="43.8069233" lon="10.566"><ele>17.5</ele><time>2026-04-06T10:31:41.658Z</time></trkpt><trkpt lat="43.8070533" lon="10.5659533"><ele>17.25</ele><time>2026-04-06T10:31:42.658Z</time></trkpt><trkpt lat="43.8071817" lon="10.56591"><ele>17.0</ele><time>2026-04-06T10:31:43.658Z</time></trkpt><trkpt lat="43.8073067" lon="10.565875"><ele>17.0</ele><time>2026-04-06T10:31:44.658Z</time></trkpt><trkpt lat="43.8074333" lon="10.5658633"><ele>17.0</ele><time>2026-04-06T10:31:45.658Z</time></trkpt><trkpt lat="43.8075583" lon="10.5658767"><ele>17.0</ele><time>2026-04-06T10:31:46.658Z</time></trkpt><trkpt lat="43.8076783" lon="10.5659317"><ele>17.0</ele><time>2026-04-06T10:31:47.659Z</time></trkpt><trkpt lat="43.80779" lon="10.5660117"><ele>16.75</ele><time>2026-04-06T10:31:48.658Z</time></trkpt><trkpt lat="43.807905" lon="10.566095"><ele>16.5</ele><time>2026-04-06T10:31:49.658Z</time></trkpt><trkpt lat="43.8080283" lon="10.5661533"><ele>16.25</ele><time>2026-04-06T10:31:50.658Z</time></trkpt><trkpt lat="43.8081583" lon="10.5661717"><ele>16.0</ele><time>2026-04-06T10:31:51.658Z</time></trkpt><trkpt lat="43.8082883" lon="10.5661483"><ele>16.0</ele><time>2026-04-06T10:31:52.658Z</time></trkpt><trkpt lat="43.8084117" lon="10.5660933"><ele>16.0</ele><time>2026-04-06T10:31:53.658Z</time></trkpt><trkpt lat="43.8085367" lon="10.5660117"><ele>16.0</ele><time>2026-04-06T10:31:54.659Z</time></trkpt><trkpt lat="43.808655" lon="10.56592"><ele>16.0</ele><time>2026-04-06T10:31:55.658Z</time></trkpt><trkpt lat="43.80877" lon="10.56582"><ele>16.0</ele><time>2026-04-06T10:31:56.658Z</time></trkpt><trkpt lat="43.8088833" lon="10.5657183"><ele>16.0</ele><time>2026-04-06T10:31:57.658Z</time></trkpt><trkpt lat="43.8089983" lon="10.5656167"><ele>16.0</ele><time>2026-04-06T10:31:58.658Z</time></trkpt><trkpt lat="43.809115" lon="10.5655067"><ele>16.0</ele><time>2026-04-06T10:31:59.658Z</time></trkpt><trkpt lat="43.8092317" lon="10.5654017"><ele>15.5</ele><time>2026-04-06T10:32:00.658Z</time></trkpt><trkpt lat="43.8093483" lon="10.5652967"><ele>15.0</ele><time>2026-04-06T10:32:01.659Z</time></trkpt><trkpt lat="43.8094683" lon="10.5651983"><ele>14.5</ele><time>2026-04-06T10:32:02.658Z</time></trkpt><trkpt lat="43.8095983" lon="10.5651167"><ele>14.0</ele><time>2026-04-06T10:32:03.658Z</time></trkpt><trkpt lat="43.80973" lon="10.56505"><ele>14.0</ele><time>2026-04-06T10:32:04.658Z</time></trkpt><trkpt lat="43.80986" lon="10.5649933"><ele>14.0</ele><time>2026-04-06T10:32:05.658Z</time></trkpt><trkpt lat="43.8099917" lon="10.5649483"><ele>14.0</ele><time>2026-04-06T10:32:06.658Z</time></trkpt><trkpt lat="43.8101267" lon="10.564905"><ele>14.0</ele><time>2026-04-06T10:32:07.658Z</time></trkpt><trkpt lat="43.8102617" lon="10.5648617"><ele>15.25</ele><time>2026-04-06T10:32:08.658Z</time></trkpt><trkpt lat="43.8103967" lon="10.56482"><ele>16.5</ele><time>2026-04-06T10:32:09.658Z</time></trkpt><trkpt lat="43.810535" lon="10.5647833"><ele>17.75</ele><time>2026-04-06T10:32:10.658Z</time></trkpt><trkpt lat="43.8106717" lon="10.56475"><ele>19.0</ele><time>2026-04-06T10:32:11.658Z</time></trkpt><trkpt lat="43.8108067" lon="10.56472"><ele>19.0</ele><time>2026-04-06T10:32:12.658Z</time></trkpt><trkpt lat="43.8109433" lon="10.5646867"><ele>19.0</ele><time>2026-04-06T10:32:13.658Z</time></trkpt><trkpt lat="43.811075" lon="10.5646533"><ele>19.0</ele><time>2026-04-06T10:32:14.658Z</time></trkpt><trkpt lat="43.8112" lon="10.5645983"><ele>19.0</ele><time>2026-04-06T10:32:15.658Z</time></trkpt><trkpt lat="43.8113183" lon="10.5645367"><ele>19.25</ele><time>2026-04-06T10:32:16.658Z</time></trkpt><trkpt lat="43.8114383" lon="10.5645"><ele>19.5</ele><time>2026-04-06T10:32:17.658Z</time></trkpt><trkpt lat="43.8115667" lon="10.5644867"><ele>19.75</ele><time>2026-04-06T10:32:18.658Z</time></trkpt><trkpt lat="43.8117017" lon="10.56447"><ele>20.0</ele><time>2026-04-06T10:32:19.658Z</time></trkpt><trkpt lat="43.81184" lon="10.564425"><ele>20.0</ele><time>2026-04-06T10:32:20.658Z</time></trkpt><trkpt lat="43.811975" lon="10.5643667"><ele>20.0</ele><time>2026-04-06T10:32:21.658Z</time></trkpt><trkpt lat="43.8121117" lon="10.5642967"><ele>20.0</ele><time>2026-04-06T10:32:22.658Z</time></trkpt><trkpt lat="43.8122433" lon="10.5642283"><ele>20.0</ele><time>2026-04-06T10:32:23.658Z</time></trkpt><trkpt lat="43.8123783" lon="10.5641667"><ele>20.0</ele><time>2026-04-06T10:32:24.658Z</time></trkpt><trkpt lat="43.812515" lon="10.56411"><ele>20.0</ele><time>2026-04-06T10:32:25.658Z</time></trkpt><trkpt lat="43.8126533" lon="10.5640667"><ele>20.0</ele><time>2026-04-06T10:32:26.658Z</time></trkpt><trkpt lat="43.8127967" lon="10.56404"><ele>20.0</ele><time>2026-04-06T10:32:27.658Z</time></trkpt><trkpt lat="43.8129333" lon="10.5640133"><ele>19.5</ele><time>2026-04-06T10:32:28.658Z</time></trkpt><trkpt lat="43.8130717" lon="10.5639967"><ele>19.0</ele><time>2026-04-06T10:32:29.658Z</time></trkpt><trkpt lat="43.8132133" lon="10.5639767"><ele>18.5</ele><time>2026-04-06T10:32:30.658Z</time></trkpt><trkpt lat="43.8133383" lon="10.5639483"><ele>18.0</ele><time>2026-04-06T10:32:31.658Z</time></trkpt><trkpt lat="43.8134583" lon="10.5639083"><ele>17.8</ele><time>2026-04-06T10:32:32.658Z</time></trkpt><trkpt lat="43.813565" lon="10.5638417"><ele>17.6</ele><time>2026-04-06T10:32:33.658Z</time></trkpt><trkpt lat="43.8136583" lon="10.56375"><ele>17.4</ele><time>2026-04-06T10:32:34.658Z</time></trkpt><trkpt lat="43.8137333" lon="10.563645"><ele>17.2</ele><time>2026-04-06T10:32:35.658Z</time></trkpt><trkpt lat="43.813795" lon="10.5635267"><ele>17.0</ele><time>2026-04-06T10:32:36.658Z</time></trkpt><trkpt lat="43.8138633" lon="10.5633883"><ele>15.75</ele><time>2026-04-06T10:32:37.658Z</time></trkpt><trkpt lat="43.813945" lon="10.563245"><ele>14.5</ele><time>2026-04-06T10:32:38.658Z</time></trkpt><trkpt lat="43.81403" lon="10.5631133"><ele>13.25</ele><time>2026-04-06T10:32:39.659Z</time></trkpt><trkpt lat="43.8141217" lon="10.5629917"><ele>12.0</ele><time>2026-04-06T10:32:40.658Z</time></trkpt><trkpt lat="43.8142267" lon="10.56287"><ele>12.0</ele><time>2026-04-06T10:32:41.658Z</time></trkpt><trkpt lat="43.8143317" lon="10.5627517"><ele>12.0</ele><time>2026-04-06T10:32:42.658Z</time></trkpt><trkpt lat="43.8144367" lon="10.562635"><ele>12.0</ele><time>2026-04-06T10:32:43.658Z</time></trkpt><trkpt lat="43.8145433" lon="10.56252"><ele>12.0</ele><time>2026-04-06T10:32:44.658Z</time></trkpt><trkpt lat="43.8146467" lon="10.5624017"><ele>12.0</ele><time>2026-04-06T10:32:45.658Z</time></trkpt><trkpt lat="43.8147533" lon="10.562285"><ele>12.0</ele><time>2026-04-06T10:32:46.659Z</time></trkpt><trkpt lat="43.81486" lon="10.56217"><ele>12.0</ele><time>2026-04-06T10:32:47.658Z</time></trkpt><trkpt lat="43.8149667" lon="10.562065"><ele>12.0</ele><time>2026-04-06T10:32:48.658Z</time></trkpt><trkpt lat="43.8150783" lon="10.5619667"><ele>12.5</ele><time>2026-04-06T10:32:49.658Z</time></trkpt><trkpt lat="43.8151967" lon="10.561875"><ele>13.0</ele><time>2026-04-06T10:32:50.658Z</time></trkpt><trkpt lat="43.815315" lon="10.56179"><ele>13.5</ele><time>2026-04-06T10:32:51.658Z</time></trkpt><trkpt lat="43.815435" lon="10.5617033"><ele>14.0</ele><time>2026-04-06T10:32:52.658Z</time></trkpt><trkpt lat="43.815555" lon="10.5616167"><ele>14.0</ele><time>2026-04-06T10:32:53.659Z</time></trkpt><trkpt lat="43.8156733" lon="10.561525"><ele>14.0</ele><time>2026-04-06T10:32:54.658Z</time></trkpt><trkpt lat="43.8157883" lon="10.56144"><ele>14.0</ele><time>2026-04-06T10:32:55.658Z</time></trkpt><trkpt lat="43.815905" lon="10.5613567"><ele>14.0</ele><time>2026-04-06T10:32:56.658Z</time></trkpt><trkpt lat="43.8160217" lon="10.561275"><ele>13.25</ele><time>2026-04-06T10:32:57.658Z</time></trkpt><trkpt lat="43.8161383" lon="10.5611917"><ele>12.5</ele><time>2026-04-06T10:32:58.658Z</time></trkpt><trkpt lat="43.816245" lon="10.5610983"><ele>11.75</ele><time>2026-04-06T10:32:59.658Z</time></trkpt><trkpt lat="43.8163617" lon="10.5610133"><ele>11.0</ele><time>2026-04-06T10:33:00.658Z</time></trkpt><trkpt lat="43.816485" lon="10.5609433"><ele>11.0</ele><time>2026-04-06T10:33:01.659Z</time></trkpt><trkpt lat="43.8166133" lon="10.5608817"><ele>11.0</ele><time>2026-04-06T10:33:02.658Z</time></trkpt><trkpt lat="43.81675" lon="10.5608233"><ele>11.0</ele><time>2026-04-06T10:33:03.658Z</time></trkpt><trkpt lat="43.816885" lon="10.56077"><ele>11.0</ele><time>2026-04-06T10:33:04.659Z</time></trkpt><trkpt lat="43.8170233" lon="10.5607167"><ele>11.25</ele><time>2026-04-06T10:33:05.658Z</time></trkpt><trkpt lat="43.81716" lon="10.5606633"><ele>11.5</ele><time>2026-04-06T10:33:06.658Z</time></trkpt><trkpt lat="43.817295" lon="10.5606133"><ele>11.75</ele><time>2026-04-06T10:33:07.658Z</time></trkpt><trkpt lat="43.8174367" lon="10.5605667"><ele>12.0</ele><time>2026-04-06T10:33:08.658Z</time></trkpt><trkpt lat="43.8175783" lon="10.5605233"><ele>11.5</ele><time>2026-04-06T10:33:09.658Z</time></trkpt><trkpt lat="43.8177183" lon="10.5604783"><ele>11.0</ele><time>2026-04-06T10:33:10.658Z</time></trkpt><trkpt lat="43.8178567" lon="10.5604333"><ele>10.5</ele><time>2026-04-06T10:33:11.659Z</time></trkpt><trkpt lat="43.8179917" lon="10.5603833"><ele>10.0</ele><time>2026-04-06T10:33:12.658Z</time></trkpt><trkpt lat="43.818125" lon="10.560315"><ele>10.0</ele><time>2026-04-06T10:33:13.658Z</time></trkpt><trkpt lat="43.8182567" lon="10.560235"><ele>10.0</ele><time>2026-04-06T10:33:14.658Z</time></trkpt><trkpt lat="43.8183883" lon="10.5601483"><ele>10.0</ele><time>2026-04-06T10:33:15.658Z</time></trkpt><trkpt lat="43.8185117" lon="10.5600583"><ele>10.0</ele><time>2026-04-06T10:33:16.658Z</time></trkpt><trkpt lat="43.8186317" lon="10.5599517"><ele>10.25</ele><time>2026-04-06T10:33:17.658Z</time></trkpt><trkpt lat="43.8187367" lon="10.55982"><ele>10.5</ele><time>2026-04-06T10:33:18.658Z</time></trkpt><trkpt lat="43.8188317" lon="10.5596733"><ele>10.75</ele><time>2026-04-06T10:33:19.658Z</time></trkpt><trkpt lat="43.8189233" lon="10.5595317"><ele>11.0</ele><time>2026-04-06T10:33:20.658Z</time></trkpt><trkpt lat="43.819025" lon="10.5594033"><ele>11.0</ele><time>2026-04-06T10:33:21.658Z</time></trkpt><trkpt lat="43.819135" lon="10.55931"><ele>11.0</ele><time>2026-04-06T10:33:22.658Z</time></trkpt><trkpt lat="43.8192483" lon="10.559235"><ele>11.0</ele><time>2026-04-06T10:33:23.658Z</time></trkpt><trkpt lat="43.8193817" lon="10.5591933"><ele>11.0</ele><time>2026-04-06T10:33:24.658Z</time></trkpt><trkpt lat="43.8195183" lon="10.5591633"><ele>11.0</ele><time>2026-04-06T10:33:25.658Z</time></trkpt><trkpt lat="43.8196583" lon="10.5591317"><ele>11.0</ele><time>2026-04-06T10:33:26.658Z</time></trkpt><trkpt lat="43.8197967" lon="10.5590733"><ele>11.0</ele><time>2026-04-06T10:33:27.658Z</time></trkpt><trkpt lat="43.8199317" lon="10.5589933"><ele>11.0</ele><time>2026-04-06T10:33:28.658Z</time></trkpt><trkpt lat="43.8200633" lon="10.5589"><ele>11.0</ele><time>2026-04-06T10:33:29.658Z</time></trkpt><trkpt lat="43.8201933" lon="10.5588"><ele>11.0</ele><time>2026-04-06T10:33:30.658Z</time></trkpt><trkpt lat="43.820325" lon="10.5587017"><ele>11.0</ele><time>2026-04-06T10:33:31.658Z</time></trkpt><trkpt lat="43.8204533" lon="10.5586017"><ele>11.0</ele><time>2026-04-06T10:33:32.658Z</time></trkpt><trkpt lat="43.82058" lon="10.5585017"><ele>11.0</ele><time>2026-04-06T10:33:33.658Z</time></trkpt><trkpt lat="43.8207033" lon="10.5584033"><ele>11.0</ele><time>2026-04-06T10:33:34.658Z</time></trkpt><trkpt lat="43.8208267" lon="10.5583067"><ele>11.0</ele><time>2026-04-06T10:33:35.658Z</time></trkpt><trkpt lat="43.8209483" lon="10.5582033"><ele>11.0</ele><time>2026-04-06T10:33:36.659Z</time></trkpt><trkpt lat="43.8210667" lon="10.558095"><ele>11.25</ele><time>2026-04-06T10:33:37.658Z</time></trkpt><trkpt lat="43.8211867" lon="10.55799"><ele>11.5</ele><time>2026-04-06T10:33:38.658Z</time></trkpt><trkpt lat="43.82131" lon="10.5578867"><ele>11.75</ele><time>2026-04-06T10:33:39.659Z</time></trkpt><trkpt lat="43.821435" lon="10.5577917"><ele>12.0</ele><time>2026-04-06T10:33:40.658Z</time></trkpt><trkpt lat="43.8215633" lon="10.5576967"><ele>12.0</ele><time>2026-04-06T10:33:41.658Z</time></trkpt><trkpt lat="43.8216917" lon="10.5575983"><ele>12.0</ele><time>2026-04-06T10:33:42.658Z</time></trkpt><trkpt lat="43.8218183" lon="10.5575067"><ele>12.0</ele><time>2026-04-06T10:33:43.658Z</time></trkpt><trkpt lat="43.821945" lon="10.557415"><ele>12.0</ele><time>2026-04-06T10:33:44.658Z</time></trkpt><trkpt lat="43.82207" lon="10.55732"><ele>12.0</ele><time>2026-04-06T10:33:45.658Z</time></trkpt><trkpt lat="43.8221917" lon="10.5572233"><ele>12.0</ele><time>2026-04-06T10:33:46.658Z</time></trkpt><trkpt lat="43.8223117" lon="10.55712"><ele>12.0</ele><time>2026-04-06T10:33:47.658Z</time></trkpt><trkpt lat="43.8224267" lon="10.55701"><ele>12.0</ele><time>2026-04-06T10:33:48.658Z</time></trkpt><trkpt lat="43.8225333" lon="10.5568817"><ele>12.0</ele><time>2026-04-06T10:33:49.659Z</time></trkpt><trkpt lat="43.822635" lon="10.5567417"><ele>12.0</ele><time>2026-04-06T10:33:50.658Z</time></trkpt><trkpt lat="43.8227317" lon="10.5566017"><ele>12.0</ele><time>2026-04-06T10:33:51.658Z</time></trkpt><trkpt lat="43.822825" lon="10.556455"><ele>12.0</ele><time>2026-04-06T10:33:52.658Z</time></trkpt><trkpt lat="43.8229233" lon="10.5563183"><ele>12.25</ele><time>2026-04-06T10:33:53.658Z</time></trkpt><trkpt lat="43.8230267" lon="10.5561933"><ele>12.5</ele><time>2026-04-06T10:33:54.658Z</time></trkpt><trkpt lat="43.8231417" lon="10.5560867"><ele>12.75</ele><time>2026-04-06T10:33:55.658Z</time></trkpt><trkpt lat="43.8232617" lon="10.555995"><ele>13.0</ele><time>2026-04-06T10:33:56.658Z</time></trkpt><trkpt lat="43.8233867" lon="10.5559167"><ele>13.25</ele><time>2026-04-06T10:33:57.658Z</time></trkpt><trkpt lat="43.82351" lon="10.5558433"><ele>13.5</ele><time>2026-04-06T10:33:58.658Z</time></trkpt><trkpt lat="43.8236333" lon="10.5557733"><ele>13.75</ele><time>2026-04-06T10:33:59.659Z</time></trkpt><trkpt lat="43.8237583" lon="10.5557067"><ele>14.0</ele><time>2026-04-06T10:34:00.658Z</time></trkpt><trkpt lat="43.823875" lon="10.5556383"><ele>14.0</ele><time>2026-04-06T10:34:01.658Z</time></trkpt><trkpt lat="43.8239867" lon="10.5555767"><ele>14.0</ele><time>2026-04-06T10:34:02.658Z</time></trkpt><trkpt lat="43.8240983" lon="10.5555167"><ele>14.0</ele><time>2026-04-06T10:34:03.658Z</time></trkpt><trkpt lat="43.824215" lon="10.5554617"><ele>14.0</ele><time>2026-04-06T10:34:04.658Z</time></trkpt><trkpt lat="43.824335" lon="10.5554167"><ele>14.0</ele><time>2026-04-06T10:34:05.658Z</time></trkpt><trkpt lat="43.824455" lon="10.5553767"><ele>14.0</ele><time>2026-04-06T10:34:06.658Z</time></trkpt><trkpt lat="43.8245733" lon="10.5553433"><ele>14.0</ele><time>2026-04-06T10:34:07.658Z</time></trkpt><trkpt lat="43.82469" lon="10.5553167"><ele>14.0</ele><time>2026-04-06T10:34:08.658Z</time></trkpt><trkpt lat="43.8248083" lon="10.5552983"><ele>14.0</ele><time>2026-04-06T10:34:09.658Z</time></trkpt><trkpt lat="43.8249283" lon="10.55529"><ele>14.0</ele><time>2026-04-06T10:34:10.658Z</time></trkpt><trkpt lat="43.8250433" lon="10.555285"><ele>14.0</ele><time>2026-04-06T10:34:11.658Z</time></trkpt><trkpt lat="43.8251583" lon="10.555285"><ele>14.0</ele><time>2026-04-06T10:34:12.659Z</time></trkpt><trkpt lat="43.825275" lon="10.55528"><ele>14.0</ele><time>2026-04-06T10:34:13.658Z</time></trkpt><trkpt lat="43.82539" lon="10.5552833"><ele>14.0</ele><time>2026-04-06T10:34:14.658Z</time></trkpt><trkpt lat="43.8255083" lon="10.555285"><ele>14.0</ele><time>2026-04-06T10:34:15.658Z</time></trkpt><trkpt lat="43.825625" lon="10.5552867"><ele>14.0</ele><time>2026-04-06T10:34:16.658Z</time></trkpt><trkpt lat="43.8257417" lon="10.55529"><ele>14.0</ele><time>2026-04-06T10:34:17.658Z</time></trkpt><trkpt lat="43.825855" lon="10.5552733"><ele>14.0</ele><time>2026-04-06T10:34:18.658Z</time></trkpt><trkpt lat="43.825965" lon="10.5552333"><ele>14.0</ele><time>2026-04-06T10:34:19.658Z</time></trkpt><trkpt lat="43.82607" lon="10.555165"><ele>14.0</ele><time>2026-04-06T10:34:20.658Z</time></trkpt><trkpt lat="43.82617" lon="10.55506"><ele>14.25</ele><time>2026-04-06T10:34:21.658Z</time></trkpt><trkpt lat="43.8262683" lon="10.554935"><ele>14.5</ele><time>2026-04-06T10:34:22.658Z</time></trkpt><trkpt lat="43.8263633" lon="10.5548083"><ele>14.75</ele><time>2026-04-06T10:34:23.658Z</time></trkpt><trkpt lat="43.82647" lon="10.5546933"><ele>15.0</ele><time>2026-04-06T10:34:24.658Z</time></trkpt><trkpt lat="43.8265733" lon="10.5545833"><ele>14.5</ele><time>2026-04-06T10:34:25.658Z</time></trkpt><trkpt lat="43.8266817" lon="10.554485"><ele>14.0</ele><time>2026-04-06T10:34:26.658Z</time></trkpt><trkpt lat="43.8268033" lon="10.55441"><ele>13.5</ele><time>2026-04-06T10:34:27.658Z</time></trkpt><trkpt lat="43.8269317" lon="10.5543683"><ele>13.0</ele><time>2026-04-06T10:34:28.658Z</time></trkpt><trkpt lat="43.8270683" lon="10.5543617"><ele>12.75</ele><time>2026-04-06T10:34:29.658Z</time></trkpt><trkpt lat="43.8272083" lon="10.554375"><ele>12.5</ele><time>2026-04-06T10:34:30.658Z</time></trkpt><trkpt lat="43.827345" lon="10.5543983"><ele>12.25</ele><time>2026-04-06T10:34:31.659Z</time></trkpt><trkpt lat="43.8274833" lon="10.5544217"><ele>12.0</ele><time>2026-04-06T10:34:32.658Z</time></trkpt><trkpt lat="43.8276217" lon="10.5544467"><ele>12.0</ele><time>2026-04-06T10:34:33.659Z</time></trkpt><trkpt lat="43.8277583" lon="10.5544717"><ele>12.0</ele><time>2026-04-06T10:34:34.658Z</time></trkpt><trkpt lat="43.8279" lon="10.5544983"><ele>12.0</ele><time>2026-04-06T10:34:35.658Z</time></trkpt><trkpt lat="43.8280433" lon="10.5545317"><ele>12.0</ele><time>2026-04-06T10:34:36.658Z</time></trkpt><trkpt lat="43.8281833" lon="10.5545783"><ele>12.0</ele><time>2026-04-06T10:34:37.658Z</time></trkpt><trkpt lat="43.8283183" lon="10.5546467"><ele>12.0</ele><time>2026-04-06T10:34:38.658Z</time></trkpt><trkpt lat="43.8284533" lon="10.554735"><ele>12.0</ele><time>2026-04-06T10:34:39.658Z</time></trkpt><trkpt lat="43.8285733" lon="10.5548467"><ele>12.0</ele><time>2026-04-06T10:34:40.658Z</time></trkpt><trkpt lat="43.82869" lon="10.5549817"><ele>12.0</ele><time>2026-04-06T10:34:41.659Z</time></trkpt><trkpt lat="43.8288033" lon="10.55513"><ele>12.0</ele><time>2026-04-06T10:34:42.658Z</time></trkpt><trkpt lat="43.8289167" lon="10.5552733"><ele>12.0</ele><time>2026-04-06T10:34:43.658Z</time></trkpt><trkpt lat="43.829025" lon="10.555425"><ele>12.666666666666668</ele><time>2026-04-06T10:34:44.659Z</time></trkpt><trkpt lat="43.8291433" lon="10.55557"><ele>13.333333333333334</ele><time>2026-04-06T10:34:45.658Z</time></trkpt><trkpt lat="43.8292717" lon="10.5556933"><ele>14.0</ele><time>2026-04-06T10:34:46.658Z</time></trkpt><trkpt lat="43.82941" lon="10.5557717"><ele>14.0</ele><time>2026-04-06T10:34:47.658Z</time></trkpt><trkpt lat="43.829555" lon="10.555815"><ele>14.0</ele><time>2026-04-06T10:34:48.658Z</time></trkpt><trkpt lat="43.8296967" lon="10.5558267"><ele>14.0</ele><time>2026-04-06T10:34:49.658Z</time></trkpt><trkpt lat="43.8298383" lon="10.55583"><ele>14.0</ele><time>2026-04-06T10:34:50.658Z</time></trkpt><trkpt lat="43.829975" lon="10.5558317"><ele>14.0</ele><time>2026-04-06T10:34:51.658Z</time></trkpt><trkpt lat="43.8301117" lon="10.555835"><ele>14.0</ele><time>2026-04-06T10:34:52.658Z</time></trkpt><trkpt lat="43.8302467" lon="10.5558433"><ele>14.0</ele><time>2026-04-06T10:34:53.658Z</time></trkpt><trkpt lat="43.83038" lon="10.55586"><ele>14.0</ele><time>2026-04-06T10:34:54.658Z</time></trkpt><trkpt lat="43.8305117" lon="10.5558783"><ele>14.25</ele><time>2026-04-06T10:34:55.658Z</time></trkpt><trkpt lat="43.8306367" lon="10.5558867"><ele>14.5</ele><time>2026-04-06T10:34:56.658Z</time></trkpt><trkpt lat="43.83076" lon="10.5558933"><ele>14.75</ele><time>2026-04-06T10:34:57.659Z</time></trkpt><trkpt lat="43.830885" lon="10.5559"><ele>15.0</ele><time>2026-04-06T10:34:58.659Z</time></trkpt><trkpt lat="43.83101" lon="10.55591"><ele>15.5</ele><time>2026-04-06T10:34:59.658Z</time></trkpt><trkpt lat="43.83114" lon="10.5559217"><ele>16.0</ele><time>2026-04-06T10:35:00.658Z</time></trkpt><trkpt lat="43.8312667" lon="10.5559333"><ele>16.5</ele><time>2026-04-06T10:35:01.658Z</time></trkpt><trkpt lat="43.83139" lon="10.555945"><ele>17.0</ele><time>2026-04-06T10:35:02.658Z</time></trkpt><trkpt lat="43.831515" lon="10.5559617"><ele>17.0</ele><time>2026-04-06T10:35:03.658Z</time></trkpt><trkpt lat="43.8316467" lon="10.5559783"><ele>17.0</ele><time>2026-04-06T10:35:04.658Z</time></trkpt><trkpt lat="43.8317783" lon="10.5559917"><ele>17.0</ele><time>2026-04-06T10:35:05.658Z</time></trkpt><trkpt lat="43.8319133" lon="10.556"><ele>17.0</ele><time>2026-04-06T10:35:06.658Z</time></trkpt><trkpt lat="43.83205" lon="10.55601"><ele>17.0</ele><time>2026-04-06T10:35:07.658Z</time></trkpt><trkpt lat="43.8321867" lon="10.5560233"><ele>17.0</ele><time>2026-04-06T10:35:08.658Z</time></trkpt><trkpt lat="43.8323217" lon="10.556035"><ele>17.0</ele><time>2026-04-06T10:35:09.658Z</time></trkpt><trkpt lat="43.8324567" lon="10.5560483"><ele>17.0</ele><time>2026-04-06T10:35:10.658Z</time></trkpt><trkpt lat="43.832595" lon="10.5560633"><ele>16.25</ele><time>2026-04-06T10:35:11.658Z</time></trkpt><trkpt lat="43.8327333" lon="10.556075"><ele>15.5</ele><time>2026-04-06T10:35:12.658Z</time></trkpt><trkpt lat="43.8328717" lon="10.5560867"><ele>14.75</ele><time>2026-04-06T10:35:13.658Z</time></trkpt><trkpt lat="43.8330033" lon="10.5560933"><ele>14.0</ele><time>2026-04-06T10:35:14.658Z</time></trkpt><trkpt lat="43.83312" lon="10.5561"><ele>14.0</ele><time>2026-04-06T10:35:15.658Z</time></trkpt><trkpt lat="43.8332183" lon="10.5561067"><ele>13.999999999999998</ele><time>2026-04-06T10:35:16.658Z</time></trkpt><trkpt lat="43.8333033" lon="10.5561117"><ele>13.999999999999998</ele><time>2026-04-06T10:35:17.658Z</time></trkpt><trkpt lat="43.8333733" lon="10.5561167"><ele>14.0</ele><time>2026-04-06T10:35:18.659Z</time></trkpt><trkpt lat="43.8334883" lon="10.5561267"><ele>14.0</ele><time>2026-04-06T10:35:20.658Z</time></trkpt><trkpt lat="43.833575" lon="10.55613"><ele>14.399999999999999</ele><time>2026-04-06T10:35:22.658Z</time></trkpt><trkpt lat="43.8336883" lon="10.5561383"><ele>14.799999999999999</ele><time>2026-04-06T10:35:25.659Z</time></trkpt><trkpt lat="43.8337767" lon="10.556145"><ele>15.200000000000001</ele><time>2026-04-06T10:35:27.658Z</time></trkpt><trkpt lat="43.83388" lon="10.5561533"><ele>15.600000000000001</ele><time>2026-04-06T10:35:29.658Z</time></trkpt><trkpt lat="43.8339983" lon="10.5561767"><ele>16.0</ele><time>2026-04-06T10:35:31.658Z</time></trkpt><trkpt lat="43.8341233" lon="10.556185"><ele>15.999999999999998</ele><time>2026-04-06T10:35:33.658Z</time></trkpt><trkpt lat="43.8341917" lon="10.5561867"><ele>16.0</ele><time>2026-04-06T10:35:34.659Z</time></trkpt><trkpt lat="43.8342717" lon="10.55619"><ele>16.0</ele><time>2026-04-06T10:35:35.658Z</time></trkpt><trkpt lat="43.8343533" lon="10.556195"><ele>16.0</ele><time>2026-04-06T10:35:36.658Z</time></trkpt><trkpt lat="43.8344433" lon="10.5562017"><ele>15.999999999999998</ele><time>2026-04-06T10:35:37.658Z</time></trkpt><trkpt lat="43.8345383" lon="10.55621"><ele>16.0</ele><time>2026-04-06T10:35:38.658Z</time></trkpt><trkpt lat="43.8346317" lon="10.556225"><ele>15.999999999999998</ele><time>2026-04-06T10:35:39.658Z</time></trkpt><trkpt lat="43.8347183" lon="10.556235"><ele>16.0</ele><time>2026-04-06T10:35:40.658Z</time></trkpt><trkpt lat="43.8348033" lon="10.55624"><ele>16.0</ele><time>2026-04-06T10:35:41.658Z</time></trkpt><trkpt lat="43.83489" lon="10.55624"><ele>16.0</ele><time>2026-04-06T10:35:42.658Z</time></trkpt><trkpt lat="43.834975" lon="10.5562467"><ele>15.999999999999998</ele><time>2026-04-06T10:35:43.659Z</time></trkpt><trkpt lat="43.835065" lon="10.5562467"><ele>16.0</ele><time>2026-04-06T10:35:44.658Z</time></trkpt><trkpt lat="43.8351517" lon="10.5562517"><ele>15.999999999999998</ele><time>2026-04-06T10:35:45.658Z</time></trkpt><trkpt lat="43.8352367" lon="10.5562533"><ele>16.0</ele><time>2026-04-06T10:35:46.658Z</time></trkpt><trkpt lat="43.8353183" lon="10.556255"><ele>16.0</ele><time>2026-04-06T10:35:47.659Z</time></trkpt><trkpt lat="43.8354" lon="10.5562517"><ele>16.0</ele><time>2026-04-06T10:35:48.658Z</time></trkpt><trkpt lat="43.83548" lon="10.5562433"><ele>15.999999999999998</ele><time>2026-04-06T10:35:49.658Z</time></trkpt><trkpt lat="43.835555" lon="10.5562483"><ele>16.0</ele><time>2026-04-06T10:35:50.658Z</time></trkpt><trkpt lat="43.8356217" lon="10.5562517"><ele>16.0</ele><time>2026-04-06T10:35:51.658Z</time></trkpt><trkpt lat="43.8357233" lon="10.5562517"><ele>16.0</ele><time>2026-04-06T10:35:53.658Z</time></trkpt><trkpt lat="43.8357933" lon="10.556245"><ele>16.0</ele><time>2026-04-06T10:35:56.658Z</time></trkpt><trkpt lat="43.8359033" lon="10.5562167"><ele>16.0</ele><time>2026-04-06T10:36:09.658Z</time></trkpt><trkpt lat="43.83601" lon="10.556215"><ele>16.0</ele><time>2026-04-06T10:36:11.658Z</time></trkpt><trkpt lat="43.8361317" lon="10.5562117"><ele>16.0</ele><time>2026-04-06T10:36:13.658Z</time></trkpt><trkpt lat="43.8362433" lon="10.5562217"><ele>16.0</ele><time>2026-04-06T10:36:15.658Z</time></trkpt><trkpt lat="43.8363667" lon="10.556215"><ele>16.0</ele><time>2026-04-06T10:36:17.658Z</time></trkpt><trkpt lat="43.8364883" lon="10.5562033"><ele>16.0</ele><time>2026-04-06T10:36:19.658Z</time></trkpt><trkpt lat="43.8366117" lon="10.5561967"><ele>15.999999999999998</ele><time>2026-04-06T10:36:21.658Z</time></trkpt><trkpt lat="43.8366833" lon="10.5561967"><ele>16.0</ele><time>2026-04-06T10:36:22.659Z</time></trkpt><trkpt lat="43.8367633" lon="10.5561967"><ele>16.0</ele><time>2026-04-06T10:36:23.658Z</time></trkpt><trkpt lat="43.8368467" lon="10.5562033"><ele>16.0</ele><time>2026-04-06T10:36:24.658Z</time></trkpt><trkpt lat="43.8369283" lon="10.5562167"><ele>15.999999999999998</ele><time>2026-04-06T10:36:25.658Z</time></trkpt><trkpt lat="43.83701" lon="10.556235"><ele>16.0</ele><time>2026-04-06T10:36:26.658Z</time></trkpt><trkpt lat="43.8370917" lon="10.5562533"><ele>16.166666666666664</ele><time>2026-04-06T10:36:27.658Z</time></trkpt><trkpt lat="43.8371767" lon="10.55627"><ele>16.333333333333332</ele><time>2026-04-06T10:36:28.658Z</time></trkpt><trkpt lat="43.8372667" lon="10.5562917"><ele>16.5</ele><time>2026-04-06T10:36:29.658Z</time></trkpt><trkpt lat="43.8373567" lon="10.5563117"><ele>16.666666666666668</ele><time>2026-04-06T10:36:30.659Z</time></trkpt><trkpt lat="43.8374417" lon="10.5563367"><ele>16.833333333333336</ele><time>2026-04-06T10:36:31.658Z</time></trkpt><trkpt lat="43.8375283" lon="10.55636"><ele>17.0</ele><time>2026-04-06T10:36:32.658Z</time></trkpt><trkpt lat="43.83762" lon="10.5563883"><ele>17.0</ele><time>2026-04-06T10:36:33.658Z</time></trkpt><trkpt lat="43.83772" lon="10.5564233"><ele>17.0</ele><time>2026-04-06T10:36:34.658Z</time></trkpt><trkpt lat="43.837825" lon="10.55646"><ele>17.0</ele><time>2026-04-06T10:36:35.658Z</time></trkpt><trkpt lat="43.837935" lon="10.5565"><ele>17.0</ele><time>2026-04-06T10:36:36.658Z</time></trkpt><trkpt lat="43.838055" lon="10.5565433"><ele>17.0</ele><time>2026-04-06T10:36:37.658Z</time></trkpt><trkpt lat="43.838175" lon="10.5565883"><ele>17.0</ele><time>2026-04-06T10:36:38.658Z</time></trkpt><trkpt lat="43.838295" lon="10.5566333"><ele>17.0</ele><time>2026-04-06T10:36:39.658Z</time></trkpt><trkpt lat="43.838415" lon="10.55668"><ele>17.0</ele><time>2026-04-06T10:36:40.658Z</time></trkpt><trkpt lat="43.8385333" lon="10.5567267"><ele>17.0</ele><time>2026-04-06T10:36:41.659Z</time></trkpt><trkpt lat="43.8386467" lon="10.55677"><ele>16.75</ele><time>2026-04-06T10:36:42.659Z</time></trkpt><trkpt lat="43.8387583" lon="10.55681"><ele>16.5</ele><time>2026-04-06T10:36:43.658Z</time></trkpt><trkpt lat="43.83887" lon="10.556855"><ele>16.25</ele><time>2026-04-06T10:36:44.659Z</time></trkpt><trkpt lat="43.8389833" lon="10.5569017"><ele>16.0</ele><time>2026-04-06T10:36:45.658Z</time></trkpt><trkpt lat="43.8391017" lon="10.55695"><ele>16.0</ele><time>2026-04-06T10:36:46.658Z</time></trkpt><trkpt lat="43.8392283" lon="10.5570017"><ele>16.0</ele><time>2026-04-06T10:36:47.658Z</time></trkpt><trkpt lat="43.8393583" lon="10.55706"><ele>16.0</ele><time>2026-04-06T10:36:48.658Z</time></trkpt><trkpt lat="43.83949" lon="10.5571133"><ele>16.0</ele><time>2026-04-06T10:36:49.658Z</time></trkpt><trkpt lat="43.83962" lon="10.5571667"><ele>16.25</ele><time>2026-04-06T10:36:50.658Z</time></trkpt><trkpt lat="43.8397433" lon="10.5572183"><ele>16.5</ele><time>2026-04-06T10:36:51.658Z</time></trkpt><trkpt lat="43.8398667" lon="10.557265"><ele>16.75</ele><time>2026-04-06T10:36:52.658Z</time></trkpt><trkpt lat="43.8399867" lon="10.5573067"><ele>17.0</ele><time>2026-04-06T10:36:53.658Z</time></trkpt><trkpt lat="43.8401" lon="10.55735"><ele>16.75</ele><time>2026-04-06T10:36:54.659Z</time></trkpt><trkpt lat="43.8402167" lon="10.5573917"><ele>16.5</ele><time>2026-04-06T10:36:55.658Z</time></trkpt><trkpt lat="43.84033" lon="10.5574333"><ele>16.25</ele><time>2026-04-06T10:36:56.658Z</time></trkpt><trkpt lat="43.840445" lon="10.5574767"><ele>16.0</ele><time>2026-04-06T10:36:57.658Z</time></trkpt><trkpt lat="43.8405583" lon="10.5575167"><ele>15.999999999999998</ele><time>2026-04-06T10:36:58.659Z</time></trkpt><trkpt lat="43.84066" lon="10.5575567"><ele>16.0</ele><time>2026-04-06T10:36:59.658Z</time></trkpt><trkpt lat="43.8407483" lon="10.5575917"><ele>16.0</ele><time>2026-04-06T10:37:00.658Z</time></trkpt><trkpt lat="43.8408267" lon="10.5576233"><ele>16.0</ele><time>2026-04-06T10:37:01.659Z</time></trkpt><trkpt lat="43.8408967" lon="10.55765"><ele>15.999999999999998</ele><time>2026-04-06T10:37:02.658Z</time></trkpt><trkpt lat="43.8409617" lon="10.5576783"><ele>16.0</ele><time>2026-04-06T10:37:03.658Z</time></trkpt><trkpt lat="43.841025" lon="10.5577133"><ele>16.2</ele><time>2026-04-06T10:37:04.658Z</time></trkpt><trkpt lat="43.8410833" lon="10.5577483"><ele>16.400000000000002</ele><time>2026-04-06T10:37:05.658Z</time></trkpt><trkpt lat="43.8411767" lon="10.55785"><ele>16.6</ele><time>2026-04-06T10:37:07.658Z</time></trkpt><trkpt lat="43.8412283" lon="10.558005"><ele>16.8</ele><time>2026-04-06T10:37:09.659Z</time></trkpt><trkpt lat="43.8412433" lon="10.5581067"><ele>17.0</ele><time>2026-04-06T10:37:10.658Z</time></trkpt><trkpt lat="43.8412567" lon="10.55823"><ele>16.666666666666668</ele><time>2026-04-06T10:37:11.659Z</time></trkpt><trkpt lat="43.841265" lon="10.5583617"><ele>16.333333333333336</ele><time>2026-04-06T10:37:12.658Z</time></trkpt><trkpt lat="43.841275" lon="10.5584817"><ele>16.0</ele><time>2026-04-06T10:37:13.658Z</time></trkpt><trkpt lat="43.8412867" lon="10.5585817"><ele>15.666666666666668</ele><time>2026-04-06T10:37:14.658Z</time></trkpt><trkpt lat="43.841305" lon="10.5586683"><ele>15.333333333333334</ele><time>2026-04-06T10:37:15.658Z</time></trkpt><trkpt lat="43.841385" lon="10.558785"><ele>15.0</ele><time>2026-04-06T10:37:17.658Z</time></trkpt><trkpt lat="43.841485" lon="10.5587833"><ele>15.0</ele><time>2026-04-06T10:37:19.658Z</time></trkpt><trkpt lat="43.84155" lon="10.55875"><ele>15.0</ele><time>2026-04-06T10:37:20.658Z</time></trkpt><trkpt lat="43.8416233" lon="10.55872"><ele>15.0</ele><time>2026-04-06T10:37:21.658Z</time></trkpt><trkpt lat="43.8417033" lon="10.5586883"><ele>15.0</ele><time>2026-04-06T10:37:22.658Z</time></trkpt><trkpt lat="43.8417967" lon="10.5586433"><ele>15.0</ele><time>2026-04-06T10:37:23.658Z</time></trkpt><trkpt lat="43.841905" lon="10.5585733"><ele>15.0</ele><time>2026-04-06T10:37:24.658Z</time></trkpt><trkpt lat="43.8420133" lon="10.558495"><ele>15.5</ele><time>2026-04-06T10:37:25.658Z</time></trkpt><trkpt lat="43.8421233" lon="10.5584183"><ele>16.0</ele><time>2026-04-06T10:37:26.658Z</time></trkpt><trkpt lat="43.8422383" lon="10.5583533"><ele>16.5</ele><time>2026-04-06T10:37:27.658Z</time></trkpt><trkpt lat="43.8423683" lon="10.558305"><ele>17.0</ele><time>2026-04-06T10:37:28.658Z</time></trkpt><trkpt lat="43.842505" lon="10.5582967"><ele>17.0</ele><time>2026-04-06T10:37:29.658Z</time></trkpt><trkpt lat="43.84264" lon="10.558325"><ele>17.0</ele><time>2026-04-06T10:37:30.658Z</time></trkpt><trkpt lat="43.8427733" lon="10.5583717"><ele>17.0</ele><time>2026-04-06T10:37:31.659Z</time></trkpt><trkpt lat="43.8429183" lon="10.558425"><ele>17.0</ele><time>2026-04-06T10:37:32.658Z</time></trkpt><trkpt lat="43.8430683" lon="10.5584833"><ele>17.0</ele><time>2026-04-06T10:37:33.658Z</time></trkpt><trkpt lat="43.84322" lon="10.5585417"><ele>17.0</ele><time>2026-04-06T10:37:34.658Z</time></trkpt><trkpt lat="43.84337" lon="10.5586017"><ele>17.0</ele><time>2026-04-06T10:37:35.658Z</time></trkpt><trkpt lat="43.8435317" lon="10.5586633"><ele>16.666666666666668</ele><time>2026-04-06T10:37:36.658Z</time></trkpt><trkpt lat="43.8436967" lon="10.558725"><ele>16.333333333333332</ele><time>2026-04-06T10:37:37.658Z</time></trkpt><trkpt lat="43.84385" lon="10.5587817"><ele>16.0</ele><time>2026-04-06T10:37:38.658Z</time></trkpt><trkpt lat="43.8440033" lon="10.55884"><ele>16.0</ele><time>2026-04-06T10:37:39.658Z</time></trkpt><trkpt lat="43.84416" lon="10.5588917"><ele>16.0</ele><time>2026-04-06T10:37:40.658Z</time></trkpt><trkpt lat="43.844315" lon="10.5589367"><ele>16.0</ele><time>2026-04-06T10:37:41.659Z</time></trkpt><trkpt lat="43.84447" lon="10.5589767"><ele>16.333333333333332</ele><time>2026-04-06T10:37:42.658Z</time></trkpt><trkpt lat="43.8446233" lon="10.5590117"><ele>16.666666666666668</ele><time>2026-04-06T10:37:43.658Z</time></trkpt><trkpt lat="43.8447767" lon="10.55904"><ele>17.0</ele><time>2026-04-06T10:37:44.658Z</time></trkpt><trkpt lat="43.84493" lon="10.559065"><ele>17.0</ele><time>2026-04-06T10:37:45.658Z</time></trkpt><trkpt lat="43.845085" lon="10.55909"><ele>17.0</ele><time>2026-04-06T10:37:46.658Z</time></trkpt><trkpt lat="43.8452367" lon="10.5591133"><ele>17.0</ele><time>2026-04-06T10:37:47.658Z</time></trkpt><trkpt lat="43.8453967" lon="10.55914"><ele>17.0</ele><time>2026-04-06T10:37:48.658Z</time></trkpt><trkpt lat="43.84555" lon="10.5591633"><ele>17.0</ele><time>2026-04-06T10:37:49.658Z</time></trkpt><trkpt lat="43.845705" lon="10.5591817"><ele>17.0</ele><time>2026-04-06T10:37:50.658Z</time></trkpt><trkpt lat="43.8458583" lon="10.5592017"><ele>16.333333333333336</ele><time>2026-04-06T10:37:51.658Z</time></trkpt><trkpt lat="43.8460117" lon="10.55922"><ele>15.666666666666668</ele><time>2026-04-06T10:37:52.658Z</time></trkpt><trkpt lat="43.8461717" lon="10.5592417"><ele>15.0</ele><time>2026-04-06T10:37:53.658Z</time></trkpt><trkpt lat="43.8463317" lon="10.5592633"><ele>15.0</ele><time>2026-04-06T10:37:54.658Z</time></trkpt><trkpt lat="43.8464967" lon="10.559285"><ele>15.0</ele><time>2026-04-06T10:37:55.659Z</time></trkpt><trkpt lat="43.8466583" lon="10.559305"><ele>15.0</ele><time>2026-04-06T10:37:56.658Z</time></trkpt><trkpt lat="43.8468183" lon="10.5593267"><ele>15.0</ele><time>2026-04-06T10:37:57.658Z</time></trkpt><trkpt lat="43.8469783" lon="10.5593483"><ele>15.0</ele><time>2026-04-06T10:37:58.658Z</time></trkpt><trkpt lat="43.84714" lon="10.559375"><ele>15.0</ele><time>2026-04-06T10:37:59.658Z</time></trkpt><trkpt lat="43.8472983" lon="10.559405"><ele>15.0</ele><time>2026-04-06T10:38:00.658Z</time></trkpt><trkpt lat="43.8474533" lon="10.55943"><ele>15.0</ele><time>2026-04-06T10:38:01.658Z</time></trkpt><trkpt lat="43.8476083" lon="10.5594517"><ele>15.0</ele><time>2026-04-06T10:38:02.659Z</time></trkpt><trkpt lat="43.847765" lon="10.5594733"><ele>15.333333333333332</ele><time>2026-04-06T10:38:03.658Z</time></trkpt><trkpt lat="43.8479233" lon="10.5594933"><ele>15.666666666666666</ele><time>2026-04-06T10:38:04.658Z</time></trkpt><trkpt lat="43.84808" lon="10.5595133"><ele>16.0</ele><time>2026-04-06T10:38:05.658Z</time></trkpt><trkpt lat="43.848235" lon="10.559535"><ele>16.333333333333332</ele><time>2026-04-06T10:38:06.658Z</time></trkpt><trkpt lat="43.8483917" lon="10.5595583"><ele>16.666666666666668</ele><time>2026-04-06T10:38:07.658Z</time></trkpt><trkpt lat="43.8485467" lon="10.5595817"><ele>17.0</ele><time>2026-04-06T10:38:08.658Z</time></trkpt><trkpt lat="43.8486933" lon="10.5596017"><ele>18.333333333333336</ele><time>2026-04-06T10:38:09.658Z</time></trkpt><trkpt lat="43.8488433" lon="10.5596183"><ele>19.666666666666668</ele><time>2026-04-06T10:38:10.658Z</time></trkpt><trkpt lat="43.8489917" lon="10.5596367"><ele>21.0</ele><time>2026-04-06T10:38:11.658Z</time></trkpt><trkpt lat="43.8491417" lon="10.559655"><ele>21.0</ele><time>2026-04-06T10:38:12.659Z</time></trkpt><trkpt lat="43.84929" lon="10.5596617"><ele>21.0</ele><time>2026-04-06T10:38:13.658Z</time></trkpt><trkpt lat="43.849435" lon="10.5596683"><ele>21.0</ele><time>2026-04-06T10:38:14.658Z</time></trkpt><trkpt lat="43.8495817" lon="10.559675"><ele>21.0</ele><time>2026-04-06T10:38:15.658Z</time></trkpt><trkpt lat="43.849725" lon="10.5596783"><ele>21.75</ele><time>2026-04-06T10:38:16.658Z</time></trkpt><trkpt lat="43.84987" lon="10.5596867"><ele>22.5</ele><time>2026-04-06T10:38:17.658Z</time></trkpt><trkpt lat="43.8500083" lon="10.55969"><ele>23.25</ele><time>2026-04-06T10:38:18.658Z</time></trkpt><trkpt lat="43.85015" lon="10.559695"><ele>24.0</ele><time>2026-04-06T10:38:19.658Z</time></trkpt><trkpt lat="43.8502933" lon="10.5597017"><ele>22.5</ele><time>2026-04-06T10:38:20.658Z</time></trkpt><trkpt lat="43.8504317" lon="10.5597067"><ele>21.0</ele><time>2026-04-06T10:38:21.658Z</time></trkpt><trkpt lat="43.850565" lon="10.5597033"><ele>19.5</ele><time>2026-04-06T10:38:22.658Z</time></trkpt><trkpt lat="43.8507033" lon="10.559705"><ele>18.0</ele><time>2026-04-06T10:38:23.658Z</time></trkpt><trkpt lat="43.85084" lon="10.559705"><ele>17.75</ele><time>2026-04-06T10:38:24.658Z</time></trkpt><trkpt lat="43.8509767" lon="10.5597067"><ele>17.5</ele><time>2026-04-06T10:38:25.658Z</time></trkpt><trkpt lat="43.851115" lon="10.5597167"><ele>17.25</ele><time>2026-04-06T10:38:26.658Z</time></trkpt><trkpt lat="43.8512533" lon="10.5597267"><ele>17.0</ele><time>2026-04-06T10:38:27.658Z</time></trkpt><trkpt lat="43.851385" lon="10.5597183"><ele>17.0</ele><time>2026-04-06T10:38:28.658Z</time></trkpt><trkpt lat="43.85152" lon="10.5597183"><ele>17.0</ele><time>2026-04-06T10:38:29.658Z</time></trkpt><trkpt lat="43.8516533" lon="10.5597183"><ele>17.0</ele><time>2026-04-06T10:38:30.658Z</time></trkpt><trkpt lat="43.8517867" lon="10.5597183"><ele>17.0</ele><time>2026-04-06T10:38:31.658Z</time></trkpt><trkpt lat="43.8519217" lon="10.5597167"><ele>17.5</ele><time>2026-04-06T10:38:32.658Z</time></trkpt><trkpt lat="43.852055" lon="10.5597167"><ele>18.0</ele><time>2026-04-06T10:38:33.659Z</time></trkpt><trkpt lat="43.852185" lon="10.5597117"><ele>18.5</ele><time>2026-04-06T10:38:34.658Z</time></trkpt><trkpt lat="43.8523183" lon="10.559715"><ele>19.0</ele><time>2026-04-06T10:38:35.658Z</time></trkpt><trkpt lat="43.85245" lon="10.5597167"><ele>19.0</ele><time>2026-04-06T10:38:36.658Z</time></trkpt><trkpt lat="43.8525817" lon="10.55972"><ele>19.0</ele><time>2026-04-06T10:38:37.658Z</time></trkpt><trkpt lat="43.852715" lon="10.5597217"><ele>19.0</ele><time>2026-04-06T10:38:38.658Z</time></trkpt><trkpt lat="43.85285" lon="10.5597233"><ele>19.0</ele><time>2026-04-06T10:38:39.658Z</time></trkpt><trkpt lat="43.852985" lon="10.55973"><ele>18.75</ele><time>2026-04-06T10:38:40.658Z</time></trkpt><trkpt lat="43.85312" lon="10.5597317"><ele>18.5</ele><time>2026-04-06T10:38:41.658Z</time></trkpt><trkpt lat="43.8532567" lon="10.5597383"><ele>18.25</ele><time>2026-04-06T10:38:42.658Z</time></trkpt><trkpt lat="43.8533917" lon="10.5597433"><ele>18.0</ele><time>2026-04-06T10:38:43.658Z</time></trkpt><trkpt lat="43.8535267" lon="10.5597467"><ele>18.0</ele><time>2026-04-06T10:38:44.658Z</time></trkpt><trkpt lat="43.8536583" lon="10.5597483"><ele>18.0</ele><time>2026-04-06T10:38:45.658Z</time></trkpt><trkpt lat="43.8537867" lon="10.55975"><ele>18.0</ele><time>2026-04-06T10:38:46.658Z</time></trkpt><trkpt lat="43.85392" lon="10.5597533"><ele>18.0</ele><time>2026-04-06T10:38:47.659Z</time></trkpt><trkpt lat="43.8540483" lon="10.5597567"><ele>18.0</ele><time>2026-04-06T10:38:48.658Z</time></trkpt><trkpt lat="43.8541683" lon="10.5597617"><ele>18.0</ele><time>2026-04-06T10:38:49.658Z</time></trkpt><trkpt lat="43.8542833" lon="10.559765"><ele>18.0</ele><time>2026-04-06T10:38:50.658Z</time></trkpt><trkpt lat="43.85439" lon="10.559765"><ele>18.0</ele><time>2026-04-06T10:38:51.658Z</time></trkpt><trkpt lat="43.8544883" lon="10.5597633"><ele>18.0</ele><time>2026-04-06T10:38:52.658Z</time></trkpt><trkpt lat="43.854575" lon="10.559765"><ele>18.2</ele><time>2026-04-06T10:38:53.658Z</time></trkpt><trkpt lat="43.854655" lon="10.5597717"><ele>18.4</ele><time>2026-04-06T10:38:54.659Z</time></trkpt><trkpt lat="43.8547283" lon="10.5597767"><ele>18.599999999999998</ele><time>2026-04-06T10:38:55.658Z</time></trkpt><trkpt lat="43.85482" lon="10.5598067"><ele>18.8</ele><time>2026-04-06T10:38:57.658Z</time></trkpt><trkpt lat="43.8549033" lon="10.5598817"><ele>19.0</ele><time>2026-04-06T10:38:59.658Z</time></trkpt><trkpt lat="43.85498" lon="10.5600133"><ele>19.0</ele><time>2026-04-06T10:39:01.658Z</time></trkpt><trkpt lat="43.854995" lon="10.56011"><ele>19.0</ele><time>2026-04-06T10:39:02.658Z</time></trkpt><trkpt lat="43.8550133" lon="10.5602133"><ele>19.0</ele><time>2026-04-06T10:39:03.658Z</time></trkpt><trkpt lat="43.8550333" lon="10.5603217"><ele>19.0</ele><time>2026-04-06T10:39:04.658Z</time></trkpt><trkpt lat="43.855065" lon="10.5604183"><ele>19.0</ele><time>2026-04-06T10:39:05.658Z</time></trkpt><trkpt lat="43.8551033" lon="10.5604933"><ele>19.0</ele><time>2026-04-06T10:39:06.658Z</time></trkpt><trkpt lat="43.8552133" lon="10.5605533"><ele>19.166666666666664</ele><time>2026-04-06T10:39:08.658Z</time></trkpt><trkpt lat="43.855285" lon="10.56054"><ele>19.333333333333332</ele><time>2026-04-06T10:39:09.658Z</time></trkpt><trkpt lat="43.8553717" lon="10.560535"><ele>19.5</ele><time>2026-04-06T10:39:10.658Z</time></trkpt><trkpt lat="43.8554733" lon="10.5605233"><ele>19.666666666666668</ele><time>2026-04-06T10:39:11.658Z</time></trkpt><trkpt lat="43.8555633" lon="10.5605233"><ele>19.833333333333336</ele><time>2026-04-06T10:39:12.658Z</time></trkpt><trkpt lat="43.855655" lon="10.56052"><ele>20.0</ele><time>2026-04-06T10:39:13.658Z</time></trkpt><trkpt lat="43.8557517" lon="10.5605183"><ele>20.0</ele><time>2026-04-06T10:39:14.658Z</time></trkpt><trkpt lat="43.8558517" lon="10.5605167"><ele>20.0</ele><time>2026-04-06T10:39:15.658Z</time></trkpt><trkpt lat="43.8559533" lon="10.56052"><ele>20.0</ele><time>2026-04-06T10:39:16.658Z</time></trkpt><trkpt lat="43.8560583" lon="10.5605267"><ele>20.0</ele><time>2026-04-06T10:39:17.658Z</time></trkpt><trkpt lat="43.85617" lon="10.5605333"><ele>20.0</ele><time>2026-04-06T10:39:18.658Z</time></trkpt><trkpt lat="43.8562833" lon="10.5605367"><ele>20.25</ele><time>2026-04-06T10:39:19.658Z</time></trkpt><trkpt lat="43.8563983" lon="10.5605383"><ele>20.5</ele><time>2026-04-06T10:39:20.658Z</time></trkpt><trkpt lat="43.856515" lon="10.560535"><ele>20.75</ele><time>2026-04-06T10:39:21.658Z</time></trkpt><trkpt lat="43.8566333" lon="10.560525"><ele>21.0</ele><time>2026-04-06T10:39:22.658Z</time></trkpt><trkpt lat="43.856755" lon="10.5605033"><ele>20.75</ele><time>2026-04-06T10:39:23.658Z</time></trkpt><trkpt lat="43.8568733" lon="10.5604817"><ele>20.5</ele><time>2026-04-06T10:39:24.658Z</time></trkpt><trkpt lat="43.85699" lon="10.56046"><ele>20.25</ele><time>2026-04-06T10:39:25.658Z</time></trkpt><trkpt lat="43.8571067" lon="10.5604383"><ele>20.0</ele><time>2026-04-06T10:39:26.658Z</time></trkpt><trkpt lat="43.8572183" lon="10.5604133"><ele>20.0</ele><time>2026-04-06T10:39:27.658Z</time></trkpt><trkpt lat="43.8573333" lon="10.5603883"><ele>20.0</ele><time>2026-04-06T10:39:28.658Z</time></trkpt><trkpt lat="43.8574483" lon="10.5603667"><ele>20.0</ele><time>2026-04-06T10:39:29.658Z</time></trkpt><trkpt lat="43.857565" lon="10.5603467"><ele>20.0</ele><time>2026-04-06T10:39:30.658Z</time></trkpt><trkpt lat="43.8576817" lon="10.5603283"><ele>19.8</ele><time>2026-04-06T10:39:31.658Z</time></trkpt><trkpt lat="43.857795" lon="10.56032"><ele>19.6</ele><time>2026-04-06T10:39:32.658Z</time></trkpt><trkpt lat="43.8579033" lon="10.5603167"><ele>19.4</ele><time>2026-04-06T10:39:33.658Z</time></trkpt><trkpt lat="43.8580083" lon="10.56032"><ele>19.2</ele><time>2026-04-06T10:39:34.658Z</time></trkpt><trkpt lat="43.8581083" lon="10.56033"><ele>19.0</ele><time>2026-04-06T10:39:35.659Z</time></trkpt><trkpt lat="43.8582017" lon="10.5603417"><ele>19.0</ele><time>2026-04-06T10:39:36.658Z</time></trkpt><trkpt lat="43.85829" lon="10.5603533"><ele>19.0</ele><time>2026-04-06T10:39:37.659Z</time></trkpt><trkpt lat="43.8583767" lon="10.5603633"><ele>19.0</ele><time>2026-04-06T10:39:38.658Z</time></trkpt><trkpt lat="43.8584683" lon="10.5603767"><ele>19.0</ele><time>2026-04-06T10:39:39.658Z</time></trkpt><trkpt lat="43.8585667" lon="10.56039"><ele>19.0</ele><time>2026-04-06T10:39:40.658Z</time></trkpt><trkpt lat="43.858675" lon="10.5604033"><ele>19.0</ele><time>2026-04-06T10:39:41.658Z</time></trkpt><trkpt lat="43.858785" lon="10.5604233"><ele>19.0</ele><time>2026-04-06T10:39:42.658Z</time></trkpt><trkpt lat="43.8588967" lon="10.5604433"><ele>19.0</ele><time>2026-04-06T10:39:43.658Z</time></trkpt><trkpt lat="43.8590083" lon="10.5604567"><ele>19.0</ele><time>2026-04-06T10:39:44.658Z</time></trkpt><trkpt lat="43.8591233" lon="10.5604717"><ele>19.0</ele><time>2026-04-06T10:39:45.658Z</time></trkpt><trkpt lat="43.8592417" lon="10.560495"><ele>19.0</ele><time>2026-04-06T10:39:46.658Z</time></trkpt><trkpt lat="43.859365" lon="10.56052"><ele>19.0</ele><time>2026-04-06T10:39:47.658Z</time></trkpt><trkpt lat="43.8594867" lon="10.5605517"><ele>19.0</ele><time>2026-04-06T10:39:48.658Z</time></trkpt><trkpt lat="43.8596117" lon="10.5605867"><ele>19.25</ele><time>2026-04-06T10:39:49.658Z</time></trkpt><trkpt lat="43.8597417" lon="10.56062"><ele>19.5</ele><time>2026-04-06T10:39:50.658Z</time></trkpt><trkpt lat="43.8598667" lon="10.560655"><ele>19.75</ele><time>2026-04-06T10:39:51.658Z</time></trkpt><trkpt lat="43.8599933" lon="10.560685"><ele>20.0</ele><time>2026-04-06T10:39:52.658Z</time></trkpt><trkpt lat="43.8601183" lon="10.5607183"><ele>20.25</ele><time>2026-04-06T10:39:53.658Z</time></trkpt><trkpt lat="43.8602433" lon="10.560755"><ele>20.5</ele><time>2026-04-06T10:39:54.658Z</time></trkpt><trkpt lat="43.86037" lon="10.5607883"><ele>20.75</ele><time>2026-04-06T10:39:55.658Z</time></trkpt><trkpt lat="43.860495" lon="10.5608233"><ele>21.0</ele><time>2026-04-06T10:39:56.658Z</time></trkpt><trkpt lat="43.86062" lon="10.5608583"><ele>21.0</ele><time>2026-04-06T10:39:57.658Z</time></trkpt><trkpt lat="43.860745" lon="10.5608867"><ele>21.0</ele><time>2026-04-06T10:39:58.658Z</time></trkpt><trkpt lat="43.8608667" lon="10.5609183"><ele>21.0</ele><time>2026-04-06T10:39:59.658Z</time></trkpt><trkpt lat="43.860985" lon="10.5609467"><ele>21.0</ele><time>2026-04-06T10:40:00.658Z</time></trkpt><trkpt lat="43.8610983" lon="10.5609733"><ele>21.0</ele><time>2026-04-06T10:40:01.658Z</time></trkpt><trkpt lat="43.8611983" lon="10.561"><ele>21.0</ele><time>2026-04-06T10:40:02.659Z</time></trkpt><trkpt lat="43.861285" lon="10.5610233"><ele>21.0</ele><time>2026-04-06T10:40:03.658Z</time></trkpt><trkpt lat="43.86137" lon="10.561045"><ele>21.0</ele><time>2026-04-06T10:40:04.659Z</time></trkpt><trkpt lat="43.86146" lon="10.5610717"><ele>21.0</ele><time>2026-04-06T10:40:05.658Z</time></trkpt><trkpt lat="43.8615567" lon="10.5610883"><ele>21.0</ele><time>2026-04-06T10:40:06.658Z</time></trkpt><trkpt lat="43.861655" lon="10.5610883"><ele>21.0</ele><time>2026-04-06T10:40:07.658Z</time></trkpt><trkpt lat="43.8617533" lon="10.5610717"><ele>21.0</ele><time>2026-04-06T10:40:08.658Z</time></trkpt><trkpt lat="43.86185" lon="10.561045"><ele>21.0</ele><time>2026-04-06T10:40:09.659Z</time></trkpt><trkpt lat="43.8619483" lon="10.5610133"><ele>21.0</ele><time>2026-04-06T10:40:10.659Z</time></trkpt><trkpt lat="43.8620467" lon="10.5609733"><ele>20.75</ele><time>2026-04-06T10:40:11.659Z</time></trkpt><trkpt lat="43.8621483" lon="10.56093"><ele>20.5</ele><time>2026-04-06T10:40:12.658Z</time></trkpt><trkpt lat="43.8622567" lon="10.5608833"><ele>20.25</ele><time>2026-04-06T10:40:13.659Z</time></trkpt><trkpt lat="43.8623683" lon="10.5608333"><ele>20.0</ele><time>2026-04-06T10:40:14.659Z</time></trkpt><trkpt lat="43.8624783" lon="10.56078"><ele>20.0</ele><time>2026-04-06T10:40:15.659Z</time></trkpt><trkpt lat="43.8625917" lon="10.5607217"><ele>20.0</ele><time>2026-04-06T10:40:16.659Z</time></trkpt><trkpt lat="43.8627083" lon="10.5606617"><ele>20.0</ele><time>2026-04-06T10:40:17.659Z</time></trkpt><trkpt lat="43.8628283" lon="10.5606017"><ele>20.0</ele><time>2026-04-06T10:40:18.659Z</time></trkpt><trkpt lat="43.8629483" lon="10.5605417"><ele>20.0</ele><time>2026-04-06T10:40:19.66Z</time></trkpt><trkpt lat="43.86307" lon="10.5604883"><ele>20.0</ele><time>2026-04-06T10:40:20.659Z</time></trkpt><trkpt lat="43.86319" lon="10.5604333"><ele>20.0</ele><time>2026-04-06T10:40:21.659Z</time></trkpt><trkpt lat="43.86331" lon="10.560385"><ele>20.0</ele><time>2026-04-06T10:40:22.659Z</time></trkpt><trkpt lat="43.86343" lon="10.56034"><ele>20.0</ele><time>2026-04-06T10:40:23.659Z</time></trkpt><trkpt lat="43.8635533" lon="10.5602967"><ele>20.0</ele><time>2026-04-06T10:40:24.659Z</time></trkpt><trkpt lat="43.863675" lon="10.5602533"><ele>20.0</ele><time>2026-04-06T10:40:25.659Z</time></trkpt><trkpt lat="43.863795" lon="10.5602117"><ele>20.0</ele><time>2026-04-06T10:40:26.66Z</time></trkpt><trkpt lat="43.8639167" lon="10.56018"><ele>20.0</ele><time>2026-04-06T10:40:27.66Z</time></trkpt><trkpt lat="43.8640383" lon="10.5601583"><ele>20.0</ele><time>2026-04-06T10:40:28.659Z</time></trkpt><trkpt lat="43.8641617" lon="10.5601417"><ele>20.0</ele><time>2026-04-06T10:40:29.659Z</time></trkpt><trkpt lat="43.8642883" lon="10.5601367"><ele>20.0</ele><time>2026-04-06T10:40:30.659Z</time></trkpt><trkpt lat="43.8644133" lon="10.5601433"><ele>20.25</ele><time>2026-04-06T10:40:31.659Z</time></trkpt><trkpt lat="43.8645333" lon="10.560155"><ele>20.5</ele><time>2026-04-06T10:40:32.659Z</time></trkpt><trkpt lat="43.8646467" lon="10.5601683"><ele>20.75</ele><time>2026-04-06T10:40:33.659Z</time></trkpt><trkpt lat="43.8647567" lon="10.560185"><ele>21.0</ele><time>2026-04-06T10:40:34.659Z</time></trkpt><trkpt lat="43.8648617" lon="10.5601967"><ele>21.0</ele><time>2026-04-06T10:40:35.659Z</time></trkpt><trkpt lat="43.8649667" lon="10.5602083"><ele>21.0</ele><time>2026-04-06T10:40:36.659Z</time></trkpt><trkpt lat="43.8650783" lon="10.56022"><ele>21.0</ele><time>2026-04-06T10:40:37.659Z</time></trkpt><trkpt lat="43.8651917" lon="10.56022"><ele>21.0</ele><time>2026-04-06T10:40:38.659Z</time></trkpt><trkpt lat="43.86531" lon="10.5602283"><ele>21.0</ele><time>2026-04-06T10:40:39.659Z</time></trkpt><trkpt lat="43.8654217" lon="10.5602283"><ele>21.0</ele><time>2026-04-06T10:40:40.659Z</time></trkpt><trkpt lat="43.865535" lon="10.5602367"><ele>21.0</ele><time>2026-04-06T10:40:41.659Z</time></trkpt><trkpt lat="43.8656483" lon="10.560255"><ele>21.0</ele><time>2026-04-06T10:40:42.659Z</time></trkpt><trkpt lat="43.8657617" lon="10.56028"><ele>21.0</ele><time>2026-04-06T10:40:43.659Z</time></trkpt><trkpt lat="43.8658717" lon="10.5603183"><ele>21.0</ele><time>2026-04-06T10:40:44.659Z</time></trkpt><trkpt lat="43.86598" lon="10.56037"><ele>21.0</ele><time>2026-04-06T10:40:45.659Z</time></trkpt><trkpt lat="43.8660817" lon="10.5604333"><ele>21.0</ele><time>2026-04-06T10:40:46.659Z</time></trkpt><trkpt lat="43.86618" lon="10.560505"><ele>21.0</ele><time>2026-04-06T10:40:47.659Z</time></trkpt><trkpt lat="43.866255" lon="10.5606"><ele>21.0</ele><time>2026-04-06T10:40:48.659Z</time></trkpt><trkpt lat="43.8663133" lon="10.5607117"><ele>21.0</ele><time>2026-04-06T10:40:49.659Z</time></trkpt><trkpt lat="43.866345" lon="10.5608417"><ele>21.0</ele><time>2026-04-06T10:40:50.659Z</time></trkpt><trkpt lat="43.866355" lon="10.56098"><ele>21.0</ele><time>2026-04-06T10:40:51.66Z</time></trkpt><trkpt lat="43.8663533" lon="10.561115"><ele>21.0</ele><time>2026-04-06T10:40:52.659Z</time></trkpt><trkpt lat="43.8663467" lon="10.5612567"><ele>21.0</ele><time>2026-04-06T10:40:53.659Z</time></trkpt><trkpt lat="43.8663383" lon="10.5613983"><ele>21.200000000000003</ele><time>2026-04-06T10:40:54.659Z</time></trkpt><trkpt lat="43.866335" lon="10.5615367"><ele>21.400000000000002</ele><time>2026-04-06T10:40:55.659Z</time></trkpt><trkpt lat="43.86633" lon="10.5616767"><ele>21.6</ele><time>2026-04-06T10:40:56.659Z</time></trkpt><trkpt lat="43.86633" lon="10.5618083"><ele>21.8</ele><time>2026-04-06T10:40:57.66Z</time></trkpt><trkpt lat="43.8663467" lon="10.561935"><ele>22.0</ele><time>2026-04-06T10:40:58.659Z</time></trkpt><trkpt lat="43.86639" lon="10.562045"><ele>22.0</ele><time>2026-04-06T10:40:59.659Z</time></trkpt><trkpt lat="43.8664333" lon="10.5621433"><ele>22.0</ele><time>2026-04-06T10:41:00.659Z</time></trkpt><trkpt lat="43.8664883" lon="10.5622183"><ele>22.0</ele><time>2026-04-06T10:41:01.659Z</time></trkpt><trkpt lat="43.8665683" lon="10.5622567"><ele>22.0</ele><time>2026-04-06T10:41:02.659Z</time></trkpt><trkpt lat="43.8666633" lon="10.5622567"><ele>22.0</ele><time>2026-04-06T10:41:03.659Z</time></trkpt><trkpt lat="43.8667733" lon="10.56225"><ele>22.200000000000003</ele><time>2026-04-06T10:41:04.66Z</time></trkpt><trkpt lat="43.86688" lon="10.5622467"><ele>22.4</ele><time>2026-04-06T10:41:05.659Z</time></trkpt><trkpt lat="43.866985" lon="10.562255"><ele>22.6</ele><time>2026-04-06T10:41:06.659Z</time></trkpt><trkpt lat="43.86709" lon="10.562265"><ele>22.799999999999997</ele><time>2026-04-06T10:41:07.659Z</time></trkpt><trkpt lat="43.8671967" lon="10.5622733"><ele>23.0</ele><time>2026-04-06T10:41:08.659Z</time></trkpt><trkpt lat="43.8673" lon="10.5622833"><ele>23.0</ele><time>2026-04-06T10:41:09.659Z</time></trkpt><trkpt lat="43.8673933" lon="10.5622967"><ele>23.0</ele><time>2026-04-06T10:41:10.659Z</time></trkpt><trkpt lat="43.867485" lon="10.5623067"><ele>23.0</ele><time>2026-04-06T10:41:11.659Z</time></trkpt><trkpt lat="43.86757" lon="10.5623183"><ele>23.0</ele><time>2026-04-06T10:41:12.66Z</time></trkpt><trkpt lat="43.867655" lon="10.5623317"><ele>23.0</ele><time>2026-04-06T10:41:13.659Z</time></trkpt><trkpt lat="43.8677417" lon="10.5623417"><ele>23.0</ele><time>2026-04-06T10:41:14.659Z</time></trkpt><trkpt lat="43.86783" lon="10.5623533"><ele>22.799999999999997</ele><time>2026-04-06T10:41:15.659Z</time></trkpt><trkpt lat="43.86792" lon="10.56237"><ele>22.6</ele><time>2026-04-06T10:41:16.659Z</time></trkpt><trkpt lat="43.8680117" lon="10.562385"><ele>22.4</ele><time>2026-04-06T10:41:17.659Z</time></trkpt><trkpt lat="43.8681083" lon="10.5623917"><ele>22.200000000000003</ele><time>2026-04-06T10:41:18.659Z</time></trkpt><trkpt lat="43.8682033" lon="10.5623983"><ele>22.0</ele><time>2026-04-06T10:41:19.659Z</time></trkpt><trkpt lat="43.8682967" lon="10.56241"><ele>22.0</ele><time>2026-04-06T10:41:20.659Z</time></trkpt><trkpt lat="43.8683933" lon="10.5624317"><ele>22.0</ele><time>2026-04-06T10:41:21.659Z</time></trkpt><trkpt lat="43.868485" lon="10.5624483"><ele>22.0</ele><time>2026-04-06T10:41:22.659Z</time></trkpt><trkpt lat="43.8685817" lon="10.56247"><ele>22.0</ele><time>2026-04-06T10:41:23.659Z</time></trkpt><trkpt lat="43.86868" lon="10.56249"><ele>22.0</ele><time>2026-04-06T10:41:24.66Z</time></trkpt><trkpt lat="43.86878" lon="10.562505"><ele>22.6</ele><time>2026-04-06T10:41:25.659Z</time></trkpt><trkpt lat="43.8688817" lon="10.562515"><ele>23.200000000000003</ele><time>2026-04-06T10:41:26.659Z</time></trkpt><trkpt lat="43.86898" lon="10.562535"><ele>23.8</ele><time>2026-04-06T10:41:27.659Z</time></trkpt><trkpt lat="43.8690783" lon="10.5625517"><ele>24.4</ele><time>2026-04-06T10:41:28.66Z</time></trkpt><trkpt lat="43.8691767" lon="10.562555"><ele>25.0</ele><time>2026-04-06T10:41:29.659Z</time></trkpt><trkpt lat="43.8692683" lon="10.562545"><ele>25.000000000000004</ele><time>2026-04-06T10:41:30.659Z</time></trkpt><trkpt lat="43.86936" lon="10.5625267"><ele>25.0</ele><time>2026-04-06T10:41:31.659Z</time></trkpt><trkpt lat="43.86944" lon="10.5624967"><ele>25.0</ele><time>2026-04-06T10:41:32.659Z</time></trkpt><trkpt lat="43.869515" lon="10.5624767"><ele>25.0</ele><time>2026-04-06T10:41:33.659Z</time></trkpt><trkpt lat="43.869575" lon="10.5624367"><ele>25.000000000000004</ele><time>2026-04-06T10:41:34.659Z</time></trkpt><trkpt lat="43.86962" lon="10.5622817"><ele>25.0</ele><time>2026-04-06T10:41:36.659Z</time></trkpt><trkpt lat="43.86962" lon="10.5621683"><ele>25.0</ele><time>2026-04-06T10:41:37.659Z</time></trkpt><trkpt lat="43.869625" lon="10.5620483"><ele>25.0</ele><time>2026-04-06T10:41:38.659Z</time></trkpt><trkpt lat="43.8696383" lon="10.5619217"><ele>25.0</ele><time>2026-04-06T10:41:39.659Z</time></trkpt><trkpt lat="43.8696517" lon="10.5617867"><ele>25.0</ele><time>2026-04-06T10:41:40.659Z</time></trkpt><trkpt lat="43.8696633" lon="10.56165"><ele>25.0</ele><time>2026-04-06T10:41:41.659Z</time></trkpt><trkpt lat="43.8696817" lon="10.5615167"><ele>25.0</ele><time>2026-04-06T10:41:42.659Z</time></trkpt><trkpt lat="43.8696983" lon="10.561375"><ele>25.0</ele><time>2026-04-06T10:41:43.659Z</time></trkpt><trkpt lat="43.8697133" lon="10.5612333"><ele>25.0</ele><time>2026-04-06T10:41:44.659Z</time></trkpt><trkpt lat="43.8697333" lon="10.56109"><ele>25.0</ele><time>2026-04-06T10:41:45.659Z</time></trkpt><trkpt lat="43.8697483" lon="10.5609467"><ele>25.0</ele><time>2026-04-06T10:41:46.659Z</time></trkpt><trkpt lat="43.8697667" lon="10.5608033"><ele>24.6</ele><time>2026-04-06T10:41:47.659Z</time></trkpt><trkpt lat="43.869785" lon="10.5606567"><ele>24.2</ele><time>2026-04-06T10:41:48.659Z</time></trkpt><trkpt lat="43.8698067" lon="10.5605117"><ele>23.799999999999997</ele><time>2026-04-06T10:41:49.659Z</time></trkpt><trkpt lat="43.86982" lon="10.5603683"><ele>23.4</ele><time>2026-04-06T10:41:50.659Z</time></trkpt><trkpt lat="43.8698333" lon="10.56023"><ele>23.0</ele><time>2026-04-06T10:41:51.66Z</time></trkpt><trkpt lat="43.8698517" lon="10.5600883"><ele>23.0</ele><time>2026-04-06T10:41:52.659Z</time></trkpt><trkpt lat="43.8698783" lon="10.55995"><ele>23.0</ele><time>2026-04-06T10:41:53.659Z</time></trkpt><trkpt lat="43.8699133" lon="10.55981"><ele>23.0</ele><time>2026-04-06T10:41:54.659Z</time></trkpt><trkpt lat="43.8699633" lon="10.5596817"><ele>23.0</ele><time>2026-04-06T10:41:55.659Z</time></trkpt><trkpt lat="43.87003" lon="10.55957"><ele>23.0</ele><time>2026-04-06T10:41:56.659Z</time></trkpt><trkpt lat="43.870105" lon="10.55948"><ele>23.4</ele><time>2026-04-06T10:41:57.659Z</time></trkpt><trkpt lat="43.8701917" lon="10.5593933"><ele>23.799999999999997</ele><time>2026-04-06T10:41:58.659Z</time></trkpt><trkpt lat="43.87029" lon="10.5593183"><ele>24.2</ele><time>2026-04-06T10:41:59.66Z</time></trkpt><trkpt lat="43.8703883" lon="10.5592517"><ele>24.6</ele><time>2026-04-06T10:42:00.66Z</time></trkpt><trkpt lat="43.8704933" lon="10.5591917"><ele>25.0</ele><time>2026-04-06T10:42:01.659Z</time></trkpt><trkpt lat="43.8705967" lon="10.559125"><ele>25.0</ele><time>2026-04-06T10:42:02.659Z</time></trkpt><trkpt lat="43.8706983" lon="10.5590517"><ele>25.0</ele><time>2026-04-06T10:42:03.66Z</time></trkpt><trkpt lat="43.8708033" lon="10.5589817"><ele>25.0</ele><time>2026-04-06T10:42:04.66Z</time></trkpt><trkpt lat="43.870905" lon="10.558905"><ele>25.0</ele><time>2026-04-06T10:42:05.66Z</time></trkpt><trkpt lat="43.8710017" lon="10.5588133"><ele>24.5</ele><time>2026-04-06T10:42:06.659Z</time></trkpt><trkpt lat="43.871095" lon="10.5587017"><ele>24.0</ele><time>2026-04-06T10:42:07.659Z</time></trkpt><trkpt lat="43.8711833" lon="10.558575"><ele>23.5</ele><time>2026-04-06T10:42:08.659Z</time></trkpt><trkpt lat="43.8712717" lon="10.55844"><ele>23.0</ele><time>2026-04-06T10:42:09.659Z</time></trkpt><trkpt lat="43.8713633" lon="10.558305"><ele>23.0</ele><time>2026-04-06T10:42:10.659Z</time></trkpt><trkpt lat="43.871465" lon="10.5581917"><ele>23.0</ele><time>2026-04-06T10:42:11.659Z</time></trkpt><trkpt lat="43.87157" lon="10.5580867"><ele>23.0</ele><time>2026-04-06T10:42:12.659Z</time></trkpt><trkpt lat="43.8716833" lon="10.557995"><ele>23.0</ele><time>2026-04-06T10:42:13.659Z</time></trkpt><trkpt lat="43.8718033" lon="10.5579133"><ele>23.25</ele><time>2026-04-06T10:42:14.659Z</time></trkpt><trkpt lat="43.8719317" lon="10.55785"><ele>23.5</ele><time>2026-04-06T10:42:15.66Z</time></trkpt><trkpt lat="43.8720567" lon="10.557795"><ele>23.75</ele><time>2026-04-06T10:42:16.659Z</time></trkpt><trkpt lat="43.8721817" lon="10.55774"><ele>24.0</ele><time>2026-04-06T10:42:17.659Z</time></trkpt><trkpt lat="43.8723067" lon="10.5576917"><ele>24.0</ele><time>2026-04-06T10:42:18.659Z</time></trkpt><trkpt lat="43.8724317" lon="10.5576567"><ele>24.0</ele><time>2026-04-06T10:42:19.659Z</time></trkpt><trkpt lat="43.8725533" lon="10.5576317"><ele>24.0</ele><time>2026-04-06T10:42:20.659Z</time></trkpt><trkpt lat="43.87267" lon="10.557615"><ele>24.0</ele><time>2026-04-06T10:42:21.659Z</time></trkpt><trkpt lat="43.8727817" lon="10.5576"><ele>24.2</ele><time>2026-04-06T10:42:22.659Z</time></trkpt><trkpt lat="43.8728833" lon="10.5575883"><ele>24.4</ele><time>2026-04-06T10:42:23.659Z</time></trkpt><trkpt lat="43.87298" lon="10.5575817"><ele>24.6</ele><time>2026-04-06T10:42:24.659Z</time></trkpt><trkpt lat="43.87308" lon="10.5575717"><ele>24.8</ele><time>2026-04-06T10:42:25.659Z</time></trkpt><trkpt lat="43.873175" lon="10.5575583"><ele>25.0</ele><time>2026-04-06T10:42:26.659Z</time></trkpt><trkpt lat="43.8732617" lon="10.5575433"><ele>25.000000000000004</ele><time>2026-04-06T10:42:27.659Z</time></trkpt><trkpt lat="43.8733417" lon="10.5575233"><ele>25.0</ele><time>2026-04-06T10:42:28.659Z</time></trkpt><trkpt lat="43.8734217" lon="10.5575033"><ele>25.0</ele><time>2026-04-06T10:42:29.659Z</time></trkpt><trkpt lat="43.8735033" lon="10.5574783"><ele>25.0</ele><time>2026-04-06T10:42:30.659Z</time></trkpt><trkpt lat="43.8735917" lon="10.5574583"><ele>25.000000000000004</ele><time>2026-04-06T10:42:31.66Z</time></trkpt><trkpt lat="43.87368" lon="10.55742"><ele>25.0</ele><time>2026-04-06T10:42:32.659Z</time></trkpt><trkpt lat="43.8737733" lon="10.557385"><ele>25.000000000000004</ele><time>2026-04-06T10:42:33.66Z</time></trkpt><trkpt lat="43.8738617" lon="10.5573417"><ele>25.0</ele><time>2026-04-06T10:42:34.66Z</time></trkpt><trkpt lat="43.8739417" lon="10.5572967"><ele>25.0</ele><time>2026-04-06T10:42:35.659Z</time></trkpt><trkpt lat="43.87401" lon="10.5572417"><ele>25.0</ele><time>2026-04-06T10:42:36.659Z</time></trkpt><trkpt lat="43.8740667" lon="10.5571817"><ele>25.000000000000004</ele><time>2026-04-06T10:42:37.659Z</time></trkpt><trkpt lat="43.87411" lon="10.5571067"><ele>25.0</ele><time>2026-04-06T10:42:38.659Z</time></trkpt><trkpt lat="43.8741433" lon="10.5570183"><ele>25.0</ele><time>2026-04-06T10:42:39.659Z</time></trkpt><trkpt lat="43.8741583" lon="10.5569083"><ele>25.0</ele><time>2026-04-06T10:42:40.66Z</time></trkpt><trkpt lat="43.8741583" lon="10.556765"><ele>25.0</ele><time>2026-04-06T10:42:41.659Z</time></trkpt><trkpt lat="43.8741683" lon="10.5566333"><ele>25.0</ele><time>2026-04-06T10:42:42.659Z</time></trkpt><trkpt lat="43.87418" lon="10.556485"><ele>25.0</ele><time>2026-04-06T10:42:43.659Z</time></trkpt><trkpt lat="43.87419" lon="10.5563333"><ele>25.0</ele><time>2026-04-06T10:42:44.66Z</time></trkpt><trkpt lat="43.8741967" lon="10.5561717"><ele>25.0</ele><time>2026-04-06T10:42:45.659Z</time></trkpt><trkpt lat="43.8742117" lon="10.5560083"><ele>25.0</ele><time>2026-04-06T10:42:46.659Z</time></trkpt><trkpt lat="43.8742267" lon="10.55585"><ele>25.0</ele><time>2026-04-06T10:42:47.659Z</time></trkpt><trkpt lat="43.87424" lon="10.5556783"><ele>25.0</ele><time>2026-04-06T10:42:48.659Z</time></trkpt><trkpt lat="43.8742567" lon="10.5555067"><ele>25.0</ele><time>2026-04-06T10:42:49.659Z</time></trkpt><trkpt lat="43.8742783" lon="10.555335"><ele>25.0</ele><time>2026-04-06T10:42:50.659Z</time></trkpt><trkpt lat="43.8743033" lon="10.55516"><ele>25.0</ele><time>2026-04-06T10:42:51.659Z</time></trkpt><trkpt lat="43.8743333" lon="10.554985"><ele>24.75</ele><time>2026-04-06T10:42:52.659Z</time></trkpt><trkpt lat="43.8743733" lon="10.554815"><ele>24.5</ele><time>2026-04-06T10:42:53.659Z</time></trkpt><trkpt lat="43.8744167" lon="10.5546433"><ele>24.25</ele><time>2026-04-06T10:42:54.659Z</time></trkpt><trkpt lat="43.8744683" lon="10.5544833"><ele>24.0</ele><time>2026-04-06T10:42:55.659Z</time></trkpt><trkpt lat="43.87453" lon="10.554325"><ele>24.0</ele><time>2026-04-06T10:42:56.66Z</time></trkpt><trkpt lat="43.8745983" lon="10.5541683"><ele>24.0</ele><time>2026-04-06T10:42:57.66Z</time></trkpt><trkpt lat="43.8746667" lon="10.5540117"><ele>24.0</ele><time>2026-04-06T10:42:58.66Z</time></trkpt><trkpt lat="43.8747383" lon="10.553855"><ele>24.0</ele><time>2026-04-06T10:42:59.659Z</time></trkpt><trkpt lat="43.8748117" lon="10.5536983"><ele>24.0</ele><time>2026-04-06T10:43:00.659Z</time></trkpt><trkpt lat="43.8748817" lon="10.55353"><ele>24.0</ele><time>2026-04-06T10:43:01.659Z</time></trkpt><trkpt lat="43.8749467" lon="10.55336"><ele>24.0</ele><time>2026-04-06T10:43:02.659Z</time></trkpt><trkpt lat="43.8750117" lon="10.5531867"><ele>24.0</ele><time>2026-04-06T10:43:03.659Z</time></trkpt><trkpt lat="43.8750733" lon="10.5530067"><ele>24.0</ele><time>2026-04-06T10:43:04.659Z</time></trkpt><trkpt lat="43.87513" lon="10.552825"><ele>24.0</ele><time>2026-04-06T10:43:05.659Z</time></trkpt><trkpt lat="43.8751817" lon="10.5526383"><ele>24.0</ele><time>2026-04-06T10:43:06.66Z</time></trkpt><trkpt lat="43.8752333" lon="10.5524533"><ele>24.0</ele><time>2026-04-06T10:43:07.659Z</time></trkpt><trkpt lat="43.8752667" lon="10.5522617"><ele>24.0</ele><time>2026-04-06T10:43:08.659Z</time></trkpt><trkpt lat="43.8753017" lon="10.55207"><ele>24.0</ele><time>2026-04-06T10:43:09.659Z</time></trkpt><trkpt lat="43.875335" lon="10.5518733"><ele>24.0</ele><time>2026-04-06T10:43:10.659Z</time></trkpt><trkpt lat="43.8753733" lon="10.5516783"><ele>24.0</ele><time>2026-04-06T10:43:11.659Z</time></trkpt><trkpt lat="43.8754117" lon="10.5514817"><ele>24.0</ele><time>2026-04-06T10:43:12.66Z</time></trkpt><trkpt lat="43.8754517" lon="10.5512933"><ele>24.0</ele><time>2026-04-06T10:43:13.659Z</time></trkpt><trkpt lat="43.8754983" lon="10.5511083"><ele>24.0</ele><time>2026-04-06T10:43:14.659Z</time></trkpt><trkpt lat="43.8755533" lon="10.5509267"><ele>24.0</ele><time>2026-04-06T10:43:15.659Z</time></trkpt><trkpt lat="43.8756167" lon="10.5507467"><ele>24.0</ele><time>2026-04-06T10:43:16.659Z</time></trkpt><trkpt lat="43.87569" lon="10.5505717"><ele>24.0</ele><time>2026-04-06T10:43:17.66Z</time></trkpt><trkpt lat="43.8757717" lon="10.5503983"><ele>24.0</ele><time>2026-04-06T10:43:18.659Z</time></trkpt><trkpt lat="43.875865" lon="10.550235"><ele>24.0</ele><time>2026-04-06T10:43:19.66Z</time></trkpt><trkpt lat="43.87597" lon="10.550085"><ele>23.666666666666668</ele><time>2026-04-06T10:43:20.66Z</time></trkpt><trkpt lat="43.8760817" lon="10.5499417"><ele>23.333333333333336</ele><time>2026-04-06T10:43:21.66Z</time></trkpt><trkpt lat="43.8761967" lon="10.5498"><ele>23.0</ele><time>2026-04-06T10:43:22.659Z</time></trkpt><trkpt lat="43.8763083" lon="10.5496583"><ele>23.5</ele><time>2026-04-06T10:43:23.659Z</time></trkpt><trkpt lat="43.8764183" lon="10.5495167"><ele>24.0</ele><time>2026-04-06T10:43:24.659Z</time></trkpt><trkpt lat="43.8765267" lon="10.5493733"><ele>24.5</ele><time>2026-04-06T10:43:25.66Z</time></trkpt><trkpt lat="43.8766267" lon="10.549225"><ele>25.0</ele><time>2026-04-06T10:43:26.659Z</time></trkpt><trkpt lat="43.8767233" lon="10.549075"><ele>24.75</ele><time>2026-04-06T10:43:27.659Z</time></trkpt><trkpt lat="43.8768183" lon="10.5489183"><ele>24.5</ele><time>2026-04-06T10:43:28.659Z</time></trkpt><trkpt lat="43.876905" lon="10.5487533"><ele>24.25</ele><time>2026-04-06T10:43:29.659Z</time></trkpt><trkpt lat="43.8769867" lon="10.5485817"><ele>24.0</ele><time>2026-04-06T10:43:30.659Z</time></trkpt><trkpt lat="43.8770667" lon="10.5484133"><ele>24.75</ele><time>2026-04-06T10:43:31.659Z</time></trkpt><trkpt lat="43.8771433" lon="10.5482533"><ele>25.5</ele><time>2026-04-06T10:43:32.658Z</time></trkpt><trkpt lat="43.8772217" lon="10.5480933"><ele>26.25</ele><time>2026-04-06T10:43:33.658Z</time></trkpt><trkpt lat="43.8773017" lon="10.5479417"><ele>27.0</ele><time>2026-04-06T10:43:34.658Z</time></trkpt><trkpt lat="43.877375" lon="10.5478033"><ele>27.0</ele><time>2026-04-06T10:43:35.658Z</time></trkpt><trkpt lat="43.8774333" lon="10.5477017"><ele>27.000000000000004</ele><time>2026-04-06T10:43:36.658Z</time></trkpt><trkpt lat="43.87748" lon="10.5476283"><ele>27.000000000000004</ele><time>2026-04-06T10:43:37.658Z</time></trkpt><trkpt lat="43.8775483" lon="10.5475283"><ele>27.0</ele><time>2026-04-06T10:43:39.658Z</time></trkpt><trkpt lat="43.8776167" lon="10.54741"><ele>27.0</ele><time>2026-04-06T10:43:50.658Z</time></trkpt><trkpt lat="43.8776633" lon="10.5472617"><ele>27.0</ele><time>2026-04-06T10:43:52.658Z</time></trkpt><trkpt lat="43.8777" lon="10.5471667"><ele>27.000000000000004</ele><time>2026-04-06T10:43:53.658Z</time></trkpt><trkpt lat="43.87774" lon="10.5470683"><ele>27.000000000000004</ele><time>2026-04-06T10:43:54.658Z</time></trkpt><trkpt lat="43.8777867" lon="10.5469583"><ele>27.0</ele><time>2026-04-06T10:43:55.658Z</time></trkpt><trkpt lat="43.877835" lon="10.5468367"><ele>27.0</ele><time>2026-04-06T10:43:56.658Z</time></trkpt><trkpt lat="43.8778833" lon="10.5467083"><ele>27.0</ele><time>2026-04-06T10:43:57.658Z</time></trkpt><trkpt lat="43.87794" lon="10.5465717"><ele>27.0</ele><time>2026-04-06T10:43:58.658Z</time></trkpt><trkpt lat="43.878" lon="10.5464233"><ele>27.0</ele><time>2026-04-06T10:43:59.658Z</time></trkpt><trkpt lat="43.87806" lon="10.5462683"><ele>27.0</ele><time>2026-04-06T10:44:00.658Z</time></trkpt><trkpt lat="43.8781233" lon="10.5461067"><ele>27.0</ele><time>2026-04-06T10:44:01.658Z</time></trkpt><trkpt lat="43.87819" lon="10.5459433"><ele>27.0</ele><time>2026-04-06T10:44:02.658Z</time></trkpt><trkpt lat="43.878255" lon="10.5457767"><ele>27.0</ele><time>2026-04-06T10:44:03.658Z</time></trkpt><trkpt lat="43.8783183" lon="10.54561"><ele>27.0</ele><time>2026-04-06T10:44:04.658Z</time></trkpt><trkpt lat="43.87837" lon="10.54544"><ele>26.333333333333336</ele><time>2026-04-06T10:44:05.658Z</time></trkpt><trkpt lat="43.878415" lon="10.54525"><ele>25.666666666666668</ele><time>2026-04-06T10:44:06.658Z</time></trkpt><trkpt lat="43.8784517" lon="10.545045"><ele>25.0</ele><time>2026-04-06T10:44:07.659Z</time></trkpt><trkpt lat="43.878475" lon="10.544835"><ele>25.0</ele><time>2026-04-06T10:44:08.659Z</time></trkpt><trkpt lat="43.8784983" lon="10.544625"><ele>25.0</ele><time>2026-04-06T10:44:09.658Z</time></trkpt><trkpt lat="43.8785233" lon="10.5444183"><ele>25.0</ele><time>2026-04-06T10:44:10.658Z</time></trkpt><trkpt lat="43.8785533" lon="10.5442133"><ele>25.0</ele><time>2026-04-06T10:44:11.658Z</time></trkpt><trkpt lat="43.8785833" lon="10.5440067"><ele>25.0</ele><time>2026-04-06T10:44:12.658Z</time></trkpt><trkpt lat="43.8786133" lon="10.5438033"><ele>25.0</ele><time>2026-04-06T10:44:13.658Z</time></trkpt><trkpt lat="43.8786483" lon="10.5435983"><ele>25.0</ele><time>2026-04-06T10:44:14.658Z</time></trkpt><trkpt lat="43.8786817" lon="10.5433917"><ele>25.0</ele><time>2026-04-06T10:44:15.658Z</time></trkpt><trkpt lat="43.8787183" lon="10.5431883"><ele>25.0</ele><time>2026-04-06T10:44:16.658Z</time></trkpt><trkpt lat="43.8787517" lon="10.54299"><ele>25.25</ele><time>2026-04-06T10:44:17.658Z</time></trkpt><trkpt lat="43.8787833" lon="10.5427933"><ele>25.5</ele><time>2026-04-06T10:44:18.658Z</time></trkpt><trkpt lat="43.8788117" lon="10.542605"><ele>25.75</ele><time>2026-04-06T10:44:19.658Z</time></trkpt><trkpt lat="43.8788383" lon="10.542425"><ele>26.0</ele><time>2026-04-06T10:44:20.658Z</time></trkpt><trkpt lat="43.8788583" lon="10.5422517"><ele>26.0</ele><time>2026-04-06T10:44:21.658Z</time></trkpt><trkpt lat="43.8788633" lon="10.542105"><ele>26.0</ele><time>2026-04-06T10:44:22.659Z</time></trkpt><trkpt lat="43.87884" lon="10.54198"><ele>26.0</ele><time>2026-04-06T10:44:23.658Z</time></trkpt><trkpt lat="43.8787833" lon="10.5418817"><ele>26.0</ele><time>2026-04-06T10:44:24.658Z</time></trkpt><trkpt lat="43.8787017" lon="10.5417967"><ele>26.0</ele><time>2026-04-06T10:44:25.658Z</time></trkpt><trkpt lat="43.8786067" lon="10.5417467"><ele>26.166666666666664</ele><time>2026-04-06T10:44:26.658Z</time></trkpt><trkpt lat="43.8785067" lon="10.54172"><ele>26.333333333333332</ele><time>2026-04-06T10:44:27.659Z</time></trkpt><trkpt lat="43.8784133" lon="10.5416983"><ele>26.5</ele><time>2026-04-06T10:44:28.658Z</time></trkpt><trkpt lat="43.8783383" lon="10.5416633"><ele>26.666666666666664</ele><time>2026-04-06T10:44:29.658Z</time></trkpt><trkpt lat="43.8782683" lon="10.541615"><ele>26.833333333333332</ele><time>2026-04-06T10:44:30.659Z</time></trkpt><trkpt lat="43.8782133" lon="10.541545"><ele>27.0</ele><time>2026-04-06T10:44:31.658Z</time></trkpt><trkpt lat="43.87817" lon="10.5414533"><ele>27.0</ele><time>2026-04-06T10:44:32.659Z</time></trkpt><trkpt lat="43.8781333" lon="10.5413233"><ele>27.0</ele><time>2026-04-06T10:44:33.658Z</time></trkpt><trkpt lat="43.878085" lon="10.541165"><ele>27.0</ele><time>2026-04-06T10:44:34.658Z</time></trkpt><trkpt lat="43.8780217" lon="10.5410233"><ele>27.0</ele><time>2026-04-06T10:44:35.658Z</time></trkpt><trkpt lat="43.8779483" lon="10.5408933"><ele>27.0</ele><time>2026-04-06T10:44:36.658Z</time></trkpt><trkpt lat="43.8778633" lon="10.54077"><ele>27.0</ele><time>2026-04-06T10:44:37.658Z</time></trkpt><trkpt lat="43.8777767" lon="10.5406467"><ele>27.0</ele><time>2026-04-06T10:44:38.658Z</time></trkpt><trkpt lat="43.877695" lon="10.5405233"><ele>27.0</ele><time>2026-04-06T10:44:39.659Z</time></trkpt><trkpt lat="43.8776167" lon="10.5404033"><ele>27.8</ele><time>2026-04-06T10:44:40.658Z</time></trkpt><trkpt lat="43.877555" lon="10.540285"><ele>28.6</ele><time>2026-04-06T10:44:41.658Z</time></trkpt><trkpt lat="43.877505" lon="10.5401567"><ele>29.400000000000002</ele><time>2026-04-06T10:44:42.658Z</time></trkpt><trkpt lat="43.8774683" lon="10.5400183"><ele>30.200000000000003</ele><time>2026-04-06T10:44:43.658Z</time></trkpt><trkpt lat="43.8774383" lon="10.539865"><ele>31.0</ele><time>2026-04-06T10:44:44.658Z</time></trkpt><trkpt lat="43.8774217" lon="10.5397033"><ele>31.8</ele><time>2026-04-06T10:44:45.658Z</time></trkpt><trkpt lat="43.877395" lon="10.53955"><ele>32.6</ele><time>2026-04-06T10:44:46.658Z</time></trkpt><trkpt lat="43.8773583" lon="10.5394083"><ele>33.4</ele><time>2026-04-06T10:44:47.658Z</time></trkpt><trkpt lat="43.8773317" lon="10.5392633"><ele>34.2</ele><time>2026-04-06T10:44:48.658Z</time></trkpt><trkpt lat="43.8772517" lon="10.5391617"><ele>35.0</ele><time>2026-04-06T10:44:49.658Z</time></trkpt><trkpt lat="43.87715" lon="10.53907"><ele>35.0</ele><time>2026-04-06T10:44:50.658Z</time></trkpt><trkpt lat="43.8770517" lon="10.5389783"><ele>35.0</ele><time>2026-04-06T10:44:51.658Z</time></trkpt><trkpt lat="43.8769467" lon="10.5388817"><ele>35.0</ele><time>2026-04-06T10:44:52.658Z</time></trkpt><trkpt lat="43.8768433" lon="10.5387833"><ele>35.0</ele><time>2026-04-06T10:44:53.658Z</time></trkpt><trkpt lat="43.8767483" lon="10.5386733"><ele>33.0</ele><time>2026-04-06T10:44:54.658Z</time></trkpt><trkpt lat="43.8766567" lon="10.5385617"><ele>31.0</ele><time>2026-04-06T10:44:55.658Z</time></trkpt><trkpt lat="43.876575" lon="10.5384483"><ele>29.0</ele><time>2026-04-06T10:44:56.659Z</time></trkpt><trkpt lat="43.8765017" lon="10.5383433"><ele>27.0</ele><time>2026-04-06T10:44:57.658Z</time></trkpt><trkpt lat="43.8764483" lon="10.5382433"><ele>25.0</ele><time>2026-04-06T10:44:58.658Z</time></trkpt><trkpt lat="43.87641" lon="10.5381417"><ele>25.000000000000004</ele><time>2026-04-06T10:44:59.658Z</time></trkpt><trkpt lat="43.8763883" lon="10.53803"><ele>25.0</ele><time>2026-04-06T10:45:00.658Z</time></trkpt><trkpt lat="43.876375" lon="10.5379167"><ele>25.0</ele><time>2026-04-06T10:45:01.659Z</time></trkpt><trkpt lat="43.87637" lon="10.5378117"><ele>25.0</ele><time>2026-04-06T10:45:02.658Z</time></trkpt><trkpt lat="43.8763883" lon="10.537705"><ele>25.000000000000004</ele><time>2026-04-06T10:45:03.658Z</time></trkpt><trkpt lat="43.8764167" lon="10.5376233"><ele>25.0</ele><time>2026-04-06T10:45:04.658Z</time></trkpt><trkpt lat="43.8764617" lon="10.537535"><ele>25.000000000000004</ele><time>2026-04-06T10:45:05.659Z</time></trkpt><trkpt lat="43.87649" lon="10.5374467"><ele>25.0</ele><time>2026-04-06T10:45:06.658Z</time></trkpt><trkpt lat="43.87644" lon="10.537305"><ele>25.0</ele><time>2026-04-06T10:45:08.658Z</time></trkpt><trkpt lat="43.8763833" lon="10.5372567"><ele>25.0</ele><time>2026-04-06T10:45:09.658Z</time></trkpt><trkpt lat="43.8763033" lon="10.53721"><ele>25.000000000000004</ele><time>2026-04-06T10:45:10.658Z</time></trkpt><trkpt lat="43.8762167" lon="10.537165"><ele>25.0</ele><time>2026-04-06T10:45:11.658Z</time></trkpt><trkpt lat="43.87613" lon="10.5370917"><ele>25.25</ele><time>2026-04-06T10:45:12.658Z</time></trkpt><trkpt lat="43.87605" lon="10.5369833"><ele>25.5</ele><time>2026-04-06T10:45:13.658Z</time></trkpt><trkpt lat="43.875975" lon="10.5368583"><ele>25.75</ele><time>2026-04-06T10:45:14.658Z</time></trkpt><trkpt lat="43.8759017" lon="10.5367333"><ele>26.0</ele><time>2026-04-06T10:45:15.658Z</time></trkpt><trkpt lat="43.8758317" lon="10.5366083"><ele>26.0</ele><time>2026-04-06T10:45:16.658Z</time></trkpt><trkpt lat="43.8757583" lon="10.5364817"><ele>26.0</ele><time>2026-04-06T10:45:17.658Z</time></trkpt><trkpt lat="43.8756867" lon="10.5363517"><ele>26.0</ele><time>2026-04-06T10:45:18.658Z</time></trkpt><trkpt lat="43.87562" lon="10.53622"><ele>26.0</ele><time>2026-04-06T10:45:19.658Z</time></trkpt><trkpt lat="43.8755617" lon="10.5360883"><ele>26.0</ele><time>2026-04-06T10:45:20.658Z</time></trkpt><trkpt lat="43.8755067" lon="10.53597"><ele>26.0</ele><time>2026-04-06T10:45:21.658Z</time></trkpt><trkpt lat="43.87546" lon="10.535855"><ele>26.0</ele><time>2026-04-06T10:45:22.658Z</time></trkpt><trkpt lat="43.8754133" lon="10.5357317"><ele>26.0</ele><time>2026-04-06T10:45:23.658Z</time></trkpt><trkpt lat="43.8753733" lon="10.535605"><ele>26.0</ele><time>2026-04-06T10:45:24.659Z</time></trkpt><trkpt lat="43.8753533" lon="10.53547"><ele>26.200000000000003</ele><time>2026-04-06T10:45:25.658Z</time></trkpt><trkpt lat="43.8753483" lon="10.5353333"><ele>26.400000000000002</ele><time>2026-04-06T10:45:26.658Z</time></trkpt><trkpt lat="43.875355" lon="10.535195"><ele>26.6</ele><time>2026-04-06T10:45:27.658Z</time></trkpt><trkpt lat="43.875365" lon="10.53506"><ele>26.8</ele><time>2026-04-06T10:45:28.658Z</time></trkpt><trkpt lat="43.8753733" lon="10.53493"><ele>27.0</ele><time>2026-04-06T10:45:29.658Z</time></trkpt><trkpt lat="43.8753933" lon="10.5348017"><ele>27.0</ele><time>2026-04-06T10:45:30.658Z</time></trkpt><trkpt lat="43.87542" lon="10.5346717"><ele>27.000000000000004</ele><time>2026-04-06T10:45:31.658Z</time></trkpt><trkpt lat="43.875455" lon="10.5345333"><ele>27.000000000000004</ele><time>2026-04-06T10:45:32.658Z</time></trkpt><trkpt lat="43.8754933" lon="10.534385"><ele>27.0</ele><time>2026-04-06T10:45:33.659Z</time></trkpt><trkpt lat="43.8755333" lon="10.534235"><ele>27.0</ele><time>2026-04-06T10:45:34.658Z</time></trkpt><trkpt lat="43.875575" lon="10.534085"><ele>26.75</ele><time>2026-04-06T10:45:35.659Z</time></trkpt><trkpt lat="43.87562" lon="10.533935"><ele>26.5</ele><time>2026-04-06T10:45:36.658Z</time></trkpt><trkpt lat="43.8756633" lon="10.5337783"><ele>26.25</ele><time>2026-04-06T10:45:37.658Z</time></trkpt><trkpt lat="43.875705" lon="10.5336167"><ele>26.0</ele><time>2026-04-06T10:45:38.658Z</time></trkpt><trkpt lat="43.87575" lon="10.533455"><ele>25.75</ele><time>2026-04-06T10:45:39.659Z</time></trkpt><trkpt lat="43.875795" lon="10.533285"><ele>25.5</ele><time>2026-04-06T10:45:40.658Z</time></trkpt><trkpt lat="43.8758417" lon="10.5331183"><ele>25.25</ele><time>2026-04-06T10:45:41.658Z</time></trkpt><trkpt lat="43.8758917" lon="10.53295"><ele>25.0</ele><time>2026-04-06T10:45:42.658Z</time></trkpt><trkpt lat="43.875945" lon="10.532785"><ele>25.0</ele><time>2026-04-06T10:45:43.658Z</time></trkpt><trkpt lat="43.8759917" lon="10.5326217"><ele>25.0</ele><time>2026-04-06T10:45:44.658Z</time></trkpt><trkpt lat="43.87604" lon="10.5324633"><ele>25.0</ele><time>2026-04-06T10:45:45.658Z</time></trkpt><trkpt lat="43.8760867" lon="10.5323067"><ele>25.0</ele><time>2026-04-06T10:45:46.658Z</time></trkpt><trkpt lat="43.8761333" lon="10.532145"><ele>25.0</ele><time>2026-04-06T10:45:47.658Z</time></trkpt><trkpt lat="43.8761767" lon="10.5319833"><ele>25.0</ele><time>2026-04-06T10:45:48.658Z</time></trkpt><trkpt lat="43.8762133" lon="10.5318233"><ele>25.0</ele><time>2026-04-06T10:45:49.658Z</time></trkpt><trkpt lat="43.876255" lon="10.5316717"><ele>25.0</ele><time>2026-04-06T10:45:50.658Z</time></trkpt><trkpt lat="43.876295" lon="10.5315217"><ele>25.0</ele><time>2026-04-06T10:45:51.658Z</time></trkpt><trkpt lat="43.8763267" lon="10.5313733"><ele>25.0</ele><time>2026-04-06T10:45:52.658Z</time></trkpt><trkpt lat="43.8763667" lon="10.5312267"><ele>25.0</ele><time>2026-04-06T10:45:53.659Z</time></trkpt><trkpt lat="43.8764067" lon="10.53108"><ele>25.0</ele><time>2026-04-06T10:45:54.659Z</time></trkpt><trkpt lat="43.87645" lon="10.5309333"><ele>25.5</ele><time>2026-04-06T10:45:55.658Z</time></trkpt><trkpt lat="43.8764933" lon="10.5307833"><ele>26.0</ele><time>2026-04-06T10:45:56.658Z</time></trkpt><trkpt lat="43.8765367" lon="10.5306317"><ele>26.5</ele><time>2026-04-06T10:45:57.659Z</time></trkpt><trkpt lat="43.876575" lon="10.530475"><ele>27.0</ele><time>2026-04-06T10:45:58.658Z</time></trkpt><trkpt lat="43.87661" lon="10.53032"><ele>27.25</ele><time>2026-04-06T10:45:59.658Z</time></trkpt><trkpt lat="43.8766533" lon="10.5301633"><ele>27.5</ele><time>2026-04-06T10:46:00.658Z</time></trkpt><trkpt lat="43.8767" lon="10.530005"><ele>27.75</ele><time>2026-04-06T10:46:01.658Z</time></trkpt><trkpt lat="43.8767417" lon="10.5298483"><ele>28.0</ele><time>2026-04-06T10:46:02.659Z</time></trkpt><trkpt lat="43.8767783" lon="10.5296933"><ele>27.599999999999998</ele><time>2026-04-06T10:46:03.658Z</time></trkpt><trkpt lat="43.876805" lon="10.5295383"><ele>27.199999999999996</ele><time>2026-04-06T10:46:04.658Z</time></trkpt><trkpt lat="43.8768133" lon="10.529385"><ele>26.8</ele><time>2026-04-06T10:46:05.658Z</time></trkpt><trkpt lat="43.8768083" lon="10.5292417"><ele>26.4</ele><time>2026-04-06T10:46:06.658Z</time></trkpt><trkpt lat="43.876805" lon="10.5291117"><ele>26.0</ele><time>2026-04-06T10:46:07.658Z</time></trkpt><trkpt lat="43.8768117" lon="10.52901"><ele>25.999999999999996</ele><time>2026-04-06T10:46:08.658Z</time></trkpt><trkpt lat="43.8768467" lon="10.5289033"><ele>26.0</ele><time>2026-04-06T10:46:10.658Z</time></trkpt><trkpt lat="43.87691" lon="10.528875"><ele>26.0</ele><time>2026-04-06T10:46:12.658Z</time></trkpt><trkpt lat="43.877" lon="10.5289133"><ele>26.0</ele><time>2026-04-06T10:46:14.658Z</time></trkpt><trkpt lat="43.8770683" lon="10.5289517"><ele>25.999999999999996</ele><time>2026-04-06T10:46:15.658Z</time></trkpt><trkpt lat="43.8771467" lon="10.5290017"><ele>26.0</ele><time>2026-04-06T10:46:16.659Z</time></trkpt><trkpt lat="43.8772433" lon="10.5290517"><ele>26.0</ele><time>2026-04-06T10:46:17.658Z</time></trkpt><trkpt lat="43.877345" lon="10.529105"><ele>26.0</ele><time>2026-04-06T10:46:18.658Z</time></trkpt><trkpt lat="43.8774533" lon="10.5291667"><ele>26.0</ele><time>2026-04-06T10:46:19.658Z</time></trkpt><trkpt lat="43.8775733" lon="10.5292333"><ele>26.0</ele><time>2026-04-06T10:46:20.658Z</time></trkpt><trkpt lat="43.8777033" lon="10.529305"><ele>26.0</ele><time>2026-04-06T10:46:21.658Z</time></trkpt><trkpt lat="43.8778367" lon="10.52938"><ele>26.0</ele><time>2026-04-06T10:46:22.658Z</time></trkpt><trkpt lat="43.8779767" lon="10.52946"><ele>26.0</ele><time>2026-04-06T10:46:23.658Z</time></trkpt><trkpt lat="43.8781183" lon="10.5295333"><ele>26.0</ele><time>2026-04-06T10:46:24.658Z</time></trkpt><trkpt lat="43.8782633" lon="10.529605"><ele>26.0</ele><time>2026-04-06T10:46:25.658Z</time></trkpt><trkpt lat="43.8784183" lon="10.5296817"><ele>26.0</ele><time>2026-04-06T10:46:26.658Z</time></trkpt><trkpt lat="43.8785817" lon="10.529755"><ele>26.0</ele><time>2026-04-06T10:46:27.658Z</time></trkpt><trkpt lat="43.878735" lon="10.5298333"><ele>26.666666666666664</ele><time>2026-04-06T10:46:28.659Z</time></trkpt><trkpt lat="43.87889" lon="10.5299133"><ele>27.333333333333336</ele><time>2026-04-06T10:46:29.658Z</time></trkpt><trkpt lat="43.8790433" lon="10.5299933"><ele>28.0</ele><time>2026-04-06T10:46:30.658Z</time></trkpt><trkpt lat="43.8791883" lon="10.5300767"><ele>28.333333333333336</ele><time>2026-04-06T10:46:31.658Z</time></trkpt><trkpt lat="43.8793383" lon="10.5301583"><ele>28.666666666666664</ele><time>2026-04-06T10:46:32.658Z</time></trkpt><trkpt lat="43.8794883" lon="10.5302383"><ele>29.0</ele><time>2026-04-06T10:46:33.659Z</time></trkpt><trkpt lat="43.8796433" lon="10.53032"><ele>28.666666666666664</ele><time>2026-04-06T10:46:34.658Z</time></trkpt><trkpt lat="43.8797983" lon="10.530405"><ele>28.333333333333336</ele><time>2026-04-06T10:46:35.658Z</time></trkpt><trkpt lat="43.87996" lon="10.530485"><ele>28.0</ele><time>2026-04-06T10:46:36.658Z</time></trkpt><trkpt lat="43.88012" lon="10.5305633"><ele>28.0</ele><time>2026-04-06T10:46:37.658Z</time></trkpt><trkpt lat="43.8802733" lon="10.5306467"><ele>28.0</ele><time>2026-04-06T10:46:38.658Z</time></trkpt><trkpt lat="43.880425" lon="10.5307317"><ele>28.0</ele><time>2026-04-06T10:46:39.658Z</time></trkpt><trkpt lat="43.8805767" lon="10.530815"><ele>28.0</ele><time>2026-04-06T10:46:40.658Z</time></trkpt><trkpt lat="43.8807317" lon="10.530895"><ele>28.0</ele><time>2026-04-06T10:46:41.658Z</time></trkpt><trkpt lat="43.8808883" lon="10.530975"><ele>28.0</ele><time>2026-04-06T10:46:42.658Z</time></trkpt><trkpt lat="43.8810383" lon="10.5310583"><ele>28.0</ele><time>2026-04-06T10:46:43.658Z</time></trkpt><trkpt lat="43.8811867" lon="10.5311467"><ele>28.0</ele><time>2026-04-06T10:46:44.658Z</time></trkpt><trkpt lat="43.88134" lon="10.5312433"><ele>28.0</ele><time>2026-04-06T10:46:45.659Z</time></trkpt><trkpt lat="43.88149" lon="10.5313467"><ele>28.0</ele><time>2026-04-06T10:46:46.658Z</time></trkpt><trkpt lat="43.8816383" lon="10.53145"><ele>28.0</ele><time>2026-04-06T10:46:47.658Z</time></trkpt><trkpt lat="43.8817883" lon="10.5315583"><ele>28.0</ele><time>2026-04-06T10:46:48.658Z</time></trkpt><trkpt lat="43.881945" lon="10.531665"><ele>28.0</ele><time>2026-04-06T10:46:49.659Z</time></trkpt><trkpt lat="43.8821033" lon="10.5317583"><ele>28.0</ele><time>2026-04-06T10:46:50.658Z</time></trkpt><trkpt lat="43.882265" lon="10.5318467"><ele>28.0</ele><time>2026-04-06T10:46:51.658Z</time></trkpt><trkpt lat="43.8824283" lon="10.5319333"><ele>28.0</ele><time>2026-04-06T10:46:52.658Z</time></trkpt><trkpt lat="43.8825917" lon="10.5320167"><ele>28.0</ele><time>2026-04-06T10:46:53.658Z</time></trkpt><trkpt lat="43.8827417" lon="10.5320967"><ele>28.0</ele><time>2026-04-06T10:46:54.659Z</time></trkpt><trkpt lat="43.8829" lon="10.532175"><ele>28.0</ele><time>2026-04-06T10:46:55.658Z</time></trkpt><trkpt lat="43.8830583" lon="10.53226"><ele>28.0</ele><time>2026-04-06T10:46:56.658Z</time></trkpt><trkpt lat="43.8832217" lon="10.5323383"><ele>28.0</ele><time>2026-04-06T10:46:57.658Z</time></trkpt><trkpt lat="43.8833833" lon="10.532425"><ele>28.0</ele><time>2026-04-06T10:46:58.658Z</time></trkpt><trkpt lat="43.8835483" lon="10.53251"><ele>28.0</ele><time>2026-04-06T10:46:59.659Z</time></trkpt><trkpt lat="43.8837117" lon="10.5325933"><ele>28.0</ele><time>2026-04-06T10:47:00.658Z</time></trkpt><trkpt lat="43.883875" lon="10.53268"><ele>28.0</ele><time>2026-04-06T10:47:01.658Z</time></trkpt><trkpt lat="43.884035" lon="10.532765"><ele>28.0</ele><time>2026-04-06T10:47:02.658Z</time></trkpt><trkpt lat="43.884195" lon="10.53285"><ele>28.0</ele><time>2026-04-06T10:47:03.658Z</time></trkpt><trkpt lat="43.884355" lon="10.5329317"><ele>29.0</ele><time>2026-04-06T10:47:04.658Z</time></trkpt><trkpt lat="43.8845133" lon="10.5330133"><ele>30.0</ele><time>2026-04-06T10:47:05.658Z</time></trkpt><trkpt lat="43.884665" lon="10.5330917"><ele>31.0</ele><time>2026-04-06T10:47:06.658Z</time></trkpt><trkpt lat="43.88482" lon="10.53317"><ele>31.0</ele><time>2026-04-06T10:47:07.659Z</time></trkpt><trkpt lat="43.8849767" lon="10.5332483"><ele>31.0</ele><time>2026-04-06T10:47:08.658Z</time></trkpt><trkpt lat="43.88513" lon="10.5333283"><ele>31.0</ele><time>2026-04-06T10:47:09.658Z</time></trkpt><trkpt lat="43.88529" lon="10.53341"><ele>30.666666666666668</ele><time>2026-04-06T10:47:10.659Z</time></trkpt><trkpt lat="43.88545" lon="10.53349"><ele>30.333333333333336</ele><time>2026-04-06T10:47:11.658Z</time></trkpt><trkpt lat="43.8856033" lon="10.5335667"><ele>30.0</ele><time>2026-04-06T10:47:12.658Z</time></trkpt><trkpt lat="43.8857617" lon="10.5336467"><ele>30.333333333333336</ele><time>2026-04-06T10:47:13.658Z</time></trkpt><trkpt lat="43.88592" lon="10.53373"><ele>30.666666666666668</ele><time>2026-04-06T10:47:14.658Z</time></trkpt><trkpt lat="43.8860767" lon="10.533815"><ele>31.0</ele><time>2026-04-06T10:47:15.659Z</time></trkpt><trkpt lat="43.8862367" lon="10.5338983"><ele>31.333333333333336</ele><time>2026-04-06T10:47:16.658Z</time></trkpt><trkpt lat="43.8863983" lon="10.5339783"><ele>31.666666666666664</ele><time>2026-04-06T10:47:17.658Z</time></trkpt><trkpt lat="43.886545" lon="10.5340467"><ele>32.0</ele><time>2026-04-06T10:47:18.658Z</time></trkpt><trkpt lat="43.8867083" lon="10.5341283"><ele>31.333333333333332</ele><time>2026-04-06T10:47:19.658Z</time></trkpt><trkpt lat="43.8868683" lon="10.5342133"><ele>30.666666666666664</ele><time>2026-04-06T10:47:20.658Z</time></trkpt><trkpt lat="43.8870283" lon="10.5343"><ele>30.0</ele><time>2026-04-06T10:47:21.658Z</time></trkpt><trkpt lat="43.887185" lon="10.534385"><ele>30.0</ele><time>2026-04-06T10:47:22.658Z</time></trkpt><trkpt lat="43.8873433" lon="10.53447"><ele>30.0</ele><time>2026-04-06T10:47:23.659Z</time></trkpt><trkpt lat="43.8874983" lon="10.5345533"><ele>30.0</ele><time>2026-04-06T10:47:24.658Z</time></trkpt><trkpt lat="43.887655" lon="10.534635"><ele>30.333333333333336</ele><time>2026-04-06T10:47:25.658Z</time></trkpt><trkpt lat="43.8878133" lon="10.5347133"><ele>30.666666666666668</ele><time>2026-04-06T10:47:26.658Z</time></trkpt><trkpt lat="43.8879667" lon="10.534795"><ele>31.0</ele><time>2026-04-06T10:47:27.658Z</time></trkpt><trkpt lat="43.888115" lon="10.5348767"><ele>31.0</ele><time>2026-04-06T10:47:28.658Z</time></trkpt><trkpt lat="43.8882733" lon="10.534955"><ele>31.0</ele><time>2026-04-06T10:47:29.658Z</time></trkpt><trkpt lat="43.8884317" lon="10.5350333"><ele>31.0</ele><time>2026-04-06T10:47:30.658Z</time></trkpt><trkpt lat="43.8885883" lon="10.5351133"><ele>30.666666666666668</ele><time>2026-04-06T10:47:31.658Z</time></trkpt><trkpt lat="43.8887467" lon="10.5351967"><ele>30.333333333333336</ele><time>2026-04-06T10:47:32.658Z</time></trkpt><trkpt lat="43.8889033" lon="10.5352817"><ele>30.0</ele><time>2026-04-06T10:47:33.658Z</time></trkpt><trkpt lat="43.88906" lon="10.5353683"><ele>30.0</ele><time>2026-04-06T10:47:34.658Z</time></trkpt><trkpt lat="43.8892167" lon="10.53545"><ele>30.0</ele><time>2026-04-06T10:47:35.659Z</time></trkpt><trkpt lat="43.889375" lon="10.5355367"><ele>30.0</ele><time>2026-04-06T10:47:36.658Z</time></trkpt><trkpt lat="43.88953" lon="10.5356183"><ele>30.0</ele><time>2026-04-06T10:47:37.658Z</time></trkpt><trkpt lat="43.8896867" lon="10.5357033"><ele>30.0</ele><time>2026-04-06T10:47:38.658Z</time></trkpt><trkpt lat="43.8898433" lon="10.53579"><ele>30.0</ele><time>2026-04-06T10:47:39.658Z</time></trkpt><trkpt lat="43.8900033" lon="10.535875"><ele>30.0</ele><time>2026-04-06T10:47:40.658Z</time></trkpt><trkpt lat="43.8901617" lon="10.5359583"><ele>30.0</ele><time>2026-04-06T10:47:41.659Z</time></trkpt><trkpt lat="43.89032" lon="10.53604"><ele>30.0</ele><time>2026-04-06T10:47:42.658Z</time></trkpt><trkpt lat="43.8904767" lon="10.53612"><ele>30.0</ele><time>2026-04-06T10:47:43.659Z</time></trkpt><trkpt lat="43.89063" lon="10.5362"><ele>30.0</ele><time>2026-04-06T10:47:44.658Z</time></trkpt><trkpt lat="43.8907817" lon="10.5362817"><ele>30.0</ele><time>2026-04-06T10:47:45.658Z</time></trkpt><trkpt lat="43.8909317" lon="10.53636"><ele>30.666666666666664</ele><time>2026-04-06T10:47:46.658Z</time></trkpt><trkpt lat="43.891085" lon="10.5364367"><ele>31.333333333333332</ele><time>2026-04-06T10:47:47.658Z</time></trkpt><trkpt lat="43.8912383" lon="10.5365117"><ele>32.0</ele><time>2026-04-06T10:47:48.658Z</time></trkpt><trkpt lat="43.8913917" lon="10.5365867"><ele>32.0</ele><time>2026-04-06T10:47:49.658Z</time></trkpt><trkpt lat="43.8915417" lon="10.5366617"><ele>32.0</ele><time>2026-04-06T10:47:50.658Z</time></trkpt><trkpt lat="43.8916883" lon="10.5367383"><ele>32.0</ele><time>2026-04-06T10:47:51.659Z</time></trkpt><trkpt lat="43.891835" lon="10.5368117"><ele>32.33333333333333</ele><time>2026-04-06T10:47:52.659Z</time></trkpt><trkpt lat="43.8919817" lon="10.5368867"><ele>32.666666666666664</ele><time>2026-04-06T10:47:53.658Z</time></trkpt><trkpt lat="43.892125" lon="10.5369533"><ele>33.0</ele><time>2026-04-06T10:47:54.658Z</time></trkpt><trkpt lat="43.89227" lon="10.53702"><ele>33.0</ele><time>2026-04-06T10:47:55.658Z</time></trkpt><trkpt lat="43.8924167" lon="10.5370867"><ele>33.0</ele><time>2026-04-06T10:47:56.659Z</time></trkpt><trkpt lat="43.8925617" lon="10.5371517"><ele>33.0</ele><time>2026-04-06T10:47:57.658Z</time></trkpt><trkpt lat="43.89271" lon="10.5372083"><ele>33.0</ele><time>2026-04-06T10:47:58.658Z</time></trkpt><trkpt lat="43.8928583" lon="10.53726"><ele>33.0</ele><time>2026-04-06T10:47:59.658Z</time></trkpt><trkpt lat="43.89301" lon="10.5373"><ele>33.0</ele><time>2026-04-06T10:48:00.658Z</time></trkpt><trkpt lat="43.8931683" lon="10.5373267"><ele>33.0</ele><time>2026-04-06T10:48:01.658Z</time></trkpt><trkpt lat="43.89333" lon="10.5373417"><ele>33.0</ele><time>2026-04-06T10:48:02.659Z</time></trkpt><trkpt lat="43.89349" lon="10.5373483"><ele>33.0</ele><time>2026-04-06T10:48:03.658Z</time></trkpt><trkpt lat="43.8936533" lon="10.53735"><ele>33.333333333333336</ele><time>2026-04-06T10:48:04.658Z</time></trkpt><trkpt lat="43.8938167" lon="10.5373483"><ele>33.66666666666667</ele><time>2026-04-06T10:48:05.658Z</time></trkpt><trkpt lat="43.8939817" lon="10.5373517"><ele>34.0</ele><time>2026-04-06T10:48:06.658Z</time></trkpt><trkpt lat="43.8941417" lon="10.5373617"><ele>34.333333333333336</ele><time>2026-04-06T10:48:07.658Z</time></trkpt><trkpt lat="43.8943083" lon="10.5373617"><ele>34.666666666666664</ele><time>2026-04-06T10:48:08.658Z</time></trkpt><trkpt lat="43.8944717" lon="10.5373633"><ele>35.0</ele><time>2026-04-06T10:48:09.658Z</time></trkpt><trkpt lat="43.8946283" lon="10.5373667"><ele>35.0</ele><time>2026-04-06T10:48:10.658Z</time></trkpt><trkpt lat="43.8947767" lon="10.5373683"><ele>35.0</ele><time>2026-04-06T10:48:11.658Z</time></trkpt><trkpt lat="43.8949167" lon="10.5373733"><ele>35.0</ele><time>2026-04-06T10:48:12.658Z</time></trkpt><trkpt lat="43.895055" lon="10.5373817"><ele>35.0</ele><time>2026-04-06T10:48:13.658Z</time></trkpt><trkpt lat="43.8951917" lon="10.5373817"><ele>34.5</ele><time>2026-04-06T10:48:14.659Z</time></trkpt><trkpt lat="43.8953167" lon="10.537385"><ele>34.0</ele><time>2026-04-06T10:48:15.658Z</time></trkpt><trkpt lat="43.895435" lon="10.5373767"><ele>33.5</ele><time>2026-04-06T10:48:16.658Z</time></trkpt><trkpt lat="43.8955433" lon="10.5373417"><ele>33.0</ele><time>2026-04-06T10:48:17.658Z</time></trkpt><trkpt lat="43.8956367" lon="10.53727"><ele>33.0</ele><time>2026-04-06T10:48:18.658Z</time></trkpt><trkpt lat="43.8957183" lon="10.5372083"><ele>33.0</ele><time>2026-04-06T10:48:19.658Z</time></trkpt><trkpt lat="43.8957983" lon="10.5371817"><ele>33.0</ele><time>2026-04-06T10:48:20.658Z</time></trkpt><trkpt lat="43.8958833" lon="10.5371783"><ele>33.0</ele><time>2026-04-06T10:48:21.658Z</time></trkpt><trkpt lat="43.8959633" lon="10.5372017"><ele>33.0</ele><time>2026-04-06T10:48:22.658Z</time></trkpt><trkpt lat="43.8960417" lon="10.53725"><ele>33.0</ele><time>2026-04-06T10:48:23.658Z</time></trkpt><trkpt lat="43.8961283" lon="10.5373"><ele>33.199999999999996</ele><time>2026-04-06T10:48:24.658Z</time></trkpt><trkpt lat="43.896215" lon="10.5373317"><ele>33.4</ele><time>2026-04-06T10:48:25.658Z</time></trkpt><trkpt lat="43.896305" lon="10.537335"><ele>33.599999999999994</ele><time>2026-04-06T10:48:26.658Z</time></trkpt><trkpt lat="43.896395" lon="10.5373117"><ele>33.8</ele><time>2026-04-06T10:48:27.658Z</time></trkpt><trkpt lat="43.8964667" lon="10.5372383"><ele>34.0</ele><time>2026-04-06T10:48:28.658Z</time></trkpt><trkpt lat="43.8965267" lon="10.5371333"><ele>33.75</ele><time>2026-04-06T10:48:29.658Z</time></trkpt><trkpt lat="43.8965567" lon="10.5369767"><ele>33.5</ele><time>2026-04-06T10:48:30.658Z</time></trkpt><trkpt lat="43.8965917" lon="10.5368117"><ele>33.25</ele><time>2026-04-06T10:48:31.658Z</time></trkpt><trkpt lat="43.8966433" lon="10.53666"><ele>33.0</ele><time>2026-04-06T10:48:32.659Z</time></trkpt><trkpt lat="43.8967167" lon="10.5365233"><ele>33.0</ele><time>2026-04-06T10:48:33.659Z</time></trkpt><trkpt lat="43.8968033" lon="10.5363933"><ele>33.0</ele><time>2026-04-06T10:48:34.658Z</time></trkpt><trkpt lat="43.8969033" lon="10.5362633"><ele>33.0</ele><time>2026-04-06T10:48:35.658Z</time></trkpt><trkpt lat="43.897005" lon="10.53613"><ele>33.0</ele><time>2026-04-06T10:48:36.658Z</time></trkpt><trkpt lat="43.8971117" lon="10.5359933"><ele>33.25</ele><time>2026-04-06T10:48:37.659Z</time></trkpt><trkpt lat="43.8972167" lon="10.5358517"><ele>33.5</ele><time>2026-04-06T10:48:38.658Z</time></trkpt><trkpt lat="43.8973167" lon="10.5357133"><ele>33.75</ele><time>2026-04-06T10:48:39.658Z</time></trkpt><trkpt lat="43.8974217" lon="10.53557"><ele>34.0</ele><time>2026-04-06T10:48:40.658Z</time></trkpt><trkpt lat="43.8975217" lon="10.53543"><ele>33.75</ele><time>2026-04-06T10:48:41.658Z</time></trkpt><trkpt lat="43.8976267" lon="10.5352867"><ele>33.5</ele><time>2026-04-06T10:48:42.658Z</time></trkpt><trkpt lat="43.8977283" lon="10.5351383"><ele>33.25</ele><time>2026-04-06T10:48:43.658Z</time></trkpt><trkpt lat="43.8978333" lon="10.5349917"><ele>33.0</ele><time>2026-04-06T10:48:44.658Z</time></trkpt><trkpt lat="43.8979367" lon="10.5348467"><ele>33.0</ele><time>2026-04-06T10:48:45.658Z</time></trkpt><trkpt lat="43.8980383" lon="10.5347"><ele>33.0</ele><time>2026-04-06T10:48:46.658Z</time></trkpt><trkpt lat="43.89814" lon="10.53455"><ele>33.0</ele><time>2026-04-06T10:48:47.658Z</time></trkpt><trkpt lat="43.8982383" lon="10.5344033"><ele>33.0</ele><time>2026-04-06T10:48:48.659Z</time></trkpt><trkpt lat="43.89834" lon="10.5342567"><ele>32.5</ele><time>2026-04-06T10:48:49.658Z</time></trkpt><trkpt lat="43.8984417" lon="10.5341167"><ele>32.0</ele><time>2026-04-06T10:48:50.658Z</time></trkpt><trkpt lat="43.89854" lon="10.5339783"><ele>31.5</ele><time>2026-04-06T10:48:51.658Z</time></trkpt><trkpt lat="43.8986383" lon="10.5338333"><ele>31.0</ele><time>2026-04-06T10:48:52.658Z</time></trkpt><trkpt lat="43.898735" lon="10.53369"><ele>32.0</ele><time>2026-04-06T10:48:53.658Z</time></trkpt><trkpt lat="43.8988333" lon="10.5335483"><ele>33.0</ele><time>2026-04-06T10:48:54.658Z</time></trkpt><trkpt lat="43.8989283" lon="10.5334133"><ele>34.0</ele><time>2026-04-06T10:48:55.658Z</time></trkpt><trkpt lat="43.89902" lon="10.533275"><ele>35.0</ele><time>2026-04-06T10:48:56.658Z</time></trkpt><trkpt lat="43.8991067" lon="10.5331417"><ele>35.0</ele><time>2026-04-06T10:48:57.658Z</time></trkpt><trkpt lat="43.8991867" lon="10.53302"><ele>35.0</ele><time>2026-04-06T10:48:58.658Z</time></trkpt><trkpt lat="43.8992533" lon="10.5329233"><ele>35.0</ele><time>2026-04-06T10:48:59.658Z</time></trkpt><trkpt lat="43.8993033" lon="10.5328517"><ele>35.0</ele><time>2026-04-06T10:49:00.658Z</time></trkpt><trkpt lat="43.899365" lon="10.53273"><ele>35.0</ele><time>2026-04-06T10:49:02.659Z</time></trkpt><trkpt lat="43.8993733" lon="10.53258"><ele>35.4</ele><time>2026-04-06T10:49:04.658Z</time></trkpt><trkpt lat="43.899325" lon="10.5324567"><ele>35.8</ele><time>2026-04-06T10:49:06.658Z</time></trkpt><trkpt lat="43.8992267" lon="10.532355"><ele>36.2</ele><time>2026-04-06T10:49:08.658Z</time></trkpt><trkpt lat="43.8991167" lon="10.5323"><ele>36.6</ele><time>2026-04-06T10:49:10.658Z</time></trkpt><trkpt lat="43.8991233" lon="10.5324167"><ele>37.0</ele><time>2026-04-06T10:50:41.659Z</time></trkpt><trkpt lat="43.8991817" lon="10.5324917"><ele>37.0</ele><time>2026-04-06T10:50:42.658Z</time></trkpt><trkpt lat="43.8992283" lon="10.5325617"><ele>37.0</ele><time>2026-04-06T10:50:43.658Z</time></trkpt><trkpt lat="43.8992933" lon="10.5326617"><ele>37.0</ele><time>2026-04-06T10:50:45.658Z</time></trkpt><trkpt lat="43.8993567" lon="10.5327067"><ele>37.0</ele><time>2026-04-06T10:50:47.658Z</time></trkpt><trkpt lat="43.8994683" lon="10.53268"><ele>37.0</ele><time>2026-04-06T10:50:49.658Z</time></trkpt><trkpt lat="43.899535" lon="10.53265"><ele>37.0</ele><time>2026-04-06T10:50:50.659Z</time></trkpt><trkpt lat="43.8996183" lon="10.5325933"><ele>37.0</ele><time>2026-04-06T10:50:51.658Z</time></trkpt><trkpt lat="43.89972" lon="10.5325283"><ele>37.0</ele><time>2026-04-06T10:50:52.659Z</time></trkpt><trkpt lat="43.8998667" lon="10.5324283"><ele>37.0</ele><time>2026-04-06T10:50:53.659Z</time></trkpt><trkpt lat="43.8999933" lon="10.5323717"><ele>37.0</ele><time>2026-04-06T10:50:54.659Z</time></trkpt><trkpt lat="43.9001217" lon="10.532325"><ele>36.75</ele><time>2026-04-06T10:50:55.658Z</time></trkpt><trkpt lat="43.9002567" lon="10.5322833"><ele>36.5</ele><time>2026-04-06T10:50:56.659Z</time></trkpt><trkpt lat="43.9004017" lon="10.5322433"><ele>36.25</ele><time>2026-04-06T10:50:57.658Z</time></trkpt><trkpt lat="43.9005533" lon="10.5322033"><ele>36.0</ele><time>2026-04-06T10:50:58.658Z</time></trkpt><trkpt lat="43.9007067" lon="10.532155"><ele>36.0</ele><time>2026-04-06T10:50:59.658Z</time></trkpt><trkpt lat="43.90086" lon="10.532105"><ele>36.0</ele><time>2026-04-06T10:51:00.658Z</time></trkpt><trkpt lat="43.901015" lon="10.532045"><ele>36.0</ele><time>2026-04-06T10:51:01.658Z</time></trkpt><trkpt lat="43.9011767" lon="10.5319867"><ele>38.666666666666664</ele><time>2026-04-06T10:51:02.658Z</time></trkpt><trkpt lat="43.9013417" lon="10.5319233"><ele>41.33333333333333</ele><time>2026-04-06T10:51:03.658Z</time></trkpt><trkpt lat="43.9015067" lon="10.5318567"><ele>44.0</ele><time>2026-04-06T10:51:04.658Z</time></trkpt><trkpt lat="43.9016683" lon="10.5317817"><ele>41.0</ele><time>2026-04-06T10:51:05.658Z</time></trkpt><trkpt lat="43.9018267" lon="10.5316967"><ele>38.0</ele><time>2026-04-06T10:51:06.658Z</time></trkpt><trkpt lat="43.9019833" lon="10.531605"><ele>35.0</ele><time>2026-04-06T10:51:07.658Z</time></trkpt><trkpt lat="43.9021367" lon="10.5315033"><ele>35.0</ele><time>2026-04-06T10:51:08.658Z</time></trkpt><trkpt lat="43.902285" lon="10.5313917"><ele>35.0</ele><time>2026-04-06T10:51:09.658Z</time></trkpt><trkpt lat="43.9024333" lon="10.53127"><ele>35.0</ele><time>2026-04-06T10:51:10.658Z</time></trkpt><trkpt lat="43.9025833" lon="10.5311417"><ele>36.33333333333333</ele><time>2026-04-06T10:51:11.658Z</time></trkpt><trkpt lat="43.90273" lon="10.5310083"><ele>37.666666666666664</ele><time>2026-04-06T10:51:12.658Z</time></trkpt><trkpt lat="43.90288" lon="10.5308767"><ele>39.0</ele><time>2026-04-06T10:51:13.658Z</time></trkpt><trkpt lat="43.9030267" lon="10.5307417"><ele>39.0</ele><time>2026-04-06T10:51:14.658Z</time></trkpt><trkpt lat="43.90317" lon="10.53061"><ele>39.0</ele><time>2026-04-06T10:51:15.658Z</time></trkpt><trkpt lat="43.9033117" lon="10.53048"><ele>39.0</ele><time>2026-04-06T10:51:16.658Z</time></trkpt><trkpt lat="43.9034533" lon="10.53035"><ele>40.0</ele><time>2026-04-06T10:51:17.658Z</time></trkpt><trkpt lat="43.903595" lon="10.5302217"><ele>41.0</ele><time>2026-04-06T10:51:18.658Z</time></trkpt><trkpt lat="43.90374" lon="10.530085"><ele>42.0</ele><time>2026-04-06T10:51:19.659Z</time></trkpt><trkpt lat="43.9038817" lon="10.52995"><ele>42.0</ele><time>2026-04-06T10:51:20.658Z</time></trkpt><trkpt lat="43.904025" lon="10.5298183"><ele>42.0</ele><time>2026-04-06T10:51:21.659Z</time></trkpt><trkpt lat="43.9041683" lon="10.5296883"><ele>42.0</ele><time>2026-04-06T10:51:22.658Z</time></trkpt><trkpt lat="43.9043133" lon="10.5295583"><ele>40.666666666666664</ele><time>2026-04-06T10:51:23.658Z</time></trkpt><trkpt lat="43.904455" lon="10.52943"><ele>39.33333333333333</ele><time>2026-04-06T10:51:24.658Z</time></trkpt><trkpt lat="43.9046" lon="10.5293"><ele>38.0</ele><time>2026-04-06T10:51:25.658Z</time></trkpt><trkpt lat="43.9047467" lon="10.5291717"><ele>38.0</ele><time>2026-04-06T10:51:26.658Z</time></trkpt><trkpt lat="43.9048933" lon="10.5290483"><ele>38.0</ele><time>2026-04-06T10:51:27.658Z</time></trkpt><trkpt lat="43.9050367" lon="10.52893"><ele>38.0</ele><time>2026-04-06T10:51:28.658Z</time></trkpt><trkpt lat="43.9051867" lon="10.5288183"><ele>42.33333333333333</ele><time>2026-04-06T10:51:29.658Z</time></trkpt><trkpt lat="43.9053367" lon="10.5287117"><ele>46.666666666666664</ele><time>2026-04-06T10:51:30.658Z</time></trkpt><trkpt lat="43.9054883" lon="10.5286133"><ele>51.0</ele><time>2026-04-06T10:51:31.658Z</time></trkpt><trkpt lat="43.9056367" lon="10.5285233"><ele>51.0</ele><time>2026-04-06T10:51:32.658Z</time></trkpt><trkpt lat="43.9057917" lon="10.528445"><ele>51.0</ele><time>2026-04-06T10:51:33.658Z</time></trkpt><trkpt lat="43.9059433" lon="10.5283683"><ele>51.0</ele><time>2026-04-06T10:51:34.658Z</time></trkpt><trkpt lat="43.9061017" lon="10.5282933"><ele>47.0</ele><time>2026-04-06T10:51:35.658Z</time></trkpt><trkpt lat="43.906265" lon="10.5282217"><ele>43.0</ele><time>2026-04-06T10:51:36.658Z</time></trkpt><trkpt lat="43.9064283" lon="10.5281467"><ele>39.0</ele><time>2026-04-06T10:51:37.658Z</time></trkpt><trkpt lat="43.90659" lon="10.52808"><ele>38.0</ele><time>2026-04-06T10:51:38.658Z</time></trkpt><trkpt lat="43.906755" lon="10.5280183"><ele>37.0</ele><time>2026-04-06T10:51:39.658Z</time></trkpt><trkpt lat="43.9069167" lon="10.5279533"><ele>36.0</ele><time>2026-04-06T10:51:40.658Z</time></trkpt><trkpt lat="43.90708" lon="10.5278817"><ele>39.333333333333336</ele><time>2026-04-06T10:51:41.658Z</time></trkpt><trkpt lat="43.9072417" lon="10.5278033"><ele>42.66666666666667</ele><time>2026-04-06T10:51:42.659Z</time></trkpt><trkpt lat="43.9073983" lon="10.5277167"><ele>46.0</ele><time>2026-04-06T10:51:43.658Z</time></trkpt><trkpt lat="43.9075533" lon="10.5276267"><ele>44.66666666666667</ele><time>2026-04-06T10:51:44.658Z</time></trkpt><trkpt lat="43.907705" lon="10.5275267"><ele>43.333333333333336</ele><time>2026-04-06T10:51:45.658Z</time></trkpt><trkpt lat="43.90786" lon="10.527415"><ele>42.0</ele><time>2026-04-06T10:51:46.658Z</time></trkpt><trkpt lat="43.908015" lon="10.52729"><ele>42.0</ele><time>2026-04-06T10:51:47.658Z</time></trkpt><trkpt lat="43.9081667" lon="10.5271583"><ele>42.0</ele><time>2026-04-06T10:51:48.658Z</time></trkpt><trkpt lat="43.90832" lon="10.5270233"><ele>42.0</ele><time>2026-04-06T10:51:49.658Z</time></trkpt><trkpt lat="43.9084883" lon="10.526885"><ele>49.66666666666667</ele><time>2026-04-06T10:51:50.658Z</time></trkpt><trkpt lat="43.9086483" lon="10.52675"><ele>57.333333333333336</ele><time>2026-04-06T10:51:51.658Z</time></trkpt><trkpt lat="43.9088033" lon="10.5266217"><ele>65.0</ele><time>2026-04-06T10:51:52.658Z</time></trkpt><trkpt lat="43.9089567" lon="10.5264983"><ele>65.0</ele><time>2026-04-06T10:51:53.658Z</time></trkpt><trkpt lat="43.9091133" lon="10.5263783"><ele>65.0</ele><time>2026-04-06T10:51:54.659Z</time></trkpt><trkpt lat="43.9092667" lon="10.5262583"><ele>65.0</ele><time>2026-04-06T10:51:55.659Z</time></trkpt><trkpt lat="43.909425" lon="10.5261433"><ele>72.0</ele><time>2026-04-06T10:51:56.658Z</time></trkpt><trkpt lat="43.9095767" lon="10.5260317"><ele>79.0</ele><time>2026-04-06T10:51:57.658Z</time></trkpt><trkpt lat="43.9116567" lon="10.5243167"><ele>71.25</ele><time>2026-04-06T10:52:08.658Z</time></trkpt><trkpt lat="43.9118167" lon="10.5242383"><ele>63.5</ele><time>2026-04-06T10:52:09.658Z</time></trkpt><trkpt lat="43.911885" lon="10.5241917"><ele>55.75</ele><time>2026-04-06T10:52:10.659Z</time></trkpt><trkpt lat="43.9120667" lon="10.524115"><ele>48.0</ele><time>2026-04-06T10:52:11.658Z</time></trkpt><trkpt lat="43.912245" lon="10.5240433"><ele>48.0</ele><time>2026-04-06T10:52:12.658Z</time></trkpt><trkpt lat="43.9124133" lon="10.5239883"><ele>48.0</ele><time>2026-04-06T10:52:13.658Z</time></trkpt><trkpt lat="43.9125783" lon="10.5239383"><ele>48.0</ele><time>2026-04-06T10:52:14.658Z</time></trkpt><trkpt lat="43.91275" lon="10.5238867"><ele>49.33333333333333</ele><time>2026-04-06T10:52:15.659Z</time></trkpt><trkpt lat="43.9129267" lon="10.5238383"><ele>50.666666666666664</ele><time>2026-04-06T10:52:16.658Z</time></trkpt><trkpt lat="43.913105" lon="10.523795"><ele>52.0</ele><time>2026-04-06T10:52:17.658Z</time></trkpt><trkpt lat="43.913285" lon="10.5237533"><ele>56.0</ele><time>2026-04-06T10:52:18.658Z</time></trkpt><trkpt lat="43.9134667" lon="10.5237117"><ele>60.0</ele><time>2026-04-06T10:52:19.658Z</time></trkpt><trkpt lat="43.91365" lon="10.5236717"><ele>64.0</ele><time>2026-04-06T10:52:20.658Z</time></trkpt><trkpt lat="43.913835" lon="10.523635"><ele>64.0</ele><time>2026-04-06T10:52:21.659Z</time></trkpt><trkpt lat="43.9140233" lon="10.5235983"><ele>64.0</ele><time>2026-04-06T10:52:22.658Z</time></trkpt><trkpt lat="43.914205" lon="10.5235667"><ele>64.0</ele><time>2026-04-06T10:52:23.659Z</time></trkpt><trkpt lat="43.9143833" lon="10.52353"><ele>72.33333333333333</ele><time>2026-04-06T10:52:24.658Z</time></trkpt><trkpt lat="43.914555" lon="10.523485"><ele>80.66666666666667</ele><time>2026-04-06T10:52:25.658Z</time></trkpt><trkpt lat="43.9147236" lon="10.5234437"><ele>89.0</ele><time>2026-04-06T10:52:26.658Z</time></trkpt><trkpt lat="43.9148969" lon="10.5234069"><ele>93.66666666666667</ele><time>2026-04-06T10:52:27.658Z</time></trkpt><trkpt lat="43.9150731" lon="10.5233823"><ele>98.33333333333334</ele><time>2026-04-06T10:52:28.658Z</time></trkpt><trkpt lat="43.9152475" lon="10.5233548"><ele>103.0</ele><time>2026-04-06T10:52:29.658Z</time></trkpt><trkpt lat="43.9154225" lon="10.5233274"><ele>103.0</ele><time>2026-04-06T10:52:30.658Z</time></trkpt><trkpt lat="43.9156284" lon="10.5233946"><ele>103.0</ele><time>2026-04-06T10:52:31.658Z</time></trkpt><trkpt lat="43.9158597" lon="10.5235323"><ele>90.5</ele><time>2026-04-06T10:52:32.658Z</time></trkpt><trkpt lat="43.9161149" lon="10.523736"><ele>78.0</ele><time>2026-04-06T10:52:33.658Z</time></trkpt><trkpt lat="43.9163723" lon="10.5239038"><ele>78.0</ele><time>2026-04-06T10:52:34.658Z</time></trkpt><trkpt lat="43.9166258" lon="10.5240425"><ele>78.0</ele><time>2026-04-06T10:52:35.658Z</time></trkpt><trkpt lat="43.916852" lon="10.5241358"><ele>77.0</ele><time>2026-04-06T10:52:36.658Z</time></trkpt><trkpt lat="43.9170723" lon="10.5242184"><ele>76.0</ele><time>2026-04-06T10:52:37.658Z</time></trkpt><trkpt lat="43.9196467" lon="10.5257133"><ele>70.75</ele><time>2026-04-06T10:52:55.658Z</time></trkpt><trkpt lat="43.91978" lon="10.5257733"><ele>65.5</ele><time>2026-04-06T10:52:56.658Z</time></trkpt><trkpt lat="43.9199217" lon="10.5257817"><ele>60.25</ele><time>2026-04-06T10:52:57.658Z</time></trkpt><trkpt lat="43.9200317" lon="10.5257817"><ele>55.0</ele><time>2026-04-06T10:52:58.658Z</time></trkpt><trkpt lat="43.920135" lon="10.52582"><ele>54.5</ele><time>2026-04-06T10:52:59.658Z</time></trkpt><trkpt lat="43.9202333" lon="10.525895"><ele>54.0</ele><time>2026-04-06T10:53:00.658Z</time></trkpt><trkpt lat="43.9203433" lon="10.5259733"><ele>53.5</ele><time>2026-04-06T10:53:01.658Z</time></trkpt><trkpt lat="43.92046" lon="10.5260483"><ele>53.0</ele><time>2026-04-06T10:53:02.658Z</time></trkpt><trkpt lat="43.9205817" lon="10.5261183"><ele>53.0</ele><time>2026-04-06T10:53:03.658Z</time></trkpt><trkpt lat="43.9207067" lon="10.5261983"><ele>53.0</ele><time>2026-04-06T10:53:04.658Z</time></trkpt><trkpt lat="43.9208233" lon="10.52629"><ele>53.0</ele><time>2026-04-06T10:53:05.658Z</time></trkpt><trkpt lat="43.92092" lon="10.5264067"><ele>53.0</ele><time>2026-04-06T10:53:06.658Z</time></trkpt><trkpt lat="43.9209933" lon="10.5265417"><ele>52.0</ele><time>2026-04-06T10:53:07.658Z</time></trkpt><trkpt lat="43.9210533" lon="10.5266883"><ele>51.0</ele><time>2026-04-06T10:53:08.658Z</time></trkpt><trkpt lat="43.9210967" lon="10.5268433"><ele>50.0</ele><time>2026-04-06T10:53:09.658Z</time></trkpt><trkpt lat="43.92114" lon="10.526995"><ele>49.0</ele><time>2026-04-06T10:53:10.658Z</time></trkpt><trkpt lat="43.92117" lon="10.527135"><ele>48.800000000000004</ele><time>2026-04-06T10:53:11.658Z</time></trkpt><trkpt lat="43.9211967" lon="10.5272483"><ele>48.6</ele><time>2026-04-06T10:53:12.658Z</time></trkpt><trkpt lat="43.921245" lon="10.5273883"><ele>48.4</ele><time>2026-04-06T10:53:14.659Z</time></trkpt><trkpt lat="43.9213017" lon="10.5274617"><ele>48.2</ele><time>2026-04-06T10:53:16.658Z</time></trkpt><trkpt lat="43.9214317" lon="10.5274383"><ele>48.0</ele><time>2026-04-06T10:53:18.658Z</time></trkpt><trkpt lat="43.9215183" lon="10.5274133"><ele>48.0</ele><time>2026-04-06T10:53:19.658Z</time></trkpt><trkpt lat="43.92162" lon="10.5273833"><ele>48.0</ele><time>2026-04-06T10:53:20.658Z</time></trkpt><trkpt lat="43.92172" lon="10.52736"><ele>48.0</ele><time>2026-04-06T10:53:21.659Z</time></trkpt><trkpt lat="43.9218217" lon="10.5273333"><ele>48.0</ele><time>2026-04-06T10:53:22.658Z</time></trkpt><trkpt lat="43.9219167" lon="10.5273"><ele>48.0</ele><time>2026-04-06T10:53:23.658Z</time></trkpt><trkpt lat="43.9219967" lon="10.5272767"><ele>47.833333333333336</ele><time>2026-04-06T10:53:24.659Z</time></trkpt><trkpt lat="43.9220667" lon="10.5272483"><ele>47.666666666666664</ele><time>2026-04-06T10:53:25.658Z</time></trkpt><trkpt lat="43.9221567" lon="10.5272067"><ele>47.5</ele><time>2026-04-06T10:53:27.658Z</time></trkpt><trkpt lat="43.92223" lon="10.527205"><ele>47.33333333333333</ele><time>2026-04-06T10:53:29.658Z</time></trkpt><trkpt lat="43.9223383" lon="10.5272067"><ele>47.166666666666664</ele><time>2026-04-06T10:53:31.658Z</time></trkpt><trkpt lat="43.9224017" lon="10.527195"><ele>47.0</ele><time>2026-04-06T10:53:32.658Z</time></trkpt><trkpt lat="43.9224717" lon="10.5271767"><ele>47.0</ele><time>2026-04-06T10:53:33.658Z</time></trkpt><trkpt lat="43.92255" lon="10.527155"><ele>47.0</ele><time>2026-04-06T10:53:34.658Z</time></trkpt><trkpt lat="43.9226333" lon="10.527135"><ele>47.0</ele><time>2026-04-06T10:53:35.658Z</time></trkpt><trkpt lat="43.92272" lon="10.5271133"><ele>47.0</ele><time>2026-04-06T10:53:36.659Z</time></trkpt><trkpt lat="43.9228117" lon="10.527095"><ele>47.0</ele><time>2026-04-06T10:53:37.658Z</time></trkpt><trkpt lat="43.9229017" lon="10.5270817"><ele>47.0</ele><time>2026-04-06T10:53:38.659Z</time></trkpt><trkpt lat="43.92298" lon="10.52707"><ele>48.0</ele><time>2026-04-06T10:53:39.658Z</time></trkpt><trkpt lat="43.9230483" lon="10.5270583"><ele>49.0</ele><time>2026-04-06T10:53:40.658Z</time></trkpt><trkpt lat="43.9231117" lon="10.5270383"><ele>50.0</ele><time>2026-04-06T10:53:41.658Z</time></trkpt><trkpt lat="43.9231783" lon="10.52702"><ele>51.0</ele><time>2026-04-06T10:53:42.658Z</time></trkpt><trkpt lat="43.9232467" lon="10.5270017"><ele>52.0</ele><time>2026-04-06T10:53:43.659Z</time></trkpt><trkpt lat="43.9233233" lon="10.526985"><ele>53.0</ele><time>2026-04-06T10:53:44.658Z</time></trkpt><trkpt lat="43.9234033" lon="10.5269683"><ele>54.0</ele><time>2026-04-06T10:53:45.658Z</time></trkpt><trkpt lat="43.9234867" lon="10.52695"><ele>54.0</ele><time>2026-04-06T10:53:46.658Z</time></trkpt><trkpt lat="43.9235633" lon="10.52693"><ele>54.0</ele><time>2026-04-06T10:53:47.658Z</time></trkpt><trkpt lat="43.923635" lon="10.5269117"><ele>54.0</ele><time>2026-04-06T10:53:48.658Z</time></trkpt><trkpt lat="43.9237517" lon="10.5268767"><ele>54.0</ele><time>2026-04-06T10:53:50.658Z</time></trkpt><trkpt lat="43.9238283" lon="10.5268617"><ele>54.0</ele><time>2026-04-06T10:53:52.658Z</time></trkpt><trkpt lat="43.923895" lon="10.5268317"><ele>54.0</ele><time>2026-04-06T10:53:55.658Z</time></trkpt><trkpt lat="43.9239483" lon="10.526745"><ele>54.0</ele><time>2026-04-06T10:54:11.658Z</time></trkpt><trkpt lat="43.924055" lon="10.526655"><ele>54.0</ele><time>2026-04-06T10:54:13.658Z</time></trkpt><trkpt lat="43.9241183" lon="10.5266067"><ele>54.0</ele><time>2026-04-06T10:54:14.658Z</time></trkpt><trkpt lat="43.9241933" lon="10.5265517"><ele>54.0</ele><time>2026-04-06T10:54:15.658Z</time></trkpt><trkpt lat="43.9242583" lon="10.5264917"><ele>54.0</ele><time>2026-04-06T10:54:16.658Z</time></trkpt><trkpt lat="43.92433" lon="10.5264383"><ele>54.0</ele><time>2026-04-06T10:54:17.658Z</time></trkpt><trkpt lat="43.924405" lon="10.526385"><ele>54.0</ele><time>2026-04-06T10:54:18.658Z</time></trkpt><trkpt lat="43.9244783" lon="10.5263217"><ele>54.0</ele><time>2026-04-06T10:54:19.658Z</time></trkpt><trkpt lat="43.92455" lon="10.526255"><ele>54.0</ele><time>2026-04-06T10:54:20.658Z</time></trkpt><trkpt lat="43.9246167" lon="10.5261783"><ele>54.0</ele><time>2026-04-06T10:54:21.658Z</time></trkpt><trkpt lat="43.9246817" lon="10.5261"><ele>54.0</ele><time>2026-04-06T10:54:22.658Z</time></trkpt><trkpt lat="43.924745" lon="10.5260183"><ele>54.0</ele><time>2026-04-06T10:54:23.658Z</time></trkpt><trkpt lat="43.9248" lon="10.525925"><ele>54.0</ele><time>2026-04-06T10:54:24.658Z</time></trkpt><trkpt lat="43.9248533" lon="10.5258233"><ele>54.0</ele><time>2026-04-06T10:54:25.659Z</time></trkpt><trkpt lat="43.9248983" lon="10.52573"><ele>54.0</ele><time>2026-04-06T10:54:26.658Z</time></trkpt><trkpt lat="43.9249517" lon="10.5256467"><ele>54.0</ele><time>2026-04-06T10:54:27.658Z</time></trkpt><trkpt lat="43.9250117" lon="10.5255567"><ele>54.0</ele><time>2026-04-06T10:54:28.658Z</time></trkpt><trkpt lat="43.9250733" lon="10.5254567"><ele>54.0</ele><time>2026-04-06T10:54:29.659Z</time></trkpt><trkpt lat="43.9251317" lon="10.5253383"><ele>53.6</ele><time>2026-04-06T10:54:30.658Z</time></trkpt><trkpt lat="43.9251883" lon="10.5252133"><ele>53.2</ele><time>2026-04-06T10:54:31.659Z</time></trkpt><trkpt lat="43.9252417" lon="10.5250733"><ele>52.800000000000004</ele><time>2026-04-06T10:54:32.658Z</time></trkpt><trkpt lat="43.92529" lon="10.52493"><ele>52.400000000000006</ele><time>2026-04-06T10:54:33.658Z</time></trkpt><trkpt lat="43.9253317" lon="10.5247867"><ele>52.0</ele><time>2026-04-06T10:54:34.658Z</time></trkpt><trkpt lat="43.925365" lon="10.524645"><ele>51.666666666666664</ele><time>2026-04-06T10:54:35.658Z</time></trkpt><trkpt lat="43.9253867" lon="10.5245167"><ele>51.33333333333333</ele><time>2026-04-06T10:54:36.658Z</time></trkpt><trkpt lat="43.9254017" lon="10.5244083"><ele>51.0</ele><time>2026-04-06T10:54:37.658Z</time></trkpt><trkpt lat="43.9254033" lon="10.52432"><ele>50.66666666666667</ele><time>2026-04-06T10:54:38.659Z</time></trkpt><trkpt lat="43.925405" lon="10.5242233"><ele>50.333333333333336</ele><time>2026-04-06T10:54:39.658Z</time></trkpt><trkpt lat="43.9254083" lon="10.5241133"><ele>50.0</ele><time>2026-04-06T10:54:40.658Z</time></trkpt><trkpt lat="43.92542" lon="10.5239833"><ele>50.0</ele><time>2026-04-06T10:54:41.658Z</time></trkpt><trkpt lat="43.9254367" lon="10.52384"><ele>50.0</ele><time>2026-04-06T10:54:42.658Z</time></trkpt><trkpt lat="43.925445" lon="10.5236967"><ele>50.0</ele><time>2026-04-06T10:54:43.658Z</time></trkpt><trkpt lat="43.9254467" lon="10.5235383"><ele>50.0</ele><time>2026-04-06T10:54:44.659Z</time></trkpt><trkpt lat="43.9254367" lon="10.5233667"><ele>50.0</ele><time>2026-04-06T10:54:45.659Z</time></trkpt><trkpt lat="43.92542" lon="10.5231883"><ele>49.25</ele><time>2026-04-06T10:54:46.658Z</time></trkpt><trkpt lat="43.9253917" lon="10.5230067"><ele>48.5</ele><time>2026-04-06T10:54:47.658Z</time></trkpt><trkpt lat="43.9253583" lon="10.5228167"><ele>47.75</ele><time>2026-04-06T10:54:48.658Z</time></trkpt><trkpt lat="43.9253233" lon="10.5226167"><ele>47.0</ele><time>2026-04-06T10:54:49.659Z</time></trkpt><trkpt lat="43.92529" lon="10.5224133"><ele>47.0</ele><time>2026-04-06T10:54:50.658Z</time></trkpt><trkpt lat="43.92525" lon="10.5222"><ele>47.0</ele><time>2026-04-06T10:54:51.659Z</time></trkpt><trkpt lat="43.9252117" lon="10.5219833"><ele>47.0</ele><time>2026-04-06T10:54:52.659Z</time></trkpt><trkpt lat="43.9251767" lon="10.5217583"><ele>47.33333333333333</ele><time>2026-04-06T10:54:53.658Z</time></trkpt><trkpt lat="43.9251383" lon="10.52154"><ele>47.666666666666664</ele><time>2026-04-06T10:54:54.658Z</time></trkpt><trkpt lat="43.9251017" lon="10.5213183"><ele>48.0</ele><time>2026-04-06T10:54:55.658Z</time></trkpt><trkpt lat="43.925055" lon="10.5211067"><ele>58.33333333333333</ele><time>2026-04-06T10:54:56.658Z</time></trkpt><trkpt lat="43.9250167" lon="10.52089"><ele>68.66666666666666</ele><time>2026-04-06T10:54:57.658Z</time></trkpt><trkpt lat="43.92498" lon="10.5206717"><ele>79.0</ele><time>2026-04-06T10:54:58.658Z</time></trkpt><trkpt lat="43.9249367" lon="10.52045"><ele>78.33333333333333</ele><time>2026-04-06T10:54:59.658Z</time></trkpt><trkpt lat="43.9248867" lon="10.5202367"><ele>77.66666666666667</ele><time>2026-04-06T10:55:00.658Z</time></trkpt><trkpt lat="43.9248383" lon="10.5200317"><ele>77.0</ele><time>2026-04-06T10:55:01.658Z</time></trkpt><trkpt lat="43.924805" lon="10.5198217"><ele>77.0</ele><time>2026-04-06T10:55:02.658Z</time></trkpt><trkpt lat="43.9247883" lon="10.5195967"><ele>77.0</ele><time>2026-04-06T10:55:03.658Z</time></trkpt><trkpt lat="43.924775" lon="10.5193683"><ele>77.0</ele><time>2026-04-06T10:55:04.658Z</time></trkpt><trkpt lat="43.9247733" lon="10.5191383"><ele>73.33333333333334</ele><time>2026-04-06T10:55:05.658Z</time></trkpt><trkpt lat="43.924795" lon="10.5188983"><ele>69.66666666666667</ele><time>2026-04-06T10:55:06.658Z</time></trkpt><trkpt lat="43.9248233" lon="10.518675"><ele>66.0</ele><time>2026-04-06T10:55:07.658Z</time></trkpt><trkpt lat="43.92486" lon="10.518455"><ele>64.66666666666667</ele><time>2026-04-06T10:55:08.658Z</time></trkpt><trkpt lat="43.924915" lon="10.518235"><ele>63.333333333333336</ele><time>2026-04-06T10:55:09.658Z</time></trkpt><trkpt lat="43.9249883" lon="10.5180183"><ele>62.0</ele><time>2026-04-06T10:55:10.658Z</time></trkpt><trkpt lat="43.9250817" lon="10.5178033"><ele>60.0</ele><time>2026-04-06T10:55:11.658Z</time></trkpt><trkpt lat="43.925165" lon="10.5176083"><ele>58.0</ele><time>2026-04-06T10:55:12.658Z</time></trkpt><trkpt lat="43.9252633" lon="10.5174117"><ele>56.0</ele><time>2026-04-06T10:55:13.658Z</time></trkpt><trkpt lat="43.9253683" lon="10.5172167"><ele>58.0</ele><time>2026-04-06T10:55:14.658Z</time></trkpt><trkpt lat="43.9254833" lon="10.5170267"><ele>60.0</ele><time>2026-04-06T10:55:15.658Z</time></trkpt><trkpt lat="43.9255983" lon="10.5168367"><ele>62.0</ele><time>2026-04-06T10:55:16.658Z</time></trkpt><trkpt lat="43.9257183" lon="10.5166483"><ele>62.0</ele><time>2026-04-06T10:55:17.659Z</time></trkpt><trkpt lat="43.9258433" lon="10.51646"><ele>62.0</ele><time>2026-04-06T10:55:18.658Z</time></trkpt><trkpt lat="43.92597" lon="10.51628"><ele>62.0</ele><time>2026-04-06T10:55:19.658Z</time></trkpt><trkpt lat="43.9261" lon="10.51611"><ele>59.66666666666667</ele><time>2026-04-06T10:55:20.658Z</time></trkpt><trkpt lat="43.9262317" lon="10.5159383"><ele>57.33333333333333</ele><time>2026-04-06T10:55:21.658Z</time></trkpt><trkpt lat="43.926365" lon="10.51577"><ele>55.0</ele><time>2026-04-06T10:55:22.659Z</time></trkpt><trkpt lat="43.9265017" lon="10.5156017"><ele>55.0</ele><time>2026-04-06T10:55:23.658Z</time></trkpt><trkpt lat="43.9266283" lon="10.5154383"><ele>55.0</ele><time>2026-04-06T10:55:24.658Z</time></trkpt><trkpt lat="43.9267583" lon="10.5152767"><ele>55.0</ele><time>2026-04-06T10:55:25.658Z</time></trkpt><trkpt lat="43.926895" lon="10.5151033"><ele>55.33333333333333</ele><time>2026-04-06T10:55:26.658Z</time></trkpt><trkpt lat="43.9270283" lon="10.51493"><ele>55.66666666666667</ele><time>2026-04-06T10:55:27.659Z</time></trkpt><trkpt lat="43.9271667" lon="10.5147533"><ele>56.0</ele><time>2026-04-06T10:55:28.659Z</time></trkpt><trkpt lat="43.9273" lon="10.5145817"><ele>56.0</ele><time>2026-04-06T10:55:29.658Z</time></trkpt><trkpt lat="43.92743" lon="10.5144133"><ele>56.0</ele><time>2026-04-06T10:55:30.658Z</time></trkpt><trkpt lat="43.9275617" lon="10.51425"><ele>56.0</ele><time>2026-04-06T10:55:31.658Z</time></trkpt><trkpt lat="43.927685" lon="10.51409"><ele>56.0</ele><time>2026-04-06T10:55:32.658Z</time></trkpt><trkpt lat="43.9278067" lon="10.5139417"><ele>56.0</ele><time>2026-04-06T10:55:33.658Z</time></trkpt><trkpt lat="43.92792" lon="10.5137833"><ele>56.0</ele><time>2026-04-06T10:55:34.658Z</time></trkpt><trkpt lat="43.9280217" lon="10.5136133"><ele>58.66666666666667</ele><time>2026-04-06T10:55:35.658Z</time></trkpt><trkpt lat="43.9281233" lon="10.5134267"><ele>61.33333333333333</ele><time>2026-04-06T10:55:36.658Z</time></trkpt><trkpt lat="43.9282117" lon="10.513225"><ele>64.0</ele><time>2026-04-06T10:55:37.658Z</time></trkpt><trkpt lat="43.928295" lon="10.5130167"><ele>68.33333333333333</ele><time>2026-04-06T10:55:38.658Z</time></trkpt><trkpt lat="43.9283633" lon="10.512795"><ele>72.66666666666667</ele><time>2026-04-06T10:55:39.659Z</time></trkpt><trkpt lat="43.9284183" lon="10.5125667"><ele>77.0</ele><time>2026-04-06T10:55:40.658Z</time></trkpt><trkpt lat="43.928455" lon="10.51233"><ele>69.33333333333334</ele><time>2026-04-06T10:55:41.658Z</time></trkpt><trkpt lat="43.9284717" lon="10.5120983"><ele>61.66666666666667</ele><time>2026-04-06T10:55:42.658Z</time></trkpt><trkpt lat="43.9284583" lon="10.5118767"><ele>54.0</ele><time>2026-04-06T10:55:43.658Z</time></trkpt><trkpt lat="43.9284133" lon="10.5116533"><ele>55.0</ele><time>2026-04-06T10:55:44.658Z</time></trkpt><trkpt lat="43.928345" lon="10.5114417"><ele>56.0</ele><time>2026-04-06T10:55:45.659Z</time></trkpt><trkpt lat="43.9282617" lon="10.5112383"><ele>57.0</ele><time>2026-04-06T10:55:46.658Z</time></trkpt><trkpt lat="43.92817" lon="10.5110333"><ele>57.0</ele><time>2026-04-06T10:55:47.658Z</time></trkpt><trkpt lat="43.928075" lon="10.5108317"><ele>57.0</ele><time>2026-04-06T10:55:48.658Z</time></trkpt><trkpt lat="43.9279817" lon="10.510635"><ele>57.0</ele><time>2026-04-06T10:55:49.658Z</time></trkpt><trkpt lat="43.9278917" lon="10.5104417"><ele>55.33333333333333</ele><time>2026-04-06T10:55:50.658Z</time></trkpt><trkpt lat="43.927815" lon="10.5102567"><ele>53.666666666666664</ele><time>2026-04-06T10:55:51.659Z</time></trkpt><trkpt lat="43.92771" lon="10.5100717"><ele>52.0</ele><time>2026-04-06T10:55:52.659Z</time></trkpt><trkpt lat="43.9275583" lon="10.5099217"><ele>61.33333333333333</ele><time>2026-04-06T10:55:53.658Z</time></trkpt><trkpt lat="43.9274683" lon="10.5097183"><ele>70.66666666666667</ele><time>2026-04-06T10:55:54.658Z</time></trkpt><trkpt lat="43.9274483" lon="10.5094717"><ele>80.0</ele><time>2026-04-06T10:55:55.658Z</time></trkpt><trkpt lat="43.9274617" lon="10.5092083"><ele>80.0</ele><time>2026-04-06T10:55:56.658Z</time></trkpt><trkpt lat="43.9274833" lon="10.508955"><ele>80.0</ele><time>2026-04-06T10:55:57.658Z</time></trkpt><trkpt lat="43.9275167" lon="10.5087033"><ele>80.0</ele><time>2026-04-06T10:55:58.658Z</time></trkpt><trkpt lat="43.9275417" lon="10.5084617"><ele>72.33333333333334</ele><time>2026-04-06T10:55:59.658Z</time></trkpt><trkpt lat="43.9275833" lon="10.5082133"><ele>64.66666666666667</ele><time>2026-04-06T10:56:00.658Z</time></trkpt><trkpt lat="43.9276383" lon="10.5079717"><ele>57.0</ele><time>2026-04-06T10:56:01.658Z</time></trkpt><trkpt lat="43.9277083" lon="10.50774"><ele>57.0</ele><time>2026-04-06T10:56:02.659Z</time></trkpt><trkpt lat="43.92779" lon="10.50752"><ele>57.0</ele><time>2026-04-06T10:56:03.658Z</time></trkpt><trkpt lat="43.9278783" lon="10.507305"><ele>57.0</ele><time>2026-04-06T10:56:04.658Z</time></trkpt><trkpt lat="43.9279667" lon="10.5070933"><ele>63.0</ele><time>2026-04-06T10:56:05.658Z</time></trkpt><trkpt lat="43.928065" lon="10.50689"><ele>69.0</ele><time>2026-04-06T10:56:06.658Z</time></trkpt><trkpt lat="43.928175" lon="10.50669"><ele>75.0</ele><time>2026-04-06T10:56:07.658Z</time></trkpt><trkpt lat="43.9282883" lon="10.5064983"><ele>71.33333333333333</ele><time>2026-04-06T10:56:08.658Z</time></trkpt><trkpt lat="43.928405" lon="10.5063133"><ele>67.66666666666666</ele><time>2026-04-06T10:56:09.658Z</time></trkpt><trkpt lat="43.92852" lon="10.5061417"><ele>64.0</ele><time>2026-04-06T10:56:10.658Z</time></trkpt><trkpt lat="43.9286383" lon="10.5059733"><ele>64.0</ele><time>2026-04-06T10:56:11.658Z</time></trkpt><trkpt lat="43.9287567" lon="10.505805"><ele>64.0</ele><time>2026-04-06T10:56:12.658Z</time></trkpt><trkpt lat="43.9288883" lon="10.5056567"><ele>64.0</ele><time>2026-04-06T10:56:13.658Z</time></trkpt><trkpt lat="43.9290317" lon="10.5055183"><ele>65.33333333333333</ele><time>2026-04-06T10:56:14.658Z</time></trkpt><trkpt lat="43.92918" lon="10.5053933"><ele>66.66666666666667</ele><time>2026-04-06T10:56:15.659Z</time></trkpt><trkpt lat="43.929335" lon="10.50528"><ele>68.0</ele><time>2026-04-06T10:56:16.659Z</time></trkpt><trkpt lat="43.9294683" lon="10.5051817"><ele>68.0</ele><time>2026-04-06T10:56:17.658Z</time></trkpt><trkpt lat="43.9296233" lon="10.505075"><ele>68.0</ele><time>2026-04-06T10:56:18.659Z</time></trkpt><trkpt lat="43.9297817" lon="10.50497"><ele>68.0</ele><time>2026-04-06T10:56:19.658Z</time></trkpt><trkpt lat="43.9299383" lon="10.5048683"><ele>64.0</ele><time>2026-04-06T10:56:20.658Z</time></trkpt><trkpt lat="43.9301017" lon="10.504765"><ele>60.0</ele><time>2026-04-06T10:56:21.658Z</time></trkpt><trkpt lat="43.9302617" lon="10.5046717"><ele>56.0</ele><time>2026-04-06T10:56:22.658Z</time></trkpt><trkpt lat="43.9304167" lon="10.5045917"><ele>58.75</ele><time>2026-04-06T10:56:23.658Z</time></trkpt><trkpt lat="43.9305633" lon="10.5045317"><ele>61.5</ele><time>2026-04-06T10:56:24.659Z</time></trkpt><trkpt lat="43.93071" lon="10.5044883"><ele>64.25</ele><time>2026-04-06T10:56:25.658Z</time></trkpt><trkpt lat="43.9308517" lon="10.5044683"><ele>67.0</ele><time>2026-04-06T10:56:26.658Z</time></trkpt><trkpt lat="43.9309867" lon="10.5044833"><ele>67.0</ele><time>2026-04-06T10:56:27.658Z</time></trkpt><trkpt lat="43.93111" lon="10.5045417"><ele>67.0</ele><time>2026-04-06T10:56:28.659Z</time></trkpt><trkpt lat="43.931225" lon="10.5046233"><ele>67.0</ele><time>2026-04-06T10:56:29.658Z</time></trkpt><trkpt lat="43.9313333" lon="10.5047183"><ele>67.0</ele><time>2026-04-06T10:56:30.658Z</time></trkpt><trkpt lat="43.9314333" lon="10.504815"><ele>66.66666666666666</ele><time>2026-04-06T10:56:31.658Z</time></trkpt><trkpt lat="43.9315183" lon="10.5049"><ele>66.33333333333333</ele><time>2026-04-06T10:56:32.658Z</time></trkpt><trkpt lat="43.931585" lon="10.5049783"><ele>66.0</ele><time>2026-04-06T10:56:33.658Z</time></trkpt><trkpt lat="43.9316417" lon="10.5050383"><ele>65.66666666666667</ele><time>2026-04-06T10:56:34.658Z</time></trkpt><trkpt lat="43.931725" lon="10.5051067"><ele>65.33333333333334</ele><time>2026-04-06T10:56:36.658Z</time></trkpt><trkpt lat="43.9317767" lon="10.5051583"><ele>65.0</ele><time>2026-04-06T10:56:41.658Z</time></trkpt><trkpt lat="43.9318133" lon="10.5052367"><ele>65.0</ele><time>2026-04-06T10:56:44.658Z</time></trkpt><trkpt lat="43.9318083" lon="10.5051267"><ele>65.0</ele><time>2026-04-06T10:57:33.658Z</time></trkpt><trkpt lat="43.93171" lon="10.5050433"><ele>65.0</ele><time>2026-04-06T10:57:35.658Z</time></trkpt><trkpt lat="43.9316417" lon="10.5050017"><ele>65.0</ele><time>2026-04-06T10:57:36.658Z</time></trkpt><trkpt lat="43.9315667" lon="10.5049533"><ele>65.0</ele><time>2026-04-06T10:57:37.658Z</time></trkpt><trkpt lat="43.9314917" lon="10.5048867"><ele>65.0</ele><time>2026-04-06T10:57:38.658Z</time></trkpt><trkpt lat="43.9314117" lon="10.504815"><ele>65.0</ele><time>2026-04-06T10:57:39.658Z</time></trkpt><trkpt lat="43.9313317" lon="10.5047483"><ele>65.0</ele><time>2026-04-06T10:57:40.658Z</time></trkpt><trkpt lat="43.93126" lon="10.50468"><ele>65.0</ele><time>2026-04-06T10:57:41.658Z</time></trkpt><trkpt lat="43.9311967" lon="10.5046217"><ele>65.0</ele><time>2026-04-06T10:57:42.658Z</time></trkpt><trkpt lat="43.9311283" lon="10.504515"><ele>65.0</ele><time>2026-04-06T10:57:44.658Z</time></trkpt><trkpt lat="43.9311267" lon="10.5043917"><ele>65.0</ele><time>2026-04-06T10:57:46.658Z</time></trkpt><trkpt lat="43.9311833" lon="10.5042283"><ele>65.33333333333334</ele><time>2026-04-06T10:57:48.658Z</time></trkpt><trkpt lat="43.93122" lon="10.504115"><ele>65.66666666666667</ele><time>2026-04-06T10:57:49.658Z</time></trkpt><trkpt lat="43.9312533" lon="10.5040017"><ele>66.0</ele><time>2026-04-06T10:57:50.658Z</time></trkpt><trkpt lat="43.9312817" lon="10.50389"><ele>66.33333333333333</ele><time>2026-04-06T10:57:51.658Z</time></trkpt><trkpt lat="43.931295" lon="10.5037817"><ele>66.66666666666666</ele><time>2026-04-06T10:57:52.658Z</time></trkpt><trkpt lat="43.9312933" lon="10.5036767"><ele>67.0</ele><time>2026-04-06T10:57:53.658Z</time></trkpt><trkpt lat="43.9312867" lon="10.503575"><ele>67.16666666666666</ele><time>2026-04-06T10:57:54.658Z</time></trkpt><trkpt lat="43.931265" lon="10.50347"><ele>67.33333333333333</ele><time>2026-04-06T10:57:55.658Z</time></trkpt><trkpt lat="43.931245" lon="10.5033567"><ele>67.5</ele><time>2026-04-06T10:57:56.658Z</time></trkpt><trkpt lat="43.9312217" lon="10.503255"><ele>67.66666666666667</ele><time>2026-04-06T10:57:57.658Z</time></trkpt><trkpt lat="43.931195" lon="10.5031533"><ele>67.83333333333334</ele><time>2026-04-06T10:57:58.658Z</time></trkpt><trkpt lat="43.9311567" lon="10.5030567"><ele>68.0</ele><time>2026-04-06T10:57:59.658Z</time></trkpt><trkpt lat="43.931125" lon="10.5029517"><ele>70.0</ele><time>2026-04-06T10:58:00.658Z</time></trkpt><trkpt lat="43.9310817" lon="10.5028467"><ele>72.0</ele><time>2026-04-06T10:58:01.658Z</time></trkpt><trkpt lat="43.9310283" lon="10.5027317"><ele>74.0</ele><time>2026-04-06T10:58:02.658Z</time></trkpt><trkpt lat="43.9309683" lon="10.502615"><ele>76.0</ele><time>2026-04-06T10:58:03.658Z</time></trkpt><trkpt lat="43.93091" lon="10.5025017"><ele>78.0</ele><time>2026-04-06T10:58:04.658Z</time></trkpt><trkpt lat="43.930845" lon="10.5023967"><ele>78.0</ele><time>2026-04-06T10:58:05.658Z</time></trkpt><trkpt lat="43.93078" lon="10.5022933"><ele>78.0</ele><time>2026-04-06T10:58:06.658Z</time></trkpt><trkpt lat="43.9307067" lon="10.502205"><ele>78.0</ele><time>2026-04-06T10:58:07.659Z</time></trkpt><trkpt lat="43.930625" lon="10.5021333"><ele>78.0</ele><time>2026-04-06T10:58:08.658Z</time></trkpt><trkpt lat="43.930535" lon="10.5020717"><ele>78.0</ele><time>2026-04-06T10:58:09.658Z</time></trkpt><trkpt lat="43.9304383" lon="10.5020133"><ele>77.25</ele><time>2026-04-06T10:58:10.658Z</time></trkpt><trkpt lat="43.9303333" lon="10.5019583"><ele>76.5</ele><time>2026-04-06T10:58:11.658Z</time></trkpt><trkpt lat="43.9302217" lon="10.5019067"><ele>75.75</ele><time>2026-04-06T10:58:12.658Z</time></trkpt><trkpt lat="43.9301067" lon="10.501865"><ele>75.0</ele><time>2026-04-06T10:58:13.658Z</time></trkpt><trkpt lat="43.9299933" lon="10.5018467"><ele>76.16666666666667</ele><time>2026-04-06T10:58:14.658Z</time></trkpt><trkpt lat="43.9298883" lon="10.5018383"><ele>77.33333333333333</ele><time>2026-04-06T10:58:15.658Z</time></trkpt><trkpt lat="43.9297933" lon="10.5018367"><ele>78.5</ele><time>2026-04-06T10:58:16.659Z</time></trkpt><trkpt lat="43.9297117" lon="10.50183"><ele>79.66666666666666</ele><time>2026-04-06T10:58:17.659Z</time></trkpt><trkpt lat="43.929635" lon="10.5018117"><ele>80.83333333333333</ele><time>2026-04-06T10:58:18.658Z</time></trkpt><trkpt lat="43.92956" lon="10.50176"><ele>82.0</ele><time>2026-04-06T10:58:19.659Z</time></trkpt><trkpt lat="43.9294833" lon="10.50172"><ele>82.0</ele><time>2026-04-06T10:58:20.658Z</time></trkpt><trkpt lat="43.92941" lon="10.50169"><ele>82.0</ele><time>2026-04-06T10:58:21.658Z</time></trkpt><trkpt lat="43.9293383" lon="10.501685"><ele>82.0</ele><time>2026-04-06T10:58:22.658Z</time></trkpt><trkpt lat="43.9292533" lon="10.5017017"><ele>82.0</ele><time>2026-04-06T10:58:23.658Z</time></trkpt><trkpt lat="43.929175" lon="10.5016867"><ele>82.0</ele><time>2026-04-06T10:58:24.658Z</time></trkpt><trkpt lat="43.929095" lon="10.5016633"><ele>82.0</ele><time>2026-04-06T10:58:25.658Z</time></trkpt><trkpt lat="43.9290333" lon="10.5016017"><ele>82.6</ele><time>2026-04-06T10:58:26.659Z</time></trkpt><trkpt lat="43.92897" lon="10.50153"><ele>83.19999999999999</ele><time>2026-04-06T10:58:27.658Z</time></trkpt><trkpt lat="43.928905" lon="10.5014383"><ele>83.8</ele><time>2026-04-06T10:58:28.658Z</time></trkpt><trkpt lat="43.9288417" lon="10.5013383"><ele>84.4</ele><time>2026-04-06T10:58:29.658Z</time></trkpt><trkpt lat="43.92878" lon="10.501235"><ele>85.0</ele><time>2026-04-06T10:58:30.659Z</time></trkpt><trkpt lat="43.9287083" lon="10.5011433"><ele>86.4</ele><time>2026-04-06T10:58:31.658Z</time></trkpt><trkpt lat="43.92863" lon="10.5010667"><ele>87.8</ele><time>2026-04-06T10:58:32.658Z</time></trkpt><trkpt lat="43.92855" lon="10.5010117"><ele>89.19999999999999</ele><time>2026-04-06T10:58:33.658Z</time></trkpt><trkpt lat="43.9284433" lon="10.5010083"><ele>90.6</ele><time>2026-04-06T10:58:34.659Z</time></trkpt><trkpt lat="43.9283333" lon="10.5010067"><ele>92.0</ele><time>2026-04-06T10:58:35.658Z</time></trkpt><trkpt lat="43.9282267" lon="10.5009983"><ele>92.0</ele><time>2026-04-06T10:58:36.658Z</time></trkpt><trkpt lat="43.9281267" lon="10.5009667"><ele>92.0</ele><time>2026-04-06T10:58:37.658Z</time></trkpt><trkpt lat="43.92803" lon="10.5009"><ele>92.0</ele><time>2026-04-06T10:58:38.658Z</time></trkpt><trkpt lat="43.9279567" lon="10.5008083"><ele>92.0</ele><time>2026-04-06T10:58:39.658Z</time></trkpt><trkpt lat="43.927895" lon="10.5006917"><ele>92.0</ele><time>2026-04-06T10:58:40.658Z</time></trkpt><trkpt lat="43.9278467" lon="10.50057"><ele>92.0</ele><time>2026-04-06T10:58:41.658Z</time></trkpt><trkpt lat="43.9278117" lon="10.5004367"><ele>92.0</ele><time>2026-04-06T10:58:42.658Z</time></trkpt><trkpt lat="43.927755" lon="10.5003283"><ele>92.0</ele><time>2026-04-06T10:58:43.658Z</time></trkpt><trkpt lat="43.9276733" lon="10.5002433"><ele>92.0</ele><time>2026-04-06T10:58:44.658Z</time></trkpt><trkpt lat="43.9275867" lon="10.500165"><ele>92.0</ele><time>2026-04-06T10:58:45.659Z</time></trkpt><trkpt lat="43.9274933" lon="10.5001117"><ele>92.19999999999999</ele><time>2026-04-06T10:58:46.658Z</time></trkpt><trkpt lat="43.9273867" lon="10.500075"><ele>92.4</ele><time>2026-04-06T10:58:47.658Z</time></trkpt><trkpt lat="43.9272767" lon="10.5000667"><ele>92.6</ele><time>2026-04-06T10:58:48.658Z</time></trkpt><trkpt lat="43.9271733" lon="10.5000617"><ele>92.80000000000001</ele><time>2026-04-06T10:58:49.658Z</time></trkpt><trkpt lat="43.9270733" lon="10.5000567"><ele>93.0</ele><time>2026-04-06T10:58:50.658Z</time></trkpt><trkpt lat="43.9269883" lon="10.5000383"><ele>93.0</ele><time>2026-04-06T10:58:51.658Z</time></trkpt><trkpt lat="43.9269117" lon="10.5000083"><ele>93.0</ele><time>2026-04-06T10:58:52.658Z</time></trkpt><trkpt lat="43.926825" lon="10.4999683"><ele>93.0</ele><time>2026-04-06T10:58:53.658Z</time></trkpt><trkpt lat="43.9267483" lon="10.4999"><ele>93.0</ele><time>2026-04-06T10:58:54.659Z</time></trkpt><trkpt lat="43.92669" lon="10.4998"><ele>93.0</ele><time>2026-04-06T10:58:55.658Z</time></trkpt><trkpt lat="43.926645" lon="10.499685"><ele>93.0</ele><time>2026-04-06T10:58:56.658Z</time></trkpt><trkpt lat="43.9266" lon="10.4995533"><ele>93.2</ele><time>2026-04-06T10:58:57.658Z</time></trkpt><trkpt lat="43.9265633" lon="10.4994083"><ele>93.4</ele><time>2026-04-06T10:58:58.658Z</time></trkpt><trkpt lat="43.9265183" lon="10.4992633"><ele>93.60000000000001</ele><time>2026-04-06T10:58:59.659Z</time></trkpt><trkpt lat="43.926475" lon="10.499125"><ele>93.80000000000001</ele><time>2026-04-06T10:59:00.658Z</time></trkpt><trkpt lat="43.926445" lon="10.49897"><ele>94.0</ele><time>2026-04-06T10:59:01.658Z</time></trkpt><trkpt lat="43.9264283" lon="10.4988117"><ele>95.2</ele><time>2026-04-06T10:59:02.659Z</time></trkpt><trkpt lat="43.926425" lon="10.4986533"><ele>96.4</ele><time>2026-04-06T10:59:03.658Z</time></trkpt><trkpt lat="43.9264233" lon="10.498505"><ele>97.6</ele><time>2026-04-06T10:59:04.658Z</time></trkpt><trkpt lat="43.9264367" lon="10.4983517"><ele>98.8</ele><time>2026-04-06T10:59:05.658Z</time></trkpt><trkpt lat="43.92646" lon="10.4982017"><ele>100.0</ele><time>2026-04-06T10:59:06.658Z</time></trkpt><trkpt lat="43.9264917" lon="10.4980583"><ele>100.00000000000001</ele><time>2026-04-06T10:59:07.658Z</time></trkpt><trkpt lat="43.9265233" lon="10.497955"><ele>100.0</ele><time>2026-04-06T10:59:08.658Z</time></trkpt><trkpt lat="43.926565" lon="10.4978383"><ele>100.0</ele><time>2026-04-06T10:59:15.659Z</time></trkpt><trkpt lat="43.92663" lon="10.4977283"><ele>100.0</ele><time>2026-04-06T10:59:17.659Z</time></trkpt><trkpt lat="43.9266733" lon="10.4976517"><ele>100.00000000000001</ele><time>2026-04-06T10:59:18.659Z</time></trkpt><trkpt lat="43.92672" lon="10.4975633"><ele>100.0</ele><time>2026-04-06T10:59:19.659Z</time></trkpt><trkpt lat="43.9267617" lon="10.4974683"><ele>104.16666666666667</ele><time>2026-04-06T10:59:20.659Z</time></trkpt><trkpt lat="43.926805" lon="10.49737"><ele>108.33333333333334</ele><time>2026-04-06T10:59:21.659Z</time></trkpt><trkpt lat="43.92685" lon="10.49727"><ele>112.5</ele><time>2026-04-06T10:59:22.66Z</time></trkpt><trkpt lat="43.9268917" lon="10.4971667"><ele>116.66666666666666</ele><time>2026-04-06T10:59:23.659Z</time></trkpt><trkpt lat="43.9269383" lon="10.4970633"><ele>120.83333333333333</ele><time>2026-04-06T10:59:24.659Z</time></trkpt><trkpt lat="43.926985" lon="10.496955"><ele>125.0</ele><time>2026-04-06T10:59:25.659Z</time></trkpt><trkpt lat="43.9270183" lon="10.4968467"><ele>124.99999999999999</ele><time>2026-04-06T10:59:26.659Z</time></trkpt><trkpt lat="43.9270483" lon="10.4967383"><ele>125.0</ele><time>2026-04-06T10:59:27.659Z</time></trkpt><trkpt lat="43.9270667" lon="10.4966417"><ele>125.0</ele><time>2026-04-06T10:59:28.659Z</time></trkpt><trkpt lat="43.927065" lon="10.4965417"><ele>125.0</ele><time>2026-04-06T10:59:29.659Z</time></trkpt><trkpt lat="43.927045" lon="10.49644"><ele>124.99999999999999</ele><time>2026-04-06T10:59:30.659Z</time></trkpt><trkpt lat="43.9270133" lon="10.4963283"><ele>125.0</ele><time>2026-04-06T10:59:31.659Z</time></trkpt><trkpt lat="43.9269683" lon="10.4962267"><ele>123.0</ele><time>2026-04-06T10:59:32.66Z</time></trkpt><trkpt lat="43.926915" lon="10.4961367"><ele>121.0</ele><time>2026-04-06T10:59:33.659Z</time></trkpt><trkpt lat="43.9268733" lon="10.4960567"><ele>119.0</ele><time>2026-04-06T10:59:34.659Z</time></trkpt><trkpt lat="43.9268317" lon="10.4959083"><ele>117.0</ele><time>2026-04-06T10:59:36.659Z</time></trkpt><trkpt lat="43.926855" lon="10.4957583"><ele>115.0</ele><time>2026-04-06T10:59:38.659Z</time></trkpt><trkpt lat="43.926925" lon="10.49561"><ele>115.00000000000001</ele><time>2026-04-06T10:59:40.659Z</time></trkpt><trkpt lat="43.9269767" lon="10.4955267"><ele>115.0</ele><time>2026-04-06T10:59:41.659Z</time></trkpt><trkpt lat="43.9270317" lon="10.4954433"><ele>115.0</ele><time>2026-04-06T10:59:42.659Z</time></trkpt><trkpt lat="43.927095" lon="10.4953633"><ele>115.0</ele><time>2026-04-06T10:59:43.659Z</time></trkpt><trkpt lat="43.9271617" lon="10.4952783"><ele>115.00000000000001</ele><time>2026-04-06T10:59:44.659Z</time></trkpt><trkpt lat="43.9272267" lon="10.4951833"><ele>115.0</ele><time>2026-04-06T10:59:45.659Z</time></trkpt><trkpt lat="43.92729" lon="10.495095"><ele>113.8</ele><time>2026-04-06T10:59:46.659Z</time></trkpt><trkpt lat="43.9273667" lon="10.49501"><ele>112.6</ele><time>2026-04-06T10:59:47.659Z</time></trkpt><trkpt lat="43.9274567" lon="10.4949283"><ele>111.4</ele><time>2026-04-06T10:59:48.659Z</time></trkpt><trkpt lat="43.927545" lon="10.4948533"><ele>110.2</ele><time>2026-04-06T10:59:49.659Z</time></trkpt><trkpt lat="43.9276367" lon="10.4947833"><ele>109.0</ele><time>2026-04-06T10:59:50.659Z</time></trkpt><trkpt lat="43.9277267" lon="10.4947167"><ele>111.80000000000001</ele><time>2026-04-06T10:59:51.659Z</time></trkpt><trkpt lat="43.9278133" lon="10.4946367"><ele>114.60000000000001</ele><time>2026-04-06T10:59:52.659Z</time></trkpt><trkpt lat="43.9278867" lon="10.4945433"><ele>117.4</ele><time>2026-04-06T10:59:53.66Z</time></trkpt><trkpt lat="43.9279533" lon="10.494435"><ele>120.2</ele><time>2026-04-06T10:59:54.659Z</time></trkpt><trkpt lat="43.9280133" lon="10.4943183"><ele>123.0</ele><time>2026-04-06T10:59:55.659Z</time></trkpt><trkpt lat="43.9280767" lon="10.4942033"><ele>123.0</ele><time>2026-04-06T10:59:56.659Z</time></trkpt><trkpt lat="43.9281417" lon="10.494085"><ele>123.00000000000001</ele><time>2026-04-06T10:59:57.66Z</time></trkpt><trkpt lat="43.9282167" lon="10.4939717"><ele>123.00000000000001</ele><time>2026-04-06T10:59:58.659Z</time></trkpt><trkpt lat="43.9282983" lon="10.4938683"><ele>123.0</ele><time>2026-04-06T10:59:59.66Z</time></trkpt><trkpt lat="43.928385" lon="10.4937683"><ele>123.0</ele><time>2026-04-06T11:00:00.659Z</time></trkpt><trkpt lat="43.92846" lon="10.49366"><ele>124.4</ele><time>2026-04-06T11:00:01.66Z</time></trkpt><trkpt lat="43.92854" lon="10.49356"><ele>125.80000000000001</ele><time>2026-04-06T11:00:02.659Z</time></trkpt><trkpt lat="43.9286267" lon="10.4934783"><ele>127.2</ele><time>2026-04-06T11:00:03.659Z</time></trkpt><trkpt lat="43.9287167" lon="10.4934117"><ele>128.6</ele><time>2026-04-06T11:00:04.659Z</time></trkpt><trkpt lat="43.928815" lon="10.4933617"><ele>130.0</ele><time>2026-04-06T11:00:05.659Z</time></trkpt><trkpt lat="43.9289133" lon="10.4933167"><ele>130.0</ele><time>2026-04-06T11:00:06.659Z</time></trkpt><trkpt lat="43.9290183" lon="10.4932783"><ele>130.0</ele><time>2026-04-06T11:00:07.659Z</time></trkpt><trkpt lat="43.9291167" lon="10.4932283"><ele>130.0</ele><time>2026-04-06T11:00:08.66Z</time></trkpt><trkpt lat="43.92921" lon="10.4931667"><ele>130.0</ele><time>2026-04-06T11:00:09.659Z</time></trkpt><trkpt lat="43.9293067" lon="10.4930917"><ele>130.0</ele><time>2026-04-06T11:00:10.659Z</time></trkpt><trkpt lat="43.9294067" lon="10.4930167"><ele>130.2</ele><time>2026-04-06T11:00:11.66Z</time></trkpt><trkpt lat="43.9295083" lon="10.4929533"><ele>130.4</ele><time>2026-04-06T11:00:12.659Z</time></trkpt><trkpt lat="43.9296067" lon="10.4929033"><ele>130.6</ele><time>2026-04-06T11:00:13.659Z</time></trkpt><trkpt lat="43.9296967" lon="10.4928583"><ele>130.8</ele><time>2026-04-06T11:00:14.659Z</time></trkpt><trkpt lat="43.9297883" lon="10.4928217"><ele>131.0</ele><time>2026-04-06T11:00:15.659Z</time></trkpt><trkpt lat="43.9298783" lon="10.4927783"><ele>131.0</ele><time>2026-04-06T11:00:16.659Z</time></trkpt><trkpt lat="43.9299683" lon="10.4927267"><ele>131.0</ele><time>2026-04-06T11:00:17.659Z</time></trkpt><trkpt lat="43.9300567" lon="10.4926617"><ele>131.0</ele><time>2026-04-06T11:00:18.659Z</time></trkpt><trkpt lat="43.9301283" lon="10.492575"><ele>131.0</ele><time>2026-04-06T11:00:19.659Z</time></trkpt><trkpt lat="43.9301817" lon="10.4924683"><ele>131.0</ele><time>2026-04-06T11:00:20.66Z</time></trkpt><trkpt lat="43.93023" lon="10.492365"><ele>133.16666666666666</ele><time>2026-04-06T11:00:21.659Z</time></trkpt><trkpt lat="43.930275" lon="10.4922783"><ele>135.33333333333331</ele><time>2026-04-06T11:00:22.659Z</time></trkpt><trkpt lat="43.930325" lon="10.4922117"><ele>137.5</ele><time>2026-04-06T11:00:23.659Z</time></trkpt><trkpt lat="43.9304433" lon="10.4921517"><ele>139.66666666666666</ele><time>2026-04-06T11:00:25.659Z</time></trkpt><trkpt lat="43.9305133" lon="10.4921433"><ele>141.83333333333334</ele><time>2026-04-06T11:00:26.659Z</time></trkpt><trkpt lat="43.9305817" lon="10.492125"><ele>144.0</ele><time>2026-04-06T11:00:27.659Z</time></trkpt><trkpt lat="43.930645" lon="10.4920917"><ele>143.75</ele><time>2026-04-06T11:00:28.659Z</time></trkpt><trkpt lat="43.9307567" lon="10.4919567"><ele>143.5</ele><time>2026-04-06T11:00:30.659Z</time></trkpt><trkpt lat="43.9308083" lon="10.4918483"><ele>143.25</ele><time>2026-04-06T11:00:31.66Z</time></trkpt><trkpt lat="43.9308733" lon="10.49172"><ele>143.0</ele><time>2026-04-06T11:00:32.66Z</time></trkpt><trkpt lat="43.9309317" lon="10.4915933"><ele>143.0</ele><time>2026-04-06T11:00:33.659Z</time></trkpt><trkpt lat="43.93099" lon="10.491485"><ele>143.0</ele><time>2026-04-06T11:00:34.66Z</time></trkpt><trkpt lat="43.9310533" lon="10.4913833"><ele>143.0</ele><time>2026-04-06T11:00:35.659Z</time></trkpt><trkpt lat="43.9311133" lon="10.491305"><ele>143.0</ele><time>2026-04-06T11:00:36.659Z</time></trkpt><trkpt lat="43.931175" lon="10.49126"><ele>143.0</ele><time>2026-04-06T11:00:37.659Z</time></trkpt><trkpt lat="43.9312583" lon="10.4912567"><ele>143.0</ele><time>2026-04-06T11:00:38.659Z</time></trkpt><trkpt lat="43.93134" lon="10.4912817"><ele>143.0</ele><time>2026-04-06T11:00:39.659Z</time></trkpt><trkpt lat="43.931415" lon="10.4913133"><ele>143.0</ele><time>2026-04-06T11:00:40.659Z</time></trkpt><trkpt lat="43.931485" lon="10.4913683"><ele>143.0</ele><time>2026-04-06T11:00:41.659Z</time></trkpt><trkpt lat="43.9315583" lon="10.4914317"><ele>143.0</ele><time>2026-04-06T11:00:42.659Z</time></trkpt><trkpt lat="43.9316317" lon="10.4915"><ele>143.0</ele><time>2026-04-06T11:00:43.659Z</time></trkpt><trkpt lat="43.9317033" lon="10.4915733"><ele>143.0</ele><time>2026-04-06T11:00:44.659Z</time></trkpt><trkpt lat="43.9317683" lon="10.4916483"><ele>143.8</ele><time>2026-04-06T11:00:45.659Z</time></trkpt><trkpt lat="43.9318267" lon="10.4917233"><ele>144.60000000000002</ele><time>2026-04-06T11:00:46.659Z</time></trkpt><trkpt lat="43.931875" lon="10.49179"><ele>145.39999999999998</ele><time>2026-04-06T11:00:47.659Z</time></trkpt><trkpt lat="43.9319633" lon="10.491865"><ele>146.2</ele><time>2026-04-06T11:00:49.659Z</time></trkpt><trkpt lat="43.9320467" lon="10.4918333"><ele>147.0</ele><time>2026-04-06T11:00:51.659Z</time></trkpt><trkpt lat="43.9321567" lon="10.4917317"><ele>147.0</ele><time>2026-04-06T11:00:53.659Z</time></trkpt><trkpt lat="43.93223" lon="10.4916733"><ele>147.0</ele><time>2026-04-06T11:00:54.659Z</time></trkpt><trkpt lat="43.9323083" lon="10.4916267"><ele>147.0</ele><time>2026-04-06T11:00:55.659Z</time></trkpt><trkpt lat="43.9323883" lon="10.4915983"><ele>147.0</ele><time>2026-04-06T11:00:56.659Z</time></trkpt><trkpt lat="43.93247" lon="10.4915883"><ele>147.0</ele><time>2026-04-06T11:00:57.659Z</time></trkpt><trkpt lat="43.93256" lon="10.4915933"><ele>147.0</ele><time>2026-04-06T11:00:58.659Z</time></trkpt><trkpt lat="43.932655" lon="10.49158"><ele>147.33333333333334</ele><time>2026-04-06T11:00:59.659Z</time></trkpt><trkpt lat="43.9327483" lon="10.4915467"><ele>147.66666666666666</ele><time>2026-04-06T11:01:00.659Z</time></trkpt><trkpt lat="43.9328317" lon="10.4915017"><ele>148.0</ele><time>2026-04-06T11:01:01.659Z</time></trkpt><trkpt lat="43.9329117" lon="10.4914483"><ele>148.33333333333331</ele><time>2026-04-06T11:01:02.659Z</time></trkpt><trkpt lat="43.932985" lon="10.4913883"><ele>148.66666666666666</ele><time>2026-04-06T11:01:03.66Z</time></trkpt><trkpt lat="43.9330483" lon="10.4913183"><ele>149.0</ele><time>2026-04-06T11:01:04.659Z</time></trkpt><trkpt lat="43.9331067" lon="10.491245"><ele>149.0</ele><time>2026-04-06T11:01:05.659Z</time></trkpt><trkpt lat="43.93317" lon="10.4911667"><ele>149.0</ele><time>2026-04-06T11:01:06.659Z</time></trkpt><trkpt lat="43.9332433" lon="10.4911017"><ele>149.0</ele><time>2026-04-06T11:01:07.659Z</time></trkpt><trkpt lat="43.933325" lon="10.491055"><ele>149.0</ele><time>2026-04-06T11:01:08.659Z</time></trkpt><trkpt lat="43.9334133" lon="10.4910133"><ele>149.0</ele><time>2026-04-06T11:01:09.659Z</time></trkpt><trkpt lat="43.9335067" lon="10.4909767"><ele>150.33333333333331</ele><time>2026-04-06T11:01:10.659Z</time></trkpt><trkpt lat="43.933595" lon="10.4909467"><ele>151.66666666666666</ele><time>2026-04-06T11:01:11.659Z</time></trkpt><trkpt lat="43.9336817" lon="10.49094"><ele>153.0</ele><time>2026-04-06T11:01:12.659Z</time></trkpt><trkpt lat="43.93376" lon="10.4909583"><ele>154.33333333333334</ele><time>2026-04-06T11:01:13.659Z</time></trkpt><trkpt lat="43.9338367" lon="10.4909883"><ele>155.66666666666669</ele><time>2026-04-06T11:01:14.659Z</time></trkpt><trkpt lat="43.9339167" lon="10.4910533"><ele>157.0</ele><time>2026-04-06T11:01:16.659Z</time></trkpt><trkpt lat="43.9339617" lon="10.4911183"><ele>157.0</ele><time>2026-04-06T11:01:18.659Z</time></trkpt><trkpt lat="43.9340717" lon="10.491135"><ele>157.0</ele><time>2026-04-06T11:01:20.659Z</time></trkpt><trkpt lat="43.93414" lon="10.4911167"><ele>157.0</ele><time>2026-04-06T11:01:21.659Z</time></trkpt><trkpt lat="43.9342083" lon="10.4910783"><ele>157.0</ele><time>2026-04-06T11:01:22.659Z</time></trkpt><trkpt lat="43.9342617" lon="10.491025"><ele>157.0</ele><time>2026-04-06T11:01:23.659Z</time></trkpt><trkpt lat="43.9343117" lon="10.4909367"><ele>157.0</ele><time>2026-04-06T11:01:24.659Z</time></trkpt><trkpt lat="43.93434" lon="10.4908283"><ele>159.2</ele><time>2026-04-06T11:01:25.66Z</time></trkpt><trkpt lat="43.9343667" lon="10.4907017"><ele>161.39999999999998</ele><time>2026-04-06T11:01:26.659Z</time></trkpt><trkpt lat="43.9343967" lon="10.4905667"><ele>163.60000000000002</ele><time>2026-04-06T11:01:27.659Z</time></trkpt><trkpt lat="43.93443" lon="10.4904317"><ele>165.8</ele><time>2026-04-06T11:01:28.659Z</time></trkpt><trkpt lat="43.9344583" lon="10.4902917"><ele>168.0</ele><time>2026-04-06T11:01:29.659Z</time></trkpt><trkpt lat="43.93449" lon="10.4901517"><ele>168.0</ele><time>2026-04-06T11:01:30.659Z</time></trkpt><trkpt lat="43.93452" lon="10.4900067"><ele>168.0</ele><time>2026-04-06T11:01:31.659Z</time></trkpt><trkpt lat="43.9345517" lon="10.4898667"><ele>168.0</ele><time>2026-04-06T11:01:32.659Z</time></trkpt><trkpt lat="43.93458" lon="10.4897267"><ele>168.0</ele><time>2026-04-06T11:01:33.659Z</time></trkpt><trkpt lat="43.9346117" lon="10.4895867"><ele>168.0</ele><time>2026-04-06T11:01:34.659Z</time></trkpt><trkpt lat="43.9346383" lon="10.4894467"><ele>166.8</ele><time>2026-04-06T11:01:35.659Z</time></trkpt><trkpt lat="43.934665" lon="10.4893083"><ele>165.60000000000002</ele><time>2026-04-06T11:01:36.659Z</time></trkpt><trkpt lat="43.9346917" lon="10.48917"><ele>164.39999999999998</ele><time>2026-04-06T11:01:37.659Z</time></trkpt><trkpt lat="43.9347217" lon="10.4890333"><ele>163.2</ele><time>2026-04-06T11:01:38.659Z</time></trkpt><trkpt lat="43.93476" lon="10.4889067"><ele>162.0</ele><time>2026-04-06T11:01:39.659Z</time></trkpt><trkpt lat="43.934805" lon="10.4887867"><ele>160.6</ele><time>2026-04-06T11:01:40.659Z</time></trkpt><trkpt lat="43.9348567" lon="10.48867"><ele>159.2</ele><time>2026-04-06T11:01:41.659Z</time></trkpt><trkpt lat="43.93491" lon="10.4885567"><ele>157.8</ele><time>2026-04-06T11:01:42.659Z</time></trkpt><trkpt lat="43.9349617" lon="10.4884433"><ele>156.4</ele><time>2026-04-06T11:01:43.659Z</time></trkpt><trkpt lat="43.9350083" lon="10.48833"><ele>155.0</ele><time>2026-04-06T11:01:44.659Z</time></trkpt><trkpt lat="43.93505" lon="10.48822"><ele>154.16666666666666</ele><time>2026-04-06T11:01:45.659Z</time></trkpt><trkpt lat="43.935085" lon="10.48812"><ele>153.33333333333331</ele><time>2026-04-06T11:01:46.659Z</time></trkpt><trkpt lat="43.9351217" lon="10.48802"><ele>152.5</ele><time>2026-04-06T11:01:47.659Z</time></trkpt><trkpt lat="43.9351417" lon="10.487925"><ele>151.66666666666666</ele><time>2026-04-06T11:01:48.659Z</time></trkpt><trkpt lat="43.9351483" lon="10.4878283"><ele>150.83333333333334</ele><time>2026-04-06T11:01:49.659Z</time></trkpt><trkpt lat="43.935145" lon="10.487725"><ele>150.0</ele><time>2026-04-06T11:01:50.659Z</time></trkpt><trkpt lat="43.9351317" lon="10.487615"><ele>150.0</ele><time>2026-04-06T11:01:51.66Z</time></trkpt><trkpt lat="43.9351167" lon="10.4875083"><ele>150.0</ele><time>2026-04-06T11:01:52.659Z</time></trkpt><trkpt lat="43.935105" lon="10.487405"><ele>150.0</ele><time>2026-04-06T11:01:53.659Z</time></trkpt><trkpt lat="43.9350933" lon="10.4873133"><ele>150.0</ele><time>2026-04-06T11:01:54.659Z</time></trkpt><trkpt lat="43.9350633" lon="10.487155"><ele>150.0</ele><time>2026-04-06T11:01:56.659Z</time></trkpt><trkpt lat="43.9350467" lon="10.48704"><ele>150.0</ele><time>2026-04-06T11:01:58.659Z</time></trkpt><trkpt lat="43.9350683" lon="10.4869267"><ele>149.0</ele><time>2026-04-06T11:02:00.659Z</time></trkpt><trkpt lat="43.93511" lon="10.486785"><ele>148.0</ele><time>2026-04-06T11:02:02.659Z</time></trkpt><trkpt lat="43.9351367" lon="10.4867033"><ele>147.0</ele><time>2026-04-06T11:02:03.66Z</time></trkpt><trkpt lat="43.93517" lon="10.48662"><ele>146.0</ele><time>2026-04-06T11:02:04.659Z</time></trkpt><trkpt lat="43.935205" lon="10.4865267"><ele>145.0</ele><time>2026-04-06T11:02:05.659Z</time></trkpt><trkpt lat="43.935245" lon="10.4864217"><ele>144.0</ele><time>2026-04-06T11:02:06.66Z</time></trkpt><trkpt lat="43.9352917" lon="10.48631"><ele>145.0</ele><time>2026-04-06T11:02:07.659Z</time></trkpt><trkpt lat="43.935345" lon="10.4861917"><ele>146.0</ele><time>2026-04-06T11:02:08.659Z</time></trkpt><trkpt lat="43.9353983" lon="10.486075"><ele>147.0</ele><time>2026-04-06T11:02:09.66Z</time></trkpt><trkpt lat="43.935455" lon="10.48595"><ele>148.0</ele><time>2026-04-06T11:02:10.659Z</time></trkpt><trkpt lat="43.9355167" lon="10.485825"><ele>149.0</ele><time>2026-04-06T11:02:11.659Z</time></trkpt><trkpt lat="43.9355867" lon="10.4857"><ele>149.0</ele><time>2026-04-06T11:02:12.659Z</time></trkpt><trkpt lat="43.9356617" lon="10.4855867"><ele>149.0</ele><time>2026-04-06T11:02:13.659Z</time></trkpt><trkpt lat="43.9357317" lon="10.4854833"><ele>149.0</ele><time>2026-04-06T11:02:14.659Z</time></trkpt><trkpt lat="43.9357917" lon="10.4853933"><ele>149.0</ele><time>2026-04-06T11:02:15.659Z</time></trkpt><trkpt lat="43.93584" lon="10.4853217"><ele>149.0</ele><time>2026-04-06T11:02:16.659Z</time></trkpt><trkpt lat="43.9359183" lon="10.4852933"><ele>149.0</ele><time>2026-04-06T11:02:18.659Z</time></trkpt><trkpt lat="43.9359583" lon="10.4853683"><ele>149.0</ele><time>2026-04-06T11:02:20.659Z</time></trkpt><trkpt lat="43.93592" lon="10.4854817"><ele>149.0</ele><time>2026-04-06T11:02:22.659Z</time></trkpt><trkpt lat="43.9358633" lon="10.4855567"><ele>149.0</ele><time>2026-04-06T11:02:23.659Z</time></trkpt><trkpt lat="43.93581" lon="10.48564"><ele>149.0</ele><time>2026-04-06T11:02:24.659Z</time></trkpt><trkpt lat="43.9357483" lon="10.4857433"><ele>149.0</ele><time>2026-04-06T11:02:25.659Z</time></trkpt><trkpt lat="43.9357" lon="10.4858617"><ele>149.0</ele><time>2026-04-06T11:02:26.66Z</time></trkpt><trkpt lat="43.9356633" lon="10.485985"><ele>149.0</ele><time>2026-04-06T11:02:27.659Z</time></trkpt><trkpt lat="43.935645" lon="10.486105"><ele>149.0</ele><time>2026-04-06T11:02:28.659Z</time></trkpt><trkpt lat="43.9356267" lon="10.4862167"><ele>149.0</ele><time>2026-04-06T11:02:29.659Z</time></trkpt><trkpt lat="43.9356233" lon="10.4863167"><ele>149.0</ele><time>2026-04-06T11:02:30.659Z</time></trkpt><trkpt lat="43.9356867" lon="10.4864367"><ele>149.0</ele><time>2026-04-06T11:02:32.659Z</time></trkpt><trkpt lat="43.9357733" lon="10.4864317"><ele>149.0</ele><time>2026-04-06T11:02:34.66Z</time></trkpt><trkpt lat="43.9358033" lon="10.4863467"><ele>149.0</ele><time>2026-04-06T11:02:35.659Z</time></trkpt><trkpt lat="43.9358283" lon="10.48621"><ele>149.0</ele><time>2026-04-06T11:02:36.659Z</time></trkpt><trkpt lat="43.935845" lon="10.4860817"><ele>149.0</ele><time>2026-04-06T11:02:37.659Z</time></trkpt><trkpt lat="43.9358767" lon="10.48597"><ele>149.0</ele><time>2026-04-06T11:02:38.659Z</time></trkpt><trkpt lat="43.9359183" lon="10.48585"><ele>149.0</ele><time>2026-04-06T11:02:39.659Z</time></trkpt><trkpt lat="43.9359717" lon="10.485735"><ele>145.0</ele><time>2026-04-06T11:02:40.659Z</time></trkpt><trkpt lat="43.9360217" lon="10.48563"><ele>141.0</ele><time>2026-04-06T11:02:41.659Z</time></trkpt><trkpt lat="43.93607" lon="10.485535"><ele>137.0</ele><time>2026-04-06T11:02:42.659Z</time></trkpt><trkpt lat="43.936105" lon="10.4854517"><ele>133.0</ele><time>2026-04-06T11:02:43.659Z</time></trkpt><trkpt lat="43.936195" lon="10.4854233"><ele>129.0</ele><time>2026-04-06T11:02:45.659Z</time></trkpt><trkpt lat="43.9361967" lon="10.4855533"><ele>125.0</ele><time>2026-04-06T11:02:47.659Z</time></trkpt><trkpt lat="43.9361217" lon="10.48571"><ele>124.16666666666666</ele><time>2026-04-06T11:02:49.659Z</time></trkpt><trkpt lat="43.93607" lon="10.4857983"><ele>123.33333333333333</ele><time>2026-04-06T11:02:50.659Z</time></trkpt><trkpt lat="43.936025" lon="10.4858983"><ele>122.5</ele><time>2026-04-06T11:02:51.659Z</time></trkpt><trkpt lat="43.936" lon="10.4860133"><ele>121.66666666666666</ele><time>2026-04-06T11:02:52.659Z</time></trkpt><trkpt lat="43.9359967" lon="10.4861283"><ele>120.83333333333333</ele><time>2026-04-06T11:02:53.659Z</time></trkpt><trkpt lat="43.9360283" lon="10.4862467"><ele>120.0</ele><time>2026-04-06T11:02:54.659Z</time></trkpt><trkpt lat="43.93604" lon="10.48637"><ele>120.0</ele><time>2026-04-06T11:02:55.659Z</time></trkpt><trkpt lat="43.9360383" lon="10.4864883"><ele>120.0</ele><time>2026-04-06T11:02:56.659Z</time></trkpt><trkpt lat="43.9360183" lon="10.4866033"><ele>120.0</ele><time>2026-04-06T11:02:57.659Z</time></trkpt><trkpt lat="43.9359833" lon="10.4867133"><ele>120.0</ele><time>2026-04-06T11:02:58.659Z</time></trkpt><trkpt lat="43.93595" lon="10.4868183"><ele>120.0</ele><time>2026-04-06T11:02:59.66Z</time></trkpt><trkpt lat="43.9359367" lon="10.48692"><ele>120.0</ele><time>2026-04-06T11:03:00.659Z</time></trkpt><trkpt lat="43.9359433" lon="10.487025"><ele>123.83333333333333</ele><time>2026-04-06T11:03:01.659Z</time></trkpt><trkpt lat="43.9359717" lon="10.48712"><ele>127.66666666666666</ele><time>2026-04-06T11:03:02.659Z</time></trkpt><trkpt lat="43.9360233" lon="10.487195"><ele>131.5</ele><time>2026-04-06T11:03:03.659Z</time></trkpt><trkpt lat="43.9361417" lon="10.4871883"><ele>135.33333333333331</ele><time>2026-04-06T11:03:04.659Z</time></trkpt><trkpt lat="43.93623" lon="10.4871967"><ele>139.16666666666666</ele><time>2026-04-06T11:03:05.659Z</time></trkpt><trkpt lat="43.936315" lon="10.4871833"><ele>143.0</ele><time>2026-04-06T11:03:06.66Z</time></trkpt><trkpt lat="43.9364117" lon="10.487145"><ele>137.25</ele><time>2026-04-06T11:03:07.66Z</time></trkpt><trkpt lat="43.93653" lon="10.48709"><ele>131.5</ele><time>2026-04-06T11:03:08.659Z</time></trkpt><trkpt lat="43.9366583" lon="10.4870317"><ele>125.75</ele><time>2026-04-06T11:03:09.66Z</time></trkpt><trkpt lat="43.9367783" lon="10.4869867"><ele>120.0</ele><time>2026-04-06T11:03:10.659Z</time></trkpt><trkpt lat="43.9368967" lon="10.4869133"><ele>116.75</ele><time>2026-04-06T11:03:11.659Z</time></trkpt><trkpt lat="43.9370067" lon="10.4868483"><ele>113.5</ele><time>2026-04-06T11:03:12.659Z</time></trkpt><trkpt lat="43.9371117" lon="10.48679"><ele>110.25</ele><time>2026-04-06T11:03:13.659Z</time></trkpt><trkpt lat="43.9372183" lon="10.48673"><ele>107.0</ele><time>2026-04-06T11:03:14.659Z</time></trkpt><trkpt lat="43.937325" lon="10.4866783"><ele>107.0</ele><time>2026-04-06T11:03:15.659Z</time></trkpt><trkpt lat="43.9374317" lon="10.4866433"><ele>106.99999999999999</ele><time>2026-04-06T11:03:16.659Z</time></trkpt><trkpt lat="43.93754" lon="10.4866233"><ele>106.99999999999999</ele><time>2026-04-06T11:03:17.659Z</time></trkpt><trkpt lat="43.9376467" lon="10.48661"><ele>107.0</ele><time>2026-04-06T11:03:18.659Z</time></trkpt><trkpt lat="43.9377517" lon="10.4866017"><ele>107.0</ele><time>2026-04-06T11:03:19.659Z</time></trkpt><trkpt lat="43.9378583" lon="10.48659"><ele>105.0</ele><time>2026-04-06T11:03:20.659Z</time></trkpt><trkpt lat="43.937965" lon="10.4865767"><ele>102.99999999999999</ele><time>2026-04-06T11:03:21.659Z</time></trkpt><trkpt lat="43.93807" lon="10.4865767"><ele>101.0</ele><time>2026-04-06T11:03:22.659Z</time></trkpt><trkpt lat="43.9381567" lon="10.4865783"><ele>99.0</ele><time>2026-04-06T11:03:23.659Z</time></trkpt><trkpt lat="43.93823" lon="10.4865683"><ele>97.0</ele><time>2026-04-06T11:03:24.66Z</time></trkpt><trkpt lat="43.93826" lon="10.4864617"><ele>97.0</ele><time>2026-04-06T11:03:26.659Z</time></trkpt><trkpt lat="43.93817" lon="10.4863783"><ele>97.0</ele><time>2026-04-06T11:03:28.66Z</time></trkpt><trkpt lat="43.9380967" lon="10.48635"><ele>97.0</ele><time>2026-04-06T11:03:29.659Z</time></trkpt><trkpt lat="43.9379983" lon="10.4863333"><ele>97.0</ele><time>2026-04-06T11:03:30.659Z</time></trkpt><trkpt lat="43.9378967" lon="10.4863083"><ele>97.0</ele><time>2026-04-06T11:03:31.659Z</time></trkpt><trkpt lat="43.9377867" lon="10.48628"><ele>97.39999999999999</ele><time>2026-04-06T11:03:32.659Z</time></trkpt><trkpt lat="43.9376783" lon="10.4862583"><ele>97.8</ele><time>2026-04-06T11:03:33.659Z</time></trkpt><trkpt lat="43.93757" lon="10.4862467"><ele>98.2</ele><time>2026-04-06T11:03:34.66Z</time></trkpt><trkpt lat="43.9374667" lon="10.4862467"><ele>98.6</ele><time>2026-04-06T11:03:35.66Z</time></trkpt><trkpt lat="43.9373817" lon="10.4862533"><ele>99.0</ele><time>2026-04-06T11:03:36.659Z</time></trkpt><trkpt lat="43.9373067" lon="10.48625"><ele>99.0</ele><time>2026-04-06T11:03:37.659Z</time></trkpt><trkpt lat="43.937205" lon="10.4862167"><ele>99.0</ele><time>2026-04-06T11:03:39.659Z</time></trkpt><trkpt lat="43.93723" lon="10.4861033"><ele>99.0</ele><time>2026-04-06T11:03:41.659Z</time></trkpt><trkpt lat="43.9372917" lon="10.4860483"><ele>99.0</ele><time>2026-04-06T11:03:42.658Z</time></trkpt><trkpt lat="43.9373683" lon="10.48601"><ele>99.0</ele><time>2026-04-06T11:03:43.658Z</time></trkpt><trkpt lat="43.9374567" lon="10.4859717"><ele>99.0</ele><time>2026-04-06T11:03:44.658Z</time></trkpt><trkpt lat="43.93755" lon="10.485935"><ele>97.0</ele><time>2026-04-06T11:03:45.658Z</time></trkpt><trkpt lat="43.9376483" lon="10.4858933"><ele>95.0</ele><time>2026-04-06T11:03:46.658Z</time></trkpt><trkpt lat="43.9377483" lon="10.485855"><ele>93.0</ele><time>2026-04-06T11:03:47.658Z</time></trkpt><trkpt lat="43.937855" lon="10.4858117"><ele>91.0</ele><time>2026-04-06T11:03:48.659Z</time></trkpt><trkpt lat="43.9379683" lon="10.4857717"><ele>89.0</ele><time>2026-04-06T11:03:49.658Z</time></trkpt><trkpt lat="43.9380883" lon="10.4857333"><ele>89.0</ele><time>2026-04-06T11:03:50.658Z</time></trkpt><trkpt lat="43.938205" lon="10.4856933"><ele>89.0</ele><time>2026-04-06T11:03:51.658Z</time></trkpt><trkpt lat="43.9383217" lon="10.4856583"><ele>89.0</ele><time>2026-04-06T11:03:52.658Z</time></trkpt><trkpt lat="43.9384417" lon="10.4856283"><ele>89.0</ele><time>2026-04-06T11:03:53.658Z</time></trkpt><trkpt lat="43.93856" lon="10.4856067"><ele>87.5</ele><time>2026-04-06T11:03:54.658Z</time></trkpt><trkpt lat="43.93868" lon="10.48559"><ele>86.0</ele><time>2026-04-06T11:03:55.658Z</time></trkpt><trkpt lat="43.9387967" lon="10.485585"><ele>84.5</ele><time>2026-04-06T11:03:56.658Z</time></trkpt><trkpt lat="43.93891" lon="10.485585"><ele>83.0</ele><time>2026-04-06T11:03:57.659Z</time></trkpt><trkpt lat="43.93902" lon="10.4855933"><ele>83.0</ele><time>2026-04-06T11:03:58.659Z</time></trkpt><trkpt lat="43.9391283" lon="10.4856083"><ele>83.0</ele><time>2026-04-06T11:03:59.658Z</time></trkpt><trkpt lat="43.93923" lon="10.4856417"><ele>83.0</ele><time>2026-04-06T11:04:00.658Z</time></trkpt><trkpt lat="43.939325" lon="10.4856817"><ele>83.0</ele><time>2026-04-06T11:04:01.658Z</time></trkpt><trkpt lat="43.9394167" lon="10.48573"><ele>83.0</ele><time>2026-04-06T11:04:02.658Z</time></trkpt><trkpt lat="43.9395" lon="10.485795"><ele>83.33333333333334</ele><time>2026-04-06T11:04:03.658Z</time></trkpt><trkpt lat="43.9397183" lon="10.4860767"><ele>83.66666666666667</ele><time>2026-04-06T11:04:06.658Z</time></trkpt><trkpt lat="43.9397867" lon="10.4861833"><ele>84.0</ele><time>2026-04-06T11:04:07.658Z</time></trkpt><trkpt lat="43.9398583" lon="10.4862933"><ele>84.0</ele><time>2026-04-06T11:04:08.658Z</time></trkpt><trkpt lat="43.9399283" lon="10.48641"><ele>84.0</ele><time>2026-04-06T11:04:09.659Z</time></trkpt><trkpt lat="43.9399983" lon="10.4865283"><ele>84.0</ele><time>2026-04-06T11:04:10.658Z</time></trkpt><trkpt lat="43.9400717" lon="10.4866433"><ele>84.0</ele><time>2026-04-06T11:04:11.658Z</time></trkpt><trkpt lat="43.9401467" lon="10.4867617"><ele>84.0</ele><time>2026-04-06T11:04:12.658Z</time></trkpt><trkpt lat="43.9402217" lon="10.4868817"><ele>81.2</ele><time>2026-04-06T11:04:13.658Z</time></trkpt><trkpt lat="43.9402967" lon="10.4869967"><ele>78.4</ele><time>2026-04-06T11:04:14.658Z</time></trkpt><trkpt lat="43.9403733" lon="10.4871033"><ele>75.6</ele><time>2026-04-06T11:04:15.659Z</time></trkpt><trkpt lat="43.9404567" lon="10.4872"><ele>72.8</ele><time>2026-04-06T11:04:16.658Z</time></trkpt><trkpt lat="43.9405533" lon="10.4872767"><ele>70.0</ele><time>2026-04-06T11:04:17.659Z</time></trkpt><trkpt lat="43.9406617" lon="10.4873283"><ele>70.0</ele><time>2026-04-06T11:04:18.658Z</time></trkpt><trkpt lat="43.9407817" lon="10.48736"><ele>70.0</ele><time>2026-04-06T11:04:19.658Z</time></trkpt><trkpt lat="43.9409067" lon="10.4873883"><ele>70.0</ele><time>2026-04-06T11:04:20.658Z</time></trkpt><trkpt lat="43.94103" lon="10.48742"><ele>70.0</ele><time>2026-04-06T11:04:21.658Z</time></trkpt><trkpt lat="43.9411517" lon="10.4874533"><ele>70.0</ele><time>2026-04-06T11:04:22.658Z</time></trkpt><trkpt lat="43.9412683" lon="10.48748"><ele>70.0</ele><time>2026-04-06T11:04:23.658Z</time></trkpt><trkpt lat="43.9413817" lon="10.4875067"><ele>70.0</ele><time>2026-04-06T11:04:24.659Z</time></trkpt><trkpt lat="43.9414833" lon="10.4875317"><ele>70.0</ele><time>2026-04-06T11:04:25.658Z</time></trkpt><trkpt lat="43.941565" lon="10.4875583"><ele>70.0</ele><time>2026-04-06T11:04:26.658Z</time></trkpt><trkpt lat="43.94163" lon="10.4875833"><ele>70.0</ele><time>2026-04-06T11:04:27.658Z</time></trkpt><trkpt lat="43.9417117" lon="10.4876583"><ele>70.0</ele><time>2026-04-06T11:04:29.658Z</time></trkpt><trkpt lat="43.9417483" lon="10.487785"><ele>70.0</ele><time>2026-04-06T11:04:31.658Z</time></trkpt><trkpt lat="43.9417433" lon="10.4878833"><ele>70.0</ele><time>2026-04-06T11:04:32.658Z</time></trkpt><trkpt lat="43.941735" lon="10.4880033"><ele>70.0</ele><time>2026-04-06T11:04:33.659Z</time></trkpt><trkpt lat="43.9417283" lon="10.4881433"><ele>70.75</ele><time>2026-04-06T11:04:34.658Z</time></trkpt><trkpt lat="43.941745" lon="10.4882867"><ele>71.5</ele><time>2026-04-06T11:04:35.658Z</time></trkpt><trkpt lat="43.941775" lon="10.4884317"><ele>72.25</ele><time>2026-04-06T11:04:36.658Z</time></trkpt><trkpt lat="43.9418067" lon="10.4885917"><ele>73.0</ele><time>2026-04-06T11:04:37.658Z</time></trkpt><trkpt lat="43.9418367" lon="10.488765"><ele>73.0</ele><time>2026-04-06T11:04:38.658Z</time></trkpt><trkpt lat="43.9418667" lon="10.4889467"><ele>73.0</ele><time>2026-04-06T11:04:39.658Z</time></trkpt><trkpt lat="43.9419" lon="10.489135"><ele>73.0</ele><time>2026-04-06T11:04:40.658Z</time></trkpt><trkpt lat="43.9419317" lon="10.489325"><ele>73.0</ele><time>2026-04-06T11:04:41.658Z</time></trkpt><trkpt lat="43.9419633" lon="10.4895117"><ele>73.25</ele><time>2026-04-06T11:04:42.659Z</time></trkpt><trkpt lat="43.9419917" lon="10.4897033"><ele>73.5</ele><time>2026-04-06T11:04:43.658Z</time></trkpt><trkpt lat="43.9420233" lon="10.4898867"><ele>73.75</ele><time>2026-04-06T11:04:44.658Z</time></trkpt><trkpt lat="43.9420567" lon="10.4900667"><ele>74.0</ele><time>2026-04-06T11:04:45.658Z</time></trkpt><trkpt lat="43.9420867" lon="10.4902433"><ele>74.0</ele><time>2026-04-06T11:04:46.658Z</time></trkpt><trkpt lat="43.9421167" lon="10.490405"><ele>74.0</ele><time>2026-04-06T11:04:47.658Z</time></trkpt><trkpt lat="43.9421433" lon="10.49056"><ele>74.0</ele><time>2026-04-06T11:04:48.658Z</time></trkpt><trkpt lat="43.9421717" lon="10.4907133"><ele>74.0</ele><time>2026-04-06T11:04:49.658Z</time></trkpt><trkpt lat="43.9421983" lon="10.4908683"><ele>73.5</ele><time>2026-04-06T11:04:50.658Z</time></trkpt><trkpt lat="43.942225" lon="10.4910233"><ele>73.0</ele><time>2026-04-06T11:04:51.658Z</time></trkpt><trkpt lat="43.9422517" lon="10.4911817"><ele>72.5</ele><time>2026-04-06T11:04:52.658Z</time></trkpt><trkpt lat="43.94228" lon="10.4913417"><ele>72.0</ele><time>2026-04-06T11:04:53.658Z</time></trkpt><trkpt lat="43.942305" lon="10.4915083"><ele>70.75</ele><time>2026-04-06T11:04:54.658Z</time></trkpt><trkpt lat="43.94233" lon="10.49168"><ele>69.5</ele><time>2026-04-06T11:04:55.659Z</time></trkpt><trkpt lat="43.9423617" lon="10.49185"><ele>68.25</ele><time>2026-04-06T11:04:56.658Z</time></trkpt><trkpt lat="43.9423917" lon="10.4920283"><ele>67.0</ele><time>2026-04-06T11:04:57.658Z</time></trkpt><trkpt lat="43.9424217" lon="10.4922033"><ele>66.75</ele><time>2026-04-06T11:04:58.658Z</time></trkpt><trkpt lat="43.9424483" lon="10.49238"><ele>66.5</ele><time>2026-04-06T11:04:59.658Z</time></trkpt><trkpt lat="43.9424817" lon="10.492555"><ele>66.25</ele><time>2026-04-06T11:05:00.659Z</time></trkpt><trkpt lat="43.9425167" lon="10.4927317"><ele>66.0</ele><time>2026-04-06T11:05:01.658Z</time></trkpt><trkpt lat="43.9425533" lon="10.4929117"><ele>70.25</ele><time>2026-04-06T11:05:02.658Z</time></trkpt><trkpt lat="43.9425917" lon="10.4931"><ele>74.5</ele><time>2026-04-06T11:05:03.658Z</time></trkpt><trkpt lat="43.9426267" lon="10.4932917"><ele>78.75</ele><time>2026-04-06T11:05:04.658Z</time></trkpt><trkpt lat="43.9426617" lon="10.493485"><ele>83.0</ele><time>2026-04-06T11:05:05.658Z</time></trkpt><trkpt lat="43.9426917" lon="10.49368"><ele>83.25</ele><time>2026-04-06T11:05:06.659Z</time></trkpt><trkpt lat="43.942725" lon="10.4938717"><ele>83.5</ele><time>2026-04-06T11:05:07.658Z</time></trkpt><trkpt lat="43.9427583" lon="10.4940683"><ele>83.75</ele><time>2026-04-06T11:05:08.659Z</time></trkpt><trkpt lat="43.94278" lon="10.4942783"><ele>84.0</ele><time>2026-04-06T11:05:09.658Z</time></trkpt><trkpt lat="43.942815" lon="10.4944717"><ele>81.75</ele><time>2026-04-06T11:05:10.659Z</time></trkpt><trkpt lat="43.9428533" lon="10.4946583"><ele>79.5</ele><time>2026-04-06T11:05:11.658Z</time></trkpt><trkpt lat="43.9428933" lon="10.4948417"><ele>77.25</ele><time>2026-04-06T11:05:12.659Z</time></trkpt><trkpt lat="43.9429317" lon="10.495015"><ele>75.0</ele><time>2026-04-06T11:05:13.658Z</time></trkpt><trkpt lat="43.9429683" lon="10.4951817"><ele>75.0</ele><time>2026-04-06T11:05:14.658Z</time></trkpt><trkpt lat="43.943" lon="10.4953433"><ele>75.0</ele><time>2026-04-06T11:05:15.658Z</time></trkpt><trkpt lat="43.9430267" lon="10.4955"><ele>75.0</ele><time>2026-04-06T11:05:16.658Z</time></trkpt><trkpt lat="43.943045" lon="10.49565"><ele>75.0</ele><time>2026-04-06T11:05:17.658Z</time></trkpt><trkpt lat="43.9430533" lon="10.4957833"><ele>75.0</ele><time>2026-04-06T11:05:18.658Z</time></trkpt><trkpt lat="43.9430383" lon="10.4959033"><ele>73.16666666666667</ele><time>2026-04-06T11:05:19.658Z</time></trkpt><trkpt lat="43.94301" lon="10.49601"><ele>71.33333333333333</ele><time>2026-04-06T11:05:20.658Z</time></trkpt><trkpt lat="43.9429617" lon="10.496095"><ele>69.5</ele><time>2026-04-06T11:05:21.658Z</time></trkpt><trkpt lat="43.9429033" lon="10.4961717"><ele>67.66666666666666</ele><time>2026-04-06T11:05:22.658Z</time></trkpt><trkpt lat="43.942845" lon="10.4962517"><ele>65.83333333333333</ele><time>2026-04-06T11:05:23.658Z</time></trkpt><trkpt lat="43.9427983" lon="10.4963367"><ele>64.0</ele><time>2026-04-06T11:05:24.659Z</time></trkpt><trkpt lat="43.9427733" lon="10.4964183"><ele>64.0</ele><time>2026-04-06T11:05:25.658Z</time></trkpt><trkpt lat="43.9428217" lon="10.4965133"><ele>64.0</ele><time>2026-04-06T11:05:26.658Z</time></trkpt><trkpt lat="43.94288" lon="10.4966"><ele>64.0</ele><time>2026-04-06T11:05:27.658Z</time></trkpt><trkpt lat="43.942955" lon="10.4966633"><ele>64.0</ele><time>2026-04-06T11:05:28.658Z</time></trkpt><trkpt lat="43.94307" lon="10.496665"><ele>64.0</ele><time>2026-04-06T11:05:29.658Z</time></trkpt><trkpt lat="43.9431883" lon="10.49666"><ele>64.0</ele><time>2026-04-06T11:05:30.658Z</time></trkpt><trkpt lat="43.9433133" lon="10.4966567"><ele>64.0</ele><time>2026-04-06T11:05:31.658Z</time></trkpt><trkpt lat="43.943445" lon="10.4966783"><ele>64.0</ele><time>2026-04-06T11:05:32.658Z</time></trkpt><trkpt lat="43.9435767" lon="10.4967233"><ele>64.0</ele><time>2026-04-06T11:05:33.658Z</time></trkpt><trkpt lat="43.9437067" lon="10.4967817"><ele>63.75</ele><time>2026-04-06T11:05:34.658Z</time></trkpt><trkpt lat="43.9438383" lon="10.4968417"><ele>63.5</ele><time>2026-04-06T11:05:35.658Z</time></trkpt><trkpt lat="43.943975" lon="10.4969033"><ele>63.25</ele><time>2026-04-06T11:05:36.658Z</time></trkpt><trkpt lat="43.9441167" lon="10.496975"><ele>63.0</ele><time>2026-04-06T11:05:37.659Z</time></trkpt><trkpt lat="43.9442567" lon="10.4970517"><ele>63.33333333333333</ele><time>2026-04-06T11:05:38.658Z</time></trkpt><trkpt lat="43.9443983" lon="10.4971267"><ele>63.666666666666664</ele><time>2026-04-06T11:05:39.658Z</time></trkpt><trkpt lat="43.944545" lon="10.4972"><ele>64.0</ele><time>2026-04-06T11:05:40.658Z</time></trkpt><trkpt lat="43.9446933" lon="10.4972767"><ele>64.0</ele><time>2026-04-06T11:05:41.658Z</time></trkpt><trkpt lat="43.9448483" lon="10.4973533"><ele>64.0</ele><time>2026-04-06T11:05:42.658Z</time></trkpt><trkpt lat="43.9450033" lon="10.49743"><ele>64.0</ele><time>2026-04-06T11:05:43.658Z</time></trkpt><trkpt lat="43.9451633" lon="10.497505"><ele>68.33333333333333</ele><time>2026-04-06T11:05:44.658Z</time></trkpt><trkpt lat="43.94532" lon="10.4975733"><ele>72.66666666666667</ele><time>2026-04-06T11:05:45.658Z</time></trkpt><trkpt lat="43.9454783" lon="10.4976417"><ele>77.0</ele><time>2026-04-06T11:05:46.658Z</time></trkpt><trkpt lat="43.9456383" lon="10.4976983"><ele>77.0</ele><time>2026-04-06T11:05:47.658Z</time></trkpt><trkpt lat="43.9458" lon="10.4977617"><ele>77.0</ele><time>2026-04-06T11:05:48.659Z</time></trkpt><trkpt lat="43.9459583" lon="10.497825"><ele>77.0</ele><time>2026-04-06T11:05:49.659Z</time></trkpt><trkpt lat="43.9461217" lon="10.4978867"><ele>73.0</ele><time>2026-04-06T11:05:50.658Z</time></trkpt><trkpt lat="43.946285" lon="10.4979533"><ele>69.0</ele><time>2026-04-06T11:05:51.658Z</time></trkpt><trkpt lat="43.946455" lon="10.498015"><ele>65.0</ele><time>2026-04-06T11:05:52.658Z</time></trkpt><trkpt lat="43.9466267" lon="10.4980783"><ele>66.0</ele><time>2026-04-06T11:05:53.658Z</time></trkpt><trkpt lat="43.9467983" lon="10.4981383"><ele>67.0</ele><time>2026-04-06T11:05:54.658Z</time></trkpt><trkpt lat="43.9469683" lon="10.498205"><ele>68.0</ele><time>2026-04-06T11:05:55.658Z</time></trkpt><trkpt lat="43.9471433" lon="10.498275"><ele>68.0</ele><time>2026-04-06T11:05:56.658Z</time></trkpt><trkpt lat="43.94732" lon="10.4983417"><ele>68.0</ele><time>2026-04-06T11:05:57.659Z</time></trkpt><trkpt lat="43.9474983" lon="10.4984117"><ele>68.0</ele><time>2026-04-06T11:05:58.658Z</time></trkpt><trkpt lat="43.9476783" lon="10.4984833"><ele>70.66666666666667</ele><time>2026-04-06T11:05:59.658Z</time></trkpt><trkpt lat="43.9478583" lon="10.49855"><ele>73.33333333333333</ele><time>2026-04-06T11:06:00.658Z</time></trkpt><trkpt lat="43.948035" lon="10.4986183"><ele>76.0</ele><time>2026-04-06T11:06:01.658Z</time></trkpt><trkpt lat="43.94821" lon="10.4986833"><ele>72.33333333333333</ele><time>2026-04-06T11:06:02.658Z</time></trkpt><trkpt lat="43.948385" lon="10.4987517"><ele>68.66666666666667</ele><time>2026-04-06T11:06:03.658Z</time></trkpt><trkpt lat="43.9485617" lon="10.498825"><ele>65.0</ele><time>2026-04-06T11:06:04.658Z</time></trkpt><trkpt lat="43.9487433" lon="10.498895"><ele>65.0</ele><time>2026-04-06T11:06:05.658Z</time></trkpt><trkpt lat="43.9489283" lon="10.49897"><ele>65.0</ele><time>2026-04-06T11:06:06.658Z</time></trkpt><trkpt lat="43.9491183" lon="10.4990433"><ele>65.0</ele><time>2026-04-06T11:06:07.658Z</time></trkpt><trkpt lat="43.949305" lon="10.499125"><ele>65.0</ele><time>2026-04-06T11:06:08.658Z</time></trkpt><trkpt lat="43.9495" lon="10.4991983"><ele>65.0</ele><time>2026-04-06T11:06:09.658Z</time></trkpt><trkpt lat="43.9496917" lon="10.4992767"><ele>65.0</ele><time>2026-04-06T11:06:10.658Z</time></trkpt><trkpt lat="43.9498867" lon="10.499355"><ele>64.66666666666667</ele><time>2026-04-06T11:06:11.658Z</time></trkpt><trkpt lat="43.950085" lon="10.49943"><ele>64.33333333333333</ele><time>2026-04-06T11:06:12.658Z</time></trkpt><trkpt lat="43.9502833" lon="10.4995067"><ele>64.0</ele><time>2026-04-06T11:06:13.658Z</time></trkpt><trkpt lat="43.95048" lon="10.499585"><ele>64.0</ele><time>2026-04-06T11:06:14.659Z</time></trkpt><trkpt lat="43.9506767" lon="10.4996617"><ele>64.0</ele><time>2026-04-06T11:06:15.658Z</time></trkpt><trkpt lat="43.9508717" lon="10.4997367"><ele>64.0</ele><time>2026-04-06T11:06:16.658Z</time></trkpt><trkpt lat="43.951065" lon="10.4998133"><ele>63.666666666666664</ele><time>2026-04-06T11:06:17.658Z</time></trkpt><trkpt lat="43.9512533" lon="10.4998917"><ele>63.33333333333333</ele><time>2026-04-06T11:06:18.658Z</time></trkpt><trkpt lat="43.9514433" lon="10.49997"><ele>63.0</ele><time>2026-04-06T11:06:19.658Z</time></trkpt><trkpt lat="43.95163" lon="10.5000517"><ele>63.33333333333333</ele><time>2026-04-06T11:06:20.658Z</time></trkpt><trkpt lat="43.951815" lon="10.50014"><ele>63.666666666666664</ele><time>2026-04-06T11:06:21.658Z</time></trkpt><trkpt lat="43.952005" lon="10.5002283"><ele>64.0</ele><time>2026-04-06T11:06:22.659Z</time></trkpt><trkpt lat="43.9521883" lon="10.5003217"><ele>64.0</ele><time>2026-04-06T11:06:23.659Z</time></trkpt><trkpt lat="43.9523717" lon="10.5004183"><ele>64.0</ele><time>2026-04-06T11:06:24.658Z</time></trkpt><trkpt lat="43.9525517" lon="10.50052"><ele>64.0</ele><time>2026-04-06T11:06:25.658Z</time></trkpt><trkpt lat="43.9527283" lon="10.5006267"><ele>64.33333333333333</ele><time>2026-04-06T11:06:26.658Z</time></trkpt><trkpt lat="43.9529017" lon="10.5007367"><ele>64.66666666666667</ele><time>2026-04-06T11:06:27.658Z</time></trkpt><trkpt lat="43.953075" lon="10.50085"><ele>65.0</ele><time>2026-04-06T11:06:28.658Z</time></trkpt><trkpt lat="43.9532483" lon="10.500965"><ele>65.33333333333334</ele><time>2026-04-06T11:06:29.658Z</time></trkpt><trkpt lat="43.9534183" lon="10.50108"><ele>65.66666666666667</ele><time>2026-04-06T11:06:30.658Z</time></trkpt><trkpt lat="43.95359" lon="10.5011883"><ele>66.0</ele><time>2026-04-06T11:06:31.658Z</time></trkpt><trkpt lat="43.9537583" lon="10.5012967"><ele>65.66666666666667</ele><time>2026-04-06T11:06:32.658Z</time></trkpt><trkpt lat="43.953925" lon="10.5014133"><ele>65.33333333333334</ele><time>2026-04-06T11:06:33.658Z</time></trkpt><trkpt lat="43.95409" lon="10.5015267"><ele>65.0</ele><time>2026-04-06T11:06:34.658Z</time></trkpt><trkpt lat="43.9542533" lon="10.5016433"><ele>65.0</ele><time>2026-04-06T11:06:35.658Z</time></trkpt><trkpt lat="43.9544167" lon="10.5017617"><ele>65.0</ele><time>2026-04-06T11:06:36.659Z</time></trkpt><trkpt lat="43.9545783" lon="10.5018783"><ele>65.0</ele><time>2026-04-06T11:06:37.658Z</time></trkpt><trkpt lat="43.95474" lon="10.501995"><ele>64.66666666666667</ele><time>2026-04-06T11:06:38.659Z</time></trkpt><trkpt lat="43.9549017" lon="10.5021117"><ele>64.33333333333333</ele><time>2026-04-06T11:06:39.658Z</time></trkpt><trkpt lat="43.9550633" lon="10.5022283"><ele>64.0</ele><time>2026-04-06T11:06:40.658Z</time></trkpt><trkpt lat="43.9552233" lon="10.5023467"><ele>64.0</ele><time>2026-04-06T11:06:41.658Z</time></trkpt><trkpt lat="43.9553867" lon="10.502465"><ele>64.0</ele><time>2026-04-06T11:06:42.658Z</time></trkpt><trkpt lat="43.95555" lon="10.5025767"><ele>64.0</ele><time>2026-04-06T11:06:43.658Z</time></trkpt><trkpt lat="43.9557133" lon="10.5026933"><ele>64.33333333333333</ele><time>2026-04-06T11:06:44.658Z</time></trkpt><trkpt lat="43.955875" lon="10.502815"><ele>64.66666666666667</ele><time>2026-04-06T11:06:45.658Z</time></trkpt><trkpt lat="43.9560383" lon="10.502935"><ele>65.0</ele><time>2026-04-06T11:06:46.658Z</time></trkpt><trkpt lat="43.9562" lon="10.503055"><ele>65.33333333333334</ele><time>2026-04-06T11:06:47.658Z</time></trkpt><trkpt lat="43.9563617" lon="10.503175"><ele>65.66666666666667</ele><time>2026-04-06T11:06:48.658Z</time></trkpt><trkpt lat="43.9565233" lon="10.50329"><ele>66.0</ele><time>2026-04-06T11:06:49.658Z</time></trkpt><trkpt lat="43.956686" lon="10.5034058"><ele>66.66666666666667</ele><time>2026-04-06T11:06:50.658Z</time></trkpt><trkpt lat="43.9568457" lon="10.5035224"><ele>67.33333333333334</ele><time>2026-04-06T11:06:51.658Z</time></trkpt><trkpt lat="43.9570041" lon="10.5036432"><ele>68.0</ele><time>2026-04-06T11:06:52.658Z</time></trkpt><trkpt lat="43.9571613" lon="10.5037669"><ele>68.33333333333334</ele><time>2026-04-06T11:06:53.658Z</time></trkpt><trkpt lat="43.9573182" lon="10.5038861"><ele>68.66666666666667</ele><time>2026-04-06T11:06:54.659Z</time></trkpt><trkpt lat="43.9574706" lon="10.5040017"><ele>69.0</ele><time>2026-04-06T11:06:55.658Z</time></trkpt><trkpt lat="43.9576188" lon="10.5041125"><ele>69.25</ele><time>2026-04-06T11:06:56.658Z</time></trkpt><trkpt lat="43.95776" lon="10.5042184"><ele>69.5</ele><time>2026-04-06T11:06:57.658Z</time></trkpt><trkpt lat="43.9578907" lon="10.5043161"><ele>69.75</ele><time>2026-04-06T11:06:58.658Z</time></trkpt><trkpt lat="43.9580121" lon="10.504409"><ele>70.0</ele><time>2026-04-06T11:06:59.658Z</time></trkpt><trkpt lat="43.9581198" lon="10.5045058"><ele>70.0</ele><time>2026-04-06T11:07:00.659Z</time></trkpt><trkpt lat="43.958211" lon="10.5046198"><ele>70.0</ele><time>2026-04-06T11:07:01.658Z</time></trkpt><trkpt lat="43.9582919" lon="10.5047374"><ele>70.0</ele><time>2026-04-06T11:07:02.659Z</time></trkpt><trkpt lat="43.9583733" lon="10.5048421"><ele>70.0</ele><time>2026-04-06T11:07:03.658Z</time></trkpt><trkpt lat="43.9584668" lon="10.5049246"><ele>70.25</ele><time>2026-04-06T11:07:04.658Z</time></trkpt><trkpt lat="43.9585767" lon="10.5049881"><ele>70.5</ele><time>2026-04-06T11:07:05.658Z</time></trkpt><trkpt lat="43.9586945" lon="10.5050586"><ele>70.75</ele><time>2026-04-06T11:07:06.658Z</time></trkpt><trkpt lat="43.9588118" lon="10.5051548"><ele>71.0</ele><time>2026-04-06T11:07:07.658Z</time></trkpt><trkpt lat="43.9589262" lon="10.505279"><ele>71.25</ele><time>2026-04-06T11:07:08.658Z</time></trkpt><trkpt lat="43.9590365" lon="10.5054145"><ele>71.5</ele><time>2026-04-06T11:07:09.658Z</time></trkpt><trkpt lat="43.9591403" lon="10.5055492"><ele>71.75</ele><time>2026-04-06T11:07:10.658Z</time></trkpt><trkpt lat="43.9592372" lon="10.5056809"><ele>72.0</ele><time>2026-04-06T11:07:11.658Z</time></trkpt><trkpt lat="43.9593291" lon="10.5058138"><ele>72.5</ele><time>2026-04-06T11:07:12.659Z</time></trkpt><trkpt lat="43.9594254" lon="10.5059492"><ele>73.0</ele><time>2026-04-06T11:07:13.658Z</time></trkpt><trkpt lat="43.9595292" lon="10.5060908"><ele>73.5</ele><time>2026-04-06T11:07:14.658Z</time></trkpt><trkpt lat="43.9596406" lon="10.5062346"><ele>74.0</ele><time>2026-04-06T11:07:15.658Z</time></trkpt><trkpt lat="43.959747" lon="10.5063831"><ele>74.0</ele><time>2026-04-06T11:07:16.658Z</time></trkpt><trkpt lat="43.9598534" lon="10.5065288"><ele>74.0</ele><time>2026-04-06T11:07:17.658Z</time></trkpt><trkpt lat="43.9599588" lon="10.5066727"><ele>74.0</ele><time>2026-04-06T11:07:18.658Z</time></trkpt><trkpt lat="43.9600683" lon="10.5068137"><ele>74.0</ele><time>2026-04-06T11:07:19.658Z</time></trkpt><trkpt lat="43.9601809" lon="10.5069532"><ele>73.5</ele><time>2026-04-06T11:07:20.658Z</time></trkpt><trkpt lat="43.9602906" lon="10.5070924"><ele>73.0</ele><time>2026-04-06T11:07:21.659Z</time></trkpt><trkpt lat="43.9603979" lon="10.5072298"><ele>72.5</ele><time>2026-04-06T11:07:22.658Z</time></trkpt><trkpt lat="43.9605033" lon="10.5073683"><ele>72.0</ele><time>2026-04-06T11:07:23.658Z</time></trkpt><trkpt lat="43.9606083" lon="10.5075067"><ele>72.0</ele><time>2026-04-06T11:07:24.659Z</time></trkpt><trkpt lat="43.960715" lon="10.507645"><ele>72.0</ele><time>2026-04-06T11:07:25.658Z</time></trkpt><trkpt lat="43.9608233" lon="10.5077833"><ele>72.0</ele><time>2026-04-06T11:07:26.658Z</time></trkpt><trkpt lat="43.96093" lon="10.5079167"><ele>72.0</ele><time>2026-04-06T11:07:27.658Z</time></trkpt><trkpt lat="43.9610367" lon="10.5080533"><ele>72.0</ele><time>2026-04-06T11:07:28.658Z</time></trkpt><trkpt lat="43.9611433" lon="10.5081933"><ele>72.0</ele><time>2026-04-06T11:07:29.658Z</time></trkpt><trkpt lat="43.96125" lon="10.5083267"><ele>72.0</ele><time>2026-04-06T11:07:30.658Z</time></trkpt><trkpt lat="43.961355" lon="10.5084633"><ele>72.0</ele><time>2026-04-06T11:07:31.658Z</time></trkpt><trkpt lat="43.96146" lon="10.5086"><ele>72.0</ele><time>2026-04-06T11:07:32.659Z</time></trkpt><trkpt lat="43.9615667" lon="10.508735"><ele>72.0</ele><time>2026-04-06T11:07:33.658Z</time></trkpt><trkpt lat="43.9616733" lon="10.5088717"><ele>72.0</ele><time>2026-04-06T11:07:34.658Z</time></trkpt><trkpt lat="43.9617783" lon="10.50901"><ele>72.0</ele><time>2026-04-06T11:07:35.658Z</time></trkpt><trkpt lat="43.961885" lon="10.5091483"><ele>72.0</ele><time>2026-04-06T11:07:36.659Z</time></trkpt><trkpt lat="43.9619917" lon="10.5092867"><ele>72.0</ele><time>2026-04-06T11:07:37.658Z</time></trkpt><trkpt lat="43.9620983" lon="10.5094233"><ele>72.0</ele><time>2026-04-06T11:07:38.659Z</time></trkpt><trkpt lat="43.9622067" lon="10.5095617"><ele>72.0</ele><time>2026-04-06T11:07:39.659Z</time></trkpt><trkpt lat="43.9623167" lon="10.5097"><ele>71.75</ele><time>2026-04-06T11:07:40.658Z</time></trkpt><trkpt lat="43.962425" lon="10.5098367"><ele>71.5</ele><time>2026-04-06T11:07:41.659Z</time></trkpt><trkpt lat="43.9625333" lon="10.509975"><ele>71.25</ele><time>2026-04-06T11:07:42.658Z</time></trkpt><trkpt lat="43.9626383" lon="10.510115"><ele>71.0</ele><time>2026-04-06T11:07:43.658Z</time></trkpt><trkpt lat="43.962745" lon="10.510255"><ele>71.0</ele><time>2026-04-06T11:07:44.658Z</time></trkpt><trkpt lat="43.96285" lon="10.510395"><ele>71.0</ele><time>2026-04-06T11:07:45.659Z</time></trkpt><trkpt lat="43.9629533" lon="10.5105317"><ele>71.0</ele><time>2026-04-06T11:07:46.658Z</time></trkpt><trkpt lat="43.9630567" lon="10.5106667"><ele>71.0</ele><time>2026-04-06T11:07:47.658Z</time></trkpt><trkpt lat="43.96316" lon="10.5108017"><ele>71.0</ele><time>2026-04-06T11:07:48.658Z</time></trkpt><trkpt lat="43.96326" lon="10.510935"><ele>71.0</ele><time>2026-04-06T11:07:49.659Z</time></trkpt><trkpt lat="43.96336" lon="10.5110667"><ele>71.0</ele><time>2026-04-06T11:07:50.658Z</time></trkpt><trkpt lat="43.9634567" lon="10.5111983"><ele>71.0</ele><time>2026-04-06T11:07:51.658Z</time></trkpt><trkpt lat="43.9635533" lon="10.51133"><ele>71.75</ele><time>2026-04-06T11:07:52.658Z</time></trkpt><trkpt lat="43.9636483" lon="10.5114617"><ele>72.5</ele><time>2026-04-06T11:07:53.659Z</time></trkpt><trkpt lat="43.963745" lon="10.5115933"><ele>73.25</ele><time>2026-04-06T11:07:54.659Z</time></trkpt><trkpt lat="43.9638417" lon="10.51172"><ele>74.0</ele><time>2026-04-06T11:07:55.658Z</time></trkpt><trkpt lat="43.96394" lon="10.5118467"><ele>74.0</ele><time>2026-04-06T11:07:56.658Z</time></trkpt><trkpt lat="43.9640383" lon="10.5119733"><ele>74.0</ele><time>2026-04-06T11:07:57.658Z</time></trkpt><trkpt lat="43.9641367" lon="10.5120983"><ele>74.0</ele><time>2026-04-06T11:07:58.658Z</time></trkpt><trkpt lat="43.9642317" lon="10.5122217"><ele>74.0</ele><time>2026-04-06T11:07:59.658Z</time></trkpt><trkpt lat="43.9643267" lon="10.5123383"><ele>73.75</ele><time>2026-04-06T11:08:00.658Z</time></trkpt><trkpt lat="43.96442" lon="10.5124583"><ele>73.5</ele><time>2026-04-06T11:08:01.658Z</time></trkpt><trkpt lat="43.9645133" lon="10.5125783"><ele>73.25</ele><time>2026-04-06T11:08:02.658Z</time></trkpt><trkpt lat="43.9646083" lon="10.5127017"><ele>73.0</ele><time>2026-04-06T11:08:03.658Z</time></trkpt><trkpt lat="43.9647017" lon="10.5128317"><ele>73.0</ele><time>2026-04-06T11:08:04.658Z</time></trkpt><trkpt lat="43.964795" lon="10.51296"><ele>73.0</ele><time>2026-04-06T11:08:05.658Z</time></trkpt><trkpt lat="43.9648933" lon="10.5130867"><ele>73.0</ele><time>2026-04-06T11:08:06.658Z</time></trkpt><trkpt lat="43.9649917" lon="10.5132183"><ele>73.0</ele><time>2026-04-06T11:08:07.658Z</time></trkpt><trkpt lat="43.96509" lon="10.51335"><ele>73.0</ele><time>2026-04-06T11:08:08.658Z</time></trkpt><trkpt lat="43.9651867" lon="10.5134783"><ele>73.0</ele><time>2026-04-06T11:08:09.658Z</time></trkpt><trkpt lat="43.9652817" lon="10.5136083"><ele>73.0</ele><time>2026-04-06T11:08:10.658Z</time></trkpt><trkpt lat="43.9653767" lon="10.51374"><ele>73.0</ele><time>2026-04-06T11:08:11.658Z</time></trkpt><trkpt lat="43.965475" lon="10.513875"><ele>73.0</ele><time>2026-04-06T11:08:12.658Z</time></trkpt><trkpt lat="43.96557" lon="10.5140217"><ele>73.0</ele><time>2026-04-06T11:08:13.658Z</time></trkpt><trkpt lat="43.9656667" lon="10.5141733"><ele>73.0</ele><time>2026-04-06T11:08:14.659Z</time></trkpt><trkpt lat="43.9657617" lon="10.51433"><ele>73.0</ele><time>2026-04-06T11:08:15.659Z</time></trkpt><trkpt lat="43.9658533" lon="10.5144933"><ele>79.0</ele><time>2026-04-06T11:08:16.658Z</time></trkpt><trkpt lat="43.9659467" lon="10.514655"><ele>85.0</ele><time>2026-04-06T11:08:17.658Z</time></trkpt><trkpt lat="43.9660383" lon="10.514825"><ele>91.0</ele><time>2026-04-06T11:08:18.658Z</time></trkpt><trkpt lat="43.96613" lon="10.515"><ele>91.0</ele><time>2026-04-06T11:08:19.658Z</time></trkpt><trkpt lat="43.9662183" lon="10.5151833"><ele>91.0</ele><time>2026-04-06T11:08:20.658Z</time></trkpt><trkpt lat="43.9663083" lon="10.51537"><ele>91.0</ele><time>2026-04-06T11:08:21.658Z</time></trkpt><trkpt lat="43.9663983" lon="10.5155633"><ele>86.33333333333333</ele><time>2026-04-06T11:08:22.658Z</time></trkpt><trkpt lat="43.96649" lon="10.5157617"><ele>81.66666666666667</ele><time>2026-04-06T11:08:23.658Z</time></trkpt><trkpt lat="43.9665833" lon="10.51597"><ele>77.0</ele><time>2026-04-06T11:08:24.658Z</time></trkpt><trkpt lat="43.9666883" lon="10.5161717"><ele>82.66666666666667</ele><time>2026-04-06T11:08:25.658Z</time></trkpt><trkpt lat="43.9667917" lon="10.5163783"><ele>88.33333333333333</ele><time>2026-04-06T11:08:26.658Z</time></trkpt><trkpt lat="43.9669067" lon="10.516585"><ele>94.0</ele><time>2026-04-06T11:08:27.658Z</time></trkpt><trkpt lat="43.967025" lon="10.5168033"><ele>94.0</ele><time>2026-04-06T11:08:28.658Z</time></trkpt><trkpt lat="43.9671233" lon="10.51704"><ele>94.0</ele><time>2026-04-06T11:08:29.658Z</time></trkpt><trkpt lat="43.967225" lon="10.517265"><ele>94.0</ele><time>2026-04-06T11:08:30.658Z</time></trkpt><trkpt lat="43.9673233" lon="10.5174917"><ele>94.0</ele><time>2026-04-06T11:08:31.658Z</time></trkpt><trkpt lat="43.9674267" lon="10.517705"><ele>94.0</ele><time>2026-04-06T11:08:32.658Z</time></trkpt><trkpt lat="43.9675333" lon="10.5179183"><ele>94.0</ele><time>2026-04-06T11:08:33.658Z</time></trkpt><trkpt lat="43.9676483" lon="10.5181217"><ele>94.0</ele><time>2026-04-06T11:08:34.658Z</time></trkpt><trkpt lat="43.9677767" lon="10.5183117"><ele>94.0</ele><time>2026-04-06T11:08:35.658Z</time></trkpt><trkpt lat="43.9679183" lon="10.5184833"><ele>94.0</ele><time>2026-04-06T11:08:36.658Z</time></trkpt><trkpt lat="43.9680667" lon="10.5186517"><ele>94.33333333333333</ele><time>2026-04-06T11:08:37.659Z</time></trkpt><trkpt lat="43.9682233" lon="10.51881"><ele>94.66666666666667</ele><time>2026-04-06T11:08:38.658Z</time></trkpt><trkpt lat="43.968385" lon="10.5189617"><ele>95.0</ele><time>2026-04-06T11:08:39.658Z</time></trkpt><trkpt lat="43.9685517" lon="10.5191083"><ele>95.0</ele><time>2026-04-06T11:08:40.658Z</time></trkpt><trkpt lat="43.9687267" lon="10.5192417"><ele>95.0</ele><time>2026-04-06T11:08:41.658Z</time></trkpt><trkpt lat="43.9689017" lon="10.5193683"><ele>95.0</ele><time>2026-04-06T11:08:42.658Z</time></trkpt><trkpt lat="43.9690783" lon="10.5194917"><ele>93.0</ele><time>2026-04-06T11:08:43.659Z</time></trkpt><trkpt lat="43.969255" lon="10.5196167"><ele>91.0</ele><time>2026-04-06T11:08:44.659Z</time></trkpt><trkpt lat="43.96944" lon="10.519725"><ele>89.0</ele><time>2026-04-06T11:08:45.658Z</time></trkpt><trkpt lat="43.9696233" lon="10.519845"><ele>89.0</ele><time>2026-04-06T11:08:46.658Z</time></trkpt><trkpt lat="43.9698067" lon="10.5199683"><ele>89.0</ele><time>2026-04-06T11:08:47.659Z</time></trkpt><trkpt lat="43.9699917" lon="10.5200967"><ele>89.0</ele><time>2026-04-06T11:08:48.658Z</time></trkpt><trkpt lat="43.9701717" lon="10.52024"><ele>90.0</ele><time>2026-04-06T11:08:49.658Z</time></trkpt><trkpt lat="43.9703467" lon="10.5204017"><ele>91.0</ele><time>2026-04-06T11:08:50.658Z</time></trkpt><trkpt lat="43.9705167" lon="10.5205733"><ele>92.0</ele><time>2026-04-06T11:08:51.659Z</time></trkpt><trkpt lat="43.9706767" lon="10.5207617"><ele>92.0</ele><time>2026-04-06T11:08:52.658Z</time></trkpt><trkpt lat="43.9708333" lon="10.5209583"><ele>92.0</ele><time>2026-04-06T11:08:53.659Z</time></trkpt><trkpt lat="43.970985" lon="10.5211683"><ele>92.0</ele><time>2026-04-06T11:08:54.658Z</time></trkpt><trkpt lat="43.9711333" lon="10.5213833"><ele>95.66666666666667</ele><time>2026-04-06T11:08:55.658Z</time></trkpt><trkpt lat="43.9712817" lon="10.5216017"><ele>99.33333333333334</ele><time>2026-04-06T11:08:56.658Z</time></trkpt><trkpt lat="43.97143" lon="10.52182"><ele>103.0</ele><time>2026-04-06T11:08:57.658Z</time></trkpt><trkpt lat="43.9715783" lon="10.5220417"><ele>109.66666666666667</ele><time>2026-04-06T11:08:58.658Z</time></trkpt><trkpt lat="43.9717267" lon="10.5222633"><ele>116.33333333333334</ele><time>2026-04-06T11:08:59.659Z</time></trkpt><trkpt lat="43.9718717" lon="10.522485"><ele>123.0</ele><time>2026-04-06T11:09:00.658Z</time></trkpt><trkpt lat="43.9720117" lon="10.5227067"><ele>113.0</ele><time>2026-04-06T11:09:01.658Z</time></trkpt><trkpt lat="43.972145" lon="10.52294"><ele>103.0</ele><time>2026-04-06T11:09:02.659Z</time></trkpt><trkpt lat="43.9722733" lon="10.5231867"><ele>93.0</ele><time>2026-04-06T11:09:03.658Z</time></trkpt><trkpt lat="43.9723917" lon="10.523445"><ele>93.0</ele><time>2026-04-06T11:09:04.658Z</time></trkpt><trkpt lat="43.9725067" lon="10.5237083"><ele>93.0</ele><time>2026-04-06T11:09:05.658Z</time></trkpt><trkpt lat="43.9726167" lon="10.5239767"><ele>93.0</ele><time>2026-04-06T11:09:06.658Z</time></trkpt><trkpt lat="43.9727167" lon="10.5242683"><ele>109.5</ele><time>2026-04-06T11:09:07.658Z</time></trkpt><trkpt lat="43.9728067" lon="10.5245833"><ele>126.0</ele><time>2026-04-06T11:09:08.658Z</time></trkpt><trkpt lat="43.9728833" lon="10.5249117"><ele>126.0</ele><time>2026-04-06T11:09:09.658Z</time></trkpt><trkpt lat="43.9729383" lon="10.5252533"><ele>126.0</ele><time>2026-04-06T11:09:10.658Z</time></trkpt><trkpt lat="43.9729783" lon="10.525595"><ele>121.5</ele><time>2026-04-06T11:09:11.659Z</time></trkpt><trkpt lat="43.97301" lon="10.52594"><ele>117.0</ele><time>2026-04-06T11:09:12.658Z</time></trkpt><trkpt lat="43.9730417" lon="10.5262633"><ele>112.5</ele><time>2026-04-06T11:09:13.658Z</time></trkpt><trkpt lat="43.97307" lon="10.526585"><ele>108.0</ele><time>2026-04-06T11:09:14.658Z</time></trkpt><trkpt lat="43.9730967" lon="10.5268983"><ele>104.66666666666666</ele><time>2026-04-06T11:09:15.658Z</time></trkpt><trkpt lat="43.9731267" lon="10.5272"><ele>101.33333333333333</ele><time>2026-04-06T11:09:16.658Z</time></trkpt><trkpt lat="43.9731533" lon="10.527495"><ele>98.0</ele><time>2026-04-06T11:09:17.658Z</time></trkpt><trkpt lat="43.97318" lon="10.5277867"><ele>93.66666666666666</ele><time>2026-04-06T11:09:18.658Z</time></trkpt><trkpt lat="43.9731983" lon="10.5280717"><ele>89.33333333333333</ele><time>2026-04-06T11:09:19.658Z</time></trkpt><trkpt lat="43.9732233" lon="10.5283417"><ele>85.0</ele><time>2026-04-06T11:09:20.658Z</time></trkpt><trkpt lat="43.9732467" lon="10.5285983"><ele>85.0</ele><time>2026-04-06T11:09:21.658Z</time></trkpt><trkpt lat="43.9732667" lon="10.5288467"><ele>85.0</ele><time>2026-04-06T11:09:22.658Z</time></trkpt><trkpt lat="43.9732883" lon="10.5290883"><ele>85.0</ele><time>2026-04-06T11:09:23.658Z</time></trkpt><trkpt lat="43.9733083" lon="10.5293267"><ele>85.66666666666666</ele><time>2026-04-06T11:09:24.658Z</time></trkpt><trkpt lat="43.9733283" lon="10.52956"><ele>86.33333333333333</ele><time>2026-04-06T11:09:25.659Z</time></trkpt><trkpt lat="43.9733483" lon="10.5297933"><ele>87.0</ele><time>2026-04-06T11:09:26.659Z</time></trkpt><trkpt lat="43.9733683" lon="10.530025"><ele>103.0</ele><time>2026-04-06T11:09:27.658Z</time></trkpt><trkpt lat="43.97339" lon="10.5302517"><ele>119.0</ele><time>2026-04-06T11:09:28.659Z</time></trkpt><trkpt lat="43.9734083" lon="10.530475"><ele>135.0</ele><time>2026-04-06T11:09:29.658Z</time></trkpt><trkpt lat="43.9734233" lon="10.5307017"><ele>135.0</ele><time>2026-04-06T11:09:30.658Z</time></trkpt><trkpt lat="43.9734433" lon="10.5309217"><ele>135.0</ele><time>2026-04-06T11:09:31.658Z</time></trkpt><trkpt lat="43.973465" lon="10.531145"><ele>135.0</ele><time>2026-04-06T11:09:32.658Z</time></trkpt><trkpt lat="43.9734883" lon="10.531365"><ele>132.0</ele><time>2026-04-06T11:09:33.658Z</time></trkpt><trkpt lat="43.9735117" lon="10.5315883"><ele>129.0</ele><time>2026-04-06T11:09:34.659Z</time></trkpt><trkpt lat="43.9735333" lon="10.53181"><ele>126.0</ele><time>2026-04-06T11:09:35.658Z</time></trkpt><trkpt lat="43.9735533" lon="10.5320317"><ele>123.0</ele><time>2026-04-06T11:09:36.658Z</time></trkpt><trkpt lat="43.9735733" lon="10.5322517"><ele>120.0</ele><time>2026-04-06T11:09:37.658Z</time></trkpt><trkpt lat="43.9736017" lon="10.53247"><ele>117.0</ele><time>2026-04-06T11:09:38.658Z</time></trkpt><trkpt lat="43.9736367" lon="10.5326867"><ele>112.33333333333334</ele><time>2026-04-06T11:09:39.658Z</time></trkpt><trkpt lat="43.97368" lon="10.5329033"><ele>107.66666666666667</ele><time>2026-04-06T11:09:40.658Z</time></trkpt><trkpt lat="43.9737283" lon="10.5331167"><ele>103.0</ele><time>2026-04-06T11:09:41.658Z</time></trkpt><trkpt lat="43.9737817" lon="10.5333283"><ele>103.0</ele><time>2026-04-06T11:09:42.658Z</time></trkpt><trkpt lat="43.97384" lon="10.5335383"><ele>103.0</ele><time>2026-04-06T11:09:43.659Z</time></trkpt><trkpt lat="43.9739033" lon="10.5337433"><ele>103.0</ele><time>2026-04-06T11:09:44.658Z</time></trkpt><trkpt lat="43.9739783" lon="10.53394"><ele>98.66666666666667</ele><time>2026-04-06T11:09:45.659Z</time></trkpt><trkpt lat="43.97406" lon="10.5341267"><ele>94.33333333333334</ele><time>2026-04-06T11:09:46.658Z</time></trkpt><trkpt lat="43.9741483" lon="10.5343067"><ele>90.0</ele><time>2026-04-06T11:09:47.658Z</time></trkpt><trkpt lat="43.9742433" lon="10.53448"><ele>90.0</ele><time>2026-04-06T11:09:48.658Z</time></trkpt><trkpt lat="43.974345" lon="10.5346467"><ele>90.0</ele><time>2026-04-06T11:09:49.658Z</time></trkpt><trkpt lat="43.97445" lon="10.53481"><ele>90.0</ele><time>2026-04-06T11:09:50.658Z</time></trkpt><trkpt lat="43.97456" lon="10.5349633"><ele>90.0</ele><time>2026-04-06T11:09:51.658Z</time></trkpt><trkpt lat="43.974675" lon="10.5351133"><ele>90.0</ele><time>2026-04-06T11:09:52.658Z</time></trkpt><trkpt lat="43.974795" lon="10.535255"><ele>90.0</ele><time>2026-04-06T11:09:53.658Z</time></trkpt><trkpt lat="43.9749183" lon="10.53539"><ele>88.33333333333333</ele><time>2026-04-06T11:09:54.658Z</time></trkpt><trkpt lat="43.9750417" lon="10.5355283"><ele>86.66666666666666</ele><time>2026-04-06T11:09:55.658Z</time></trkpt><trkpt lat="43.9751633" lon="10.535665"><ele>85.0</ele><time>2026-04-06T11:09:56.658Z</time></trkpt><trkpt lat="43.9752817" lon="10.5358017"><ele>85.0</ele><time>2026-04-06T11:09:57.658Z</time></trkpt><trkpt lat="43.975395" lon="10.53594"><ele>85.0</ele><time>2026-04-06T11:09:58.658Z</time></trkpt><trkpt lat="43.9755017" lon="10.5360867"><ele>85.0</ele><time>2026-04-06T11:09:59.658Z</time></trkpt><trkpt lat="43.9756067" lon="10.5362333"><ele>83.75</ele><time>2026-04-06T11:10:00.658Z</time></trkpt><trkpt lat="43.9757067" lon="10.53638"><ele>82.5</ele><time>2026-04-06T11:10:01.658Z</time></trkpt><trkpt lat="43.9757967" lon="10.53654"><ele>81.25</ele><time>2026-04-06T11:10:02.658Z</time></trkpt><trkpt lat="43.9758783" lon="10.5367017"><ele>80.0</ele><time>2026-04-06T11:10:03.658Z</time></trkpt><trkpt lat="43.97595" lon="10.536875"><ele>82.5</ele><time>2026-04-06T11:10:04.658Z</time></trkpt><trkpt lat="43.9760133" lon="10.537055"><ele>85.0</ele><time>2026-04-06T11:10:05.658Z</time></trkpt><trkpt lat="43.9760667" lon="10.5372433"><ele>87.5</ele><time>2026-04-06T11:10:06.658Z</time></trkpt><trkpt lat="43.9761117" lon="10.5374333"><ele>90.0</ele><time>2026-04-06T11:10:07.658Z</time></trkpt><trkpt lat="43.9761433" lon="10.5376283"><ele>90.0</ele><time>2026-04-06T11:10:08.658Z</time></trkpt><trkpt lat="43.9761667" lon="10.537825"><ele>90.0</ele><time>2026-04-06T11:10:09.658Z</time></trkpt><trkpt lat="43.9761817" lon="10.538025"><ele>90.0</ele><time>2026-04-06T11:10:10.658Z</time></trkpt><trkpt lat="43.9761917" lon="10.5382183"><ele>90.0</ele><time>2026-04-06T11:10:11.658Z</time></trkpt><trkpt lat="43.9761967" lon="10.5384183"><ele>90.0</ele><time>2026-04-06T11:10:12.658Z</time></trkpt><trkpt lat="43.9762017" lon="10.538625"><ele>90.0</ele><time>2026-04-06T11:10:13.658Z</time></trkpt><trkpt lat="43.9762017" lon="10.5388317"><ele>90.0</ele><time>2026-04-06T11:10:14.658Z</time></trkpt><trkpt lat="43.9762" lon="10.53904"><ele>90.0</ele><time>2026-04-06T11:10:15.659Z</time></trkpt><trkpt lat="43.9762" lon="10.5392417"><ele>90.0</ele><time>2026-04-06T11:10:16.658Z</time></trkpt><trkpt lat="43.9762" lon="10.5394433"><ele>90.0</ele><time>2026-04-06T11:10:17.658Z</time></trkpt><trkpt lat="43.9762033" lon="10.5396433"><ele>90.0</ele><time>2026-04-06T11:10:18.658Z</time></trkpt><trkpt lat="43.9762117" lon="10.5398433"><ele>90.0</ele><time>2026-04-06T11:10:19.659Z</time></trkpt><trkpt lat="43.9762267" lon="10.54004"><ele>90.0</ele><time>2026-04-06T11:10:20.658Z</time></trkpt><trkpt lat="43.976245" lon="10.540235"><ele>90.0</ele><time>2026-04-06T11:10:21.659Z</time></trkpt><trkpt lat="43.976265" lon="10.5404267"><ele>90.0</ele><time>2026-04-06T11:10:22.658Z</time></trkpt><trkpt lat="43.97629" lon="10.540615"><ele>90.0</ele><time>2026-04-06T11:10:23.659Z</time></trkpt><trkpt lat="43.976315" lon="10.5408067"><ele>89.5</ele><time>2026-04-06T11:10:24.658Z</time></trkpt><trkpt lat="43.9763417" lon="10.5409983"><ele>89.0</ele><time>2026-04-06T11:10:25.658Z</time></trkpt><trkpt lat="43.9763683" lon="10.5411933"><ele>88.5</ele><time>2026-04-06T11:10:26.658Z</time></trkpt><trkpt lat="43.9763967" lon="10.5413883"><ele>88.0</ele><time>2026-04-06T11:10:27.658Z</time></trkpt><trkpt lat="43.9764267" lon="10.5415833"><ele>87.75</ele><time>2026-04-06T11:10:28.658Z</time></trkpt><trkpt lat="43.9764567" lon="10.5417783"><ele>87.5</ele><time>2026-04-06T11:10:29.658Z</time></trkpt><trkpt lat="43.976485" lon="10.5419733"><ele>87.25</ele><time>2026-04-06T11:10:30.658Z</time></trkpt><trkpt lat="43.9765117" lon="10.5421683"><ele>87.0</ele><time>2026-04-06T11:10:31.658Z</time></trkpt><trkpt lat="43.9765383" lon="10.5423617"><ele>87.0</ele><time>2026-04-06T11:10:32.658Z</time></trkpt><trkpt lat="43.9765667" lon="10.542555"><ele>87.0</ele><time>2026-04-06T11:10:33.658Z</time></trkpt><trkpt lat="43.9765933" lon="10.5427483"><ele>87.0</ele><time>2026-04-06T11:10:34.658Z</time></trkpt><trkpt lat="43.9766217" lon="10.5429417"><ele>87.0</ele><time>2026-04-06T11:10:35.658Z</time></trkpt><trkpt lat="43.9766483" lon="10.5431317"><ele>87.0</ele><time>2026-04-06T11:10:36.658Z</time></trkpt><trkpt lat="43.9766733" lon="10.5433217"><ele>87.0</ele><time>2026-04-06T11:10:37.658Z</time></trkpt><trkpt lat="43.9766983" lon="10.5435117"><ele>87.0</ele><time>2026-04-06T11:10:38.658Z</time></trkpt><trkpt lat="43.9767217" lon="10.5436983"><ele>87.0</ele><time>2026-04-06T11:10:39.659Z</time></trkpt><trkpt lat="43.976745" lon="10.543885"><ele>87.0</ele><time>2026-04-06T11:10:40.658Z</time></trkpt><trkpt lat="43.97677" lon="10.544075"><ele>87.0</ele><time>2026-04-06T11:10:41.658Z</time></trkpt><trkpt lat="43.9767967" lon="10.5442683"><ele>87.0</ele><time>2026-04-06T11:10:42.658Z</time></trkpt><trkpt lat="43.9768233" lon="10.5444633"><ele>87.0</ele><time>2026-04-06T11:10:43.658Z</time></trkpt><trkpt lat="43.97685" lon="10.5446583"><ele>87.0</ele><time>2026-04-06T11:10:44.658Z</time></trkpt><trkpt lat="43.976875" lon="10.544855"><ele>87.0</ele><time>2026-04-06T11:10:45.658Z</time></trkpt><trkpt lat="43.976905" lon="10.54505"><ele>87.0</ele><time>2026-04-06T11:10:46.659Z</time></trkpt><trkpt lat="43.9769367" lon="10.5452417"><ele>87.0</ele><time>2026-04-06T11:10:47.658Z</time></trkpt><trkpt lat="43.9769683" lon="10.5454333"><ele>87.0</ele><time>2026-04-06T11:10:48.658Z</time></trkpt><trkpt lat="43.9770067" lon="10.545625"><ele>87.0</ele><time>2026-04-06T11:10:49.658Z</time></trkpt><trkpt lat="43.9770483" lon="10.545815"><ele>87.0</ele><time>2026-04-06T11:10:50.658Z</time></trkpt><trkpt lat="43.9770967" lon="10.5460017"><ele>87.0</ele><time>2026-04-06T11:10:51.658Z</time></trkpt><trkpt lat="43.97715" lon="10.5461883"><ele>87.25</ele><time>2026-04-06T11:10:52.658Z</time></trkpt><trkpt lat="43.9772067" lon="10.5463733"><ele>87.5</ele><time>2026-04-06T11:10:53.658Z</time></trkpt><trkpt lat="43.9772733" lon="10.5465533"><ele>87.75</ele><time>2026-04-06T11:10:54.659Z</time></trkpt><trkpt lat="43.97734" lon="10.5467367"><ele>88.0</ele><time>2026-04-06T11:10:55.658Z</time></trkpt><trkpt lat="43.9774117" lon="10.5469117"><ele>88.0</ele><time>2026-04-06T11:10:56.658Z</time></trkpt><trkpt lat="43.9774917" lon="10.5470817"><ele>88.0</ele><time>2026-04-06T11:10:57.658Z</time></trkpt><trkpt lat="43.9775783" lon="10.5472467"><ele>88.0</ele><time>2026-04-06T11:10:58.658Z</time></trkpt><trkpt lat="43.9776683" lon="10.5474133"><ele>88.0</ele><time>2026-04-06T11:10:59.659Z</time></trkpt><trkpt lat="43.97777" lon="10.5475717"><ele>89.0</ele><time>2026-04-06T11:11:00.658Z</time></trkpt><trkpt lat="43.9778767" lon="10.5477267"><ele>90.0</ele><time>2026-04-06T11:11:01.658Z</time></trkpt><trkpt lat="43.9779867" lon="10.547875"><ele>91.0</ele><time>2026-04-06T11:11:02.658Z</time></trkpt><trkpt lat="43.9781" lon="10.5480167"><ele>91.0</ele><time>2026-04-06T11:11:03.659Z</time></trkpt><trkpt lat="43.978215" lon="10.5481533"><ele>91.0</ele><time>2026-04-06T11:11:04.658Z</time></trkpt><trkpt lat="43.9783333" lon="10.5482833"><ele>91.0</ele><time>2026-04-06T11:11:05.658Z</time></trkpt><trkpt lat="43.9784517" lon="10.5484117"><ele>92.0</ele><time>2026-04-06T11:11:06.658Z</time></trkpt><trkpt lat="43.97857" lon="10.5485383"><ele>93.0</ele><time>2026-04-06T11:11:07.659Z</time></trkpt><trkpt lat="43.97869" lon="10.5486667"><ele>94.0</ele><time>2026-04-06T11:11:08.658Z</time></trkpt><trkpt lat="43.97881" lon="10.5487983"><ele>94.0</ele><time>2026-04-06T11:11:09.658Z</time></trkpt><trkpt lat="43.978925" lon="10.54893"><ele>94.0</ele><time>2026-04-06T11:11:10.658Z</time></trkpt><trkpt lat="43.97904" lon="10.5490567"><ele>94.0</ele><time>2026-04-06T11:11:11.658Z</time></trkpt><trkpt lat="43.979155" lon="10.5491783"><ele>94.0</ele><time>2026-04-06T11:11:12.658Z</time></trkpt><trkpt lat="43.979265" lon="10.5492967"><ele>94.0</ele><time>2026-04-06T11:11:13.658Z</time></trkpt><trkpt lat="43.9793733" lon="10.5494167"><ele>94.0</ele><time>2026-04-06T11:11:14.658Z</time></trkpt><trkpt lat="43.9794767" lon="10.5495283"><ele>94.0</ele><time>2026-04-06T11:11:15.658Z</time></trkpt><trkpt lat="43.9795733" lon="10.5496367"><ele>94.0</ele><time>2026-04-06T11:11:16.658Z</time></trkpt><trkpt lat="43.9796683" lon="10.5497417"><ele>94.0</ele><time>2026-04-06T11:11:17.658Z</time></trkpt><trkpt lat="43.9797583" lon="10.549835"><ele>94.0</ele><time>2026-04-06T11:11:18.659Z</time></trkpt><trkpt lat="43.9798333" lon="10.5499183"><ele>94.0</ele><time>2026-04-06T11:11:19.658Z</time></trkpt><trkpt lat="43.9799033" lon="10.5499917"><ele>94.0</ele><time>2026-04-06T11:11:20.658Z</time></trkpt><trkpt lat="43.9799617" lon="10.5500667"><ele>94.0</ele><time>2026-04-06T11:11:21.659Z</time></trkpt><trkpt lat="43.980015" lon="10.550135"><ele>94.0</ele><time>2026-04-06T11:11:22.658Z</time></trkpt></trkseg><trkseg><trkpt lat="43.985045" lon="10.5526933"><ele>104.0</ele><time>2026-04-06T13:23:21.659Z</time></trkpt><trkpt lat="43.9849933" lon="10.552745"><ele>103.0</ele><time>2026-04-06T13:23:26.659Z</time></trkpt><trkpt lat="43.9849267" lon="10.5527983"><ele>102.0</ele><time>2026-04-06T13:23:34.659Z</time></trkpt><trkpt lat="43.9848117" lon="10.55283"><ele>101.0</ele><time>2026-04-06T13:23:36.659Z</time></trkpt><trkpt lat="43.9847467" lon="10.5528383"><ele>100.0</ele><time>2026-04-06T13:23:37.659Z</time></trkpt><trkpt lat="43.984675" lon="10.552845"><ele>99.0</ele><time>2026-04-06T13:23:38.66Z</time></trkpt><trkpt lat="43.9845933" lon="10.55285"><ele>99.0</ele><time>2026-04-06T13:23:39.659Z</time></trkpt><trkpt lat="43.9845117" lon="10.5528617"><ele>99.0</ele><time>2026-04-06T13:23:40.659Z</time></trkpt><trkpt lat="43.98443" lon="10.5528767"><ele>99.0</ele><time>2026-04-06T13:23:41.659Z</time></trkpt><trkpt lat="43.98434" lon="10.5528917"><ele>99.0</ele><time>2026-04-06T13:23:42.659Z</time></trkpt><trkpt lat="43.9842483" lon="10.552905"><ele>99.0</ele><time>2026-04-06T13:23:43.659Z</time></trkpt><trkpt lat="43.984155" lon="10.552915"><ele>99.0</ele><time>2026-04-06T13:23:44.659Z</time></trkpt><trkpt lat="43.9840567" lon="10.5529283"><ele>101.80000000000001</ele><time>2026-04-06T13:23:45.659Z</time></trkpt><trkpt lat="43.9839567" lon="10.55294"><ele>104.60000000000001</ele><time>2026-04-06T13:23:46.659Z</time></trkpt><trkpt lat="43.9838533" lon="10.5529567"><ele>107.4</ele><time>2026-04-06T13:23:47.66Z</time></trkpt><trkpt lat="43.9837483" lon="10.552975"><ele>110.2</ele><time>2026-04-06T13:23:48.659Z</time></trkpt><trkpt lat="43.98364" lon="10.5529933"><ele>113.0</ele><time>2026-04-06T13:23:49.66Z</time></trkpt><trkpt lat="43.9835267" lon="10.5530083"><ele>113.0</ele><time>2026-04-06T13:23:50.659Z</time></trkpt><trkpt lat="43.9834117" lon="10.5530217"><ele>113.0</ele><time>2026-04-06T13:23:51.659Z</time></trkpt><trkpt lat="43.9832917" lon="10.5530367"><ele>113.0</ele><time>2026-04-06T13:23:52.659Z</time></trkpt><trkpt lat="43.982685" lon="10.5530867"><ele>113.0</ele><time>2026-04-06T13:23:55.239Z</time></trkpt><trkpt lat="43.98267" lon="10.5530017"><ele>113.00000000000001</ele><time>2026-04-06T13:23:56.159Z</time></trkpt><trkpt lat="43.9825783" lon="10.5530333"><ele>113.00000000000001</ele><time>2026-04-06T13:23:57.159Z</time></trkpt><trkpt lat="43.9824383" lon="10.55308"><ele>113.0</ele><time>2026-04-06T13:23:58.659Z</time></trkpt><trkpt lat="43.9823267" lon="10.5531133"><ele>113.0</ele><time>2026-04-06T13:23:59.659Z</time></trkpt><trkpt lat="43.9822233" lon="10.5531417"><ele>113.0</ele><time>2026-04-06T13:24:00.659Z</time></trkpt><trkpt lat="43.9821133" lon="10.55317"><ele>113.0</ele><time>2026-04-06T13:24:01.659Z</time></trkpt><trkpt lat="43.98201" lon="10.55317"><ele>113.0</ele><time>2026-04-06T13:24:02.659Z</time></trkpt><trkpt lat="43.9818367" lon="10.55317"><ele>113.0</ele><time>2026-04-06T13:24:04.659Z</time></trkpt><trkpt lat="43.98172" lon="10.5531633"><ele>113.0</ele><time>2026-04-06T13:24:05.659Z</time></trkpt><trkpt lat="43.981595" lon="10.5531467"><ele>113.0</ele><time>2026-04-06T13:24:06.66Z</time></trkpt><trkpt lat="43.981475" lon="10.55312"><ele>113.0</ele><time>2026-04-06T13:24:07.659Z</time></trkpt><trkpt lat="43.9813533" lon="10.553065"><ele>113.0</ele><time>2026-04-06T13:24:08.66Z</time></trkpt><trkpt lat="43.9812283" lon="10.552975"><ele>113.0</ele><time>2026-04-06T13:24:09.659Z</time></trkpt><trkpt lat="43.981105" lon="10.5528733"><ele>113.0</ele><time>2026-04-06T13:24:10.659Z</time></trkpt><trkpt lat="43.9809867" lon="10.55277"><ele>113.0</ele><time>2026-04-06T13:24:11.66Z</time></trkpt><trkpt lat="43.9807517" lon="10.5525767"><ele>110.0</ele><time>2026-04-06T13:24:13.659Z</time></trkpt><trkpt lat="43.9806433" lon="10.5524783"><ele>107.0</ele><time>2026-04-06T13:24:14.659Z</time></trkpt><trkpt lat="43.9805367" lon="10.5523867"><ele>104.0</ele><time>2026-04-06T13:24:15.659Z</time></trkpt><trkpt lat="43.98043" lon="10.5522983"><ele>101.0</ele><time>2026-04-06T13:24:16.659Z</time></trkpt><trkpt lat="43.9803267" lon="10.5522033"><ele>101.0</ele><time>2026-04-06T13:24:17.659Z</time></trkpt><trkpt lat="43.9802217" lon="10.5521133"><ele>101.0</ele><time>2026-04-06T13:24:18.659Z</time></trkpt><trkpt lat="43.9801167" lon="10.5520367"><ele>101.0</ele><time>2026-04-06T13:24:19.659Z</time></trkpt><trkpt lat="43.98001" lon="10.5519767"><ele>101.0</ele><time>2026-04-06T13:24:20.659Z</time></trkpt><trkpt lat="43.9799083" lon="10.551925"><ele>98.4</ele><time>2026-04-06T13:24:21.659Z</time></trkpt><trkpt lat="43.9798283" lon="10.5518783"><ele>95.8</ele><time>2026-04-06T13:24:22.66Z</time></trkpt><trkpt lat="43.9797633" lon="10.5518367"><ele>93.2</ele><time>2026-04-06T13:24:23.659Z</time></trkpt><trkpt lat="43.9796917" lon="10.5517483"><ele>90.60000000000001</ele><time>2026-04-06T13:24:25.659Z</time></trkpt><trkpt lat="43.9797417" lon="10.551505"><ele>88.0</ele><time>2026-04-06T13:24:29.66Z</time></trkpt><trkpt lat="43.9797917" lon="10.5513983"><ele>88.0</ele><time>2026-04-06T13:24:30.659Z</time></trkpt><trkpt lat="43.9798467" lon="10.5512833"><ele>88.0</ele><time>2026-04-06T13:24:31.659Z</time></trkpt><trkpt lat="43.9798967" lon="10.551175"><ele>88.0</ele><time>2026-04-06T13:24:32.659Z</time></trkpt><trkpt lat="43.9799467" lon="10.5510667"><ele>88.0</ele><time>2026-04-06T13:24:33.659Z</time></trkpt><trkpt lat="43.979995" lon="10.55096"><ele>88.0</ele><time>2026-04-06T13:24:34.659Z</time></trkpt><trkpt lat="43.9800433" lon="10.5508567"><ele>88.5</ele><time>2026-04-06T13:24:35.659Z</time></trkpt><trkpt lat="43.9800883" lon="10.55076"><ele>89.0</ele><time>2026-04-06T13:24:36.659Z</time></trkpt><trkpt lat="43.9801367" lon="10.5506717"><ele>89.5</ele><time>2026-04-06T13:24:37.659Z</time></trkpt><trkpt lat="43.98019" lon="10.5506017"><ele>90.0</ele><time>2026-04-06T13:24:38.66Z</time></trkpt><trkpt lat="43.9802567" lon="10.55055"><ele>90.5</ele><time>2026-04-06T13:24:39.659Z</time></trkpt><trkpt lat="43.9803283" lon="10.5505117"><ele>91.0</ele><time>2026-04-06T13:24:40.659Z</time></trkpt><trkpt lat="43.98041" lon="10.5504917"><ele>91.0</ele><time>2026-04-06T13:24:41.659Z</time></trkpt><trkpt lat="43.9805033" lon="10.5504917"><ele>91.0</ele><time>2026-04-06T13:24:42.659Z</time></trkpt><trkpt lat="43.9806" lon="10.5505017"><ele>91.0</ele><time>2026-04-06T13:24:43.659Z</time></trkpt><trkpt lat="43.9806967" lon="10.55052"><ele>91.0</ele><time>2026-04-06T13:24:44.659Z</time></trkpt><trkpt lat="43.9807983" lon="10.5505467"><ele>91.0</ele><time>2026-04-06T13:24:45.66Z</time></trkpt><trkpt lat="43.9809" lon="10.55058"><ele>91.25</ele><time>2026-04-06T13:24:46.66Z</time></trkpt><trkpt lat="43.9810083" lon="10.55061"><ele>91.5</ele><time>2026-04-06T13:24:47.659Z</time></trkpt><trkpt lat="43.9811167" lon="10.55064"><ele>91.75</ele><time>2026-04-06T13:24:48.659Z</time></trkpt><trkpt lat="43.98123" lon="10.5506683"><ele>92.0</ele><time>2026-04-06T13:24:49.659Z</time></trkpt><trkpt lat="43.9813467" lon="10.5506983"><ele>92.0</ele><time>2026-04-06T13:24:50.659Z</time></trkpt><trkpt lat="43.9814683" lon="10.550735"><ele>92.0</ele><time>2026-04-06T13:24:51.66Z</time></trkpt><trkpt lat="43.981595" lon="10.550775"><ele>92.0</ele><time>2026-04-06T13:24:52.659Z</time></trkpt><trkpt lat="43.9817267" lon="10.5508183"><ele>92.0</ele><time>2026-04-06T13:24:53.659Z</time></trkpt><trkpt lat="43.9818567" lon="10.550865"><ele>93.75</ele><time>2026-04-06T13:24:54.659Z</time></trkpt><trkpt lat="43.981985" lon="10.550915"><ele>95.5</ele><time>2026-04-06T13:24:55.659Z</time></trkpt><trkpt lat="43.9821133" lon="10.5509633"><ele>97.25</ele><time>2026-04-06T13:24:56.659Z</time></trkpt><trkpt lat="43.98224" lon="10.55101"><ele>99.0</ele><time>2026-04-06T13:24:57.659Z</time></trkpt><trkpt lat="43.98237" lon="10.5510483"><ele>99.0</ele><time>2026-04-06T13:24:58.659Z</time></trkpt><trkpt lat="43.9825017" lon="10.5510817"><ele>99.0</ele><time>2026-04-06T13:24:59.659Z</time></trkpt><trkpt lat="43.982635" lon="10.5511017"><ele>99.0</ele><time>2026-04-06T13:25:00.659Z</time></trkpt><trkpt lat="43.9827683" lon="10.5511"><ele>99.0</ele><time>2026-04-06T13:25:01.659Z</time></trkpt><trkpt lat="43.9828983" lon="10.5510767"><ele>99.5</ele><time>2026-04-06T13:25:02.66Z</time></trkpt><trkpt lat="43.9830267" lon="10.5510317"><ele>100.0</ele><time>2026-04-06T13:25:03.659Z</time></trkpt><trkpt lat="43.98315" lon="10.550975"><ele>100.5</ele><time>2026-04-06T13:25:04.659Z</time></trkpt><trkpt lat="43.9832683" lon="10.5509167"><ele>101.0</ele><time>2026-04-06T13:25:05.659Z</time></trkpt><trkpt lat="43.9833833" lon="10.5508617"><ele>103.5</ele><time>2026-04-06T13:25:06.659Z</time></trkpt><trkpt lat="43.9837433" lon="10.5507333"><ele>106.0</ele><time>2026-04-06T13:25:09.659Z</time></trkpt><trkpt lat="43.9838633" lon="10.5507283"><ele>106.0</ele><time>2026-04-06T13:25:10.659Z</time></trkpt><trkpt lat="43.9839817" lon="10.5507533"><ele>106.0</ele><time>2026-04-06T13:25:11.659Z</time></trkpt><trkpt lat="43.9841017" lon="10.550795"><ele>106.0</ele><time>2026-04-06T13:25:12.659Z</time></trkpt><trkpt lat="43.9842167" lon="10.5508517"><ele>106.0</ele><time>2026-04-06T13:25:13.659Z</time></trkpt><trkpt lat="43.98433" lon="10.550915"><ele>107.75</ele><time>2026-04-06T13:25:14.659Z</time></trkpt><trkpt lat="43.984435" lon="10.55099"><ele>109.5</ele><time>2026-04-06T13:25:15.659Z</time></trkpt><trkpt lat="43.9845383" lon="10.5510683"><ele>111.25</ele><time>2026-04-06T13:25:16.66Z</time></trkpt><trkpt lat="43.9846467" lon="10.5511383"><ele>113.0</ele><time>2026-04-06T13:25:17.659Z</time></trkpt><trkpt lat="43.9847617" lon="10.5512033"><ele>109.75</ele><time>2026-04-06T13:25:18.659Z</time></trkpt><trkpt lat="43.9848833" lon="10.5512533"><ele>106.5</ele><time>2026-04-06T13:25:19.659Z</time></trkpt><trkpt lat="43.9850117" lon="10.55128"><ele>103.25</ele><time>2026-04-06T13:25:20.659Z</time></trkpt><trkpt lat="43.9851433" lon="10.5512933"><ele>100.0</ele><time>2026-04-06T13:25:21.659Z</time></trkpt><trkpt lat="43.9852717" lon="10.551285"><ele>99.75</ele><time>2026-04-06T13:25:22.66Z</time></trkpt><trkpt lat="43.9853983" lon="10.551275"><ele>99.5</ele><time>2026-04-06T13:25:23.659Z</time></trkpt><trkpt lat="43.9855233" lon="10.55127"><ele>99.25</ele><time>2026-04-06T13:25:24.659Z</time></trkpt><trkpt lat="43.98565" lon="10.55127"><ele>99.0</ele><time>2026-04-06T13:25:25.659Z</time></trkpt><trkpt lat="43.9857783" lon="10.5512817"><ele>99.5</ele><time>2026-04-06T13:25:26.66Z</time></trkpt><trkpt lat="43.9859033" lon="10.5512967"><ele>100.0</ele><time>2026-04-06T13:25:27.66Z</time></trkpt><trkpt lat="43.9860233" lon="10.5513217"><ele>100.5</ele><time>2026-04-06T13:25:28.659Z</time></trkpt><trkpt lat="43.9861417" lon="10.55135"><ele>101.0</ele><time>2026-04-06T13:25:29.659Z</time></trkpt><trkpt lat="43.98626" lon="10.55139"><ele>101.0</ele><time>2026-04-06T13:25:30.659Z</time></trkpt><trkpt lat="43.9863783" lon="10.5514433"><ele>101.0</ele><time>2026-04-06T13:25:31.659Z</time></trkpt><trkpt lat="43.986495" lon="10.551495"><ele>101.0</ele><time>2026-04-06T13:25:32.659Z</time></trkpt><trkpt lat="43.9866117" lon="10.5515517"><ele>101.0</ele><time>2026-04-06T13:25:33.659Z</time></trkpt><trkpt lat="43.9867317" lon="10.5516167"><ele>103.5</ele><time>2026-04-06T13:25:34.659Z</time></trkpt><trkpt lat="43.9868567" lon="10.55167"><ele>106.0</ele><time>2026-04-06T13:25:35.659Z</time></trkpt><trkpt lat="43.9869833" lon="10.551725"><ele>108.5</ele><time>2026-04-06T13:25:36.659Z</time></trkpt><trkpt lat="43.98711" lon="10.55178"><ele>111.0</ele><time>2026-04-06T13:25:37.659Z</time></trkpt><trkpt lat="43.98724" lon="10.551835"><ele>111.0</ele><time>2026-04-06T13:25:38.659Z</time></trkpt><trkpt lat="43.9873733" lon="10.5518817"><ele>111.0</ele><time>2026-04-06T13:25:39.659Z</time></trkpt><trkpt lat="43.9875117" lon="10.551915"><ele>111.0</ele><time>2026-04-06T13:25:40.659Z</time></trkpt><trkpt lat="43.9876517" lon="10.55194"><ele>111.0</ele><time>2026-04-06T13:25:41.659Z</time></trkpt><trkpt lat="43.9877967" lon="10.5519483"><ele>114.66666666666666</ele><time>2026-04-06T13:25:42.659Z</time></trkpt><trkpt lat="43.9879483" lon="10.5519517"><ele>118.33333333333333</ele><time>2026-04-06T13:25:43.659Z</time></trkpt><trkpt lat="43.9881033" lon="10.5519517"><ele>122.0</ele><time>2026-04-06T13:25:44.659Z</time></trkpt><trkpt lat="43.9882583" lon="10.5519467"><ele>122.33333333333333</ele><time>2026-04-06T13:25:45.66Z</time></trkpt><trkpt lat="43.9884133" lon="10.5519467"><ele>122.66666666666666</ele><time>2026-04-06T13:25:46.66Z</time></trkpt><trkpt lat="43.9885717" lon="10.5519517"><ele>123.0</ele><time>2026-04-06T13:25:47.659Z</time></trkpt><trkpt lat="43.988735" lon="10.55195"><ele>123.0</ele><time>2026-04-06T13:25:48.659Z</time></trkpt><trkpt lat="43.9888983" lon="10.55195"><ele>123.0</ele><time>2026-04-06T13:25:49.659Z</time></trkpt><trkpt lat="43.9890667" lon="10.5519533"><ele>123.0</ele><time>2026-04-06T13:25:50.659Z</time></trkpt><trkpt lat="43.989235" lon="10.5519583"><ele>123.0</ele><time>2026-04-06T13:25:51.659Z</time></trkpt><trkpt lat="43.9894067" lon="10.5519667"><ele>123.0</ele><time>2026-04-06T13:25:52.659Z</time></trkpt><trkpt lat="43.9895817" lon="10.55197"><ele>123.0</ele><time>2026-04-06T13:25:53.66Z</time></trkpt><trkpt lat="43.98976" lon="10.551975"><ele>123.0</ele><time>2026-04-06T13:25:54.659Z</time></trkpt><trkpt lat="43.98994" lon="10.5519883"><ele>123.0</ele><time>2026-04-06T13:25:55.659Z</time></trkpt><trkpt lat="43.9901217" lon="10.552005"><ele>123.0</ele><time>2026-04-06T13:25:56.659Z</time></trkpt><trkpt lat="43.9903067" lon="10.5520283"><ele>117.0</ele><time>2026-04-06T13:25:57.659Z</time></trkpt><trkpt lat="43.99049" lon="10.5520533"><ele>111.0</ele><time>2026-04-06T13:25:58.66Z</time></trkpt><trkpt lat="43.990675" lon="10.55208"><ele>105.0</ele><time>2026-04-06T13:25:59.659Z</time></trkpt><trkpt lat="43.9908567" lon="10.5521133"><ele>103.0</ele><time>2026-04-06T13:26:00.659Z</time></trkpt><trkpt lat="43.9910367" lon="10.55215"><ele>101.0</ele><time>2026-04-06T13:26:01.659Z</time></trkpt><trkpt lat="43.99122" lon="10.552185"><ele>99.0</ele><time>2026-04-06T13:26:02.659Z</time></trkpt><trkpt lat="43.991405" lon="10.552225"><ele>99.0</ele><time>2026-04-06T13:26:03.659Z</time></trkpt><trkpt lat="43.9915883" lon="10.5522633"><ele>99.0</ele><time>2026-04-06T13:26:04.659Z</time></trkpt><trkpt lat="43.9917733" lon="10.552305"><ele>99.0</ele><time>2026-04-06T13:26:05.66Z</time></trkpt><trkpt lat="43.99196" lon="10.5523567"><ele>100.66666666666666</ele><time>2026-04-06T13:26:06.66Z</time></trkpt><trkpt lat="43.992145" lon="10.5524017"><ele>102.33333333333333</ele><time>2026-04-06T13:26:07.658Z</time></trkpt><trkpt lat="43.9923283" lon="10.5524533"><ele>104.0</ele><time>2026-04-06T13:26:08.658Z</time></trkpt><trkpt lat="43.9925083" lon="10.5525"><ele>106.33333333333333</ele><time>2026-04-06T13:26:09.658Z</time></trkpt><trkpt lat="43.9926883" lon="10.55254"><ele>108.66666666666666</ele><time>2026-04-06T13:26:10.658Z</time></trkpt><trkpt lat="43.99287" lon="10.55258"><ele>111.0</ele><time>2026-04-06T13:26:11.658Z</time></trkpt><trkpt lat="43.99305" lon="10.55262"><ele>111.0</ele><time>2026-04-06T13:26:12.658Z</time></trkpt><trkpt lat="43.9932333" lon="10.5526583"><ele>111.0</ele><time>2026-04-06T13:26:13.658Z</time></trkpt><trkpt lat="43.993415" lon="10.5527"><ele>111.0</ele><time>2026-04-06T13:26:14.658Z</time></trkpt><trkpt lat="43.9936" lon="10.5527367"><ele>117.0</ele><time>2026-04-06T13:26:15.658Z</time></trkpt><trkpt lat="43.9937867" lon="10.5527783"><ele>123.0</ele><time>2026-04-06T13:26:16.658Z</time></trkpt><trkpt lat="43.9939733" lon="10.5528183"><ele>129.0</ele><time>2026-04-06T13:26:17.658Z</time></trkpt><trkpt lat="43.99416" lon="10.5528517"><ele>118.66666666666666</ele><time>2026-04-06T13:26:18.658Z</time></trkpt><trkpt lat="43.9943483" lon="10.5528817"><ele>108.33333333333333</ele><time>2026-04-06T13:26:19.658Z</time></trkpt><trkpt lat="43.9945367" lon="10.552905"><ele>98.0</ele><time>2026-04-06T13:26:20.659Z</time></trkpt><trkpt lat="43.9947217" lon="10.5529183"><ele>98.0</ele><time>2026-04-06T13:26:21.658Z</time></trkpt><trkpt lat="43.9949067" lon="10.5529317"><ele>98.0</ele><time>2026-04-06T13:26:22.658Z</time></trkpt><trkpt lat="43.99509" lon="10.5529417"><ele>98.0</ele><time>2026-04-06T13:26:23.659Z</time></trkpt><trkpt lat="43.9952733" lon="10.552955"><ele>99.0</ele><time>2026-04-06T13:26:24.658Z</time></trkpt><trkpt lat="43.9954567" lon="10.5529667"><ele>100.0</ele><time>2026-04-06T13:26:25.658Z</time></trkpt><trkpt lat="43.9956417" lon="10.55298"><ele>101.0</ele><time>2026-04-06T13:26:26.659Z</time></trkpt><trkpt lat="43.995825" lon="10.5529983"><ele>102.66666666666666</ele><time>2026-04-06T13:26:27.658Z</time></trkpt><trkpt lat="43.996005" lon="10.5530183"><ele>104.33333333333334</ele><time>2026-04-06T13:26:28.658Z</time></trkpt><trkpt lat="43.9961867" lon="10.5530317"><ele>106.0</ele><time>2026-04-06T13:26:29.658Z</time></trkpt><trkpt lat="43.99637" lon="10.5530433"><ele>106.0</ele><time>2026-04-06T13:26:30.658Z</time></trkpt><trkpt lat="43.9965533" lon="10.553055"><ele>106.0</ele><time>2026-04-06T13:26:31.658Z</time></trkpt><trkpt lat="43.9967333" lon="10.5530567"><ele>106.0</ele><time>2026-04-06T13:26:32.658Z</time></trkpt><trkpt lat="43.996915" lon="10.553045"><ele>104.66666666666667</ele><time>2026-04-06T13:26:33.658Z</time></trkpt><trkpt lat="43.997095" lon="10.5530167"><ele>103.33333333333334</ele><time>2026-04-06T13:26:34.658Z</time></trkpt><trkpt lat="43.9972717" lon="10.5529717"><ele>102.0</ele><time>2026-04-06T13:26:35.658Z</time></trkpt><trkpt lat="43.99745" lon="10.5529133"><ele>108.66666666666666</ele><time>2026-04-06T13:26:36.658Z</time></trkpt><trkpt lat="43.9976283" lon="10.5528517"><ele>115.33333333333333</ele><time>2026-04-06T13:26:37.658Z</time></trkpt><trkpt lat="43.997805" lon="10.5527883"><ele>122.0</ele><time>2026-04-06T13:26:38.658Z</time></trkpt><trkpt lat="43.9979817" lon="10.552725"><ele>122.0</ele><time>2026-04-06T13:26:39.658Z</time></trkpt><trkpt lat="43.998155" lon="10.55267"><ele>122.0</ele><time>2026-04-06T13:26:40.658Z</time></trkpt><trkpt lat="43.998325" lon="10.5526117"><ele>122.0</ele><time>2026-04-06T13:26:41.658Z</time></trkpt><trkpt lat="43.9984933" lon="10.5525567"><ele>117.33333333333333</ele><time>2026-04-06T13:26:42.658Z</time></trkpt><trkpt lat="43.99866" lon="10.5525"><ele>112.66666666666666</ele><time>2026-04-06T13:26:43.658Z</time></trkpt><trkpt lat="43.9988267" lon="10.55244"><ele>108.0</ele><time>2026-04-06T13:26:44.659Z</time></trkpt><trkpt lat="43.99899" lon="10.5523767"><ele>108.0</ele><time>2026-04-06T13:26:45.659Z</time></trkpt><trkpt lat="43.9991517" lon="10.5523017"><ele>108.0</ele><time>2026-04-06T13:26:46.659Z</time></trkpt><trkpt lat="43.99931" lon="10.5522067"><ele>108.0</ele><time>2026-04-06T13:26:47.658Z</time></trkpt><trkpt lat="43.99946" lon="10.5520917"><ele>109.0</ele><time>2026-04-06T13:26:48.658Z</time></trkpt><trkpt lat="43.9996" lon="10.5519533"><ele>110.0</ele><time>2026-04-06T13:26:49.658Z</time></trkpt><trkpt lat="43.9997317" lon="10.5517967"><ele>111.0</ele><time>2026-04-06T13:26:50.658Z</time></trkpt><trkpt lat="43.9998583" lon="10.5516283"><ele>111.0</ele><time>2026-04-06T13:26:51.658Z</time></trkpt><trkpt lat="43.9999817" lon="10.551455"><ele>111.0</ele><time>2026-04-06T13:26:52.658Z</time></trkpt><trkpt lat="44.0001033" lon="10.5512817"><ele>111.0</ele><time>2026-04-06T13:26:53.659Z</time></trkpt><trkpt lat="44.000225" lon="10.55111"><ele>119.0</ele><time>2026-04-06T13:26:54.658Z</time></trkpt><trkpt lat="44.0003467" lon="10.55094"><ele>127.0</ele><time>2026-04-06T13:26:55.658Z</time></trkpt><trkpt lat="44.00047" lon="10.5507733"><ele>135.0</ele><time>2026-04-06T13:26:56.658Z</time></trkpt><trkpt lat="44.0005983" lon="10.5506117"><ele>135.0</ele><time>2026-04-06T13:26:57.658Z</time></trkpt><trkpt lat="44.00073" lon="10.55046"><ele>135.0</ele><time>2026-04-06T13:26:58.658Z</time></trkpt><trkpt lat="44.0008667" lon="10.5503167"><ele>135.0</ele><time>2026-04-06T13:26:59.658Z</time></trkpt><trkpt lat="44.0010133" lon="10.55019"><ele>128.66666666666666</ele><time>2026-04-06T13:27:00.658Z</time></trkpt><trkpt lat="44.0011633" lon="10.55008"><ele>122.33333333333333</ele><time>2026-04-06T13:27:01.658Z</time></trkpt><trkpt lat="44.0013167" lon="10.549985"><ele>116.0</ele><time>2026-04-06T13:27:02.658Z</time></trkpt><trkpt lat="44.0014767" lon="10.5499033"><ele>116.0</ele><time>2026-04-06T13:27:03.658Z</time></trkpt><trkpt lat="44.0016433" lon="10.549835"><ele>116.0</ele><time>2026-04-06T13:27:04.658Z</time></trkpt><trkpt lat="44.0018133" lon="10.549775"><ele>116.0</ele><time>2026-04-06T13:27:05.658Z</time></trkpt><trkpt lat="44.0019867" lon="10.54972"><ele>112.33333333333333</ele><time>2026-04-06T13:27:06.658Z</time></trkpt><trkpt lat="44.0021567" lon="10.5496683"><ele>108.66666666666666</ele><time>2026-04-06T13:27:07.658Z</time></trkpt><trkpt lat="44.002325" lon="10.5496167"><ele>105.0</ele><time>2026-04-06T13:27:08.659Z</time></trkpt><trkpt lat="44.0024917" lon="10.54957"><ele>105.33333333333334</ele><time>2026-04-06T13:27:09.659Z</time></trkpt><trkpt lat="44.00266" lon="10.5495233"><ele>105.66666666666667</ele><time>2026-04-06T13:27:10.659Z</time></trkpt><trkpt lat="44.00283" lon="10.54947"><ele>106.0</ele><time>2026-04-06T13:27:11.658Z</time></trkpt><trkpt lat="44.0030033" lon="10.5494167"><ele>106.0</ele><time>2026-04-06T13:27:12.658Z</time></trkpt><trkpt lat="44.00318" lon="10.5493617"><ele>106.0</ele><time>2026-04-06T13:27:13.659Z</time></trkpt><trkpt lat="44.0033533" lon="10.5492967"><ele>106.0</ele><time>2026-04-06T13:27:14.658Z</time></trkpt><trkpt lat="44.0035217" lon="10.549215"><ele>105.33333333333334</ele><time>2026-04-06T13:27:15.658Z</time></trkpt><trkpt lat="44.0036883" lon="10.5491183"><ele>104.66666666666666</ele><time>2026-04-06T13:27:16.658Z</time></trkpt><trkpt lat="44.0038517" lon="10.5490083"><ele>104.0</ele><time>2026-04-06T13:27:17.659Z</time></trkpt><trkpt lat="44.00401" lon="10.548885"><ele>104.0</ele><time>2026-04-06T13:27:18.658Z</time></trkpt><trkpt lat="44.0041683" lon="10.5487533"><ele>104.0</ele><time>2026-04-06T13:27:19.658Z</time></trkpt><trkpt lat="44.004325" lon="10.548615"><ele>104.0</ele><time>2026-04-06T13:27:20.658Z</time></trkpt><trkpt lat="44.00448" lon="10.5484733"><ele>105.0</ele><time>2026-04-06T13:27:21.658Z</time></trkpt><trkpt lat="44.004635" lon="10.5483283"><ele>106.0</ele><time>2026-04-06T13:27:22.659Z</time></trkpt><trkpt lat="44.0047883" lon="10.5481783"><ele>107.0</ele><time>2026-04-06T13:27:23.658Z</time></trkpt><trkpt lat="44.0049467" lon="10.5480283"><ele>108.0</ele><time>2026-04-06T13:27:24.658Z</time></trkpt><trkpt lat="44.005105" lon="10.547875"><ele>109.0</ele><time>2026-04-06T13:27:25.658Z</time></trkpt><trkpt lat="44.005265" lon="10.5477233"><ele>110.0</ele><time>2026-04-06T13:27:26.658Z</time></trkpt><trkpt lat="44.005425" lon="10.54758"><ele>110.0</ele><time>2026-04-06T13:27:27.658Z</time></trkpt><trkpt lat="44.0055833" lon="10.5474333"><ele>110.0</ele><time>2026-04-06T13:27:28.658Z</time></trkpt><trkpt lat="44.00574" lon="10.547285"><ele>110.0</ele><time>2026-04-06T13:27:29.658Z</time></trkpt><trkpt lat="44.0058967" lon="10.5471367"><ele>109.33333333333333</ele><time>2026-04-06T13:27:30.658Z</time></trkpt><trkpt lat="44.0060567" lon="10.5469933"><ele>108.66666666666666</ele><time>2026-04-06T13:27:31.658Z</time></trkpt><trkpt lat="44.006215" lon="10.546845"><ele>108.0</ele><time>2026-04-06T13:27:32.658Z</time></trkpt><trkpt lat="44.0063717" lon="10.5466983"><ele>108.0</ele><time>2026-04-06T13:27:33.659Z</time></trkpt><trkpt lat="44.0065283" lon="10.54655"><ele>108.0</ele><time>2026-04-06T13:27:34.658Z</time></trkpt><trkpt lat="44.0066833" lon="10.5464033"><ele>108.0</ele><time>2026-04-06T13:27:35.658Z</time></trkpt><trkpt lat="44.0068367" lon="10.546255"><ele>108.66666666666666</ele><time>2026-04-06T13:27:36.658Z</time></trkpt><trkpt lat="44.0069867" lon="10.5460983"><ele>109.33333333333333</ele><time>2026-04-06T13:27:37.658Z</time></trkpt><trkpt lat="44.0071317" lon="10.5459283"><ele>110.0</ele><time>2026-04-06T13:27:38.658Z</time></trkpt><trkpt lat="44.007265" lon="10.5457467"><ele>110.0</ele><time>2026-04-06T13:27:39.658Z</time></trkpt><trkpt lat="44.0073933" lon="10.5455517"><ele>110.0</ele><time>2026-04-06T13:27:40.658Z</time></trkpt><trkpt lat="44.0075133" lon="10.5453467"><ele>110.0</ele><time>2026-04-06T13:27:41.658Z</time></trkpt><trkpt lat="44.00762" lon="10.5451317"><ele>109.66666666666666</ele><time>2026-04-06T13:27:42.659Z</time></trkpt><trkpt lat="44.007715" lon="10.5449083"><ele>109.33333333333334</ele><time>2026-04-06T13:27:43.658Z</time></trkpt><trkpt lat="44.007805" lon="10.54468"><ele>109.0</ele><time>2026-04-06T13:27:44.658Z</time></trkpt><trkpt lat="44.0078867" lon="10.5444483"><ele>109.66666666666667</ele><time>2026-04-06T13:27:45.658Z</time></trkpt><trkpt lat="44.0079633" lon="10.5442167"><ele>110.33333333333334</ele><time>2026-04-06T13:27:46.659Z</time></trkpt><trkpt lat="44.0080383" lon="10.5439883"><ele>111.0</ele><time>2026-04-06T13:27:47.658Z</time></trkpt><trkpt lat="44.0081183" lon="10.5437667"><ele>111.33333333333334</ele><time>2026-04-06T13:27:48.659Z</time></trkpt><trkpt lat="44.0082017" lon="10.543545"><ele>111.66666666666667</ele><time>2026-04-06T13:27:49.659Z</time></trkpt><trkpt lat="44.0082917" lon="10.5433367"><ele>112.0</ele><time>2026-04-06T13:27:50.659Z</time></trkpt><trkpt lat="44.0083917" lon="10.5431383"><ele>112.0</ele><time>2026-04-06T13:27:51.658Z</time></trkpt><trkpt lat="44.0085" lon="10.5429517"><ele>112.0</ele><time>2026-04-06T13:27:52.658Z</time></trkpt><trkpt lat="44.008615" lon="10.542775"><ele>112.0</ele><time>2026-04-06T13:27:53.658Z</time></trkpt><trkpt lat="44.0087367" lon="10.5426067"><ele>112.33333333333334</ele><time>2026-04-06T13:27:54.658Z</time></trkpt><trkpt lat="44.00887" lon="10.5424583"><ele>112.66666666666666</ele><time>2026-04-06T13:27:55.659Z</time></trkpt><trkpt lat="44.0090133" lon="10.5423267"><ele>113.0</ele><time>2026-04-06T13:27:56.658Z</time></trkpt><trkpt lat="44.0091633" lon="10.5422133"><ele>113.0</ele><time>2026-04-06T13:27:57.658Z</time></trkpt><trkpt lat="44.0093217" lon="10.5421133"><ele>113.0</ele><time>2026-04-06T13:27:58.658Z</time></trkpt><trkpt lat="44.0094833" lon="10.54203"><ele>113.0</ele><time>2026-04-06T13:27:59.659Z</time></trkpt><trkpt lat="44.0096467" lon="10.54196"><ele>115.0</ele><time>2026-04-06T13:28:00.658Z</time></trkpt><trkpt lat="44.0098167" lon="10.541905"><ele>117.0</ele><time>2026-04-06T13:28:01.658Z</time></trkpt><trkpt lat="44.0099917" lon="10.541855"><ele>119.0</ele><time>2026-04-06T13:28:02.658Z</time></trkpt><trkpt lat="44.01017" lon="10.5418083"><ele>119.33333333333333</ele><time>2026-04-06T13:28:03.658Z</time></trkpt><trkpt lat="44.0103483" lon="10.54176"><ele>119.66666666666666</ele><time>2026-04-06T13:28:04.658Z</time></trkpt><trkpt lat="44.01053" lon="10.54171"><ele>120.0</ele><time>2026-04-06T13:28:05.659Z</time></trkpt><trkpt lat="44.0107133" lon="10.54166"><ele>120.0</ele><time>2026-04-06T13:28:06.658Z</time></trkpt><trkpt lat="44.0108917" lon="10.54161"><ele>120.0</ele><time>2026-04-06T13:28:07.658Z</time></trkpt><trkpt lat="44.01107" lon="10.5415583"><ele>120.0</ele><time>2026-04-06T13:28:08.658Z</time></trkpt><trkpt lat="44.0117233" lon="10.54143"><ele>120.0</ele><time>2026-04-06T13:28:11.241Z</time></trkpt><trkpt lat="44.0119633" lon="10.5413483"><ele>120.0</ele><time>2026-04-06T13:28:12.658Z</time></trkpt><trkpt lat="44.0120817" lon="10.5412967"><ele>120.0</ele><time>2026-04-06T13:28:13.658Z</time></trkpt><trkpt lat="44.0122383" lon="10.5412583"><ele>122.33333333333334</ele><time>2026-04-06T13:28:14.658Z</time></trkpt><trkpt lat="44.0124" lon="10.541195"><ele>124.66666666666667</ele><time>2026-04-06T13:28:15.658Z</time></trkpt><trkpt lat="44.0125767" lon="10.54112"><ele>127.0</ele><time>2026-04-06T13:28:16.658Z</time></trkpt><trkpt lat="44.0127517" lon="10.5410517"><ele>127.33333333333334</ele><time>2026-04-06T13:28:17.659Z</time></trkpt><trkpt lat="44.012925" lon="10.54098"><ele>127.66666666666666</ele><time>2026-04-06T13:28:18.658Z</time></trkpt><trkpt lat="44.0131" lon="10.5409067"><ele>128.0</ele><time>2026-04-06T13:28:19.658Z</time></trkpt><trkpt lat="44.0132783" lon="10.5408283"><ele>126.33333333333333</ele><time>2026-04-06T13:28:20.658Z</time></trkpt><trkpt lat="44.0134483" lon="10.5407483"><ele>124.66666666666666</ele><time>2026-04-06T13:28:21.659Z</time></trkpt><trkpt lat="44.0136183" lon="10.540665"><ele>123.0</ele><time>2026-04-06T13:28:22.658Z</time></trkpt><trkpt lat="44.0137867" lon="10.54058"><ele>123.0</ele><time>2026-04-06T13:28:23.658Z</time></trkpt><trkpt lat="44.0139483" lon="10.54049"><ele>123.0</ele><time>2026-04-06T13:28:24.658Z</time></trkpt><trkpt lat="44.01411" lon="10.5403967"><ele>123.0</ele><time>2026-04-06T13:28:25.658Z</time></trkpt><trkpt lat="44.01427" lon="10.5403083"><ele>128.33333333333334</ele><time>2026-04-06T13:28:26.658Z</time></trkpt><trkpt lat="44.0144267" lon="10.540225"><ele>133.66666666666669</ele><time>2026-04-06T13:28:27.658Z</time></trkpt><trkpt lat="44.0145833" lon="10.5401383"><ele>139.0</ele><time>2026-04-06T13:28:28.659Z</time></trkpt><trkpt lat="44.01474" lon="10.540055"><ele>139.0</ele><time>2026-04-06T13:28:29.658Z</time></trkpt><trkpt lat="44.0148933" lon="10.5399717"><ele>139.0</ele><time>2026-04-06T13:28:30.658Z</time></trkpt><trkpt lat="44.015045" lon="10.53989"><ele>139.0</ele><time>2026-04-06T13:28:31.658Z</time></trkpt><trkpt lat="44.0151983" lon="10.53981"><ele>133.66666666666669</ele><time>2026-04-06T13:28:32.658Z</time></trkpt><trkpt lat="44.0153517" lon="10.5397267"><ele>128.33333333333334</ele><time>2026-04-06T13:28:33.658Z</time></trkpt><trkpt lat="44.0155067" lon="10.5396383"><ele>123.0</ele><time>2026-04-06T13:28:34.659Z</time></trkpt><trkpt lat="44.01566" lon="10.539555"><ele>131.66666666666666</ele><time>2026-04-06T13:28:35.658Z</time></trkpt><trkpt lat="44.015815" lon="10.5394767"><ele>140.33333333333331</ele><time>2026-04-06T13:28:36.658Z</time></trkpt><trkpt lat="44.0159717" lon="10.5394"><ele>149.0</ele><time>2026-04-06T13:28:37.658Z</time></trkpt><trkpt lat="44.01613" lon="10.5393333"><ele>152.0</ele><time>2026-04-06T13:28:38.659Z</time></trkpt><trkpt lat="44.0162867" lon="10.5392667"><ele>155.0</ele><time>2026-04-06T13:28:39.658Z</time></trkpt><trkpt lat="44.0164433" lon="10.5392017"><ele>158.0</ele><time>2026-04-06T13:28:40.658Z</time></trkpt><trkpt lat="44.0166017" lon="10.5391417"><ele>152.66666666666666</ele><time>2026-04-06T13:28:41.658Z</time></trkpt><trkpt lat="44.0167617" lon="10.5390833"><ele>147.33333333333334</ele><time>2026-04-06T13:28:42.658Z</time></trkpt><trkpt lat="44.016915" lon="10.539025"><ele>142.0</ele><time>2026-04-06T13:28:43.659Z</time></trkpt><trkpt lat="44.0170667" lon="10.538975"><ele>142.0</ele><time>2026-04-06T13:28:44.658Z</time></trkpt><trkpt lat="44.0172183" lon="10.5389233"><ele>142.0</ele><time>2026-04-06T13:28:45.659Z</time></trkpt><trkpt lat="44.01737" lon="10.5388733"><ele>142.0</ele><time>2026-04-06T13:28:46.658Z</time></trkpt><trkpt lat="44.0175267" lon="10.538815"><ele>137.0</ele><time>2026-04-06T13:28:47.658Z</time></trkpt><trkpt lat="44.0176817" lon="10.538755"><ele>132.0</ele><time>2026-04-06T13:28:48.658Z</time></trkpt><trkpt lat="44.017835" lon="10.5386933"><ele>127.0</ele><time>2026-04-06T13:28:49.659Z</time></trkpt><trkpt lat="44.01798" lon="10.5386217"><ele>131.0</ele><time>2026-04-06T13:28:50.658Z</time></trkpt><trkpt lat="44.01813" lon="10.5385433"><ele>135.0</ele><time>2026-04-06T13:28:51.658Z</time></trkpt><trkpt lat="44.0182783" lon="10.538455"><ele>139.0</ele><time>2026-04-06T13:28:52.659Z</time></trkpt><trkpt lat="44.01842" lon="10.53836"><ele>139.0</ele><time>2026-04-06T13:28:53.658Z</time></trkpt><trkpt lat="44.0185633" lon="10.5382667"><ele>139.0</ele><time>2026-04-06T13:28:54.659Z</time></trkpt><trkpt lat="44.0187017" lon="10.5381517"><ele>139.0</ele><time>2026-04-06T13:28:55.658Z</time></trkpt><trkpt lat="44.0188383" lon="10.5380267"><ele>139.0</ele><time>2026-04-06T13:28:56.658Z</time></trkpt><trkpt lat="44.0189667" lon="10.5378933"><ele>139.0</ele><time>2026-04-06T13:28:57.658Z</time></trkpt><trkpt lat="44.019095" lon="10.537755"><ele>139.0</ele><time>2026-04-06T13:28:58.658Z</time></trkpt><trkpt lat="44.0192117" lon="10.5376067"><ele>138.0</ele><time>2026-04-06T13:28:59.658Z</time></trkpt><trkpt lat="44.0193217" lon="10.53745"><ele>137.0</ele><time>2026-04-06T13:29:00.658Z</time></trkpt><trkpt lat="44.01942" lon="10.5372983"><ele>136.0</ele><time>2026-04-06T13:29:01.658Z</time></trkpt><trkpt lat="44.0195" lon="10.537145"><ele>135.0</ele><time>2026-04-06T13:29:02.658Z</time></trkpt><trkpt lat="44.01957" lon="10.5369817"><ele>139.0</ele><time>2026-04-06T13:29:03.658Z</time></trkpt><trkpt lat="44.0196317" lon="10.5368083"><ele>143.0</ele><time>2026-04-06T13:29:04.658Z</time></trkpt><trkpt lat="44.0196783" lon="10.5366233"><ele>147.0</ele><time>2026-04-06T13:29:05.658Z</time></trkpt><trkpt lat="44.0197117" lon="10.5364383"><ele>151.0</ele><time>2026-04-06T13:29:06.658Z</time></trkpt><trkpt lat="44.0197317" lon="10.536255"><ele>153.75</ele><time>2026-04-06T13:29:07.658Z</time></trkpt><trkpt lat="44.0197417" lon="10.5360667"><ele>156.5</ele><time>2026-04-06T13:29:08.658Z</time></trkpt><trkpt lat="44.0197417" lon="10.5358783"><ele>159.25</ele><time>2026-04-06T13:29:09.658Z</time></trkpt><trkpt lat="44.0197267" lon="10.535695"><ele>162.0</ele><time>2026-04-06T13:29:10.658Z</time></trkpt><trkpt lat="44.0197033" lon="10.5355217"><ele>160.2</ele><time>2026-04-06T13:29:11.658Z</time></trkpt><trkpt lat="44.0196767" lon="10.5353733"><ele>158.39999999999998</ele><time>2026-04-06T13:29:12.659Z</time></trkpt><trkpt lat="44.0196417" lon="10.5352417"><ele>156.60000000000002</ele><time>2026-04-06T13:29:13.658Z</time></trkpt><trkpt lat="44.0195967" lon="10.5351067"><ele>154.8</ele><time>2026-04-06T13:29:14.658Z</time></trkpt><trkpt lat="44.019555" lon="10.5349717"><ele>153.0</ele><time>2026-04-06T13:29:15.659Z</time></trkpt><trkpt lat="44.0195117" lon="10.5348367"><ele>153.0</ele><time>2026-04-06T13:29:16.658Z</time></trkpt><trkpt lat="44.019465" lon="10.53471"><ele>153.0</ele><time>2026-04-06T13:29:17.658Z</time></trkpt><trkpt lat="44.019405" lon="10.5345867"><ele>153.0</ele><time>2026-04-06T13:29:18.658Z</time></trkpt><trkpt lat="44.0193583" lon="10.5344867"><ele>153.0</ele><time>2026-04-06T13:29:19.658Z</time></trkpt><trkpt lat="44.0193117" lon="10.5344017"><ele>153.0</ele><time>2026-04-06T13:29:20.658Z</time></trkpt><trkpt lat="44.0192733" lon="10.5343217"><ele>153.0</ele><time>2026-04-06T13:29:21.658Z</time></trkpt><trkpt lat="44.0192333" lon="10.5342433"><ele>150.66666666666666</ele><time>2026-04-06T13:29:22.658Z</time></trkpt><trkpt lat="44.0191967" lon="10.5341667"><ele>148.33333333333334</ele><time>2026-04-06T13:29:23.658Z</time></trkpt><trkpt lat="44.0191317" lon="10.5340267"><ele>146.0</ele><time>2026-04-06T13:29:25.658Z</time></trkpt><trkpt lat="44.0190867" lon="10.5339283"><ele>143.66666666666669</ele><time>2026-04-06T13:29:27.658Z</time></trkpt><trkpt lat="44.019075" lon="10.5340617"><ele>141.33333333333334</ele><time>2026-04-06T13:29:43.659Z</time></trkpt><trkpt lat="44.0191083" lon="10.53414"><ele>139.0</ele><time>2026-04-06T13:29:44.658Z</time></trkpt><trkpt lat="44.0191567" lon="10.53423"><ele>139.0</ele><time>2026-04-06T13:29:45.658Z</time></trkpt><trkpt lat="44.0192233" lon="10.534345"><ele>139.0</ele><time>2026-04-06T13:29:46.658Z</time></trkpt><trkpt lat="44.01928" lon="10.5344733"><ele>139.0</ele><time>2026-04-06T13:29:47.658Z</time></trkpt><trkpt lat="44.0193333" lon="10.5346"><ele>139.0</ele><time>2026-04-06T13:29:48.658Z</time></trkpt><trkpt lat="44.0193783" lon="10.5347167"><ele>139.0</ele><time>2026-04-06T13:29:49.658Z</time></trkpt><trkpt lat="44.0194183" lon="10.5348067"><ele>142.5</ele><time>2026-04-06T13:29:50.658Z</time></trkpt><trkpt lat="44.01948" lon="10.5349033"><ele>146.0</ele><time>2026-04-06T13:29:52.658Z</time></trkpt><trkpt lat="44.01956" lon="10.5349067"><ele>149.5</ele><time>2026-04-06T13:29:59.658Z</time></trkpt><trkpt lat="44.0196467" lon="10.5348317"><ele>153.0</ele><time>2026-04-06T13:30:01.658Z</time></trkpt><trkpt lat="44.01983" lon="10.5346233"><ele>153.0</ele><time>2026-04-06T13:30:04.658Z</time></trkpt><trkpt lat="44.0198917" lon="10.5345583"><ele>153.0</ele><time>2026-04-06T13:30:05.658Z</time></trkpt><trkpt lat="44.019945" lon="10.5344983"><ele>153.0</ele><time>2026-04-06T13:30:06.658Z</time></trkpt><trkpt lat="44.02001" lon="10.534425"><ele>153.0</ele><time>2026-04-06T13:30:08.659Z</time></trkpt><trkpt lat="44.0200883" lon="10.5343483"><ele>153.0</ele><time>2026-04-06T13:30:14.658Z</time></trkpt><trkpt lat="44.020145" lon="10.5342983"><ele>153.0</ele><time>2026-04-06T13:30:26.658Z</time></trkpt><trkpt lat="44.0201833" lon="10.5341883"><ele>146.6</ele><time>2026-04-06T13:30:29.659Z</time></trkpt><trkpt lat="44.0201517" lon="10.5340317"><ele>140.20000000000002</ele><time>2026-04-06T13:30:31.659Z</time></trkpt><trkpt lat="44.0201267" lon="10.53393"><ele>133.8</ele><time>2026-04-06T13:30:32.658Z</time></trkpt><trkpt lat="44.0200917" lon="10.5338117"><ele>127.4</ele><time>2026-04-06T13:30:33.658Z</time></trkpt><trkpt lat="44.0200633" lon="10.5336833"><ele>121.0</ele><time>2026-04-06T13:30:34.658Z</time></trkpt><trkpt lat="44.02003" lon="10.5335517"><ele>121.0</ele><time>2026-04-06T13:30:35.658Z</time></trkpt><trkpt lat="44.0199983" lon="10.5334067"><ele>121.0</ele><time>2026-04-06T13:30:36.658Z</time></trkpt><trkpt lat="44.0199683" lon="10.5332533"><ele>121.0</ele><time>2026-04-06T13:30:37.658Z</time></trkpt><trkpt lat="44.0199417" lon="10.5330967"><ele>121.0</ele><time>2026-04-06T13:30:38.658Z</time></trkpt><trkpt lat="44.01991" lon="10.5329267"><ele>120.5</ele><time>2026-04-06T13:30:39.659Z</time></trkpt><trkpt lat="44.0198817" lon="10.5327483"><ele>120.0</ele><time>2026-04-06T13:30:40.658Z</time></trkpt><trkpt lat="44.0198583" lon="10.5325617"><ele>119.5</ele><time>2026-04-06T13:30:41.658Z</time></trkpt><trkpt lat="44.0198367" lon="10.53238"><ele>119.0</ele><time>2026-04-06T13:30:42.658Z</time></trkpt><trkpt lat="44.01981" lon="10.5322167"><ele>119.0</ele><time>2026-04-06T13:30:43.658Z</time></trkpt><trkpt lat="44.019795" lon="10.5320567"><ele>119.0</ele><time>2026-04-06T13:30:44.658Z</time></trkpt><trkpt lat="44.0198017" lon="10.5319033"><ele>119.0</ele><time>2026-04-06T13:30:45.658Z</time></trkpt><trkpt lat="44.0198317" lon="10.5317683"><ele>119.0</ele><time>2026-04-06T13:30:46.659Z</time></trkpt><trkpt lat="44.0198833" lon="10.5316467"><ele>119.0</ele><time>2026-04-06T13:30:47.658Z</time></trkpt><trkpt lat="44.0199533" lon="10.5315417"><ele>120.0</ele><time>2026-04-06T13:30:48.658Z</time></trkpt><trkpt lat="44.020025" lon="10.531445"><ele>121.0</ele><time>2026-04-06T13:30:49.658Z</time></trkpt><trkpt lat="44.020095" lon="10.53135"><ele>122.0</ele><time>2026-04-06T13:30:50.658Z</time></trkpt><trkpt lat="44.0201633" lon="10.531245"><ele>123.0</ele><time>2026-04-06T13:30:51.658Z</time></trkpt><trkpt lat="44.0202183" lon="10.5311167"><ele>124.0</ele><time>2026-04-06T13:30:52.658Z</time></trkpt><trkpt lat="44.0202683" lon="10.53097"><ele>124.0</ele><time>2026-04-06T13:30:53.658Z</time></trkpt><trkpt lat="44.02033" lon="10.5308183"><ele>124.0</ele><time>2026-04-06T13:30:54.658Z</time></trkpt><trkpt lat="44.0204" lon="10.53067"><ele>124.0</ele><time>2026-04-06T13:30:55.658Z</time></trkpt><trkpt lat="44.0204733" lon="10.5305267"><ele>124.0</ele><time>2026-04-06T13:30:56.659Z</time></trkpt><trkpt lat="44.0205533" lon="10.53039"><ele>124.25</ele><time>2026-04-06T13:30:57.659Z</time></trkpt><trkpt lat="44.020635" lon="10.5302533"><ele>124.5</ele><time>2026-04-06T13:30:58.658Z</time></trkpt><trkpt lat="44.0207183" lon="10.5301167"><ele>124.75</ele><time>2026-04-06T13:30:59.658Z</time></trkpt><trkpt lat="44.0208067" lon="10.5299817"><ele>125.0</ele><time>2026-04-06T13:31:00.658Z</time></trkpt><trkpt lat="44.0208917" lon="10.5298433"><ele>125.0</ele><time>2026-04-06T13:31:01.658Z</time></trkpt><trkpt lat="44.0209717" lon="10.529705"><ele>125.0</ele><time>2026-04-06T13:31:02.658Z</time></trkpt><trkpt lat="44.021045" lon="10.5295667"><ele>125.0</ele><time>2026-04-06T13:31:03.659Z</time></trkpt><trkpt lat="44.0211033" lon="10.529415"><ele>125.0</ele><time>2026-04-06T13:31:04.658Z</time></trkpt><trkpt lat="44.0211817" lon="10.5292783"><ele>123.5</ele><time>2026-04-06T13:31:05.658Z</time></trkpt><trkpt lat="44.0212633" lon="10.529145"><ele>122.0</ele><time>2026-04-06T13:31:06.659Z</time></trkpt><trkpt lat="44.021345" lon="10.529015"><ele>120.5</ele><time>2026-04-06T13:31:07.658Z</time></trkpt><trkpt lat="44.0214283" lon="10.52888"><ele>119.0</ele><time>2026-04-06T13:31:08.658Z</time></trkpt><trkpt lat="44.02151" lon="10.5287417"><ele>119.25</ele><time>2026-04-06T13:31:09.658Z</time></trkpt><trkpt lat="44.02159" lon="10.528605"><ele>119.5</ele><time>2026-04-06T13:31:10.658Z</time></trkpt><trkpt lat="44.021665" lon="10.528465"><ele>119.75</ele><time>2026-04-06T13:31:11.658Z</time></trkpt><trkpt lat="44.02175" lon="10.52833"><ele>120.0</ele><time>2026-04-06T13:31:12.658Z</time></trkpt><trkpt lat="44.021845" lon="10.5282"><ele>120.25</ele><time>2026-04-06T13:31:13.658Z</time></trkpt><trkpt lat="44.0219483" lon="10.5280783"><ele>120.5</ele><time>2026-04-06T13:31:14.658Z</time></trkpt><trkpt lat="44.0220533" lon="10.527955"><ele>120.75</ele><time>2026-04-06T13:31:15.658Z</time></trkpt><trkpt lat="44.022155" lon="10.5278283"><ele>121.0</ele><time>2026-04-06T13:31:16.658Z</time></trkpt><trkpt lat="44.022255" lon="10.5277"><ele>121.25</ele><time>2026-04-06T13:31:17.658Z</time></trkpt><trkpt lat="44.02236" lon="10.5275783"><ele>121.5</ele><time>2026-04-06T13:31:18.658Z</time></trkpt><trkpt lat="44.0224667" lon="10.5274517"><ele>121.75</ele><time>2026-04-06T13:31:19.659Z</time></trkpt><trkpt lat="44.022575" lon="10.5273183"><ele>122.0</ele><time>2026-04-06T13:31:20.658Z</time></trkpt><trkpt lat="44.0226867" lon="10.5271833"><ele>121.5</ele><time>2026-04-06T13:31:21.658Z</time></trkpt><trkpt lat="44.022795" lon="10.527045"><ele>121.0</ele><time>2026-04-06T13:31:22.658Z</time></trkpt><trkpt lat="44.0228933" lon="10.5268967"><ele>120.5</ele><time>2026-04-06T13:31:23.659Z</time></trkpt><trkpt lat="44.0229833" lon="10.5267267"><ele>120.0</ele><time>2026-04-06T13:31:24.658Z</time></trkpt><trkpt lat="44.0230633" lon="10.526545"><ele>120.0</ele><time>2026-04-06T13:31:25.658Z</time></trkpt><trkpt lat="44.0231367" lon="10.5263583"><ele>120.0</ele><time>2026-04-06T13:31:26.658Z</time></trkpt><trkpt lat="44.0232117" lon="10.52617"><ele>120.0</ele><time>2026-04-06T13:31:27.658Z</time></trkpt><trkpt lat="44.0232833" lon="10.52598"><ele>119.66666666666666</ele><time>2026-04-06T13:31:28.658Z</time></trkpt><trkpt lat="44.0233517" lon="10.525785"><ele>119.33333333333333</ele><time>2026-04-06T13:31:29.658Z</time></trkpt><trkpt lat="44.0234233" lon="10.52559"><ele>119.0</ele><time>2026-04-06T13:31:30.658Z</time></trkpt><trkpt lat="44.0234967" lon="10.5253983"><ele>118.33333333333333</ele><time>2026-04-06T13:31:31.658Z</time></trkpt><trkpt lat="44.0235683" lon="10.5252017"><ele>117.66666666666666</ele><time>2026-04-06T13:31:32.658Z</time></trkpt><trkpt lat="44.0236467" lon="10.5250067"><ele>117.0</ele><time>2026-04-06T13:31:33.659Z</time></trkpt><trkpt lat="44.0237267" lon="10.5248117"><ele>117.0</ele><time>2026-04-06T13:31:34.659Z</time></trkpt><trkpt lat="44.0238033" lon="10.52462"><ele>117.0</ele><time>2026-04-06T13:31:35.659Z</time></trkpt><trkpt lat="44.023875" lon="10.5244383"><ele>117.0</ele><time>2026-04-06T13:31:36.658Z</time></trkpt><trkpt lat="44.0239417" lon="10.5242633"><ele>117.0</ele><time>2026-04-06T13:31:37.658Z</time></trkpt><trkpt lat="44.024" lon="10.5241033"><ele>117.39999999999999</ele><time>2026-04-06T13:31:38.658Z</time></trkpt><trkpt lat="44.0240517" lon="10.5239633"><ele>117.79999999999998</ele><time>2026-04-06T13:31:39.658Z</time></trkpt><trkpt lat="44.0241067" lon="10.5238333"><ele>118.2</ele><time>2026-04-06T13:31:40.658Z</time></trkpt><trkpt lat="44.0241633" lon="10.523705"><ele>118.6</ele><time>2026-04-06T13:31:41.658Z</time></trkpt><trkpt lat="44.0242217" lon="10.5235633"><ele>119.0</ele><time>2026-04-06T13:31:42.658Z</time></trkpt><trkpt lat="44.02428" lon="10.5234167"><ele>119.5</ele><time>2026-04-06T13:31:43.658Z</time></trkpt><trkpt lat="44.0243383" lon="10.52326"><ele>120.0</ele><time>2026-04-06T13:31:44.658Z</time></trkpt><trkpt lat="44.0244033" lon="10.5231033"><ele>120.5</ele><time>2026-04-06T13:31:45.658Z</time></trkpt><trkpt lat="44.024465" lon="10.5229483"><ele>121.0</ele><time>2026-04-06T13:31:46.658Z</time></trkpt><trkpt lat="44.02452" lon="10.5228"><ele>121.25</ele><time>2026-04-06T13:31:47.659Z</time></trkpt><trkpt lat="44.0245767" lon="10.5226567"><ele>121.5</ele><time>2026-04-06T13:31:48.658Z</time></trkpt><trkpt lat="44.02463" lon="10.5225133"><ele>121.75</ele><time>2026-04-06T13:31:49.658Z</time></trkpt><trkpt lat="44.0246833" lon="10.5223733"><ele>122.0</ele><time>2026-04-06T13:31:50.658Z</time></trkpt><trkpt lat="44.0247367" lon="10.5222383"><ele>122.0</ele><time>2026-04-06T13:31:51.658Z</time></trkpt><trkpt lat="44.02479" lon="10.52211"><ele>121.99999999999999</ele><time>2026-04-06T13:31:52.658Z</time></trkpt><trkpt lat="44.0248417" lon="10.5219833"><ele>121.99999999999999</ele><time>2026-04-06T13:31:53.658Z</time></trkpt><trkpt lat="44.024895" lon="10.5218517"><ele>122.0</ele><time>2026-04-06T13:31:54.658Z</time></trkpt><trkpt lat="44.0249533" lon="10.5217167"><ele>122.0</ele><time>2026-04-06T13:31:55.658Z</time></trkpt><trkpt lat="44.0250133" lon="10.5215733"><ele>122.5</ele><time>2026-04-06T13:31:56.658Z</time></trkpt><trkpt lat="44.0250733" lon="10.52142"><ele>123.0</ele><time>2026-04-06T13:31:57.658Z</time></trkpt><trkpt lat="44.0251333" lon="10.5212617"><ele>123.5</ele><time>2026-04-06T13:31:58.659Z</time></trkpt><trkpt lat="44.0251917" lon="10.5211033"><ele>124.0</ele><time>2026-04-06T13:31:59.659Z</time></trkpt><trkpt lat="44.0252517" lon="10.5209533"><ele>124.0</ele><time>2026-04-06T13:32:00.658Z</time></trkpt><trkpt lat="44.0253067" lon="10.5208117"><ele>124.0</ele><time>2026-04-06T13:32:01.658Z</time></trkpt><trkpt lat="44.0253583" lon="10.5206783"><ele>124.0</ele><time>2026-04-06T13:32:02.658Z</time></trkpt><trkpt lat="44.025405" lon="10.5205517"><ele>124.0</ele><time>2026-04-06T13:32:03.659Z</time></trkpt><trkpt lat="44.0254483" lon="10.520435"><ele>124.0</ele><time>2026-04-06T13:32:04.658Z</time></trkpt><trkpt lat="44.0254833" lon="10.5203333"><ele>123.85714285714286</ele><time>2026-04-06T13:32:05.658Z</time></trkpt><trkpt lat="44.0255117" lon="10.520245"><ele>123.71428571428572</ele><time>2026-04-06T13:32:06.658Z</time></trkpt><trkpt lat="44.0255383" lon="10.52016"><ele>123.57142857142858</ele><time>2026-04-06T13:32:07.658Z</time></trkpt><trkpt lat="44.025565" lon="10.52008"><ele>123.42857142857144</ele><time>2026-04-06T13:32:08.659Z</time></trkpt><trkpt lat="44.025595" lon="10.5199967"><ele>123.28571428571429</ele><time>2026-04-06T13:32:09.659Z</time></trkpt><trkpt lat="44.0256267" lon="10.51991"><ele>123.14285714285717</ele><time>2026-04-06T13:32:10.658Z</time></trkpt><trkpt lat="44.0256667" lon="10.5198217"><ele>123.00000000000001</ele><time>2026-04-06T13:32:11.658Z</time></trkpt><trkpt lat="44.025705" lon="10.51973"><ele>123.0</ele><time>2026-04-06T13:32:12.658Z</time></trkpt><trkpt lat="44.025745" lon="10.51963"><ele>123.0</ele><time>2026-04-06T13:32:13.658Z</time></trkpt><trkpt lat="44.0257867" lon="10.5195267"><ele>123.0</ele><time>2026-04-06T13:32:14.658Z</time></trkpt><trkpt lat="44.0258267" lon="10.51942"><ele>123.0</ele><time>2026-04-06T13:32:15.659Z</time></trkpt><trkpt lat="44.02587" lon="10.5193133"><ele>123.0</ele><time>2026-04-06T13:32:16.658Z</time></trkpt><trkpt lat="44.025915" lon="10.5192033"><ele>123.0</ele><time>2026-04-06T13:32:17.658Z</time></trkpt><trkpt lat="44.0259617" lon="10.519085"><ele>123.2</ele><time>2026-04-06T13:32:18.659Z</time></trkpt><trkpt lat="44.0260083" lon="10.51896"><ele>123.4</ele><time>2026-04-06T13:32:19.659Z</time></trkpt><trkpt lat="44.026055" lon="10.51883"><ele>123.60000000000001</ele><time>2026-04-06T13:32:20.658Z</time></trkpt><trkpt lat="44.0261083" lon="10.5186967"><ele>123.80000000000001</ele><time>2026-04-06T13:32:21.659Z</time></trkpt><trkpt lat="44.0261667" lon="10.518555"><ele>124.0</ele><time>2026-04-06T13:32:22.658Z</time></trkpt><trkpt lat="44.0262217" lon="10.518405"><ele>122.5</ele><time>2026-04-06T13:32:23.658Z</time></trkpt><trkpt lat="44.0262783" lon="10.5182467"><ele>121.0</ele><time>2026-04-06T13:32:24.658Z</time></trkpt><trkpt lat="44.0263417" lon="10.517765"><ele>120.66666666666667</ele><time>2026-04-06T13:32:27.207Z</time></trkpt><trkpt lat="44.0264667" lon="10.5175733"><ele>120.33333333333334</ele><time>2026-04-06T13:32:28.658Z</time></trkpt><trkpt lat="44.0265417" lon="10.5174117"><ele>120.0</ele><time>2026-04-06T13:32:29.658Z</time></trkpt><trkpt lat="44.0266217" lon="10.51721"><ele>120.75</ele><time>2026-04-06T13:32:30.658Z</time></trkpt><trkpt lat="44.0267" lon="10.5170283"><ele>121.5</ele><time>2026-04-06T13:32:31.658Z</time></trkpt><trkpt lat="44.0267767" lon="10.51685"><ele>122.25</ele><time>2026-04-06T13:32:32.658Z</time></trkpt><trkpt lat="44.0268467" lon="10.5166783"><ele>123.0</ele><time>2026-04-06T13:32:33.658Z</time></trkpt><trkpt lat="44.0269133" lon="10.5165033"><ele>123.0</ele><time>2026-04-06T13:32:34.658Z</time></trkpt><trkpt lat="44.0269783" lon="10.5163317"><ele>123.0</ele><time>2026-04-06T13:32:35.658Z</time></trkpt><trkpt lat="44.0270433" lon="10.5161617"><ele>123.0</ele><time>2026-04-06T13:32:36.658Z</time></trkpt><trkpt lat="44.0271067" lon="10.51599"><ele>123.0</ele><time>2026-04-06T13:32:37.658Z</time></trkpt><trkpt lat="44.0271717" lon="10.51582"><ele>123.0</ele><time>2026-04-06T13:32:38.658Z</time></trkpt><trkpt lat="44.0272367" lon="10.5156483"><ele>123.0</ele><time>2026-04-06T13:32:39.658Z</time></trkpt><trkpt lat="44.0273" lon="10.51548"><ele>123.0</ele><time>2026-04-06T13:32:40.658Z</time></trkpt><trkpt lat="44.027365" lon="10.515315"><ele>123.0</ele><time>2026-04-06T13:32:41.658Z</time></trkpt><trkpt lat="44.0274283" lon="10.51515"><ele>124.0</ele><time>2026-04-06T13:32:42.658Z</time></trkpt><trkpt lat="44.02749" lon="10.514985"><ele>125.0</ele><time>2026-04-06T13:32:43.658Z</time></trkpt><trkpt lat="44.02755" lon="10.51482"><ele>126.0</ele><time>2026-04-06T13:32:44.658Z</time></trkpt><trkpt lat="44.0276133" lon="10.5146533"><ele>127.0</ele><time>2026-04-06T13:32:45.659Z</time></trkpt><trkpt lat="44.027675" lon="10.5144883"><ele>127.25</ele><time>2026-04-06T13:32:46.658Z</time></trkpt><trkpt lat="44.0277417" lon="10.5143233"><ele>127.5</ele><time>2026-04-06T13:32:47.658Z</time></trkpt><trkpt lat="44.0278067" lon="10.5141617"><ele>127.75</ele><time>2026-04-06T13:32:48.658Z</time></trkpt><trkpt lat="44.0278683" lon="10.514"><ele>128.0</ele><time>2026-04-06T13:32:49.659Z</time></trkpt><trkpt lat="44.0279283" lon="10.5138367"><ele>128.25</ele><time>2026-04-06T13:32:50.658Z</time></trkpt><trkpt lat="44.0279833" lon="10.5136767"><ele>128.5</ele><time>2026-04-06T13:32:51.658Z</time></trkpt><trkpt lat="44.0280417" lon="10.5135167"><ele>128.75</ele><time>2026-04-06T13:32:52.658Z</time></trkpt><trkpt lat="44.0281017" lon="10.51336"><ele>129.0</ele><time>2026-04-06T13:32:53.658Z</time></trkpt><trkpt lat="44.028165" lon="10.5132033"><ele>129.0</ele><time>2026-04-06T13:32:54.658Z</time></trkpt><trkpt lat="44.02823" lon="10.5130467"><ele>129.0</ele><time>2026-04-06T13:32:55.658Z</time></trkpt><trkpt lat="44.028295" lon="10.512885"><ele>129.0</ele><time>2026-04-06T13:32:56.659Z</time></trkpt><trkpt lat="44.0283567" lon="10.51272"><ele>129.0</ele><time>2026-04-06T13:32:57.658Z</time></trkpt><trkpt lat="44.02842" lon="10.5125567"><ele>130.25</ele><time>2026-04-06T13:32:58.658Z</time></trkpt><trkpt lat="44.02848" lon="10.5123917"><ele>131.5</ele><time>2026-04-06T13:32:59.658Z</time></trkpt><trkpt lat="44.0285383" lon="10.5122283"><ele>132.75</ele><time>2026-04-06T13:33:00.659Z</time></trkpt><trkpt lat="44.0286" lon="10.5120717"><ele>134.0</ele><time>2026-04-06T13:33:01.658Z</time></trkpt><trkpt lat="44.0286683" lon="10.5119183"><ele>134.0</ele><time>2026-04-06T13:33:02.658Z</time></trkpt><trkpt lat="44.0287317" lon="10.511765"><ele>134.0</ele><time>2026-04-06T13:33:03.659Z</time></trkpt><trkpt lat="44.0287967" lon="10.5116133"><ele>134.0</ele><time>2026-04-06T13:33:04.658Z</time></trkpt><trkpt lat="44.0288583" lon="10.51146"><ele>134.0</ele><time>2026-04-06T13:33:05.658Z</time></trkpt><trkpt lat="44.0289133" lon="10.511305"><ele>133.75</ele><time>2026-04-06T13:33:06.658Z</time></trkpt><trkpt lat="44.0289667" lon="10.5111483"><ele>133.5</ele><time>2026-04-06T13:33:07.659Z</time></trkpt><trkpt lat="44.0290267" lon="10.5109933"><ele>133.25</ele><time>2026-04-06T13:33:08.658Z</time></trkpt><trkpt lat="44.0290917" lon="10.5108367"><ele>133.0</ele><time>2026-04-06T13:33:09.658Z</time></trkpt><trkpt lat="44.029155" lon="10.5106783"><ele>133.5</ele><time>2026-04-06T13:33:10.658Z</time></trkpt><trkpt lat="44.02922" lon="10.5105183"><ele>134.0</ele><time>2026-04-06T13:33:11.658Z</time></trkpt><trkpt lat="44.029285" lon="10.5103567"><ele>134.5</ele><time>2026-04-06T13:33:12.658Z</time></trkpt><trkpt lat="44.02935" lon="10.5101933"><ele>135.0</ele><time>2026-04-06T13:33:13.658Z</time></trkpt><trkpt lat="44.0294133" lon="10.5100317"><ele>135.0</ele><time>2026-04-06T13:33:14.658Z</time></trkpt><trkpt lat="44.02947" lon="10.509865"><ele>135.0</ele><time>2026-04-06T13:33:15.658Z</time></trkpt><trkpt lat="44.029535" lon="10.5097017"><ele>135.0</ele><time>2026-04-06T13:33:16.658Z</time></trkpt><trkpt lat="44.029595" lon="10.5095367"><ele>135.0</ele><time>2026-04-06T13:33:17.658Z</time></trkpt><trkpt lat="44.0296567" lon="10.5093717"><ele>134.75</ele><time>2026-04-06T13:33:18.659Z</time></trkpt><trkpt lat="44.0297233" lon="10.5092083"><ele>134.5</ele><time>2026-04-06T13:33:19.658Z</time></trkpt><trkpt lat="44.0297933" lon="10.509045"><ele>134.25</ele><time>2026-04-06T13:33:20.658Z</time></trkpt><trkpt lat="44.0298533" lon="10.5088767"><ele>134.0</ele><time>2026-04-06T13:33:21.658Z</time></trkpt><trkpt lat="44.0299217" lon="10.5087267"><ele>134.75</ele><time>2026-04-06T13:33:22.658Z</time></trkpt><trkpt lat="44.0299833" lon="10.5085767"><ele>135.5</ele><time>2026-04-06T13:33:23.658Z</time></trkpt><trkpt lat="44.0300617" lon="10.5084383"><ele>136.25</ele><time>2026-04-06T13:33:24.658Z</time></trkpt><trkpt lat="44.0301483" lon="10.5083267"><ele>137.0</ele><time>2026-04-06T13:33:25.658Z</time></trkpt><trkpt lat="44.0302467" lon="10.5082367"><ele>137.0</ele><time>2026-04-06T13:33:26.658Z</time></trkpt><trkpt lat="44.0303583" lon="10.5081817"><ele>137.0</ele><time>2026-04-06T13:33:27.658Z</time></trkpt><trkpt lat="44.0304717" lon="10.5081517"><ele>137.0</ele><time>2026-04-06T13:33:28.658Z</time></trkpt><trkpt lat="44.030585" lon="10.508155"><ele>137.0</ele><time>2026-04-06T13:33:29.658Z</time></trkpt><trkpt lat="44.0307033" lon="10.5081767"><ele>138.75</ele><time>2026-04-06T13:33:30.658Z</time></trkpt><trkpt lat="44.0308133" lon="10.5082"><ele>140.5</ele><time>2026-04-06T13:33:31.658Z</time></trkpt><trkpt lat="44.0309317" lon="10.5082283"><ele>142.25</ele><time>2026-04-06T13:33:32.658Z</time></trkpt><trkpt lat="44.0310467" lon="10.5082417"><ele>144.0</ele><time>2026-04-06T13:33:33.658Z</time></trkpt><trkpt lat="44.0311583" lon="10.5082283"><ele>144.0</ele><time>2026-04-06T13:33:34.658Z</time></trkpt><trkpt lat="44.03127" lon="10.50819"><ele>144.0</ele><time>2026-04-06T13:33:35.658Z</time></trkpt><trkpt lat="44.0313667" lon="10.5081133"><ele>144.0</ele><time>2026-04-06T13:33:36.658Z</time></trkpt><trkpt lat="44.0314433" lon="10.5079983"><ele>144.0</ele><time>2026-04-06T13:33:37.658Z</time></trkpt><trkpt lat="44.0315" lon="10.5078533"><ele>142.8</ele><time>2026-04-06T13:33:38.659Z</time></trkpt><trkpt lat="44.03152" lon="10.50769"><ele>141.60000000000002</ele><time>2026-04-06T13:33:39.658Z</time></trkpt><trkpt lat="44.03151" lon="10.5075367"><ele>140.4</ele><time>2026-04-06T13:33:40.658Z</time></trkpt><trkpt lat="44.0314683" lon="10.50739"><ele>139.20000000000002</ele><time>2026-04-06T13:33:41.658Z</time></trkpt><trkpt lat="44.03141" lon="10.5072817"><ele>138.0</ele><time>2026-04-06T13:33:42.658Z</time></trkpt><trkpt lat="44.0313467" lon="10.5071883"><ele>138.0</ele><time>2026-04-06T13:33:43.658Z</time></trkpt><trkpt lat="44.0312767" lon="10.507095"><ele>138.0</ele><time>2026-04-06T13:33:44.659Z</time></trkpt><trkpt lat="44.031195" lon="10.507"><ele>138.0</ele><time>2026-04-06T13:33:45.658Z</time></trkpt><trkpt lat="44.0311083" lon="10.506905"><ele>138.0</ele><time>2026-04-06T13:33:46.658Z</time></trkpt><trkpt lat="44.0310167" lon="10.5068083"><ele>138.0</ele><time>2026-04-06T13:33:47.658Z</time></trkpt><trkpt lat="44.0309383" lon="10.506695"><ele>140.25</ele><time>2026-04-06T13:33:48.658Z</time></trkpt><trkpt lat="44.030885" lon="10.5065567"><ele>142.5</ele><time>2026-04-06T13:33:49.658Z</time></trkpt><trkpt lat="44.0308667" lon="10.5063933"><ele>144.75</ele><time>2026-04-06T13:33:50.658Z</time></trkpt><trkpt lat="44.0308717" lon="10.5062367"><ele>147.0</ele><time>2026-04-06T13:33:51.658Z</time></trkpt><trkpt lat="44.0309117" lon="10.5060783"><ele>146.25</ele><time>2026-04-06T13:33:52.659Z</time></trkpt><trkpt lat="44.0309683" lon="10.5059167"><ele>145.5</ele><time>2026-04-06T13:33:53.658Z</time></trkpt><trkpt lat="44.031035" lon="10.5057483"><ele>144.75</ele><time>2026-04-06T13:33:54.658Z</time></trkpt><trkpt lat="44.0311117" lon="10.5055783"><ele>144.0</ele><time>2026-04-06T13:33:55.658Z</time></trkpt><trkpt lat="44.0311917" lon="10.5054083"><ele>144.0</ele><time>2026-04-06T13:33:56.658Z</time></trkpt><trkpt lat="44.0312783" lon="10.505235"><ele>144.0</ele><time>2026-04-06T13:33:57.658Z</time></trkpt><trkpt lat="44.0313617" lon="10.50506"><ele>144.0</ele><time>2026-04-06T13:33:58.658Z</time></trkpt><trkpt lat="44.0314417" lon="10.5048917"><ele>144.0</ele><time>2026-04-06T13:33:59.658Z</time></trkpt><trkpt lat="44.0315217" lon="10.504725"><ele>145.75</ele><time>2026-04-06T13:34:00.658Z</time></trkpt><trkpt lat="44.0316017" lon="10.5045567"><ele>147.5</ele><time>2026-04-06T13:34:01.658Z</time></trkpt><trkpt lat="44.03168" lon="10.504385"><ele>149.25</ele><time>2026-04-06T13:34:02.658Z</time></trkpt><trkpt lat="44.03176" lon="10.5042117"><ele>151.0</ele><time>2026-04-06T13:34:03.658Z</time></trkpt><trkpt lat="44.0318433" lon="10.504035"><ele>151.0</ele><time>2026-04-06T13:34:04.658Z</time></trkpt><trkpt lat="44.031925" lon="10.503855"><ele>151.0</ele><time>2026-04-06T13:34:05.659Z</time></trkpt><trkpt lat="44.0320017" lon="10.503675"><ele>151.0</ele><time>2026-04-06T13:34:06.658Z</time></trkpt><trkpt lat="44.0320767" lon="10.503485"><ele>150.0</ele><time>2026-04-06T13:34:07.658Z</time></trkpt><trkpt lat="44.032145" lon="10.5032917"><ele>149.0</ele><time>2026-04-06T13:34:08.658Z</time></trkpt><trkpt lat="44.0322083" lon="10.5031017"><ele>148.0</ele><time>2026-04-06T13:34:09.658Z</time></trkpt><trkpt lat="44.0322717" lon="10.502915"><ele>146.75</ele><time>2026-04-06T13:34:10.658Z</time></trkpt><trkpt lat="44.0323283" lon="10.5027267"><ele>145.5</ele><time>2026-04-06T13:34:11.658Z</time></trkpt><trkpt lat="44.03238" lon="10.50254"><ele>144.25</ele><time>2026-04-06T13:34:12.658Z</time></trkpt><trkpt lat="44.03243" lon="10.5023517"><ele>143.0</ele><time>2026-04-06T13:34:13.658Z</time></trkpt><trkpt lat="44.03248" lon="10.502165"><ele>146.75</ele><time>2026-04-06T13:34:14.659Z</time></trkpt><trkpt lat="44.0325367" lon="10.5019783"><ele>150.5</ele><time>2026-04-06T13:34:15.658Z</time></trkpt><trkpt lat="44.032595" lon="10.5017917"><ele>154.25</ele><time>2026-04-06T13:34:16.658Z</time></trkpt><trkpt lat="44.0326467" lon="10.5016083"><ele>158.0</ele><time>2026-04-06T13:34:17.658Z</time></trkpt><trkpt lat="44.0326983" lon="10.5014233"><ele>157.5</ele><time>2026-04-06T13:34:18.658Z</time></trkpt><trkpt lat="44.0327517" lon="10.50124"><ele>157.0</ele><time>2026-04-06T13:34:19.658Z</time></trkpt><trkpt lat="44.0328033" lon="10.5010533"><ele>156.5</ele><time>2026-04-06T13:34:20.658Z</time></trkpt><trkpt lat="44.0328617" lon="10.5008683"><ele>156.0</ele><time>2026-04-06T13:34:21.658Z</time></trkpt><trkpt lat="44.032915" lon="10.50068"><ele>156.0</ele><time>2026-04-06T13:34:22.659Z</time></trkpt><trkpt lat="44.0329733" lon="10.5004933"><ele>156.0</ele><time>2026-04-06T13:34:23.658Z</time></trkpt><trkpt lat="44.03303" lon="10.5003133"><ele>156.0</ele><time>2026-04-06T13:34:24.659Z</time></trkpt><trkpt lat="44.0330883" lon="10.5001317"><ele>156.0</ele><time>2026-04-06T13:34:25.658Z</time></trkpt><trkpt lat="44.0331467" lon="10.49995"><ele>156.75</ele><time>2026-04-06T13:34:26.659Z</time></trkpt><trkpt lat="44.0332067" lon="10.49977"><ele>157.5</ele><time>2026-04-06T13:34:27.658Z</time></trkpt><trkpt lat="44.0332633" lon="10.4995933"><ele>158.25</ele><time>2026-04-06T13:34:28.658Z</time></trkpt><trkpt lat="44.0333117" lon="10.4994133"><ele>159.0</ele><time>2026-04-06T13:34:29.658Z</time></trkpt><trkpt lat="44.033365" lon="10.4992367"><ele>159.0</ele><time>2026-04-06T13:34:30.659Z</time></trkpt><trkpt lat="44.03342" lon="10.4990617"><ele>159.0</ele><time>2026-04-06T13:34:31.658Z</time></trkpt><trkpt lat="44.0334733" lon="10.498885"><ele>159.0</ele><time>2026-04-06T13:34:32.658Z</time></trkpt><trkpt lat="44.033525" lon="10.49871"><ele>159.0</ele><time>2026-04-06T13:34:33.658Z</time></trkpt><trkpt lat="44.0335833" lon="10.498535"><ele>157.75</ele><time>2026-04-06T13:34:34.658Z</time></trkpt><trkpt lat="44.03364" lon="10.4983567"><ele>156.5</ele><time>2026-04-06T13:34:35.658Z</time></trkpt><trkpt lat="44.0337" lon="10.4981817"><ele>155.25</ele><time>2026-04-06T13:34:36.658Z</time></trkpt><trkpt lat="44.03375" lon="10.498"><ele>154.0</ele><time>2026-04-06T13:34:37.658Z</time></trkpt><trkpt lat="44.03381" lon="10.4978267"><ele>152.25</ele><time>2026-04-06T13:34:38.658Z</time></trkpt><trkpt lat="44.033865" lon="10.49765"><ele>150.5</ele><time>2026-04-06T13:34:39.658Z</time></trkpt><trkpt lat="44.0339117" lon="10.49747"><ele>148.75</ele><time>2026-04-06T13:34:40.658Z</time></trkpt><trkpt lat="44.0339633" lon="10.4972933"><ele>147.0</ele><time>2026-04-06T13:34:41.658Z</time></trkpt><trkpt lat="44.0340133" lon="10.4971183"><ele>145.5</ele><time>2026-04-06T13:34:42.659Z</time></trkpt><trkpt lat="44.03406" lon="10.4969383"><ele>144.0</ele><time>2026-04-06T13:34:43.658Z</time></trkpt><trkpt lat="44.03411" lon="10.49676"><ele>142.5</ele><time>2026-04-06T13:34:44.658Z</time></trkpt><trkpt lat="44.0341683" lon="10.4965817"><ele>141.0</ele><time>2026-04-06T13:34:45.658Z</time></trkpt><trkpt lat="44.034225" lon="10.4964"><ele>144.75</ele><time>2026-04-06T13:34:46.658Z</time></trkpt><trkpt lat="44.034285" lon="10.4962217"><ele>148.5</ele><time>2026-04-06T13:34:47.659Z</time></trkpt><trkpt lat="44.0343467" lon="10.4960433"><ele>152.25</ele><time>2026-04-06T13:34:48.658Z</time></trkpt><trkpt lat="44.0344067" lon="10.4958667"><ele>156.0</ele><time>2026-04-06T13:34:49.659Z</time></trkpt><trkpt lat="44.0344617" lon="10.49569"><ele>156.0</ele><time>2026-04-06T13:34:50.659Z</time></trkpt><trkpt lat="44.0345" lon="10.4955217"><ele>156.0</ele><time>2026-04-06T13:34:51.659Z</time></trkpt><trkpt lat="44.0345467" lon="10.4953383"><ele>156.0</ele><time>2026-04-06T13:34:52.658Z</time></trkpt><trkpt lat="44.0346" lon="10.4951583"><ele>156.0</ele><time>2026-04-06T13:34:53.658Z</time></trkpt><trkpt lat="44.0346583" lon="10.4949817"><ele>154.75</ele><time>2026-04-06T13:34:54.658Z</time></trkpt><trkpt lat="44.0347133" lon="10.4948067"><ele>153.5</ele><time>2026-04-06T13:34:55.658Z</time></trkpt><trkpt lat="44.03477" lon="10.4946367"><ele>152.25</ele><time>2026-04-06T13:34:56.658Z</time></trkpt><trkpt lat="44.0348233" lon="10.494465"><ele>151.0</ele><time>2026-04-06T13:34:57.659Z</time></trkpt><trkpt lat="44.0348817" lon="10.494295"><ele>149.5</ele><time>2026-04-06T13:34:58.659Z</time></trkpt><trkpt lat="44.0349383" lon="10.4941267"><ele>148.0</ele><time>2026-04-06T13:34:59.658Z</time></trkpt><trkpt lat="44.034995" lon="10.49396"><ele>146.5</ele><time>2026-04-06T13:35:00.658Z</time></trkpt><trkpt lat="44.0350567" lon="10.4937983"><ele>145.0</ele><time>2026-04-06T13:35:01.659Z</time></trkpt><trkpt lat="44.0351217" lon="10.493645"><ele>149.0</ele><time>2026-04-06T13:35:02.658Z</time></trkpt><trkpt lat="44.035195" lon="10.4934983"><ele>153.0</ele><time>2026-04-06T13:35:03.658Z</time></trkpt><trkpt lat="44.0352717" lon="10.4933617"><ele>157.0</ele><time>2026-04-06T13:35:04.658Z</time></trkpt><trkpt lat="44.03535" lon="10.4932333"><ele>161.0</ele><time>2026-04-06T13:35:05.658Z</time></trkpt><trkpt lat="44.035435" lon="10.49311"><ele>161.0</ele><time>2026-04-06T13:35:06.659Z</time></trkpt><trkpt lat="44.035525" lon="10.4929983"><ele>161.0</ele><time>2026-04-06T13:35:07.658Z</time></trkpt><trkpt lat="44.0356217" lon="10.4929"><ele>161.0</ele><time>2026-04-06T13:35:08.658Z</time></trkpt><trkpt lat="44.03572" lon="10.49281"><ele>161.0</ele><time>2026-04-06T13:35:09.658Z</time></trkpt><trkpt lat="44.0358183" lon="10.49273"><ele>160.25</ele><time>2026-04-06T13:35:10.659Z</time></trkpt><trkpt lat="44.0359233" lon="10.4926633"><ele>159.5</ele><time>2026-04-06T13:35:11.658Z</time></trkpt><trkpt lat="44.0360283" lon="10.4926033"><ele>158.75</ele><time>2026-04-06T13:35:12.658Z</time></trkpt><trkpt lat="44.0361333" lon="10.4925467"><ele>158.0</ele><time>2026-04-06T13:35:13.658Z</time></trkpt><trkpt lat="44.0362433" lon="10.492505"><ele>158.0</ele><time>2026-04-06T13:35:14.658Z</time></trkpt><trkpt lat="44.03635" lon="10.4924833"><ele>158.0</ele><time>2026-04-06T13:35:15.658Z</time></trkpt><trkpt lat="44.0364567" lon="10.492475"><ele>158.0</ele><time>2026-04-06T13:35:16.658Z</time></trkpt><trkpt lat="44.0365633" lon="10.492475"><ele>158.0</ele><time>2026-04-06T13:35:17.658Z</time></trkpt><trkpt lat="44.036665" lon="10.492475"><ele>158.0</ele><time>2026-04-06T13:35:18.658Z</time></trkpt><trkpt lat="44.0367767" lon="10.49248"><ele>158.20000000000002</ele><time>2026-04-06T13:35:19.658Z</time></trkpt><trkpt lat="44.036885" lon="10.4924833"><ele>158.4</ele><time>2026-04-06T13:35:20.658Z</time></trkpt><trkpt lat="44.0369933" lon="10.4924983"><ele>158.60000000000002</ele><time>2026-04-06T13:35:21.658Z</time></trkpt><trkpt lat="44.0370967" lon="10.49254"><ele>158.8</ele><time>2026-04-06T13:35:22.658Z</time></trkpt><trkpt lat="44.0372017" lon="10.4925933"><ele>159.0</ele><time>2026-04-06T13:35:23.658Z</time></trkpt><trkpt lat="44.0373067" lon="10.4926667"><ele>159.0</ele><time>2026-04-06T13:35:24.658Z</time></trkpt><trkpt lat="44.0374133" lon="10.4927533"><ele>159.0</ele><time>2026-04-06T13:35:25.658Z</time></trkpt><trkpt lat="44.0375167" lon="10.492845"><ele>159.0</ele><time>2026-04-06T13:35:26.659Z</time></trkpt><trkpt lat="44.0376233" lon="10.4929333"><ele>159.0</ele><time>2026-04-06T13:35:27.658Z</time></trkpt><trkpt lat="44.0377233" lon="10.4930267"><ele>161.5</ele><time>2026-04-06T13:35:28.658Z</time></trkpt><trkpt lat="44.03782" lon="10.4931217"><ele>164.0</ele><time>2026-04-06T13:35:29.658Z</time></trkpt><trkpt lat="44.0379167" lon="10.493215"><ele>166.5</ele><time>2026-04-06T13:35:30.659Z</time></trkpt><trkpt lat="44.0380133" lon="10.4933133"><ele>169.0</ele><time>2026-04-06T13:35:31.658Z</time></trkpt><trkpt lat="44.0381117" lon="10.4934067"><ele>169.0</ele><time>2026-04-06T13:35:32.658Z</time></trkpt><trkpt lat="44.0382067" lon="10.4935"><ele>169.0</ele><time>2026-04-06T13:35:33.658Z</time></trkpt><trkpt lat="44.0383017" lon="10.493585"><ele>169.0</ele><time>2026-04-06T13:35:34.658Z</time></trkpt><trkpt lat="44.0383917" lon="10.493665"><ele>169.0</ele><time>2026-04-06T13:35:35.658Z</time></trkpt><trkpt lat="44.0384767" lon="10.4937367"><ele>169.0</ele><time>2026-04-06T13:35:36.658Z</time></trkpt><trkpt lat="44.0385533" lon="10.4938067"><ele>168.66666666666669</ele><time>2026-04-06T13:35:37.658Z</time></trkpt><trkpt lat="44.0386283" lon="10.4938717"><ele>168.33333333333334</ele><time>2026-04-06T13:35:38.659Z</time></trkpt><trkpt lat="44.0387067" lon="10.4939183"><ele>168.0</ele><time>2026-04-06T13:35:39.658Z</time></trkpt><trkpt lat="44.0387867" lon="10.49395"><ele>167.66666666666666</ele><time>2026-04-06T13:35:40.658Z</time></trkpt><trkpt lat="44.0388683" lon="10.49395"><ele>167.33333333333331</ele><time>2026-04-06T13:35:41.659Z</time></trkpt><trkpt lat="44.03894" lon="10.4939283"><ele>167.0</ele><time>2026-04-06T13:35:42.658Z</time></trkpt><trkpt lat="44.03901" lon="10.49389"><ele>167.0</ele><time>2026-04-06T13:35:43.658Z</time></trkpt><trkpt lat="44.0390817" lon="10.49384"><ele>167.0</ele><time>2026-04-06T13:35:44.658Z</time></trkpt><trkpt lat="44.0391567" lon="10.4937883"><ele>167.0</ele><time>2026-04-06T13:35:45.658Z</time></trkpt><trkpt lat="44.039225" lon="10.4937367"><ele>167.0</ele><time>2026-04-06T13:35:46.658Z</time></trkpt><trkpt lat="44.0393" lon="10.493685"><ele>167.0</ele><time>2026-04-06T13:35:47.658Z</time></trkpt><trkpt lat="44.0393817" lon="10.49363"><ele>167.0</ele><time>2026-04-06T13:35:48.659Z</time></trkpt><trkpt lat="44.0394633" lon="10.4935667"><ele>161.4</ele><time>2026-04-06T13:35:49.658Z</time></trkpt><trkpt lat="44.0395483" lon="10.4935083"><ele>155.79999999999998</ele><time>2026-04-06T13:35:50.659Z</time></trkpt><trkpt lat="44.03963" lon="10.49345"><ele>150.2</ele><time>2026-04-06T13:35:51.658Z</time></trkpt><trkpt lat="44.039715" lon="10.4933933"><ele>144.6</ele><time>2026-04-06T13:35:52.658Z</time></trkpt><trkpt lat="44.0398017" lon="10.4933417"><ele>139.0</ele><time>2026-04-06T13:35:53.659Z</time></trkpt><trkpt lat="44.0398883" lon="10.4932817"><ele>138.8</ele><time>2026-04-06T13:35:54.658Z</time></trkpt><trkpt lat="44.0399717" lon="10.4932183"><ele>138.60000000000002</ele><time>2026-04-06T13:35:55.658Z</time></trkpt><trkpt lat="44.0400617" lon="10.4931533"><ele>138.4</ele><time>2026-04-06T13:35:56.658Z</time></trkpt><trkpt lat="44.04015" lon="10.493095"><ele>138.20000000000002</ele><time>2026-04-06T13:35:57.658Z</time></trkpt><trkpt lat="44.04023" lon="10.4930067"><ele>138.0</ele><time>2026-04-06T13:35:58.659Z</time></trkpt><trkpt lat="44.0403133" lon="10.492915"><ele>138.0</ele><time>2026-04-06T13:35:59.659Z</time></trkpt><trkpt lat="44.040385" lon="10.492815"><ele>138.0</ele><time>2026-04-06T13:36:00.659Z</time></trkpt><trkpt lat="44.0404533" lon="10.4927083"><ele>138.0</ele><time>2026-04-06T13:36:01.658Z</time></trkpt><trkpt lat="44.04053" lon="10.4925983"><ele>138.0</ele><time>2026-04-06T13:36:02.658Z</time></trkpt><trkpt lat="44.0405633" lon="10.4924917"><ele>138.0</ele><time>2026-04-06T13:36:03.658Z</time></trkpt><trkpt lat="44.0406083" lon="10.4923783"><ele>138.0</ele><time>2026-04-06T13:36:04.658Z</time></trkpt><trkpt lat="44.0406667" lon="10.4922733"><ele>138.0</ele><time>2026-04-06T13:36:05.658Z</time></trkpt><trkpt lat="44.0407317" lon="10.4921667"><ele>138.0</ele><time>2026-04-06T13:36:06.658Z</time></trkpt><trkpt lat="44.0407983" lon="10.4920517"><ele>138.0</ele><time>2026-04-06T13:36:07.658Z</time></trkpt><trkpt lat="44.04087" lon="10.4919333"><ele>138.0</ele><time>2026-04-06T13:36:08.658Z</time></trkpt><trkpt lat="44.0409383" lon="10.4918183"><ele>137.75</ele><time>2026-04-06T13:36:09.658Z</time></trkpt><trkpt lat="44.0410067" lon="10.4917017"><ele>137.5</ele><time>2026-04-06T13:36:10.658Z</time></trkpt><trkpt lat="44.0410733" lon="10.49158"><ele>137.25</ele><time>2026-04-06T13:36:11.658Z</time></trkpt><trkpt lat="44.041145" lon="10.4914617"><ele>137.0</ele><time>2026-04-06T13:36:12.659Z</time></trkpt><trkpt lat="44.0412217" lon="10.4913317"><ele>136.5</ele><time>2026-04-06T13:36:13.658Z</time></trkpt><trkpt lat="44.0412967" lon="10.4911883"><ele>136.0</ele><time>2026-04-06T13:36:14.658Z</time></trkpt><trkpt lat="44.0413717" lon="10.4910267"><ele>135.5</ele><time>2026-04-06T13:36:15.658Z</time></trkpt><trkpt lat="44.0414417" lon="10.4908567"><ele>135.0</ele><time>2026-04-06T13:36:16.659Z</time></trkpt><trkpt lat="44.0414967" lon="10.4906833"><ele>135.0</ele><time>2026-04-06T13:36:17.658Z</time></trkpt><trkpt lat="44.041545" lon="10.4905083"><ele>135.0</ele><time>2026-04-06T13:36:18.658Z</time></trkpt><trkpt lat="44.041585" lon="10.4903283"><ele>135.0</ele><time>2026-04-06T13:36:19.658Z</time></trkpt><trkpt lat="44.0416217" lon="10.4901467"><ele>135.0</ele><time>2026-04-06T13:36:20.658Z</time></trkpt><trkpt lat="44.0416533" lon="10.4899583"><ele>135.75</ele><time>2026-04-06T13:36:21.658Z</time></trkpt><trkpt lat="44.0416767" lon="10.489765"><ele>136.5</ele><time>2026-04-06T13:36:22.659Z</time></trkpt><trkpt lat="44.041695" lon="10.4895667"><ele>137.25</ele><time>2026-04-06T13:36:23.658Z</time></trkpt><trkpt lat="44.0417117" lon="10.489365"><ele>138.0</ele><time>2026-04-06T13:36:24.658Z</time></trkpt><trkpt lat="44.0417283" lon="10.4891683"><ele>138.0</ele><time>2026-04-06T13:36:25.658Z</time></trkpt><trkpt lat="44.041745" lon="10.4889733"><ele>138.0</ele><time>2026-04-06T13:36:26.659Z</time></trkpt><trkpt lat="44.0417633" lon="10.48878"><ele>138.0</ele><time>2026-04-06T13:36:27.658Z</time></trkpt><trkpt lat="44.04178" lon="10.48859"><ele>138.0</ele><time>2026-04-06T13:36:28.658Z</time></trkpt><trkpt lat="44.0417983" lon="10.4884"><ele>138.0</ele><time>2026-04-06T13:36:29.658Z</time></trkpt><trkpt lat="44.0418133" lon="10.4882117"><ele>138.0</ele><time>2026-04-06T13:36:30.658Z</time></trkpt><trkpt lat="44.0418267" lon="10.4880267"><ele>138.0</ele><time>2026-04-06T13:36:31.659Z</time></trkpt><trkpt lat="44.0418367" lon="10.4878417"><ele>138.0</ele><time>2026-04-06T13:36:32.659Z</time></trkpt><trkpt lat="44.0418483" lon="10.487655"><ele>138.0</ele><time>2026-04-06T13:36:33.658Z</time></trkpt><trkpt lat="44.041855" lon="10.48746"><ele>138.0</ele><time>2026-04-06T13:36:34.658Z</time></trkpt><trkpt lat="44.0418617" lon="10.4872583"><ele>138.0</ele><time>2026-04-06T13:36:35.658Z</time></trkpt><trkpt lat="44.0418767" lon="10.4870533"><ele>138.0</ele><time>2026-04-06T13:36:36.658Z</time></trkpt><trkpt lat="44.041895" lon="10.4868367"><ele>139.0</ele><time>2026-04-06T13:36:37.658Z</time></trkpt><trkpt lat="44.0419167" lon="10.4866283"><ele>140.0</ele><time>2026-04-06T13:36:38.658Z</time></trkpt><trkpt lat="44.0419383" lon="10.4864283"><ele>141.0</ele><time>2026-04-06T13:36:39.658Z</time></trkpt><trkpt lat="44.0419583" lon="10.4862333"><ele>142.0</ele><time>2026-04-06T13:36:40.658Z</time></trkpt><trkpt lat="44.04227" lon="10.4858983"><ele>142.33333333333334</ele><time>2026-04-06T13:36:42.722Z</time></trkpt><trkpt lat="44.0421233" lon="10.48557"><ele>142.66666666666666</ele><time>2026-04-06T13:36:44.158Z</time></trkpt><trkpt lat="44.042145" lon="10.485355"><ele>143.0</ele><time>2026-04-06T13:36:45.158Z</time></trkpt><trkpt lat="44.04216" lon="10.485075"><ele>143.25</ele><time>2026-04-06T13:36:46.658Z</time></trkpt><trkpt lat="44.0421617" lon="10.4848917"><ele>143.5</ele><time>2026-04-06T13:36:47.658Z</time></trkpt><trkpt lat="44.0421683" lon="10.484705"><ele>143.75</ele><time>2026-04-06T13:36:48.658Z</time></trkpt><trkpt lat="44.0421783" lon="10.48452"><ele>144.0</ele><time>2026-04-06T13:36:49.658Z</time></trkpt><trkpt lat="44.0421917" lon="10.4843383"><ele>144.0</ele><time>2026-04-06T13:36:50.659Z</time></trkpt><trkpt lat="44.0422017" lon="10.4841583"><ele>144.0</ele><time>2026-04-06T13:36:51.658Z</time></trkpt><trkpt lat="44.042215" lon="10.4839817"><ele>144.0</ele><time>2026-04-06T13:36:52.658Z</time></trkpt><trkpt lat="44.0422333" lon="10.4838117"><ele>144.0</ele><time>2026-04-06T13:36:53.66Z</time></trkpt><trkpt lat="44.04226" lon="10.483645"><ele>145.0</ele><time>2026-04-06T13:36:54.659Z</time></trkpt><trkpt lat="44.0422917" lon="10.4834783"><ele>146.0</ele><time>2026-04-06T13:36:55.659Z</time></trkpt><trkpt lat="44.0423267" lon="10.4833133"><ele>147.0</ele><time>2026-04-06T13:36:56.66Z</time></trkpt><trkpt lat="44.0423617" lon="10.4831517"><ele>148.0</ele><time>2026-04-06T13:36:57.659Z</time></trkpt><trkpt lat="44.0424133" lon="10.4829983"><ele>149.20000000000002</ele><time>2026-04-06T13:36:58.659Z</time></trkpt><trkpt lat="44.04247" lon="10.4828567"><ele>150.4</ele><time>2026-04-06T13:36:59.66Z</time></trkpt><trkpt lat="44.0425317" lon="10.4827267"><ele>151.60000000000002</ele><time>2026-04-06T13:37:00.659Z</time></trkpt><trkpt lat="44.0425967" lon="10.482615"><ele>152.8</ele><time>2026-04-06T13:37:01.659Z</time></trkpt><trkpt lat="44.0426683" lon="10.4825217"><ele>154.0</ele><time>2026-04-06T13:37:02.659Z</time></trkpt><trkpt lat="44.042735" lon="10.4824433"><ele>154.0</ele><time>2026-04-06T13:37:03.66Z</time></trkpt><trkpt lat="44.0427883" lon="10.4823733"><ele>154.0</ele><time>2026-04-06T13:37:04.659Z</time></trkpt><trkpt lat="44.042855" lon="10.4822633"><ele>154.0</ele><time>2026-04-06T13:37:06.659Z</time></trkpt><trkpt lat="44.042955" lon="10.4822133"><ele>154.0</ele><time>2026-04-06T13:46:41.658Z</time></trkpt><trkpt lat="44.04302" lon="10.4821633"><ele>154.0</ele><time>2026-04-06T13:46:42.658Z</time></trkpt><trkpt lat="44.0430783" lon="10.4821083"><ele>154.0</ele><time>2026-04-06T13:46:43.658Z</time></trkpt><trkpt lat="44.0431467" lon="10.48204"><ele>154.0</ele><time>2026-04-06T13:46:44.659Z</time></trkpt><trkpt lat="44.04322" lon="10.48197"><ele>154.0</ele><time>2026-04-06T13:46:45.658Z</time></trkpt><trkpt lat="44.0432933" lon="10.4818967"><ele>154.0</ele><time>2026-04-06T13:46:46.658Z</time></trkpt><trkpt lat="44.0433683" lon="10.4818267"><ele>154.0</ele><time>2026-04-06T13:46:47.658Z</time></trkpt><trkpt lat="44.0434417" lon="10.481755"><ele>154.0</ele><time>2026-04-06T13:46:48.658Z</time></trkpt><trkpt lat="44.0435167" lon="10.48168"><ele>153.6</ele><time>2026-04-06T13:46:49.658Z</time></trkpt><trkpt lat="44.0435933" lon="10.4816017"><ele>153.2</ele><time>2026-04-06T13:46:50.658Z</time></trkpt><trkpt lat="44.0436733" lon="10.481525"><ele>152.79999999999998</ele><time>2026-04-06T13:46:51.659Z</time></trkpt><trkpt lat="44.043755" lon="10.4814467"><ele>152.4</ele><time>2026-04-06T13:46:52.658Z</time></trkpt><trkpt lat="44.04383" lon="10.48137"><ele>152.0</ele><time>2026-04-06T13:46:53.658Z</time></trkpt><trkpt lat="44.04391" lon="10.4813017"><ele>151.4</ele><time>2026-04-06T13:46:54.658Z</time></trkpt><trkpt lat="44.0439883" lon="10.48125"><ele>150.79999999999998</ele><time>2026-04-06T13:46:55.658Z</time></trkpt><trkpt lat="44.0440783" lon="10.4812033"><ele>150.2</ele><time>2026-04-06T13:46:56.658Z</time></trkpt><trkpt lat="44.0441783" lon="10.4811583"><ele>149.6</ele><time>2026-04-06T13:46:57.658Z</time></trkpt><trkpt lat="44.0442867" lon="10.4810983"><ele>149.0</ele><time>2026-04-06T13:46:58.659Z</time></trkpt><trkpt lat="44.0444017" lon="10.4810317"><ele>150.5</ele><time>2026-04-06T13:46:59.659Z</time></trkpt><trkpt lat="44.0445133" lon="10.48097"><ele>152.0</ele><time>2026-04-06T13:47:00.658Z</time></trkpt><trkpt lat="44.044625" lon="10.480915"><ele>153.5</ele><time>2026-04-06T13:47:01.658Z</time></trkpt><trkpt lat="44.0447483" lon="10.4808733"><ele>155.0</ele><time>2026-04-06T13:47:02.658Z</time></trkpt><trkpt lat="44.044875" lon="10.4808467"><ele>155.5</ele><time>2026-04-06T13:47:03.658Z</time></trkpt><trkpt lat="44.0450033" lon="10.4808317"><ele>156.0</ele><time>2026-04-06T13:47:04.658Z</time></trkpt><trkpt lat="44.045135" lon="10.4808183"><ele>156.5</ele><time>2026-04-06T13:47:05.658Z</time></trkpt><trkpt lat="44.0452683" lon="10.4808067"><ele>157.0</ele><time>2026-04-06T13:47:06.658Z</time></trkpt><trkpt lat="44.0454067" lon="10.480795"><ele>157.0</ele><time>2026-04-06T13:47:07.658Z</time></trkpt><trkpt lat="44.045545" lon="10.4807833"><ele>157.0</ele><time>2026-04-06T13:47:08.658Z</time></trkpt><trkpt lat="44.0456817" lon="10.4807667"><ele>157.0</ele><time>2026-04-06T13:47:09.658Z</time></trkpt><trkpt lat="44.0458183" lon="10.4807517"><ele>157.0</ele><time>2026-04-06T13:47:10.658Z</time></trkpt><trkpt lat="44.04596" lon="10.4807417"><ele>157.0</ele><time>2026-04-06T13:47:11.659Z</time></trkpt><trkpt lat="44.0461017" lon="10.4807283"><ele>157.0</ele><time>2026-04-06T13:47:12.658Z</time></trkpt><trkpt lat="44.046245" lon="10.4807083"><ele>157.0</ele><time>2026-04-06T13:47:13.658Z</time></trkpt><trkpt lat="44.0463933" lon="10.4806933"><ele>157.0</ele><time>2026-04-06T13:47:14.658Z</time></trkpt><trkpt lat="44.0465433" lon="10.4806767"><ele>157.25</ele><time>2026-04-06T13:47:15.658Z</time></trkpt><trkpt lat="44.0466883" lon="10.4806583"><ele>157.5</ele><time>2026-04-06T13:47:16.658Z</time></trkpt><trkpt lat="44.0468267" lon="10.4806483"><ele>157.75</ele><time>2026-04-06T13:47:17.658Z</time></trkpt><trkpt lat="44.0469633" lon="10.480635"><ele>158.0</ele><time>2026-04-06T13:47:18.658Z</time></trkpt><trkpt lat="44.0471017" lon="10.4806217"><ele>158.0</ele><time>2026-04-06T13:47:19.658Z</time></trkpt><trkpt lat="44.047235" lon="10.4806133"><ele>158.0</ele><time>2026-04-06T13:47:20.658Z</time></trkpt><trkpt lat="44.0473717" lon="10.4806033"><ele>158.0</ele><time>2026-04-06T13:47:21.658Z</time></trkpt><trkpt lat="44.0475067" lon="10.48059"><ele>158.0</ele><time>2026-04-06T13:47:22.658Z</time></trkpt><trkpt lat="44.0476417" lon="10.480575"><ele>158.75</ele><time>2026-04-06T13:47:23.658Z</time></trkpt><trkpt lat="44.0477767" lon="10.48055"><ele>159.5</ele><time>2026-04-06T13:47:24.658Z</time></trkpt><trkpt lat="44.0479083" lon="10.4805317"><ele>160.25</ele><time>2026-04-06T13:47:25.659Z</time></trkpt><trkpt lat="44.0480367" lon="10.4805183"><ele>161.0</ele><time>2026-04-06T13:47:26.658Z</time></trkpt><trkpt lat="44.0481633" lon="10.48051"><ele>161.0</ele><time>2026-04-06T13:47:27.658Z</time></trkpt><trkpt lat="44.04829" lon="10.4804983"><ele>161.0</ele><time>2026-04-06T13:47:28.658Z</time></trkpt><trkpt lat="44.048415" lon="10.4804883"><ele>161.0</ele><time>2026-04-06T13:47:29.658Z</time></trkpt><trkpt lat="44.0485433" lon="10.4804783"><ele>161.0</ele><time>2026-04-06T13:47:30.658Z</time></trkpt><trkpt lat="44.0486683" lon="10.480465"><ele>161.60000000000002</ele><time>2026-04-06T13:47:31.658Z</time></trkpt><trkpt lat="44.048785" lon="10.4804517"><ele>162.2</ele><time>2026-04-06T13:47:32.658Z</time></trkpt><trkpt lat="44.0488867" lon="10.480435"><ele>162.8</ele><time>2026-04-06T13:47:33.658Z</time></trkpt><trkpt lat="44.0489733" lon="10.4804067"><ele>163.39999999999998</ele><time>2026-04-06T13:47:34.658Z</time></trkpt><trkpt lat="44.049045" lon="10.48036"><ele>164.0</ele><time>2026-04-06T13:47:35.659Z</time></trkpt><trkpt lat="44.049145" lon="10.480295"><ele>165.2</ele><time>2026-04-06T13:47:37.658Z</time></trkpt><trkpt lat="44.0492167" lon="10.4803067"><ele>166.39999999999998</ele><time>2026-04-06T13:47:39.658Z</time></trkpt><trkpt lat="44.0493067" lon="10.4804083"><ele>167.6</ele><time>2026-04-06T13:47:41.658Z</time></trkpt><trkpt lat="44.04937" lon="10.4804767"><ele>168.8</ele><time>2026-04-06T13:47:42.659Z</time></trkpt><trkpt lat="44.0494467" lon="10.4805433"><ele>170.0</ele><time>2026-04-06T13:47:43.659Z</time></trkpt><trkpt lat="44.0495283" lon="10.4806017"><ele>170.0</ele><time>2026-04-06T13:47:44.659Z</time></trkpt><trkpt lat="44.0496133" lon="10.4806633"><ele>170.0</ele><time>2026-04-06T13:47:45.658Z</time></trkpt><trkpt lat="44.0497017" lon="10.4807333"><ele>170.0</ele><time>2026-04-06T13:47:46.659Z</time></trkpt><trkpt lat="44.049795" lon="10.48081"><ele>170.0</ele><time>2026-04-06T13:47:47.658Z</time></trkpt><trkpt lat="44.0498917" lon="10.48089"><ele>170.0</ele><time>2026-04-06T13:47:48.658Z</time></trkpt><trkpt lat="44.0499917" lon="10.480965"><ele>169.75</ele><time>2026-04-06T13:47:49.658Z</time></trkpt><trkpt lat="44.0500933" lon="10.4810467"><ele>169.5</ele><time>2026-04-06T13:47:50.659Z</time></trkpt><trkpt lat="44.0501983" lon="10.4811367"><ele>169.25</ele><time>2026-04-06T13:47:51.658Z</time></trkpt><trkpt lat="44.0503083" lon="10.481225"><ele>169.0</ele><time>2026-04-06T13:47:52.659Z</time></trkpt><trkpt lat="44.0504183" lon="10.4813183"><ele>169.0</ele><time>2026-04-06T13:47:53.658Z</time></trkpt><trkpt lat="44.05053" lon="10.4814117"><ele>169.0</ele><time>2026-04-06T13:47:54.658Z</time></trkpt><trkpt lat="44.0506433" lon="10.4814983"><ele>169.0</ele><time>2026-04-06T13:47:55.658Z</time></trkpt><trkpt lat="44.0507567" lon="10.4815883"><ele>169.0</ele><time>2026-04-06T13:47:56.658Z</time></trkpt><trkpt lat="44.0508733" lon="10.481675"><ele>170.75</ele><time>2026-04-06T13:47:57.658Z</time></trkpt><trkpt lat="44.0509917" lon="10.481765"><ele>172.5</ele><time>2026-04-06T13:47:58.658Z</time></trkpt><trkpt lat="44.05111" lon="10.4818517"><ele>174.25</ele><time>2026-04-06T13:47:59.658Z</time></trkpt><trkpt lat="44.0512267" lon="10.481945"><ele>176.0</ele><time>2026-04-06T13:48:00.658Z</time></trkpt><trkpt lat="44.0513433" lon="10.4820433"><ele>176.0</ele><time>2026-04-06T13:48:01.658Z</time></trkpt><trkpt lat="44.051465" lon="10.4821383"><ele>176.0</ele><time>2026-04-06T13:48:02.658Z</time></trkpt><trkpt lat="44.0515883" lon="10.4822317"><ele>176.0</ele><time>2026-04-06T13:48:03.658Z</time></trkpt><trkpt lat="44.05171" lon="10.48232"><ele>176.0</ele><time>2026-04-06T13:48:04.658Z</time></trkpt><trkpt lat="44.051835" lon="10.4823983"><ele>176.0</ele><time>2026-04-06T13:48:05.658Z</time></trkpt><trkpt lat="44.05196" lon="10.4824733"><ele>176.0</ele><time>2026-04-06T13:48:06.658Z</time></trkpt><trkpt lat="44.0520917" lon="10.4825483"><ele>176.0</ele><time>2026-04-06T13:48:07.659Z</time></trkpt><trkpt lat="44.0522233" lon="10.4826183"><ele>176.0</ele><time>2026-04-06T13:48:08.658Z</time></trkpt><trkpt lat="44.0523533" lon="10.4826833"><ele>176.5</ele><time>2026-04-06T13:48:09.658Z</time></trkpt><trkpt lat="44.052485" lon="10.48275"><ele>177.0</ele><time>2026-04-06T13:48:10.658Z</time></trkpt><trkpt lat="44.0526067" lon="10.4828233"><ele>177.5</ele><time>2026-04-06T13:48:11.658Z</time></trkpt><trkpt lat="44.05272" lon="10.4829117"><ele>178.0</ele><time>2026-04-06T13:48:12.658Z</time></trkpt><trkpt lat="44.0528117" lon="10.4830333"><ele>178.0</ele><time>2026-04-06T13:48:13.658Z</time></trkpt><trkpt lat="44.0528717" lon="10.4831817"><ele>178.0</ele><time>2026-04-06T13:48:14.658Z</time></trkpt><trkpt lat="44.0529" lon="10.48334"><ele>178.0</ele><time>2026-04-06T13:48:15.659Z</time></trkpt><trkpt lat="44.0529117" lon="10.4835117"><ele>178.0</ele><time>2026-04-06T13:48:16.658Z</time></trkpt><trkpt lat="44.0529217" lon="10.4837"><ele>179.0</ele><time>2026-04-06T13:48:17.658Z</time></trkpt><trkpt lat="44.052955" lon="10.4839"><ele>180.0</ele><time>2026-04-06T13:48:18.658Z</time></trkpt><trkpt lat="44.0529917" lon="10.4841"><ele>181.0</ele><time>2026-04-06T13:48:19.658Z</time></trkpt><trkpt lat="44.0530333" lon="10.4842883"><ele>182.0</ele><time>2026-04-06T13:48:20.658Z</time></trkpt><trkpt lat="44.053075" lon="10.4844717"><ele>181.2</ele><time>2026-04-06T13:48:21.658Z</time></trkpt><trkpt lat="44.0531417" lon="10.484645"><ele>180.39999999999998</ele><time>2026-04-06T13:48:22.658Z</time></trkpt><trkpt lat="44.0532133" lon="10.4847517"><ele>179.60000000000002</ele><time>2026-04-06T13:48:23.659Z</time></trkpt><trkpt lat="44.0532933" lon="10.4847967"><ele>178.8</ele><time>2026-04-06T13:48:24.658Z</time></trkpt><trkpt lat="44.05338" lon="10.4847917"><ele>178.0</ele><time>2026-04-06T13:48:25.659Z</time></trkpt><trkpt lat="44.0534583" lon="10.4847683"><ele>180.4</ele><time>2026-04-06T13:48:26.658Z</time></trkpt><trkpt lat="44.0535267" lon="10.4847667"><ele>182.8</ele><time>2026-04-06T13:48:27.658Z</time></trkpt><trkpt lat="44.0536767" lon="10.4847933"><ele>185.2</ele><time>2026-04-06T13:48:29.659Z</time></trkpt><trkpt lat="44.0537617" lon="10.4848117"><ele>187.6</ele><time>2026-04-06T13:48:30.658Z</time></trkpt><trkpt lat="44.0538483" lon="10.4848933"><ele>190.0</ele><time>2026-04-06T13:48:31.658Z</time></trkpt><trkpt lat="44.053925" lon="10.48497"><ele>190.0</ele><time>2026-04-06T13:48:32.658Z</time></trkpt><trkpt lat="44.0539617" lon="10.4851383"><ele>190.0</ele><time>2026-04-06T13:48:33.658Z</time></trkpt><trkpt lat="44.0539983" lon="10.4852733"><ele>190.0</ele><time>2026-04-06T13:48:34.659Z</time></trkpt><trkpt lat="44.0540283" lon="10.4854017"><ele>190.0</ele><time>2026-04-06T13:48:35.658Z</time></trkpt><trkpt lat="44.05406" lon="10.4855167"><ele>190.0</ele><time>2026-04-06T13:48:36.659Z</time></trkpt><trkpt lat="44.0541033" lon="10.485625"><ele>191.33333333333334</ele><time>2026-04-06T13:48:37.658Z</time></trkpt><trkpt lat="44.05415" lon="10.4857233"><ele>192.66666666666669</ele><time>2026-04-06T13:48:38.659Z</time></trkpt><trkpt lat="44.0542117" lon="10.4857917"><ele>194.0</ele><time>2026-04-06T13:48:39.658Z</time></trkpt><trkpt lat="44.054275" lon="10.4858667"><ele>195.33333333333334</ele><time>2026-04-06T13:48:40.658Z</time></trkpt><trkpt lat="44.0543283" lon="10.4859567"><ele>196.66666666666666</ele><time>2026-04-06T13:48:41.658Z</time></trkpt><trkpt lat="44.0543783" lon="10.4860533"><ele>198.0</ele><time>2026-04-06T13:48:42.658Z</time></trkpt><trkpt lat="44.0544117" lon="10.486185"><ele>197.0</ele><time>2026-04-06T13:48:43.658Z</time></trkpt><trkpt lat="44.0544467" lon="10.4863217"><ele>196.0</ele><time>2026-04-06T13:48:44.658Z</time></trkpt><trkpt lat="44.054475" lon="10.4864533"><ele>195.0</ele><time>2026-04-06T13:48:45.658Z</time></trkpt><trkpt lat="44.054505" lon="10.4865783"><ele>194.0</ele><time>2026-04-06T13:48:46.658Z</time></trkpt><trkpt lat="44.05457" lon="10.4866817"><ele>193.0</ele><time>2026-04-06T13:48:47.658Z</time></trkpt><trkpt lat="44.054645" lon="10.486775"><ele>193.0</ele><time>2026-04-06T13:48:48.658Z</time></trkpt><trkpt lat="44.0547333" lon="10.4868533"><ele>193.0</ele><time>2026-04-06T13:48:49.658Z</time></trkpt><trkpt lat="44.054825" lon="10.4869283"><ele>193.0</ele><time>2026-04-06T13:48:50.659Z</time></trkpt><trkpt lat="44.0549167" lon="10.487005"><ele>193.0</ele><time>2026-04-06T13:48:51.658Z</time></trkpt><trkpt lat="44.055" lon="10.4870833"><ele>193.0</ele><time>2026-04-06T13:48:52.658Z</time></trkpt><trkpt lat="44.0550867" lon="10.4871717"><ele>196.5</ele><time>2026-04-06T13:48:53.658Z</time></trkpt><trkpt lat="44.0551617" lon="10.4872833"><ele>200.0</ele><time>2026-04-06T13:48:54.658Z</time></trkpt><trkpt lat="44.0552333" lon="10.4874067"><ele>203.5</ele><time>2026-04-06T13:48:55.658Z</time></trkpt><trkpt lat="44.0553067" lon="10.48754"><ele>207.0</ele><time>2026-04-06T13:48:56.658Z</time></trkpt><trkpt lat="44.0553767" lon="10.4876767"><ele>207.0</ele><time>2026-04-06T13:48:57.658Z</time></trkpt><trkpt lat="44.05546" lon="10.4877967"><ele>207.0</ele><time>2026-04-06T13:48:58.659Z</time></trkpt><trkpt lat="44.055555" lon="10.4878833"><ele>207.0</ele><time>2026-04-06T13:48:59.658Z</time></trkpt><trkpt lat="44.0556367" lon="10.4879817"><ele>207.0</ele><time>2026-04-06T13:49:00.659Z</time></trkpt><trkpt lat="44.0556967" lon="10.4881033"><ele>207.0</ele><time>2026-04-06T13:49:01.658Z</time></trkpt><trkpt lat="44.0557433" lon="10.48825"><ele>208.25</ele><time>2026-04-06T13:49:02.658Z</time></trkpt><trkpt lat="44.0557867" lon="10.4883983"><ele>209.5</ele><time>2026-04-06T13:49:03.658Z</time></trkpt><trkpt lat="44.0558133" lon="10.488565"><ele>210.75</ele><time>2026-04-06T13:49:04.658Z</time></trkpt><trkpt lat="44.05584" lon="10.488735"><ele>212.0</ele><time>2026-04-06T13:49:05.659Z</time></trkpt><trkpt lat="44.0558867" lon="10.4889033"><ele>212.0</ele><time>2026-04-06T13:49:06.658Z</time></trkpt><trkpt lat="44.05596" lon="10.4890433"><ele>212.0</ele><time>2026-04-06T13:49:07.658Z</time></trkpt><trkpt lat="44.056055" lon="10.4891467"><ele>212.0</ele><time>2026-04-06T13:49:08.658Z</time></trkpt><trkpt lat="44.0561583" lon="10.4892383"><ele>212.0</ele><time>2026-04-06T13:49:09.658Z</time></trkpt><trkpt lat="44.0562617" lon="10.489335"><ele>212.0</ele><time>2026-04-06T13:49:10.658Z</time></trkpt><trkpt lat="44.056375" lon="10.4894183"><ele>212.0</ele><time>2026-04-06T13:49:11.659Z</time></trkpt><trkpt lat="44.05649" lon="10.4895067"><ele>212.0</ele><time>2026-04-06T13:49:12.659Z</time></trkpt><trkpt lat="44.0566" lon="10.4895867"><ele>212.0</ele><time>2026-04-06T13:49:13.658Z</time></trkpt><trkpt lat="44.0567033" lon="10.48966"><ele>212.6</ele><time>2026-04-06T13:49:14.658Z</time></trkpt><trkpt lat="44.05681" lon="10.4897017"><ele>213.2</ele><time>2026-04-06T13:49:15.658Z</time></trkpt><trkpt lat="44.056915" lon="10.4897033"><ele>213.8</ele><time>2026-04-06T13:49:16.658Z</time></trkpt><trkpt lat="44.05701" lon="10.48968"><ele>214.4</ele><time>2026-04-06T13:49:17.658Z</time></trkpt><trkpt lat="44.057085" lon="10.4896533"><ele>215.0</ele><time>2026-04-06T13:49:18.658Z</time></trkpt><trkpt lat="44.05716" lon="10.489675"><ele>215.0</ele><time>2026-04-06T13:49:20.658Z</time></trkpt><trkpt lat="44.0572" lon="10.489815"><ele>215.0</ele><time>2026-04-06T13:49:22.659Z</time></trkpt><trkpt lat="44.057245" lon="10.4899417"><ele>215.0</ele><time>2026-04-06T13:49:23.658Z</time></trkpt><trkpt lat="44.0573033" lon="10.49008"><ele>215.0</ele><time>2026-04-06T13:49:24.658Z</time></trkpt><trkpt lat="44.05737" lon="10.4901817"><ele>215.0</ele><time>2026-04-06T13:49:25.658Z</time></trkpt><trkpt lat="44.05744" lon="10.490275"><ele>217.6</ele><time>2026-04-06T13:49:26.658Z</time></trkpt><trkpt lat="44.0575117" lon="10.49035"><ele>220.2</ele><time>2026-04-06T13:49:27.658Z</time></trkpt><trkpt lat="44.0575817" lon="10.4904067"><ele>222.8</ele><time>2026-04-06T13:49:28.658Z</time></trkpt><trkpt lat="44.0575483" lon="10.4905817"><ele>225.4</ele><time>2026-04-06T13:49:32.658Z</time></trkpt><trkpt lat="44.0575283" lon="10.4906817"><ele>228.0</ele><time>2026-04-06T13:49:33.658Z</time></trkpt><trkpt lat="44.05759" lon="10.4907883"><ele>228.0</ele><time>2026-04-06T13:49:35.658Z</time></trkpt><trkpt lat="44.0576783" lon="10.4907817"><ele>228.0</ele><time>2026-04-06T13:49:37.658Z</time></trkpt><trkpt lat="44.0577817" lon="10.4906817"><ele>228.0</ele><time>2026-04-06T13:49:39.658Z</time></trkpt><trkpt lat="44.0578033" lon="10.4905883"><ele>228.0</ele><time>2026-04-06T13:49:40.659Z</time></trkpt><trkpt lat="44.057825" lon="10.4904933"><ele>228.0</ele><time>2026-04-06T13:49:41.658Z</time></trkpt><trkpt lat="44.0578" lon="10.49039"><ele>228.0</ele><time>2026-04-06T13:49:42.658Z</time></trkpt><trkpt lat="44.0577833" lon="10.490295"><ele>229.57142857142856</ele><time>2026-04-06T13:49:43.658Z</time></trkpt><trkpt lat="44.05776" lon="10.4901717"><ele>231.1428571428571</ele><time>2026-04-06T13:49:44.658Z</time></trkpt><trkpt lat="44.05771" lon="10.4900933"><ele>232.71428571428572</ele><time>2026-04-06T13:49:45.658Z</time></trkpt><trkpt lat="44.0576783" lon="10.4899983"><ele>234.28571428571428</ele><time>2026-04-06T13:49:46.658Z</time></trkpt><trkpt lat="44.0576667" lon="10.4899083"><ele>235.85714285714286</ele><time>2026-04-06T13:49:47.658Z</time></trkpt><trkpt lat="44.0576733" lon="10.4898167"><ele>237.42857142857144</ele><time>2026-04-06T13:49:48.658Z</time></trkpt><trkpt lat="44.0577083" lon="10.4897267"><ele>239.00000000000003</ele><time>2026-04-06T13:49:49.658Z</time></trkpt><trkpt lat="44.0577783" lon="10.489645"><ele>240.50000000000003</ele><time>2026-04-06T13:49:50.658Z</time></trkpt><trkpt lat="44.0578383" lon="10.4895517"><ele>242.0</ele><time>2026-04-06T13:49:51.659Z</time></trkpt><trkpt lat="44.0579083" lon="10.489475"><ele>243.5</ele><time>2026-04-06T13:49:52.658Z</time></trkpt><trkpt lat="44.0579833" lon="10.4894"><ele>245.0</ele><time>2026-04-06T13:49:53.658Z</time></trkpt><trkpt lat="44.05806" lon="10.4893333"><ele>246.50000000000003</ele><time>2026-04-06T13:49:54.658Z</time></trkpt><trkpt lat="44.0581233" lon="10.4892667"><ele>248.0</ele><time>2026-04-06T13:49:55.658Z</time></trkpt><trkpt lat="44.058175" lon="10.4891883"><ele>248.00000000000003</ele><time>2026-04-06T13:49:56.658Z</time></trkpt><trkpt lat="44.058165" lon="10.4890867"><ele>248.0</ele><time>2026-04-06T13:49:57.658Z</time></trkpt><trkpt lat="44.0581533" lon="10.488995"><ele>248.0</ele><time>2026-04-06T13:49:58.658Z</time></trkpt><trkpt lat="44.0581217" lon="10.4889017"><ele>248.0</ele><time>2026-04-06T13:49:59.658Z</time></trkpt><trkpt lat="44.058085" lon="10.4887933"><ele>248.00000000000003</ele><time>2026-04-06T13:50:00.658Z</time></trkpt><trkpt lat="44.0580517" lon="10.48868"><ele>248.0</ele><time>2026-04-06T13:50:01.658Z</time></trkpt><trkpt lat="44.058035" lon="10.4885767"><ele>250.8</ele><time>2026-04-06T13:50:02.658Z</time></trkpt><trkpt lat="44.0580383" lon="10.48842"><ele>253.60000000000002</ele><time>2026-04-06T13:50:04.658Z</time></trkpt><trkpt lat="44.0581417" lon="10.488375"><ele>256.4</ele><time>2026-04-06T13:50:06.658Z</time></trkpt><trkpt lat="44.058205" lon="10.488435"><ele>259.2</ele><time>2026-04-06T13:50:07.658Z</time></trkpt><trkpt lat="44.0582683" lon="10.4885733"><ele>262.0</ele><time>2026-04-06T13:50:08.658Z</time></trkpt><trkpt lat="44.0583017" lon="10.4887333"><ele>263.4</ele><time>2026-04-06T13:50:09.658Z</time></trkpt><trkpt lat="44.0583483" lon="10.4888617"><ele>264.79999999999995</ele><time>2026-04-06T13:50:10.658Z</time></trkpt><trkpt lat="44.0584167" lon="10.4889733"><ele>266.2</ele><time>2026-04-06T13:50:11.659Z</time></trkpt><trkpt lat="44.0584967" lon="10.4890633"><ele>267.59999999999997</ele><time>2026-04-06T13:50:12.658Z</time></trkpt><trkpt lat="44.0586067" lon="10.4891333"><ele>269.0</ele><time>2026-04-06T13:50:13.658Z</time></trkpt><trkpt lat="44.0587217" lon="10.4891767"><ele>269.0</ele><time>2026-04-06T13:50:14.658Z</time></trkpt><trkpt lat="44.05884" lon="10.4891933"><ele>269.0</ele><time>2026-04-06T13:50:15.659Z</time></trkpt><trkpt lat="44.0589567" lon="10.4891867"><ele>269.0</ele><time>2026-04-06T13:50:16.659Z</time></trkpt><trkpt lat="44.0590783" lon="10.48915"><ele>269.0</ele><time>2026-04-06T13:50:17.658Z</time></trkpt><trkpt lat="44.059175" lon="10.4890733"><ele>270.0</ele><time>2026-04-06T13:50:18.658Z</time></trkpt><trkpt lat="44.0592583" lon="10.48897"><ele>271.0</ele><time>2026-04-06T13:50:19.658Z</time></trkpt><trkpt lat="44.0593317" lon="10.4888617"><ele>272.0</ele><time>2026-04-06T13:50:20.658Z</time></trkpt><trkpt lat="44.0594067" lon="10.4887683"><ele>273.0</ele><time>2026-04-06T13:50:21.658Z</time></trkpt><trkpt lat="44.0594767" lon="10.4886933"><ele>274.0</ele><time>2026-04-06T13:50:22.658Z</time></trkpt><trkpt lat="44.0595533" lon="10.488625"><ele>271.75</ele><time>2026-04-06T13:50:23.658Z</time></trkpt><trkpt lat="44.0596467" lon="10.4885833"><ele>269.5</ele><time>2026-04-06T13:50:24.658Z</time></trkpt><trkpt lat="44.0597517" lon="10.4885583"><ele>267.25</ele><time>2026-04-06T13:50:25.658Z</time></trkpt><trkpt lat="44.0598867" lon="10.48858"><ele>265.0</ele><time>2026-04-06T13:50:26.658Z</time></trkpt><trkpt lat="44.06" lon="10.4885867"><ele>265.0</ele><time>2026-04-06T13:50:27.658Z</time></trkpt><trkpt lat="44.060125" lon="10.48862"><ele>265.0</ele><time>2026-04-06T13:50:28.659Z</time></trkpt><trkpt lat="44.0602317" lon="10.48864"><ele>265.0</ele><time>2026-04-06T13:50:29.658Z</time></trkpt><trkpt lat="44.0603333" lon="10.4886683"><ele>265.0</ele><time>2026-04-06T13:50:30.658Z</time></trkpt><trkpt lat="44.06041" lon="10.4887033"><ele>265.0</ele><time>2026-04-06T13:50:31.658Z</time></trkpt><trkpt lat="44.0604783" lon="10.4887683"><ele>268.4</ele><time>2026-04-06T13:50:32.658Z</time></trkpt><trkpt lat="44.0605283" lon="10.4888633"><ele>271.8</ele><time>2026-04-06T13:50:33.658Z</time></trkpt><trkpt lat="44.060545" lon="10.48899"><ele>275.2</ele><time>2026-04-06T13:50:34.658Z</time></trkpt><trkpt lat="44.0605717" lon="10.4891133"><ele>278.6</ele><time>2026-04-06T13:50:35.658Z</time></trkpt><trkpt lat="44.0605983" lon="10.4892483"><ele>282.0</ele><time>2026-04-06T13:50:36.658Z</time></trkpt><trkpt lat="44.0606167" lon="10.4893883"><ele>282.0</ele><time>2026-04-06T13:50:37.658Z</time></trkpt><trkpt lat="44.06062" lon="10.48953"><ele>282.0</ele><time>2026-04-06T13:50:38.658Z</time></trkpt><trkpt lat="44.0606083" lon="10.4896717"><ele>282.0</ele><time>2026-04-06T13:50:39.658Z</time></trkpt><trkpt lat="44.060585" lon="10.4898217"><ele>282.0</ele><time>2026-04-06T13:50:40.658Z</time></trkpt><trkpt lat="44.0605633" lon="10.4899583"><ele>282.0</ele><time>2026-04-06T13:50:41.658Z</time></trkpt><trkpt lat="44.0605433" lon="10.4900933"><ele>280.8</ele><time>2026-04-06T13:50:42.658Z</time></trkpt><trkpt lat="44.06053" lon="10.4902333"><ele>279.6</ele><time>2026-04-06T13:50:43.658Z</time></trkpt><trkpt lat="44.06053" lon="10.490375"><ele>278.40000000000003</ele><time>2026-04-06T13:50:44.659Z</time></trkpt><trkpt lat="44.0605567" lon="10.4905067"><ele>277.2</ele><time>2026-04-06T13:50:45.658Z</time></trkpt><trkpt lat="44.0605983" lon="10.4906283"><ele>276.0</ele><time>2026-04-06T13:50:46.658Z</time></trkpt><trkpt lat="44.06066" lon="10.490745"><ele>275.6</ele><time>2026-04-06T13:50:47.658Z</time></trkpt><trkpt lat="44.06073" lon="10.4908517"><ele>275.20000000000005</ele><time>2026-04-06T13:50:48.659Z</time></trkpt><trkpt lat="44.0608017" lon="10.4909467"><ele>274.79999999999995</ele><time>2026-04-06T13:50:49.658Z</time></trkpt><trkpt lat="44.0608883" lon="10.4910283"><ele>274.4</ele><time>2026-04-06T13:50:50.658Z</time></trkpt><trkpt lat="44.06098" lon="10.49109"><ele>274.0</ele><time>2026-04-06T13:50:51.658Z</time></trkpt><trkpt lat="44.0610817" lon="10.4911233"><ele>277.8</ele><time>2026-04-06T13:50:52.658Z</time></trkpt><trkpt lat="44.0611833" lon="10.4911333"><ele>281.59999999999997</ele><time>2026-04-06T13:50:53.658Z</time></trkpt><trkpt lat="44.061285" lon="10.491105"><ele>285.4</ele><time>2026-04-06T13:50:54.658Z</time></trkpt><trkpt lat="44.0613833" lon="10.4910567"><ele>289.2</ele><time>2026-04-06T13:50:55.659Z</time></trkpt><trkpt lat="44.0614883" lon="10.49099"><ele>293.0</ele><time>2026-04-06T13:50:56.658Z</time></trkpt><trkpt lat="44.0615817" lon="10.4909017"><ele>294.0</ele><time>2026-04-06T13:50:57.658Z</time></trkpt><trkpt lat="44.06166" lon="10.4908017"><ele>295.0</ele><time>2026-04-06T13:50:58.658Z</time></trkpt><trkpt lat="44.0617367" lon="10.490685"><ele>296.0</ele><time>2026-04-06T13:50:59.658Z</time></trkpt><trkpt lat="44.0618117" lon="10.4905767"><ele>297.0</ele><time>2026-04-06T13:51:00.658Z</time></trkpt><trkpt lat="44.0618967" lon="10.4904733"><ele>298.0</ele><time>2026-04-06T13:51:01.658Z</time></trkpt><trkpt lat="44.0619917" lon="10.4903983"><ele>298.0</ele><time>2026-04-06T13:51:02.658Z</time></trkpt><trkpt lat="44.0620933" lon="10.4903467"><ele>298.0</ele><time>2026-04-06T13:51:03.658Z</time></trkpt><trkpt lat="44.0622133" lon="10.4903333"><ele>298.0</ele><time>2026-04-06T13:51:04.658Z</time></trkpt><trkpt lat="44.062325" lon="10.49033"><ele>298.0</ele><time>2026-04-06T13:51:05.658Z</time></trkpt><trkpt lat="44.0624417" lon="10.49031"><ele>298.25</ele><time>2026-04-06T13:51:06.658Z</time></trkpt><trkpt lat="44.0625567" lon="10.4902567"><ele>298.5</ele><time>2026-04-06T13:51:07.658Z</time></trkpt><trkpt lat="44.062665" lon="10.4901733"><ele>298.75</ele><time>2026-04-06T13:51:08.659Z</time></trkpt><trkpt lat="44.062775" lon="10.4900917"><ele>299.0</ele><time>2026-04-06T13:51:09.659Z</time></trkpt><trkpt lat="44.0628833" lon="10.49001"><ele>299.0</ele><time>2026-04-06T13:51:10.659Z</time></trkpt><trkpt lat="44.0629967" lon="10.4899317"><ele>299.0</ele><time>2026-04-06T13:51:11.658Z</time></trkpt><trkpt lat="44.0631117" lon="10.4898467"><ele>299.0</ele><time>2026-04-06T13:51:12.658Z</time></trkpt><trkpt lat="44.063225" lon="10.4897617"><ele>299.0</ele><time>2026-04-06T13:51:13.658Z</time></trkpt><trkpt lat="44.0633283" lon="10.4896717"><ele>298.5</ele><time>2026-04-06T13:51:14.658Z</time></trkpt><trkpt lat="44.0634417" lon="10.4895883"><ele>298.0</ele><time>2026-04-06T13:51:15.658Z</time></trkpt><trkpt lat="44.0635533" lon="10.4895133"><ele>297.5</ele><time>2026-04-06T13:51:16.658Z</time></trkpt><trkpt lat="44.06367" lon="10.4894433"><ele>297.0</ele><time>2026-04-06T13:51:17.658Z</time></trkpt><trkpt lat="44.063785" lon="10.4893817"><ele>297.0</ele><time>2026-04-06T13:51:18.658Z</time></trkpt><trkpt lat="44.0639033" lon="10.48933"><ele>297.0</ele><time>2026-04-06T13:51:19.658Z</time></trkpt><trkpt lat="44.06402" lon="10.4892817"><ele>297.0</ele><time>2026-04-06T13:51:20.658Z</time></trkpt><trkpt lat="44.064135" lon="10.489245"><ele>297.0</ele><time>2026-04-06T13:51:21.658Z</time></trkpt><trkpt lat="44.0642533" lon="10.4892267"><ele>299.75</ele><time>2026-04-06T13:51:22.658Z</time></trkpt><trkpt lat="44.064375" lon="10.489225"><ele>302.5</ele><time>2026-04-06T13:51:23.658Z</time></trkpt><trkpt lat="44.064495" lon="10.4892433"><ele>305.25</ele><time>2026-04-06T13:51:24.659Z</time></trkpt><trkpt lat="44.0646117" lon="10.4892767"><ele>308.0</ele><time>2026-04-06T13:51:25.658Z</time></trkpt><trkpt lat="44.0647267" lon="10.489305"><ele>308.0</ele><time>2026-04-06T13:51:26.658Z</time></trkpt><trkpt lat="44.0648417" lon="10.489335"><ele>308.0</ele><time>2026-04-06T13:51:27.658Z</time></trkpt><trkpt lat="44.0649583" lon="10.48936"><ele>308.0</ele><time>2026-04-06T13:51:28.658Z</time></trkpt><trkpt lat="44.065075" lon="10.4893717"><ele>308.0</ele><time>2026-04-06T13:51:29.658Z</time></trkpt><trkpt lat="44.0651867" lon="10.489345"><ele>310.5</ele><time>2026-04-06T13:51:30.658Z</time></trkpt><trkpt lat="44.0652917" lon="10.4892967"><ele>313.0</ele><time>2026-04-06T13:51:31.658Z</time></trkpt><trkpt lat="44.0653933" lon="10.4892267"><ele>315.5</ele><time>2026-04-06T13:51:32.658Z</time></trkpt><trkpt lat="44.0654883" lon="10.4891433"><ele>318.0</ele><time>2026-04-06T13:51:33.658Z</time></trkpt><trkpt lat="44.0655833" lon="10.4890567"><ele>318.0</ele><time>2026-04-06T13:51:34.658Z</time></trkpt><trkpt lat="44.0656817" lon="10.4889683"><ele>318.0</ele><time>2026-04-06T13:51:35.659Z</time></trkpt><trkpt lat="44.0657717" lon="10.4888683"><ele>318.0</ele><time>2026-04-06T13:51:36.658Z</time></trkpt><trkpt lat="44.065865" lon="10.4887567"><ele>318.0</ele><time>2026-04-06T13:51:37.658Z</time></trkpt><trkpt lat="44.0659533" lon="10.4886417"><ele>319.2</ele><time>2026-04-06T13:51:38.658Z</time></trkpt><trkpt lat="44.0660383" lon="10.4885367"><ele>320.4</ele><time>2026-04-06T13:51:39.659Z</time></trkpt><trkpt lat="44.066125" lon="10.488435"><ele>321.59999999999997</ele><time>2026-04-06T13:51:40.659Z</time></trkpt><trkpt lat="44.066205" lon="10.48834"><ele>322.8</ele><time>2026-04-06T13:51:41.658Z</time></trkpt><trkpt lat="44.0662833" lon="10.4882433"><ele>324.0</ele><time>2026-04-06T13:51:42.658Z</time></trkpt><trkpt lat="44.0663633" lon="10.488155"><ele>324.0</ele><time>2026-04-06T13:51:43.658Z</time></trkpt><trkpt lat="44.0664367" lon="10.488075"><ele>324.0</ele><time>2026-04-06T13:51:44.658Z</time></trkpt><trkpt lat="44.0665133" lon="10.4880133"><ele>324.0</ele><time>2026-04-06T13:51:45.659Z</time></trkpt><trkpt lat="44.06659" lon="10.4879567"><ele>324.0</ele><time>2026-04-06T13:51:46.659Z</time></trkpt><trkpt lat="44.0666717" lon="10.487905"><ele>324.0</ele><time>2026-04-06T13:51:47.658Z</time></trkpt><trkpt lat="44.0667483" lon="10.4878583"><ele>324.0</ele><time>2026-04-06T13:51:48.658Z</time></trkpt><trkpt lat="44.0668233" lon="10.48781"><ele>325.5</ele><time>2026-04-06T13:51:49.658Z</time></trkpt><trkpt lat="44.0668967" lon="10.4877717"><ele>327.0</ele><time>2026-04-06T13:51:50.658Z</time></trkpt><trkpt lat="44.0669633" lon="10.487715"><ele>328.5</ele><time>2026-04-06T13:51:51.658Z</time></trkpt><trkpt lat="44.0670233" lon="10.4876417"><ele>330.0</ele><time>2026-04-06T13:51:52.658Z</time></trkpt><trkpt lat="44.067075" lon="10.4875617"><ele>331.5</ele><time>2026-04-06T13:51:53.659Z</time></trkpt><trkpt lat="44.0671133" lon="10.487475"><ele>333.0</ele><time>2026-04-06T13:51:54.658Z</time></trkpt><trkpt lat="44.0671467" lon="10.4873917"><ele>333.0</ele><time>2026-04-06T13:51:55.658Z</time></trkpt><trkpt lat="44.0671783" lon="10.4873083"><ele>333.0</ele><time>2026-04-06T13:51:56.658Z</time></trkpt><trkpt lat="44.06721" lon="10.4872267"><ele>333.0</ele><time>2026-04-06T13:51:57.658Z</time></trkpt><trkpt lat="44.0672417" lon="10.4871433"><ele>333.0</ele><time>2026-04-06T13:51:58.658Z</time></trkpt><trkpt lat="44.06728" lon="10.487065"><ele>333.0</ele><time>2026-04-06T13:51:59.658Z</time></trkpt><trkpt lat="44.0673217" lon="10.4869883"><ele>333.0</ele><time>2026-04-06T13:52:00.658Z</time></trkpt><trkpt lat="44.0673667" lon="10.4869183"><ele>333.0</ele><time>2026-04-06T13:52:01.658Z</time></trkpt><trkpt lat="44.0674133" lon="10.48685"><ele>335.3333333333333</ele><time>2026-04-06T13:52:02.658Z</time></trkpt><trkpt lat="44.0674733" lon="10.4867867"><ele>337.6666666666667</ele><time>2026-04-06T13:52:03.658Z</time></trkpt><trkpt lat="44.0675367" lon="10.48672"><ele>340.0</ele><time>2026-04-06T13:52:04.658Z</time></trkpt><trkpt lat="44.0676033" lon="10.4866517"><ele>342.33333333333337</ele><time>2026-04-06T13:52:05.658Z</time></trkpt><trkpt lat="44.06767" lon="10.486585"><ele>344.6666666666667</ele><time>2026-04-06T13:52:06.658Z</time></trkpt><trkpt lat="44.0677383" lon="10.486525"><ele>347.0</ele><time>2026-04-06T13:52:07.658Z</time></trkpt><trkpt lat="44.0678183" lon="10.4864817"><ele>347.0</ele><time>2026-04-06T13:52:08.658Z</time></trkpt><trkpt lat="44.0679033" lon="10.486445"><ele>347.0</ele><time>2026-04-06T13:52:09.658Z</time></trkpt><trkpt lat="44.0679917" lon="10.4864133"><ele>347.0</ele><time>2026-04-06T13:52:10.658Z</time></trkpt><trkpt lat="44.0680817" lon="10.48638"><ele>347.0</ele><time>2026-04-06T13:52:11.658Z</time></trkpt><trkpt lat="44.0681683" lon="10.4863467"><ele>347.0</ele><time>2026-04-06T13:52:12.658Z</time></trkpt><trkpt lat="44.0682583" lon="10.4863117"><ele>347.20000000000005</ele><time>2026-04-06T13:52:13.658Z</time></trkpt><trkpt lat="44.0683483" lon="10.4862783"><ele>347.4</ele><time>2026-04-06T13:52:14.658Z</time></trkpt><trkpt lat="44.06844" lon="10.4862483"><ele>347.6</ele><time>2026-04-06T13:52:15.659Z</time></trkpt><trkpt lat="44.0685283" lon="10.4862217"><ele>347.79999999999995</ele><time>2026-04-06T13:52:16.658Z</time></trkpt><trkpt lat="44.0686183" lon="10.4861933"><ele>348.0</ele><time>2026-04-06T13:52:17.658Z</time></trkpt><trkpt lat="44.06871" lon="10.4861633"><ele>349.2</ele><time>2026-04-06T13:52:18.658Z</time></trkpt><trkpt lat="44.0688017" lon="10.4861333"><ele>350.4</ele><time>2026-04-06T13:52:19.658Z</time></trkpt><trkpt lat="44.0688933" lon="10.4861017"><ele>351.59999999999997</ele><time>2026-04-06T13:52:20.658Z</time></trkpt><trkpt lat="44.0689783" lon="10.486065"><ele>352.79999999999995</ele><time>2026-04-06T13:52:21.658Z</time></trkpt><trkpt lat="44.06906" lon="10.486025"><ele>354.0</ele><time>2026-04-06T13:52:22.658Z</time></trkpt><trkpt lat="44.0691433" lon="10.4859867"><ele>354.0</ele><time>2026-04-06T13:52:23.658Z</time></trkpt><trkpt lat="44.0692233" lon="10.4859467"><ele>354.0</ele><time>2026-04-06T13:52:24.658Z</time></trkpt><trkpt lat="44.069305" lon="10.485905"><ele>354.0</ele><time>2026-04-06T13:52:25.658Z</time></trkpt><trkpt lat="44.0693883" lon="10.4858683"><ele>354.0</ele><time>2026-04-06T13:52:26.658Z</time></trkpt><trkpt lat="44.0694733" lon="10.4858317"><ele>354.0</ele><time>2026-04-06T13:52:27.658Z</time></trkpt><trkpt lat="44.0695567" lon="10.4857867"><ele>354.0</ele><time>2026-04-06T13:52:28.658Z</time></trkpt><trkpt lat="44.0696367" lon="10.4857367"><ele>354.0</ele><time>2026-04-06T13:52:29.658Z</time></trkpt><trkpt lat="44.0697233" lon="10.485685"><ele>354.0</ele><time>2026-04-06T13:52:30.658Z</time></trkpt><trkpt lat="44.0698033" lon="10.4856117"><ele>354.0</ele><time>2026-04-06T13:52:31.658Z</time></trkpt><trkpt lat="44.0698767" lon="10.4855233"><ele>354.0</ele><time>2026-04-06T13:52:32.658Z</time></trkpt><trkpt lat="44.0699367" lon="10.4854317"><ele>354.0</ele><time>2026-04-06T13:52:33.658Z</time></trkpt><trkpt lat="44.069995" lon="10.4853333"><ele>356.0</ele><time>2026-04-06T13:52:34.658Z</time></trkpt><trkpt lat="44.07005" lon="10.4852317"><ele>358.0</ele><time>2026-04-06T13:52:35.658Z</time></trkpt><trkpt lat="44.0701033" lon="10.4851233"><ele>360.0</ele><time>2026-04-06T13:52:36.658Z</time></trkpt><trkpt lat="44.0701517" lon="10.485"><ele>362.0</ele><time>2026-04-06T13:52:37.658Z</time></trkpt><trkpt lat="44.0701983" lon="10.4848767"><ele>364.0</ele><time>2026-04-06T13:52:38.658Z</time></trkpt><trkpt lat="44.0702417" lon="10.4847383"><ele>364.0</ele><time>2026-04-06T13:52:39.658Z</time></trkpt><trkpt lat="44.0702783" lon="10.4846033"><ele>364.0</ele><time>2026-04-06T13:52:40.658Z</time></trkpt><trkpt lat="44.0703083" lon="10.484465"><ele>364.0</ele><time>2026-04-06T13:52:41.658Z</time></trkpt><trkpt lat="44.0703367" lon="10.4843283"><ele>364.0</ele><time>2026-04-06T13:52:42.659Z</time></trkpt><trkpt lat="44.0703633" lon="10.48419"><ele>364.0</ele><time>2026-04-06T13:52:43.658Z</time></trkpt><trkpt lat="44.0703833" lon="10.48405"><ele>363.3333333333333</ele><time>2026-04-06T13:52:44.658Z</time></trkpt><trkpt lat="44.0703917" lon="10.4839133"><ele>362.66666666666663</ele><time>2026-04-06T13:52:45.659Z</time></trkpt><trkpt lat="44.07038" lon="10.4837783"><ele>362.0</ele><time>2026-04-06T13:52:46.658Z</time></trkpt><trkpt lat="44.0703683" lon="10.4836517"><ele>361.3333333333333</ele><time>2026-04-06T13:52:47.658Z</time></trkpt><trkpt lat="44.0703467" lon="10.4835367"><ele>360.6666666666667</ele><time>2026-04-06T13:52:48.658Z</time></trkpt><trkpt lat="44.0703183" lon="10.4834417"><ele>360.0</ele><time>2026-04-06T13:52:49.658Z</time></trkpt><trkpt lat="44.0702917" lon="10.4833567"><ele>361.8</ele><time>2026-04-06T13:52:50.658Z</time></trkpt><trkpt lat="44.070245" lon="10.483225"><ele>363.6</ele><time>2026-04-06T13:52:52.658Z</time></trkpt><trkpt lat="44.0702333" lon="10.4831233"><ele>365.4</ele><time>2026-04-06T13:52:54.659Z</time></trkpt><trkpt lat="44.0703967" lon="10.483085"><ele>367.2</ele><time>2026-04-06T13:52:59.658Z</time></trkpt><trkpt lat="44.0704533" lon="10.483135"><ele>369.0</ele><time>2026-04-06T13:53:00.658Z</time></trkpt><trkpt lat="44.0705133" lon="10.4831817"><ele>369.0</ele><time>2026-04-06T13:53:01.659Z</time></trkpt><trkpt lat="44.0705833" lon="10.483235"><ele>369.0</ele><time>2026-04-06T13:53:02.659Z</time></trkpt><trkpt lat="44.070655" lon="10.483295"><ele>369.0</ele><time>2026-04-06T13:53:03.659Z</time></trkpt><trkpt lat="44.0707267" lon="10.4833533"><ele>369.0</ele><time>2026-04-06T13:53:04.659Z</time></trkpt><trkpt lat="44.0707967" lon="10.48341"><ele>369.0</ele><time>2026-04-06T13:53:05.66Z</time></trkpt><trkpt lat="44.0708683" lon="10.48346"><ele>369.0</ele><time>2026-04-06T13:53:06.659Z</time></trkpt><trkpt lat="44.0709367" lon="10.4835167"><ele>371.0</ele><time>2026-04-06T13:53:07.659Z</time></trkpt><trkpt lat="44.071" lon="10.4835767"><ele>373.0</ele><time>2026-04-06T13:53:08.659Z</time></trkpt><trkpt lat="44.0710633" lon="10.483635"><ele>375.0</ele><time>2026-04-06T13:53:09.66Z</time></trkpt><trkpt lat="44.071125" lon="10.4836967"><ele>377.0</ele><time>2026-04-06T13:53:10.659Z</time></trkpt><trkpt lat="44.0711867" lon="10.4837533"><ele>379.0</ele><time>2026-04-06T13:53:11.659Z</time></trkpt><trkpt lat="44.0712467" lon="10.4838133"><ele>381.0</ele><time>2026-04-06T13:53:12.659Z</time></trkpt><trkpt lat="44.0713367" lon="10.48389"><ele>381.6</ele><time>2026-04-06T13:53:14.659Z</time></trkpt><trkpt lat="44.0714533" lon="10.4838917"><ele>382.20000000000005</ele><time>2026-04-06T13:53:16.659Z</time></trkpt><trkpt lat="44.071545" lon="10.4837983"><ele>382.79999999999995</ele><time>2026-04-06T13:53:18.659Z</time></trkpt><trkpt lat="44.0716333" lon="10.4837033"><ele>383.4</ele><time>2026-04-06T13:53:20.659Z</time></trkpt><trkpt lat="44.0717183" lon="10.4836133"><ele>384.0</ele><time>2026-04-06T13:53:22.659Z</time></trkpt><trkpt lat="44.0717967" lon="10.483515"><ele>384.0</ele><time>2026-04-06T13:53:24.659Z</time></trkpt><trkpt lat="44.0718733" lon="10.4834333"><ele>384.0</ele><time>2026-04-06T13:53:26.659Z</time></trkpt><trkpt lat="44.0719383" lon="10.483355"><ele>384.0</ele><time>2026-04-06T13:53:28.659Z</time></trkpt><trkpt lat="44.071995" lon="10.48329"><ele>384.0</ele><time>2026-04-06T13:53:30.659Z</time></trkpt><trkpt lat="44.072055" lon="10.4832067"><ele>384.0</ele><time>2026-04-06T13:53:32.66Z</time></trkpt><trkpt lat="44.0721233" lon="10.48312"><ele>384.0</ele><time>2026-04-06T13:53:34.659Z</time></trkpt><trkpt lat="44.0722067" lon="10.483025"><ele>382.2</ele><time>2026-04-06T13:53:36.659Z</time></trkpt><trkpt lat="44.0722933" lon="10.4829233"><ele>380.4</ele><time>2026-04-06T13:53:38.659Z</time></trkpt><trkpt lat="44.07238" lon="10.4828267"><ele>378.6</ele><time>2026-04-06T13:53:40.659Z</time></trkpt><trkpt lat="44.07246" lon="10.4827417"><ele>376.8</ele><time>2026-04-06T13:53:42.659Z</time></trkpt><trkpt lat="44.0725367" lon="10.4826883"><ele>375.0</ele><time>2026-04-06T13:53:44.659Z</time></trkpt><trkpt lat="44.0726133" lon="10.482785"><ele>377.6</ele><time>2026-04-06T13:53:48.159Z</time></trkpt><trkpt lat="44.072715" lon="10.4829733"><ele>380.2</ele><time>2026-04-06T13:53:50.659Z</time></trkpt><trkpt lat="44.072755" lon="10.4830533"><ele>382.79999999999995</ele><time>2026-04-06T13:53:51.659Z</time></trkpt><trkpt lat="44.0727917" lon="10.483135"><ele>385.4</ele><time>2026-04-06T13:53:52.659Z</time></trkpt><trkpt lat="44.072835" lon="10.4832217"><ele>388.0</ele><time>2026-04-06T13:53:53.659Z</time></trkpt><trkpt lat="44.0728833" lon="10.48331"><ele>388.0</ele><time>2026-04-06T13:53:54.659Z</time></trkpt><trkpt lat="44.0729317" lon="10.4833967"><ele>388.0</ele><time>2026-04-06T13:53:55.659Z</time></trkpt><trkpt lat="44.0729783" lon="10.4834817"><ele>388.0</ele><time>2026-04-06T13:53:56.659Z</time></trkpt><trkpt lat="44.073015" lon="10.4835683"><ele>388.0</ele><time>2026-04-06T13:53:57.659Z</time></trkpt><trkpt lat="44.0730467" lon="10.4836617"><ele>388.0</ele><time>2026-04-06T13:53:58.659Z</time></trkpt><trkpt lat="44.0730783" lon="10.483755"><ele>388.0</ele><time>2026-04-06T13:53:59.659Z</time></trkpt><trkpt lat="44.0731083" lon="10.4838467"><ele>388.0</ele><time>2026-04-06T13:54:00.659Z</time></trkpt><trkpt lat="44.073185" lon="10.4839667"><ele>387.2</ele><time>2026-04-06T13:54:02.659Z</time></trkpt><trkpt lat="44.0732867" lon="10.48396"><ele>386.4</ele><time>2026-04-06T13:54:04.659Z</time></trkpt><trkpt lat="44.0734017" lon="10.4838767"><ele>385.59999999999997</ele><time>2026-04-06T13:54:06.659Z</time></trkpt><trkpt lat="44.0734667" lon="10.4838167"><ele>384.79999999999995</ele><time>2026-04-06T13:54:07.659Z</time></trkpt><trkpt lat="44.0735517" lon="10.4837533"><ele>384.0</ele><time>2026-04-06T13:54:08.659Z</time></trkpt><trkpt lat="44.0736133" lon="10.4837033"><ele>384.0</ele><time>2026-04-06T13:54:09.659Z</time></trkpt><trkpt lat="44.0737" lon="10.48366"><ele>384.0</ele><time>2026-04-06T13:54:11.659Z</time></trkpt><trkpt lat="44.073765" lon="10.4836533"><ele>384.0</ele><time>2026-04-06T13:54:12.659Z</time></trkpt><trkpt lat="44.0738383" lon="10.4836633"><ele>384.0</ele><time>2026-04-06T13:54:13.659Z</time></trkpt><trkpt lat="44.0739117" lon="10.4837017"><ele>384.0</ele><time>2026-04-06T13:54:14.659Z</time></trkpt><trkpt lat="44.0739767" lon="10.483765"><ele>384.0</ele><time>2026-04-06T13:54:15.659Z</time></trkpt><trkpt lat="44.0740283" lon="10.48383"><ele>384.0</ele><time>2026-04-06T13:54:16.659Z</time></trkpt><trkpt lat="44.0740933" lon="10.4839183"><ele>384.0</ele><time>2026-04-06T13:54:18.66Z</time></trkpt><trkpt lat="44.0742267" lon="10.4838733"><ele>384.0</ele><time>2026-04-06T13:54:42.659Z</time></trkpt><trkpt lat="44.0741733" lon="10.4837867"><ele>384.0</ele><time>2026-04-06T13:54:46.659Z</time></trkpt><trkpt lat="44.0740933" lon="10.4837183"><ele>384.0</ele><time>2026-04-06T13:54:48.659Z</time></trkpt><trkpt lat="44.0739783" lon="10.4836283"><ele>381.8333333333333</ele><time>2026-04-06T13:54:50.659Z</time></trkpt><trkpt lat="44.073905" lon="10.48358"><ele>379.6666666666667</ele><time>2026-04-06T13:54:51.66Z</time></trkpt><trkpt lat="44.07383" lon="10.4835417"><ele>377.5</ele><time>2026-04-06T13:54:52.659Z</time></trkpt><trkpt lat="44.073755" lon="10.4835433"><ele>375.33333333333337</ele><time>2026-04-06T13:54:53.659Z</time></trkpt><trkpt lat="44.0736717" lon="10.4835717"><ele>373.1666666666667</ele><time>2026-04-06T13:54:54.66Z</time></trkpt><trkpt lat="44.0735933" lon="10.4836367"><ele>371.0</ele><time>2026-04-06T13:54:55.659Z</time></trkpt><trkpt lat="44.0735133" lon="10.48372"><ele>373.1666666666667</ele><time>2026-04-06T13:54:56.659Z</time></trkpt><trkpt lat="44.0734417" lon="10.4837933"><ele>375.33333333333337</ele><time>2026-04-06T13:54:57.659Z</time></trkpt><trkpt lat="44.0733683" lon="10.483855"><ele>377.5</ele><time>2026-04-06T13:54:58.659Z</time></trkpt><trkpt lat="44.0732967" lon="10.4839017"><ele>379.6666666666667</ele><time>2026-04-06T13:54:59.659Z</time></trkpt><trkpt lat="44.07323" lon="10.4839317"><ele>381.8333333333333</ele><time>2026-04-06T13:55:00.66Z</time></trkpt><trkpt lat="44.0731567" lon="10.4839383"><ele>384.0</ele><time>2026-04-06T13:55:01.659Z</time></trkpt><trkpt lat="44.07306" lon="10.4838267"><ele>384.6666666666667</ele><time>2026-04-06T13:55:03.659Z</time></trkpt><trkpt lat="44.07302" lon="10.483735"><ele>385.33333333333337</ele><time>2026-04-06T13:55:04.66Z</time></trkpt><trkpt lat="44.07298" lon="10.4836417"><ele>386.0</ele><time>2026-04-06T13:55:05.659Z</time></trkpt><trkpt lat="44.072935" lon="10.4835533"><ele>386.6666666666667</ele><time>2026-04-06T13:55:06.659Z</time></trkpt><trkpt lat="44.0728983" lon="10.483445"><ele>387.33333333333337</ele><time>2026-04-06T13:55:07.659Z</time></trkpt><trkpt lat="44.0728583" lon="10.4833333"><ele>388.0</ele><time>2026-04-06T13:55:08.659Z</time></trkpt><trkpt lat="44.0728133" lon="10.4832083"><ele>388.00000000000006</ele><time>2026-04-06T13:55:09.66Z</time></trkpt><trkpt lat="44.07277" lon="10.4830833"><ele>388.0</ele><time>2026-04-06T13:55:10.66Z</time></trkpt><trkpt lat="44.0727317" lon="10.482965"><ele>388.0</ele><time>2026-04-06T13:55:11.659Z</time></trkpt><trkpt lat="44.0726883" lon="10.4828567"><ele>388.0</ele><time>2026-04-06T13:55:12.659Z</time></trkpt><trkpt lat="44.072645" lon="10.482765"><ele>388.00000000000006</ele><time>2026-04-06T13:55:13.659Z</time></trkpt><trkpt lat="44.0725983" lon="10.4826833"><ele>388.0</ele><time>2026-04-06T13:55:14.659Z</time></trkpt><trkpt lat="44.0725433" lon="10.482635"><ele>387.2</ele><time>2026-04-06T13:55:15.66Z</time></trkpt><trkpt lat="44.0724317" lon="10.482655"><ele>386.4</ele><time>2026-04-06T13:55:17.659Z</time></trkpt><trkpt lat="44.0723283" lon="10.482765"><ele>385.59999999999997</ele><time>2026-04-06T13:55:19.659Z</time></trkpt><trkpt lat="44.0722633" lon="10.4828617"><ele>384.79999999999995</ele><time>2026-04-06T13:55:20.659Z</time></trkpt><trkpt lat="44.07221" lon="10.4829433"><ele>384.0</ele><time>2026-04-06T13:55:21.659Z</time></trkpt><trkpt lat="44.07216" lon="10.4830133"><ele>384.0</ele><time>2026-04-06T13:55:22.659Z</time></trkpt><trkpt lat="44.072115" lon="10.483075"><ele>384.0</ele><time>2026-04-06T13:55:23.659Z</time></trkpt><trkpt lat="44.07206" lon="10.4831717"><ele>384.0</ele><time>2026-04-06T13:55:25.659Z</time></trkpt><trkpt lat="44.0720367" lon="10.4832767"><ele>384.0</ele><time>2026-04-06T13:55:27.66Z</time></trkpt><trkpt lat="44.0719883" lon="10.4833833"><ele>384.0</ele><time>2026-04-06T13:55:29.659Z</time></trkpt><trkpt lat="44.07192" lon="10.4834817"><ele>384.0</ele><time>2026-04-06T13:55:31.66Z</time></trkpt><trkpt lat="44.07185" lon="10.4835567"><ele>384.0</ele><time>2026-04-06T13:55:33.66Z</time></trkpt><trkpt lat="44.0717967" lon="10.4836167"><ele>384.0</ele><time>2026-04-06T13:55:35.66Z</time></trkpt><trkpt lat="44.0717433" lon="10.4836967"><ele>384.0</ele><time>2026-04-06T13:55:37.659Z</time></trkpt><trkpt lat="44.071675" lon="10.4837933"><ele>393.0</ele><time>2026-04-06T13:55:39.659Z</time></trkpt></trkseg><trkseg><trkpt lat="44.0718367" lon="10.4834083"><ele>384.0</ele><time>2026-04-06T14:39:38.659Z</time></trkpt><trkpt lat="44.07189" lon="10.483325"><ele>384.0</ele><time>2026-04-06T14:39:40.659Z</time></trkpt><trkpt lat="44.0719733" lon="10.48321"><ele>384.0</ele><time>2026-04-06T14:39:42.66Z</time></trkpt><trkpt lat="44.07203" lon="10.48315"><ele>384.0</ele><time>2026-04-06T14:39:43.659Z</time></trkpt><trkpt lat="44.072085" lon="10.4830833"><ele>384.0</ele><time>2026-04-06T14:39:44.659Z</time></trkpt><trkpt lat="44.0721417" lon="10.4830183"><ele>384.0</ele><time>2026-04-06T14:39:45.659Z</time></trkpt><trkpt lat="44.0722067" lon="10.48295"><ele>382.5</ele><time>2026-04-06T14:39:46.659Z</time></trkpt><trkpt lat="44.0722733" lon="10.482875"><ele>381.0</ele><time>2026-04-06T14:39:47.659Z</time></trkpt><trkpt lat="44.07234" lon="10.4828067"><ele>379.5</ele><time>2026-04-06T14:39:48.659Z</time></trkpt><trkpt lat="44.0724117" lon="10.4827467"><ele>378.0</ele><time>2026-04-06T14:39:49.659Z</time></trkpt><trkpt lat="44.072485" lon="10.4826983"><ele>376.5</ele><time>2026-04-06T14:39:50.66Z</time></trkpt><trkpt lat="44.0725567" lon="10.4826733"><ele>375.0</ele><time>2026-04-06T14:39:51.659Z</time></trkpt><trkpt lat="44.072625" lon="10.4826767"><ele>375.0</ele><time>2026-04-06T14:39:52.659Z</time></trkpt><trkpt lat="44.0726867" lon="10.4827167"><ele>375.0</ele><time>2026-04-06T14:39:53.659Z</time></trkpt><trkpt lat="44.0727367" lon="10.4828283"><ele>375.0</ele><time>2026-04-06T14:39:54.659Z</time></trkpt><trkpt lat="44.0727783" lon="10.4829367"><ele>375.0</ele><time>2026-04-06T14:39:55.659Z</time></trkpt><trkpt lat="44.0728267" lon="10.48304"><ele>375.0</ele><time>2026-04-06T14:39:56.66Z</time></trkpt><trkpt lat="44.072875" lon="10.4831483"><ele>375.0</ele><time>2026-04-06T14:39:57.659Z</time></trkpt><trkpt lat="44.0729233" lon="10.483255"><ele>377.6</ele><time>2026-04-06T14:39:58.659Z</time></trkpt><trkpt lat="44.07297" lon="10.483365"><ele>380.2</ele><time>2026-04-06T14:39:59.659Z</time></trkpt><trkpt lat="44.0729983" lon="10.4834783"><ele>382.79999999999995</ele><time>2026-04-06T14:40:00.659Z</time></trkpt><trkpt lat="44.073035" lon="10.4835983"><ele>385.4</ele><time>2026-04-06T14:40:01.66Z</time></trkpt><trkpt lat="44.0730683" lon="10.4837133"><ele>388.0</ele><time>2026-04-06T14:40:02.659Z</time></trkpt><trkpt lat="44.0731267" lon="10.4838217"><ele>387.2</ele><time>2026-04-06T14:40:03.659Z</time></trkpt><trkpt lat="44.0732217" lon="10.4839883"><ele>386.4</ele><time>2026-04-06T14:40:05.659Z</time></trkpt><trkpt lat="44.073295" lon="10.48399"><ele>385.59999999999997</ele><time>2026-04-06T14:40:06.659Z</time></trkpt><trkpt lat="44.07337" lon="10.4839017"><ele>384.79999999999995</ele><time>2026-04-06T14:40:07.659Z</time></trkpt><trkpt lat="44.07344" lon="10.4838233"><ele>384.0</ele><time>2026-04-06T14:40:08.659Z</time></trkpt><trkpt lat="44.07352" lon="10.4837567"><ele>381.8333333333333</ele><time>2026-04-06T14:40:09.659Z</time></trkpt><trkpt lat="44.073595" lon="10.4836883"><ele>379.6666666666667</ele><time>2026-04-06T14:40:10.66Z</time></trkpt><trkpt lat="44.0736683" lon="10.483625"><ele>377.5</ele><time>2026-04-06T14:40:11.659Z</time></trkpt><trkpt lat="44.0737517" lon="10.4835883"><ele>375.33333333333337</ele><time>2026-04-06T14:40:12.66Z</time></trkpt><trkpt lat="44.073825" lon="10.4835667"><ele>373.1666666666667</ele><time>2026-04-06T14:40:13.66Z</time></trkpt><trkpt lat="44.0738933" lon="10.4835533"><ele>371.0</ele><time>2026-04-06T14:40:14.659Z</time></trkpt><trkpt lat="44.07398" lon="10.483595"><ele>371.0</ele><time>2026-04-06T14:40:15.659Z</time></trkpt><trkpt lat="44.07405" lon="10.4836617"><ele>371.0</ele><time>2026-04-06T14:40:16.659Z</time></trkpt><trkpt lat="44.07412" lon="10.4837317"><ele>371.0</ele><time>2026-04-06T14:40:17.659Z</time></trkpt><trkpt lat="44.0741917" lon="10.4838217"><ele>371.0</ele><time>2026-04-06T14:40:19.659Z</time></trkpt><trkpt lat="44.07425" lon="10.4838883"><ele>371.0</ele><time>2026-04-06T14:40:22.659Z</time></trkpt><trkpt lat="44.0743617" lon="10.483795"><ele>369.33333333333337</ele><time>2026-04-06T14:41:15.659Z</time></trkpt><trkpt lat="44.074455" lon="10.48369"><ele>367.6666666666667</ele><time>2026-04-06T14:41:17.659Z</time></trkpt><trkpt lat="44.0745083" lon="10.4836367"><ele>366.0</ele><time>2026-04-06T14:41:18.659Z</time></trkpt><trkpt lat="44.0745633" lon="10.48358"><ele>364.3333333333333</ele><time>2026-04-06T14:41:19.659Z</time></trkpt><trkpt lat="44.0746217" lon="10.4835233"><ele>362.66666666666663</ele><time>2026-04-06T14:41:20.66Z</time></trkpt><trkpt lat="44.0746817" lon="10.4834667"><ele>361.0</ele><time>2026-04-06T14:41:21.659Z</time></trkpt><trkpt lat="44.0747383" lon="10.4834017"><ele>361.0</ele><time>2026-04-06T14:41:22.659Z</time></trkpt><trkpt lat="44.0747967" lon="10.48333"><ele>361.0</ele><time>2026-04-06T14:41:23.659Z</time></trkpt><trkpt lat="44.074855" lon="10.4832567"><ele>361.0</ele><time>2026-04-06T14:41:24.659Z</time></trkpt><trkpt lat="44.0749117" lon="10.4831817"><ele>361.0</ele><time>2026-04-06T14:41:25.659Z</time></trkpt><trkpt lat="44.074975" lon="10.483115"><ele>361.0</ele><time>2026-04-06T14:41:26.659Z</time></trkpt><trkpt lat="44.0750383" lon="10.4830483"><ele>361.0</ele><time>2026-04-06T14:41:27.659Z</time></trkpt><trkpt lat="44.075105" lon="10.48298"><ele>361.3333333333333</ele><time>2026-04-06T14:41:28.659Z</time></trkpt><trkpt lat="44.0751783" lon="10.4829133"><ele>361.66666666666663</ele><time>2026-04-06T14:41:29.659Z</time></trkpt><trkpt lat="44.07525" lon="10.482845"><ele>362.0</ele><time>2026-04-06T14:41:30.659Z</time></trkpt><trkpt lat="44.075315" lon="10.482775"><ele>362.3333333333333</ele><time>2026-04-06T14:41:31.659Z</time></trkpt><trkpt lat="44.0753817" lon="10.4827033"><ele>362.6666666666667</ele><time>2026-04-06T14:41:32.659Z</time></trkpt><trkpt lat="44.0754367" lon="10.482635"><ele>363.0</ele><time>2026-04-06T14:41:33.659Z</time></trkpt><trkpt lat="44.0755117" lon="10.48253"><ele>363.0</ele><time>2026-04-06T14:41:35.659Z</time></trkpt><trkpt lat="44.0755633" lon="10.4824333"><ele>363.0</ele><time>2026-04-06T14:41:38.659Z</time></trkpt><trkpt lat="44.07559" lon="10.482325"><ele>363.0</ele><time>2026-04-06T14:41:40.659Z</time></trkpt><trkpt lat="44.0756267" lon="10.4822533"><ele>363.0</ele><time>2026-04-06T14:41:42.659Z</time></trkpt><trkpt lat="44.0756833" lon="10.4821817"><ele>363.0</ele><time>2026-04-06T14:41:46.659Z</time></trkpt><trkpt lat="44.0757583" lon="10.4821033"><ele>363.0</ele><time>2026-04-06T14:41:49.66Z</time></trkpt><trkpt lat="44.0758317" lon="10.4820617"><ele>362.6666666666667</ele><time>2026-04-06T14:41:51.659Z</time></trkpt><trkpt lat="44.0759017" lon="10.482015"><ele>362.3333333333333</ele><time>2026-04-06T14:41:53.659Z</time></trkpt><trkpt lat="44.0759967" lon="10.4819283"><ele>362.0</ele><time>2026-04-06T14:41:55.66Z</time></trkpt><trkpt lat="44.0760583" lon="10.4818733"><ele>361.66666666666663</ele><time>2026-04-06T14:41:56.659Z</time></trkpt><trkpt lat="44.076125" lon="10.4818183"><ele>361.3333333333333</ele><time>2026-04-06T14:41:57.659Z</time></trkpt><trkpt lat="44.07619" lon="10.4817617"><ele>361.0</ele><time>2026-04-06T14:41:58.659Z</time></trkpt><trkpt lat="44.0762383" lon="10.4817"><ele>361.0</ele><time>2026-04-06T14:41:59.659Z</time></trkpt><trkpt lat="44.0763283" lon="10.481595"><ele>361.0</ele><time>2026-04-06T14:42:01.659Z</time></trkpt><trkpt lat="44.076435" lon="10.481485"><ele>361.0</ele><time>2026-04-06T14:42:03.659Z</time></trkpt><trkpt lat="44.0764883" lon="10.48141"><ele>361.0</ele><time>2026-04-06T14:42:04.66Z</time></trkpt><trkpt lat="44.0765517" lon="10.4813433"><ele>361.0</ele><time>2026-04-06T14:42:05.659Z</time></trkpt><trkpt lat="44.076605" lon="10.4812567"><ele>360.0</ele><time>2026-04-06T14:42:06.659Z</time></trkpt><trkpt lat="44.076645" lon="10.4811517"><ele>359.0</ele><time>2026-04-06T14:42:07.659Z</time></trkpt><trkpt lat="44.0766717" lon="10.48104"><ele>358.0</ele><time>2026-04-06T14:42:08.659Z</time></trkpt><trkpt lat="44.0766817" lon="10.4809133"><ele>357.0</ele><time>2026-04-06T14:42:09.659Z</time></trkpt><trkpt lat="44.076685" lon="10.4807917"><ele>356.0</ele><time>2026-04-06T14:42:10.659Z</time></trkpt><trkpt lat="44.076685" lon="10.48067"><ele>355.0</ele><time>2026-04-06T14:42:11.659Z</time></trkpt><trkpt lat="44.076665" lon="10.4805567"><ele>355.0</ele><time>2026-04-06T14:42:12.659Z</time></trkpt><trkpt lat="44.0766367" lon="10.48044"><ele>355.0</ele><time>2026-04-06T14:42:13.659Z</time></trkpt><trkpt lat="44.0766" lon="10.4803283"><ele>355.0</ele><time>2026-04-06T14:42:14.659Z</time></trkpt><trkpt lat="44.0765533" lon="10.4802033"><ele>355.0</ele><time>2026-04-06T14:42:15.659Z</time></trkpt><trkpt lat="44.0765067" lon="10.480075"><ele>355.0</ele><time>2026-04-06T14:42:16.659Z</time></trkpt><trkpt lat="44.076455" lon="10.479935"><ele>354.75</ele><time>2026-04-06T14:42:17.659Z</time></trkpt><trkpt lat="44.0764117" lon="10.479795"><ele>354.5</ele><time>2026-04-06T14:42:18.659Z</time></trkpt><trkpt lat="44.0763567" lon="10.4796517"><ele>354.25</ele><time>2026-04-06T14:42:19.659Z</time></trkpt><trkpt lat="44.0763033" lon="10.4795117"><ele>354.0</ele><time>2026-04-06T14:42:20.659Z</time></trkpt><trkpt lat="44.0762467" lon="10.4793683"><ele>354.0</ele><time>2026-04-06T14:42:21.659Z</time></trkpt><trkpt lat="44.0761917" lon="10.4792267"><ele>354.0</ele><time>2026-04-06T14:42:22.659Z</time></trkpt><trkpt lat="44.0761317" lon="10.4790833"><ele>354.0</ele><time>2026-04-06T14:42:23.659Z</time></trkpt><trkpt lat="44.076015" lon="10.4787983"><ele>352.0</ele><time>2026-04-06T14:42:25.659Z</time></trkpt><trkpt lat="44.0759617" lon="10.478655"><ele>350.0</ele><time>2026-04-06T14:42:26.658Z</time></trkpt><trkpt lat="44.0759117" lon="10.4785"><ele>348.0</ele><time>2026-04-06T14:42:27.658Z</time></trkpt><trkpt lat="44.0758717" lon="10.47834"><ele>346.0</ele><time>2026-04-06T14:42:28.658Z</time></trkpt><trkpt lat="44.0758333" lon="10.4781767"><ele>346.0</ele><time>2026-04-06T14:42:29.658Z</time></trkpt><trkpt lat="44.0758017" lon="10.47801"><ele>346.0</ele><time>2026-04-06T14:42:30.658Z</time></trkpt><trkpt lat="44.0757733" lon="10.477835"><ele>346.0</ele><time>2026-04-06T14:42:31.658Z</time></trkpt><trkpt lat="44.07576" lon="10.4776633"><ele>346.0</ele><time>2026-04-06T14:42:32.658Z</time></trkpt><trkpt lat="44.0757433" lon="10.4774917"><ele>346.0</ele><time>2026-04-06T14:42:33.659Z</time></trkpt><trkpt lat="44.075725" lon="10.477315"><ele>346.0</ele><time>2026-04-06T14:42:34.658Z</time></trkpt><trkpt lat="44.07571" lon="10.4771383"><ele>346.0</ele><time>2026-04-06T14:42:35.658Z</time></trkpt><trkpt lat="44.075695" lon="10.4769667"><ele>346.0</ele><time>2026-04-06T14:42:36.658Z</time></trkpt><trkpt lat="44.0756833" lon="10.4767933"><ele>346.0</ele><time>2026-04-06T14:42:37.658Z</time></trkpt><trkpt lat="44.075665" lon="10.4766233"><ele>346.0</ele><time>2026-04-06T14:42:38.658Z</time></trkpt><trkpt lat="44.0756433" lon="10.476455"><ele>346.0</ele><time>2026-04-06T14:42:39.658Z</time></trkpt><trkpt lat="44.0756267" lon="10.47628"><ele>346.0</ele><time>2026-04-06T14:42:40.658Z</time></trkpt><trkpt lat="44.0756183" lon="10.476105"><ele>344.66666666666663</ele><time>2026-04-06T14:42:41.658Z</time></trkpt><trkpt lat="44.07561" lon="10.4759333"><ele>343.3333333333333</ele><time>2026-04-06T14:42:42.658Z</time></trkpt><trkpt lat="44.0756033" lon="10.475765"><ele>342.0</ele><time>2026-04-06T14:42:43.658Z</time></trkpt><trkpt lat="44.0755883" lon="10.47543"><ele>341.20000000000005</ele><time>2026-04-06T14:42:45.658Z</time></trkpt><trkpt lat="44.0755717" lon="10.4752767"><ele>340.4</ele><time>2026-04-06T14:42:46.658Z</time></trkpt><trkpt lat="44.0755433" lon="10.4751367"><ele>339.6</ele><time>2026-04-06T14:42:47.658Z</time></trkpt><trkpt lat="44.0755133" lon="10.4750167"><ele>338.79999999999995</ele><time>2026-04-06T14:42:48.658Z</time></trkpt><trkpt lat="44.0754817" lon="10.474915"><ele>338.0</ele><time>2026-04-06T14:42:49.659Z</time></trkpt><trkpt lat="44.0754533" lon="10.4748317"><ele>338.0</ele><time>2026-04-06T14:42:50.658Z</time></trkpt><trkpt lat="44.0754133" lon="10.4747017"><ele>338.0</ele><time>2026-04-06T14:42:52.658Z</time></trkpt><trkpt lat="44.07543" lon="10.4746117"><ele>338.0</ele><time>2026-04-06T14:42:54.658Z</time></trkpt><trkpt lat="44.0754967" lon="10.4746417"><ele>338.0</ele><time>2026-04-06T14:42:56.658Z</time></trkpt><trkpt lat="44.0755633" lon="10.4747817"><ele>338.0</ele><time>2026-04-06T14:42:58.658Z</time></trkpt><trkpt lat="44.0755933" lon="10.4748783"><ele>338.0</ele><time>2026-04-06T14:42:59.658Z</time></trkpt><trkpt lat="44.0756267" lon="10.474985"><ele>338.0</ele><time>2026-04-06T14:43:00.658Z</time></trkpt><trkpt lat="44.0756567" lon="10.4751"><ele>338.0</ele><time>2026-04-06T14:43:01.658Z</time></trkpt><trkpt lat="44.0756933" lon="10.4752183"><ele>338.0</ele><time>2026-04-06T14:43:02.658Z</time></trkpt><trkpt lat="44.0757333" lon="10.4753367"><ele>338.0</ele><time>2026-04-06T14:43:03.658Z</time></trkpt><trkpt lat="44.07578" lon="10.4754717"><ele>338.0</ele><time>2026-04-06T14:43:04.658Z</time></trkpt><trkpt lat="44.075825" lon="10.475595"><ele>335.79999999999995</ele><time>2026-04-06T14:43:05.659Z</time></trkpt><trkpt lat="44.0758633" lon="10.475725"><ele>333.6</ele><time>2026-04-06T14:43:06.658Z</time></trkpt><trkpt lat="44.0759067" lon="10.47585"><ele>331.4</ele><time>2026-04-06T14:43:07.658Z</time></trkpt><trkpt lat="44.07595" lon="10.4759717"><ele>329.20000000000005</ele><time>2026-04-06T14:43:08.658Z</time></trkpt><trkpt lat="44.0760067" lon="10.4760767"><ele>327.0</ele><time>2026-04-06T14:43:09.658Z</time></trkpt><trkpt lat="44.0760617" lon="10.476165"><ele>327.0</ele><time>2026-04-06T14:43:10.658Z</time></trkpt><trkpt lat="44.0761567" lon="10.4761917"><ele>327.0</ele><time>2026-04-06T14:43:11.658Z</time></trkpt><trkpt lat="44.0762317" lon="10.4761683"><ele>327.0</ele><time>2026-04-06T14:43:12.658Z</time></trkpt><trkpt lat="44.0763017" lon="10.4761167"><ele>327.0</ele><time>2026-04-06T14:43:13.658Z</time></trkpt><trkpt lat="44.0763317" lon="10.4760117"><ele>327.0</ele><time>2026-04-06T14:43:14.658Z</time></trkpt><trkpt lat="44.076345" lon="10.4759017"><ele>327.0</ele><time>2026-04-06T14:43:15.658Z</time></trkpt><trkpt lat="44.0763433" lon="10.475795"><ele>327.0</ele><time>2026-04-06T14:43:16.659Z</time></trkpt><trkpt lat="44.07632" lon="10.4756733"><ele>327.0</ele><time>2026-04-06T14:43:17.659Z</time></trkpt><trkpt lat="44.0762767" lon="10.4755383"><ele>327.0</ele><time>2026-04-06T14:43:18.658Z</time></trkpt><trkpt lat="44.076235" lon="10.4753967"><ele>327.0</ele><time>2026-04-06T14:43:19.658Z</time></trkpt><trkpt lat="44.0762033" lon="10.475245"><ele>327.0</ele><time>2026-04-06T14:43:20.658Z</time></trkpt><trkpt lat="44.07617" lon="10.4750867"><ele>325.5</ele><time>2026-04-06T14:43:21.658Z</time></trkpt><trkpt lat="44.0761367" lon="10.47492"><ele>324.0</ele><time>2026-04-06T14:43:22.659Z</time></trkpt><trkpt lat="44.0760983" lon="10.4747483"><ele>322.5</ele><time>2026-04-06T14:43:23.658Z</time></trkpt><trkpt lat="44.0760617" lon="10.474575"><ele>321.0</ele><time>2026-04-06T14:43:24.658Z</time></trkpt><trkpt lat="44.0760383" lon="10.4743983"><ele>318.0</ele><time>2026-04-06T14:43:25.658Z</time></trkpt><trkpt lat="44.0760333" lon="10.4742217"><ele>315.0</ele><time>2026-04-06T14:43:26.658Z</time></trkpt><trkpt lat="44.0760517" lon="10.4740433"><ele>312.0</ele><time>2026-04-06T14:43:27.658Z</time></trkpt><trkpt lat="44.076095" lon="10.473875"><ele>309.0</ele><time>2026-04-06T14:43:28.658Z</time></trkpt><trkpt lat="44.07615" lon="10.47371"><ele>307.0</ele><time>2026-04-06T14:43:29.659Z</time></trkpt><trkpt lat="44.076205" lon="10.4735433"><ele>305.0</ele><time>2026-04-06T14:43:30.658Z</time></trkpt><trkpt lat="44.0762617" lon="10.4733717"><ele>303.0</ele><time>2026-04-06T14:43:31.659Z</time></trkpt><trkpt lat="44.0763183" lon="10.4731983"><ele>301.0</ele><time>2026-04-06T14:43:32.658Z</time></trkpt><trkpt lat="44.0763667" lon="10.473025"><ele>300.75</ele><time>2026-04-06T14:43:33.658Z</time></trkpt><trkpt lat="44.0764117" lon="10.47285"><ele>300.5</ele><time>2026-04-06T14:43:34.658Z</time></trkpt><trkpt lat="44.07645" lon="10.472675"><ele>300.25</ele><time>2026-04-06T14:43:35.658Z</time></trkpt><trkpt lat="44.0764783" lon="10.4725"><ele>300.0</ele><time>2026-04-06T14:43:36.658Z</time></trkpt><trkpt lat="44.0765017" lon="10.472325"><ele>300.0</ele><time>2026-04-06T14:43:37.658Z</time></trkpt><trkpt lat="44.07652" lon="10.4721517"><ele>300.0</ele><time>2026-04-06T14:43:38.658Z</time></trkpt><trkpt lat="44.07654" lon="10.4719783"><ele>300.0</ele><time>2026-04-06T14:43:39.658Z</time></trkpt><trkpt lat="44.0765583" lon="10.471805"><ele>300.0</ele><time>2026-04-06T14:43:40.658Z</time></trkpt><trkpt lat="44.07658" lon="10.47163"><ele>299.25</ele><time>2026-04-06T14:43:41.658Z</time></trkpt><trkpt lat="44.0766017" lon="10.4714567"><ele>298.5</ele><time>2026-04-06T14:43:42.658Z</time></trkpt><trkpt lat="44.0766283" lon="10.4712783"><ele>297.75</ele><time>2026-04-06T14:43:43.658Z</time></trkpt><trkpt lat="44.0766583" lon="10.4710933"><ele>297.0</ele><time>2026-04-06T14:43:44.658Z</time></trkpt><trkpt lat="44.0766867" lon="10.4709083"><ele>294.25</ele><time>2026-04-06T14:43:45.658Z</time></trkpt><trkpt lat="44.07671" lon="10.470725"><ele>291.5</ele><time>2026-04-06T14:43:46.658Z</time></trkpt><trkpt lat="44.0767317" lon="10.4705417"><ele>288.75</ele><time>2026-04-06T14:43:47.658Z</time></trkpt><trkpt lat="44.0767517" lon="10.4703617"><ele>286.0</ele><time>2026-04-06T14:43:48.658Z</time></trkpt><trkpt lat="44.07677" lon="10.4701817"><ele>285.25</ele><time>2026-04-06T14:43:49.658Z</time></trkpt><trkpt lat="44.07679" lon="10.4700083"><ele>284.5</ele><time>2026-04-06T14:43:50.659Z</time></trkpt><trkpt lat="44.07681" lon="10.4698367"><ele>283.75</ele><time>2026-04-06T14:43:51.658Z</time></trkpt><trkpt lat="44.0768283" lon="10.4696667"><ele>283.0</ele><time>2026-04-06T14:43:52.658Z</time></trkpt><trkpt lat="44.0768483" lon="10.4694933"><ele>282.75</ele><time>2026-04-06T14:43:53.658Z</time></trkpt><trkpt lat="44.076865" lon="10.4693217"><ele>282.5</ele><time>2026-04-06T14:43:54.658Z</time></trkpt><trkpt lat="44.0768817" lon="10.46915"><ele>282.25</ele><time>2026-04-06T14:43:55.658Z</time></trkpt><trkpt lat="44.0768933" lon="10.4689733"><ele>282.0</ele><time>2026-04-06T14:43:56.658Z</time></trkpt><trkpt lat="44.0769" lon="10.4687983"><ele>281.25</ele><time>2026-04-06T14:43:57.658Z</time></trkpt><trkpt lat="44.0769033" lon="10.4686233"><ele>280.5</ele><time>2026-04-06T14:43:58.658Z</time></trkpt><trkpt lat="44.0769033" lon="10.4684483"><ele>279.75</ele><time>2026-04-06T14:43:59.658Z</time></trkpt><trkpt lat="44.076905" lon="10.4682733"><ele>279.0</ele><time>2026-04-06T14:44:00.658Z</time></trkpt><trkpt lat="44.076905" lon="10.4680967"><ele>278.25</ele><time>2026-04-06T14:44:01.658Z</time></trkpt><trkpt lat="44.0769033" lon="10.4679167"><ele>277.5</ele><time>2026-04-06T14:44:02.658Z</time></trkpt><trkpt lat="44.076905" lon="10.467735"><ele>276.75</ele><time>2026-04-06T14:44:03.658Z</time></trkpt><trkpt lat="44.0769083" lon="10.4675533"><ele>276.0</ele><time>2026-04-06T14:44:04.659Z</time></trkpt><trkpt lat="44.0769133" lon="10.46737"><ele>276.0</ele><time>2026-04-06T14:44:05.658Z</time></trkpt><trkpt lat="44.0769183" lon="10.4671867"><ele>276.0</ele><time>2026-04-06T14:44:06.658Z</time></trkpt><trkpt lat="44.07692" lon="10.4670017"><ele>276.0</ele><time>2026-04-06T14:44:07.658Z</time></trkpt><trkpt lat="44.07692" lon="10.4668183"><ele>276.0</ele><time>2026-04-06T14:44:08.658Z</time></trkpt><trkpt lat="44.0769167" lon="10.4666317"><ele>275.25</ele><time>2026-04-06T14:44:09.658Z</time></trkpt><trkpt lat="44.0769033" lon="10.466445"><ele>274.5</ele><time>2026-04-06T14:44:10.659Z</time></trkpt><trkpt lat="44.076885" lon="10.4662533"><ele>273.75</ele><time>2026-04-06T14:44:11.659Z</time></trkpt><trkpt lat="44.0768633" lon="10.4660633"><ele>273.0</ele><time>2026-04-06T14:44:12.658Z</time></trkpt><trkpt lat="44.0768433" lon="10.46587"><ele>271.75</ele><time>2026-04-06T14:44:13.658Z</time></trkpt><trkpt lat="44.0768183" lon="10.46568"><ele>270.5</ele><time>2026-04-06T14:44:14.658Z</time></trkpt><trkpt lat="44.0767967" lon="10.4654833"><ele>269.25</ele><time>2026-04-06T14:44:15.658Z</time></trkpt><trkpt lat="44.0767717" lon="10.465285"><ele>268.0</ele><time>2026-04-06T14:44:16.658Z</time></trkpt><trkpt lat="44.0767467" lon="10.4650833"><ele>267.25</ele><time>2026-04-06T14:44:17.658Z</time></trkpt><trkpt lat="44.0767183" lon="10.4648833"><ele>266.5</ele><time>2026-04-06T14:44:18.658Z</time></trkpt><trkpt lat="44.0766917" lon="10.4646817"><ele>265.75</ele><time>2026-04-06T14:44:19.658Z</time></trkpt><trkpt lat="44.076655" lon="10.4644833"><ele>265.0</ele><time>2026-04-06T14:44:20.658Z</time></trkpt><trkpt lat="44.0766117" lon="10.4642867"><ele>265.25</ele><time>2026-04-06T14:44:21.658Z</time></trkpt><trkpt lat="44.07656" lon="10.4640967"><ele>265.5</ele><time>2026-04-06T14:44:22.658Z</time></trkpt><trkpt lat="44.0764967" lon="10.4639117"><ele>265.75</ele><time>2026-04-06T14:44:23.658Z</time></trkpt><trkpt lat="44.0764333" lon="10.4637317"><ele>266.0</ele><time>2026-04-06T14:44:24.658Z</time></trkpt><trkpt lat="44.0763717" lon="10.46355"><ele>265.25</ele><time>2026-04-06T14:44:25.658Z</time></trkpt><trkpt lat="44.07631" lon="10.4633633"><ele>264.5</ele><time>2026-04-06T14:44:26.659Z</time></trkpt><trkpt lat="44.0762467" lon="10.46318"><ele>263.75</ele><time>2026-04-06T14:44:27.658Z</time></trkpt><trkpt lat="44.0761867" lon="10.462995"><ele>263.0</ele><time>2026-04-06T14:44:28.658Z</time></trkpt><trkpt lat="44.07613" lon="10.4628067"><ele>262.75</ele><time>2026-04-06T14:44:29.658Z</time></trkpt><trkpt lat="44.076085" lon="10.46261"><ele>262.5</ele><time>2026-04-06T14:44:30.658Z</time></trkpt><trkpt lat="44.076055" lon="10.4624067"><ele>262.25</ele><time>2026-04-06T14:44:31.659Z</time></trkpt><trkpt lat="44.0760367" lon="10.4622033"><ele>262.0</ele><time>2026-04-06T14:44:32.659Z</time></trkpt><trkpt lat="44.0760217" lon="10.462"><ele>261.0</ele><time>2026-04-06T14:44:33.658Z</time></trkpt><trkpt lat="44.0760117" lon="10.461795"><ele>260.0</ele><time>2026-04-06T14:44:34.659Z</time></trkpt><trkpt lat="44.0759967" lon="10.4615867"><ele>259.0</ele><time>2026-04-06T14:44:35.658Z</time></trkpt><trkpt lat="44.07598" lon="10.4613783"><ele>258.0</ele><time>2026-04-06T14:44:36.659Z</time></trkpt><trkpt lat="44.0759633" lon="10.4611683"><ele>256.6666666666667</ele><time>2026-04-06T14:44:37.658Z</time></trkpt><trkpt lat="44.0759533" lon="10.46096"><ele>255.33333333333334</ele><time>2026-04-06T14:44:38.658Z</time></trkpt><trkpt lat="44.075945" lon="10.4607517"><ele>254.0</ele><time>2026-04-06T14:44:39.658Z</time></trkpt><trkpt lat="44.0759383" lon="10.4605383"><ele>252.33333333333334</ele><time>2026-04-06T14:44:40.658Z</time></trkpt><trkpt lat="44.0759383" lon="10.4603283"><ele>250.66666666666669</ele><time>2026-04-06T14:44:41.658Z</time></trkpt><trkpt lat="44.0759483" lon="10.460115"><ele>249.0</ele><time>2026-04-06T14:44:42.658Z</time></trkpt><trkpt lat="44.0759683" lon="10.4599017"><ele>249.0</ele><time>2026-04-06T14:44:43.658Z</time></trkpt><trkpt lat="44.075995" lon="10.4596883"><ele>249.0</ele><time>2026-04-06T14:44:44.659Z</time></trkpt><trkpt lat="44.0760267" lon="10.4594783"><ele>249.0</ele><time>2026-04-06T14:44:45.659Z</time></trkpt><trkpt lat="44.0760667" lon="10.45927"><ele>248.0</ele><time>2026-04-06T14:44:46.659Z</time></trkpt><trkpt lat="44.0761183" lon="10.45907"><ele>247.0</ele><time>2026-04-06T14:44:47.658Z</time></trkpt><trkpt lat="44.0761783" lon="10.4588767"><ele>246.0</ele><time>2026-04-06T14:44:48.658Z</time></trkpt><trkpt lat="44.07624" lon="10.458685"><ele>245.25</ele><time>2026-04-06T14:44:49.658Z</time></trkpt><trkpt lat="44.076305" lon="10.4584933"><ele>244.5</ele><time>2026-04-06T14:44:50.659Z</time></trkpt><trkpt lat="44.0763717" lon="10.4583067"><ele>243.75</ele><time>2026-04-06T14:44:51.658Z</time></trkpt><trkpt lat="44.0764383" lon="10.4581267"><ele>243.0</ele><time>2026-04-06T14:44:52.658Z</time></trkpt><trkpt lat="44.0765" lon="10.4579467"><ele>242.75</ele><time>2026-04-06T14:44:53.659Z</time></trkpt><trkpt lat="44.0765583" lon="10.45777"><ele>242.5</ele><time>2026-04-06T14:44:54.658Z</time></trkpt><trkpt lat="44.07662" lon="10.4575967"><ele>242.25</ele><time>2026-04-06T14:44:55.658Z</time></trkpt><trkpt lat="44.0766867" lon="10.4574333"><ele>242.0</ele><time>2026-04-06T14:44:56.658Z</time></trkpt><trkpt lat="44.0767567" lon="10.4572767"><ele>242.0</ele><time>2026-04-06T14:44:57.658Z</time></trkpt><trkpt lat="44.0768417" lon="10.45713"><ele>242.0</ele><time>2026-04-06T14:44:58.658Z</time></trkpt><trkpt lat="44.0769317" lon="10.4569867"><ele>242.0</ele><time>2026-04-06T14:44:59.658Z</time></trkpt><trkpt lat="44.0770233" lon="10.456845"><ele>242.0</ele><time>2026-04-06T14:45:00.659Z</time></trkpt><trkpt lat="44.0771117" lon="10.4566983"><ele>241.0</ele><time>2026-04-06T14:45:01.658Z</time></trkpt><trkpt lat="44.0772017" lon="10.45655"><ele>240.0</ele><time>2026-04-06T14:45:02.658Z</time></trkpt><trkpt lat="44.0772883" lon="10.4563983"><ele>239.0</ele><time>2026-04-06T14:45:03.658Z</time></trkpt><trkpt lat="44.0773717" lon="10.4562433"><ele>238.0</ele><time>2026-04-06T14:45:04.659Z</time></trkpt><trkpt lat="44.0774467" lon="10.456085"><ele>237.25</ele><time>2026-04-06T14:45:05.658Z</time></trkpt><trkpt lat="44.077515" lon="10.455925"><ele>236.5</ele><time>2026-04-06T14:45:06.658Z</time></trkpt><trkpt lat="44.077575" lon="10.4557667"><ele>235.75</ele><time>2026-04-06T14:45:07.658Z</time></trkpt><trkpt lat="44.0776283" lon="10.4556033"><ele>235.0</ele><time>2026-04-06T14:45:08.658Z</time></trkpt><trkpt lat="44.0776783" lon="10.4554367"><ele>234.5</ele><time>2026-04-06T14:45:09.658Z</time></trkpt><trkpt lat="44.077725" lon="10.4552683"><ele>234.0</ele><time>2026-04-06T14:45:10.658Z</time></trkpt><trkpt lat="44.0777733" lon="10.455095"><ele>233.5</ele><time>2026-04-06T14:45:11.659Z</time></trkpt><trkpt lat="44.077825" lon="10.4549267"><ele>233.0</ele><time>2026-04-06T14:45:12.659Z</time></trkpt><trkpt lat="44.0778767" lon="10.4547567"><ele>232.0</ele><time>2026-04-06T14:45:13.658Z</time></trkpt><trkpt lat="44.077925" lon="10.4545867"><ele>231.0</ele><time>2026-04-06T14:45:14.658Z</time></trkpt><trkpt lat="44.0779733" lon="10.4544117"><ele>230.0</ele><time>2026-04-06T14:45:15.658Z</time></trkpt><trkpt lat="44.0780217" lon="10.4542367"><ele>229.0</ele><time>2026-04-06T14:45:16.658Z</time></trkpt><trkpt lat="44.07807" lon="10.454055"><ele>229.0</ele><time>2026-04-06T14:45:17.658Z</time></trkpt><trkpt lat="44.07812" lon="10.4538733"><ele>229.0</ele><time>2026-04-06T14:45:18.658Z</time></trkpt><trkpt lat="44.0781683" lon="10.4536867"><ele>229.0</ele><time>2026-04-06T14:45:19.658Z</time></trkpt><trkpt lat="44.07821" lon="10.4535"><ele>229.0</ele><time>2026-04-06T14:45:20.658Z</time></trkpt><trkpt lat="44.07824" lon="10.4533083"><ele>228.0</ele><time>2026-04-06T14:45:21.658Z</time></trkpt><trkpt lat="44.0782583" lon="10.4531133"><ele>227.0</ele><time>2026-04-06T14:45:22.658Z</time></trkpt><trkpt lat="44.0782667" lon="10.4529167"><ele>226.0</ele><time>2026-04-06T14:45:23.659Z</time></trkpt><trkpt lat="44.0782617" lon="10.4527167"><ele>225.0</ele><time>2026-04-06T14:45:24.658Z</time></trkpt><trkpt lat="44.0782417" lon="10.4525217"><ele>224.5</ele><time>2026-04-06T14:45:25.658Z</time></trkpt><trkpt lat="44.078215" lon="10.4523267"><ele>224.0</ele><time>2026-04-06T14:45:26.658Z</time></trkpt><trkpt lat="44.0781917" lon="10.4521333"><ele>223.5</ele><time>2026-04-06T14:45:27.658Z</time></trkpt><trkpt lat="44.07817" lon="10.451945"><ele>223.0</ele><time>2026-04-06T14:45:28.658Z</time></trkpt><trkpt lat="44.0781467" lon="10.451755"><ele>222.25</ele><time>2026-04-06T14:45:29.658Z</time></trkpt><trkpt lat="44.0781217" lon="10.4515683"><ele>221.5</ele><time>2026-04-06T14:45:30.658Z</time></trkpt><trkpt lat="44.0780933" lon="10.4513883"><ele>220.75</ele><time>2026-04-06T14:45:31.658Z</time></trkpt><trkpt lat="44.0780683" lon="10.4512183"><ele>220.0</ele><time>2026-04-06T14:45:32.658Z</time></trkpt><trkpt lat="44.078055" lon="10.4510633"><ele>218.8</ele><time>2026-04-06T14:45:33.658Z</time></trkpt><trkpt lat="44.0780533" lon="10.4509283"><ele>217.6</ele><time>2026-04-06T14:45:34.658Z</time></trkpt><trkpt lat="44.0780533" lon="10.4508283"><ele>216.39999999999998</ele><time>2026-04-06T14:45:35.658Z</time></trkpt><trkpt lat="44.078105" lon="10.4506967"><ele>215.2</ele><time>2026-04-06T14:45:37.658Z</time></trkpt><trkpt lat="44.0782183" lon="10.45064"><ele>214.0</ele><time>2026-04-06T14:45:39.658Z</time></trkpt><trkpt lat="44.0783033" lon="10.4506283"><ele>212.39999999999998</ele><time>2026-04-06T14:45:40.658Z</time></trkpt><trkpt lat="44.0784017" lon="10.4506083"><ele>210.79999999999998</ele><time>2026-04-06T14:45:41.658Z</time></trkpt><trkpt lat="44.0785083" lon="10.4505733"><ele>209.2</ele><time>2026-04-06T14:45:42.659Z</time></trkpt><trkpt lat="44.07862" lon="10.4505333"><ele>207.60000000000002</ele><time>2026-04-06T14:45:43.659Z</time></trkpt><trkpt lat="44.0787333" lon="10.45049"><ele>206.0</ele><time>2026-04-06T14:45:44.658Z</time></trkpt><trkpt lat="44.0788517" lon="10.450445"><ele>204.75</ele><time>2026-04-06T14:45:45.659Z</time></trkpt><trkpt lat="44.0789733" lon="10.4503983"><ele>203.5</ele><time>2026-04-06T14:45:46.658Z</time></trkpt><trkpt lat="44.079095" lon="10.45035"><ele>202.25</ele><time>2026-04-06T14:45:47.659Z</time></trkpt><trkpt lat="44.0792183" lon="10.4503033"><ele>201.0</ele><time>2026-04-06T14:45:48.658Z</time></trkpt><trkpt lat="44.079345" lon="10.4502567"><ele>199.5</ele><time>2026-04-06T14:45:49.658Z</time></trkpt><trkpt lat="44.0794783" lon="10.4502083"><ele>198.0</ele><time>2026-04-06T14:45:50.658Z</time></trkpt><trkpt lat="44.0796117" lon="10.450155"><ele>196.5</ele><time>2026-04-06T14:45:51.659Z</time></trkpt><trkpt lat="44.07975" lon="10.450095"><ele>195.0</ele><time>2026-04-06T14:45:52.658Z</time></trkpt><trkpt lat="44.0798833" lon="10.450025"><ele>197.25</ele><time>2026-04-06T14:45:53.659Z</time></trkpt><trkpt lat="44.0800017" lon="10.4499333"><ele>199.5</ele><time>2026-04-06T14:45:54.659Z</time></trkpt><trkpt lat="44.0801133" lon="10.4498267"><ele>201.75</ele><time>2026-04-06T14:45:55.658Z</time></trkpt><trkpt lat="44.0802217" lon="10.4497283"><ele>204.0</ele><time>2026-04-06T14:45:56.658Z</time></trkpt><trkpt lat="44.08033" lon="10.4496683"><ele>204.0</ele><time>2026-04-06T14:45:57.659Z</time></trkpt><trkpt lat="44.080435" lon="10.4496633"><ele>204.0</ele><time>2026-04-06T14:45:58.658Z</time></trkpt><trkpt lat="44.0805317" lon="10.4497083"><ele>204.0</ele><time>2026-04-06T14:45:59.658Z</time></trkpt><trkpt lat="44.0806317" lon="10.4498033"><ele>204.0</ele><time>2026-04-06T14:46:00.658Z</time></trkpt><trkpt lat="44.0807217" lon="10.4499133"><ele>204.0</ele><time>2026-04-06T14:46:01.658Z</time></trkpt><trkpt lat="44.0808083" lon="10.4500467"><ele>205.0</ele><time>2026-04-06T14:46:02.658Z</time></trkpt><trkpt lat="44.0808933" lon="10.4501817"><ele>206.0</ele><time>2026-04-06T14:46:03.658Z</time></trkpt><trkpt lat="44.08099" lon="10.4503067"><ele>207.0</ele><time>2026-04-06T14:46:04.658Z</time></trkpt><trkpt lat="44.0810867" lon="10.45042"><ele>208.0</ele><time>2026-04-06T14:46:05.658Z</time></trkpt><trkpt lat="44.0811983" lon="10.4505117"><ele>210.25</ele><time>2026-04-06T14:46:06.658Z</time></trkpt><trkpt lat="44.0813133" lon="10.4505967"><ele>212.5</ele><time>2026-04-06T14:46:07.659Z</time></trkpt><trkpt lat="44.0814317" lon="10.4506767"><ele>214.75</ele><time>2026-04-06T14:46:08.658Z</time></trkpt><trkpt lat="44.0815583" lon="10.450745"><ele>217.0</ele><time>2026-04-06T14:46:09.658Z</time></trkpt><trkpt lat="44.0816883" lon="10.4508017"><ele>217.0</ele><time>2026-04-06T14:46:10.658Z</time></trkpt><trkpt lat="44.0818233" lon="10.450845"><ele>217.0</ele><time>2026-04-06T14:46:11.658Z</time></trkpt><trkpt lat="44.08196" lon="10.4508733"><ele>217.0</ele><time>2026-04-06T14:46:12.658Z</time></trkpt><trkpt lat="44.0820933" lon="10.4508783"><ele>217.0</ele><time>2026-04-06T14:46:13.659Z</time></trkpt><trkpt lat="44.082225" lon="10.4508817"><ele>217.0</ele><time>2026-04-06T14:46:14.658Z</time></trkpt><trkpt lat="44.0823417" lon="10.4508983"><ele>217.0</ele><time>2026-04-06T14:46:15.658Z</time></trkpt><trkpt lat="44.0824417" lon="10.4509467"><ele>217.0</ele><time>2026-04-06T14:46:16.658Z</time></trkpt><trkpt lat="44.0825333" lon="10.451065"><ele>217.0</ele><time>2026-04-06T14:46:17.658Z</time></trkpt><trkpt lat="44.0826017" lon="10.4511933"><ele>217.0</ele><time>2026-04-06T14:46:18.659Z</time></trkpt><trkpt lat="44.08265" lon="10.45135"><ele>217.0</ele><time>2026-04-06T14:46:19.659Z</time></trkpt><trkpt lat="44.0826967" lon="10.451505"><ele>217.0</ele><time>2026-04-06T14:46:20.658Z</time></trkpt><trkpt lat="44.0827233" lon="10.4516633"><ele>217.0</ele><time>2026-04-06T14:46:21.658Z</time></trkpt><trkpt lat="44.0827233" lon="10.45185"><ele>217.0</ele><time>2026-04-06T14:46:22.658Z</time></trkpt><trkpt lat="44.0827133" lon="10.45204"><ele>217.0</ele><time>2026-04-06T14:46:23.658Z</time></trkpt><trkpt lat="44.082705" lon="10.4522267"><ele>217.0</ele><time>2026-04-06T14:46:24.658Z</time></trkpt><trkpt lat="44.082705" lon="10.452405"><ele>217.0</ele><time>2026-04-06T14:46:25.658Z</time></trkpt><trkpt lat="44.08271" lon="10.4525767"><ele>218.25</ele><time>2026-04-06T14:46:26.658Z</time></trkpt><trkpt lat="44.082725" lon="10.45274"><ele>219.5</ele><time>2026-04-06T14:46:27.658Z</time></trkpt><trkpt lat="44.082775" lon="10.4528783"><ele>220.75</ele><time>2026-04-06T14:46:28.659Z</time></trkpt><trkpt lat="44.082865" lon="10.4529717"><ele>222.0</ele><time>2026-04-06T14:46:29.658Z</time></trkpt><trkpt lat="44.0829817" lon="10.4530267"><ele>222.5</ele><time>2026-04-06T14:46:30.658Z</time></trkpt><trkpt lat="44.0831033" lon="10.4530383"><ele>223.0</ele><time>2026-04-06T14:46:31.658Z</time></trkpt><trkpt lat="44.0832317" lon="10.4530283"><ele>223.5</ele><time>2026-04-06T14:46:32.658Z</time></trkpt><trkpt lat="44.0833633" lon="10.4530083"><ele>224.0</ele><time>2026-04-06T14:46:33.658Z</time></trkpt><trkpt lat="44.083495" lon="10.4529867"><ele>224.0</ele><time>2026-04-06T14:46:34.658Z</time></trkpt><trkpt lat="44.08363" lon="10.4529683"><ele>224.0</ele><time>2026-04-06T14:46:35.658Z</time></trkpt><trkpt lat="44.0837667" lon="10.452955"><ele>224.0</ele><time>2026-04-06T14:46:36.658Z</time></trkpt><trkpt lat="44.0839017" lon="10.4529517"><ele>224.0</ele><time>2026-04-06T14:46:37.658Z</time></trkpt><trkpt lat="44.0840383" lon="10.4529633"><ele>224.0</ele><time>2026-04-06T14:46:38.658Z</time></trkpt><trkpt lat="44.0841733" lon="10.452985"><ele>224.0</ele><time>2026-04-06T14:46:39.658Z</time></trkpt><trkpt lat="44.0843233" lon="10.4530283"><ele>224.0</ele><time>2026-04-06T14:46:40.658Z</time></trkpt><trkpt lat="44.0844783" lon="10.453065"><ele>224.0</ele><time>2026-04-06T14:46:41.658Z</time></trkpt><trkpt lat="44.0846267" lon="10.4530667"><ele>224.0</ele><time>2026-04-06T14:46:42.658Z</time></trkpt><trkpt lat="44.0847767" lon="10.4530567"><ele>224.0</ele><time>2026-04-06T14:46:43.658Z</time></trkpt><trkpt lat="44.08492" lon="10.4530483"><ele>224.0</ele><time>2026-04-06T14:46:44.659Z</time></trkpt><trkpt lat="44.08506" lon="10.4530783"><ele>224.0</ele><time>2026-04-06T14:46:45.658Z</time></trkpt><trkpt lat="44.0851867" lon="10.4531433"><ele>223.0</ele><time>2026-04-06T14:46:46.659Z</time></trkpt><trkpt lat="44.0853067" lon="10.45324"><ele>222.0</ele><time>2026-04-06T14:46:47.658Z</time></trkpt><trkpt lat="44.0854283" lon="10.4533517"><ele>221.0</ele><time>2026-04-06T14:46:48.658Z</time></trkpt><trkpt lat="44.085555" lon="10.4534583"><ele>220.0</ele><time>2026-04-06T14:46:49.658Z</time></trkpt><trkpt lat="44.0856917" lon="10.4535567"><ele>217.0</ele><time>2026-04-06T14:46:50.658Z</time></trkpt><trkpt lat="44.08584" lon="10.4536233"><ele>214.0</ele><time>2026-04-06T14:46:51.658Z</time></trkpt><trkpt lat="44.0859983" lon="10.4536733"><ele>211.0</ele><time>2026-04-06T14:46:52.658Z</time></trkpt><trkpt lat="44.086145" lon="10.4536817"><ele>211.0</ele><time>2026-04-06T14:46:53.658Z</time></trkpt><trkpt lat="44.0862867" lon="10.4536667"><ele>211.0</ele><time>2026-04-06T14:46:54.658Z</time></trkpt><trkpt lat="44.0864267" lon="10.4536483"><ele>211.0</ele><time>2026-04-06T14:46:55.658Z</time></trkpt><trkpt lat="44.0865417" lon="10.4536633"><ele>211.0</ele><time>2026-04-06T14:46:56.659Z</time></trkpt><trkpt lat="44.0866467" lon="10.4537217"><ele>212.60000000000002</ele><time>2026-04-06T14:46:57.658Z</time></trkpt><trkpt lat="44.0867233" lon="10.453825"><ele>214.2</ele><time>2026-04-06T14:46:58.658Z</time></trkpt><trkpt lat="44.0867883" lon="10.4539467"><ele>215.79999999999998</ele><time>2026-04-06T14:46:59.658Z</time></trkpt><trkpt lat="44.086865" lon="10.4540483"><ele>217.39999999999998</ele><time>2026-04-06T14:47:00.658Z</time></trkpt><trkpt lat="44.0869617" lon="10.45411"><ele>219.0</ele><time>2026-04-06T14:47:01.658Z</time></trkpt><trkpt lat="44.0870667" lon="10.4541133"><ele>219.0</ele><time>2026-04-06T14:47:02.658Z</time></trkpt><trkpt lat="44.087165" lon="10.4540633"><ele>219.0</ele><time>2026-04-06T14:47:03.658Z</time></trkpt><trkpt lat="44.0872633" lon="10.45398"><ele>219.0</ele><time>2026-04-06T14:47:04.658Z</time></trkpt><trkpt lat="44.0873617" lon="10.4538767"><ele>219.0</ele><time>2026-04-06T14:47:05.658Z</time></trkpt><trkpt lat="44.0874517" lon="10.4537533"><ele>217.0</ele><time>2026-04-06T14:47:06.659Z</time></trkpt><trkpt lat="44.0875333" lon="10.4536217"><ele>215.0</ele><time>2026-04-06T14:47:07.658Z</time></trkpt><trkpt lat="44.0876133" lon="10.4534933"><ele>213.0</ele><time>2026-04-06T14:47:08.658Z</time></trkpt><trkpt lat="44.0877067" lon="10.4533983"><ele>211.0</ele><time>2026-04-06T14:47:09.659Z</time></trkpt><trkpt lat="44.0878083" lon="10.4533333"><ele>211.0</ele><time>2026-04-06T14:47:10.658Z</time></trkpt><trkpt lat="44.0879217" lon="10.4533183"><ele>211.0</ele><time>2026-04-06T14:47:11.658Z</time></trkpt><trkpt lat="44.088045" lon="10.45335"><ele>211.0</ele><time>2026-04-06T14:47:12.659Z</time></trkpt><trkpt lat="44.0881717" lon="10.4534017"><ele>211.0</ele><time>2026-04-06T14:47:13.658Z</time></trkpt><trkpt lat="44.0883" lon="10.4534683"><ele>210.0</ele><time>2026-04-06T14:47:14.658Z</time></trkpt><trkpt lat="44.0884283" lon="10.4535333"><ele>209.0</ele><time>2026-04-06T14:47:15.658Z</time></trkpt><trkpt lat="44.0885583" lon="10.4535933"><ele>208.0</ele><time>2026-04-06T14:47:16.659Z</time></trkpt><trkpt lat="44.0886867" lon="10.453655"><ele>207.0</ele><time>2026-04-06T14:47:17.658Z</time></trkpt><trkpt lat="44.088815" lon="10.4537133"><ele>207.0</ele><time>2026-04-06T14:47:18.658Z</time></trkpt><trkpt lat="44.0889417" lon="10.4537783"><ele>207.0</ele><time>2026-04-06T14:47:19.658Z</time></trkpt><trkpt lat="44.08907" lon="10.453845"><ele>207.0</ele><time>2026-04-06T14:47:20.658Z</time></trkpt><trkpt lat="44.0891967" lon="10.4539183"><ele>207.0</ele><time>2026-04-06T14:47:21.658Z</time></trkpt><trkpt lat="44.0893217" lon="10.4539533"><ele>208.25</ele><time>2026-04-06T14:47:22.658Z</time></trkpt><trkpt lat="44.0894433" lon="10.453935"><ele>209.5</ele><time>2026-04-06T14:47:23.658Z</time></trkpt><trkpt lat="44.08955" lon="10.4538683"><ele>210.75</ele><time>2026-04-06T14:47:24.658Z</time></trkpt><trkpt lat="44.0896433" lon="10.453755"><ele>212.0</ele><time>2026-04-06T14:47:25.658Z</time></trkpt><trkpt lat="44.0897167" lon="10.4536067"><ele>208.75</ele><time>2026-04-06T14:47:26.658Z</time></trkpt><trkpt lat="44.0897867" lon="10.4534367"><ele>205.5</ele><time>2026-04-06T14:47:27.658Z</time></trkpt><trkpt lat="44.0898517" lon="10.4532583"><ele>202.25</ele><time>2026-04-06T14:47:28.659Z</time></trkpt><trkpt lat="44.0899183" lon="10.453085"><ele>199.0</ele><time>2026-04-06T14:47:29.658Z</time></trkpt><trkpt lat="44.0899833" lon="10.452915"><ele>198.5</ele><time>2026-04-06T14:47:30.658Z</time></trkpt><trkpt lat="44.0900483" lon="10.4527467"><ele>198.0</ele><time>2026-04-06T14:47:31.658Z</time></trkpt><trkpt lat="44.0901083" lon="10.4525867"><ele>197.5</ele><time>2026-04-06T14:47:32.658Z</time></trkpt><trkpt lat="44.0901633" lon="10.4524317"><ele>197.0</ele><time>2026-04-06T14:47:33.658Z</time></trkpt><trkpt lat="44.0902167" lon="10.452285"><ele>197.00000000000003</ele><time>2026-04-06T14:47:34.658Z</time></trkpt><trkpt lat="44.0902667" lon="10.452145"><ele>197.0</ele><time>2026-04-06T14:47:35.659Z</time></trkpt><trkpt lat="44.0903167" lon="10.452025"><ele>197.0</ele><time>2026-04-06T14:47:36.658Z</time></trkpt><trkpt lat="44.0903617" lon="10.4519267"><ele>197.0</ele><time>2026-04-06T14:47:37.658Z</time></trkpt><trkpt lat="44.0903983" lon="10.4518483"><ele>197.00000000000003</ele><time>2026-04-06T14:47:38.658Z</time></trkpt><trkpt lat="44.090435" lon="10.4517567"><ele>197.0</ele><time>2026-04-06T14:47:40.658Z</time></trkpt><trkpt lat="44.0905" lon="10.4517833"><ele>198.39999999999998</ele><time>2026-04-06T14:47:42.658Z</time></trkpt><trkpt lat="44.0906033" lon="10.4518817"><ele>199.79999999999998</ele><time>2026-04-06T14:47:44.658Z</time></trkpt><trkpt lat="44.0906867" lon="10.4519367"><ele>201.2</ele><time>2026-04-06T14:47:45.658Z</time></trkpt><trkpt lat="44.0907767" lon="10.4519667"><ele>202.6</ele><time>2026-04-06T14:47:46.659Z</time></trkpt><trkpt lat="44.09088" lon="10.4520033"><ele>204.0</ele><time>2026-04-06T14:47:47.658Z</time></trkpt><trkpt lat="44.0910083" lon="10.4520483"><ele>204.25</ele><time>2026-04-06T14:47:48.658Z</time></trkpt><trkpt lat="44.09112" lon="10.4520817"><ele>204.5</ele><time>2026-04-06T14:47:49.658Z</time></trkpt><trkpt lat="44.0912367" lon="10.452125"><ele>204.75</ele><time>2026-04-06T14:47:50.659Z</time></trkpt><trkpt lat="44.091355" lon="10.452165"><ele>205.0</ele><time>2026-04-06T14:47:51.659Z</time></trkpt><trkpt lat="44.09148" lon="10.4522133"><ele>206.5</ele><time>2026-04-06T14:47:52.658Z</time></trkpt><trkpt lat="44.0916033" lon="10.4522683"><ele>208.0</ele><time>2026-04-06T14:47:53.658Z</time></trkpt><trkpt lat="44.0917333" lon="10.4523117"><ele>209.5</ele><time>2026-04-06T14:47:54.659Z</time></trkpt><trkpt lat="44.0918617" lon="10.4523633"><ele>211.0</ele><time>2026-04-06T14:47:55.658Z</time></trkpt><trkpt lat="44.0919883" lon="10.4524167"><ele>211.0</ele><time>2026-04-06T14:47:56.658Z</time></trkpt><trkpt lat="44.092115" lon="10.4525133"><ele>211.0</ele><time>2026-04-06T14:47:57.659Z</time></trkpt><trkpt lat="44.0922317" lon="10.4526233"><ele>211.0</ele><time>2026-04-06T14:47:58.658Z</time></trkpt><trkpt lat="44.0923433" lon="10.4527567"><ele>211.0</ele><time>2026-04-06T14:47:59.658Z</time></trkpt><trkpt lat="44.0924517" lon="10.4528867"><ele>211.0</ele><time>2026-04-06T14:48:00.658Z</time></trkpt><trkpt lat="44.0925567" lon="10.45302"><ele>211.0</ele><time>2026-04-06T14:48:01.658Z</time></trkpt><trkpt lat="44.09264" lon="10.4531717"><ele>211.0</ele><time>2026-04-06T14:48:02.658Z</time></trkpt><trkpt lat="44.0927" lon="10.4533333"><ele>211.0</ele><time>2026-04-06T14:48:03.658Z</time></trkpt><trkpt lat="44.0927317" lon="10.4535167"><ele>211.0</ele><time>2026-04-06T14:48:04.658Z</time></trkpt><trkpt lat="44.0927333" lon="10.4537183"><ele>211.0</ele><time>2026-04-06T14:48:05.658Z</time></trkpt><trkpt lat="44.0927183" lon="10.4539267"><ele>211.0</ele><time>2026-04-06T14:48:06.658Z</time></trkpt><trkpt lat="44.0926983" lon="10.4541367"><ele>211.0</ele><time>2026-04-06T14:48:07.658Z</time></trkpt><trkpt lat="44.09268" lon="10.454345"><ele>209.75</ele><time>2026-04-06T14:48:08.658Z</time></trkpt><trkpt lat="44.09267" lon="10.4545433"><ele>208.5</ele><time>2026-04-06T14:48:09.658Z</time></trkpt><trkpt lat="44.092675" lon="10.454745"><ele>207.25</ele><time>2026-04-06T14:48:10.658Z</time></trkpt><trkpt lat="44.0926983" lon="10.454945"><ele>206.0</ele><time>2026-04-06T14:48:11.658Z</time></trkpt><trkpt lat="44.0927467" lon="10.45514"><ele>205.66666666666669</ele><time>2026-04-06T14:48:12.658Z</time></trkpt><trkpt lat="44.0928133" lon="10.4553217"><ele>205.33333333333331</ele><time>2026-04-06T14:48:13.658Z</time></trkpt><trkpt lat="44.0928983" lon="10.4554967"><ele>205.0</ele><time>2026-04-06T14:48:14.659Z</time></trkpt><trkpt lat="44.093" lon="10.4556667"><ele>203.33333333333331</ele><time>2026-04-06T14:48:15.658Z</time></trkpt><trkpt lat="44.0931167" lon="10.4558233"><ele>201.66666666666669</ele><time>2026-04-06T14:48:16.658Z</time></trkpt><trkpt lat="44.09324" lon="10.4559667"><ele>200.0</ele><time>2026-04-06T14:48:17.658Z</time></trkpt><trkpt lat="44.0933683" lon="10.4561033"><ele>202.33333333333334</ele><time>2026-04-06T14:48:18.658Z</time></trkpt><trkpt lat="44.0934983" lon="10.4562317"><ele>204.66666666666669</ele><time>2026-04-06T14:48:19.658Z</time></trkpt><trkpt lat="44.0936283" lon="10.4563567"><ele>207.0</ele><time>2026-04-06T14:48:20.658Z</time></trkpt><trkpt lat="44.0937633" lon="10.4564733"><ele>207.0</ele><time>2026-04-06T14:48:21.658Z</time></trkpt><trkpt lat="44.0939067" lon="10.45658"><ele>207.0</ele><time>2026-04-06T14:48:22.658Z</time></trkpt><trkpt lat="44.0940583" lon="10.4566633"><ele>207.0</ele><time>2026-04-06T14:48:23.658Z</time></trkpt><trkpt lat="44.09422" lon="10.456725"><ele>209.0</ele><time>2026-04-06T14:48:24.659Z</time></trkpt><trkpt lat="44.0943883" lon="10.456765"><ele>211.0</ele><time>2026-04-06T14:48:25.658Z</time></trkpt><trkpt lat="44.09456" lon="10.4567833"><ele>213.0</ele><time>2026-04-06T14:48:26.658Z</time></trkpt><trkpt lat="44.0947317" lon="10.4568033"><ele>213.0</ele><time>2026-04-06T14:48:27.658Z</time></trkpt><trkpt lat="44.0949033" lon="10.456815"><ele>213.0</ele><time>2026-04-06T14:48:28.658Z</time></trkpt><trkpt lat="44.0950767" lon="10.4568167"><ele>213.0</ele><time>2026-04-06T14:48:29.658Z</time></trkpt><trkpt lat="44.0952517" lon="10.4568033"><ele>214.66666666666669</ele><time>2026-04-06T14:48:30.658Z</time></trkpt><trkpt lat="44.09543" lon="10.4567817"><ele>216.33333333333334</ele><time>2026-04-06T14:48:31.658Z</time></trkpt><trkpt lat="44.0956083" lon="10.4567533"><ele>218.0</ele><time>2026-04-06T14:48:32.658Z</time></trkpt><trkpt lat="44.0957867" lon="10.4567233"><ele>218.0</ele><time>2026-04-06T14:48:33.659Z</time></trkpt><trkpt lat="44.0959667" lon="10.456695"><ele>218.0</ele><time>2026-04-06T14:48:34.658Z</time></trkpt><trkpt lat="44.096145" lon="10.4566567"><ele>218.0</ele><time>2026-04-06T14:48:35.658Z</time></trkpt><trkpt lat="44.096325" lon="10.456605"><ele>218.0</ele><time>2026-04-06T14:48:36.658Z</time></trkpt><trkpt lat="44.0965033" lon="10.4565483"><ele>218.0</ele><time>2026-04-06T14:48:37.658Z</time></trkpt><trkpt lat="44.09668" lon="10.4564983"><ele>218.0</ele><time>2026-04-06T14:48:38.658Z</time></trkpt><trkpt lat="44.0968567" lon="10.456455"><ele>217.66666666666669</ele><time>2026-04-06T14:48:39.658Z</time></trkpt><trkpt lat="44.0970333" lon="10.4564267"><ele>217.33333333333331</ele><time>2026-04-06T14:48:40.658Z</time></trkpt><trkpt lat="44.0972117" lon="10.4564067"><ele>217.0</ele><time>2026-04-06T14:48:41.658Z</time></trkpt><trkpt lat="44.09739" lon="10.4563883"><ele>215.33333333333331</ele><time>2026-04-06T14:48:42.658Z</time></trkpt><trkpt lat="44.097565" lon="10.4563667"><ele>213.66666666666669</ele><time>2026-04-06T14:48:43.658Z</time></trkpt><trkpt lat="44.0977433" lon="10.4563467"><ele>212.0</ele><time>2026-04-06T14:48:44.658Z</time></trkpt><trkpt lat="44.09792" lon="10.4563267"><ele>212.0</ele><time>2026-04-06T14:48:45.658Z</time></trkpt><trkpt lat="44.098095" lon="10.456305"><ele>212.0</ele><time>2026-04-06T14:48:46.658Z</time></trkpt><trkpt lat="44.0982683" lon="10.4562783"><ele>212.0</ele><time>2026-04-06T14:48:47.658Z</time></trkpt><trkpt lat="44.0984417" lon="10.4562417"><ele>223.66666666666669</ele><time>2026-04-06T14:48:48.659Z</time></trkpt><trkpt lat="44.0986083" lon="10.4561983"><ele>235.33333333333331</ele><time>2026-04-06T14:48:49.658Z</time></trkpt><trkpt lat="44.0987783" lon="10.4561467"><ele>247.0</ele><time>2026-04-06T14:48:50.658Z</time></trkpt><trkpt lat="44.0989483" lon="10.45609"><ele>244.0</ele><time>2026-04-06T14:48:51.658Z</time></trkpt><trkpt lat="44.0991183" lon="10.456025"><ele>241.0</ele><time>2026-04-06T14:48:52.658Z</time></trkpt><trkpt lat="44.099285" lon="10.4559583"><ele>238.0</ele><time>2026-04-06T14:48:53.658Z</time></trkpt><trkpt lat="44.0994483" lon="10.4558933"><ele>238.0</ele><time>2026-04-06T14:48:54.658Z</time></trkpt><trkpt lat="44.09961" lon="10.4558267"><ele>238.0</ele><time>2026-04-06T14:48:55.658Z</time></trkpt><trkpt lat="44.0997733" lon="10.45576"><ele>238.0</ele><time>2026-04-06T14:48:56.658Z</time></trkpt><trkpt lat="44.099935" lon="10.455685"><ele>236.66666666666666</ele><time>2026-04-06T14:48:57.658Z</time></trkpt><trkpt lat="44.1000933" lon="10.455595"><ele>235.33333333333331</ele><time>2026-04-06T14:48:58.659Z</time></trkpt><trkpt lat="44.1002433" lon="10.455495"><ele>234.0</ele><time>2026-04-06T14:48:59.658Z</time></trkpt><trkpt lat="44.10039" lon="10.4553883"><ele>234.0</ele><time>2026-04-06T14:49:00.658Z</time></trkpt><trkpt lat="44.10053" lon="10.4552717"><ele>234.0</ele><time>2026-04-06T14:49:01.658Z</time></trkpt><trkpt lat="44.1006683" lon="10.4551467"><ele>234.0</ele><time>2026-04-06T14:49:02.658Z</time></trkpt><trkpt lat="44.100805" lon="10.455005"><ele>234.0</ele><time>2026-04-06T14:49:03.658Z</time></trkpt><trkpt lat="44.1009333" lon="10.454855"><ele>234.0</ele><time>2026-04-06T14:49:04.658Z</time></trkpt><trkpt lat="44.1010617" lon="10.4546983"><ele>234.0</ele><time>2026-04-06T14:49:05.659Z</time></trkpt><trkpt lat="44.1011833" lon="10.4545283"><ele>246.0</ele><time>2026-04-06T14:49:06.658Z</time></trkpt><trkpt lat="44.1012983" lon="10.454365"><ele>258.0</ele><time>2026-04-06T14:49:07.659Z</time></trkpt><trkpt lat="44.1014183" lon="10.4542083"><ele>270.0</ele><time>2026-04-06T14:49:08.658Z</time></trkpt><trkpt lat="44.1015317" lon="10.4540533"><ele>264.6666666666667</ele><time>2026-04-06T14:49:09.658Z</time></trkpt><trkpt lat="44.10165" lon="10.4538967"><ele>259.33333333333337</ele><time>2026-04-06T14:49:10.658Z</time></trkpt><trkpt lat="44.1017633" lon="10.4537433"><ele>254.0</ele><time>2026-04-06T14:49:11.658Z</time></trkpt><trkpt lat="44.101875" lon="10.45359"><ele>254.0</ele><time>2026-04-06T14:49:12.658Z</time></trkpt><trkpt lat="44.1019883" lon="10.45344"><ele>254.0</ele><time>2026-04-06T14:49:13.658Z</time></trkpt><trkpt lat="44.1021" lon="10.45329"><ele>254.0</ele><time>2026-04-06T14:49:14.659Z</time></trkpt><trkpt lat="44.102215" lon="10.45314"><ele>254.0</ele><time>2026-04-06T14:49:15.658Z</time></trkpt><trkpt lat="44.1023283" lon="10.45299"><ele>254.0</ele><time>2026-04-06T14:49:16.658Z</time></trkpt><trkpt lat="44.10244" lon="10.4528417"><ele>254.0</ele><time>2026-04-06T14:49:17.658Z</time></trkpt><trkpt lat="44.1025467" lon="10.4526867"><ele>249.33333333333334</ele><time>2026-04-06T14:49:18.658Z</time></trkpt><trkpt lat="44.1026467" lon="10.4525283"><ele>244.66666666666669</ele><time>2026-04-06T14:49:19.658Z</time></trkpt><trkpt lat="44.10274" lon="10.4523633"><ele>240.0</ele><time>2026-04-06T14:49:20.658Z</time></trkpt><trkpt lat="44.1028267" lon="10.4521833"><ele>248.66666666666669</ele><time>2026-04-06T14:49:21.658Z</time></trkpt><trkpt lat="44.1029033" lon="10.4519933"><ele>257.33333333333337</ele><time>2026-04-06T14:49:22.658Z</time></trkpt><trkpt lat="44.1029817" lon="10.451795"><ele>266.0</ele><time>2026-04-06T14:49:23.658Z</time></trkpt><trkpt lat="44.1030617" lon="10.4515967"><ele>266.0</ele><time>2026-04-06T14:49:24.658Z</time></trkpt><trkpt lat="44.1031433" lon="10.4513967"><ele>266.0</ele><time>2026-04-06T14:49:25.658Z</time></trkpt><trkpt lat="44.10322" lon="10.4511983"><ele>266.0</ele><time>2026-04-06T14:49:26.659Z</time></trkpt><trkpt lat="44.1032967" lon="10.4509983"><ele>265.0</ele><time>2026-04-06T14:49:27.658Z</time></trkpt><trkpt lat="44.1033767" lon="10.4508017"><ele>264.0</ele><time>2026-04-06T14:49:28.658Z</time></trkpt><trkpt lat="44.10346" lon="10.45061"><ele>263.0</ele><time>2026-04-06T14:49:29.658Z</time></trkpt><trkpt lat="44.1035483" lon="10.4504283"><ele>263.0</ele><time>2026-04-06T14:49:30.658Z</time></trkpt><trkpt lat="44.10364" lon="10.45026"><ele>263.0</ele><time>2026-04-06T14:49:31.658Z</time></trkpt><trkpt lat="44.1037367" lon="10.4500983"><ele>263.0</ele><time>2026-04-06T14:49:32.658Z</time></trkpt><trkpt lat="44.1038417" lon="10.4499483"><ele>263.0</ele><time>2026-04-06T14:49:33.659Z</time></trkpt><trkpt lat="44.10395" lon="10.44983"><ele>263.0</ele><time>2026-04-06T14:49:34.659Z</time></trkpt><trkpt lat="44.1040767" lon="10.44971"><ele>263.0</ele><time>2026-04-06T14:49:35.659Z</time></trkpt><trkpt lat="44.1041967" lon="10.4495767"><ele>263.0</ele><time>2026-04-06T14:49:36.658Z</time></trkpt><trkpt lat="44.1043267" lon="10.4494283"><ele>259.6666666666667</ele><time>2026-04-06T14:49:37.658Z</time></trkpt><trkpt lat="44.1044533" lon="10.4493117"><ele>256.3333333333333</ele><time>2026-04-06T14:49:38.658Z</time></trkpt><trkpt lat="44.1046133" lon="10.4491817"><ele>253.0</ele><time>2026-04-06T14:49:39.659Z</time></trkpt><trkpt lat="44.104745" lon="10.4491"><ele>253.0</ele><time>2026-04-06T14:49:40.658Z</time></trkpt><trkpt lat="44.1048783" lon="10.4490267"><ele>253.0</ele><time>2026-04-06T14:49:41.658Z</time></trkpt><trkpt lat="44.1050133" lon="10.4489783"><ele>253.0</ele><time>2026-04-06T14:49:42.658Z</time></trkpt><trkpt lat="44.105155" lon="10.4489167"><ele>253.0</ele><time>2026-04-06T14:49:43.658Z</time></trkpt><trkpt lat="44.1052983" lon="10.448875"><ele>254.0</ele><time>2026-04-06T14:49:44.659Z</time></trkpt><trkpt lat="44.1054433" lon="10.44884"><ele>255.0</ele><time>2026-04-06T14:49:45.658Z</time></trkpt><trkpt lat="44.1055817" lon="10.4488"><ele>256.0</ele><time>2026-04-06T14:49:46.658Z</time></trkpt><trkpt lat="44.1057167" lon="10.4487567"><ele>257.0</ele><time>2026-04-06T14:49:47.658Z</time></trkpt><trkpt lat="44.10585" lon="10.4487333"><ele>257.0</ele><time>2026-04-06T14:49:48.658Z</time></trkpt><trkpt lat="44.1059767" lon="10.4487017"><ele>257.0</ele><time>2026-04-06T14:49:49.658Z</time></trkpt><trkpt lat="44.1061067" lon="10.4486967"><ele>257.0</ele><time>2026-04-06T14:49:50.658Z</time></trkpt><trkpt lat="44.106235" lon="10.4487167"><ele>257.0</ele><time>2026-04-06T14:49:51.658Z</time></trkpt><trkpt lat="44.1063583" lon="10.4487433"><ele>257.0</ele><time>2026-04-06T14:49:52.658Z</time></trkpt><trkpt lat="44.10649" lon="10.4487867"><ele>257.0</ele><time>2026-04-06T14:49:53.658Z</time></trkpt><trkpt lat="44.10662" lon="10.4488317"><ele>257.0</ele><time>2026-04-06T14:49:54.658Z</time></trkpt><trkpt lat="44.1067483" lon="10.448875"><ele>257.0</ele><time>2026-04-06T14:49:55.658Z</time></trkpt><trkpt lat="44.1068767" lon="10.4489267"><ele>248.5</ele><time>2026-04-06T14:49:56.658Z</time></trkpt><trkpt lat="44.107005" lon="10.449"><ele>240.0</ele><time>2026-04-06T14:49:57.658Z</time></trkpt><trkpt lat="44.10713" lon="10.4490967"><ele>231.5</ele><time>2026-04-06T14:49:58.658Z</time></trkpt><trkpt lat="44.1072483" lon="10.44921"><ele>223.0</ele><time>2026-04-06T14:49:59.658Z</time></trkpt><trkpt lat="44.1073517" lon="10.449345"><ele>223.5</ele><time>2026-04-06T14:50:00.658Z</time></trkpt><trkpt lat="44.1074533" lon="10.44948"><ele>224.0</ele><time>2026-04-06T14:50:01.658Z</time></trkpt><trkpt lat="44.1075583" lon="10.4496067"><ele>224.5</ele><time>2026-04-06T14:50:02.658Z</time></trkpt><trkpt lat="44.10767" lon="10.44973"><ele>225.0</ele><time>2026-04-06T14:50:03.658Z</time></trkpt><trkpt lat="44.1077933" lon="10.44985"><ele>225.0</ele><time>2026-04-06T14:50:04.658Z</time></trkpt><trkpt lat="44.1079217" lon="10.449955"><ele>225.0</ele><time>2026-04-06T14:50:05.658Z</time></trkpt><trkpt lat="44.1080583" lon="10.4500467"><ele>225.0</ele><time>2026-04-06T14:50:06.658Z</time></trkpt><trkpt lat="44.1081983" lon="10.45013"><ele>229.0</ele><time>2026-04-06T14:50:07.658Z</time></trkpt><trkpt lat="44.1083417" lon="10.4502017"><ele>233.0</ele><time>2026-04-06T14:50:08.658Z</time></trkpt><trkpt lat="44.108485" lon="10.4502633"><ele>237.0</ele><time>2026-04-06T14:50:09.658Z</time></trkpt><trkpt lat="44.10863" lon="10.4503167"><ele>237.0</ele><time>2026-04-06T14:50:10.658Z</time></trkpt><trkpt lat="44.1087683" lon="10.45037"><ele>237.0</ele><time>2026-04-06T14:50:11.658Z</time></trkpt><trkpt lat="44.10891" lon="10.45041"><ele>237.0</ele><time>2026-04-06T14:50:12.658Z</time></trkpt><trkpt lat="44.1090483" lon="10.4504417"><ele>237.0</ele><time>2026-04-06T14:50:13.658Z</time></trkpt><trkpt lat="44.1091867" lon="10.4504717"><ele>232.66666666666669</ele><time>2026-04-06T14:50:14.658Z</time></trkpt><trkpt lat="44.10933" lon="10.450505"><ele>228.33333333333334</ele><time>2026-04-06T14:50:15.658Z</time></trkpt><trkpt lat="44.1094833" lon="10.45054"><ele>224.0</ele><time>2026-04-06T14:50:16.659Z</time></trkpt><trkpt lat="44.1096417" lon="10.450575"><ele>224.0</ele><time>2026-04-06T14:50:17.658Z</time></trkpt><trkpt lat="44.1098067" lon="10.45061"><ele>224.0</ele><time>2026-04-06T14:50:18.658Z</time></trkpt><trkpt lat="44.109975" lon="10.4506383"><ele>224.0</ele><time>2026-04-06T14:50:19.658Z</time></trkpt><trkpt lat="44.11014" lon="10.4506633"><ele>226.66666666666669</ele><time>2026-04-06T14:50:20.658Z</time></trkpt><trkpt lat="44.1103" lon="10.4506883"><ele>229.33333333333331</ele><time>2026-04-06T14:50:21.658Z</time></trkpt><trkpt lat="44.1104633" lon="10.450715"><ele>232.0</ele><time>2026-04-06T14:50:22.658Z</time></trkpt><trkpt lat="44.1106317" lon="10.45075"><ele>233.33333333333331</ele><time>2026-04-06T14:50:23.658Z</time></trkpt><trkpt lat="44.110805" lon="10.4507867"><ele>234.66666666666669</ele><time>2026-04-06T14:50:24.658Z</time></trkpt><trkpt lat="44.11098" lon="10.4508317"><ele>236.0</ele><time>2026-04-06T14:50:25.658Z</time></trkpt><trkpt lat="44.1111633" lon="10.4508783"><ele>236.0</ele><time>2026-04-06T14:50:26.658Z</time></trkpt><trkpt lat="44.111345" lon="10.45093"><ele>236.0</ele><time>2026-04-06T14:50:27.658Z</time></trkpt><trkpt lat="44.1115183" lon="10.45098"><ele>236.0</ele><time>2026-04-06T14:50:28.658Z</time></trkpt><trkpt lat="44.1116817" lon="10.45102"><ele>239.33333333333334</ele><time>2026-04-06T14:50:29.659Z</time></trkpt><trkpt lat="44.1118367" lon="10.45105"><ele>242.66666666666669</ele><time>2026-04-06T14:50:30.658Z</time></trkpt><trkpt lat="44.11199" lon="10.451055"><ele>246.0</ele><time>2026-04-06T14:50:31.659Z</time></trkpt><trkpt lat="44.1121383" lon="10.4510483"><ele>246.0</ele><time>2026-04-06T14:50:32.658Z</time></trkpt><trkpt lat="44.1122833" lon="10.4510233"><ele>246.0</ele><time>2026-04-06T14:50:33.658Z</time></trkpt><trkpt lat="44.11242" lon="10.4509783"><ele>246.0</ele><time>2026-04-06T14:50:34.658Z</time></trkpt><trkpt lat="44.112555" lon="10.4509067"><ele>246.0</ele><time>2026-04-06T14:50:35.658Z</time></trkpt><trkpt lat="44.11269" lon="10.4508383"><ele>247.0</ele><time>2026-04-06T14:50:36.658Z</time></trkpt><trkpt lat="44.112825" lon="10.45076"><ele>248.0</ele><time>2026-04-06T14:50:37.659Z</time></trkpt><trkpt lat="44.1129533" lon="10.4506683"><ele>249.0</ele><time>2026-04-06T14:50:38.658Z</time></trkpt><trkpt lat="44.1130817" lon="10.4505717"><ele>250.0</ele><time>2026-04-06T14:50:39.658Z</time></trkpt><trkpt lat="44.1132083" lon="10.4504767"><ele>252.0</ele><time>2026-04-06T14:50:40.658Z</time></trkpt><trkpt lat="44.113335" lon="10.450375"><ele>254.0</ele><time>2026-04-06T14:50:41.658Z</time></trkpt><trkpt lat="44.1134533" lon="10.4502583"><ele>256.0</ele><time>2026-04-06T14:50:42.659Z</time></trkpt><trkpt lat="44.11356" lon="10.4501267"><ele>258.0</ele><time>2026-04-06T14:50:43.658Z</time></trkpt><trkpt lat="44.11367" lon="10.4499867"><ele>258.0</ele><time>2026-04-06T14:50:44.658Z</time></trkpt><trkpt lat="44.11377" lon="10.4498317"><ele>258.0</ele><time>2026-04-06T14:50:45.658Z</time></trkpt><trkpt lat="44.1138583" lon="10.4496633"><ele>258.0</ele><time>2026-04-06T14:50:46.659Z</time></trkpt><trkpt lat="44.1139333" lon="10.44948"><ele>264.0</ele><time>2026-04-06T14:50:47.658Z</time></trkpt><trkpt lat="44.1139817" lon="10.4492817"><ele>270.0</ele><time>2026-04-06T14:50:48.658Z</time></trkpt><trkpt lat="44.1140133" lon="10.4490567"><ele>276.0</ele><time>2026-04-06T14:50:49.658Z</time></trkpt><trkpt lat="44.1140483" lon="10.4488"><ele>264.0</ele><time>2026-04-06T14:50:50.658Z</time></trkpt><trkpt lat="44.1140733" lon="10.44853"><ele>252.0</ele><time>2026-04-06T14:50:51.658Z</time></trkpt><trkpt lat="44.1140933" lon="10.4482667"><ele>240.0</ele><time>2026-04-06T14:50:52.658Z</time></trkpt><trkpt lat="44.1141133" lon="10.448015"><ele>242.33333333333331</ele><time>2026-04-06T14:50:53.658Z</time></trkpt><trkpt lat="44.1141317" lon="10.4477733"><ele>244.66666666666666</ele><time>2026-04-06T14:50:54.658Z</time></trkpt><trkpt lat="44.1141517" lon="10.44754"><ele>247.0</ele><time>2026-04-06T14:50:55.659Z</time></trkpt><trkpt lat="44.1141683" lon="10.4473117"><ele>251.66666666666666</ele><time>2026-04-06T14:50:56.658Z</time></trkpt><trkpt lat="44.1142017" lon="10.447085"><ele>256.3333333333333</ele><time>2026-04-06T14:50:57.658Z</time></trkpt><trkpt lat="44.1142483" lon="10.44687"><ele>261.0</ele><time>2026-04-06T14:50:58.658Z</time></trkpt><trkpt lat="44.114305" lon="10.4466617"><ele>261.0</ele><time>2026-04-06T14:50:59.658Z</time></trkpt><trkpt lat="44.1143717" lon="10.4464567"><ele>261.0</ele><time>2026-04-06T14:51:00.658Z</time></trkpt><trkpt lat="44.1144467" lon="10.446265"><ele>261.0</ele><time>2026-04-06T14:51:01.658Z</time></trkpt><trkpt lat="44.1145417" lon="10.446085"><ele>271.0</ele><time>2026-04-06T14:51:02.658Z</time></trkpt><trkpt lat="44.11465" lon="10.4459233"><ele>281.0</ele><time>2026-04-06T14:51:03.658Z</time></trkpt><trkpt lat="44.1147717" lon="10.44579"><ele>291.0</ele><time>2026-04-06T14:51:04.658Z</time></trkpt><trkpt lat="44.1149" lon="10.44568"><ele>273.3333333333333</ele><time>2026-04-06T14:51:05.659Z</time></trkpt><trkpt lat="44.115045" lon="10.4455967"><ele>255.66666666666666</ele><time>2026-04-06T14:51:06.658Z</time></trkpt><trkpt lat="44.1151933" lon="10.4455317"><ele>238.0</ele><time>2026-04-06T14:51:07.658Z</time></trkpt><trkpt lat="44.11534" lon="10.4454783"><ele>241.75</ele><time>2026-04-06T14:51:08.658Z</time></trkpt><trkpt lat="44.1154767" lon="10.445425"><ele>245.5</ele><time>2026-04-06T14:51:09.658Z</time></trkpt><trkpt lat="44.1156067" lon="10.4453683"><ele>249.25</ele><time>2026-04-06T14:51:10.658Z</time></trkpt><trkpt lat="44.1157383" lon="10.4453167"><ele>253.0</ele><time>2026-04-06T14:51:11.658Z</time></trkpt><trkpt lat="44.1158667" lon="10.4452633"><ele>253.0</ele><time>2026-04-06T14:51:12.658Z</time></trkpt><trkpt lat="44.115995" lon="10.44521"><ele>253.0</ele><time>2026-04-06T14:51:13.658Z</time></trkpt><trkpt lat="44.1161183" lon="10.4451633"><ele>253.0</ele><time>2026-04-06T14:51:14.658Z</time></trkpt><trkpt lat="44.11624" lon="10.4451167"><ele>253.0</ele><time>2026-04-06T14:51:15.659Z</time></trkpt><trkpt lat="44.1163667" lon="10.4450683"><ele>253.0</ele><time>2026-04-06T14:51:16.658Z</time></trkpt><trkpt lat="44.1164883" lon="10.4450167"><ele>253.0</ele><time>2026-04-06T14:51:17.658Z</time></trkpt><trkpt lat="44.1166083" lon="10.4449633"><ele>253.0</ele><time>2026-04-06T14:51:18.658Z</time></trkpt><trkpt lat="44.1167283" lon="10.4449067"><ele>253.0</ele><time>2026-04-06T14:51:19.658Z</time></trkpt><trkpt lat="44.1168467" lon="10.4448483"><ele>251.25</ele><time>2026-04-06T14:51:20.659Z</time></trkpt><trkpt lat="44.116965" lon="10.4447883"><ele>249.5</ele><time>2026-04-06T14:51:21.658Z</time></trkpt><trkpt lat="44.11708" lon="10.4447267"><ele>247.75</ele><time>2026-04-06T14:51:22.659Z</time></trkpt><trkpt lat="44.1171917" lon="10.44466"><ele>246.0</ele><time>2026-04-06T14:51:23.658Z</time></trkpt><trkpt lat="44.1173" lon="10.44459"><ele>248.25</ele><time>2026-04-06T14:51:24.658Z</time></trkpt><trkpt lat="44.117405" lon="10.44451"><ele>250.5</ele><time>2026-04-06T14:51:25.658Z</time></trkpt><trkpt lat="44.1175083" lon="10.444425"><ele>252.75</ele><time>2026-04-06T14:51:26.658Z</time></trkpt><trkpt lat="44.117605" lon="10.4443317"><ele>255.0</ele><time>2026-04-06T14:51:27.658Z</time></trkpt><trkpt lat="44.1176983" lon="10.444235"><ele>255.0</ele><time>2026-04-06T14:51:28.658Z</time></trkpt><trkpt lat="44.1177833" lon="10.4441167"><ele>255.0</ele><time>2026-04-06T14:51:29.658Z</time></trkpt><trkpt lat="44.11785" lon="10.443985"><ele>255.0</ele><time>2026-04-06T14:51:30.658Z</time></trkpt><trkpt lat="44.117915" lon="10.4438483"><ele>255.0</ele><time>2026-04-06T14:51:31.658Z</time></trkpt><trkpt lat="44.11797" lon="10.4436983"><ele>264.0</ele><time>2026-04-06T14:51:32.658Z</time></trkpt><trkpt lat="44.1180133" lon="10.4435367"><ele>273.0</ele><time>2026-04-06T14:51:33.658Z</time></trkpt><trkpt lat="44.1180483" lon="10.4433633"><ele>282.0</ele><time>2026-04-06T14:51:34.658Z</time></trkpt><trkpt lat="44.1180783" lon="10.44318"><ele>291.0</ele><time>2026-04-06T14:51:35.658Z</time></trkpt><trkpt lat="44.1181017" lon="10.4429867"><ele>294.25</ele><time>2026-04-06T14:51:36.658Z</time></trkpt><trkpt lat="44.1181217" lon="10.4427883"><ele>297.5</ele><time>2026-04-06T14:51:37.658Z</time></trkpt><trkpt lat="44.1181317" lon="10.4425867"><ele>300.75</ele><time>2026-04-06T14:51:38.658Z</time></trkpt><trkpt lat="44.11813" lon="10.4423767"><ele>304.0</ele><time>2026-04-06T14:51:39.658Z</time></trkpt><trkpt lat="44.118115" lon="10.4421617"><ele>299.0</ele><time>2026-04-06T14:51:40.658Z</time></trkpt><trkpt lat="44.118085" lon="10.4419467"><ele>294.0</ele><time>2026-04-06T14:51:41.658Z</time></trkpt><trkpt lat="44.1180317" lon="10.4417417"><ele>289.0</ele><time>2026-04-06T14:51:42.658Z</time></trkpt><trkpt lat="44.117965" lon="10.4415517"><ele>289.0</ele><time>2026-04-06T14:51:43.658Z</time></trkpt><trkpt lat="44.11787" lon="10.4413767"><ele>289.0</ele><time>2026-04-06T14:51:44.658Z</time></trkpt><trkpt lat="44.11776" lon="10.4412117"><ele>289.0</ele><time>2026-04-06T14:51:45.659Z</time></trkpt><trkpt lat="44.1176317" lon="10.44106"><ele>295.0</ele><time>2026-04-06T14:51:46.658Z</time></trkpt><trkpt lat="44.1175" lon="10.4409167"><ele>301.0</ele><time>2026-04-06T14:51:47.658Z</time></trkpt><trkpt lat="44.1173617" lon="10.440775"><ele>307.0</ele><time>2026-04-06T14:51:48.658Z</time></trkpt><trkpt lat="44.1172217" lon="10.4406283"><ele>307.0</ele><time>2026-04-06T14:51:49.659Z</time></trkpt><trkpt lat="44.1170833" lon="10.4404717"><ele>307.0</ele><time>2026-04-06T14:51:50.658Z</time></trkpt><trkpt lat="44.1169483" lon="10.4403033"><ele>307.0</ele><time>2026-04-06T14:51:51.658Z</time></trkpt><trkpt lat="44.116825" lon="10.4401217"><ele>306.66666666666663</ele><time>2026-04-06T14:51:52.658Z</time></trkpt><trkpt lat="44.1167167" lon="10.4399217"><ele>306.3333333333333</ele><time>2026-04-06T14:51:53.658Z</time></trkpt><trkpt lat="44.1166267" lon="10.4397033"><ele>306.0</ele><time>2026-04-06T14:51:54.658Z</time></trkpt><trkpt lat="44.116545" lon="10.4394783"><ele>306.0</ele><time>2026-04-06T14:51:55.658Z</time></trkpt><trkpt lat="44.1164783" lon="10.4392433"><ele>306.0</ele><time>2026-04-06T14:51:56.658Z</time></trkpt><trkpt lat="44.1164183" lon="10.439005"><ele>306.0</ele><time>2026-04-06T14:51:57.658Z</time></trkpt><trkpt lat="44.1163617" lon="10.438765"><ele>296.3333333333333</ele><time>2026-04-06T14:51:58.658Z</time></trkpt><trkpt lat="44.116305" lon="10.43853"><ele>286.66666666666663</ele><time>2026-04-06T14:51:59.659Z</time></trkpt><trkpt lat="44.1162483" lon="10.438295"><ele>277.0</ele><time>2026-04-06T14:52:00.658Z</time></trkpt><trkpt lat="44.1162183" lon="10.438055"><ele>273.3333333333333</ele><time>2026-04-06T14:52:01.658Z</time></trkpt><trkpt lat="44.1162033" lon="10.4378117"><ele>269.6666666666667</ele><time>2026-04-06T14:52:02.658Z</time></trkpt><trkpt lat="44.1162" lon="10.4375717"><ele>266.0</ele><time>2026-04-06T14:52:03.658Z</time></trkpt><trkpt lat="44.11622" lon="10.4373317"><ele>266.33333333333337</ele><time>2026-04-06T14:52:04.658Z</time></trkpt><trkpt lat="44.116235" lon="10.43709"><ele>266.6666666666667</ele><time>2026-04-06T14:52:05.658Z</time></trkpt><trkpt lat="44.1162317" lon="10.4368517"><ele>267.0</ele><time>2026-04-06T14:52:06.658Z</time></trkpt><trkpt lat="44.1162033" lon="10.4366167"><ele>267.0</ele><time>2026-04-06T14:52:07.658Z</time></trkpt><trkpt lat="44.1161467" lon="10.4363883"><ele>267.0</ele><time>2026-04-06T14:52:08.658Z</time></trkpt><trkpt lat="44.11607" lon="10.4361733"><ele>267.0</ele><time>2026-04-06T14:52:09.658Z</time></trkpt><trkpt lat="44.115975" lon="10.4359683"><ele>264.6666666666667</ele><time>2026-04-06T14:52:10.659Z</time></trkpt><trkpt lat="44.11586" lon="10.4357867"><ele>262.33333333333337</ele><time>2026-04-06T14:52:11.659Z</time></trkpt><trkpt lat="44.1157217" lon="10.4356417"><ele>260.0</ele><time>2026-04-06T14:52:12.658Z</time></trkpt><trkpt lat="44.1155717" lon="10.4355233"><ele>256.33333333333337</ele><time>2026-04-06T14:52:13.659Z</time></trkpt><trkpt lat="44.1154133" lon="10.4354317"><ele>252.66666666666669</ele><time>2026-04-06T14:52:14.659Z</time></trkpt><trkpt lat="44.115245" lon="10.43537"><ele>249.0</ele><time>2026-04-06T14:52:15.658Z</time></trkpt><trkpt lat="44.11507" lon="10.4353333"><ele>249.33333333333331</ele><time>2026-04-06T14:52:16.658Z</time></trkpt><trkpt lat="44.1148883" lon="10.4353083"><ele>249.66666666666666</ele><time>2026-04-06T14:52:17.658Z</time></trkpt><trkpt lat="44.1147017" lon="10.4352933"><ele>250.0</ele><time>2026-04-06T14:52:18.658Z</time></trkpt><trkpt lat="44.1145117" lon="10.4352833"><ele>250.0</ele><time>2026-04-06T14:52:19.658Z</time></trkpt><trkpt lat="44.1143267" lon="10.4352733"><ele>250.0</ele><time>2026-04-06T14:52:20.658Z</time></trkpt><trkpt lat="44.1141383" lon="10.435265"><ele>250.0</ele><time>2026-04-06T14:52:21.658Z</time></trkpt><trkpt lat="44.1139517" lon="10.4352533"><ele>251.33333333333331</ele><time>2026-04-06T14:52:22.658Z</time></trkpt><trkpt lat="44.113765" lon="10.4352383"><ele>252.66666666666669</ele><time>2026-04-06T14:52:23.658Z</time></trkpt><trkpt lat="44.11358" lon="10.435225"><ele>254.0</ele><time>2026-04-06T14:52:24.658Z</time></trkpt><trkpt lat="44.1133967" lon="10.4352183"><ele>259.33333333333337</ele><time>2026-04-06T14:52:25.658Z</time></trkpt><trkpt lat="44.1132117" lon="10.4352"><ele>264.6666666666667</ele><time>2026-04-06T14:52:26.658Z</time></trkpt><trkpt lat="44.113035" lon="10.4351533"><ele>270.0</ele><time>2026-04-06T14:52:27.658Z</time></trkpt><trkpt lat="44.1128617" lon="10.435085"><ele>270.0</ele><time>2026-04-06T14:52:28.658Z</time></trkpt><trkpt lat="44.1126983" lon="10.4349983"><ele>270.0</ele><time>2026-04-06T14:52:29.658Z</time></trkpt><trkpt lat="44.1125467" lon="10.43487"><ele>270.0</ele><time>2026-04-06T14:52:30.658Z</time></trkpt><trkpt lat="44.112415" lon="10.4347117"><ele>279.6666666666667</ele><time>2026-04-06T14:52:31.658Z</time></trkpt><trkpt lat="44.112305" lon="10.43452"><ele>289.33333333333337</ele><time>2026-04-06T14:52:32.658Z</time></trkpt><trkpt lat="44.1122117" lon="10.4343167"><ele>299.0</ele><time>2026-04-06T14:52:33.658Z</time></trkpt><trkpt lat="44.1121333" lon="10.4341033"><ele>299.0</ele><time>2026-04-06T14:52:34.658Z</time></trkpt><trkpt lat="44.1120767" lon="10.433885"><ele>299.0</ele><time>2026-04-06T14:52:35.658Z</time></trkpt><trkpt lat="44.112045" lon="10.4336633"><ele>299.0</ele><time>2026-04-06T14:52:36.659Z</time></trkpt><trkpt lat="44.11203" lon="10.4334283"><ele>300.0</ele><time>2026-04-06T14:52:37.658Z</time></trkpt><trkpt lat="44.1120367" lon="10.4331933"><ele>301.0</ele><time>2026-04-06T14:52:38.658Z</time></trkpt><trkpt lat="44.1120667" lon="10.43296"><ele>302.0</ele><time>2026-04-06T14:52:39.659Z</time></trkpt><trkpt lat="44.1121167" lon="10.4327317"><ele>302.0</ele><time>2026-04-06T14:52:40.658Z</time></trkpt><trkpt lat="44.1121917" lon="10.4325133"><ele>302.0</ele><time>2026-04-06T14:52:41.658Z</time></trkpt><trkpt lat="44.112275" lon="10.4323017"><ele>302.0</ele><time>2026-04-06T14:52:42.658Z</time></trkpt><trkpt lat="44.1123567" lon="10.432095"><ele>290.0</ele><time>2026-04-06T14:52:43.658Z</time></trkpt><trkpt lat="44.112445" lon="10.4319017"><ele>278.0</ele><time>2026-04-06T14:52:44.658Z</time></trkpt><trkpt lat="44.1125417" lon="10.431715"><ele>266.0</ele><time>2026-04-06T14:52:45.658Z</time></trkpt><trkpt lat="44.112635" lon="10.4315317"><ele>266.0</ele><time>2026-04-06T14:52:46.659Z</time></trkpt><trkpt lat="44.11273" lon="10.4313517"><ele>266.0</ele><time>2026-04-06T14:52:47.659Z</time></trkpt><trkpt lat="44.1128267" lon="10.43118"><ele>266.0</ele><time>2026-04-06T14:52:48.658Z</time></trkpt><trkpt lat="44.1129317" lon="10.431025"><ele>263.6666666666667</ele><time>2026-04-06T14:52:49.658Z</time></trkpt><trkpt lat="44.1130583" lon="10.4308967"><ele>261.3333333333333</ele><time>2026-04-06T14:52:50.658Z</time></trkpt><trkpt lat="44.1132033" lon="10.4307883"><ele>259.0</ele><time>2026-04-06T14:52:51.658Z</time></trkpt><trkpt lat="44.1133533" lon="10.4306983"><ele>259.0</ele><time>2026-04-06T14:52:52.658Z</time></trkpt><trkpt lat="44.11351" lon="10.4306117"><ele>259.0</ele><time>2026-04-06T14:52:53.659Z</time></trkpt><trkpt lat="44.1136617" lon="10.4305167"><ele>259.0</ele><time>2026-04-06T14:52:54.659Z</time></trkpt><trkpt lat="44.113805" lon="10.4304067"><ele>260.3333333333333</ele><time>2026-04-06T14:52:55.658Z</time></trkpt><trkpt lat="44.113935" lon="10.4302783"><ele>261.6666666666667</ele><time>2026-04-06T14:52:56.658Z</time></trkpt><trkpt lat="44.1140483" lon="10.4301333"><ele>263.0</ele><time>2026-04-06T14:52:57.658Z</time></trkpt><trkpt lat="44.1141533" lon="10.429975"><ele>263.0</ele><time>2026-04-06T14:52:58.659Z</time></trkpt><trkpt lat="44.11425" lon="10.4298033"><ele>263.0</ele><time>2026-04-06T14:52:59.659Z</time></trkpt><trkpt lat="44.114345" lon="10.4296267"><ele>263.0</ele><time>2026-04-06T14:53:00.658Z</time></trkpt><trkpt lat="44.1144317" lon="10.4294483"><ele>270.0</ele><time>2026-04-06T14:53:01.658Z</time></trkpt><trkpt lat="44.1144967" lon="10.42926"><ele>277.0</ele><time>2026-04-06T14:53:02.658Z</time></trkpt><trkpt lat="44.11455" lon="10.4290667"><ele>284.0</ele><time>2026-04-06T14:53:03.658Z</time></trkpt><trkpt lat="44.1145917" lon="10.428865"><ele>291.0</ele><time>2026-04-06T14:53:04.658Z</time></trkpt><trkpt lat="44.1146133" lon="10.4286533"><ele>296.0</ele><time>2026-04-06T14:53:05.658Z</time></trkpt><trkpt lat="44.1146317" lon="10.42844"><ele>301.0</ele><time>2026-04-06T14:53:06.659Z</time></trkpt><trkpt lat="44.1146433" lon="10.4282217"><ele>306.0</ele><time>2026-04-06T14:53:07.658Z</time></trkpt><trkpt lat="44.1146533" lon="10.428"><ele>308.0</ele><time>2026-04-06T14:53:08.658Z</time></trkpt><trkpt lat="44.1146667" lon="10.4277783"><ele>310.0</ele><time>2026-04-06T14:53:09.658Z</time></trkpt><trkpt lat="44.1146867" lon="10.42756"><ele>312.0</ele><time>2026-04-06T14:53:10.658Z</time></trkpt><trkpt lat="44.1147083" lon="10.4273433"><ele>312.0</ele><time>2026-04-06T14:53:11.658Z</time></trkpt><trkpt lat="44.114725" lon="10.427125"><ele>312.0</ele><time>2026-04-06T14:53:12.658Z</time></trkpt><trkpt lat="44.11475" lon="10.426905"><ele>312.0</ele><time>2026-04-06T14:53:13.658Z</time></trkpt><trkpt lat="44.1147817" lon="10.42669"><ele>312.0</ele><time>2026-04-06T14:53:14.658Z</time></trkpt><trkpt lat="44.11482" lon="10.4264783"><ele>312.0</ele><time>2026-04-06T14:53:15.658Z</time></trkpt><trkpt lat="44.11487" lon="10.4262683"><ele>312.0</ele><time>2026-04-06T14:53:16.658Z</time></trkpt><trkpt lat="44.1149233" lon="10.4260633"><ele>300.6666666666667</ele><time>2026-04-06T14:53:17.658Z</time></trkpt><trkpt lat="44.114975" lon="10.4258567"><ele>289.33333333333337</ele><time>2026-04-06T14:53:18.658Z</time></trkpt><trkpt lat="44.1150133" lon="10.4256467"><ele>278.0</ele><time>2026-04-06T14:53:19.658Z</time></trkpt><trkpt lat="44.1150367" lon="10.42543"><ele>276.33333333333337</ele><time>2026-04-06T14:53:20.658Z</time></trkpt><trkpt lat="44.11504" lon="10.425205"><ele>274.6666666666667</ele><time>2026-04-06T14:53:21.658Z</time></trkpt><trkpt lat="44.11503" lon="10.424975"><ele>273.0</ele><time>2026-04-06T14:53:22.659Z</time></trkpt><trkpt lat="44.115015" lon="10.4247417"><ele>270.6666666666667</ele><time>2026-04-06T14:53:23.658Z</time></trkpt><trkpt lat="44.1149933" lon="10.424505"><ele>268.33333333333337</ele><time>2026-04-06T14:53:24.658Z</time></trkpt><trkpt lat="44.11497" lon="10.4242667"><ele>266.0</ele><time>2026-04-06T14:53:25.658Z</time></trkpt><trkpt lat="44.1149417" lon="10.4240267"><ele>271.33333333333337</ele><time>2026-04-06T14:53:26.658Z</time></trkpt><trkpt lat="44.1149067" lon="10.4237833"><ele>276.6666666666667</ele><time>2026-04-06T14:53:27.658Z</time></trkpt><trkpt lat="44.1148717" lon="10.423545"><ele>282.0</ele><time>2026-04-06T14:53:28.659Z</time></trkpt><trkpt lat="44.11484" lon="10.423305"><ele>282.0</ele><time>2026-04-06T14:53:29.659Z</time></trkpt><trkpt lat="44.1148083" lon="10.4230683"><ele>282.0</ele><time>2026-04-06T14:53:30.658Z</time></trkpt><trkpt lat="44.11478" lon="10.4228317"><ele>282.0</ele><time>2026-04-06T14:53:31.658Z</time></trkpt><trkpt lat="44.1147517" lon="10.4225967"><ele>281.6666666666667</ele><time>2026-04-06T14:53:32.658Z</time></trkpt><trkpt lat="44.1147217" lon="10.422365"><ele>281.33333333333337</ele><time>2026-04-06T14:53:33.658Z</time></trkpt><trkpt lat="44.1146933" lon="10.4221383"><ele>281.0</ele><time>2026-04-06T14:53:34.658Z</time></trkpt><trkpt lat="44.114665" lon="10.4219117"><ele>282.6666666666667</ele><time>2026-04-06T14:53:35.658Z</time></trkpt><trkpt lat="44.1146383" lon="10.4216833"><ele>284.3333333333333</ele><time>2026-04-06T14:53:36.659Z</time></trkpt><trkpt lat="44.1146117" lon="10.4214567"><ele>286.0</ele><time>2026-04-06T14:53:37.658Z</time></trkpt><trkpt lat="44.1145883" lon="10.421235"><ele>287.66666666666663</ele><time>2026-04-06T14:53:38.659Z</time></trkpt><trkpt lat="44.114565" lon="10.4210183"><ele>289.3333333333333</ele><time>2026-04-06T14:53:39.658Z</time></trkpt><trkpt lat="44.11454" lon="10.42081"><ele>291.0</ele><time>2026-04-06T14:53:40.658Z</time></trkpt><trkpt lat="44.114515" lon="10.42061"><ele>291.0</ele><time>2026-04-06T14:53:41.658Z</time></trkpt><trkpt lat="44.1145" lon="10.42042"><ele>291.0</ele><time>2026-04-06T14:53:42.658Z</time></trkpt><trkpt lat="44.1144933" lon="10.420245"><ele>291.0</ele><time>2026-04-06T14:53:43.658Z</time></trkpt><trkpt lat="44.114495" lon="10.4200867"><ele>291.0</ele><time>2026-04-06T14:53:44.659Z</time></trkpt><trkpt lat="44.114515" lon="10.4199467"><ele>291.0</ele><time>2026-04-06T14:53:45.658Z</time></trkpt><trkpt lat="44.1145383" lon="10.4198167"><ele>291.0</ele><time>2026-04-06T14:53:46.658Z</time></trkpt><trkpt lat="44.1145483" lon="10.4197017"><ele>291.0</ele><time>2026-04-06T14:53:47.659Z</time></trkpt><trkpt lat="44.11455" lon="10.4195917"><ele>291.0</ele><time>2026-04-06T14:53:48.658Z</time></trkpt><trkpt lat="44.1145083" lon="10.41951"><ele>291.0</ele><time>2026-04-06T14:53:49.658Z</time></trkpt><trkpt lat="44.1144517" lon="10.4194317"><ele>291.0</ele><time>2026-04-06T14:53:50.659Z</time></trkpt><trkpt lat="44.114385" lon="10.41935"><ele>293.25</ele><time>2026-04-06T14:53:51.658Z</time></trkpt><trkpt lat="44.1143083" lon="10.4192583"><ele>295.5</ele><time>2026-04-06T14:53:52.658Z</time></trkpt><trkpt lat="44.11423" lon="10.419155"><ele>297.75</ele><time>2026-04-06T14:53:53.658Z</time></trkpt><trkpt lat="44.114145" lon="10.4190433"><ele>300.0</ele><time>2026-04-06T14:53:54.659Z</time></trkpt><trkpt lat="44.1140533" lon="10.4189233"><ele>292.0</ele><time>2026-04-06T14:53:55.658Z</time></trkpt><trkpt lat="44.1139517" lon="10.4188017"><ele>284.0</ele><time>2026-04-06T14:53:56.658Z</time></trkpt><trkpt lat="44.11384" lon="10.418695"><ele>276.0</ele><time>2026-04-06T14:53:57.658Z</time></trkpt><trkpt lat="44.1137167" lon="10.4186083"><ele>268.0</ele><time>2026-04-06T14:53:58.658Z</time></trkpt><trkpt lat="44.1135867" lon="10.41854"><ele>268.0</ele><time>2026-04-06T14:53:59.658Z</time></trkpt><trkpt lat="44.1134467" lon="10.4184933"><ele>268.0</ele><time>2026-04-06T14:54:00.659Z</time></trkpt><trkpt lat="44.1133" lon="10.418475"><ele>268.0</ele><time>2026-04-06T14:54:01.658Z</time></trkpt><trkpt lat="44.113145" lon="10.4184867"><ele>268.0</ele><time>2026-04-06T14:54:02.659Z</time></trkpt><trkpt lat="44.112995" lon="10.418525"><ele>270.3333333333333</ele><time>2026-04-06T14:54:03.658Z</time></trkpt><trkpt lat="44.1128433" lon="10.4185617"><ele>272.6666666666667</ele><time>2026-04-06T14:54:04.658Z</time></trkpt><trkpt lat="44.112685" lon="10.4185967"><ele>275.0</ele><time>2026-04-06T14:54:05.658Z</time></trkpt><trkpt lat="44.11252" lon="10.41863"><ele>274.33333333333337</ele><time>2026-04-06T14:54:06.658Z</time></trkpt><trkpt lat="44.112355" lon="10.418665"><ele>273.6666666666667</ele><time>2026-04-06T14:54:07.658Z</time></trkpt><trkpt lat="44.112185" lon="10.418685"><ele>273.0</ele><time>2026-04-06T14:54:08.659Z</time></trkpt><trkpt lat="44.11202" lon="10.4186883"><ele>273.0</ele><time>2026-04-06T14:54:09.658Z</time></trkpt><trkpt lat="44.1118617" lon="10.4186767"><ele>273.0</ele><time>2026-04-06T14:54:10.659Z</time></trkpt><trkpt lat="44.111705" lon="10.4186567"><ele>273.0</ele><time>2026-04-06T14:54:11.659Z</time></trkpt><trkpt lat="44.1115467" lon="10.4186417"><ele>273.0</ele><time>2026-04-06T14:54:12.658Z</time></trkpt><trkpt lat="44.1113917" lon="10.4186117"><ele>273.0</ele><time>2026-04-06T14:54:13.658Z</time></trkpt><trkpt lat="44.1112433" lon="10.4185767"><ele>273.0</ele><time>2026-04-06T14:54:14.658Z</time></trkpt><trkpt lat="44.1111" lon="10.4185383"><ele>273.0</ele><time>2026-04-06T14:54:15.658Z</time></trkpt><trkpt lat="44.110955" lon="10.4185"><ele>273.0</ele><time>2026-04-06T14:54:16.658Z</time></trkpt><trkpt lat="44.1108167" lon="10.418445"><ele>273.0</ele><time>2026-04-06T14:54:17.658Z</time></trkpt><trkpt lat="44.1106817" lon="10.4183917"><ele>273.0</ele><time>2026-04-06T14:54:18.659Z</time></trkpt><trkpt lat="44.1105467" lon="10.4183233"><ele>277.5</ele><time>2026-04-06T14:54:19.658Z</time></trkpt><trkpt lat="44.11042" lon="10.4182383"><ele>282.0</ele><time>2026-04-06T14:54:20.658Z</time></trkpt><trkpt lat="44.1103083" lon="10.4181367"><ele>286.5</ele><time>2026-04-06T14:54:21.658Z</time></trkpt><trkpt lat="44.1102067" lon="10.4180133"><ele>291.0</ele><time>2026-04-06T14:54:22.658Z</time></trkpt><trkpt lat="44.11013" lon="10.417875"><ele>291.0</ele><time>2026-04-06T14:54:23.658Z</time></trkpt><trkpt lat="44.1100683" lon="10.417715"><ele>291.0</ele><time>2026-04-06T14:54:24.659Z</time></trkpt><trkpt lat="44.1100367" lon="10.417535"><ele>291.0</ele><time>2026-04-06T14:54:25.659Z</time></trkpt><trkpt lat="44.1100233" lon="10.4173533"><ele>291.0</ele><time>2026-04-06T14:54:26.659Z</time></trkpt><trkpt lat="44.11001" lon="10.4171683"><ele>288.5</ele><time>2026-04-06T14:54:27.658Z</time></trkpt><trkpt lat="44.10999" lon="10.416975"><ele>286.0</ele><time>2026-04-06T14:54:28.658Z</time></trkpt><trkpt lat="44.109955" lon="10.4167933"><ele>283.5</ele><time>2026-04-06T14:54:29.658Z</time></trkpt><trkpt lat="44.1098983" lon="10.416625"><ele>281.0</ele><time>2026-04-06T14:54:30.658Z</time></trkpt><trkpt lat="44.1098217" lon="10.4164717"><ele>283.5</ele><time>2026-04-06T14:54:31.658Z</time></trkpt><trkpt lat="44.109735" lon="10.416325"><ele>286.0</ele><time>2026-04-06T14:54:32.659Z</time></trkpt><trkpt lat="44.109645" lon="10.4161767"><ele>288.5</ele><time>2026-04-06T14:54:33.658Z</time></trkpt><trkpt lat="44.109555" lon="10.41603"><ele>291.0</ele><time>2026-04-06T14:54:34.658Z</time></trkpt><trkpt lat="44.109465" lon="10.4158833"><ele>291.0</ele><time>2026-04-06T14:54:35.659Z</time></trkpt><trkpt lat="44.1093817" lon="10.4157317"><ele>291.0</ele><time>2026-04-06T14:54:36.658Z</time></trkpt><trkpt lat="44.1093067" lon="10.4155717"><ele>291.0</ele><time>2026-04-06T14:54:37.658Z</time></trkpt><trkpt lat="44.1092367" lon="10.4154183"><ele>291.0</ele><time>2026-04-06T14:54:38.658Z</time></trkpt><trkpt lat="44.10917" lon="10.4152683"><ele>289.0</ele><time>2026-04-06T14:54:39.658Z</time></trkpt><trkpt lat="44.1091133" lon="10.4151217"><ele>287.0</ele><time>2026-04-06T14:54:40.659Z</time></trkpt><trkpt lat="44.1090683" lon="10.4149717"><ele>285.0</ele><time>2026-04-06T14:54:41.658Z</time></trkpt><trkpt lat="44.1090383" lon="10.4148183"><ele>283.0</ele><time>2026-04-06T14:54:42.659Z</time></trkpt><trkpt lat="44.1090233" lon="10.4146717"><ele>288.5</ele><time>2026-04-06T14:54:43.658Z</time></trkpt><trkpt lat="44.1090233" lon="10.414525"><ele>294.0</ele><time>2026-04-06T14:54:44.658Z</time></trkpt><trkpt lat="44.1090333" lon="10.4143883"><ele>299.5</ele><time>2026-04-06T14:54:45.659Z</time></trkpt><trkpt lat="44.1090467" lon="10.414265"><ele>305.0</ele><time>2026-04-06T14:54:46.659Z</time></trkpt><trkpt lat="44.109055" lon="10.4141533"><ele>310.5</ele><time>2026-04-06T14:54:47.658Z</time></trkpt><trkpt lat="44.109065" lon="10.41406"><ele>316.0</ele><time>2026-04-06T14:54:48.658Z</time></trkpt><trkpt lat="44.10907" lon="10.4139233"><ele>316.0</ele><time>2026-04-06T14:54:50.658Z</time></trkpt><trkpt lat="44.10905" lon="10.4138317"><ele>316.0</ele><time>2026-04-06T14:55:00.658Z</time></trkpt><trkpt lat="44.1089367" lon="10.4138083"><ele>316.0</ele><time>2026-04-06T14:55:02.658Z</time></trkpt><trkpt lat="44.1088533" lon="10.413765"><ele>316.0</ele><time>2026-04-06T14:55:04.658Z</time></trkpt><trkpt lat="44.1087917" lon="10.4136533"><ele>316.0</ele><time>2026-04-06T14:55:06.658Z</time></trkpt><trkpt lat="44.1087517" lon="10.41348"><ele>313.16666666666663</ele><time>2026-04-06T14:55:08.658Z</time></trkpt><trkpt lat="44.108725" lon="10.41338"><ele>310.3333333333333</ele><time>2026-04-06T14:55:09.658Z</time></trkpt><trkpt lat="44.1087033" lon="10.413265"><ele>307.5</ele><time>2026-04-06T14:55:10.658Z</time></trkpt><trkpt lat="44.1086717" lon="10.4131517"><ele>304.6666666666667</ele><time>2026-04-06T14:55:11.658Z</time></trkpt><trkpt lat="44.1086367" lon="10.41304"><ele>301.83333333333337</ele><time>2026-04-06T14:55:12.658Z</time></trkpt><trkpt lat="44.1086033" lon="10.4129267"><ele>299.0</ele><time>2026-04-06T14:55:13.658Z</time></trkpt><trkpt lat="44.10857" lon="10.412815"><ele>297.0</ele><time>2026-04-06T14:55:14.658Z</time></trkpt><trkpt lat="44.1085417" lon="10.4126983"><ele>295.0</ele><time>2026-04-06T14:55:15.659Z</time></trkpt><trkpt lat="44.1085083" lon="10.412585"><ele>293.0</ele><time>2026-04-06T14:55:16.658Z</time></trkpt><trkpt lat="44.1084783" lon="10.41247"><ele>291.0</ele><time>2026-04-06T14:55:17.658Z</time></trkpt><trkpt lat="44.10845" lon="10.4123533"><ele>289.0</ele><time>2026-04-06T14:55:18.659Z</time></trkpt><trkpt lat="44.1084233" lon="10.412235"><ele>287.0</ele><time>2026-04-06T14:55:19.659Z</time></trkpt><trkpt lat="44.1084" lon="10.4121217"><ele>286.0</ele><time>2026-04-06T14:55:20.658Z</time></trkpt><trkpt lat="44.1083783" lon="10.4120083"><ele>285.0</ele><time>2026-04-06T14:55:21.659Z</time></trkpt><trkpt lat="44.1083633" lon="10.4119017"><ele>284.0</ele><time>2026-04-06T14:55:22.659Z</time></trkpt><trkpt lat="44.1083567" lon="10.4118"><ele>283.0</ele><time>2026-04-06T14:55:23.658Z</time></trkpt><trkpt lat="44.1083567" lon="10.4117"><ele>282.0</ele><time>2026-04-06T14:55:24.658Z</time></trkpt><trkpt lat="44.10836" lon="10.4116017"><ele>281.0</ele><time>2026-04-06T14:55:25.659Z</time></trkpt><trkpt lat="44.1083667" lon="10.4115067"><ele>280.0</ele><time>2026-04-06T14:55:26.658Z</time></trkpt><trkpt lat="44.1083717" lon="10.4114117"><ele>280.0</ele><time>2026-04-06T14:55:27.658Z</time></trkpt><trkpt lat="44.1083633" lon="10.4113117"><ele>280.0</ele><time>2026-04-06T14:55:28.658Z</time></trkpt><trkpt lat="44.1083017" lon="10.4111733"><ele>280.0</ele><time>2026-04-06T14:55:30.658Z</time></trkpt><trkpt lat="44.1082067" lon="10.411075"><ele>280.0</ele><time>2026-04-06T14:55:32.658Z</time></trkpt><trkpt lat="44.1081317" lon="10.41104"><ele>280.0</ele><time>2026-04-06T14:55:33.658Z</time></trkpt><trkpt lat="44.1080517" lon="10.41101"><ele>280.0</ele><time>2026-04-06T14:55:34.658Z</time></trkpt><trkpt lat="44.1079633" lon="10.4109867"><ele>280.0</ele><time>2026-04-06T14:55:35.658Z</time></trkpt><trkpt lat="44.1078817" lon="10.41095"><ele>280.0</ele><time>2026-04-06T14:55:36.658Z</time></trkpt><trkpt lat="44.1077883" lon="10.41091"><ele>280.0</ele><time>2026-04-06T14:55:37.658Z</time></trkpt><trkpt lat="44.1077083" lon="10.4108717"><ele>280.0</ele><time>2026-04-06T14:55:38.658Z</time></trkpt><trkpt lat="44.1076267" lon="10.410825"><ele>280.0</ele><time>2026-04-06T14:55:39.658Z</time></trkpt><trkpt lat="44.10755" lon="10.4107783"><ele>280.0</ele><time>2026-04-06T14:55:40.658Z</time></trkpt><trkpt lat="44.1074633" lon="10.4107317"><ele>280.0</ele><time>2026-04-06T14:55:41.658Z</time></trkpt><trkpt lat="44.10738" lon="10.4106933"><ele>280.0</ele><time>2026-04-06T14:55:42.658Z</time></trkpt><trkpt lat="44.1073" lon="10.4106467"><ele>280.0</ele><time>2026-04-06T14:55:43.658Z</time></trkpt><trkpt lat="44.1072233" lon="10.4105983"><ele>280.0</ele><time>2026-04-06T14:55:44.658Z</time></trkpt><trkpt lat="44.1071433" lon="10.4105533"><ele>280.0</ele><time>2026-04-06T14:55:45.658Z</time></trkpt><trkpt lat="44.1070667" lon="10.4104967"><ele>279.8333333333333</ele><time>2026-04-06T14:55:46.658Z</time></trkpt><trkpt lat="44.106995" lon="10.41043"><ele>279.66666666666663</ele><time>2026-04-06T14:55:47.658Z</time></trkpt><trkpt lat="44.10693" lon="10.410355"><ele>279.5</ele><time>2026-04-06T14:55:48.658Z</time></trkpt><trkpt lat="44.1068683" lon="10.4102967"><ele>279.3333333333333</ele><time>2026-04-06T14:55:49.659Z</time></trkpt><trkpt lat="44.1068067" lon="10.4102417"><ele>279.1666666666667</ele><time>2026-04-06T14:55:50.659Z</time></trkpt><trkpt lat="44.106745" lon="10.410185"><ele>279.0</ele><time>2026-04-06T14:55:51.658Z</time></trkpt><trkpt lat="44.1066767" lon="10.4101283"><ele>279.0</ele><time>2026-04-06T14:55:52.659Z</time></trkpt><trkpt lat="44.106605" lon="10.4100683"><ele>279.0</ele><time>2026-04-06T14:55:53.658Z</time></trkpt><trkpt lat="44.1065333" lon="10.4100017"><ele>279.0</ele><time>2026-04-06T14:55:54.658Z</time></trkpt><trkpt lat="44.1064667" lon="10.409925"><ele>279.0</ele><time>2026-04-06T14:55:55.658Z</time></trkpt><trkpt lat="44.1064017" lon="10.40985"><ele>279.0</ele><time>2026-04-06T14:55:56.658Z</time></trkpt><trkpt lat="44.106335" lon="10.4097783"><ele>279.0</ele><time>2026-04-06T14:55:57.658Z</time></trkpt><trkpt lat="44.1062667" lon="10.4097117"><ele>279.0</ele><time>2026-04-06T14:55:58.658Z</time></trkpt><trkpt lat="44.1061967" lon="10.4096483"><ele>279.0</ele><time>2026-04-06T14:55:59.658Z</time></trkpt><trkpt lat="44.106125" lon="10.4095783"><ele>279.0</ele><time>2026-04-06T14:56:00.658Z</time></trkpt><trkpt lat="44.10605" lon="10.4095133"><ele>279.0</ele><time>2026-04-06T14:56:01.658Z</time></trkpt><trkpt lat="44.10598" lon="10.4094383"><ele>279.0</ele><time>2026-04-06T14:56:02.658Z</time></trkpt><trkpt lat="44.10591" lon="10.4093667"><ele>279.0</ele><time>2026-04-06T14:56:03.658Z</time></trkpt><trkpt lat="44.10584" lon="10.4093017"><ele>279.0</ele><time>2026-04-06T14:56:04.658Z</time></trkpt><trkpt lat="44.1057733" lon="10.409235"><ele>279.0</ele><time>2026-04-06T14:56:05.658Z</time></trkpt><trkpt lat="44.105705" lon="10.4091717"><ele>279.0</ele><time>2026-04-06T14:56:06.659Z</time></trkpt><trkpt lat="44.1056333" lon="10.4091167"><ele>279.0</ele><time>2026-04-06T14:56:07.658Z</time></trkpt><trkpt lat="44.10556" lon="10.4090617"><ele>279.0</ele><time>2026-04-06T14:56:08.658Z</time></trkpt><trkpt lat="44.1054933" lon="10.409"><ele>279.0</ele><time>2026-04-06T14:56:09.658Z</time></trkpt><trkpt lat="44.1054267" lon="10.40894"><ele>279.6666666666667</ele><time>2026-04-06T14:56:10.658Z</time></trkpt><trkpt lat="44.10536" lon="10.408875"><ele>280.3333333333333</ele><time>2026-04-06T14:56:11.659Z</time></trkpt><trkpt lat="44.1052967" lon="10.40881"><ele>281.0</ele><time>2026-04-06T14:56:12.658Z</time></trkpt><trkpt lat="44.105225" lon="10.4087533"><ele>281.66666666666663</ele><time>2026-04-06T14:56:13.659Z</time></trkpt><trkpt lat="44.105155" lon="10.408685"><ele>282.3333333333333</ele><time>2026-04-06T14:56:14.658Z</time></trkpt><trkpt lat="44.105085" lon="10.4086217"><ele>283.0</ele><time>2026-04-06T14:56:15.658Z</time></trkpt><trkpt lat="44.1050117" lon="10.4085567"><ele>283.0</ele><time>2026-04-06T14:56:16.658Z</time></trkpt><trkpt lat="44.1049383" lon="10.4084933"><ele>283.0</ele><time>2026-04-06T14:56:17.659Z</time></trkpt><trkpt lat="44.1048717" lon="10.4084117"><ele>283.0</ele><time>2026-04-06T14:56:18.658Z</time></trkpt><trkpt lat="44.1047983" lon="10.4083483"><ele>283.0</ele><time>2026-04-06T14:56:19.658Z</time></trkpt><trkpt lat="44.1047283" lon="10.4082683"><ele>283.0</ele><time>2026-04-06T14:56:20.658Z</time></trkpt><trkpt lat="44.1046517" lon="10.4082033"><ele>283.0</ele><time>2026-04-06T14:56:21.658Z</time></trkpt><trkpt lat="44.1045733" lon="10.4081333"><ele>283.0</ele><time>2026-04-06T14:56:22.658Z</time></trkpt><trkpt lat="44.1044933" lon="10.408065"><ele>283.0</ele><time>2026-04-06T14:56:23.658Z</time></trkpt><trkpt lat="44.1044217" lon="10.407995"><ele>283.0</ele><time>2026-04-06T14:56:24.658Z</time></trkpt><trkpt lat="44.10435" lon="10.4079217"><ele>283.0</ele><time>2026-04-06T14:56:25.658Z</time></trkpt><trkpt lat="44.104285" lon="10.40784"><ele>283.0</ele><time>2026-04-06T14:56:26.658Z</time></trkpt><trkpt lat="44.104225" lon="10.40775"><ele>283.0</ele><time>2026-04-06T14:56:27.658Z</time></trkpt><trkpt lat="44.104175" lon="10.407655"><ele>283.0</ele><time>2026-04-06T14:56:28.658Z</time></trkpt><trkpt lat="44.1041367" lon="10.4075667"><ele>283.0</ele><time>2026-04-06T14:56:29.658Z</time></trkpt><trkpt lat="44.1041117" lon="10.4074767"><ele>283.0</ele><time>2026-04-06T14:56:30.658Z</time></trkpt><trkpt lat="44.1040917" lon="10.4073183"><ele>283.0</ele><time>2026-04-06T14:56:32.658Z</time></trkpt><trkpt lat="44.1040983" lon="10.4071617"><ele>283.0</ele><time>2026-04-06T14:56:34.658Z</time></trkpt><trkpt lat="44.1040633" lon="10.40702"><ele>283.0</ele><time>2026-04-06T14:56:36.658Z</time></trkpt><trkpt lat="44.1040383" lon="10.4069383"><ele>283.0</ele><time>2026-04-06T14:56:37.658Z</time></trkpt><trkpt lat="44.1040117" lon="10.4068467"><ele>283.0</ele><time>2026-04-06T14:56:38.658Z</time></trkpt><trkpt lat="44.1039867" lon="10.4067417"><ele>283.0</ele><time>2026-04-06T14:56:39.658Z</time></trkpt><trkpt lat="44.10397" lon="10.4066217"><ele>283.0</ele><time>2026-04-06T14:56:40.658Z</time></trkpt><trkpt lat="44.10396" lon="10.4064883"><ele>283.0</ele><time>2026-04-06T14:56:41.658Z</time></trkpt><trkpt lat="44.10395" lon="10.4063483"><ele>283.4</ele><time>2026-04-06T14:56:42.658Z</time></trkpt><trkpt lat="44.1039383" lon="10.406205"><ele>283.8</ele><time>2026-04-06T14:56:43.658Z</time></trkpt><trkpt lat="44.1039217" lon="10.4060533"><ele>284.2</ele><time>2026-04-06T14:56:44.658Z</time></trkpt><trkpt lat="44.1039083" lon="10.4058967"><ele>284.6</ele><time>2026-04-06T14:56:45.658Z</time></trkpt><trkpt lat="44.103895" lon="10.4057333"><ele>285.0</ele><time>2026-04-06T14:56:46.658Z</time></trkpt><trkpt lat="44.10388" lon="10.4055583"><ele>285.75</ele><time>2026-04-06T14:56:47.658Z</time></trkpt><trkpt lat="44.10386" lon="10.4053833"><ele>286.5</ele><time>2026-04-06T14:56:48.659Z</time></trkpt><trkpt lat="44.103845" lon="10.4052133"><ele>287.25</ele><time>2026-04-06T14:56:49.658Z</time></trkpt><trkpt lat="44.10383" lon="10.4050417"><ele>288.0</ele><time>2026-04-06T14:56:50.658Z</time></trkpt><trkpt lat="44.103815" lon="10.404865"><ele>288.0</ele><time>2026-04-06T14:56:51.658Z</time></trkpt><trkpt lat="44.1037967" lon="10.4046867"><ele>288.0</ele><time>2026-04-06T14:56:52.658Z</time></trkpt><trkpt lat="44.1037833" lon="10.4045083"><ele>288.0</ele><time>2026-04-06T14:56:53.658Z</time></trkpt><trkpt lat="44.1037683" lon="10.4043317"><ele>288.0</ele><time>2026-04-06T14:56:54.658Z</time></trkpt><trkpt lat="44.10375" lon="10.4041533"><ele>287.5</ele><time>2026-04-06T14:56:55.659Z</time></trkpt><trkpt lat="44.1037283" lon="10.403975"><ele>287.0</ele><time>2026-04-06T14:56:56.658Z</time></trkpt><trkpt lat="44.1037067" lon="10.4037883"><ele>286.5</ele><time>2026-04-06T14:56:57.659Z</time></trkpt><trkpt lat="44.1036833" lon="10.4036"><ele>286.0</ele><time>2026-04-06T14:56:58.658Z</time></trkpt><trkpt lat="44.1036633" lon="10.403405"><ele>286.0</ele><time>2026-04-06T14:56:59.658Z</time></trkpt><trkpt lat="44.1036433" lon="10.4032067"><ele>286.0</ele><time>2026-04-06T14:57:00.658Z</time></trkpt><trkpt lat="44.1036233" lon="10.40301"><ele>286.0</ele><time>2026-04-06T14:57:01.658Z</time></trkpt><trkpt lat="44.1036033" lon="10.4028133"><ele>286.0</ele><time>2026-04-06T14:57:02.658Z</time></trkpt><trkpt lat="44.103585" lon="10.4026183"><ele>285.25</ele><time>2026-04-06T14:57:03.659Z</time></trkpt><trkpt lat="44.1035717" lon="10.402425"><ele>284.5</ele><time>2026-04-06T14:57:04.658Z</time></trkpt><trkpt lat="44.1035583" lon="10.4022333"><ele>283.75</ele><time>2026-04-06T14:57:05.658Z</time></trkpt><trkpt lat="44.103545" lon="10.40204"><ele>283.0</ele><time>2026-04-06T14:57:06.659Z</time></trkpt><trkpt lat="44.10353" lon="10.40185"><ele>282.75</ele><time>2026-04-06T14:57:07.658Z</time></trkpt><trkpt lat="44.1035167" lon="10.4016617"><ele>282.5</ele><time>2026-04-06T14:57:08.658Z</time></trkpt><trkpt lat="44.1035067" lon="10.4014783"><ele>282.25</ele><time>2026-04-06T14:57:09.658Z</time></trkpt><trkpt lat="44.103495" lon="10.4012933"><ele>282.0</ele><time>2026-04-06T14:57:10.658Z</time></trkpt><trkpt lat="44.1034783" lon="10.4011083"><ele>282.0</ele><time>2026-04-06T14:57:11.658Z</time></trkpt><trkpt lat="44.1034633" lon="10.400925"><ele>282.0</ele><time>2026-04-06T14:57:12.658Z</time></trkpt><trkpt lat="44.10344" lon="10.4007367"><ele>282.0</ele><time>2026-04-06T14:57:13.658Z</time></trkpt><trkpt lat="44.1034233" lon="10.4005567"><ele>282.0</ele><time>2026-04-06T14:57:14.658Z</time></trkpt><trkpt lat="44.1034083" lon="10.40038"><ele>282.25</ele><time>2026-04-06T14:57:15.658Z</time></trkpt><trkpt lat="44.103395" lon="10.4002083"><ele>282.5</ele><time>2026-04-06T14:57:16.658Z</time></trkpt><trkpt lat="44.1033817" lon="10.40004"><ele>282.75</ele><time>2026-04-06T14:57:17.658Z</time></trkpt><trkpt lat="44.1033683" lon="10.39987"><ele>283.0</ele><time>2026-04-06T14:57:18.658Z</time></trkpt><trkpt lat="44.103355" lon="10.399695"><ele>283.25</ele><time>2026-04-06T14:57:19.658Z</time></trkpt><trkpt lat="44.1033417" lon="10.3995283"><ele>283.5</ele><time>2026-04-06T14:57:20.658Z</time></trkpt><trkpt lat="44.1033317" lon="10.3993617"><ele>283.75</ele><time>2026-04-06T14:57:21.658Z</time></trkpt><trkpt lat="44.1033167" lon="10.3991883"><ele>284.0</ele><time>2026-04-06T14:57:22.658Z</time></trkpt><trkpt lat="44.1032967" lon="10.3990117"><ele>284.5</ele><time>2026-04-06T14:57:23.658Z</time></trkpt><trkpt lat="44.1032733" lon="10.39883"><ele>285.0</ele><time>2026-04-06T14:57:24.658Z</time></trkpt><trkpt lat="44.103245" lon="10.39864"><ele>285.5</ele><time>2026-04-06T14:57:25.659Z</time></trkpt><trkpt lat="44.1032133" lon="10.3984517"><ele>286.0</ele><time>2026-04-06T14:57:26.658Z</time></trkpt><trkpt lat="44.10318" lon="10.3982633"><ele>288.0</ele><time>2026-04-06T14:57:27.658Z</time></trkpt><trkpt lat="44.10315" lon="10.3980733"><ele>290.0</ele><time>2026-04-06T14:57:28.658Z</time></trkpt><trkpt lat="44.1031167" lon="10.39789"><ele>292.0</ele><time>2026-04-06T14:57:29.658Z</time></trkpt><trkpt lat="44.1030867" lon="10.3977083"><ele>294.0</ele><time>2026-04-06T14:57:30.658Z</time></trkpt><trkpt lat="44.1030533" lon="10.3975267"><ele>294.75</ele><time>2026-04-06T14:57:31.659Z</time></trkpt><trkpt lat="44.1030233" lon="10.397345"><ele>295.5</ele><time>2026-04-06T14:57:32.658Z</time></trkpt><trkpt lat="44.1029967" lon="10.3971633"><ele>296.25</ele><time>2026-04-06T14:57:33.659Z</time></trkpt><trkpt lat="44.1029633" lon="10.3969767"><ele>297.0</ele><time>2026-04-06T14:57:34.659Z</time></trkpt><trkpt lat="44.10293" lon="10.3967933"><ele>297.75</ele><time>2026-04-06T14:57:35.658Z</time></trkpt><trkpt lat="44.102895" lon="10.3966017"><ele>298.5</ele><time>2026-04-06T14:57:36.658Z</time></trkpt><trkpt lat="44.1028617" lon="10.3964117"><ele>299.25</ele><time>2026-04-06T14:57:37.659Z</time></trkpt><trkpt lat="44.1028217" lon="10.3962183"><ele>300.0</ele><time>2026-04-06T14:57:38.659Z</time></trkpt><trkpt lat="44.1027883" lon="10.39603"><ele>300.25</ele><time>2026-04-06T14:57:39.658Z</time></trkpt><trkpt lat="44.102755" lon="10.39584"><ele>300.5</ele><time>2026-04-06T14:57:40.658Z</time></trkpt><trkpt lat="44.1027217" lon="10.395655"><ele>300.75</ele><time>2026-04-06T14:57:41.659Z</time></trkpt><trkpt lat="44.1026867" lon="10.3954667"><ele>301.0</ele><time>2026-04-06T14:57:42.659Z</time></trkpt><trkpt lat="44.10265" lon="10.3952767"><ele>301.0</ele><time>2026-04-06T14:57:43.659Z</time></trkpt><trkpt lat="44.1026167" lon="10.3950883"><ele>301.0</ele><time>2026-04-06T14:57:44.658Z</time></trkpt><trkpt lat="44.1025867" lon="10.3948967"><ele>301.0</ele><time>2026-04-06T14:57:45.658Z</time></trkpt><trkpt lat="44.1025583" lon="10.3947067"><ele>301.0</ele><time>2026-04-06T14:57:46.658Z</time></trkpt><trkpt lat="44.1025267" lon="10.3945167"><ele>299.0</ele><time>2026-04-06T14:57:47.658Z</time></trkpt><trkpt lat="44.1024967" lon="10.3943267"><ele>297.0</ele><time>2026-04-06T14:57:48.659Z</time></trkpt><trkpt lat="44.10246" lon="10.3941367"><ele>295.0</ele><time>2026-04-06T14:57:49.659Z</time></trkpt><trkpt lat="44.1024317" lon="10.39395"><ele>293.0</ele><time>2026-04-06T14:57:50.659Z</time></trkpt><trkpt lat="44.1024017" lon="10.3937617"><ele>297.0</ele><time>2026-04-06T14:57:51.659Z</time></trkpt><trkpt lat="44.1023683" lon="10.3935733"><ele>301.0</ele><time>2026-04-06T14:57:52.66Z</time></trkpt><trkpt lat="44.1023383" lon="10.3933883"><ele>305.0</ele><time>2026-04-06T14:57:53.659Z</time></trkpt><trkpt lat="44.1023033" lon="10.3932"><ele>309.0</ele><time>2026-04-06T14:57:54.659Z</time></trkpt><trkpt lat="44.1022717" lon="10.3930117"><ele>305.75</ele><time>2026-04-06T14:57:55.659Z</time></trkpt><trkpt lat="44.10224" lon="10.3928233"><ele>302.5</ele><time>2026-04-06T14:57:56.659Z</time></trkpt><trkpt lat="44.10221" lon="10.3926383"><ele>299.25</ele><time>2026-04-06T14:57:57.659Z</time></trkpt><trkpt lat="44.1021817" lon="10.3924567"><ele>296.0</ele><time>2026-04-06T14:57:58.66Z</time></trkpt><trkpt lat="44.10215" lon="10.39227"><ele>296.0</ele><time>2026-04-06T14:57:59.659Z</time></trkpt><trkpt lat="44.1021233" lon="10.3920817"><ele>296.0</ele><time>2026-04-06T14:58:00.659Z</time></trkpt><trkpt lat="44.10211" lon="10.391895"><ele>296.0</ele><time>2026-04-06T14:58:01.659Z</time></trkpt><trkpt lat="44.102115" lon="10.3917067"><ele>296.0</ele><time>2026-04-06T14:58:02.659Z</time></trkpt><trkpt lat="44.1021317" lon="10.3915233"><ele>296.75</ele><time>2026-04-06T14:58:03.659Z</time></trkpt><trkpt lat="44.1021517" lon="10.39134"><ele>297.5</ele><time>2026-04-06T14:58:04.659Z</time></trkpt><trkpt lat="44.1021733" lon="10.3911567"><ele>298.25</ele><time>2026-04-06T14:58:05.659Z</time></trkpt><trkpt lat="44.102205" lon="10.3909767"><ele>299.0</ele><time>2026-04-06T14:58:06.66Z</time></trkpt><trkpt lat="44.102235" lon="10.3907967"><ele>299.0</ele><time>2026-04-06T14:58:07.66Z</time></trkpt><trkpt lat="44.1022683" lon="10.3906133"><ele>299.0</ele><time>2026-04-06T14:58:08.659Z</time></trkpt><trkpt lat="44.102305" lon="10.3904283"><ele>299.0</ele><time>2026-04-06T14:58:09.66Z</time></trkpt><trkpt lat="44.1023433" lon="10.3902467"><ele>299.0</ele><time>2026-04-06T14:58:10.66Z</time></trkpt><trkpt lat="44.10238" lon="10.39006"><ele>299.5</ele><time>2026-04-06T14:58:11.659Z</time></trkpt><trkpt lat="44.1024133" lon="10.389865"><ele>300.0</ele><time>2026-04-06T14:58:12.66Z</time></trkpt><trkpt lat="44.102445" lon="10.3896683"><ele>300.5</ele><time>2026-04-06T14:58:13.66Z</time></trkpt><trkpt lat="44.102485" lon="10.3894717"><ele>301.0</ele><time>2026-04-06T14:58:14.659Z</time></trkpt><trkpt lat="44.1025183" lon="10.3892733"><ele>301.0</ele><time>2026-04-06T14:58:15.659Z</time></trkpt><trkpt lat="44.1025533" lon="10.3890733"><ele>301.0</ele><time>2026-04-06T14:58:16.659Z</time></trkpt><trkpt lat="44.1025933" lon="10.3888733"><ele>301.0</ele><time>2026-04-06T14:58:17.659Z</time></trkpt><trkpt lat="44.10263" lon="10.3886717"><ele>301.0</ele><time>2026-04-06T14:58:18.659Z</time></trkpt><trkpt lat="44.1026633" lon="10.3884717"><ele>301.0</ele><time>2026-04-06T14:58:19.659Z</time></trkpt><trkpt lat="44.1026967" lon="10.3882683"><ele>301.0</ele><time>2026-04-06T14:58:20.659Z</time></trkpt><trkpt lat="44.1027267" lon="10.388065"><ele>301.0</ele><time>2026-04-06T14:58:21.659Z</time></trkpt><trkpt lat="44.1027567" lon="10.387865"><ele>301.0</ele><time>2026-04-06T14:58:22.659Z</time></trkpt><trkpt lat="44.102775" lon="10.3876733"><ele>302.25</ele><time>2026-04-06T14:58:23.66Z</time></trkpt><trkpt lat="44.102785" lon="10.3874867"><ele>303.5</ele><time>2026-04-06T14:58:24.659Z</time></trkpt><trkpt lat="44.1027833" lon="10.387305"><ele>304.75</ele><time>2026-04-06T14:58:25.659Z</time></trkpt><trkpt lat="44.1027683" lon="10.387125"><ele>306.0</ele><time>2026-04-06T14:58:26.659Z</time></trkpt><trkpt lat="44.1027383" lon="10.3869467"><ele>306.25</ele><time>2026-04-06T14:58:27.659Z</time></trkpt><trkpt lat="44.10271" lon="10.38677"><ele>306.5</ele><time>2026-04-06T14:58:28.659Z</time></trkpt><trkpt lat="44.1026767" lon="10.3865967"><ele>306.75</ele><time>2026-04-06T14:58:29.659Z</time></trkpt><trkpt lat="44.1026417" lon="10.386425"><ele>307.0</ele><time>2026-04-06T14:58:30.659Z</time></trkpt><trkpt lat="44.1026083" lon="10.38625"><ele>307.0</ele><time>2026-04-06T14:58:31.659Z</time></trkpt><trkpt lat="44.10257" lon="10.3860767"><ele>307.0</ele><time>2026-04-06T14:58:32.659Z</time></trkpt><trkpt lat="44.102535" lon="10.3859083"><ele>307.0</ele><time>2026-04-06T14:58:33.659Z</time></trkpt><trkpt lat="44.1025017" lon="10.3857467"><ele>307.0</ele><time>2026-04-06T14:58:34.659Z</time></trkpt><trkpt lat="44.1024617" lon="10.385595"><ele>311.25</ele><time>2026-04-06T14:58:35.659Z</time></trkpt><trkpt lat="44.1024033" lon="10.385455"><ele>315.5</ele><time>2026-04-06T14:58:36.659Z</time></trkpt><trkpt lat="44.1023233" lon="10.3853333"><ele>319.75</ele><time>2026-04-06T14:58:37.66Z</time></trkpt><trkpt lat="44.1022333" lon="10.3852233"><ele>324.0</ele><time>2026-04-06T14:58:38.66Z</time></trkpt><trkpt lat="44.1021267" lon="10.3851283"><ele>324.0</ele><time>2026-04-06T14:58:39.659Z</time></trkpt><trkpt lat="44.1020017" lon="10.385045"><ele>324.0</ele><time>2026-04-06T14:58:40.659Z</time></trkpt><trkpt lat="44.10188" lon="10.3849683"><ele>324.0</ele><time>2026-04-06T14:58:41.659Z</time></trkpt><trkpt lat="44.101745" lon="10.3848983"><ele>324.0</ele><time>2026-04-06T14:58:42.659Z</time></trkpt><trkpt lat="44.101625" lon="10.3848283"><ele>323.0</ele><time>2026-04-06T14:58:43.659Z</time></trkpt><trkpt lat="44.10151" lon="10.3847517"><ele>322.0</ele><time>2026-04-06T14:58:44.66Z</time></trkpt><trkpt lat="44.1014017" lon="10.3846717"><ele>321.0</ele><time>2026-04-06T14:58:45.659Z</time></trkpt><trkpt lat="44.1013017" lon="10.3845817"><ele>320.0</ele><time>2026-04-06T14:58:46.659Z</time></trkpt><trkpt lat="44.1012017" lon="10.3844883"><ele>320.0</ele><time>2026-04-06T14:58:47.659Z</time></trkpt><trkpt lat="44.1011033" lon="10.3843933"><ele>320.0</ele><time>2026-04-06T14:58:48.659Z</time></trkpt><trkpt lat="44.101005" lon="10.3842967"><ele>320.0</ele><time>2026-04-06T14:58:49.659Z</time></trkpt><trkpt lat="44.10091" lon="10.384195"><ele>320.0</ele><time>2026-04-06T14:58:50.659Z</time></trkpt><trkpt lat="44.10082" lon="10.38409"><ele>317.25</ele><time>2026-04-06T14:58:51.659Z</time></trkpt><trkpt lat="44.10073" lon="10.3839883"><ele>314.5</ele><time>2026-04-06T14:58:52.659Z</time></trkpt><trkpt lat="44.10064" lon="10.3838933"><ele>311.75</ele><time>2026-04-06T14:58:53.659Z</time></trkpt><trkpt lat="44.10055" lon="10.38381"><ele>309.0</ele><time>2026-04-06T14:58:54.659Z</time></trkpt><trkpt lat="44.1004517" lon="10.3837333"><ele>309.0</ele><time>2026-04-06T14:58:55.659Z</time></trkpt><trkpt lat="44.100345" lon="10.3836817"><ele>309.0</ele><time>2026-04-06T14:58:56.659Z</time></trkpt><trkpt lat="44.1002417" lon="10.3836467"><ele>309.0</ele><time>2026-04-06T14:58:57.659Z</time></trkpt><trkpt lat="44.100135" lon="10.3836217"><ele>309.0</ele><time>2026-04-06T14:58:58.659Z</time></trkpt><trkpt lat="44.1000417" lon="10.3835917"><ele>309.0</ele><time>2026-04-06T14:58:59.66Z</time></trkpt><trkpt lat="44.0999583" lon="10.3835483"><ele>310.5</ele><time>2026-04-06T14:59:00.66Z</time></trkpt><trkpt lat="44.0998733" lon="10.3834983"><ele>312.0</ele><time>2026-04-06T14:59:01.659Z</time></trkpt><trkpt lat="44.0997983" lon="10.38344"><ele>313.5</ele><time>2026-04-06T14:59:02.659Z</time></trkpt><trkpt lat="44.09973" lon="10.38336"><ele>315.0</ele><time>2026-04-06T14:59:03.659Z</time></trkpt><trkpt lat="44.0996633" lon="10.383275"><ele>316.5</ele><time>2026-04-06T14:59:04.659Z</time></trkpt><trkpt lat="44.0995883" lon="10.3832067"><ele>318.0</ele><time>2026-04-06T14:59:05.659Z</time></trkpt><trkpt lat="44.0994983" lon="10.3831683"><ele>318.0</ele><time>2026-04-06T14:59:06.659Z</time></trkpt><trkpt lat="44.0994" lon="10.3831767"><ele>318.0</ele><time>2026-04-06T14:59:07.659Z</time></trkpt><trkpt lat="44.0992867" lon="10.3832233"><ele>318.0</ele><time>2026-04-06T14:59:08.66Z</time></trkpt><trkpt lat="44.0991567" lon="10.3833033"><ele>318.0</ele><time>2026-04-06T14:59:09.659Z</time></trkpt><trkpt lat="44.0990233" lon="10.3833783"><ele>322.5</ele><time>2026-04-06T14:59:10.659Z</time></trkpt><trkpt lat="44.0988883" lon="10.38345"><ele>327.0</ele><time>2026-04-06T14:59:11.659Z</time></trkpt><trkpt lat="44.0987567" lon="10.383525"><ele>331.5</ele><time>2026-04-06T14:59:12.659Z</time></trkpt><trkpt lat="44.098625" lon="10.3835983"><ele>336.0</ele><time>2026-04-06T14:59:13.659Z</time></trkpt><trkpt lat="44.0984983" lon="10.38367"><ele>336.0</ele><time>2026-04-06T14:59:14.659Z</time></trkpt><trkpt lat="44.0983617" lon="10.3837267"><ele>336.0</ele><time>2026-04-06T14:59:15.659Z</time></trkpt><trkpt lat="44.0982283" lon="10.3837783"><ele>336.0</ele><time>2026-04-06T14:59:16.659Z</time></trkpt><trkpt lat="44.0980917" lon="10.3838183"><ele>336.0</ele><time>2026-04-06T14:59:17.659Z</time></trkpt><trkpt lat="44.0979533" lon="10.3838633"><ele>337.5</ele><time>2026-04-06T14:59:18.659Z</time></trkpt><trkpt lat="44.09782" lon="10.3838783"><ele>339.0</ele><time>2026-04-06T14:59:19.659Z</time></trkpt><trkpt lat="44.09768" lon="10.38388"><ele>340.5</ele><time>2026-04-06T14:59:20.659Z</time></trkpt><trkpt lat="44.09754" lon="10.3838867"><ele>342.0</ele><time>2026-04-06T14:59:21.659Z</time></trkpt><trkpt lat="44.0973983" lon="10.3838933"><ele>342.0</ele><time>2026-04-06T14:59:22.659Z</time></trkpt><trkpt lat="44.09726" lon="10.3839217"><ele>342.0</ele><time>2026-04-06T14:59:23.659Z</time></trkpt><trkpt lat="44.0971233" lon="10.383975"><ele>342.0</ele><time>2026-04-06T14:59:24.659Z</time></trkpt><trkpt lat="44.0969833" lon="10.3840517"><ele>342.0</ele><time>2026-04-06T14:59:25.659Z</time></trkpt><trkpt lat="44.0968517" lon="10.3841433"><ele>342.0</ele><time>2026-04-06T14:59:26.659Z</time></trkpt><trkpt lat="44.0967217" lon="10.3842433"><ele>342.0</ele><time>2026-04-06T14:59:27.66Z</time></trkpt><trkpt lat="44.096595" lon="10.3843483"><ele>342.0</ele><time>2026-04-06T14:59:28.659Z</time></trkpt><trkpt lat="44.09647" lon="10.38446"><ele>342.0</ele><time>2026-04-06T14:59:29.66Z</time></trkpt><trkpt lat="44.0963583" lon="10.3845833"><ele>346.25</ele><time>2026-04-06T14:59:30.659Z</time></trkpt><trkpt lat="44.0962667" lon="10.38472"><ele>350.5</ele><time>2026-04-06T14:59:31.659Z</time></trkpt><trkpt lat="44.0962117" lon="10.38488"><ele>354.75</ele><time>2026-04-06T14:59:32.659Z</time></trkpt><trkpt lat="44.0961767" lon="10.3850517"><ele>359.0</ele><time>2026-04-06T14:59:33.659Z</time></trkpt><trkpt lat="44.0961533" lon="10.3852317"><ele>359.0</ele><time>2026-04-06T14:59:34.659Z</time></trkpt><trkpt lat="44.0961283" lon="10.3854033"><ele>359.0</ele><time>2026-04-06T14:59:35.659Z</time></trkpt><trkpt lat="44.0960933" lon="10.3855667"><ele>359.0</ele><time>2026-04-06T14:59:36.659Z</time></trkpt><trkpt lat="44.09602" lon="10.3857"><ele>359.0</ele><time>2026-04-06T14:59:37.659Z</time></trkpt><trkpt lat="44.0959383" lon="10.385815"><ele>358.25</ele><time>2026-04-06T14:59:38.66Z</time></trkpt><trkpt lat="44.0958233" lon="10.385895"><ele>357.5</ele><time>2026-04-06T14:59:39.659Z</time></trkpt><trkpt lat="44.0956967" lon="10.3859483"><ele>356.75</ele><time>2026-04-06T14:59:40.659Z</time></trkpt><trkpt lat="44.09556" lon="10.3859933"><ele>356.0</ele><time>2026-04-06T14:59:41.659Z</time></trkpt><trkpt lat="44.0954267" lon="10.3860367"><ele>356.0</ele><time>2026-04-06T14:59:42.659Z</time></trkpt><trkpt lat="44.095285" lon="10.3860667"><ele>356.0</ele><time>2026-04-06T14:59:43.659Z</time></trkpt><trkpt lat="44.0951383" lon="10.3860867"><ele>356.0</ele><time>2026-04-06T14:59:44.659Z</time></trkpt><trkpt lat="44.094985" lon="10.3860983"><ele>356.0</ele><time>2026-04-06T14:59:45.659Z</time></trkpt><trkpt lat="44.0948267" lon="10.3860983"><ele>351.0</ele><time>2026-04-06T14:59:46.66Z</time></trkpt><trkpt lat="44.0946667" lon="10.3860717"><ele>346.0</ele><time>2026-04-06T14:59:47.659Z</time></trkpt><trkpt lat="44.094515" lon="10.3860717"><ele>341.0</ele><time>2026-04-06T14:59:48.659Z</time></trkpt><trkpt lat="44.094365" lon="10.3860517"><ele>341.0</ele><time>2026-04-06T14:59:49.659Z</time></trkpt><trkpt lat="44.0942167" lon="10.3860317"><ele>341.0</ele><time>2026-04-06T14:59:50.659Z</time></trkpt><trkpt lat="44.0940667" lon="10.3860017"><ele>341.0</ele><time>2026-04-06T14:59:51.659Z</time></trkpt><trkpt lat="44.0939167" lon="10.3859583"><ele>339.25</ele><time>2026-04-06T14:59:52.659Z</time></trkpt><trkpt lat="44.093765" lon="10.3859117"><ele>337.5</ele><time>2026-04-06T14:59:53.659Z</time></trkpt><trkpt lat="44.0936167" lon="10.3858783"><ele>335.75</ele><time>2026-04-06T14:59:54.659Z</time></trkpt><trkpt lat="44.0934733" lon="10.3858633"><ele>334.0</ele><time>2026-04-06T14:59:55.659Z</time></trkpt><trkpt lat="44.093325" lon="10.3858483"><ele>332.25</ele><time>2026-04-06T14:59:56.66Z</time></trkpt><trkpt lat="44.0931817" lon="10.3858067"><ele>330.5</ele><time>2026-04-06T14:59:57.659Z</time></trkpt><trkpt lat="44.0930383" lon="10.3857733"><ele>328.75</ele><time>2026-04-06T14:59:58.659Z</time></trkpt><trkpt lat="44.092895" lon="10.385735"><ele>327.0</ele><time>2026-04-06T14:59:59.659Z</time></trkpt><trkpt lat="44.0927517" lon="10.385685"><ele>327.0</ele><time>2026-04-06T15:00:00.659Z</time></trkpt><trkpt lat="44.0926117" lon="10.3856267"><ele>327.0</ele><time>2026-04-06T15:00:01.659Z</time></trkpt><trkpt lat="44.0924767" lon="10.3855633"><ele>327.0</ele><time>2026-04-06T15:00:02.659Z</time></trkpt><trkpt lat="44.0923417" lon="10.385485"><ele>327.0</ele><time>2026-04-06T15:00:03.659Z</time></trkpt><trkpt lat="44.09221" lon="10.3853917"><ele>328.3333333333333</ele><time>2026-04-06T15:00:04.66Z</time></trkpt><trkpt lat="44.092095" lon="10.3852467"><ele>329.66666666666663</ele><time>2026-04-06T15:00:05.659Z</time></trkpt><trkpt lat="44.0919683" lon="10.3851267"><ele>331.0</ele><time>2026-04-06T15:00:06.659Z</time></trkpt><trkpt lat="44.091835" lon="10.385015"><ele>331.0</ele><time>2026-04-06T15:00:07.659Z</time></trkpt><trkpt lat="44.091695" lon="10.3849167"><ele>331.0</ele><time>2026-04-06T15:00:08.659Z</time></trkpt><trkpt lat="44.0915483" lon="10.3848367"><ele>331.0</ele><time>2026-04-06T15:00:09.659Z</time></trkpt><trkpt lat="44.0914017" lon="10.3847517"><ele>332.66666666666663</ele><time>2026-04-06T15:00:10.659Z</time></trkpt><trkpt lat="44.0912467" lon="10.3846783"><ele>334.3333333333333</ele><time>2026-04-06T15:00:11.659Z</time></trkpt><trkpt lat="44.091105" lon="10.3845933"><ele>336.0</ele><time>2026-04-06T15:00:12.659Z</time></trkpt><trkpt lat="44.0909617" lon="10.38453"><ele>336.0</ele><time>2026-04-06T15:00:13.659Z</time></trkpt><trkpt lat="44.09082" lon="10.38447"><ele>336.0</ele><time>2026-04-06T15:00:14.659Z</time></trkpt><trkpt lat="44.0906783" lon="10.3844067"><ele>336.0</ele><time>2026-04-06T15:00:15.66Z</time></trkpt><trkpt lat="44.0905367" lon="10.384345"><ele>336.0</ele><time>2026-04-06T15:00:16.659Z</time></trkpt><trkpt lat="44.090395" lon="10.38427"><ele>334.0</ele><time>2026-04-06T15:00:17.66Z</time></trkpt><trkpt lat="44.090255" lon="10.3841767"><ele>332.0</ele><time>2026-04-06T15:00:18.659Z</time></trkpt><trkpt lat="44.0901267" lon="10.3840633"><ele>330.0</ele><time>2026-04-06T15:00:19.659Z</time></trkpt><trkpt lat="44.0899967" lon="10.3839417"><ele>331.6666666666667</ele><time>2026-04-06T15:00:20.66Z</time></trkpt><trkpt lat="44.0898733" lon="10.383815"><ele>333.33333333333337</ele><time>2026-04-06T15:00:21.659Z</time></trkpt><trkpt lat="44.0897533" lon="10.383685"><ele>335.0</ele><time>2026-04-06T15:00:22.659Z</time></trkpt><trkpt lat="44.0896417" lon="10.3835517"><ele>335.0</ele><time>2026-04-06T15:00:23.659Z</time></trkpt><trkpt lat="44.0895467" lon="10.3833967"><ele>335.0</ele><time>2026-04-06T15:00:24.66Z</time></trkpt><trkpt lat="44.0894767" lon="10.3832233"><ele>335.0</ele><time>2026-04-06T15:00:25.66Z</time></trkpt><trkpt lat="44.0894283" lon="10.3830317"><ele>335.0</ele><time>2026-04-06T15:00:26.659Z</time></trkpt><trkpt lat="44.0893917" lon="10.3828367"><ele>334.6666666666667</ele><time>2026-04-06T15:00:27.659Z</time></trkpt><trkpt lat="44.089405" lon="10.3826367"><ele>334.3333333333333</ele><time>2026-04-06T15:00:28.659Z</time></trkpt><trkpt lat="44.0894317" lon="10.3824317"><ele>334.0</ele><time>2026-04-06T15:00:29.659Z</time></trkpt><trkpt lat="44.08946" lon="10.3822183"><ele>336.0</ele><time>2026-04-06T15:00:30.659Z</time></trkpt><trkpt lat="44.089495" lon="10.3820033"><ele>338.0</ele><time>2026-04-06T15:00:31.66Z</time></trkpt><trkpt lat="44.0895333" lon="10.38179"><ele>340.0</ele><time>2026-04-06T15:00:32.659Z</time></trkpt><trkpt lat="44.089565" lon="10.3815717"><ele>340.0</ele><time>2026-04-06T15:00:33.659Z</time></trkpt><trkpt lat="44.0896033" lon="10.381365"><ele>340.0</ele><time>2026-04-06T15:00:34.659Z</time></trkpt><trkpt lat="44.0896483" lon="10.3811633"><ele>340.0</ele><time>2026-04-06T15:00:35.659Z</time></trkpt><trkpt lat="44.0897083" lon="10.3809733"><ele>340.25</ele><time>2026-04-06T15:00:36.659Z</time></trkpt><trkpt lat="44.0897833" lon="10.380795"><ele>340.5</ele><time>2026-04-06T15:00:37.659Z</time></trkpt><trkpt lat="44.0898467" lon="10.38062"><ele>340.75</ele><time>2026-04-06T15:00:38.659Z</time></trkpt><trkpt lat="44.0898883" lon="10.3804417"><ele>341.0</ele><time>2026-04-06T15:00:39.66Z</time></trkpt><trkpt lat="44.0898983" lon="10.3802667"><ele>339.75</ele><time>2026-04-06T15:00:40.659Z</time></trkpt><trkpt lat="44.0898683" lon="10.38009"><ele>338.5</ele><time>2026-04-06T15:00:41.659Z</time></trkpt><trkpt lat="44.08982" lon="10.3799133"><ele>337.25</ele><time>2026-04-06T15:00:42.66Z</time></trkpt><trkpt lat="44.0897717" lon="10.379725"><ele>336.0</ele><time>2026-04-06T15:00:43.659Z</time></trkpt><trkpt lat="44.0897167" lon="10.3795433"><ele>339.0</ele><time>2026-04-06T15:00:44.659Z</time></trkpt><trkpt lat="44.0896333" lon="10.3793817"><ele>342.0</ele><time>2026-04-06T15:00:45.659Z</time></trkpt><trkpt lat="44.08953" lon="10.3792583"><ele>345.0</ele><time>2026-04-06T15:00:46.659Z</time></trkpt><trkpt lat="44.0894067" lon="10.3791683"><ele>348.0</ele><time>2026-04-06T15:00:47.659Z</time></trkpt><trkpt lat="44.0892967" lon="10.3790533"><ele>348.0</ele><time>2026-04-06T15:00:48.659Z</time></trkpt><trkpt lat="44.0891517" lon="10.3790183"><ele>348.0</ele><time>2026-04-06T15:00:49.659Z</time></trkpt><trkpt lat="44.0889983" lon="10.3789967"><ele>348.0</ele><time>2026-04-06T15:00:50.66Z</time></trkpt><trkpt lat="44.088845" lon="10.378985"><ele>345.75</ele><time>2026-04-06T15:00:51.659Z</time></trkpt><trkpt lat="44.0886967" lon="10.3790133"><ele>343.5</ele><time>2026-04-06T15:00:52.66Z</time></trkpt><trkpt lat="44.0885683" lon="10.379005"><ele>341.25</ele><time>2026-04-06T15:00:53.659Z</time></trkpt><trkpt lat="44.08846" lon="10.37899"><ele>339.0</ele><time>2026-04-06T15:00:54.659Z</time></trkpt><trkpt lat="44.0883817" lon="10.378935"><ele>342.0</ele><time>2026-04-06T15:00:55.659Z</time></trkpt><trkpt lat="44.0883283" lon="10.3788433"><ele>345.0</ele><time>2026-04-06T15:00:56.66Z</time></trkpt><trkpt lat="44.0882933" lon="10.3787217"><ele>348.0</ele><time>2026-04-06T15:00:57.659Z</time></trkpt><trkpt lat="44.0882633" lon="10.3785933"><ele>351.0</ele><time>2026-04-06T15:00:58.659Z</time></trkpt><trkpt lat="44.0882533" lon="10.37846"><ele>354.0</ele><time>2026-04-06T15:00:59.659Z</time></trkpt><trkpt lat="44.0882467" lon="10.3783267"><ele>354.0</ele><time>2026-04-06T15:01:00.659Z</time></trkpt><trkpt lat="44.0882833" lon="10.3781667"><ele>354.0</ele><time>2026-04-06T15:01:01.659Z</time></trkpt><trkpt lat="44.0884467" lon="10.378005"><ele>354.0</ele><time>2026-04-06T15:01:02.659Z</time></trkpt><trkpt lat="44.0885433" lon="10.3778483"><ele>354.5</ele><time>2026-04-06T15:01:03.659Z</time></trkpt><trkpt lat="44.0886333" lon="10.377695"><ele>355.0</ele><time>2026-04-06T15:01:04.659Z</time></trkpt><trkpt lat="44.0887117" lon="10.377535"><ele>355.5</ele><time>2026-04-06T15:01:05.659Z</time></trkpt><trkpt lat="44.08879" lon="10.377375"><ele>356.0</ele><time>2026-04-06T15:01:06.66Z</time></trkpt><trkpt lat="44.088875" lon="10.377215"><ele>356.25</ele><time>2026-04-06T15:01:07.659Z</time></trkpt><trkpt lat="44.08895" lon="10.3770483"><ele>356.5</ele><time>2026-04-06T15:01:08.659Z</time></trkpt><trkpt lat="44.0890117" lon="10.3768767"><ele>356.75</ele><time>2026-04-06T15:01:09.659Z</time></trkpt><trkpt lat="44.0890683" lon="10.3767133"><ele>357.0</ele><time>2026-04-06T15:01:10.659Z</time></trkpt><trkpt lat="44.0891433" lon="10.3765633"><ele>357.0</ele><time>2026-04-06T15:01:11.659Z</time></trkpt><trkpt lat="44.089205" lon="10.3764133"><ele>357.0</ele><time>2026-04-06T15:01:12.659Z</time></trkpt><trkpt lat="44.0892917" lon="10.3762883"><ele>357.0</ele><time>2026-04-06T15:01:13.659Z</time></trkpt><trkpt lat="44.0893733" lon="10.3761767"><ele>357.0</ele><time>2026-04-06T15:01:14.659Z</time></trkpt><trkpt lat="44.08945" lon="10.3760767"><ele>357.8</ele><time>2026-04-06T15:01:15.66Z</time></trkpt><trkpt lat="44.0895167" lon="10.3759717"><ele>358.6</ele><time>2026-04-06T15:01:16.659Z</time></trkpt><trkpt lat="44.0895717" lon="10.3758717"><ele>359.40000000000003</ele><time>2026-04-06T15:01:17.66Z</time></trkpt><trkpt lat="44.0896" lon="10.3757467"><ele>360.20000000000005</ele><time>2026-04-06T15:01:18.66Z</time></trkpt><trkpt lat="44.0896017" lon="10.375615"><ele>361.0</ele><time>2026-04-06T15:01:19.659Z</time></trkpt><trkpt lat="44.08957" lon="10.375475"><ele>361.0</ele><time>2026-04-06T15:01:20.66Z</time></trkpt><trkpt lat="44.089555" lon="10.3753517"><ele>361.0</ele><time>2026-04-06T15:01:21.659Z</time></trkpt><trkpt lat="44.0894833" lon="10.375225"><ele>361.0</ele><time>2026-04-06T15:01:22.659Z</time></trkpt><trkpt lat="44.08934" lon="10.37507"><ele>361.0</ele><time>2026-04-06T15:01:23.659Z</time></trkpt><trkpt lat="44.0891917" lon="10.375035"><ele>358.0</ele><time>2026-04-06T15:01:24.659Z</time></trkpt><trkpt lat="44.0890533" lon="10.374995"><ele>355.0</ele><time>2026-04-06T15:01:25.659Z</time></trkpt><trkpt lat="44.0888967" lon="10.3749767"><ele>352.0</ele><time>2026-04-06T15:01:26.659Z</time></trkpt><trkpt lat="44.088765" lon="10.3749317"><ele>349.0</ele><time>2026-04-06T15:01:27.66Z</time></trkpt><trkpt lat="44.08863" lon="10.3748817"><ele>349.0</ele><time>2026-04-06T15:01:28.659Z</time></trkpt><trkpt lat="44.0884933" lon="10.37484"><ele>349.0</ele><time>2026-04-06T15:01:29.66Z</time></trkpt><trkpt lat="44.0883683" lon="10.3748017"><ele>349.0</ele><time>2026-04-06T15:01:30.659Z</time></trkpt><trkpt lat="44.0882533" lon="10.3747433"><ele>349.0</ele><time>2026-04-06T15:01:31.659Z</time></trkpt><trkpt lat="44.0881517" lon="10.3746617"><ele>345.5</ele><time>2026-04-06T15:01:32.659Z</time></trkpt><trkpt lat="44.0880717" lon="10.3745533"><ele>342.0</ele><time>2026-04-06T15:01:33.659Z</time></trkpt><trkpt lat="44.0880083" lon="10.374415"><ele>338.5</ele><time>2026-04-06T15:01:34.659Z</time></trkpt><trkpt lat="44.0879517" lon="10.3742567"><ele>335.0</ele><time>2026-04-06T15:01:35.659Z</time></trkpt><trkpt lat="44.087895" lon="10.37408"><ele>335.0</ele><time>2026-04-06T15:01:36.66Z</time></trkpt><trkpt lat="44.087845" lon="10.3738967"><ele>335.0</ele><time>2026-04-06T15:01:37.659Z</time></trkpt><trkpt lat="44.0877917" lon="10.3737133"><ele>335.0</ele><time>2026-04-06T15:01:38.659Z</time></trkpt><trkpt lat="44.087735" lon="10.3735317"><ele>335.0</ele><time>2026-04-06T15:01:39.659Z</time></trkpt><trkpt lat="44.0876783" lon="10.3733583"><ele>336.25</ele><time>2026-04-06T15:01:40.659Z</time></trkpt><trkpt lat="44.0876233" lon="10.3731867"><ele>337.5</ele><time>2026-04-06T15:01:41.66Z</time></trkpt><trkpt lat="44.0875733" lon="10.37301"><ele>338.75</ele><time>2026-04-06T15:01:42.659Z</time></trkpt><trkpt lat="44.0875117" lon="10.37285"><ele>340.0</ele><time>2026-04-06T15:01:43.659Z</time></trkpt><trkpt lat="44.0874317" lon="10.372705"><ele>341.5</ele><time>2026-04-06T15:01:44.659Z</time></trkpt><trkpt lat="44.0873433" lon="10.3725617"><ele>343.0</ele><time>2026-04-06T15:01:45.659Z</time></trkpt><trkpt lat="44.0872467" lon="10.3724233"><ele>344.5</ele><time>2026-04-06T15:01:46.659Z</time></trkpt><trkpt lat="44.0871383" lon="10.3722867"><ele>346.0</ele><time>2026-04-06T15:01:47.659Z</time></trkpt><trkpt lat="44.0870317" lon="10.3721517"><ele>347.5</ele><time>2026-04-06T15:01:48.659Z</time></trkpt><trkpt lat="44.0869333" lon="10.372015"><ele>349.0</ele><time>2026-04-06T15:01:49.659Z</time></trkpt><trkpt lat="44.0868333" lon="10.3718783"><ele>350.5</ele><time>2026-04-06T15:01:50.659Z</time></trkpt><trkpt lat="44.08674" lon="10.37175"><ele>352.0</ele><time>2026-04-06T15:01:51.659Z</time></trkpt><trkpt lat="44.08666" lon="10.3716183"><ele>352.0</ele><time>2026-04-06T15:01:52.659Z</time></trkpt><trkpt lat="44.0865983" lon="10.371475"><ele>352.0</ele><time>2026-04-06T15:01:53.659Z</time></trkpt><trkpt lat="44.086545" lon="10.3713183"><ele>352.0</ele><time>2026-04-06T15:01:54.659Z</time></trkpt><trkpt lat="44.0864933" lon="10.371165"><ele>352.0</ele><time>2026-04-06T15:01:55.659Z</time></trkpt><trkpt lat="44.08642" lon="10.371045"><ele>356.75</ele><time>2026-04-06T15:01:56.659Z</time></trkpt><trkpt lat="44.0863433" lon="10.3709517"><ele>361.5</ele><time>2026-04-06T15:01:57.659Z</time></trkpt><trkpt lat="44.0862483" lon="10.3708817"><ele>366.25</ele><time>2026-04-06T15:01:58.659Z</time></trkpt><trkpt lat="44.08613" lon="10.3708467"><ele>371.0</ele><time>2026-04-06T15:01:59.659Z</time></trkpt><trkpt lat="44.0859967" lon="10.3708433"><ele>371.0</ele><time>2026-04-06T15:02:00.659Z</time></trkpt><trkpt lat="44.08587" lon="10.3709017"><ele>371.0</ele><time>2026-04-06T15:02:01.659Z</time></trkpt><trkpt lat="44.0857433" lon="10.370965"><ele>371.0</ele><time>2026-04-06T15:02:02.659Z</time></trkpt><trkpt lat="44.0856167" lon="10.3710267"><ele>371.0</ele><time>2026-04-06T15:02:03.659Z</time></trkpt><trkpt lat="44.0854917" lon="10.3710783"><ele>366.6</ele><time>2026-04-06T15:02:04.659Z</time></trkpt><trkpt lat="44.0853717" lon="10.3710933"><ele>362.20000000000005</ele><time>2026-04-06T15:02:05.659Z</time></trkpt><trkpt lat="44.08526" lon="10.371095"><ele>357.79999999999995</ele><time>2026-04-06T15:02:06.659Z</time></trkpt><trkpt lat="44.0851517" lon="10.37108"><ele>353.4</ele><time>2026-04-06T15:02:07.659Z</time></trkpt><trkpt lat="44.0850483" lon="10.371045"><ele>349.0</ele><time>2026-04-06T15:02:08.659Z</time></trkpt><trkpt lat="44.08496" lon="10.371005"><ele>350.0</ele><time>2026-04-06T15:02:09.659Z</time></trkpt><trkpt lat="44.0848833" lon="10.370955"><ele>351.0</ele><time>2026-04-06T15:02:10.659Z</time></trkpt><trkpt lat="44.08482" lon="10.37089"><ele>352.0</ele><time>2026-04-06T15:02:11.659Z</time></trkpt><trkpt lat="44.0847717" lon="10.3708067"><ele>353.0</ele><time>2026-04-06T15:02:12.659Z</time></trkpt><trkpt lat="44.0847817" lon="10.3706633"><ele>354.0</ele><time>2026-04-06T15:02:13.659Z</time></trkpt><trkpt lat="44.0848" lon="10.37054"><ele>355.0</ele><time>2026-04-06T15:02:14.66Z</time></trkpt><trkpt lat="44.08481" lon="10.3704183"><ele>355.0</ele><time>2026-04-06T15:02:15.659Z</time></trkpt><trkpt lat="44.08482" lon="10.3702917"><ele>355.0</ele><time>2026-04-06T15:02:16.659Z</time></trkpt><trkpt lat="44.0848417" lon="10.3701683"><ele>355.0</ele><time>2026-04-06T15:02:17.659Z</time></trkpt><trkpt lat="44.0848717" lon="10.37006"><ele>355.0</ele><time>2026-04-06T15:02:18.659Z</time></trkpt><trkpt lat="44.0849167" lon="10.369975"><ele>355.0</ele><time>2026-04-06T15:02:19.659Z</time></trkpt><trkpt lat="44.084935" lon="10.3698717"><ele>355.0</ele><time>2026-04-06T15:02:20.659Z</time></trkpt><trkpt lat="44.084965" lon="10.369765"><ele>353.66666666666663</ele><time>2026-04-06T15:02:21.659Z</time></trkpt><trkpt lat="44.0849883" lon="10.369675"><ele>352.3333333333333</ele><time>2026-04-06T15:02:22.659Z</time></trkpt><trkpt lat="44.0850067" lon="10.3695867"><ele>351.0</ele><time>2026-04-06T15:02:23.66Z</time></trkpt><trkpt lat="44.08502" lon="10.3694917"><ele>349.6666666666667</ele><time>2026-04-06T15:02:24.66Z</time></trkpt><trkpt lat="44.0849933" lon="10.3693967"><ele>348.33333333333337</ele><time>2026-04-06T15:02:25.659Z</time></trkpt><trkpt lat="44.084885" lon="10.369275"><ele>347.0</ele><time>2026-04-06T15:02:26.659Z</time></trkpt><trkpt lat="44.0847417" lon="10.3691483"><ele>347.0</ele><time>2026-04-06T15:02:27.659Z</time></trkpt><trkpt lat="44.0845417" lon="10.3690367"><ele>347.0</ele><time>2026-04-06T15:02:28.659Z</time></trkpt><trkpt lat="44.084375" lon="10.368915"><ele>347.0</ele><time>2026-04-06T15:02:29.659Z</time></trkpt><trkpt lat="44.0842583" lon="10.3688"><ele>349.25</ele><time>2026-04-06T15:02:30.659Z</time></trkpt><trkpt lat="44.08413" lon="10.3687017"><ele>351.5</ele><time>2026-04-06T15:02:31.659Z</time></trkpt><trkpt lat="44.084015" lon="10.3686"><ele>353.75</ele><time>2026-04-06T15:02:32.659Z</time></trkpt><trkpt lat="44.0839067" lon="10.3684917"><ele>356.0</ele><time>2026-04-06T15:02:33.659Z</time></trkpt><trkpt lat="44.083815" lon="10.3683683"><ele>356.0</ele><time>2026-04-06T15:02:34.659Z</time></trkpt><trkpt lat="44.0837417" lon="10.36823"><ele>356.0</ele><time>2026-04-06T15:02:35.659Z</time></trkpt><trkpt lat="44.083685" lon="10.36809"><ele>356.0</ele><time>2026-04-06T15:02:36.659Z</time></trkpt><trkpt lat="44.08366" lon="10.3679483"><ele>356.0</ele><time>2026-04-06T15:02:37.659Z</time></trkpt><trkpt lat="44.083665" lon="10.367815"><ele>356.0</ele><time>2026-04-06T15:02:38.659Z</time></trkpt><trkpt lat="44.083705" lon="10.3676933"><ele>355.6</ele><time>2026-04-06T15:02:39.659Z</time></trkpt><trkpt lat="44.0837483" lon="10.367585"><ele>355.20000000000005</ele><time>2026-04-06T15:02:40.659Z</time></trkpt><trkpt lat="44.083795" lon="10.3674567"><ele>354.79999999999995</ele><time>2026-04-06T15:02:41.66Z</time></trkpt><trkpt lat="44.0838367" lon="10.3673167"><ele>354.4</ele><time>2026-04-06T15:02:42.659Z</time></trkpt><trkpt lat="44.0838733" lon="10.3671667"><ele>354.0</ele><time>2026-04-06T15:02:43.659Z</time></trkpt><trkpt lat="44.0838983" lon="10.3670133"><ele>354.0</ele><time>2026-04-06T15:02:44.659Z</time></trkpt><trkpt lat="44.0839167" lon="10.3668567"><ele>354.0</ele><time>2026-04-06T15:02:45.659Z</time></trkpt><trkpt lat="44.0839217" lon="10.3666933"><ele>354.0</ele><time>2026-04-06T15:02:46.66Z</time></trkpt><trkpt lat="44.0839033" lon="10.3665383"><ele>354.0</ele><time>2026-04-06T15:02:47.659Z</time></trkpt><trkpt lat="44.0838717" lon="10.3663867"><ele>355.2</ele><time>2026-04-06T15:02:48.659Z</time></trkpt><trkpt lat="44.0838333" lon="10.36625"><ele>356.4</ele><time>2026-04-06T15:02:49.659Z</time></trkpt><trkpt lat="44.0837867" lon="10.36612"><ele>357.6</ele><time>2026-04-06T15:02:50.659Z</time></trkpt><trkpt lat="44.0837367" lon="10.3660017"><ele>358.8</ele><time>2026-04-06T15:02:51.659Z</time></trkpt><trkpt lat="44.0836733" lon="10.3659317"><ele>360.0</ele><time>2026-04-06T15:02:52.659Z</time></trkpt><trkpt lat="44.0836117" lon="10.365875"><ele>360.0</ele><time>2026-04-06T15:02:53.659Z</time></trkpt><trkpt lat="44.0835483" lon="10.365845"><ele>360.0</ele><time>2026-04-06T15:02:54.659Z</time></trkpt><trkpt lat="44.0834683" lon="10.36585"><ele>360.0</ele><time>2026-04-06T15:02:55.659Z</time></trkpt><trkpt lat="44.0833767" lon="10.3658767"><ele>360.0</ele><time>2026-04-06T15:02:56.659Z</time></trkpt><trkpt lat="44.0832667" lon="10.3658983"><ele>360.0</ele><time>2026-04-06T15:02:57.659Z</time></trkpt><trkpt lat="44.0831367" lon="10.3659283"><ele>360.25</ele><time>2026-04-06T15:02:58.66Z</time></trkpt><trkpt lat="44.0830217" lon="10.36594"><ele>360.5</ele><time>2026-04-06T15:02:59.659Z</time></trkpt><trkpt lat="44.0829033" lon="10.3659533"><ele>360.75</ele><time>2026-04-06T15:03:00.659Z</time></trkpt><trkpt lat="44.08278" lon="10.3659617"><ele>361.0</ele><time>2026-04-06T15:03:01.66Z</time></trkpt><trkpt lat="44.0826483" lon="10.36596"><ele>361.0</ele><time>2026-04-06T15:03:02.659Z</time></trkpt><trkpt lat="44.0825167" lon="10.3659367"><ele>361.0</ele><time>2026-04-06T15:03:03.659Z</time></trkpt><trkpt lat="44.08239" lon="10.3658867"><ele>361.0</ele><time>2026-04-06T15:03:04.659Z</time></trkpt><trkpt lat="44.0822683" lon="10.365815"><ele>361.0</ele><time>2026-04-06T15:03:05.659Z</time></trkpt><trkpt lat="44.082145" lon="10.3657283"><ele>358.25</ele><time>2026-04-06T15:03:06.659Z</time></trkpt><trkpt lat="44.082025" lon="10.365645"><ele>355.5</ele><time>2026-04-06T15:03:07.659Z</time></trkpt><trkpt lat="44.0819067" lon="10.3655717"><ele>352.75</ele><time>2026-04-06T15:03:08.659Z</time></trkpt><trkpt lat="44.0817883" lon="10.365505"><ele>350.0</ele><time>2026-04-06T15:03:09.659Z</time></trkpt><trkpt lat="44.0816667" lon="10.3654367"><ele>352.25</ele><time>2026-04-06T15:03:10.659Z</time></trkpt><trkpt lat="44.081555" lon="10.3653617"><ele>354.5</ele><time>2026-04-06T15:03:11.659Z</time></trkpt><trkpt lat="44.081455" lon="10.3652783"><ele>356.75</ele><time>2026-04-06T15:03:12.659Z</time></trkpt><trkpt lat="44.0813667" lon="10.3651633"><ele>359.0</ele><time>2026-04-06T15:03:13.66Z</time></trkpt><trkpt lat="44.0812883" lon="10.3650283"><ele>359.0</ele><time>2026-04-06T15:03:14.66Z</time></trkpt><trkpt lat="44.081225" lon="10.364915"><ele>359.0</ele><time>2026-04-06T15:03:15.659Z</time></trkpt><trkpt lat="44.0811633" lon="10.3647567"><ele>359.0</ele><time>2026-04-06T15:03:16.659Z</time></trkpt><trkpt lat="44.0810933" lon="10.3645933"><ele>359.0</ele><time>2026-04-06T15:03:17.659Z</time></trkpt><trkpt lat="44.08103" lon="10.3644283"><ele>361.0</ele><time>2026-04-06T15:03:18.66Z</time></trkpt><trkpt lat="44.0809667" lon="10.3642633"><ele>363.0</ele><time>2026-04-06T15:03:19.659Z</time></trkpt><trkpt lat="44.08091" lon="10.3640867"><ele>365.0</ele><time>2026-04-06T15:03:20.659Z</time></trkpt><trkpt lat="44.0808567" lon="10.36387"><ele>367.0</ele><time>2026-04-06T15:03:21.659Z</time></trkpt><trkpt lat="44.080815" lon="10.3636633"><ele>367.0</ele><time>2026-04-06T15:03:22.659Z</time></trkpt><trkpt lat="44.0807683" lon="10.3634717"><ele>367.0</ele><time>2026-04-06T15:03:23.659Z</time></trkpt><trkpt lat="44.080735" lon="10.3632683"><ele>367.0</ele><time>2026-04-06T15:03:24.659Z</time></trkpt><trkpt lat="44.08072" lon="10.36307"><ele>367.0</ele><time>2026-04-06T15:03:25.659Z</time></trkpt><trkpt lat="44.080715" lon="10.362865"><ele>371.0</ele><time>2026-04-06T15:03:26.659Z</time></trkpt><trkpt lat="44.08071" lon="10.3626517"><ele>375.0</ele><time>2026-04-06T15:03:27.659Z</time></trkpt><trkpt lat="44.0807067" lon="10.3624333"><ele>379.0</ele><time>2026-04-06T15:03:28.659Z</time></trkpt><trkpt lat="44.0807083" lon="10.3622117"><ele>379.0</ele><time>2026-04-06T15:03:29.659Z</time></trkpt><trkpt lat="44.08071" lon="10.3619867"><ele>379.0</ele><time>2026-04-06T15:03:30.659Z</time></trkpt><trkpt lat="44.0807" lon="10.36176"><ele>379.0</ele><time>2026-04-06T15:03:31.66Z</time></trkpt><trkpt lat="44.080695" lon="10.361535"><ele>379.5</ele><time>2026-04-06T15:03:32.659Z</time></trkpt><trkpt lat="44.0806833" lon="10.3613133"><ele>380.0</ele><time>2026-04-06T15:03:33.659Z</time></trkpt><trkpt lat="44.080675" lon="10.36111"><ele>380.5</ele><time>2026-04-06T15:03:34.659Z</time></trkpt><trkpt lat="44.0806683" lon="10.3609117"><ele>381.0</ele><time>2026-04-06T15:03:35.659Z</time></trkpt><trkpt lat="44.0806467" lon="10.3607117"><ele>381.5</ele><time>2026-04-06T15:03:36.659Z</time></trkpt><trkpt lat="44.0806433" lon="10.3605317"><ele>382.0</ele><time>2026-04-06T15:03:37.659Z</time></trkpt><trkpt lat="44.0806433" lon="10.3603633"><ele>382.5</ele><time>2026-04-06T15:03:38.659Z</time></trkpt><trkpt lat="44.08067" lon="10.3602033"><ele>383.0</ele><time>2026-04-06T15:03:39.659Z</time></trkpt><trkpt lat="44.0807117" lon="10.36005"><ele>381.5</ele><time>2026-04-06T15:03:40.659Z</time></trkpt><trkpt lat="44.0807667" lon="10.3599033"><ele>380.0</ele><time>2026-04-06T15:03:41.659Z</time></trkpt><trkpt lat="44.0808233" lon="10.3597617"><ele>378.5</ele><time>2026-04-06T15:03:42.659Z</time></trkpt><trkpt lat="44.0808883" lon="10.359625"><ele>377.0</ele><time>2026-04-06T15:03:43.659Z</time></trkpt><trkpt lat="44.080955" lon="10.359485"><ele>376.5</ele><time>2026-04-06T15:03:44.659Z</time></trkpt><trkpt lat="44.0810267" lon="10.3593517"><ele>376.0</ele><time>2026-04-06T15:03:45.659Z</time></trkpt><trkpt lat="44.0811" lon="10.359215"><ele>375.5</ele><time>2026-04-06T15:03:46.659Z</time></trkpt><trkpt lat="44.081165" lon="10.3590833"><ele>375.0</ele><time>2026-04-06T15:03:47.659Z</time></trkpt><trkpt lat="44.081235" lon="10.35897"><ele>375.1666666666667</ele><time>2026-04-06T15:03:48.659Z</time></trkpt><trkpt lat="44.0812783" lon="10.3588567"><ele>375.3333333333333</ele><time>2026-04-06T15:03:49.659Z</time></trkpt><trkpt lat="44.0813067" lon="10.3587467"><ele>375.5</ele><time>2026-04-06T15:03:50.659Z</time></trkpt><trkpt lat="44.0813117" lon="10.3586283"><ele>375.66666666666663</ele><time>2026-04-06T15:03:51.659Z</time></trkpt><trkpt lat="44.0813017" lon="10.3585"><ele>375.8333333333333</ele><time>2026-04-06T15:03:52.659Z</time></trkpt><trkpt lat="44.0812917" lon="10.358375"><ele>376.0</ele><time>2026-04-06T15:03:53.659Z</time></trkpt><trkpt lat="44.0812733" lon="10.3582483"><ele>376.0</ele><time>2026-04-06T15:03:54.659Z</time></trkpt><trkpt lat="44.0812483" lon="10.35811"><ele>376.0</ele><time>2026-04-06T15:03:55.659Z</time></trkpt><trkpt lat="44.0811717" lon="10.3577933"><ele>376.0</ele><time>2026-04-06T15:03:57.659Z</time></trkpt><trkpt lat="44.0811183" lon="10.357625"><ele>377.75</ele><time>2026-04-06T15:03:58.66Z</time></trkpt><trkpt lat="44.0810483" lon="10.3574483"><ele>379.5</ele><time>2026-04-06T15:03:59.659Z</time></trkpt><trkpt lat="44.0809833" lon="10.3572867"><ele>381.25</ele><time>2026-04-06T15:04:00.66Z</time></trkpt><trkpt lat="44.0809217" lon="10.35713"><ele>383.0</ele><time>2026-04-06T15:04:01.659Z</time></trkpt><trkpt lat="44.0808517" lon="10.3569567"><ele>387.5</ele><time>2026-04-06T15:04:02.659Z</time></trkpt><trkpt lat="44.0807833" lon="10.3568083"><ele>392.0</ele><time>2026-04-06T15:04:03.659Z</time></trkpt><trkpt lat="44.08072" lon="10.356655"><ele>396.5</ele><time>2026-04-06T15:04:04.659Z</time></trkpt><trkpt lat="44.08066" lon="10.3564933"><ele>401.0</ele><time>2026-04-06T15:04:05.659Z</time></trkpt><trkpt lat="44.08061" lon="10.3563483"><ele>404.5</ele><time>2026-04-06T15:04:06.659Z</time></trkpt><trkpt lat="44.0805717" lon="10.356205"><ele>408.0</ele><time>2026-04-06T15:04:07.659Z</time></trkpt><trkpt lat="44.0805433" lon="10.3560583"><ele>411.5</ele><time>2026-04-06T15:04:08.659Z</time></trkpt><trkpt lat="44.080515" lon="10.355895"><ele>415.0</ele><time>2026-04-06T15:04:09.659Z</time></trkpt><trkpt lat="44.0805083" lon="10.3557283"><ele>408.0</ele><time>2026-04-06T15:04:10.659Z</time></trkpt><trkpt lat="44.0805067" lon="10.3555283"><ele>401.0</ele><time>2026-04-06T15:04:11.659Z</time></trkpt><trkpt lat="44.0805083" lon="10.355305"><ele>394.0</ele><time>2026-04-06T15:04:12.659Z</time></trkpt><trkpt lat="44.080505" lon="10.3550733"><ele>394.0</ele><time>2026-04-06T15:04:13.659Z</time></trkpt><trkpt lat="44.0804967" lon="10.3548517"><ele>394.0</ele><time>2026-04-06T15:04:14.659Z</time></trkpt><trkpt lat="44.0804717" lon="10.3546383"><ele>394.0</ele><time>2026-04-06T15:04:15.659Z</time></trkpt><trkpt lat="44.0803967" lon="10.3542283"><ele>394.25</ele><time>2026-04-06T15:04:17.66Z</time></trkpt><trkpt lat="44.080335" lon="10.3540333"><ele>394.5</ele><time>2026-04-06T15:04:18.659Z</time></trkpt><trkpt lat="44.0802633" lon="10.353855"><ele>394.75</ele><time>2026-04-06T15:04:19.659Z</time></trkpt><trkpt lat="44.0801883" lon="10.3536817"><ele>395.0</ele><time>2026-04-06T15:04:20.659Z</time></trkpt><trkpt lat="44.080115" lon="10.3535033"><ele>395.0</ele><time>2026-04-06T15:04:21.659Z</time></trkpt><trkpt lat="44.0800417" lon="10.353325"><ele>395.0</ele><time>2026-04-06T15:04:22.659Z</time></trkpt><trkpt lat="44.0799533" lon="10.3531517"><ele>395.0</ele><time>2026-04-06T15:04:23.659Z</time></trkpt><trkpt lat="44.07985" lon="10.3530017"><ele>395.5</ele><time>2026-04-06T15:04:24.659Z</time></trkpt><trkpt lat="44.07974" lon="10.3528733"><ele>396.0</ele><time>2026-04-06T15:04:25.659Z</time></trkpt><trkpt lat="44.0796283" lon="10.3527583"><ele>396.5</ele><time>2026-04-06T15:04:26.659Z</time></trkpt><trkpt lat="44.0795217" lon="10.3526667"><ele>397.0</ele><time>2026-04-06T15:04:27.659Z</time></trkpt><trkpt lat="44.0794133" lon="10.3526083"><ele>397.0</ele><time>2026-04-06T15:04:28.659Z</time></trkpt><trkpt lat="44.0793033" lon="10.352585"><ele>397.0</ele><time>2026-04-06T15:04:29.659Z</time></trkpt><trkpt lat="44.0791783" lon="10.3525817"><ele>397.0</ele><time>2026-04-06T15:04:30.659Z</time></trkpt><trkpt lat="44.0790433" lon="10.3525867"><ele>397.0</ele><time>2026-04-06T15:04:31.659Z</time></trkpt><trkpt lat="44.0789083" lon="10.3525833"><ele>395.5</ele><time>2026-04-06T15:04:32.659Z</time></trkpt><trkpt lat="44.0787667" lon="10.3525817"><ele>394.0</ele><time>2026-04-06T15:04:33.659Z</time></trkpt><trkpt lat="44.0786267" lon="10.3525833"><ele>392.5</ele><time>2026-04-06T15:04:34.659Z</time></trkpt><trkpt lat="44.0784867" lon="10.352645"><ele>391.0</ele><time>2026-04-06T15:04:35.659Z</time></trkpt><trkpt lat="44.0782333" lon="10.352635"><ele>391.0</ele><time>2026-04-06T15:04:37.659Z</time></trkpt><trkpt lat="44.0781183" lon="10.3526067"><ele>391.0</ele><time>2026-04-06T15:04:38.659Z</time></trkpt><trkpt lat="44.0780067" lon="10.3525633"><ele>391.0</ele><time>2026-04-06T15:04:39.66Z</time></trkpt><trkpt lat="44.0779083" lon="10.352495"><ele>391.0</ele><time>2026-04-06T15:04:40.66Z</time></trkpt><trkpt lat="44.0778067" lon="10.35241"><ele>391.0</ele><time>2026-04-06T15:04:41.659Z</time></trkpt><trkpt lat="44.0777333" lon="10.3522433"><ele>391.0</ele><time>2026-04-06T15:04:42.659Z</time></trkpt><trkpt lat="44.0776467" lon="10.3521033"><ele>391.0</ele><time>2026-04-06T15:04:43.659Z</time></trkpt><trkpt lat="44.0775683" lon="10.3519317"><ele>391.0</ele><time>2026-04-06T15:04:44.659Z</time></trkpt><trkpt lat="44.0774817" lon="10.3518033"><ele>388.8</ele><time>2026-04-06T15:04:45.659Z</time></trkpt><trkpt lat="44.077375" lon="10.3517417"><ele>386.6</ele><time>2026-04-06T15:04:46.659Z</time></trkpt><trkpt lat="44.0772617" lon="10.3517083"><ele>384.4</ele><time>2026-04-06T15:04:47.659Z</time></trkpt><trkpt lat="44.077155" lon="10.3516667"><ele>382.2</ele><time>2026-04-06T15:04:48.659Z</time></trkpt><trkpt lat="44.0770567" lon="10.35161"><ele>380.0</ele><time>2026-04-06T15:04:49.659Z</time></trkpt><trkpt lat="44.0769717" lon="10.351545"><ele>380.0</ele><time>2026-04-06T15:04:50.659Z</time></trkpt><trkpt lat="44.0769" lon="10.3514667"><ele>380.0</ele><time>2026-04-06T15:04:51.659Z</time></trkpt><trkpt lat="44.0768367" lon="10.3513833"><ele>380.0</ele><time>2026-04-06T15:04:52.659Z</time></trkpt><trkpt lat="44.0767917" lon="10.3512783"><ele>380.0</ele><time>2026-04-06T15:04:53.659Z</time></trkpt><trkpt lat="44.0768083" lon="10.3511367"><ele>380.0</ele><time>2026-04-06T15:04:54.659Z</time></trkpt><trkpt lat="44.0768067" lon="10.351015"><ele>381.0</ele><time>2026-04-06T15:04:55.659Z</time></trkpt><trkpt lat="44.076865" lon="10.350845"><ele>382.0</ele><time>2026-04-06T15:04:56.659Z</time></trkpt><trkpt lat="44.0769417" lon="10.3506833"><ele>383.0</ele><time>2026-04-06T15:04:57.659Z</time></trkpt><trkpt lat="44.0770283" lon="10.350505"><ele>384.0</ele><time>2026-04-06T15:04:58.659Z</time></trkpt><trkpt lat="44.0770667" lon="10.3503333"><ele>386.75</ele><time>2026-04-06T15:04:59.66Z</time></trkpt><trkpt lat="44.0770783" lon="10.3501633"><ele>389.5</ele><time>2026-04-06T15:05:00.659Z</time></trkpt><trkpt lat="44.0771033" lon="10.3499967"><ele>392.25</ele><time>2026-04-06T15:05:01.66Z</time></trkpt><trkpt lat="44.07711" lon="10.3498317"><ele>395.0</ele><time>2026-04-06T15:05:02.659Z</time></trkpt><trkpt lat="44.077115" lon="10.349665"><ele>400.75</ele><time>2026-04-06T15:05:03.659Z</time></trkpt><trkpt lat="44.07716" lon="10.3494983"><ele>406.5</ele><time>2026-04-06T15:05:04.659Z</time></trkpt><trkpt lat="44.07725" lon="10.3493333"><ele>412.25</ele><time>2026-04-06T15:05:05.66Z</time></trkpt><trkpt lat="44.0773433" lon="10.3491867"><ele>418.0</ele><time>2026-04-06T15:05:06.66Z</time></trkpt><trkpt lat="44.077435" lon="10.3490533"><ele>412.75</ele><time>2026-04-06T15:05:07.659Z</time></trkpt><trkpt lat="44.0775583" lon="10.3489383"><ele>407.5</ele><time>2026-04-06T15:05:08.659Z</time></trkpt><trkpt lat="44.0776417" lon="10.348795"><ele>402.25</ele><time>2026-04-06T15:05:09.659Z</time></trkpt><trkpt lat="44.07774" lon="10.3486667"><ele>397.0</ele><time>2026-04-06T15:05:10.659Z</time></trkpt><trkpt lat="44.0778233" lon="10.348525"><ele>395.75</ele><time>2026-04-06T15:05:11.66Z</time></trkpt><trkpt lat="44.07787" lon="10.3483617"><ele>394.5</ele><time>2026-04-06T15:05:12.659Z</time></trkpt><trkpt lat="44.0779033" lon="10.3481967"><ele>393.25</ele><time>2026-04-06T15:05:13.659Z</time></trkpt><trkpt lat="44.0779283" lon="10.3480267"><ele>392.0</ele><time>2026-04-06T15:05:14.659Z</time></trkpt><trkpt lat="44.0778867" lon="10.3478167"><ele>391.3333333333333</ele><time>2026-04-06T15:05:15.659Z</time></trkpt><trkpt lat="44.0778383" lon="10.3476183"><ele>390.66666666666663</ele><time>2026-04-06T15:05:16.659Z</time></trkpt><trkpt lat="44.0777767" lon="10.347435"><ele>390.0</ele><time>2026-04-06T15:05:17.659Z</time></trkpt><trkpt lat="44.07769" lon="10.347255"><ele>392.66666666666663</ele><time>2026-04-06T15:05:18.659Z</time></trkpt><trkpt lat="44.0775983" lon="10.3470883"><ele>395.3333333333333</ele><time>2026-04-06T15:05:19.659Z</time></trkpt><trkpt lat="44.0775017" lon="10.34693"><ele>398.0</ele><time>2026-04-06T15:05:20.659Z</time></trkpt><trkpt lat="44.077385" lon="10.346795"><ele>398.0</ele><time>2026-04-06T15:05:21.659Z</time></trkpt><trkpt lat="44.0772683" lon="10.34669"><ele>398.0</ele><time>2026-04-06T15:05:22.66Z</time></trkpt><trkpt lat="44.0771667" lon="10.3465933"><ele>398.0</ele><time>2026-04-06T15:05:23.659Z</time></trkpt><trkpt lat="44.0770667" lon="10.3465"><ele>398.0</ele><time>2026-04-06T15:05:24.659Z</time></trkpt><trkpt lat="44.0769733" lon="10.34639"><ele>397.79999999999995</ele><time>2026-04-06T15:05:25.659Z</time></trkpt><trkpt lat="44.0769033" lon="10.34627"><ele>397.6</ele><time>2026-04-06T15:05:26.659Z</time></trkpt><trkpt lat="44.0768567" lon="10.3461383"><ele>397.4</ele><time>2026-04-06T15:05:27.659Z</time></trkpt><trkpt lat="44.0768383" lon="10.3460017"><ele>397.20000000000005</ele><time>2026-04-06T15:05:28.659Z</time></trkpt><trkpt lat="44.076845" lon="10.3458633"><ele>397.0</ele><time>2026-04-06T15:05:29.659Z</time></trkpt><trkpt lat="44.0769267" lon="10.3456883"><ele>396.5</ele><time>2026-04-06T15:05:30.659Z</time></trkpt><trkpt lat="44.076985" lon="10.3455333"><ele>396.0</ele><time>2026-04-06T15:05:31.659Z</time></trkpt><trkpt lat="44.0770583" lon="10.3453817"><ele>395.5</ele><time>2026-04-06T15:05:32.659Z</time></trkpt><trkpt lat="44.077135" lon="10.3452467"><ele>395.0</ele><time>2026-04-06T15:05:33.659Z</time></trkpt><trkpt lat="44.0772117" lon="10.3451167"><ele>395.0</ele><time>2026-04-06T15:05:34.659Z</time></trkpt><trkpt lat="44.0772917" lon="10.344995"><ele>395.0</ele><time>2026-04-06T15:05:35.659Z</time></trkpt><trkpt lat="44.0773383" lon="10.34484"><ele>395.0</ele><time>2026-04-06T15:05:36.66Z</time></trkpt><trkpt lat="44.0773717" lon="10.34469"><ele>395.0</ele><time>2026-04-06T15:05:37.659Z</time></trkpt><trkpt lat="44.0773283" lon="10.3445233"><ele>395.0</ele><time>2026-04-06T15:05:38.659Z</time></trkpt><trkpt lat="44.0772717" lon="10.3443867"><ele>395.0</ele><time>2026-04-06T15:05:39.659Z</time></trkpt><trkpt lat="44.0771817" lon="10.3442583"><ele>395.0</ele><time>2026-04-06T15:05:40.659Z</time></trkpt><trkpt lat="44.07707" lon="10.3441467"><ele>395.0</ele><time>2026-04-06T15:05:41.659Z</time></trkpt><trkpt lat="44.0769567" lon="10.3440417"><ele>395.0</ele><time>2026-04-06T15:05:42.659Z</time></trkpt><trkpt lat="44.0768367" lon="10.3439483"><ele>395.0</ele><time>2026-04-06T15:05:43.659Z</time></trkpt><trkpt lat="44.076715" lon="10.3438817"><ele>395.0</ele><time>2026-04-06T15:05:44.66Z</time></trkpt><trkpt lat="44.0765817" lon="10.34384"><ele>395.0</ele><time>2026-04-06T15:05:45.659Z</time></trkpt><trkpt lat="44.0764383" lon="10.3438417"><ele>396.75</ele><time>2026-04-06T15:05:46.659Z</time></trkpt><trkpt lat="44.0762933" lon="10.3438517"><ele>398.5</ele><time>2026-04-06T15:05:47.66Z</time></trkpt><trkpt lat="44.0761483" lon="10.3438633"><ele>400.25</ele><time>2026-04-06T15:05:48.659Z</time></trkpt><trkpt lat="44.07601" lon="10.3438917"><ele>402.0</ele><time>2026-04-06T15:05:49.659Z</time></trkpt><trkpt lat="44.07588" lon="10.3439383"><ele>404.5</ele><time>2026-04-06T15:05:50.659Z</time></trkpt><trkpt lat="44.0757517" lon="10.3440083"><ele>407.0</ele><time>2026-04-06T15:05:51.659Z</time></trkpt><trkpt lat="44.075635" lon="10.3441033"><ele>409.5</ele><time>2026-04-06T15:05:52.659Z</time></trkpt><trkpt lat="44.0755283" lon="10.344205"><ele>412.0</ele><time>2026-04-06T15:05:53.659Z</time></trkpt><trkpt lat="44.0754217" lon="10.3443067"><ele>412.0</ele><time>2026-04-06T15:05:54.659Z</time></trkpt><trkpt lat="44.075315" lon="10.34439"><ele>412.0</ele><time>2026-04-06T15:05:55.659Z</time></trkpt><trkpt lat="44.0752033" lon="10.344445"><ele>412.0</ele><time>2026-04-06T15:05:56.659Z</time></trkpt><trkpt lat="44.075095" lon="10.34448"><ele>412.0</ele><time>2026-04-06T15:05:57.659Z</time></trkpt><trkpt lat="44.0749883" lon="10.3444867"><ele>418.6</ele><time>2026-04-06T15:05:58.659Z</time></trkpt><trkpt lat="44.0748833" lon="10.344465"><ele>425.20000000000005</ele><time>2026-04-06T15:05:59.659Z</time></trkpt><trkpt lat="44.07478" lon="10.3444067"><ele>431.8</ele><time>2026-04-06T15:06:00.659Z</time></trkpt><trkpt lat="44.074675" lon="10.3443533"><ele>438.4</ele><time>2026-04-06T15:06:01.659Z</time></trkpt><trkpt lat="44.0745817" lon="10.34429"><ele>445.0</ele><time>2026-04-06T15:06:02.66Z</time></trkpt><trkpt lat="44.07451" lon="10.3441883"><ele>445.00000000000006</ele><time>2026-04-06T15:06:03.659Z</time></trkpt><trkpt lat="44.074455" lon="10.344105"><ele>445.0</ele><time>2026-04-06T15:06:04.66Z</time></trkpt><trkpt lat="44.07439" lon="10.344025"><ele>445.0</ele><time>2026-04-06T15:06:05.659Z</time></trkpt><trkpt lat="44.0743683" lon="10.34392"><ele>445.0</ele><time>2026-04-06T15:06:06.659Z</time></trkpt><trkpt lat="44.0743667" lon="10.343795"><ele>445.00000000000006</ele><time>2026-04-06T15:06:07.659Z</time></trkpt><trkpt lat="44.0743833" lon="10.34365"><ele>445.0</ele><time>2026-04-06T15:06:08.66Z</time></trkpt><trkpt lat="44.0744" lon="10.343505"><ele>439.5</ele><time>2026-04-06T15:06:09.659Z</time></trkpt><trkpt lat="44.0744283" lon="10.34335"><ele>434.0</ele><time>2026-04-06T15:06:10.659Z</time></trkpt><trkpt lat="44.0744617" lon="10.34318"><ele>428.5</ele><time>2026-04-06T15:06:11.66Z</time></trkpt><trkpt lat="44.0745083" lon="10.342995"><ele>423.0</ele><time>2026-04-06T15:06:12.659Z</time></trkpt><trkpt lat="44.0745717" lon="10.34283"><ele>422.0</ele><time>2026-04-06T15:06:13.659Z</time></trkpt><trkpt lat="44.074675" lon="10.3426667"><ele>421.0</ele><time>2026-04-06T15:06:14.66Z</time></trkpt><trkpt lat="44.0748017" lon="10.3425167"><ele>420.0</ele><time>2026-04-06T15:06:15.659Z</time></trkpt><trkpt lat="44.0749133" lon="10.3423683"><ele>416.0</ele><time>2026-04-06T15:06:16.659Z</time></trkpt><trkpt lat="44.075055" lon="10.3421967"><ele>412.0</ele><time>2026-04-06T15:06:17.659Z</time></trkpt><trkpt lat="44.0751833" lon="10.3420117"><ele>408.0</ele><time>2026-04-06T15:06:18.659Z</time></trkpt><trkpt lat="44.0752517" lon="10.3418517"><ele>408.0</ele><time>2026-04-06T15:06:19.66Z</time></trkpt><trkpt lat="44.0752817" lon="10.3416833"><ele>408.0</ele><time>2026-04-06T15:06:20.66Z</time></trkpt><trkpt lat="44.0752783" lon="10.3415183"><ele>408.0</ele><time>2026-04-06T15:06:21.659Z</time></trkpt><trkpt lat="44.0752517" lon="10.3413583"><ele>408.0</ele><time>2026-04-06T15:06:22.659Z</time></trkpt><trkpt lat="44.0752017" lon="10.3411983"><ele>410.25</ele><time>2026-04-06T15:06:23.659Z</time></trkpt><trkpt lat="44.07515" lon="10.34106"><ele>412.5</ele><time>2026-04-06T15:06:24.659Z</time></trkpt><trkpt lat="44.0750733" lon="10.3409267"><ele>414.75</ele><time>2026-04-06T15:06:25.659Z</time></trkpt><trkpt lat="44.0749817" lon="10.3408117"><ele>417.0</ele><time>2026-04-06T15:06:26.659Z</time></trkpt><trkpt lat="44.074875" lon="10.3407167"><ele>417.0</ele><time>2026-04-06T15:06:27.659Z</time></trkpt><trkpt lat="44.0747617" lon="10.3406567"><ele>417.0</ele><time>2026-04-06T15:06:28.659Z</time></trkpt><trkpt lat="44.0746267" lon="10.34065"><ele>417.0</ele><time>2026-04-06T15:06:29.66Z</time></trkpt><trkpt lat="44.07449" lon="10.340645"><ele>417.0</ele><time>2026-04-06T15:06:30.659Z</time></trkpt><trkpt lat="44.0743433" lon="10.3407033"><ele>417.0</ele><time>2026-04-06T15:06:31.659Z</time></trkpt><trkpt lat="44.0741917" lon="10.34082"><ele>417.0</ele><time>2026-04-06T15:06:32.66Z</time></trkpt><trkpt lat="44.0740617" lon="10.34095"><ele>417.0</ele><time>2026-04-06T15:06:33.66Z</time></trkpt><trkpt lat="44.07395" lon="10.34106"><ele>419.25</ele><time>2026-04-06T15:06:34.659Z</time></trkpt><trkpt lat="44.0738433" lon="10.3411617"><ele>421.5</ele><time>2026-04-06T15:06:35.659Z</time></trkpt><trkpt lat="44.0737433" lon="10.3412417"><ele>423.75</ele><time>2026-04-06T15:06:36.659Z</time></trkpt><trkpt lat="44.0736467" lon="10.3413233"><ele>426.0</ele><time>2026-04-06T15:06:37.66Z</time></trkpt><trkpt lat="44.0735417" lon="10.341375"><ele>427.0</ele><time>2026-04-06T15:06:38.659Z</time></trkpt><trkpt lat="44.0734333" lon="10.341395"><ele>428.0</ele><time>2026-04-06T15:06:39.659Z</time></trkpt><trkpt lat="44.0733367" lon="10.3414"><ele>429.0</ele><time>2026-04-06T15:06:40.659Z</time></trkpt><trkpt lat="44.073235" lon="10.341385"><ele>430.0</ele><time>2026-04-06T15:06:41.659Z</time></trkpt><trkpt lat="44.0731333" lon="10.3413217"><ele>431.0</ele><time>2026-04-06T15:06:42.659Z</time></trkpt><trkpt lat="44.0730317" lon="10.3412417"><ele>425.5</ele><time>2026-04-06T15:06:43.659Z</time></trkpt><trkpt lat="44.0729333" lon="10.3411433"><ele>420.0</ele><time>2026-04-06T15:06:44.659Z</time></trkpt><trkpt lat="44.0728217" lon="10.3409683"><ele>414.5</ele><time>2026-04-06T15:06:45.659Z</time></trkpt><trkpt lat="44.0727517" lon="10.3408317"><ele>409.0</ele><time>2026-04-06T15:06:46.659Z</time></trkpt><trkpt lat="44.0726933" lon="10.3406767"><ele>410.25</ele><time>2026-04-06T15:06:47.659Z</time></trkpt><trkpt lat="44.072645" lon="10.3405067"><ele>411.5</ele><time>2026-04-06T15:06:48.659Z</time></trkpt><trkpt lat="44.0726" lon="10.3403267"><ele>412.75</ele><time>2026-04-06T15:06:49.659Z</time></trkpt><trkpt lat="44.0725433" lon="10.3401533"><ele>414.0</ele><time>2026-04-06T15:06:50.659Z</time></trkpt><trkpt lat="44.0724883" lon="10.339975"><ele>419.0</ele><time>2026-04-06T15:06:51.659Z</time></trkpt><trkpt lat="44.0724367" lon="10.33979"><ele>424.0</ele><time>2026-04-06T15:06:52.66Z</time></trkpt><trkpt lat="44.072385" lon="10.3396017"><ele>429.0</ele><time>2026-04-06T15:06:53.659Z</time></trkpt><trkpt lat="44.0723367" lon="10.3394117"><ele>434.0</ele><time>2026-04-06T15:06:54.659Z</time></trkpt><trkpt lat="44.0723333" lon="10.339225"><ele>434.0</ele><time>2026-04-06T15:06:55.659Z</time></trkpt><trkpt lat="44.0723317" lon="10.3390383"><ele>434.0</ele><time>2026-04-06T15:06:56.66Z</time></trkpt><trkpt lat="44.072345" lon="10.3388617"><ele>434.0</ele><time>2026-04-06T15:06:57.659Z</time></trkpt><trkpt lat="44.0723817" lon="10.3386783"><ele>434.0</ele><time>2026-04-06T15:06:58.659Z</time></trkpt><trkpt lat="44.0724283" lon="10.3384967"><ele>431.25</ele><time>2026-04-06T15:06:59.659Z</time></trkpt><trkpt lat="44.0724767" lon="10.3383133"><ele>428.5</ele><time>2026-04-06T15:07:00.66Z</time></trkpt><trkpt lat="44.0725267" lon="10.3381283"><ele>425.75</ele><time>2026-04-06T15:07:01.66Z</time></trkpt><trkpt lat="44.072565" lon="10.3379333"><ele>423.0</ele><time>2026-04-06T15:07:02.659Z</time></trkpt><trkpt lat="44.0725983" lon="10.3377383"><ele>423.0</ele><time>2026-04-06T15:07:03.659Z</time></trkpt><trkpt lat="44.0726167" lon="10.3375367"><ele>423.0</ele><time>2026-04-06T15:07:04.66Z</time></trkpt><trkpt lat="44.072625" lon="10.3373317"><ele>423.0</ele><time>2026-04-06T15:07:05.66Z</time></trkpt><trkpt lat="44.0726167" lon="10.3371217"><ele>423.0</ele><time>2026-04-06T15:07:06.659Z</time></trkpt><trkpt lat="44.0726" lon="10.33691"><ele>422.66666666666663</ele><time>2026-04-06T15:07:07.659Z</time></trkpt><trkpt lat="44.072575" lon="10.33669"><ele>422.3333333333333</ele><time>2026-04-06T15:07:08.659Z</time></trkpt><trkpt lat="44.0725367" lon="10.3364717"><ele>422.0</ele><time>2026-04-06T15:07:09.659Z</time></trkpt><trkpt lat="44.0724817" lon="10.33627"><ele>416.66666666666663</ele><time>2026-04-06T15:07:10.66Z</time></trkpt><trkpt lat="44.072405" lon="10.3360917"><ele>411.33333333333337</ele><time>2026-04-06T15:07:11.659Z</time></trkpt><trkpt lat="44.0723183" lon="10.3359183"><ele>406.0</ele><time>2026-04-06T15:07:12.659Z</time></trkpt><trkpt lat="44.0722" lon="10.3357867"><ele>406.0</ele><time>2026-04-06T15:07:13.659Z</time></trkpt><trkpt lat="44.0720717" lon="10.3356717"><ele>406.0</ele><time>2026-04-06T15:07:14.659Z</time></trkpt><trkpt lat="44.07194" lon="10.335565"><ele>406.0</ele><time>2026-04-06T15:07:15.659Z</time></trkpt><trkpt lat="44.0718083" lon="10.3354633"><ele>410.5</ele><time>2026-04-06T15:07:16.659Z</time></trkpt><trkpt lat="44.0716783" lon="10.3353633"><ele>415.0</ele><time>2026-04-06T15:07:17.659Z</time></trkpt><trkpt lat="44.0715467" lon="10.3352983"><ele>419.5</ele><time>2026-04-06T15:07:18.659Z</time></trkpt><trkpt lat="44.071405" lon="10.33527"><ele>424.0</ele><time>2026-04-06T15:07:19.659Z</time></trkpt><trkpt lat="44.0712667" lon="10.335265"><ele>424.0</ele><time>2026-04-06T15:07:20.659Z</time></trkpt><trkpt lat="44.0711333" lon="10.335275"><ele>424.0</ele><time>2026-04-06T15:07:21.659Z</time></trkpt><trkpt lat="44.071005" lon="10.3352867"><ele>424.0</ele><time>2026-04-06T15:07:22.659Z</time></trkpt><trkpt lat="44.0708867" lon="10.3352933"><ele>424.0</ele><time>2026-04-06T15:07:23.659Z</time></trkpt><trkpt lat="44.070775" lon="10.3352933"><ele>424.6</ele><time>2026-04-06T15:07:24.659Z</time></trkpt><trkpt lat="44.0706733" lon="10.3352817"><ele>425.2</ele><time>2026-04-06T15:07:25.659Z</time></trkpt><trkpt lat="44.0705933" lon="10.3352233"><ele>425.80000000000007</ele><time>2026-04-06T15:07:26.659Z</time></trkpt><trkpt lat="44.0705333" lon="10.3351217"><ele>426.40000000000003</ele><time>2026-04-06T15:07:27.659Z</time></trkpt><trkpt lat="44.0704867" lon="10.3350017"><ele>427.0</ele><time>2026-04-06T15:07:28.659Z</time></trkpt><trkpt lat="44.0704617" lon="10.334855"><ele>427.25</ele><time>2026-04-06T15:07:29.659Z</time></trkpt><trkpt lat="44.0704433" lon="10.334695"><ele>427.5</ele><time>2026-04-06T15:07:30.66Z</time></trkpt><trkpt lat="44.0704217" lon="10.3345233"><ele>427.75</ele><time>2026-04-06T15:07:31.659Z</time></trkpt><trkpt lat="44.0703967" lon="10.3343467"><ele>428.0</ele><time>2026-04-06T15:07:32.659Z</time></trkpt><trkpt lat="44.0703717" lon="10.3341567"><ele>428.0</ele><time>2026-04-06T15:07:33.659Z</time></trkpt><trkpt lat="44.0703417" lon="10.3339633"><ele>428.0</ele><time>2026-04-06T15:07:34.659Z</time></trkpt><trkpt lat="44.0703067" lon="10.33377"><ele>428.0</ele><time>2026-04-06T15:07:35.659Z</time></trkpt><trkpt lat="44.07027" lon="10.3335717"><ele>428.0</ele><time>2026-04-06T15:07:36.659Z</time></trkpt><trkpt lat="44.0702317" lon="10.3333717"><ele>430.3333333333333</ele><time>2026-04-06T15:07:37.659Z</time></trkpt><trkpt lat="44.070205" lon="10.333165"><ele>432.66666666666663</ele><time>2026-04-06T15:07:38.659Z</time></trkpt><trkpt lat="44.07018" lon="10.3329567"><ele>435.0</ele><time>2026-04-06T15:07:39.659Z</time></trkpt><trkpt lat="44.070155" lon="10.3327433"><ele>435.0</ele><time>2026-04-06T15:07:40.659Z</time></trkpt><trkpt lat="44.070125" lon="10.3325317"><ele>435.0</ele><time>2026-04-06T15:07:41.659Z</time></trkpt><trkpt lat="44.0701" lon="10.3323167"><ele>435.0</ele><time>2026-04-06T15:07:42.659Z</time></trkpt><trkpt lat="44.070085" lon="10.3321"><ele>437.66666666666663</ele><time>2026-04-06T15:07:43.659Z</time></trkpt><trkpt lat="44.0700683" lon="10.33189"><ele>440.3333333333333</ele><time>2026-04-06T15:07:44.659Z</time></trkpt><trkpt lat="44.07004" lon="10.3316767"><ele>443.0</ele><time>2026-04-06T15:07:45.659Z</time></trkpt><trkpt lat="44.0699883" lon="10.3314683"><ele>442.3333333333333</ele><time>2026-04-06T15:07:46.659Z</time></trkpt><trkpt lat="44.0699133" lon="10.3312733"><ele>441.66666666666663</ele><time>2026-04-06T15:07:47.659Z</time></trkpt><trkpt lat="44.0698167" lon="10.3310817"><ele>441.0</ele><time>2026-04-06T15:07:48.659Z</time></trkpt><trkpt lat="44.06969" lon="10.3309167"><ele>441.0</ele><time>2026-04-06T15:07:49.659Z</time></trkpt><trkpt lat="44.0695533" lon="10.3307733"><ele>441.0</ele><time>2026-04-06T15:07:50.659Z</time></trkpt><trkpt lat="44.0694083" lon="10.3306533"><ele>441.0</ele><time>2026-04-06T15:07:51.659Z</time></trkpt><trkpt lat="44.0692683" lon="10.3305417"><ele>440.66666666666663</ele><time>2026-04-06T15:07:52.659Z</time></trkpt><trkpt lat="44.06913" lon="10.33043"><ele>440.3333333333333</ele><time>2026-04-06T15:07:53.66Z</time></trkpt><trkpt lat="44.0690067" lon="10.330295"><ele>440.0</ele><time>2026-04-06T15:07:54.659Z</time></trkpt><trkpt lat="44.0688983" lon="10.3301417"><ele>440.0</ele><time>2026-04-06T15:07:55.659Z</time></trkpt><trkpt lat="44.068785" lon="10.330005"><ele>440.0</ele><time>2026-04-06T15:07:56.659Z</time></trkpt><trkpt lat="44.0686683" lon="10.3298667"><ele>440.0</ele><time>2026-04-06T15:07:57.659Z</time></trkpt><trkpt lat="44.0685417" lon="10.3297417"><ele>442.0</ele><time>2026-04-06T15:07:58.659Z</time></trkpt><trkpt lat="44.0684117" lon="10.3296117"><ele>444.0</ele><time>2026-04-06T15:07:59.66Z</time></trkpt><trkpt lat="44.0682717" lon="10.3295117"><ele>446.0</ele><time>2026-04-06T15:08:00.659Z</time></trkpt><trkpt lat="44.0681383" lon="10.3294217"><ele>446.0</ele><time>2026-04-06T15:08:01.659Z</time></trkpt><trkpt lat="44.0680167" lon="10.3293417"><ele>446.0</ele><time>2026-04-06T15:08:02.659Z</time></trkpt><trkpt lat="44.0679083" lon="10.329235"><ele>446.0</ele><time>2026-04-06T15:08:03.659Z</time></trkpt><trkpt lat="44.06782" lon="10.3291183"><ele>446.0</ele><time>2026-04-06T15:08:04.659Z</time></trkpt><trkpt lat="44.0677467" lon="10.3289783"><ele>449.4</ele><time>2026-04-06T15:08:05.659Z</time></trkpt><trkpt lat="44.0676967" lon="10.32883"><ele>452.8</ele><time>2026-04-06T15:08:06.659Z</time></trkpt><trkpt lat="44.06766" lon="10.3286917"><ele>456.19999999999993</ele><time>2026-04-06T15:08:07.659Z</time></trkpt><trkpt lat="44.0676333" lon="10.3285667"><ele>459.59999999999997</ele><time>2026-04-06T15:08:08.659Z</time></trkpt><trkpt lat="44.0676233" lon="10.32845"><ele>463.0</ele><time>2026-04-06T15:08:09.659Z</time></trkpt><trkpt lat="44.067655" lon="10.3283683"><ele>463.0</ele><time>2026-04-06T15:08:10.659Z</time></trkpt><trkpt lat="44.0676983" lon="10.3282917"><ele>462.99999999999994</ele><time>2026-04-06T15:08:11.659Z</time></trkpt><trkpt lat="44.0677533" lon="10.328225"><ele>462.99999999999994</ele><time>2026-04-06T15:08:12.659Z</time></trkpt><trkpt lat="44.0678917" lon="10.3281483"><ele>463.0</ele><time>2026-04-06T15:08:14.659Z</time></trkpt><trkpt lat="44.068015" lon="10.3282033"><ele>463.0</ele><time>2026-04-06T15:08:15.66Z</time></trkpt><trkpt lat="44.0680933" lon="10.328205"><ele>463.0</ele><time>2026-04-06T15:08:16.66Z</time></trkpt><trkpt lat="44.0681867" lon="10.3282183"><ele>462.99999999999994</ele><time>2026-04-06T15:08:17.659Z</time></trkpt><trkpt lat="44.0682767" lon="10.3282183"><ele>462.99999999999994</ele><time>2026-04-06T15:08:18.659Z</time></trkpt><trkpt lat="44.0683967" lon="10.3282017"><ele>463.0</ele><time>2026-04-06T15:08:19.659Z</time></trkpt><trkpt lat="44.0685233" lon="10.3281817"><ele>463.0</ele><time>2026-04-06T15:08:20.659Z</time></trkpt><trkpt lat="44.0686367" lon="10.3281533"><ele>468.5</ele><time>2026-04-06T15:08:21.659Z</time></trkpt><trkpt lat="44.068755" lon="10.3281067"><ele>474.0</ele><time>2026-04-06T15:08:22.659Z</time></trkpt><trkpt lat="44.0688683" lon="10.3280217"><ele>479.5</ele><time>2026-04-06T15:08:23.659Z</time></trkpt><trkpt lat="44.0689717" lon="10.3278933"><ele>485.0</ele><time>2026-04-06T15:08:24.659Z</time></trkpt><trkpt lat="44.0690567" lon="10.32774"><ele>486.5</ele><time>2026-04-06T15:08:25.66Z</time></trkpt><trkpt lat="44.0691283" lon="10.3276017"><ele>488.0</ele><time>2026-04-06T15:08:26.659Z</time></trkpt><trkpt lat="44.0691767" lon="10.3274533"><ele>489.5</ele><time>2026-04-06T15:08:27.659Z</time></trkpt><trkpt lat="44.0691917" lon="10.3272883"><ele>491.0</ele><time>2026-04-06T15:08:28.659Z</time></trkpt><trkpt lat="44.0692017" lon="10.327125"><ele>491.0</ele><time>2026-04-06T15:08:29.659Z</time></trkpt><trkpt lat="44.069185" lon="10.32694"><ele>491.0</ele><time>2026-04-06T15:08:30.659Z</time></trkpt><trkpt lat="44.0691383" lon="10.32673"><ele>491.0</ele><time>2026-04-06T15:08:31.66Z</time></trkpt><trkpt lat="44.0690867" lon="10.3265367"><ele>491.0</ele><time>2026-04-06T15:08:32.659Z</time></trkpt><trkpt lat="44.0689467" lon="10.326305"><ele>491.25</ele><time>2026-04-06T15:08:33.659Z</time></trkpt><trkpt lat="44.0688717" lon="10.3261283"><ele>491.5</ele><time>2026-04-06T15:08:34.659Z</time></trkpt><trkpt lat="44.0688167" lon="10.32596"><ele>491.75</ele><time>2026-04-06T15:08:35.659Z</time></trkpt><trkpt lat="44.0687867" lon="10.325805"><ele>492.0</ele><time>2026-04-06T15:08:36.659Z</time></trkpt><trkpt lat="44.0687833" lon="10.3256467"><ele>490.5</ele><time>2026-04-06T15:08:37.659Z</time></trkpt><trkpt lat="44.0687983" lon="10.3254833"><ele>489.0</ele><time>2026-04-06T15:08:38.659Z</time></trkpt><trkpt lat="44.068805" lon="10.3253217"><ele>487.5</ele><time>2026-04-06T15:08:39.659Z</time></trkpt><trkpt lat="44.06878" lon="10.325155"><ele>486.0</ele><time>2026-04-06T15:08:40.659Z</time></trkpt><trkpt lat="44.0687367" lon="10.3249967"><ele>486.0</ele><time>2026-04-06T15:08:41.659Z</time></trkpt><trkpt lat="44.068675" lon="10.32484"><ele>486.0</ele><time>2026-04-06T15:08:42.66Z</time></trkpt><trkpt lat="44.068615" lon="10.3246833"><ele>486.0</ele><time>2026-04-06T15:08:43.659Z</time></trkpt><trkpt lat="44.0685383" lon="10.3245367"><ele>486.0</ele><time>2026-04-06T15:08:44.66Z</time></trkpt><trkpt lat="44.0684533" lon="10.32439"><ele>490.0</ele><time>2026-04-06T15:08:45.659Z</time></trkpt><trkpt lat="44.0683633" lon="10.3242483"><ele>494.0</ele><time>2026-04-06T15:08:46.66Z</time></trkpt><trkpt lat="44.06828" lon="10.3241"><ele>498.0</ele><time>2026-04-06T15:08:47.659Z</time></trkpt><trkpt lat="44.0681983" lon="10.3239483"><ele>502.0</ele><time>2026-04-06T15:08:48.659Z</time></trkpt><trkpt lat="44.0681217" lon="10.3237933"><ele>508.5</ele><time>2026-04-06T15:08:49.659Z</time></trkpt><trkpt lat="44.0680417" lon="10.3236583"><ele>515.0</ele><time>2026-04-06T15:08:50.66Z</time></trkpt><trkpt lat="44.06796" lon="10.32355"><ele>521.5</ele><time>2026-04-06T15:08:51.659Z</time></trkpt><trkpt lat="44.0678583" lon="10.3234783"><ele>528.0</ele><time>2026-04-06T15:08:52.659Z</time></trkpt><trkpt lat="44.0677483" lon="10.323445"><ele>528.0</ele><time>2026-04-06T15:08:53.659Z</time></trkpt><trkpt lat="44.0676317" lon="10.323445"><ele>528.0</ele><time>2026-04-06T15:08:54.659Z</time></trkpt><trkpt lat="44.0674967" lon="10.3235033"><ele>528.0</ele><time>2026-04-06T15:08:55.659Z</time></trkpt><trkpt lat="44.0673667" lon="10.3235167"><ele>528.0</ele><time>2026-04-06T15:08:56.659Z</time></trkpt><trkpt lat="44.0672317" lon="10.32356"><ele>526.0</ele><time>2026-04-06T15:08:57.659Z</time></trkpt><trkpt lat="44.067095" lon="10.32359"><ele>524.0</ele><time>2026-04-06T15:08:58.659Z</time></trkpt><trkpt lat="44.06696" lon="10.3235933"><ele>522.0</ele><time>2026-04-06T15:08:59.659Z</time></trkpt><trkpt lat="44.0668283" lon="10.3235767"><ele>520.0</ele><time>2026-04-06T15:09:00.659Z</time></trkpt><trkpt lat="44.0666933" lon="10.3235483"><ele>521.25</ele><time>2026-04-06T15:09:01.66Z</time></trkpt><trkpt lat="44.066565" lon="10.323505"><ele>522.5</ele><time>2026-04-06T15:09:02.659Z</time></trkpt><trkpt lat="44.06644" lon="10.32345"><ele>523.75</ele><time>2026-04-06T15:09:03.659Z</time></trkpt><trkpt lat="44.0663333" lon="10.3233917"><ele>525.0</ele><time>2026-04-06T15:09:04.66Z</time></trkpt><trkpt lat="44.06624" lon="10.32332"><ele>525.0</ele><time>2026-04-06T15:09:05.659Z</time></trkpt><trkpt lat="44.0661567" lon="10.323225"><ele>525.0</ele><time>2026-04-06T15:09:06.659Z</time></trkpt><trkpt lat="44.0660833" lon="10.323125"><ele>525.0</ele><time>2026-04-06T15:09:07.659Z</time></trkpt><trkpt lat="44.0660217" lon="10.3230283"><ele>525.0</ele><time>2026-04-06T15:09:08.659Z</time></trkpt><trkpt lat="44.06597" lon="10.32293"><ele>525.0</ele><time>2026-04-06T15:09:09.659Z</time></trkpt><trkpt lat="44.0659267" lon="10.3228333"><ele>524.1666666666666</ele><time>2026-04-06T15:09:10.66Z</time></trkpt><trkpt lat="44.065895" lon="10.3227367"><ele>523.3333333333334</ele><time>2026-04-06T15:09:11.659Z</time></trkpt><trkpt lat="44.0658633" lon="10.3226367"><ele>522.5</ele><time>2026-04-06T15:09:12.659Z</time></trkpt><trkpt lat="44.06585" lon="10.3225133"><ele>521.6666666666667</ele><time>2026-04-06T15:09:13.659Z</time></trkpt><trkpt lat="44.0658517" lon="10.3223683"><ele>520.8333333333334</ele><time>2026-04-06T15:09:14.659Z</time></trkpt><trkpt lat="44.0658433" lon="10.3222367"><ele>520.0</ele><time>2026-04-06T15:09:15.659Z</time></trkpt><trkpt lat="44.06584" lon="10.3221017"><ele>522.1666666666667</ele><time>2026-04-06T15:09:16.659Z</time></trkpt><trkpt lat="44.0658267" lon="10.3219817"><ele>524.3333333333334</ele><time>2026-04-06T15:09:17.66Z</time></trkpt><trkpt lat="44.06581" lon="10.3218633"><ele>526.5</ele><time>2026-04-06T15:09:18.659Z</time></trkpt><trkpt lat="44.0658083" lon="10.32175"><ele>528.6666666666666</ele><time>2026-04-06T15:09:19.659Z</time></trkpt><trkpt lat="44.0657383" lon="10.3217083"><ele>530.8333333333333</ele><time>2026-04-06T15:09:20.659Z</time></trkpt><trkpt lat="44.065705" lon="10.3216167"><ele>533.0</ele><time>2026-04-06T15:09:21.659Z</time></trkpt><trkpt lat="44.065675" lon="10.3215267"><ele>533.0</ele><time>2026-04-06T15:09:22.659Z</time></trkpt><trkpt lat="44.06564" lon="10.3214383"><ele>533.0</ele><time>2026-04-06T15:09:23.659Z</time></trkpt><trkpt lat="44.0655933" lon="10.3212583"><ele>533.0</ele><time>2026-04-06T15:09:25.66Z</time></trkpt><trkpt lat="44.0655933" lon="10.3211417"><ele>533.0</ele><time>2026-04-06T15:09:26.66Z</time></trkpt><trkpt lat="44.0655133" lon="10.3210117"><ele>533.0</ele><time>2026-04-06T15:09:27.659Z</time></trkpt><trkpt lat="44.0654867" lon="10.3208867"><ele>533.5</ele><time>2026-04-06T15:09:28.659Z</time></trkpt><trkpt lat="44.065455" lon="10.3207417"><ele>534.0</ele><time>2026-04-06T15:09:29.659Z</time></trkpt><trkpt lat="44.0654067" lon="10.3205717"><ele>534.5</ele><time>2026-04-06T15:09:30.659Z</time></trkpt><trkpt lat="44.065335" lon="10.3204183"><ele>535.0</ele><time>2026-04-06T15:09:31.659Z</time></trkpt><trkpt lat="44.0652817" lon="10.3202433"><ele>535.0</ele><time>2026-04-06T15:09:32.659Z</time></trkpt><trkpt lat="44.0652367" lon="10.3200717"><ele>535.0</ele><time>2026-04-06T15:09:33.659Z</time></trkpt><trkpt lat="44.0652067" lon="10.319895"><ele>535.0</ele><time>2026-04-06T15:09:34.659Z</time></trkpt><trkpt lat="44.06517" lon="10.31972"><ele>535.0</ele><time>2026-04-06T15:09:35.659Z</time></trkpt><trkpt lat="44.06514" lon="10.3195383"><ele>535.75</ele><time>2026-04-06T15:09:36.66Z</time></trkpt><trkpt lat="44.0651217" lon="10.31937"><ele>536.5</ele><time>2026-04-06T15:09:37.659Z</time></trkpt><trkpt lat="44.06511" lon="10.3192117"><ele>537.25</ele><time>2026-04-06T15:09:38.66Z</time></trkpt><trkpt lat="44.06511" lon="10.3190483"><ele>538.0</ele><time>2026-04-06T15:09:39.659Z</time></trkpt><trkpt lat="44.06511" lon="10.318895"><ele>536.8</ele><time>2026-04-06T15:09:40.659Z</time></trkpt><trkpt lat="44.065105" lon="10.318755"><ele>535.5999999999999</ele><time>2026-04-06T15:09:41.659Z</time></trkpt><trkpt lat="44.0651083" lon="10.3186217"><ele>534.4000000000001</ele><time>2026-04-06T15:09:42.659Z</time></trkpt><trkpt lat="44.0651317" lon="10.3184983"><ele>533.2</ele><time>2026-04-06T15:09:43.659Z</time></trkpt><trkpt lat="44.06517" lon="10.3183833"><ele>532.0</ele><time>2026-04-06T15:09:44.659Z</time></trkpt><trkpt lat="44.0652083" lon="10.3182617"><ele>532.0</ele><time>2026-04-06T15:09:45.659Z</time></trkpt><trkpt lat="44.0652467" lon="10.3181267"><ele>532.0</ele><time>2026-04-06T15:09:46.659Z</time></trkpt><trkpt lat="44.065275" lon="10.3179867"><ele>532.0</ele><time>2026-04-06T15:09:47.659Z</time></trkpt><trkpt lat="44.0653" lon="10.31784"><ele>532.0</ele><time>2026-04-06T15:09:48.659Z</time></trkpt><trkpt lat="44.06531" lon="10.317665"><ele>532.0</ele><time>2026-04-06T15:09:49.659Z</time></trkpt><trkpt lat="44.0653117" lon="10.3174683"><ele>530.6666666666667</ele><time>2026-04-06T15:09:50.659Z</time></trkpt><trkpt lat="44.0653483" lon="10.3170883"><ele>529.3333333333334</ele><time>2026-04-06T15:09:52.659Z</time></trkpt><trkpt lat="44.0653883" lon="10.3169117"><ele>528.0</ele><time>2026-04-06T15:09:53.659Z</time></trkpt><trkpt lat="44.0654583" lon="10.31675"><ele>528.0</ele><time>2026-04-06T15:09:54.659Z</time></trkpt><trkpt lat="44.0655533" lon="10.316615"><ele>528.0</ele><time>2026-04-06T15:09:55.659Z</time></trkpt><trkpt lat="44.0656567" lon="10.316485"><ele>528.0</ele><time>2026-04-06T15:09:56.659Z</time></trkpt><trkpt lat="44.0657633" lon="10.3163617"><ele>528.0</ele><time>2026-04-06T15:09:57.66Z</time></trkpt><trkpt lat="44.0658783" lon="10.316235"><ele>528.75</ele><time>2026-04-06T15:09:58.659Z</time></trkpt><trkpt lat="44.0659883" lon="10.3161067"><ele>529.5</ele><time>2026-04-06T15:09:59.659Z</time></trkpt><trkpt lat="44.0660867" lon="10.3159633"><ele>530.25</ele><time>2026-04-06T15:10:00.659Z</time></trkpt><trkpt lat="44.0661633" lon="10.3158083"><ele>531.0</ele><time>2026-04-06T15:10:01.66Z</time></trkpt><trkpt lat="44.06623" lon="10.31566"><ele>531.2</ele><time>2026-04-06T15:10:02.659Z</time></trkpt><trkpt lat="44.0662967" lon="10.3155283"><ele>531.4000000000001</ele><time>2026-04-06T15:10:03.66Z</time></trkpt><trkpt lat="44.06635" lon="10.3153983"><ele>531.6</ele><time>2026-04-06T15:10:04.659Z</time></trkpt><trkpt lat="44.066385" lon="10.3152617"><ele>531.8000000000001</ele><time>2026-04-06T15:10:05.659Z</time></trkpt><trkpt lat="44.0663767" lon="10.31512"><ele>532.0</ele><time>2026-04-06T15:10:06.66Z</time></trkpt><trkpt lat="44.066345" lon="10.314975"><ele>532.0</ele><time>2026-04-06T15:10:07.659Z</time></trkpt><trkpt lat="44.0663117" lon="10.314835"><ele>532.0</ele><time>2026-04-06T15:10:08.659Z</time></trkpt><trkpt lat="44.0662817" lon="10.3147033"><ele>532.0</ele><time>2026-04-06T15:10:09.659Z</time></trkpt><trkpt lat="44.0662567" lon="10.3145767"><ele>532.0</ele><time>2026-04-06T15:10:10.659Z</time></trkpt><trkpt lat="44.0662533" lon="10.3143433"><ele>534.0</ele><time>2026-04-06T15:10:12.659Z</time></trkpt><trkpt lat="44.0662667" lon="10.3142283"><ele>536.0</ele><time>2026-04-06T15:10:13.659Z</time></trkpt><trkpt lat="44.0662767" lon="10.3141233"><ele>538.0</ele><time>2026-04-06T15:10:14.659Z</time></trkpt><trkpt lat="44.0662717" lon="10.31402"><ele>540.0</ele><time>2026-04-06T15:10:15.659Z</time></trkpt><trkpt lat="44.0662383" lon="10.31392"><ele>542.0</ele><time>2026-04-06T15:10:16.659Z</time></trkpt><trkpt lat="44.0661833" lon="10.31383"><ele>544.0</ele><time>2026-04-06T15:10:17.66Z</time></trkpt><trkpt lat="44.0661133" lon="10.31375"><ele>546.6666666666667</ele><time>2026-04-06T15:10:18.66Z</time></trkpt><trkpt lat="44.0660333" lon="10.3136817"><ele>549.3333333333334</ele><time>2026-04-06T15:10:19.659Z</time></trkpt><trkpt lat="44.06597" lon="10.3136"><ele>552.0</ele><time>2026-04-06T15:10:20.659Z</time></trkpt><trkpt lat="44.0659267" lon="10.31349"><ele>554.6666666666666</ele><time>2026-04-06T15:10:21.659Z</time></trkpt><trkpt lat="44.0659" lon="10.31338"><ele>557.3333333333333</ele><time>2026-04-06T15:10:22.659Z</time></trkpt><trkpt lat="44.0658917" lon="10.3132583"><ele>560.0</ele><time>2026-04-06T15:10:23.659Z</time></trkpt><trkpt lat="44.0659033" lon="10.313125"><ele>561.0</ele><time>2026-04-06T15:10:24.659Z</time></trkpt><trkpt lat="44.0659367" lon="10.3129833"><ele>562.0</ele><time>2026-04-06T15:10:25.659Z</time></trkpt><trkpt lat="44.0659833" lon="10.31284"><ele>563.0</ele><time>2026-04-06T15:10:26.659Z</time></trkpt><trkpt lat="44.0660433" lon="10.3127"><ele>564.0</ele><time>2026-04-06T15:10:27.659Z</time></trkpt><trkpt lat="44.0660967" lon="10.3125617"><ele>564.0</ele><time>2026-04-06T15:10:28.66Z</time></trkpt><trkpt lat="44.0661567" lon="10.31242"><ele>564.0</ele><time>2026-04-06T15:10:29.659Z</time></trkpt><trkpt lat="44.06622" lon="10.31228"><ele>564.0</ele><time>2026-04-06T15:10:30.659Z</time></trkpt><trkpt lat="44.06635" lon="10.3119967"><ele>565.8</ele><time>2026-04-06T15:10:32.659Z</time></trkpt><trkpt lat="44.0663933" lon="10.3118467"><ele>567.5999999999999</ele><time>2026-04-06T15:10:33.659Z</time></trkpt><trkpt lat="44.066425" lon="10.3117117"><ele>569.4</ele><time>2026-04-06T15:10:34.66Z</time></trkpt><trkpt lat="44.0664417" lon="10.31158"><ele>571.1999999999999</ele><time>2026-04-06T15:10:35.659Z</time></trkpt><trkpt lat="44.0664217" lon="10.3114517"><ele>573.0</ele><time>2026-04-06T15:10:36.659Z</time></trkpt><trkpt lat="44.066395" lon="10.31134"><ele>578.8</ele><time>2026-04-06T15:10:37.659Z</time></trkpt><trkpt lat="44.0663683" lon="10.3112367"><ele>584.5999999999999</ele><time>2026-04-06T15:10:38.659Z</time></trkpt><trkpt lat="44.066325" lon="10.311145"><ele>590.4000000000001</ele><time>2026-04-06T15:10:39.658Z</time></trkpt><trkpt lat="44.066235" lon="10.3110783"><ele>596.2</ele><time>2026-04-06T15:10:40.658Z</time></trkpt><trkpt lat="44.0661033" lon="10.3111217"><ele>602.0</ele><time>2026-04-06T15:10:41.658Z</time></trkpt><trkpt lat="44.0660167" lon="10.3111533"><ele>602.0</ele><time>2026-04-06T15:10:42.658Z</time></trkpt><trkpt lat="44.065905" lon="10.3111883"><ele>602.0</ele><time>2026-04-06T15:10:43.658Z</time></trkpt><trkpt lat="44.0658183" lon="10.3112967"><ele>602.0</ele><time>2026-04-06T15:10:44.658Z</time></trkpt><trkpt lat="44.0657383" lon="10.3113933"><ele>602.0</ele><time>2026-04-06T15:10:45.658Z</time></trkpt><trkpt lat="44.0656383" lon="10.3114733"><ele>596.75</ele><time>2026-04-06T15:10:46.659Z</time></trkpt><trkpt lat="44.0655317" lon="10.3115333"><ele>591.5</ele><time>2026-04-06T15:10:47.658Z</time></trkpt><trkpt lat="44.06543" lon="10.3115917"><ele>586.25</ele><time>2026-04-06T15:10:48.658Z</time></trkpt><trkpt lat="44.0653233" lon="10.3116517"><ele>581.0</ele><time>2026-04-06T15:10:49.658Z</time></trkpt><trkpt lat="44.0652167" lon="10.31172"><ele>581.0</ele><time>2026-04-06T15:10:50.658Z</time></trkpt><trkpt lat="44.0650183" lon="10.3118867"><ele>581.0</ele><time>2026-04-06T15:10:52.658Z</time></trkpt><trkpt lat="44.0649267" lon="10.3119533"><ele>581.0</ele><time>2026-04-06T15:10:53.658Z</time></trkpt><trkpt lat="44.0648233" lon="10.311985"><ele>581.0</ele><time>2026-04-06T15:10:54.658Z</time></trkpt><trkpt lat="44.064715" lon="10.3119967"><ele>577.0</ele><time>2026-04-06T15:10:55.658Z</time></trkpt><trkpt lat="44.0646117" lon="10.311985"><ele>573.0</ele><time>2026-04-06T15:10:56.658Z</time></trkpt><trkpt lat="44.0645117" lon="10.3119667"><ele>569.0</ele><time>2026-04-06T15:10:57.658Z</time></trkpt><trkpt lat="44.06444" lon="10.311905"><ele>565.0</ele><time>2026-04-06T15:10:58.658Z</time></trkpt><trkpt lat="44.0643717" lon="10.311835"><ele>561.0</ele><time>2026-04-06T15:10:59.658Z</time></trkpt><trkpt lat="44.0643033" lon="10.3117317"><ele>561.0</ele><time>2026-04-06T15:11:00.658Z</time></trkpt><trkpt lat="44.0642433" lon="10.31159"><ele>561.0</ele><time>2026-04-06T15:11:01.658Z</time></trkpt><trkpt lat="44.0641867" lon="10.3114433"><ele>561.0</ele><time>2026-04-06T15:11:02.659Z</time></trkpt><trkpt lat="44.0641283" lon="10.3112933"><ele>561.0</ele><time>2026-04-06T15:11:03.658Z</time></trkpt><trkpt lat="44.0640717" lon="10.31114"><ele>561.0</ele><time>2026-04-06T15:11:04.658Z</time></trkpt><trkpt lat="44.064015" lon="10.31098"><ele>561.0</ele><time>2026-04-06T15:11:05.658Z</time></trkpt><trkpt lat="44.06394" lon="10.3108383"><ele>561.0</ele><time>2026-04-06T15:11:06.658Z</time></trkpt><trkpt lat="44.063845" lon="10.3107067"><ele>561.0</ele><time>2026-04-06T15:11:07.658Z</time></trkpt><trkpt lat="44.0637433" lon="10.3105867"><ele>572.0</ele><time>2026-04-06T15:11:08.658Z</time></trkpt><trkpt lat="44.0636383" lon="10.3104733"><ele>583.0</ele><time>2026-04-06T15:11:09.658Z</time></trkpt><trkpt lat="44.0635383" lon="10.310365"><ele>594.0</ele><time>2026-04-06T15:11:10.658Z</time></trkpt><trkpt lat="44.0633117" lon="10.310195"><ele>588.75</ele><time>2026-04-06T15:11:12.658Z</time></trkpt><trkpt lat="44.063195" lon="10.3101283"><ele>583.5</ele><time>2026-04-06T15:11:13.658Z</time></trkpt><trkpt lat="44.0630817" lon="10.310075"><ele>578.25</ele><time>2026-04-06T15:11:14.658Z</time></trkpt><trkpt lat="44.062975" lon="10.3100067"><ele>573.0</ele><time>2026-04-06T15:11:15.658Z</time></trkpt><trkpt lat="44.062875" lon="10.3099167"><ele>573.0</ele><time>2026-04-06T15:11:16.659Z</time></trkpt><trkpt lat="44.06277" lon="10.3098483"><ele>573.0</ele><time>2026-04-06T15:11:17.658Z</time></trkpt><trkpt lat="44.06267" lon="10.3098167"><ele>573.0</ele><time>2026-04-06T15:11:18.658Z</time></trkpt><trkpt lat="44.0625683" lon="10.3097733"><ele>573.0</ele><time>2026-04-06T15:11:19.658Z</time></trkpt><trkpt lat="44.0624683" lon="10.3097217"><ele>573.0</ele><time>2026-04-06T15:11:20.658Z</time></trkpt><trkpt lat="44.0623667" lon="10.309655"><ele>572.75</ele><time>2026-04-06T15:11:21.658Z</time></trkpt><trkpt lat="44.0622633" lon="10.3095867"><ele>572.5</ele><time>2026-04-06T15:11:22.658Z</time></trkpt><trkpt lat="44.062165" lon="10.30949"><ele>572.25</ele><time>2026-04-06T15:11:23.658Z</time></trkpt><trkpt lat="44.06207" lon="10.30939"><ele>572.0</ele><time>2026-04-06T15:11:24.658Z</time></trkpt><trkpt lat="44.06198" lon="10.309275"><ele>572.0</ele><time>2026-04-06T15:11:25.658Z</time></trkpt><trkpt lat="44.0618933" lon="10.3091517"><ele>572.0</ele><time>2026-04-06T15:11:26.658Z</time></trkpt><trkpt lat="44.0618017" lon="10.3090217"><ele>572.0</ele><time>2026-04-06T15:11:27.659Z</time></trkpt><trkpt lat="44.0616983" lon="10.3089383"><ele>572.0</ele><time>2026-04-06T15:11:28.658Z</time></trkpt><trkpt lat="44.0615883" lon="10.30889"><ele>572.8000000000001</ele><time>2026-04-06T15:11:29.659Z</time></trkpt><trkpt lat="44.06148" lon="10.30886"><ele>573.6</ele><time>2026-04-06T15:11:30.658Z</time></trkpt><trkpt lat="44.061375" lon="10.3088267"><ele>574.4000000000001</ele><time>2026-04-06T15:11:31.658Z</time></trkpt><trkpt lat="44.061275" lon="10.30878"><ele>575.2</ele><time>2026-04-06T15:11:32.658Z</time></trkpt><trkpt lat="44.06119" lon="10.30867"><ele>576.0</ele><time>2026-04-06T15:11:33.658Z</time></trkpt><trkpt lat="44.0611417" lon="10.30849"><ele>576.0</ele><time>2026-04-06T15:11:34.658Z</time></trkpt><trkpt lat="44.06111" lon="10.3083433"><ele>576.0</ele><time>2026-04-06T15:11:35.658Z</time></trkpt><trkpt lat="44.061105" lon="10.3081817"><ele>576.0</ele><time>2026-04-06T15:11:36.658Z</time></trkpt><trkpt lat="44.0611267" lon="10.3079183"><ele>576.0</ele><time>2026-04-06T15:11:37.658Z</time></trkpt><trkpt lat="44.0611033" lon="10.307695"><ele>578.25</ele><time>2026-04-06T15:11:38.658Z</time></trkpt><trkpt lat="44.0610683" lon="10.3074967"><ele>580.5</ele><time>2026-04-06T15:11:39.658Z</time></trkpt><trkpt lat="44.0610367" lon="10.3073083"><ele>582.75</ele><time>2026-04-06T15:11:40.658Z</time></trkpt><trkpt lat="44.06102" lon="10.3071383"><ele>585.0</ele><time>2026-04-06T15:11:41.658Z</time></trkpt><trkpt lat="44.0610133" lon="10.3069683"><ele>586.0</ele><time>2026-04-06T15:11:42.658Z</time></trkpt><trkpt lat="44.0610033" lon="10.3067933"><ele>587.0</ele><time>2026-04-06T15:11:43.658Z</time></trkpt><trkpt lat="44.0609983" lon="10.306625"><ele>588.0</ele><time>2026-04-06T15:11:44.658Z</time></trkpt><trkpt lat="44.0610117" lon="10.306455"><ele>589.0</ele><time>2026-04-06T15:11:45.658Z</time></trkpt><trkpt lat="44.0610333" lon="10.3062733"><ele>590.0</ele><time>2026-04-06T15:11:46.658Z</time></trkpt><trkpt lat="44.06106" lon="10.3061017"><ele>591.0</ele><time>2026-04-06T15:11:47.658Z</time></trkpt><trkpt lat="44.061095" lon="10.305945"><ele>592.0</ele><time>2026-04-06T15:11:48.658Z</time></trkpt><trkpt lat="44.0610933" lon="10.3057733"><ele>593.0</ele><time>2026-04-06T15:11:49.658Z</time></trkpt><trkpt lat="44.0610633" lon="10.3055983"><ele>594.75</ele><time>2026-04-06T15:11:50.658Z</time></trkpt><trkpt lat="44.0610283" lon="10.30543"><ele>596.5</ele><time>2026-04-06T15:11:51.658Z</time></trkpt><trkpt lat="44.06099" lon="10.30526"><ele>598.25</ele><time>2026-04-06T15:11:52.659Z</time></trkpt><trkpt lat="44.0609333" lon="10.3051"><ele>600.0</ele><time>2026-04-06T15:11:53.658Z</time></trkpt><trkpt lat="44.0608717" lon="10.304965"><ele>600.0</ele><time>2026-04-06T15:11:54.658Z</time></trkpt><trkpt lat="44.0608117" lon="10.3048317"><ele>600.0</ele><time>2026-04-06T15:11:55.658Z</time></trkpt><trkpt lat="44.0607717" lon="10.304695"><ele>600.0</ele><time>2026-04-06T15:11:56.658Z</time></trkpt><trkpt lat="44.0607733" lon="10.3045633"><ele>600.0</ele><time>2026-04-06T15:11:57.658Z</time></trkpt><trkpt lat="44.0608083" lon="10.3044367"><ele>600.0</ele><time>2026-04-06T15:11:58.658Z</time></trkpt><trkpt lat="44.0608517" lon="10.3042983"><ele>603.25</ele><time>2026-04-06T15:11:59.658Z</time></trkpt><trkpt lat="44.0608833" lon="10.3041483"><ele>606.5</ele><time>2026-04-06T15:12:00.658Z</time></trkpt><trkpt lat="44.06089" lon="10.3039817"><ele>609.75</ele><time>2026-04-06T15:12:01.659Z</time></trkpt><trkpt lat="44.0608783" lon="10.3038133"><ele>613.0</ele><time>2026-04-06T15:12:02.659Z</time></trkpt><trkpt lat="44.0608467" lon="10.3036433"><ele>616.75</ele><time>2026-04-06T15:12:03.658Z</time></trkpt><trkpt lat="44.0608133" lon="10.3034683"><ele>620.5</ele><time>2026-04-06T15:12:04.658Z</time></trkpt><trkpt lat="44.0607733" lon="10.3032933"><ele>624.25</ele><time>2026-04-06T15:12:05.658Z</time></trkpt><trkpt lat="44.0607317" lon="10.3031267"><ele>628.0</ele><time>2026-04-06T15:12:06.658Z</time></trkpt><trkpt lat="44.060695" lon="10.30297"><ele>637.25</ele><time>2026-04-06T15:12:07.658Z</time></trkpt><trkpt lat="44.0606533" lon="10.302815"><ele>646.5</ele><time>2026-04-06T15:12:08.659Z</time></trkpt><trkpt lat="44.060615" lon="10.302655"><ele>655.75</ele><time>2026-04-06T15:12:09.658Z</time></trkpt><trkpt lat="44.0605783" lon="10.3024933"><ele>665.0</ele><time>2026-04-06T15:12:10.658Z</time></trkpt><trkpt lat="44.0605433" lon="10.302325"><ele>668.25</ele><time>2026-04-06T15:12:11.658Z</time></trkpt><trkpt lat="44.0605133" lon="10.30215"><ele>671.5</ele><time>2026-04-06T15:12:12.658Z</time></trkpt><trkpt lat="44.0605117" lon="10.3019717"><ele>674.75</ele><time>2026-04-06T15:12:13.658Z</time></trkpt><trkpt lat="44.060525" lon="10.3018"><ele>678.0</ele><time>2026-04-06T15:12:14.658Z</time></trkpt><trkpt lat="44.06056" lon="10.3016333"><ele>678.0</ele><time>2026-04-06T15:12:15.658Z</time></trkpt><trkpt lat="44.06061" lon="10.3014683"><ele>678.0</ele><time>2026-04-06T15:12:16.658Z</time></trkpt><trkpt lat="44.0606383" lon="10.30129"><ele>678.0</ele><time>2026-04-06T15:12:17.658Z</time></trkpt><trkpt lat="44.060665" lon="10.30111"><ele>678.0</ele><time>2026-04-06T15:12:18.658Z</time></trkpt><trkpt lat="44.0607017" lon="10.3009333"><ele>682.25</ele><time>2026-04-06T15:12:19.658Z</time></trkpt><trkpt lat="44.0607483" lon="10.3007683"><ele>686.5</ele><time>2026-04-06T15:12:20.659Z</time></trkpt><trkpt lat="44.0608117" lon="10.300625"><ele>690.75</ele><time>2026-04-06T15:12:21.658Z</time></trkpt><trkpt lat="44.0608833" lon="10.300495"><ele>695.0</ele><time>2026-04-06T15:12:22.658Z</time></trkpt><trkpt lat="44.0609417" lon="10.3003683"><ele>688.0</ele><time>2026-04-06T15:12:23.658Z</time></trkpt><trkpt lat="44.060985" lon="10.30024"><ele>681.0</ele><time>2026-04-06T15:12:24.658Z</time></trkpt><trkpt lat="44.061" lon="10.3001017"><ele>674.0</ele><time>2026-04-06T15:12:25.659Z</time></trkpt><trkpt lat="44.061" lon="10.2999517"><ele>667.0</ele><time>2026-04-06T15:12:26.658Z</time></trkpt><trkpt lat="44.0609867" lon="10.299805"><ele>660.0</ele><time>2026-04-06T15:12:27.658Z</time></trkpt><trkpt lat="44.0609733" lon="10.2996717"><ele>660.0</ele><time>2026-04-06T15:12:28.658Z</time></trkpt><trkpt lat="44.0609267" lon="10.2995367"><ele>660.0</ele><time>2026-04-06T15:12:29.659Z</time></trkpt><trkpt lat="44.060885" lon="10.2994167"><ele>660.0</ele><time>2026-04-06T15:12:30.658Z</time></trkpt><trkpt lat="44.0608383" lon="10.2993"><ele>660.0</ele><time>2026-04-06T15:12:31.658Z</time></trkpt><trkpt lat="44.0607983" lon="10.299185"><ele>660.0</ele><time>2026-04-06T15:12:32.658Z</time></trkpt><trkpt lat="44.0607617" lon="10.299065"><ele>669.8</ele><time>2026-04-06T15:12:33.658Z</time></trkpt><trkpt lat="44.06074" lon="10.2989367"><ele>679.6</ele><time>2026-04-06T15:12:34.659Z</time></trkpt><trkpt lat="44.0607267" lon="10.2988017"><ele>689.4000000000001</ele><time>2026-04-06T15:12:35.658Z</time></trkpt><trkpt lat="44.0607317" lon="10.2986617"><ele>699.2</ele><time>2026-04-06T15:12:36.658Z</time></trkpt><trkpt lat="44.0607517" lon="10.298515"><ele>709.0</ele><time>2026-04-06T15:12:37.658Z</time></trkpt><trkpt lat="44.0607817" lon="10.2983667"><ele>696.6</ele><time>2026-04-06T15:12:38.658Z</time></trkpt><trkpt lat="44.060805" lon="10.2982133"><ele>684.2</ele><time>2026-04-06T15:12:39.658Z</time></trkpt><trkpt lat="44.0608233" lon="10.2980633"><ele>671.8000000000001</ele><time>2026-04-06T15:12:40.658Z</time></trkpt><trkpt lat="44.0608333" lon="10.29791"><ele>659.4000000000001</ele><time>2026-04-06T15:12:41.658Z</time></trkpt><trkpt lat="44.0608333" lon="10.297755"><ele>647.0</ele><time>2026-04-06T15:12:42.658Z</time></trkpt><trkpt lat="44.0608267" lon="10.2975833"><ele>647.0</ele><time>2026-04-06T15:12:43.658Z</time></trkpt><trkpt lat="44.0608183" lon="10.297395"><ele>647.0</ele><time>2026-04-06T15:12:44.658Z</time></trkpt><trkpt lat="44.0608133" lon="10.2971917"><ele>647.0</ele><time>2026-04-06T15:12:45.659Z</time></trkpt><trkpt lat="44.0608183" lon="10.2969817"><ele>647.0</ele><time>2026-04-06T15:12:46.658Z</time></trkpt><trkpt lat="44.06082" lon="10.2967783"><ele>648.0</ele><time>2026-04-06T15:12:47.658Z</time></trkpt><trkpt lat="44.0608117" lon="10.2965683"><ele>649.0</ele><time>2026-04-06T15:12:48.658Z</time></trkpt><trkpt lat="44.060815" lon="10.2963517"><ele>650.0</ele><time>2026-04-06T15:12:49.658Z</time></trkpt><trkpt lat="44.060815" lon="10.2961283"><ele>652.0</ele><time>2026-04-06T15:12:50.658Z</time></trkpt><trkpt lat="44.0608167" lon="10.2959033"><ele>654.0</ele><time>2026-04-06T15:12:51.658Z</time></trkpt><trkpt lat="44.0608133" lon="10.29568"><ele>656.0</ele><time>2026-04-06T15:12:52.659Z</time></trkpt><trkpt lat="44.0608117" lon="10.2954667"><ele>657.75</ele><time>2026-04-06T15:12:53.658Z</time></trkpt><trkpt lat="44.0607967" lon="10.2952683"><ele>659.5</ele><time>2026-04-06T15:12:54.658Z</time></trkpt><trkpt lat="44.06078" lon="10.2950733"><ele>661.25</ele><time>2026-04-06T15:12:55.658Z</time></trkpt><trkpt lat="44.0607783" lon="10.294875"><ele>663.0</ele><time>2026-04-06T15:12:56.658Z</time></trkpt><trkpt lat="44.060805" lon="10.2946917"><ele>666.75</ele><time>2026-04-06T15:12:57.658Z</time></trkpt><trkpt lat="44.0608817" lon="10.294535"><ele>670.5</ele><time>2026-04-06T15:12:58.659Z</time></trkpt><trkpt lat="44.0609717" lon="10.2943867"><ele>674.25</ele><time>2026-04-06T15:12:59.658Z</time></trkpt><trkpt lat="44.0610783" lon="10.2942567"><ele>678.0</ele><time>2026-04-06T15:13:00.658Z</time></trkpt><trkpt lat="44.0611967" lon="10.2941467"><ele>678.0</ele><time>2026-04-06T15:13:01.658Z</time></trkpt><trkpt lat="44.061325" lon="10.2940617"><ele>678.0</ele><time>2026-04-06T15:13:02.658Z</time></trkpt><trkpt lat="44.0614567" lon="10.2939967"><ele>678.0</ele><time>2026-04-06T15:13:03.658Z</time></trkpt><trkpt lat="44.0615833" lon="10.2939267"><ele>678.0</ele><time>2026-04-06T15:13:04.659Z</time></trkpt><trkpt lat="44.0617117" lon="10.2938467"><ele>676.75</ele><time>2026-04-06T15:13:05.658Z</time></trkpt><trkpt lat="44.0618217" lon="10.2937433"><ele>675.5</ele><time>2026-04-06T15:13:06.658Z</time></trkpt><trkpt lat="44.0619233" lon="10.293615"><ele>674.25</ele><time>2026-04-06T15:13:07.658Z</time></trkpt><trkpt lat="44.0620083" lon="10.293445"><ele>673.0</ele><time>2026-04-06T15:13:08.658Z</time></trkpt><trkpt lat="44.0620533" lon="10.2932467"><ele>681.3333333333334</ele><time>2026-04-06T15:13:09.658Z</time></trkpt><trkpt lat="44.0620733" lon="10.29303"><ele>689.6666666666666</ele><time>2026-04-06T15:13:10.659Z</time></trkpt><trkpt lat="44.0620717" lon="10.2928083"><ele>698.0</ele><time>2026-04-06T15:13:11.659Z</time></trkpt><trkpt lat="44.0620533" lon="10.2925967"><ele>698.0</ele><time>2026-04-06T15:13:12.658Z</time></trkpt><trkpt lat="44.062025" lon="10.2923917"><ele>698.0</ele><time>2026-04-06T15:13:13.659Z</time></trkpt><trkpt lat="44.061995" lon="10.2921883"><ele>698.0</ele><time>2026-04-06T15:13:14.658Z</time></trkpt><trkpt lat="44.0619733" lon="10.2919833"><ele>698.0</ele><time>2026-04-06T15:13:15.658Z</time></trkpt><trkpt lat="44.0619667" lon="10.2917733"><ele>710.3333333333333</ele><time>2026-04-06T15:13:16.658Z</time></trkpt><trkpt lat="44.0619783" lon="10.2915667"><ele>722.6666666666666</ele><time>2026-04-06T15:13:17.658Z</time></trkpt><trkpt lat="44.062005" lon="10.2913617"><ele>735.0</ele><time>2026-04-06T15:13:18.658Z</time></trkpt><trkpt lat="44.062045" lon="10.2911583"><ele>738.6666666666666</ele><time>2026-04-06T15:13:19.659Z</time></trkpt><trkpt lat="44.0621" lon="10.29096"><ele>742.3333333333333</ele><time>2026-04-06T15:13:20.658Z</time></trkpt><trkpt lat="44.0621667" lon="10.2907633"><ele>746.0</ele><time>2026-04-06T15:13:21.658Z</time></trkpt><trkpt lat="44.0622483" lon="10.2905767"><ele>746.0</ele><time>2026-04-06T15:13:22.658Z</time></trkpt><trkpt lat="44.0623417" lon="10.2904033"><ele>746.0</ele><time>2026-04-06T15:13:23.658Z</time></trkpt><trkpt lat="44.0624367" lon="10.29024"><ele>746.0</ele><time>2026-04-06T15:13:24.658Z</time></trkpt><trkpt lat="44.06253" lon="10.29009"><ele>746.0</ele><time>2026-04-06T15:13:25.658Z</time></trkpt><trkpt lat="44.062615" lon="10.2899533"><ele>733.1999999999999</ele><time>2026-04-06T15:13:26.658Z</time></trkpt><trkpt lat="44.062685" lon="10.2898217"><ele>720.4</ele><time>2026-04-06T15:13:27.658Z</time></trkpt><trkpt lat="44.0627133" lon="10.2896817"><ele>707.6</ele><time>2026-04-06T15:13:28.658Z</time></trkpt><trkpt lat="44.0626983" lon="10.2895383"><ele>694.8</ele><time>2026-04-06T15:13:29.658Z</time></trkpt><trkpt lat="44.0626467" lon="10.2894067"><ele>682.0</ele><time>2026-04-06T15:13:30.658Z</time></trkpt><trkpt lat="44.0625683" lon="10.2893033"><ele>682.0</ele><time>2026-04-06T15:13:31.658Z</time></trkpt><trkpt lat="44.0624717" lon="10.2892467"><ele>682.0</ele><time>2026-04-06T15:13:32.658Z</time></trkpt><trkpt lat="44.0623533" lon="10.28921"><ele>682.0</ele><time>2026-04-06T15:13:33.658Z</time></trkpt><trkpt lat="44.062225" lon="10.28918"><ele>682.0</ele><time>2026-04-06T15:13:34.658Z</time></trkpt><trkpt lat="44.0621017" lon="10.2891133"><ele>685.25</ele><time>2026-04-06T15:13:35.658Z</time></trkpt><trkpt lat="44.061975" lon="10.2890083"><ele>688.5</ele><time>2026-04-06T15:13:36.658Z</time></trkpt><trkpt lat="44.06187" lon="10.2888633"><ele>691.75</ele><time>2026-04-06T15:13:37.659Z</time></trkpt><trkpt lat="44.06178" lon="10.2887017"><ele>695.0</ele><time>2026-04-06T15:13:38.658Z</time></trkpt><trkpt lat="44.0617033" lon="10.2885317"><ele>695.0</ele><time>2026-04-06T15:13:39.658Z</time></trkpt><trkpt lat="44.0616217" lon="10.2883633"><ele>695.0</ele><time>2026-04-06T15:13:40.659Z</time></trkpt><trkpt lat="44.0615433" lon="10.2881917"><ele>695.0</ele><time>2026-04-06T15:13:41.658Z</time></trkpt><trkpt lat="44.0614817" lon="10.2880033"><ele>695.0</ele><time>2026-04-06T15:13:42.658Z</time></trkpt><trkpt lat="44.0614283" lon="10.2878067"><ele>723.0</ele><time>2026-04-06T15:13:43.658Z</time></trkpt><trkpt lat="44.0613983" lon="10.2875917"><ele>751.0</ele><time>2026-04-06T15:13:44.658Z</time></trkpt><trkpt lat="44.061385" lon="10.28737"><ele>779.0</ele><time>2026-04-06T15:13:45.659Z</time></trkpt><trkpt lat="44.0613817" lon="10.2871483"><ele>781.3333333333334</ele><time>2026-04-06T15:13:46.659Z</time></trkpt><trkpt lat="44.0613817" lon="10.2869267"><ele>783.6666666666667</ele><time>2026-04-06T15:13:47.658Z</time></trkpt><trkpt lat="44.0613883" lon="10.2867083"><ele>786.0</ele><time>2026-04-06T15:13:48.659Z</time></trkpt><trkpt lat="44.06141" lon="10.286495"><ele>789.3333333333333</ele><time>2026-04-06T15:13:49.658Z</time></trkpt><trkpt lat="44.061465" lon="10.2862917"><ele>792.6666666666666</ele><time>2026-04-06T15:13:50.658Z</time></trkpt><trkpt lat="44.0615233" lon="10.2860983"><ele>796.0</ele><time>2026-04-06T15:13:51.658Z</time></trkpt><trkpt lat="44.0615933" lon="10.28591"><ele>764.6666666666666</ele><time>2026-04-06T15:13:52.658Z</time></trkpt><trkpt lat="44.0616567" lon="10.285715"><ele>733.3333333333333</ele><time>2026-04-06T15:13:53.658Z</time></trkpt><trkpt lat="44.06171" lon="10.2855133"><ele>702.0</ele><time>2026-04-06T15:13:54.658Z</time></trkpt><trkpt lat="44.0617367" lon="10.28531"><ele>701.75</ele><time>2026-04-06T15:13:55.658Z</time></trkpt><trkpt lat="44.0617283" lon="10.2851067"><ele>701.5</ele><time>2026-04-06T15:13:56.658Z</time></trkpt><trkpt lat="44.0616883" lon="10.28491"><ele>701.25</ele><time>2026-04-06T15:13:57.658Z</time></trkpt><trkpt lat="44.0616133" lon="10.284725"><ele>701.0</ele><time>2026-04-06T15:13:58.659Z</time></trkpt><trkpt lat="44.0614933" lon="10.2845733"><ele>717.3333333333333</ele><time>2026-04-06T15:13:59.658Z</time></trkpt><trkpt lat="44.0613583" lon="10.2844433"><ele>733.6666666666666</ele><time>2026-04-06T15:14:00.659Z</time></trkpt><trkpt lat="44.0612133" lon="10.2843217"><ele>750.0</ele><time>2026-04-06T15:14:01.658Z</time></trkpt><trkpt lat="44.0610717" lon="10.28419"><ele>750.0</ele><time>2026-04-06T15:14:02.658Z</time></trkpt><trkpt lat="44.0609383" lon="10.2840383"><ele>750.0</ele><time>2026-04-06T15:14:03.658Z</time></trkpt><trkpt lat="44.0608167" lon="10.283875"><ele>750.0</ele><time>2026-04-06T15:14:04.658Z</time></trkpt><trkpt lat="44.0607067" lon="10.283705"><ele>780.6666666666667</ele><time>2026-04-06T15:14:05.658Z</time></trkpt><trkpt lat="44.0606133" lon="10.2835267"><ele>811.3333333333334</ele><time>2026-04-06T15:14:06.658Z</time></trkpt><trkpt lat="44.0605317" lon="10.2833467"><ele>842.0</ele><time>2026-04-06T15:14:07.659Z</time></trkpt><trkpt lat="44.0605033" lon="10.283145"><ele>841.5</ele><time>2026-04-06T15:14:08.658Z</time></trkpt><trkpt lat="44.060505" lon="10.282945"><ele>841.0</ele><time>2026-04-06T15:14:09.658Z</time></trkpt><trkpt lat="44.0605483" lon="10.2827467"><ele>840.5</ele><time>2026-04-06T15:14:10.658Z</time></trkpt><trkpt lat="44.0605983" lon="10.2825517"><ele>840.0</ele><time>2026-04-06T15:14:11.658Z</time></trkpt><trkpt lat="44.0606433" lon="10.2823483"><ele>834.6666666666667</ele><time>2026-04-06T15:14:12.658Z</time></trkpt><trkpt lat="44.06067" lon="10.2821333"><ele>829.3333333333334</ele><time>2026-04-06T15:14:13.658Z</time></trkpt><trkpt lat="44.0606817" lon="10.2819133"><ele>824.0</ele><time>2026-04-06T15:14:14.658Z</time></trkpt><trkpt lat="44.0606883" lon="10.2817"><ele>824.0</ele><time>2026-04-06T15:14:15.659Z</time></trkpt><trkpt lat="44.060685" lon="10.2814983"><ele>824.0</ele><time>2026-04-06T15:14:16.658Z</time></trkpt><trkpt lat="44.06068" lon="10.2813"><ele>824.0</ele><time>2026-04-06T15:14:17.658Z</time></trkpt><trkpt lat="44.06063" lon="10.2811167"><ele>824.0</ele><time>2026-04-06T15:14:18.658Z</time></trkpt><trkpt lat="44.06055" lon="10.280945"><ele>815.75</ele><time>2026-04-06T15:14:19.658Z</time></trkpt><trkpt lat="44.0604633" lon="10.28079"><ele>807.5</ele><time>2026-04-06T15:14:20.659Z</time></trkpt><trkpt lat="44.060365" lon="10.2806467"><ele>799.25</ele><time>2026-04-06T15:14:21.658Z</time></trkpt><trkpt lat="44.0602633" lon="10.2805133"><ele>791.0</ele><time>2026-04-06T15:14:22.658Z</time></trkpt><trkpt lat="44.060165" lon="10.280385"><ele>781.5</ele><time>2026-04-06T15:14:23.658Z</time></trkpt><trkpt lat="44.06008" lon="10.280245"><ele>772.0</ele><time>2026-04-06T15:14:24.658Z</time></trkpt><trkpt lat="44.0600183" lon="10.280075"><ele>762.5</ele><time>2026-04-06T15:14:25.658Z</time></trkpt><trkpt lat="44.0599733" lon="10.27989"><ele>753.0</ele><time>2026-04-06T15:14:26.659Z</time></trkpt><trkpt lat="44.059935" lon="10.279695"><ele>784.0</ele><time>2026-04-06T15:14:27.658Z</time></trkpt><trkpt lat="44.0599033" lon="10.27949"><ele>815.0</ele><time>2026-04-06T15:14:28.659Z</time></trkpt><trkpt lat="44.059875" lon="10.2792833"><ele>846.0</ele><time>2026-04-06T15:14:29.659Z</time></trkpt><trkpt lat="44.0598467" lon="10.2790767"><ele>847.0</ele><time>2026-04-06T15:14:30.658Z</time></trkpt><trkpt lat="44.05982" lon="10.2788667"><ele>848.0</ele><time>2026-04-06T15:14:31.659Z</time></trkpt><trkpt lat="44.05982" lon="10.27866"><ele>849.0</ele><time>2026-04-06T15:14:32.659Z</time></trkpt><trkpt lat="44.0598433" lon="10.2784533"><ele>849.0</ele><time>2026-04-06T15:14:33.658Z</time></trkpt><trkpt lat="44.059875" lon="10.2782467"><ele>849.0</ele><time>2026-04-06T15:14:34.659Z</time></trkpt><trkpt lat="44.0599067" lon="10.2780367"><ele>849.0</ele><time>2026-04-06T15:14:35.658Z</time></trkpt><trkpt lat="44.0599333" lon="10.2778233"><ele>821.3333333333334</ele><time>2026-04-06T15:14:36.658Z</time></trkpt><trkpt lat="44.0599633" lon="10.27761"><ele>793.6666666666667</ele><time>2026-04-06T15:14:37.658Z</time></trkpt><trkpt lat="44.0600067" lon="10.2774017"><ele>766.0</ele><time>2026-04-06T15:14:38.658Z</time></trkpt><trkpt lat="44.0600533" lon="10.2772"><ele>763.5</ele><time>2026-04-06T15:14:39.659Z</time></trkpt><trkpt lat="44.060085" lon="10.2770117"><ele>761.0</ele><time>2026-04-06T15:14:40.658Z</time></trkpt><trkpt lat="44.060085" lon="10.2768317"><ele>758.5</ele><time>2026-04-06T15:14:41.658Z</time></trkpt><trkpt lat="44.0600567" lon="10.2766483"><ele>756.0</ele><time>2026-04-06T15:14:42.658Z</time></trkpt><trkpt lat="44.0600117" lon="10.276465"><ele>761.0</ele><time>2026-04-06T15:14:43.659Z</time></trkpt><trkpt lat="44.0599617" lon="10.2762767"><ele>766.0</ele><time>2026-04-06T15:14:44.658Z</time></trkpt><trkpt lat="44.0598967" lon="10.2760883"><ele>771.0</ele><time>2026-04-06T15:14:45.658Z</time></trkpt><trkpt lat="44.0598533" lon="10.2758983"><ele>776.0</ele><time>2026-04-06T15:14:46.658Z</time></trkpt><trkpt lat="44.05981" lon="10.2757083"><ele>786.5</ele><time>2026-04-06T15:14:47.658Z</time></trkpt><trkpt lat="44.05977" lon="10.2755133"><ele>797.0</ele><time>2026-04-06T15:14:48.658Z</time></trkpt><trkpt lat="44.05974" lon="10.27532"><ele>807.5</ele><time>2026-04-06T15:14:49.658Z</time></trkpt><trkpt lat="44.0597383" lon="10.2751367"><ele>818.0</ele><time>2026-04-06T15:14:50.658Z</time></trkpt><trkpt lat="44.05974" lon="10.2749667"><ele>818.0</ele><time>2026-04-06T15:14:51.659Z</time></trkpt><trkpt lat="44.0597167" lon="10.274815"><ele>818.0</ele><time>2026-04-06T15:14:52.658Z</time></trkpt><trkpt lat="44.0596783" lon="10.274665"><ele>818.0</ele><time>2026-04-06T15:14:53.658Z</time></trkpt><trkpt lat="44.0596317" lon="10.27451"><ele>818.0</ele><time>2026-04-06T15:14:54.658Z</time></trkpt><trkpt lat="44.0595933" lon="10.274355"><ele>811.5</ele><time>2026-04-06T15:14:55.658Z</time></trkpt><trkpt lat="44.0595533" lon="10.2741967"><ele>805.0</ele><time>2026-04-06T15:14:56.658Z</time></trkpt><trkpt lat="44.059515" lon="10.2740433"><ele>798.5</ele><time>2026-04-06T15:14:57.659Z</time></trkpt><trkpt lat="44.059475" lon="10.2738917"><ele>792.0</ele><time>2026-04-06T15:14:58.658Z</time></trkpt><trkpt lat="44.0594333" lon="10.27374"><ele>782.3333333333334</ele><time>2026-04-06T15:14:59.658Z</time></trkpt><trkpt lat="44.0593283" lon="10.2736183"><ele>772.6666666666667</ele><time>2026-04-06T15:15:00.658Z</time></trkpt><trkpt lat="44.05919" lon="10.2734567"><ele>763.0</ele><time>2026-04-06T15:15:01.658Z</time></trkpt><trkpt lat="44.0590267" lon="10.2733383"><ele>762.6666666666667</ele><time>2026-04-06T15:15:02.659Z</time></trkpt><trkpt lat="44.0588317" lon="10.27325"><ele>762.3333333333334</ele><time>2026-04-06T15:15:03.658Z</time></trkpt><trkpt lat="44.0586867" lon="10.2731433"><ele>762.0</ele><time>2026-04-06T15:15:04.658Z</time></trkpt><trkpt lat="44.05855" lon="10.2730417"><ele>762.0</ele><time>2026-04-06T15:15:05.659Z</time></trkpt><trkpt lat="44.0584167" lon="10.272945"><ele>762.0</ele><time>2026-04-06T15:15:06.658Z</time></trkpt><trkpt lat="44.05822" lon="10.272885"><ele>762.0</ele><time>2026-04-06T15:15:07.658Z</time></trkpt><trkpt lat="44.0580917" lon="10.2727983"><ele>762.0</ele><time>2026-04-06T15:15:08.658Z</time></trkpt><trkpt lat="44.057975" lon="10.2727083"><ele>762.0</ele><time>2026-04-06T15:15:09.658Z</time></trkpt><trkpt lat="44.05786" lon="10.2726183"><ele>762.0</ele><time>2026-04-06T15:15:10.658Z</time></trkpt><trkpt lat="44.05775" lon="10.2725317"><ele>762.0</ele><time>2026-04-06T15:15:11.658Z</time></trkpt><trkpt lat="44.0576417" lon="10.2724483"><ele>762.0</ele><time>2026-04-06T15:15:12.658Z</time></trkpt><trkpt lat="44.0575383" lon="10.2723667"><ele>762.0</ele><time>2026-04-06T15:15:13.658Z</time></trkpt><trkpt lat="44.0574367" lon="10.27229"><ele>762.0</ele><time>2026-04-06T15:15:14.658Z</time></trkpt><trkpt lat="44.0573383" lon="10.2722133"><ele>762.0</ele><time>2026-04-06T15:15:15.658Z</time></trkpt><trkpt lat="44.057245" lon="10.27214"><ele>763.0</ele><time>2026-04-06T15:15:16.658Z</time></trkpt><trkpt lat="44.0571567" lon="10.27207"><ele>764.0</ele><time>2026-04-06T15:15:17.658Z</time></trkpt><trkpt lat="44.0570667" lon="10.2719983"><ele>765.0</ele><time>2026-04-06T15:15:18.659Z</time></trkpt><trkpt lat="44.056975" lon="10.2719317"><ele>766.0</ele><time>2026-04-06T15:15:19.658Z</time></trkpt><trkpt lat="44.0568783" lon="10.271865"><ele>767.0</ele><time>2026-04-06T15:15:20.659Z</time></trkpt><trkpt lat="44.056775" lon="10.2717983"><ele>767.0</ele><time>2026-04-06T15:15:21.658Z</time></trkpt><trkpt lat="44.0566717" lon="10.2717317"><ele>767.0</ele><time>2026-04-06T15:15:22.658Z</time></trkpt><trkpt lat="44.0565717" lon="10.2716583"><ele>767.0</ele><time>2026-04-06T15:15:23.659Z</time></trkpt><trkpt lat="44.0564733" lon="10.2715817"><ele>767.0</ele><time>2026-04-06T15:15:24.658Z</time></trkpt><trkpt lat="44.0563817" lon="10.2714967"><ele>775.6</ele><time>2026-04-06T15:15:25.658Z</time></trkpt><trkpt lat="44.056295" lon="10.271395"><ele>784.2</ele><time>2026-04-06T15:15:26.658Z</time></trkpt><trkpt lat="44.0562433" lon="10.27126"><ele>792.8</ele><time>2026-04-06T15:15:27.658Z</time></trkpt><trkpt lat="44.056215" lon="10.2711083"><ele>801.4</ele><time>2026-04-06T15:15:28.658Z</time></trkpt><trkpt lat="44.0562033" lon="10.2709733"><ele>810.0</ele><time>2026-04-06T15:15:29.659Z</time></trkpt><trkpt lat="44.0562233" lon="10.2708667"><ele>810.0</ele><time>2026-04-06T15:15:30.658Z</time></trkpt><trkpt lat="44.056255" lon="10.270775"><ele>810.0</ele><time>2026-04-06T15:15:31.658Z</time></trkpt><trkpt lat="44.0563067" lon="10.2707033"><ele>810.0</ele><time>2026-04-06T15:15:32.658Z</time></trkpt><trkpt lat="44.0563933" lon="10.270665"><ele>810.0</ele><time>2026-04-06T15:15:33.658Z</time></trkpt><trkpt lat="44.0564867" lon="10.2706133"><ele>810.0</ele><time>2026-04-06T15:15:34.658Z</time></trkpt><trkpt lat="44.05658" lon="10.2705433"><ele>810.0</ele><time>2026-04-06T15:15:35.658Z</time></trkpt><trkpt lat="44.0566683" lon="10.2704517"><ele>796.5</ele><time>2026-04-06T15:15:36.658Z</time></trkpt><trkpt lat="44.0567433" lon="10.2703383"><ele>783.0</ele><time>2026-04-06T15:15:37.658Z</time></trkpt><trkpt lat="44.05681" lon="10.2702017"><ele>769.5</ele><time>2026-04-06T15:15:38.658Z</time></trkpt><trkpt lat="44.05687" lon="10.27005"><ele>756.0</ele><time>2026-04-06T15:15:39.658Z</time></trkpt><trkpt lat="44.0569217" lon="10.2698767"><ele>755.75</ele><time>2026-04-06T15:15:40.658Z</time></trkpt><trkpt lat="44.0569517" lon="10.2696933"><ele>755.5</ele><time>2026-04-06T15:15:41.658Z</time></trkpt><trkpt lat="44.0569733" lon="10.2694983"><ele>755.25</ele><time>2026-04-06T15:15:42.658Z</time></trkpt><trkpt lat="44.056975" lon="10.2692983"><ele>755.0</ele><time>2026-04-06T15:15:43.658Z</time></trkpt><trkpt lat="44.0569633" lon="10.2690967"><ele>755.5</ele><time>2026-04-06T15:15:44.658Z</time></trkpt><trkpt lat="44.0569433" lon="10.2688983"><ele>756.0</ele><time>2026-04-06T15:15:45.659Z</time></trkpt><trkpt lat="44.0569217" lon="10.2687"><ele>756.5</ele><time>2026-04-06T15:15:46.658Z</time></trkpt><trkpt lat="44.0568917" lon="10.2685067"><ele>757.0</ele><time>2026-04-06T15:15:47.659Z</time></trkpt><trkpt lat="44.056855" lon="10.268315"><ele>757.0</ele><time>2026-04-06T15:15:48.658Z</time></trkpt><trkpt lat="44.056815" lon="10.2681183"><ele>757.0</ele><time>2026-04-06T15:15:49.658Z</time></trkpt><trkpt lat="44.05678" lon="10.2679167"><ele>757.0</ele><time>2026-04-06T15:15:50.658Z</time></trkpt><trkpt lat="44.05675" lon="10.267715"><ele>757.0</ele><time>2026-04-06T15:15:51.658Z</time></trkpt><trkpt lat="44.0567233" lon="10.2675133"><ele>756.75</ele><time>2026-04-06T15:15:52.658Z</time></trkpt><trkpt lat="44.056705" lon="10.267315"><ele>756.5</ele><time>2026-04-06T15:15:53.658Z</time></trkpt><trkpt lat="44.0567" lon="10.2671167"><ele>756.25</ele><time>2026-04-06T15:15:54.658Z</time></trkpt><trkpt lat="44.0567017" lon="10.2669167"><ele>756.0</ele><time>2026-04-06T15:15:55.658Z</time></trkpt><trkpt lat="44.05672" lon="10.2667167"><ele>756.0</ele><time>2026-04-06T15:15:56.659Z</time></trkpt><trkpt lat="44.0567533" lon="10.266515"><ele>756.0</ele><time>2026-04-06T15:15:57.658Z</time></trkpt><trkpt lat="44.0568117" lon="10.266325"><ele>756.0</ele><time>2026-04-06T15:15:58.658Z</time></trkpt><trkpt lat="44.0568817" lon="10.2661367"><ele>760.3333333333333</ele><time>2026-04-06T15:15:59.658Z</time></trkpt><trkpt lat="44.0569383" lon="10.2659417"><ele>764.6666666666666</ele><time>2026-04-06T15:16:00.658Z</time></trkpt><trkpt lat="44.0569767" lon="10.2657383"><ele>769.0</ele><time>2026-04-06T15:16:01.658Z</time></trkpt><trkpt lat="44.0570117" lon="10.265535"><ele>775.75</ele><time>2026-04-06T15:16:02.658Z</time></trkpt><trkpt lat="44.0570567" lon="10.2653367"><ele>782.5</ele><time>2026-04-06T15:16:03.658Z</time></trkpt><trkpt lat="44.0571183" lon="10.2651517"><ele>789.25</ele><time>2026-04-06T15:16:04.659Z</time></trkpt><trkpt lat="44.0571967" lon="10.26498"><ele>796.0</ele><time>2026-04-06T15:16:05.658Z</time></trkpt><trkpt lat="44.057295" lon="10.2648317"><ele>795.0</ele><time>2026-04-06T15:16:06.658Z</time></trkpt><trkpt lat="44.057405" lon="10.264705"><ele>794.0</ele><time>2026-04-06T15:16:07.658Z</time></trkpt><trkpt lat="44.0575167" lon="10.2645917"><ele>793.0</ele><time>2026-04-06T15:16:08.658Z</time></trkpt><trkpt lat="44.0576267" lon="10.2644783"><ele>792.0</ele><time>2026-04-06T15:16:09.658Z</time></trkpt><trkpt lat="44.0577433" lon="10.26438"><ele>792.0</ele><time>2026-04-06T15:16:10.658Z</time></trkpt><trkpt lat="44.0578633" lon="10.2642933"><ele>792.0</ele><time>2026-04-06T15:16:11.658Z</time></trkpt><trkpt lat="44.0579683" lon="10.264195"><ele>792.0</ele><time>2026-04-06T15:16:12.658Z</time></trkpt><trkpt lat="44.0580467" lon="10.2640783"><ele>792.0</ele><time>2026-04-06T15:16:13.658Z</time></trkpt><trkpt lat="44.05808" lon="10.263945"><ele>796.6</ele><time>2026-04-06T15:16:14.659Z</time></trkpt><trkpt lat="44.058075" lon="10.263805"><ele>801.2</ele><time>2026-04-06T15:16:15.658Z</time></trkpt><trkpt lat="44.058035" lon="10.263665"><ele>805.8</ele><time>2026-04-06T15:16:16.658Z</time></trkpt><trkpt lat="44.05798" lon="10.26353"><ele>810.4</ele><time>2026-04-06T15:16:17.658Z</time></trkpt><trkpt lat="44.0579233" lon="10.2634017"><ele>815.0</ele><time>2026-04-06T15:16:18.658Z</time></trkpt><trkpt lat="44.0578667" lon="10.2632683"><ele>815.0</ele><time>2026-04-06T15:16:19.658Z</time></trkpt><trkpt lat="44.0578367" lon="10.26313"><ele>815.0</ele><time>2026-04-06T15:16:20.658Z</time></trkpt><trkpt lat="44.0578417" lon="10.262995"><ele>815.0</ele><time>2026-04-06T15:16:21.658Z</time></trkpt><trkpt lat="44.0578683" lon="10.2628583"><ele>815.0</ele><time>2026-04-06T15:16:22.658Z</time></trkpt><trkpt lat="44.057905" lon="10.2627117"><ele>815.0</ele><time>2026-04-06T15:16:23.658Z</time></trkpt><trkpt lat="44.0579233" lon="10.2625567"><ele>812.0</ele><time>2026-04-06T15:16:24.658Z</time></trkpt><trkpt lat="44.057935" lon="10.262385"><ele>809.0</ele><time>2026-04-06T15:16:25.658Z</time></trkpt><trkpt lat="44.0579567" lon="10.2622133"><ele>806.0</ele><time>2026-04-06T15:16:26.658Z</time></trkpt><trkpt lat="44.0579967" lon="10.2620433"><ele>803.0</ele><time>2026-04-06T15:16:27.658Z</time></trkpt><trkpt lat="44.058045" lon="10.2618733"><ele>803.5</ele><time>2026-04-06T15:16:28.658Z</time></trkpt><trkpt lat="44.0581033" lon="10.2617067"><ele>804.0</ele><time>2026-04-06T15:16:29.658Z</time></trkpt><trkpt lat="44.0581583" lon="10.2615433"><ele>804.5</ele><time>2026-04-06T15:16:30.658Z</time></trkpt><trkpt lat="44.0582" lon="10.2613767"><ele>805.0</ele><time>2026-04-06T15:16:31.658Z</time></trkpt><trkpt lat="44.0582267" lon="10.261205"><ele>805.0</ele><time>2026-04-06T15:16:32.658Z</time></trkpt><trkpt lat="44.05824" lon="10.2610283"><ele>805.0</ele><time>2026-04-06T15:16:33.658Z</time></trkpt><trkpt lat="44.058245" lon="10.26085"><ele>805.0</ele><time>2026-04-06T15:16:34.658Z</time></trkpt><trkpt lat="44.05824" lon="10.2606683"><ele>805.0</ele><time>2026-04-06T15:16:35.658Z</time></trkpt><trkpt lat="44.0582383" lon="10.2604917"><ele>806.75</ele><time>2026-04-06T15:16:36.659Z</time></trkpt><trkpt lat="44.05825" lon="10.2603233"><ele>808.5</ele><time>2026-04-06T15:16:37.658Z</time></trkpt><trkpt lat="44.05827" lon="10.2601583"><ele>810.25</ele><time>2026-04-06T15:16:38.658Z</time></trkpt><trkpt lat="44.0583067" lon="10.2599933"><ele>812.0</ele><time>2026-04-06T15:16:39.658Z</time></trkpt><trkpt lat="44.0583633" lon="10.25984"><ele>807.0</ele><time>2026-04-06T15:16:40.658Z</time></trkpt><trkpt lat="44.0584133" lon="10.2596783"><ele>802.0</ele><time>2026-04-06T15:16:41.658Z</time></trkpt><trkpt lat="44.0584717" lon="10.2595183"><ele>797.0</ele><time>2026-04-06T15:16:42.658Z</time></trkpt><trkpt lat="44.058525" lon="10.2593533"><ele>792.0</ele><time>2026-04-06T15:16:43.659Z</time></trkpt><trkpt lat="44.0585833" lon="10.259195"><ele>792.0</ele><time>2026-04-06T15:16:44.659Z</time></trkpt><trkpt lat="44.0586367" lon="10.25904"><ele>792.0</ele><time>2026-04-06T15:16:45.659Z</time></trkpt><trkpt lat="44.0586967" lon="10.2589017"><ele>792.0</ele><time>2026-04-06T15:16:46.658Z</time></trkpt><trkpt lat="44.0587633" lon="10.25878"><ele>792.0</ele><time>2026-04-06T15:16:47.658Z</time></trkpt><trkpt lat="44.0588433" lon="10.2586683"><ele>792.75</ele><time>2026-04-06T15:16:48.658Z</time></trkpt><trkpt lat="44.0589317" lon="10.258565"><ele>793.5</ele><time>2026-04-06T15:16:49.658Z</time></trkpt><trkpt lat="44.0590217" lon="10.2584617"><ele>794.25</ele><time>2026-04-06T15:16:50.658Z</time></trkpt><trkpt lat="44.0591133" lon="10.2583617"><ele>795.0</ele><time>2026-04-06T15:16:51.658Z</time></trkpt><trkpt lat="44.0592" lon="10.258255"><ele>795.5</ele><time>2026-04-06T15:16:52.659Z</time></trkpt><trkpt lat="44.059275" lon="10.25813"><ele>796.0</ele><time>2026-04-06T15:16:53.658Z</time></trkpt><trkpt lat="44.0593433" lon="10.25799"><ele>796.5</ele><time>2026-04-06T15:16:54.658Z</time></trkpt><trkpt lat="44.0594117" lon="10.2578433"><ele>797.0</ele><time>2026-04-06T15:16:55.658Z</time></trkpt><trkpt lat="44.0594767" lon="10.2576933"><ele>797.0</ele><time>2026-04-06T15:16:56.658Z</time></trkpt><trkpt lat="44.0595383" lon="10.25754"><ele>797.0</ele><time>2026-04-06T15:16:57.659Z</time></trkpt><trkpt lat="44.0596" lon="10.2573883"><ele>797.0</ele><time>2026-04-06T15:16:58.658Z</time></trkpt><trkpt lat="44.0596667" lon="10.2572467"><ele>797.0</ele><time>2026-04-06T15:16:59.658Z</time></trkpt><trkpt lat="44.0597433" lon="10.2571183"><ele>795.25</ele><time>2026-04-06T15:17:00.658Z</time></trkpt><trkpt lat="44.0598417" lon="10.2570133"><ele>793.5</ele><time>2026-04-06T15:17:01.658Z</time></trkpt><trkpt lat="44.0599383" lon="10.256925"><ele>791.75</ele><time>2026-04-06T15:17:02.659Z</time></trkpt><trkpt lat="44.060045" lon="10.2568567"><ele>790.0</ele><time>2026-04-06T15:17:03.658Z</time></trkpt><trkpt lat="44.0601867" lon="10.2568283"><ele>794.25</ele><time>2026-04-06T15:17:04.659Z</time></trkpt><trkpt lat="44.060335" lon="10.256805"><ele>798.5</ele><time>2026-04-06T15:17:05.658Z</time></trkpt><trkpt lat="44.0604767" lon="10.25677"><ele>802.75</ele><time>2026-04-06T15:17:06.658Z</time></trkpt><trkpt lat="44.0606183" lon="10.256735"><ele>807.0</ele><time>2026-04-06T15:17:07.658Z</time></trkpt><trkpt lat="44.06076" lon="10.2567"><ele>813.75</ele><time>2026-04-06T15:17:08.658Z</time></trkpt><trkpt lat="44.06088" lon="10.256625"><ele>820.5</ele><time>2026-04-06T15:17:09.658Z</time></trkpt><trkpt lat="44.061005" lon="10.2565533"><ele>827.25</ele><time>2026-04-06T15:17:10.658Z</time></trkpt><trkpt lat="44.0611333" lon="10.256515"><ele>834.0</ele><time>2026-04-06T15:17:11.659Z</time></trkpt><trkpt lat="44.06124" lon="10.2564617"><ele>834.1666666666666</ele><time>2026-04-06T15:17:12.659Z</time></trkpt><trkpt lat="44.0613267" lon="10.256395"><ele>834.3333333333333</ele><time>2026-04-06T15:17:13.658Z</time></trkpt><trkpt lat="44.0613767" lon="10.2563033"><ele>834.5</ele><time>2026-04-06T15:17:14.658Z</time></trkpt><trkpt lat="44.0614167" lon="10.2562117"><ele>834.6666666666666</ele><time>2026-04-06T15:17:15.659Z</time></trkpt><trkpt lat="44.061425" lon="10.2561083"><ele>834.8333333333333</ele><time>2026-04-06T15:17:16.659Z</time></trkpt><trkpt lat="44.061425" lon="10.255995"><ele>835.0</ele><time>2026-04-06T15:17:17.659Z</time></trkpt><trkpt lat="44.0614133" lon="10.2559"><ele>835.0</ele><time>2026-04-06T15:17:18.659Z</time></trkpt><trkpt lat="44.061355" lon="10.255835"><ele>835.0</ele><time>2026-04-06T15:17:19.658Z</time></trkpt><trkpt lat="44.0612517" lon="10.2557833"><ele>835.0</ele><time>2026-04-06T15:17:20.658Z</time></trkpt><trkpt lat="44.0610967" lon="10.2557533"><ele>835.0</ele><time>2026-04-06T15:17:21.658Z</time></trkpt><trkpt lat="44.0609183" lon="10.2557583"><ele>828.25</ele><time>2026-04-06T15:17:22.659Z</time></trkpt><trkpt lat="44.060775" lon="10.2557317"><ele>821.5</ele><time>2026-04-06T15:17:23.658Z</time></trkpt><trkpt lat="44.0606717" lon="10.255685"><ele>814.75</ele><time>2026-04-06T15:17:24.658Z</time></trkpt><trkpt lat="44.060595" lon="10.2555967"><ele>808.0</ele><time>2026-04-06T15:17:25.658Z</time></trkpt><trkpt lat="44.0605417" lon="10.2554817"><ele>808.0</ele><time>2026-04-06T15:17:26.658Z</time></trkpt><trkpt lat="44.0605067" lon="10.2553583"><ele>808.0</ele><time>2026-04-06T15:17:27.658Z</time></trkpt><trkpt lat="44.0605" lon="10.25523"><ele>808.0</ele><time>2026-04-06T15:17:28.659Z</time></trkpt><trkpt lat="44.0605117" lon="10.255095"><ele>808.0</ele><time>2026-04-06T15:17:29.658Z</time></trkpt><trkpt lat="44.06056" lon="10.2549683"><ele>808.0</ele><time>2026-04-06T15:17:30.658Z</time></trkpt><trkpt lat="44.0606317" lon="10.2548533"><ele>808.5</ele><time>2026-04-06T15:17:31.658Z</time></trkpt><trkpt lat="44.0607067" lon="10.2547283"><ele>809.0</ele><time>2026-04-06T15:17:32.658Z</time></trkpt><trkpt lat="44.0607817" lon="10.2546033"><ele>809.5</ele><time>2026-04-06T15:17:33.659Z</time></trkpt><trkpt lat="44.0608617" lon="10.254475"><ele>810.0</ele><time>2026-04-06T15:17:34.658Z</time></trkpt><trkpt lat="44.060945" lon="10.25435"><ele>817.0</ele><time>2026-04-06T15:17:35.658Z</time></trkpt><trkpt lat="44.0610333" lon="10.2542233"><ele>824.0</ele><time>2026-04-06T15:17:36.658Z</time></trkpt><trkpt lat="44.0611083" lon="10.2540833"><ele>831.0</ele><time>2026-04-06T15:17:37.658Z</time></trkpt><trkpt lat="44.0611867" lon="10.2539417"><ele>838.0</ele><time>2026-04-06T15:17:38.658Z</time></trkpt><trkpt lat="44.0612683" lon="10.2538033"><ele>838.0</ele><time>2026-04-06T15:17:39.659Z</time></trkpt><trkpt lat="44.0613567" lon="10.2536683"><ele>838.0</ele><time>2026-04-06T15:17:40.658Z</time></trkpt><trkpt lat="44.0614467" lon="10.2535333"><ele>838.0</ele><time>2026-04-06T15:17:41.658Z</time></trkpt><trkpt lat="44.061545" lon="10.2534017"><ele>838.0</ele><time>2026-04-06T15:17:42.658Z</time></trkpt><trkpt lat="44.0616467" lon="10.2532767"><ele>844.25</ele><time>2026-04-06T15:17:43.658Z</time></trkpt><trkpt lat="44.0617533" lon="10.253155"><ele>850.5</ele><time>2026-04-06T15:17:44.658Z</time></trkpt><trkpt lat="44.06186" lon="10.25304"><ele>856.75</ele><time>2026-04-06T15:17:45.658Z</time></trkpt><trkpt lat="44.06196" lon="10.2529233"><ele>863.0</ele><time>2026-04-06T15:17:46.658Z</time></trkpt><trkpt lat="44.0620433" lon="10.2527883"><ele>863.0</ele><time>2026-04-06T15:17:47.659Z</time></trkpt><trkpt lat="44.0621233" lon="10.2526467"><ele>863.0</ele><time>2026-04-06T15:17:48.658Z</time></trkpt><trkpt lat="44.0621783" lon="10.2524883"><ele>863.0</ele><time>2026-04-06T15:17:49.658Z</time></trkpt><trkpt lat="44.0621717" lon="10.2522967"><ele>863.0</ele><time>2026-04-06T15:17:50.658Z</time></trkpt><trkpt lat="44.0621783" lon="10.2521217"><ele>867.5</ele><time>2026-04-06T15:17:51.658Z</time></trkpt><trkpt lat="44.0621817" lon="10.2519483"><ele>872.0</ele><time>2026-04-06T15:17:52.659Z</time></trkpt><trkpt lat="44.0621917" lon="10.2517767"><ele>876.5</ele><time>2026-04-06T15:17:53.658Z</time></trkpt><trkpt lat="44.0622017" lon="10.2516117"><ele>881.0</ele><time>2026-04-06T15:17:54.658Z</time></trkpt><trkpt lat="44.0622283" lon="10.2514633"><ele>883.8</ele><time>2026-04-06T15:17:55.658Z</time></trkpt><trkpt lat="44.0622767" lon="10.2513417"><ele>886.5999999999999</ele><time>2026-04-06T15:17:56.658Z</time></trkpt><trkpt lat="44.0623533" lon="10.25124"><ele>889.4</ele><time>2026-04-06T15:17:57.658Z</time></trkpt><trkpt lat="44.0624433" lon="10.2511567"><ele>892.2</ele><time>2026-04-06T15:17:58.658Z</time></trkpt><trkpt lat="44.0625433" lon="10.2510983"><ele>895.0</ele><time>2026-04-06T15:17:59.658Z</time></trkpt><trkpt lat="44.0626567" lon="10.251045"><ele>895.0</ele><time>2026-04-06T15:18:00.659Z</time></trkpt><trkpt lat="44.0627717" lon="10.25099"><ele>895.0</ele><time>2026-04-06T15:18:01.658Z</time></trkpt><trkpt lat="44.0628783" lon="10.2509167"><ele>895.0</ele><time>2026-04-06T15:18:02.658Z</time></trkpt><trkpt lat="44.0629833" lon="10.2508283"><ele>895.0</ele><time>2026-04-06T15:18:03.658Z</time></trkpt><trkpt lat="44.0630783" lon="10.25072"><ele>896.5</ele><time>2026-04-06T15:18:04.659Z</time></trkpt><trkpt lat="44.0631667" lon="10.2506"><ele>898.0</ele><time>2026-04-06T15:18:05.658Z</time></trkpt><trkpt lat="44.0632517" lon="10.2504833"><ele>899.5</ele><time>2026-04-06T15:18:06.658Z</time></trkpt><trkpt lat="44.06333" lon="10.2503733"><ele>901.0</ele><time>2026-04-06T15:18:07.658Z</time></trkpt><trkpt lat="44.0634083" lon="10.2502867"><ele>901.0</ele><time>2026-04-06T15:18:08.658Z</time></trkpt><trkpt lat="44.063485" lon="10.2502333"><ele>900.9999999999999</ele><time>2026-04-06T15:18:09.658Z</time></trkpt><trkpt lat="44.063565" lon="10.25019"><ele>900.9999999999999</ele><time>2026-04-06T15:18:10.658Z</time></trkpt><trkpt lat="44.0636533" lon="10.2501567"><ele>901.0</ele><time>2026-04-06T15:18:11.658Z</time></trkpt><trkpt lat="44.0637667" lon="10.250135"><ele>901.0</ele><time>2026-04-06T15:18:12.659Z</time></trkpt><trkpt lat="44.063885" lon="10.2501117"><ele>901.0</ele><time>2026-04-06T15:18:13.659Z</time></trkpt><trkpt lat="44.0639933" lon="10.2500733"><ele>901.0</ele><time>2026-04-06T15:18:14.658Z</time></trkpt><trkpt lat="44.06412" lon="10.2500333"><ele>901.0</ele><time>2026-04-06T15:18:15.658Z</time></trkpt><trkpt lat="44.064235" lon="10.2500267"><ele>901.0</ele><time>2026-04-06T15:18:16.658Z</time></trkpt><trkpt lat="44.0643483" lon="10.2500083"><ele>900.5</ele><time>2026-04-06T15:18:17.658Z</time></trkpt><trkpt lat="44.0644517" lon="10.2499633"><ele>900.0</ele><time>2026-04-06T15:18:18.659Z</time></trkpt><trkpt lat="44.0645517" lon="10.2498883"><ele>899.5</ele><time>2026-04-06T15:18:19.658Z</time></trkpt><trkpt lat="44.0646567" lon="10.249805"><ele>899.0</ele><time>2026-04-06T15:18:20.658Z</time></trkpt><trkpt lat="44.0647517" lon="10.2497017"><ele>902.75</ele><time>2026-04-06T15:18:21.658Z</time></trkpt><trkpt lat="44.0648417" lon="10.24958"><ele>906.5</ele><time>2026-04-06T15:18:22.658Z</time></trkpt><trkpt lat="44.0649333" lon="10.2494683"><ele>910.25</ele><time>2026-04-06T15:18:23.658Z</time></trkpt><trkpt lat="44.0650283" lon="10.2493733"><ele>914.0</ele><time>2026-04-06T15:18:24.658Z</time></trkpt><trkpt lat="44.0651283" lon="10.24929"><ele>914.0</ele><time>2026-04-06T15:18:25.658Z</time></trkpt><trkpt lat="44.06523" lon="10.2492067"><ele>914.0</ele><time>2026-04-06T15:18:26.658Z</time></trkpt><trkpt lat="44.06533" lon="10.249115"><ele>914.0</ele><time>2026-04-06T15:18:27.658Z</time></trkpt><trkpt lat="44.065425" lon="10.2490283"><ele>914.0</ele><time>2026-04-06T15:18:28.659Z</time></trkpt><trkpt lat="44.0655133" lon="10.2489267"><ele>916.4000000000001</ele><time>2026-04-06T15:18:29.658Z</time></trkpt><trkpt lat="44.0656" lon="10.24884"><ele>918.8000000000001</ele><time>2026-04-06T15:18:30.659Z</time></trkpt><trkpt lat="44.065685" lon="10.2487783"><ele>921.1999999999999</ele><time>2026-04-06T15:18:31.658Z</time></trkpt><trkpt lat="44.0657767" lon="10.2487483"><ele>923.5999999999999</ele><time>2026-04-06T15:18:32.658Z</time></trkpt><trkpt lat="44.0658683" lon="10.2487433"><ele>926.0</ele><time>2026-04-06T15:18:33.658Z</time></trkpt><trkpt lat="44.06597" lon="10.248775"><ele>926.0000000000001</ele><time>2026-04-06T15:18:34.658Z</time></trkpt><trkpt lat="44.0660567" lon="10.2488183"><ele>926.0</ele><time>2026-04-06T15:18:35.658Z</time></trkpt><trkpt lat="44.0661367" lon="10.24884"><ele>926.0</ele><time>2026-04-06T15:18:36.658Z</time></trkpt><trkpt lat="44.0662167" lon="10.2488383"><ele>926.0</ele><time>2026-04-06T15:18:37.658Z</time></trkpt><trkpt lat="44.0662867" lon="10.2488133"><ele>926.0000000000001</ele><time>2026-04-06T15:18:38.658Z</time></trkpt><trkpt lat="44.066315" lon="10.2486633"><ele>926.0</ele><time>2026-04-06T15:18:40.658Z</time></trkpt><trkpt lat="44.0662283" lon="10.2485367"><ele>926.0</ele><time>2026-04-06T15:18:42.658Z</time></trkpt><trkpt lat="44.0661583" lon="10.2485183"><ele>925.9999999999999</ele><time>2026-04-06T15:18:43.658Z</time></trkpt><trkpt lat="44.06608" lon="10.2485333"><ele>925.9999999999999</ele><time>2026-04-06T15:18:44.658Z</time></trkpt><trkpt lat="44.06599" lon="10.2485667"><ele>926.0</ele><time>2026-04-06T15:18:45.658Z</time></trkpt><trkpt lat="44.0658733" lon="10.2486217"><ele>926.0</ele><time>2026-04-06T15:18:46.659Z</time></trkpt><trkpt lat="44.0657567" lon="10.248655"><ele>929.5</ele><time>2026-04-06T15:18:47.658Z</time></trkpt><trkpt lat="44.0656533" lon="10.24869"><ele>933.0</ele><time>2026-04-06T15:18:48.658Z</time></trkpt><trkpt lat="44.0655367" lon="10.2487367"><ele>936.5</ele><time>2026-04-06T15:18:49.658Z</time></trkpt><trkpt lat="44.065425" lon="10.24879"><ele>940.0</ele><time>2026-04-06T15:18:50.658Z</time></trkpt><trkpt lat="44.06531" lon="10.2488483"><ele>940.0</ele><time>2026-04-06T15:18:51.658Z</time></trkpt><trkpt lat="44.0651917" lon="10.2488983"><ele>940.0</ele><time>2026-04-06T15:18:52.659Z</time></trkpt><trkpt lat="44.0650733" lon="10.248945"><ele>940.0</ele><time>2026-04-06T15:18:53.658Z</time></trkpt><trkpt lat="44.064955" lon="10.2489967"><ele>940.0</ele><time>2026-04-06T15:18:54.658Z</time></trkpt><trkpt lat="44.0648333" lon="10.2490367"><ele>935.6</ele><time>2026-04-06T15:18:55.658Z</time></trkpt><trkpt lat="44.0647283" lon="10.249075"><ele>931.2</ele><time>2026-04-06T15:18:56.658Z</time></trkpt><trkpt lat="44.064625" lon="10.2491"><ele>926.8</ele><time>2026-04-06T15:18:57.658Z</time></trkpt><trkpt lat="44.06451" lon="10.2491083"><ele>922.4</ele><time>2026-04-06T15:18:58.658Z</time></trkpt><trkpt lat="44.064395" lon="10.249095"><ele>918.0</ele><time>2026-04-06T15:18:59.659Z</time></trkpt><trkpt lat="44.06428" lon="10.2490517"><ele>918.0</ele><time>2026-04-06T15:19:00.658Z</time></trkpt><trkpt lat="44.064165" lon="10.2489933"><ele>918.0</ele><time>2026-04-06T15:19:01.658Z</time></trkpt><trkpt lat="44.0640533" lon="10.248925"><ele>918.0</ele><time>2026-04-06T15:19:02.658Z</time></trkpt><trkpt lat="44.0639383" lon="10.2488733"><ele>918.0</ele><time>2026-04-06T15:19:03.658Z</time></trkpt><trkpt lat="44.0638233" lon="10.248865"><ele>921.5</ele><time>2026-04-06T15:19:04.658Z</time></trkpt><trkpt lat="44.0637" lon="10.2488917"><ele>925.0</ele><time>2026-04-06T15:19:05.659Z</time></trkpt><trkpt lat="44.0635883" lon="10.248945"><ele>928.5</ele><time>2026-04-06T15:19:06.658Z</time></trkpt><trkpt lat="44.063485" lon="10.249015"><ele>932.0</ele><time>2026-04-06T15:19:07.659Z</time></trkpt><trkpt lat="44.06338" lon="10.2490817"><ele>935.8333333333334</ele><time>2026-04-06T15:19:08.658Z</time></trkpt><trkpt lat="44.063275" lon="10.2491383"><ele>939.6666666666667</ele><time>2026-04-06T15:19:09.658Z</time></trkpt><trkpt lat="44.0631833" lon="10.24919"><ele>943.5</ele><time>2026-04-06T15:19:10.658Z</time></trkpt><trkpt lat="44.0631" lon="10.24923"><ele>947.3333333333333</ele><time>2026-04-06T15:19:11.658Z</time></trkpt><trkpt lat="44.0630267" lon="10.2492467"><ele>951.1666666666666</ele><time>2026-04-06T15:19:12.659Z</time></trkpt><trkpt lat="44.062955" lon="10.2492583"><ele>955.0</ele><time>2026-04-06T15:19:13.658Z</time></trkpt><trkpt lat="44.0628833" lon="10.2492383"><ele>955.0</ele><time>2026-04-06T15:19:14.658Z</time></trkpt><trkpt lat="44.06276" lon="10.2492217"><ele>955.0</ele><time>2026-04-06T15:19:16.658Z</time></trkpt><trkpt lat="44.0626467" lon="10.249195"><ele>955.0</ele><time>2026-04-06T15:19:18.658Z</time></trkpt><trkpt lat="44.0625833" lon="10.2491783"><ele>955.0</ele><time>2026-04-06T15:19:19.658Z</time></trkpt><trkpt lat="44.062485" lon="10.24917"><ele>955.0</ele><time>2026-04-06T15:19:20.658Z</time></trkpt><trkpt lat="44.0623233" lon="10.2491983"><ele>952.9999999999999</ele><time>2026-04-06T15:19:21.658Z</time></trkpt><trkpt lat="44.0622367" lon="10.2491917"><ele>951.0</ele><time>2026-04-06T15:19:22.658Z</time></trkpt><trkpt lat="44.0621483" lon="10.2491883"><ele>949.0</ele><time>2026-04-06T15:19:23.658Z</time></trkpt><trkpt lat="44.0620583" lon="10.2491883"><ele>947.0</ele><time>2026-04-06T15:19:24.658Z</time></trkpt><trkpt lat="44.0619717" lon="10.2491833"><ele>944.9999999999999</ele><time>2026-04-06T15:19:25.658Z</time></trkpt><trkpt lat="44.061885" lon="10.2491767"><ele>943.0</ele><time>2026-04-06T15:19:26.658Z</time></trkpt><trkpt lat="44.05935" lon="10.2452667"><ele>943.0</ele><time>2026-04-06T15:19:45.658Z</time></trkpt><trkpt lat="44.059285" lon="10.24511"><ele>943.0</ele><time>2026-04-06T15:19:46.659Z</time></trkpt><trkpt lat="44.05924" lon="10.244955"><ele>943.0</ele><time>2026-04-06T15:19:47.658Z</time></trkpt><trkpt lat="44.0591883" lon="10.2447817"><ele>943.0</ele><time>2026-04-06T15:19:48.658Z</time></trkpt><trkpt lat="44.0591483" lon="10.2446067"><ele>944.0</ele><time>2026-04-06T15:19:49.658Z</time></trkpt><trkpt lat="44.0591233" lon="10.24442"><ele>945.0</ele><time>2026-04-06T15:19:50.658Z</time></trkpt><trkpt lat="44.0591133" lon="10.24425"><ele>946.0</ele><time>2026-04-06T15:19:51.658Z</time></trkpt><trkpt lat="44.059115" lon="10.2440733"><ele>947.0</ele><time>2026-04-06T15:19:52.658Z</time></trkpt><trkpt lat="44.0591217" lon="10.2438933"><ele>948.75</ele><time>2026-04-06T15:19:53.659Z</time></trkpt><trkpt lat="44.0591317" lon="10.243715"><ele>950.5</ele><time>2026-04-06T15:19:54.658Z</time></trkpt><trkpt lat="44.0591467" lon="10.2435333"><ele>952.25</ele><time>2026-04-06T15:19:55.659Z</time></trkpt><trkpt lat="44.05916" lon="10.2433433"><ele>954.0</ele><time>2026-04-06T15:19:56.66Z</time></trkpt><trkpt lat="44.0591717" lon="10.243155"><ele>954.5</ele><time>2026-04-06T15:19:57.659Z</time></trkpt><trkpt lat="44.0591817" lon="10.24296"><ele>955.0</ele><time>2026-04-06T15:19:58.659Z</time></trkpt><trkpt lat="44.059195" lon="10.242765"><ele>955.5</ele><time>2026-04-06T15:19:59.66Z</time></trkpt><trkpt lat="44.0592083" lon="10.2425717"><ele>956.0</ele><time>2026-04-06T15:20:00.659Z</time></trkpt><trkpt lat="44.0592183" lon="10.24238"><ele>957.0</ele><time>2026-04-06T15:20:01.659Z</time></trkpt><trkpt lat="44.0592167" lon="10.2421767"><ele>958.0</ele><time>2026-04-06T15:20:02.659Z</time></trkpt><trkpt lat="44.0592067" lon="10.241975"><ele>959.0</ele><time>2026-04-06T15:20:03.659Z</time></trkpt><trkpt lat="44.0591917" lon="10.2417767"><ele>960.0</ele><time>2026-04-06T15:20:04.659Z</time></trkpt><trkpt lat="44.0591783" lon="10.2415783"><ele>961.0</ele><time>2026-04-06T15:20:05.659Z</time></trkpt><trkpt lat="44.05919" lon="10.2413967"><ele>962.0</ele><time>2026-04-06T15:20:06.659Z</time></trkpt><trkpt lat="44.0592183" lon="10.2412283"><ele>963.0</ele><time>2026-04-06T15:20:07.659Z</time></trkpt><trkpt lat="44.05927" lon="10.241065"><ele>964.0</ele><time>2026-04-06T15:20:08.66Z</time></trkpt><trkpt lat="44.0593417" lon="10.2409217"><ele>964.0</ele><time>2026-04-06T15:20:09.659Z</time></trkpt><trkpt lat="44.0594267" lon="10.240795"><ele>964.0</ele><time>2026-04-06T15:20:10.66Z</time></trkpt><trkpt lat="44.059515" lon="10.2406667"><ele>964.0</ele><time>2026-04-06T15:20:11.659Z</time></trkpt><trkpt lat="44.059595" lon="10.2405233"><ele>964.0</ele><time>2026-04-06T15:20:12.659Z</time></trkpt><trkpt lat="44.0596567" lon="10.24036"><ele>966.75</ele><time>2026-04-06T15:20:13.659Z</time></trkpt><trkpt lat="44.0596917" lon="10.240185"><ele>969.5</ele><time>2026-04-06T15:20:14.659Z</time></trkpt><trkpt lat="44.0597033" lon="10.240005"><ele>972.25</ele><time>2026-04-06T15:20:15.659Z</time></trkpt><trkpt lat="44.0596967" lon="10.2398317"><ele>975.0</ele><time>2026-04-06T15:20:16.659Z</time></trkpt><trkpt lat="44.0596983" lon="10.2396583"><ele>979.25</ele><time>2026-04-06T15:20:17.659Z</time></trkpt><trkpt lat="44.0597217" lon="10.23949"><ele>983.5</ele><time>2026-04-06T15:20:18.66Z</time></trkpt><trkpt lat="44.05976" lon="10.2393333"><ele>987.75</ele><time>2026-04-06T15:20:19.659Z</time></trkpt><trkpt lat="44.0598233" lon="10.2391833"><ele>992.0</ele><time>2026-04-06T15:20:20.659Z</time></trkpt><trkpt lat="44.05991" lon="10.2390317"><ele>993.0</ele><time>2026-04-06T15:20:21.66Z</time></trkpt><trkpt lat="44.059995" lon="10.2388667"><ele>994.0</ele><time>2026-04-06T15:20:22.659Z</time></trkpt><trkpt lat="44.0600733" lon="10.238685"><ele>995.0</ele><time>2026-04-06T15:20:23.659Z</time></trkpt><trkpt lat="44.0601383" lon="10.2384883"><ele>995.0</ele><time>2026-04-06T15:20:24.659Z</time></trkpt><trkpt lat="44.0601917" lon="10.2382917"><ele>995.0</ele><time>2026-04-06T15:20:25.66Z</time></trkpt><trkpt lat="44.06024" lon="10.2380967"><ele>995.0</ele><time>2026-04-06T15:20:26.659Z</time></trkpt><trkpt lat="44.060285" lon="10.23791"><ele>995.0</ele><time>2026-04-06T15:20:27.659Z</time></trkpt><trkpt lat="44.0603383" lon="10.2377233"><ele>997.0</ele><time>2026-04-06T15:20:28.659Z</time></trkpt><trkpt lat="44.060395" lon="10.23754"><ele>999.0</ele><time>2026-04-06T15:20:29.66Z</time></trkpt><trkpt lat="44.0604767" lon="10.2373633"><ele>1001.0</ele><time>2026-04-06T15:20:30.659Z</time></trkpt><trkpt lat="44.0605683" lon="10.2371983"><ele>1003.0</ele><time>2026-04-06T15:20:31.66Z</time></trkpt><trkpt lat="44.0606783" lon="10.2370483"><ele>1006.3333333333333</ele><time>2026-04-06T15:20:32.659Z</time></trkpt><trkpt lat="44.060785" lon="10.2369"><ele>1009.6666666666667</ele><time>2026-04-06T15:20:33.659Z</time></trkpt><trkpt lat="44.0608867" lon="10.236745"><ele>1013.0</ele><time>2026-04-06T15:20:34.659Z</time></trkpt><trkpt lat="44.060985" lon="10.23659"><ele>1017.5</ele><time>2026-04-06T15:20:35.659Z</time></trkpt><trkpt lat="44.0610733" lon="10.2364283"><ele>1022.0</ele><time>2026-04-06T15:20:36.659Z</time></trkpt><trkpt lat="44.0611583" lon="10.2362667"><ele>1026.5</ele><time>2026-04-06T15:20:37.659Z</time></trkpt><trkpt lat="44.0612567" lon="10.2361083"><ele>1031.0</ele><time>2026-04-06T15:20:38.659Z</time></trkpt><trkpt lat="44.0613517" lon="10.2359533"><ele>1031.0</ele><time>2026-04-06T15:20:39.66Z</time></trkpt><trkpt lat="44.0614333" lon="10.2357967"><ele>1031.0</ele><time>2026-04-06T15:20:40.659Z</time></trkpt><trkpt lat="44.061515" lon="10.2356367"><ele>1031.0</ele><time>2026-04-06T15:20:41.66Z</time></trkpt><trkpt lat="44.0615967" lon="10.235475"><ele>1031.0</ele><time>2026-04-06T15:20:42.659Z</time></trkpt><trkpt lat="44.0616817" lon="10.235315"><ele>1031.0</ele><time>2026-04-06T15:20:43.659Z</time></trkpt><trkpt lat="44.06176" lon="10.23515"><ele>1031.0</ele><time>2026-04-06T15:20:44.66Z</time></trkpt><trkpt lat="44.0618333" lon="10.2349817"><ele>1031.0</ele><time>2026-04-06T15:20:45.659Z</time></trkpt><trkpt lat="44.0619133" lon="10.23482"><ele>1031.0</ele><time>2026-04-06T15:20:46.659Z</time></trkpt><trkpt lat="44.0619883" lon="10.2346533"><ele>1033.75</ele><time>2026-04-06T15:20:47.659Z</time></trkpt><trkpt lat="44.0620533" lon="10.2344783"><ele>1036.5</ele><time>2026-04-06T15:20:48.66Z</time></trkpt><trkpt lat="44.0621033" lon="10.2342967"><ele>1039.25</ele><time>2026-04-06T15:20:49.659Z</time></trkpt><trkpt lat="44.0621383" lon="10.2341133"><ele>1042.0</ele><time>2026-04-06T15:20:50.659Z</time></trkpt><trkpt lat="44.0621633" lon="10.2339383"><ele>1043.0</ele><time>2026-04-06T15:20:51.659Z</time></trkpt><trkpt lat="44.0622" lon="10.2337717"><ele>1044.0</ele><time>2026-04-06T15:20:52.659Z</time></trkpt><trkpt lat="44.0622517" lon="10.233615"><ele>1045.0</ele><time>2026-04-06T15:20:53.659Z</time></trkpt><trkpt lat="44.0623383" lon="10.2334983"><ele>1046.0</ele><time>2026-04-06T15:20:54.659Z</time></trkpt><trkpt lat="44.06243" lon="10.2333967"><ele>1043.5</ele><time>2026-04-06T15:20:55.659Z</time></trkpt><trkpt lat="44.06254" lon="10.2333267"><ele>1041.0</ele><time>2026-04-06T15:20:56.659Z</time></trkpt><trkpt lat="44.062655" lon="10.233285"><ele>1038.5</ele><time>2026-04-06T15:20:57.659Z</time></trkpt><trkpt lat="44.0627867" lon="10.2332917"><ele>1036.0</ele><time>2026-04-06T15:20:58.659Z</time></trkpt><trkpt lat="44.0629183" lon="10.2333367"><ele>1036.0</ele><time>2026-04-06T15:20:59.659Z</time></trkpt><trkpt lat="44.06304" lon="10.2333983"><ele>1036.0</ele><time>2026-04-06T15:21:00.659Z</time></trkpt><trkpt lat="44.0631633" lon="10.2334767"><ele>1036.0</ele><time>2026-04-06T15:21:01.66Z</time></trkpt><trkpt lat="44.063285" lon="10.2335483"><ele>1036.0</ele><time>2026-04-06T15:21:02.659Z</time></trkpt><trkpt lat="44.0634083" lon="10.2336133"><ele>1039.0</ele><time>2026-04-06T15:21:03.659Z</time></trkpt><trkpt lat="44.0635317" lon="10.2336483"><ele>1042.0</ele><time>2026-04-06T15:21:04.659Z</time></trkpt><trkpt lat="44.06365" lon="10.233635"><ele>1045.0</ele><time>2026-04-06T15:21:05.659Z</time></trkpt><trkpt lat="44.063755" lon="10.2335683"><ele>1048.0</ele><time>2026-04-06T15:21:06.659Z</time></trkpt><trkpt lat="44.0638567" lon="10.2334717"><ele>1048.0</ele><time>2026-04-06T15:21:07.659Z</time></trkpt><trkpt lat="44.063945" lon="10.2333567"><ele>1048.0</ele><time>2026-04-06T15:21:08.659Z</time></trkpt><trkpt lat="44.0640217" lon="10.2332417"><ele>1048.0</ele><time>2026-04-06T15:21:09.659Z</time></trkpt><trkpt lat="44.064065" lon="10.23311"><ele>1048.0</ele><time>2026-04-06T15:21:10.659Z</time></trkpt><trkpt lat="44.064105" lon="10.2329717"><ele>1048.0</ele><time>2026-04-06T15:21:11.66Z</time></trkpt><trkpt lat="44.0641483" lon="10.23283"><ele>1054.75</ele><time>2026-04-06T15:21:12.659Z</time></trkpt><trkpt lat="44.064185" lon="10.23269"><ele>1061.5</ele><time>2026-04-06T15:21:13.659Z</time></trkpt><trkpt lat="44.0642283" lon="10.2325433"><ele>1068.25</ele><time>2026-04-06T15:21:14.659Z</time></trkpt><trkpt lat="44.064275" lon="10.2323983"><ele>1075.0</ele><time>2026-04-06T15:21:15.659Z</time></trkpt><trkpt lat="44.0643217" lon="10.2322517"><ele>1072.2</ele><time>2026-04-06T15:21:16.659Z</time></trkpt><trkpt lat="44.0643667" lon="10.23211"><ele>1069.4</ele><time>2026-04-06T15:21:17.659Z</time></trkpt><trkpt lat="44.0644017" lon="10.231985"><ele>1066.6</ele><time>2026-04-06T15:21:18.659Z</time></trkpt><trkpt lat="44.0644317" lon="10.23187"><ele>1063.8</ele><time>2026-04-06T15:21:19.659Z</time></trkpt><trkpt lat="44.064485" lon="10.2316867"><ele>1061.0</ele><time>2026-04-06T15:21:20.659Z</time></trkpt><trkpt lat="44.0656083" lon="10.2250133"><ele>1061.0</ele><time>2026-04-06T15:21:59.659Z</time></trkpt><trkpt lat="44.0655467" lon="10.2249333"><ele>1061.0</ele><time>2026-04-06T15:22:21.659Z</time></trkpt><trkpt lat="44.0654867" lon="10.224845"><ele>1061.0</ele><time>2026-04-06T15:22:46.659Z</time></trkpt><trkpt lat="44.06539" lon="10.22476"><ele>1061.0</ele><time>2026-04-06T15:22:48.659Z</time></trkpt><trkpt lat="44.06532" lon="10.2247333"><ele>1061.0</ele><time>2026-04-06T15:22:49.659Z</time></trkpt><trkpt lat="44.065245" lon="10.2247233"><ele>1061.0</ele><time>2026-04-06T15:22:50.659Z</time></trkpt><trkpt lat="44.0651633" lon="10.2247067"><ele>1065.6666666666667</ele><time>2026-04-06T15:22:51.66Z</time></trkpt><trkpt lat="44.0650833" lon="10.22468"><ele>1070.3333333333335</ele><time>2026-04-06T15:22:52.659Z</time></trkpt><trkpt lat="44.0649967" lon="10.224645"><ele>1075.0</ele><time>2026-04-06T15:22:53.659Z</time></trkpt><trkpt lat="44.0649167" lon="10.2246083"><ele>1079.6666666666667</ele><time>2026-04-06T15:22:54.66Z</time></trkpt><trkpt lat="44.06484" lon="10.2245633"><ele>1084.3333333333333</ele><time>2026-04-06T15:22:55.659Z</time></trkpt><trkpt lat="44.0647683" lon="10.22451"><ele>1089.0</ele><time>2026-04-06T15:22:56.659Z</time></trkpt><trkpt lat="44.064695" lon="10.2244567"><ele>1089.0</ele><time>2026-04-06T15:22:57.659Z</time></trkpt><trkpt lat="44.0646367" lon="10.2243917"><ele>1089.0</ele><time>2026-04-06T15:22:58.659Z</time></trkpt><trkpt lat="44.0645983" lon="10.2242533"><ele>1089.0</ele><time>2026-04-06T15:22:59.659Z</time></trkpt><trkpt lat="44.064595" lon="10.2240467"><ele>1089.0</ele><time>2026-04-06T15:23:00.659Z</time></trkpt><trkpt lat="44.06457" lon="10.22383"><ele>1080.25</ele><time>2026-04-06T15:23:01.66Z</time></trkpt><trkpt lat="44.0645417" lon="10.2236717"><ele>1071.5</ele><time>2026-04-06T15:23:02.659Z</time></trkpt><trkpt lat="44.0644967" lon="10.2235217"><ele>1062.75</ele><time>2026-04-06T15:23:03.659Z</time></trkpt><trkpt lat="44.064435" lon="10.2233783"><ele>1054.0</ele><time>2026-04-06T15:23:04.659Z</time></trkpt><trkpt lat="44.0643833" lon="10.2232517"><ele>1047.75</ele><time>2026-04-06T15:23:05.659Z</time></trkpt><trkpt lat="44.064325" lon="10.223135"><ele>1041.5</ele><time>2026-04-06T15:23:06.659Z</time></trkpt><trkpt lat="44.0642583" lon="10.2230133"><ele>1035.25</ele><time>2026-04-06T15:23:07.659Z</time></trkpt><trkpt lat="44.0641683" lon="10.2228883"><ele>1029.0</ele><time>2026-04-06T15:23:08.659Z</time></trkpt><trkpt lat="44.064095" lon="10.2227517"><ele>1029.0</ele><time>2026-04-06T15:23:09.659Z</time></trkpt><trkpt lat="44.0640233" lon="10.222615"><ele>1029.0</ele><time>2026-04-06T15:23:10.659Z</time></trkpt><trkpt lat="44.0639583" lon="10.2224783"><ele>1029.0</ele><time>2026-04-06T15:23:11.659Z</time></trkpt><trkpt lat="44.063895" lon="10.2223333"><ele>1029.0</ele><time>2026-04-06T15:23:12.66Z</time></trkpt><trkpt lat="44.063835" lon="10.22219"><ele>1022.0</ele><time>2026-04-06T15:23:13.659Z</time></trkpt><trkpt lat="44.0637683" lon="10.22205"><ele>1015.0000000000001</ele><time>2026-04-06T15:23:14.659Z</time></trkpt><trkpt lat="44.0636967" lon="10.2219283"><ele>1008.0000000000001</ele><time>2026-04-06T15:23:15.659Z</time></trkpt><trkpt lat="44.0636167" lon="10.2218333"><ele>1001.0</ele><time>2026-04-06T15:23:16.659Z</time></trkpt><trkpt lat="44.0635233" lon="10.2217667"><ele>994.0</ele><time>2026-04-06T15:23:17.659Z</time></trkpt><trkpt lat="44.0634217" lon="10.2217417"><ele>994.0</ele><time>2026-04-06T15:23:18.659Z</time></trkpt><trkpt lat="44.0633283" lon="10.2217483"><ele>994.0000000000001</ele><time>2026-04-06T15:23:19.66Z</time></trkpt><trkpt lat="44.0632383" lon="10.22178"><ele>994.0000000000001</ele><time>2026-04-06T15:23:20.659Z</time></trkpt><trkpt lat="44.0631567" lon="10.2218333"><ele>994.0</ele><time>2026-04-06T15:23:21.659Z</time></trkpt><trkpt lat="44.0630767" lon="10.22189"><ele>994.0</ele><time>2026-04-06T15:23:22.659Z</time></trkpt><trkpt lat="44.0629983" lon="10.2219533"><ele>996.6666666666666</ele><time>2026-04-06T15:23:23.66Z</time></trkpt><trkpt lat="44.0629067" lon="10.2220083"><ele>999.3333333333333</ele><time>2026-04-06T15:23:24.659Z</time></trkpt><trkpt lat="44.06282" lon="10.2220383"><ele>1002.0</ele><time>2026-04-06T15:23:25.658Z</time></trkpt><trkpt lat="44.062735" lon="10.2220483"><ele>1004.6666666666667</ele><time>2026-04-06T15:23:26.658Z</time></trkpt><trkpt lat="44.06266" lon="10.22201"><ele>1007.3333333333334</ele><time>2026-04-06T15:23:27.659Z</time></trkpt><trkpt lat="44.0625917" lon="10.221945"><ele>1010.0</ele><time>2026-04-06T15:23:28.658Z</time></trkpt><trkpt lat="44.06255" lon="10.22185"><ele>1010.0000000000001</ele><time>2026-04-06T15:23:29.658Z</time></trkpt><trkpt lat="44.062515" lon="10.2217367"><ele>1010.0</ele><time>2026-04-06T15:23:30.659Z</time></trkpt><trkpt lat="44.0625017" lon="10.2216217"><ele>1010.0</ele><time>2026-04-06T15:23:31.658Z</time></trkpt><trkpt lat="44.0624883" lon="10.2215017"><ele>1010.0</ele><time>2026-04-06T15:23:32.659Z</time></trkpt><trkpt lat="44.0624733" lon="10.2213867"><ele>1010.0000000000001</ele><time>2026-04-06T15:23:33.658Z</time></trkpt><trkpt lat="44.0624533" lon="10.221265"><ele>1010.0</ele><time>2026-04-06T15:23:34.658Z</time></trkpt><trkpt lat="44.0624233" lon="10.2211467"><ele>1020.8</ele><time>2026-04-06T15:23:35.658Z</time></trkpt><trkpt lat="44.0623917" lon="10.2210283"><ele>1031.6</ele><time>2026-04-06T15:23:36.658Z</time></trkpt><trkpt lat="44.0623533" lon="10.2209067"><ele>1042.4</ele><time>2026-04-06T15:23:37.658Z</time></trkpt><trkpt lat="44.0623167" lon="10.22078"><ele>1053.2</ele><time>2026-04-06T15:23:38.658Z</time></trkpt><trkpt lat="44.0622867" lon="10.22065"><ele>1064.0</ele><time>2026-04-06T15:23:39.658Z</time></trkpt><trkpt lat="44.0622717" lon="10.2205083"><ele>1065.6000000000001</ele><time>2026-04-06T15:23:40.658Z</time></trkpt><trkpt lat="44.0622667" lon="10.22036"><ele>1067.2</ele><time>2026-04-06T15:23:41.658Z</time></trkpt><trkpt lat="44.0622617" lon="10.2202083"><ele>1068.8000000000002</ele><time>2026-04-06T15:23:42.659Z</time></trkpt><trkpt lat="44.0622583" lon="10.2200533"><ele>1070.4</ele><time>2026-04-06T15:23:43.658Z</time></trkpt><trkpt lat="44.0622533" lon="10.2198967"><ele>1072.0</ele><time>2026-04-06T15:23:44.658Z</time></trkpt><trkpt lat="44.0622483" lon="10.219735"><ele>1072.0</ele><time>2026-04-06T15:23:45.658Z</time></trkpt><trkpt lat="44.0622567" lon="10.219575"><ele>1072.0</ele><time>2026-04-06T15:23:46.658Z</time></trkpt><trkpt lat="44.0622617" lon="10.2194133"><ele>1072.0</ele><time>2026-04-06T15:23:47.658Z</time></trkpt><trkpt lat="44.0622683" lon="10.219255"><ele>1072.0</ele><time>2026-04-06T15:23:48.658Z</time></trkpt><trkpt lat="44.0622817" lon="10.219095"><ele>1067.0</ele><time>2026-04-06T15:23:49.658Z</time></trkpt><trkpt lat="44.0622983" lon="10.2189317"><ele>1062.0</ele><time>2026-04-06T15:23:50.659Z</time></trkpt><trkpt lat="44.062315" lon="10.2187633"><ele>1057.0</ele><time>2026-04-06T15:23:51.658Z</time></trkpt><trkpt lat="44.0623483" lon="10.218585"><ele>1052.0</ele><time>2026-04-06T15:23:52.658Z</time></trkpt><trkpt lat="44.0623133" lon="10.2184317"><ele>1052.0</ele><time>2026-04-06T15:23:53.658Z</time></trkpt><trkpt lat="44.0623783" lon="10.2183017"><ele>1052.0</ele><time>2026-04-06T15:23:54.658Z</time></trkpt><trkpt lat="44.0625217" lon="10.2181883"><ele>1052.0</ele><time>2026-04-06T15:23:55.658Z</time></trkpt><trkpt lat="44.0625883" lon="10.2180667"><ele>1052.0</ele><time>2026-04-06T15:23:56.659Z</time></trkpt><trkpt lat="44.062655" lon="10.2179333"><ele>1038.0</ele><time>2026-04-06T15:23:57.659Z</time></trkpt><trkpt lat="44.0627167" lon="10.2177883"><ele>1024.0</ele><time>2026-04-06T15:23:58.658Z</time></trkpt><trkpt lat="44.062775" lon="10.217645"><ele>1010.0</ele><time>2026-04-06T15:23:59.658Z</time></trkpt><trkpt lat="44.0628367" lon="10.2174933"><ele>996.0</ele><time>2026-04-06T15:24:00.658Z</time></trkpt><trkpt lat="44.0628917" lon="10.217345"><ele>987.25</ele><time>2026-04-06T15:24:01.658Z</time></trkpt><trkpt lat="44.0629283" lon="10.2172217"><ele>978.5</ele><time>2026-04-06T15:24:02.658Z</time></trkpt><trkpt lat="44.06291" lon="10.217095"><ele>969.75</ele><time>2026-04-06T15:24:03.659Z</time></trkpt><trkpt lat="44.0627183" lon="10.21693"><ele>961.0</ele><time>2026-04-06T15:24:04.658Z</time></trkpt><trkpt lat="44.062635" lon="10.216825"><ele>961.0</ele><time>2026-04-06T15:24:05.658Z</time></trkpt><trkpt lat="44.0625367" lon="10.2167267"><ele>960.9999999999999</ele><time>2026-04-06T15:24:06.658Z</time></trkpt><trkpt lat="44.0624517" lon="10.216655"><ele>960.9999999999999</ele><time>2026-04-06T15:24:07.658Z</time></trkpt><trkpt lat="44.0623717" lon="10.2165883"><ele>961.0</ele><time>2026-04-06T15:24:08.658Z</time></trkpt><trkpt lat="44.0622733" lon="10.21652"><ele>961.0</ele><time>2026-04-06T15:24:09.658Z</time></trkpt><trkpt lat="44.0621783" lon="10.216465"><ele>958.0</ele><time>2026-04-06T15:24:10.658Z</time></trkpt><trkpt lat="44.0620517" lon="10.2164717"><ele>955.0</ele><time>2026-04-06T15:24:11.658Z</time></trkpt><trkpt lat="44.06195" lon="10.2164983"><ele>952.0</ele><time>2026-04-06T15:24:12.658Z</time></trkpt><trkpt lat="44.06183" lon="10.2165933"><ele>949.0</ele><time>2026-04-06T15:24:13.658Z</time></trkpt><trkpt lat="44.0617433" lon="10.216655"><ele>949.0</ele><time>2026-04-06T15:24:14.658Z</time></trkpt><trkpt lat="44.061635" lon="10.2167983"><ele>949.0</ele><time>2026-04-06T15:24:15.659Z</time></trkpt><trkpt lat="44.06154" lon="10.2168983"><ele>949.0</ele><time>2026-04-06T15:24:16.658Z</time></trkpt><trkpt lat="44.06144" lon="10.2169967"><ele>949.0</ele><time>2026-04-06T15:24:17.658Z</time></trkpt><trkpt lat="44.0613183" lon="10.2170533"><ele>944.0</ele><time>2026-04-06T15:24:18.658Z</time></trkpt><trkpt lat="44.0611983" lon="10.2171083"><ele>939.0</ele><time>2026-04-06T15:24:19.658Z</time></trkpt><trkpt lat="44.0610767" lon="10.2171267"><ele>934.0</ele><time>2026-04-06T15:24:20.658Z</time></trkpt><trkpt lat="44.0609533" lon="10.217135"><ele>929.0</ele><time>2026-04-06T15:24:21.658Z</time></trkpt><trkpt lat="44.0608317" lon="10.21715"><ele>930.25</ele><time>2026-04-06T15:24:22.658Z</time></trkpt><trkpt lat="44.0607167" lon="10.2171583"><ele>931.5</ele><time>2026-04-06T15:24:23.659Z</time></trkpt><trkpt lat="44.0606033" lon="10.21717"><ele>932.75</ele><time>2026-04-06T15:24:24.658Z</time></trkpt><trkpt lat="44.0604933" lon="10.2171867"><ele>934.0</ele><time>2026-04-06T15:24:25.658Z</time></trkpt><trkpt lat="44.06038" lon="10.2171883"><ele>934.0</ele><time>2026-04-06T15:24:26.658Z</time></trkpt><trkpt lat="44.0602683" lon="10.2171583"><ele>934.0000000000001</ele><time>2026-04-06T15:24:27.658Z</time></trkpt><trkpt lat="44.0601667" lon="10.217095"><ele>934.0000000000001</ele><time>2026-04-06T15:24:28.658Z</time></trkpt><trkpt lat="44.0600733" lon="10.2169917"><ele>934.0</ele><time>2026-04-06T15:24:29.658Z</time></trkpt><trkpt lat="44.059995" lon="10.21691"><ele>934.0</ele><time>2026-04-06T15:24:30.658Z</time></trkpt><trkpt lat="44.0599183" lon="10.21679"><ele>934.8000000000001</ele><time>2026-04-06T15:24:31.658Z</time></trkpt><trkpt lat="44.0598317" lon="10.2166733"><ele>935.6000000000001</ele><time>2026-04-06T15:24:32.659Z</time></trkpt><trkpt lat="44.05974" lon="10.2165667"><ele>936.4</ele><time>2026-04-06T15:24:33.658Z</time></trkpt><trkpt lat="44.0596417" lon="10.2165433"><ele>937.2</ele><time>2026-04-06T15:24:34.658Z</time></trkpt><trkpt lat="44.0595467" lon="10.2165083"><ele>938.0</ele><time>2026-04-06T15:24:35.659Z</time></trkpt><trkpt lat="44.0594467" lon="10.2165183"><ele>938.0</ele><time>2026-04-06T15:24:36.658Z</time></trkpt><trkpt lat="44.0593533" lon="10.2165617"><ele>938.0</ele><time>2026-04-06T15:24:37.658Z</time></trkpt><trkpt lat="44.0592533" lon="10.216595"><ele>938.0</ele><time>2026-04-06T15:24:38.658Z</time></trkpt><trkpt lat="44.0591517" lon="10.21662"><ele>938.0</ele><time>2026-04-06T15:24:39.658Z</time></trkpt><trkpt lat="44.0590417" lon="10.2166383"><ele>938.0</ele><time>2026-04-06T15:24:40.658Z</time></trkpt><trkpt lat="44.0589317" lon="10.21665"><ele>939.2</ele><time>2026-04-06T15:24:41.658Z</time></trkpt><trkpt lat="44.05882" lon="10.2166467"><ele>940.4</ele><time>2026-04-06T15:24:42.658Z</time></trkpt><trkpt lat="44.05872" lon="10.21661"><ele>941.6000000000001</ele><time>2026-04-06T15:24:43.659Z</time></trkpt><trkpt lat="44.05863" lon="10.2165333"><ele>942.8000000000001</ele><time>2026-04-06T15:24:44.658Z</time></trkpt><trkpt lat="44.0585517" lon="10.2164283"><ele>944.0</ele><time>2026-04-06T15:24:45.658Z</time></trkpt><trkpt lat="44.0584933" lon="10.2163183"><ele>944.0</ele><time>2026-04-06T15:24:46.659Z</time></trkpt><trkpt lat="44.05844" lon="10.2161883"><ele>944.0000000000001</ele><time>2026-04-06T15:24:47.658Z</time></trkpt><trkpt lat="44.0583933" lon="10.2160583"><ele>944.0000000000001</ele><time>2026-04-06T15:24:48.658Z</time></trkpt><trkpt lat="44.058355" lon="10.2159233"><ele>944.0</ele><time>2026-04-06T15:24:49.658Z</time></trkpt><trkpt lat="44.0583417" lon="10.2157933"><ele>944.0</ele><time>2026-04-06T15:24:50.658Z</time></trkpt><trkpt lat="44.0583583" lon="10.2156517"><ele>941.4000000000001</ele><time>2026-04-06T15:24:51.658Z</time></trkpt><trkpt lat="44.0584033" lon="10.2155083"><ele>938.8000000000001</ele><time>2026-04-06T15:24:52.658Z</time></trkpt><trkpt lat="44.0584517" lon="10.2153683"><ele>936.1999999999999</ele><time>2026-04-06T15:24:53.658Z</time></trkpt><trkpt lat="44.0584867" lon="10.2152233"><ele>933.5999999999999</ele><time>2026-04-06T15:24:54.659Z</time></trkpt><trkpt lat="44.0584967" lon="10.21508"><ele>931.0</ele><time>2026-04-06T15:24:55.658Z</time></trkpt><trkpt lat="44.0584817" lon="10.2149367"><ele>928.5</ele><time>2026-04-06T15:24:56.658Z</time></trkpt><trkpt lat="44.0584383" lon="10.2148017"><ele>926.0</ele><time>2026-04-06T15:24:57.658Z</time></trkpt><trkpt lat="44.058385" lon="10.2146667"><ele>923.5</ele><time>2026-04-06T15:24:58.658Z</time></trkpt><trkpt lat="44.058325" lon="10.2145267"><ele>921.0</ele><time>2026-04-06T15:24:59.658Z</time></trkpt><trkpt lat="44.0582717" lon="10.2143817"><ele>928.5</ele><time>2026-04-06T15:25:00.658Z</time></trkpt><trkpt lat="44.0582183" lon="10.21424"><ele>936.0</ele><time>2026-04-06T15:25:01.658Z</time></trkpt><trkpt lat="44.0581733" lon="10.2140933"><ele>943.5</ele><time>2026-04-06T15:25:02.658Z</time></trkpt><trkpt lat="44.058125" lon="10.2139283"><ele>951.0</ele><time>2026-04-06T15:25:03.658Z</time></trkpt><trkpt lat="44.0580933" lon="10.2137467"><ele>951.0</ele><time>2026-04-06T15:25:04.658Z</time></trkpt><trkpt lat="44.0580533" lon="10.2135833"><ele>951.0</ele><time>2026-04-06T15:25:05.658Z</time></trkpt><trkpt lat="44.0580133" lon="10.2134167"><ele>951.0</ele><time>2026-04-06T15:25:06.658Z</time></trkpt><trkpt lat="44.0579767" lon="10.21324"><ele>951.0</ele><time>2026-04-06T15:25:07.658Z</time></trkpt><trkpt lat="44.0579367" lon="10.21307"><ele>943.25</ele><time>2026-04-06T15:25:08.659Z</time></trkpt><trkpt lat="44.057895" lon="10.2129167"><ele>935.5</ele><time>2026-04-06T15:25:09.659Z</time></trkpt><trkpt lat="44.05787" lon="10.2127683"><ele>927.75</ele><time>2026-04-06T15:25:10.658Z</time></trkpt><trkpt lat="44.0578433" lon="10.2125717"><ele>920.0</ele><time>2026-04-06T15:25:11.658Z</time></trkpt><trkpt lat="44.057795" lon="10.21241"><ele>914.5</ele><time>2026-04-06T15:25:12.658Z</time></trkpt><trkpt lat="44.0577467" lon="10.2122517"><ele>909.0</ele><time>2026-04-06T15:25:13.658Z</time></trkpt><trkpt lat="44.0577" lon="10.21209"><ele>903.5</ele><time>2026-04-06T15:25:14.659Z</time></trkpt><trkpt lat="44.057645" lon="10.2119267"><ele>898.0</ele><time>2026-04-06T15:25:15.658Z</time></trkpt><trkpt lat="44.0576033" lon="10.2117583"><ele>898.0</ele><time>2026-04-06T15:25:16.658Z</time></trkpt><trkpt lat="44.0575617" lon="10.2115933"><ele>898.0</ele><time>2026-04-06T15:25:17.658Z</time></trkpt><trkpt lat="44.0575017" lon="10.2114517"><ele>898.0</ele><time>2026-04-06T15:25:18.659Z</time></trkpt><trkpt lat="44.0574333" lon="10.2113167"><ele>898.0</ele><time>2026-04-06T15:25:19.658Z</time></trkpt><trkpt lat="44.0573517" lon="10.21119"><ele>890.0</ele><time>2026-04-06T15:25:20.658Z</time></trkpt><trkpt lat="44.057275" lon="10.21106"><ele>882.0</ele><time>2026-04-06T15:25:21.658Z</time></trkpt><trkpt lat="44.0572217" lon="10.2109167"><ele>874.0</ele><time>2026-04-06T15:25:22.658Z</time></trkpt><trkpt lat="44.057185" lon="10.2107583"><ele>866.0</ele><time>2026-04-06T15:25:23.659Z</time></trkpt><trkpt lat="44.0571533" lon="10.2105883"><ele>866.0</ele><time>2026-04-06T15:25:24.658Z</time></trkpt><trkpt lat="44.0571333" lon="10.2104167"><ele>866.0</ele><time>2026-04-06T15:25:25.658Z</time></trkpt><trkpt lat="44.0571117" lon="10.2102433"><ele>866.0</ele><time>2026-04-06T15:25:26.658Z</time></trkpt><trkpt lat="44.0570933" lon="10.2100683"><ele>866.0</ele><time>2026-04-06T15:25:27.658Z</time></trkpt><trkpt lat="44.0570733" lon="10.2098983"><ele>866.0</ele><time>2026-04-06T15:25:28.658Z</time></trkpt><trkpt lat="44.057055" lon="10.209725"><ele>866.0</ele><time>2026-04-06T15:25:29.658Z</time></trkpt><trkpt lat="44.057035" lon="10.209535"><ele>866.0</ele><time>2026-04-06T15:25:30.658Z</time></trkpt><trkpt lat="44.057015" lon="10.2093467"><ele>866.0</ele><time>2026-04-06T15:25:31.658Z</time></trkpt><trkpt lat="44.0569983" lon="10.2091517"><ele>873.5</ele><time>2026-04-06T15:25:32.658Z</time></trkpt><trkpt lat="44.056985" lon="10.20896"><ele>881.0</ele><time>2026-04-06T15:25:33.659Z</time></trkpt><trkpt lat="44.05697" lon="10.20877"><ele>888.5</ele><time>2026-04-06T15:25:34.658Z</time></trkpt><trkpt lat="44.0569533" lon="10.20858"><ele>896.0</ele><time>2026-04-06T15:25:35.659Z</time></trkpt><trkpt lat="44.0569283" lon="10.2084033"><ele>896.0</ele><time>2026-04-06T15:25:36.658Z</time></trkpt><trkpt lat="44.0569083" lon="10.2082167"><ele>896.0</ele><time>2026-04-06T15:25:37.658Z</time></trkpt><trkpt lat="44.0569467" lon="10.2079767"><ele>896.0</ele><time>2026-04-06T15:25:38.658Z</time></trkpt><trkpt lat="44.0569867" lon="10.2078583"><ele>896.0</ele><time>2026-04-06T15:25:39.658Z</time></trkpt><trkpt lat="44.05714" lon="10.2078617"><ele>888.3333333333334</ele><time>2026-04-06T15:25:40.658Z</time></trkpt><trkpt lat="44.057285" lon="10.2078817"><ele>880.6666666666667</ele><time>2026-04-06T15:25:41.658Z</time></trkpt><trkpt lat="44.0574617" lon="10.2078867"><ele>873.0</ele><time>2026-04-06T15:25:42.659Z</time></trkpt><trkpt lat="44.057655" lon="10.207895"><ele>873.0</ele><time>2026-04-06T15:25:43.658Z</time></trkpt><trkpt lat="44.057775" lon="10.2078067"><ele>873.0</ele><time>2026-04-06T15:25:44.658Z</time></trkpt><trkpt lat="44.0578483" lon="10.2076983"><ele>873.0</ele><time>2026-04-06T15:25:45.658Z</time></trkpt><trkpt lat="44.0578833" lon="10.2075667"><ele>873.0</ele><time>2026-04-06T15:25:46.658Z</time></trkpt><trkpt lat="44.05789" lon="10.2074383"><ele>873.0</ele><time>2026-04-06T15:25:47.658Z</time></trkpt><trkpt lat="44.05788" lon="10.2073117"><ele>870.4</ele><time>2026-04-06T15:25:48.658Z</time></trkpt><trkpt lat="44.0578533" lon="10.2071783"><ele>867.8</ele><time>2026-04-06T15:25:49.658Z</time></trkpt><trkpt lat="44.05781" lon="10.2070367"><ele>865.2</ele><time>2026-04-06T15:25:50.659Z</time></trkpt><trkpt lat="44.05778" lon="10.2069"><ele>862.6</ele><time>2026-04-06T15:25:51.658Z</time></trkpt><trkpt lat="44.05775" lon="10.2067617"><ele>860.0</ele><time>2026-04-06T15:25:52.658Z</time></trkpt><trkpt lat="44.0577183" lon="10.20663"><ele>860.0</ele><time>2026-04-06T15:25:53.658Z</time></trkpt><trkpt lat="44.0576883" lon="10.2065017"><ele>860.0</ele><time>2026-04-06T15:25:54.659Z</time></trkpt><trkpt lat="44.0576567" lon="10.2063767"><ele>860.0</ele><time>2026-04-06T15:25:55.658Z</time></trkpt><trkpt lat="44.0576217" lon="10.206255"><ele>860.0</ele><time>2026-04-06T15:25:56.658Z</time></trkpt><trkpt lat="44.0575883" lon="10.20613"><ele>860.0</ele><time>2026-04-06T15:25:57.658Z</time></trkpt><trkpt lat="44.0575583" lon="10.206005"><ele>858.6</ele><time>2026-04-06T15:25:58.658Z</time></trkpt><trkpt lat="44.0575333" lon="10.2058767"><ele>857.2</ele><time>2026-04-06T15:25:59.659Z</time></trkpt><trkpt lat="44.0575167" lon="10.205745"><ele>855.8</ele><time>2026-04-06T15:26:00.658Z</time></trkpt><trkpt lat="44.05751" lon="10.2056"><ele>854.4</ele><time>2026-04-06T15:26:01.658Z</time></trkpt><trkpt lat="44.0575167" lon="10.2054417"><ele>853.0</ele><time>2026-04-06T15:26:02.658Z</time></trkpt><trkpt lat="44.0575217" lon="10.2052733"><ele>850.0</ele><time>2026-04-06T15:26:03.658Z</time></trkpt><trkpt lat="44.057525" lon="10.2051"><ele>847.0</ele><time>2026-04-06T15:26:04.658Z</time></trkpt><trkpt lat="44.0575333" lon="10.2049283"><ele>844.0</ele><time>2026-04-06T15:26:05.658Z</time></trkpt><trkpt lat="44.0575533" lon="10.2045883"><ele>842.75</ele><time>2026-04-06T15:26:07.659Z</time></trkpt><trkpt lat="44.0575683" lon="10.2044233"><ele>841.5</ele><time>2026-04-06T15:26:08.658Z</time></trkpt><trkpt lat="44.0575767" lon="10.20426"><ele>840.25</ele><time>2026-04-06T15:26:09.658Z</time></trkpt><trkpt lat="44.0575833" lon="10.2041017"><ele>839.0</ele><time>2026-04-06T15:26:10.658Z</time></trkpt><trkpt lat="44.057595" lon="10.2039483"><ele>838.0</ele><time>2026-04-06T15:26:11.659Z</time></trkpt><trkpt lat="44.0576033" lon="10.2037983"><ele>837.0</ele><time>2026-04-06T15:26:12.658Z</time></trkpt><trkpt lat="44.0576133" lon="10.2036517"><ele>836.0</ele><time>2026-04-06T15:26:13.659Z</time></trkpt><trkpt lat="44.0576217" lon="10.203505"><ele>835.0</ele><time>2026-04-06T15:26:14.658Z</time></trkpt><trkpt lat="44.05763" lon="10.2033617"><ele>834.0</ele><time>2026-04-06T15:26:15.659Z</time></trkpt><trkpt lat="44.0576417" lon="10.2032167"><ele>833.2</ele><time>2026-04-06T15:26:16.658Z</time></trkpt><trkpt lat="44.05765" lon="10.2030717"><ele>832.4000000000001</ele><time>2026-04-06T15:26:17.658Z</time></trkpt><trkpt lat="44.0576533" lon="10.202925"><ele>831.6</ele><time>2026-04-06T15:26:18.658Z</time></trkpt><trkpt lat="44.0576433" lon="10.202785"><ele>830.8</ele><time>2026-04-06T15:26:19.658Z</time></trkpt><trkpt lat="44.0576217" lon="10.2026467"><ele>830.0</ele><time>2026-04-06T15:26:20.658Z</time></trkpt><trkpt lat="44.0576067" lon="10.20251"><ele>830.0000000000001</ele><time>2026-04-06T15:26:21.659Z</time></trkpt><trkpt lat="44.0575967" lon="10.2023717"><ele>830.0</ele><time>2026-04-06T15:26:22.658Z</time></trkpt><trkpt lat="44.0576" lon="10.2022433"><ele>830.0</ele><time>2026-04-06T15:26:23.658Z</time></trkpt><trkpt lat="44.05762" lon="10.20212"><ele>830.0</ele><time>2026-04-06T15:26:24.658Z</time></trkpt><trkpt lat="44.057645" lon="10.202015"><ele>830.0000000000001</ele><time>2026-04-06T15:26:25.658Z</time></trkpt><trkpt lat="44.057665" lon="10.2019233"><ele>830.0</ele><time>2026-04-06T15:26:26.659Z</time></trkpt><trkpt lat="44.0576867" lon="10.2017633"><ele>829.0</ele><time>2026-04-06T15:26:28.658Z</time></trkpt><trkpt lat="44.057665" lon="10.20164"><ele>828.0</ele><time>2026-04-06T15:26:30.658Z</time></trkpt><trkpt lat="44.0575717" lon="10.2016783"><ele>827.0</ele><time>2026-04-06T15:26:32.658Z</time></trkpt><trkpt lat="44.0574867" lon="10.2017883"><ele>826.0</ele><time>2026-04-06T15:26:34.658Z</time></trkpt><trkpt lat="44.0574617" lon="10.2019117"><ele>825.0</ele><time>2026-04-06T15:26:35.658Z</time></trkpt><trkpt lat="44.057455" lon="10.2020633"><ele>825.0</ele><time>2026-04-06T15:26:36.658Z</time></trkpt><trkpt lat="44.057455" lon="10.2022583"><ele>825.0</ele><time>2026-04-06T15:26:37.658Z</time></trkpt><trkpt lat="44.0574617" lon="10.2024583"><ele>825.0</ele><time>2026-04-06T15:26:38.658Z</time></trkpt><trkpt lat="44.0574633" lon="10.20266"><ele>825.0</ele><time>2026-04-06T15:26:39.658Z</time></trkpt><trkpt lat="44.05745" lon="10.20286"><ele>811.5</ele><time>2026-04-06T15:26:40.658Z</time></trkpt><trkpt lat="44.0574267" lon="10.2030517"><ele>798.0</ele><time>2026-04-06T15:26:41.658Z</time></trkpt><trkpt lat="44.0574" lon="10.20324"><ele>784.5</ele><time>2026-04-06T15:26:42.658Z</time></trkpt><trkpt lat="44.0573717" lon="10.2034233"><ele>771.0</ele><time>2026-04-06T15:26:43.659Z</time></trkpt><trkpt lat="44.0573517" lon="10.2036033"><ele>771.0</ele><time>2026-04-06T15:26:44.658Z</time></trkpt><trkpt lat="44.057315" lon="10.2037817"><ele>771.0</ele><time>2026-04-06T15:26:45.658Z</time></trkpt><trkpt lat="44.0572633" lon="10.2041283"><ele>771.0</ele><time>2026-04-06T15:26:47.658Z</time></trkpt><trkpt lat="44.0572383" lon="10.2042967"><ele>772.25</ele><time>2026-04-06T15:26:48.658Z</time></trkpt><trkpt lat="44.05721" lon="10.2044633"><ele>773.5</ele><time>2026-04-06T15:26:49.659Z</time></trkpt><trkpt lat="44.0571733" lon="10.2046183"><ele>774.75</ele><time>2026-04-06T15:26:50.659Z</time></trkpt><trkpt lat="44.0571233" lon="10.2047633"><ele>776.0</ele><time>2026-04-06T15:26:51.658Z</time></trkpt><trkpt lat="44.05707" lon="10.2049033"><ele>778.8</ele><time>2026-04-06T15:26:52.658Z</time></trkpt><trkpt lat="44.0570283" lon="10.2050417"><ele>781.5999999999999</ele><time>2026-04-06T15:26:53.658Z</time></trkpt><trkpt lat="44.057" lon="10.2051833"><ele>784.4</ele><time>2026-04-06T15:26:54.659Z</time></trkpt><trkpt lat="44.05698" lon="10.205325"><ele>787.2</ele><time>2026-04-06T15:26:55.658Z</time></trkpt><trkpt lat="44.0569617" lon="10.205465"><ele>790.0</ele><time>2026-04-06T15:26:56.659Z</time></trkpt><trkpt lat="44.0569433" lon="10.2056"><ele>793.1666666666666</ele><time>2026-04-06T15:26:57.658Z</time></trkpt><trkpt lat="44.056925" lon="10.20573"><ele>796.3333333333333</ele><time>2026-04-06T15:26:58.658Z</time></trkpt><trkpt lat="44.0569067" lon="10.2058483"><ele>799.5</ele><time>2026-04-06T15:26:59.658Z</time></trkpt><trkpt lat="44.056885" lon="10.20596"><ele>802.6666666666667</ele><time>2026-04-06T15:27:00.658Z</time></trkpt><trkpt lat="44.0568567" lon="10.20606"><ele>805.8333333333334</ele><time>2026-04-06T15:27:01.658Z</time></trkpt><trkpt lat="44.05683" lon="10.206145"><ele>809.0</ele><time>2026-04-06T15:27:02.658Z</time></trkpt><trkpt lat="44.0567817" lon="10.2062483"><ele>809.0</ele><time>2026-04-06T15:27:04.658Z</time></trkpt><trkpt lat="44.056715" lon="10.2061817"><ele>809.0</ele><time>2026-04-06T15:27:06.658Z</time></trkpt><trkpt lat="44.0567" lon="10.206055"><ele>809.0</ele><time>2026-04-06T15:27:08.658Z</time></trkpt><trkpt lat="44.0567567" lon="10.205905"><ele>809.0</ele><time>2026-04-06T15:27:10.658Z</time></trkpt><trkpt lat="44.0567733" lon="10.205795"><ele>809.0</ele><time>2026-04-06T15:27:11.658Z</time></trkpt><trkpt lat="44.056795" lon="10.20567"><ele>804.25</ele><time>2026-04-06T15:27:12.658Z</time></trkpt><trkpt lat="44.056805" lon="10.2055167"><ele>799.5</ele><time>2026-04-06T15:27:13.658Z</time></trkpt><trkpt lat="44.0568117" lon="10.20533"><ele>794.75</ele><time>2026-04-06T15:27:14.658Z</time></trkpt><trkpt lat="44.05683" lon="10.2051233"><ele>790.0</ele><time>2026-04-06T15:27:15.658Z</time></trkpt><trkpt lat="44.0568533" lon="10.2049067"><ele>785.3333333333333</ele><time>2026-04-06T15:27:16.658Z</time></trkpt><trkpt lat="44.0568767" lon="10.20468"><ele>780.6666666666667</ele><time>2026-04-06T15:27:17.658Z</time></trkpt><trkpt lat="44.0568983" lon="10.2044417"><ele>776.0</ele><time>2026-04-06T15:27:18.658Z</time></trkpt><trkpt lat="44.056915" lon="10.2042"><ele>774.3333333333334</ele><time>2026-04-06T15:27:19.658Z</time></trkpt><trkpt lat="44.056925" lon="10.2039617"><ele>772.6666666666667</ele><time>2026-04-06T15:27:20.658Z</time></trkpt><trkpt lat="44.05694" lon="10.2037267"><ele>771.0</ele><time>2026-04-06T15:27:21.658Z</time></trkpt><trkpt lat="44.056955" lon="10.2034983"><ele>771.0</ele><time>2026-04-06T15:27:22.658Z</time></trkpt><trkpt lat="44.0569667" lon="10.2032733"><ele>771.0</ele><time>2026-04-06T15:27:23.658Z</time></trkpt><trkpt lat="44.0569717" lon="10.2030533"><ele>771.0</ele><time>2026-04-06T15:27:24.658Z</time></trkpt><trkpt lat="44.05697" lon="10.202835"><ele>769.5</ele><time>2026-04-06T15:27:25.659Z</time></trkpt><trkpt lat="44.05697" lon="10.2026233"><ele>768.0</ele><time>2026-04-06T15:27:26.659Z</time></trkpt><trkpt lat="44.05697" lon="10.2024167"><ele>766.5</ele><time>2026-04-06T15:27:27.658Z</time></trkpt><trkpt lat="44.0569783" lon="10.2022167"><ele>765.0</ele><time>2026-04-06T15:27:28.658Z</time></trkpt><trkpt lat="44.0569883" lon="10.2020233"><ele>764.25</ele><time>2026-04-06T15:27:29.658Z</time></trkpt><trkpt lat="44.0569967" lon="10.2018367"><ele>763.5</ele><time>2026-04-06T15:27:30.659Z</time></trkpt><trkpt lat="44.0570117" lon="10.2016533"><ele>762.75</ele><time>2026-04-06T15:27:31.659Z</time></trkpt><trkpt lat="44.0570217" lon="10.2014733"><ele>762.0</ele><time>2026-04-06T15:27:32.658Z</time></trkpt><trkpt lat="44.057025" lon="10.2012967"><ele>761.5</ele><time>2026-04-06T15:27:33.658Z</time></trkpt><trkpt lat="44.0570167" lon="10.2011267"><ele>761.0</ele><time>2026-04-06T15:27:34.658Z</time></trkpt><trkpt lat="44.0569983" lon="10.2009617"><ele>760.5</ele><time>2026-04-06T15:27:35.659Z</time></trkpt><trkpt lat="44.0569817" lon="10.2008017"><ele>760.0</ele><time>2026-04-06T15:27:36.659Z</time></trkpt><trkpt lat="44.0569683" lon="10.20064"><ele>760.0</ele><time>2026-04-06T15:27:37.658Z</time></trkpt><trkpt lat="44.0569617" lon="10.2004817"><ele>760.0</ele><time>2026-04-06T15:27:38.659Z</time></trkpt><trkpt lat="44.0569633" lon="10.2003317"><ele>760.0</ele><time>2026-04-06T15:27:39.658Z</time></trkpt><trkpt lat="44.0569683" lon="10.20019"><ele>760.0</ele><time>2026-04-06T15:27:40.658Z</time></trkpt><trkpt lat="44.0569717" lon="10.200055"><ele>760.0</ele><time>2026-04-06T15:27:41.658Z</time></trkpt><trkpt lat="44.0569783" lon="10.1999283"><ele>761.6666666666667</ele><time>2026-04-06T15:27:42.658Z</time></trkpt><trkpt lat="44.0569733" lon="10.19981"><ele>763.3333333333334</ele><time>2026-04-06T15:27:43.658Z</time></trkpt><trkpt lat="44.0569567" lon="10.1997083"><ele>765.0</ele><time>2026-04-06T15:27:44.658Z</time></trkpt><trkpt lat="44.0569217" lon="10.19963"><ele>766.6666666666667</ele><time>2026-04-06T15:27:45.659Z</time></trkpt><trkpt lat="44.05686" lon="10.1995867"><ele>768.3333333333334</ele><time>2026-04-06T15:27:46.658Z</time></trkpt><trkpt lat="44.05675" lon="10.1996067"><ele>770.0</ele><time>2026-04-06T15:27:48.658Z</time></trkpt><trkpt lat="44.0566917" lon="10.19982"><ele>766.6666666666667</ele><time>2026-04-06T15:27:50.658Z</time></trkpt><trkpt lat="44.056745" lon="10.2000917"><ele>763.3333333333334</ele><time>2026-04-06T15:27:51.658Z</time></trkpt><trkpt lat="44.0567733" lon="10.2002833"><ele>760.0</ele><time>2026-04-06T15:27:52.659Z</time></trkpt><trkpt lat="44.056795" lon="10.20045"><ele>760.0</ele><time>2026-04-06T15:27:53.658Z</time></trkpt><trkpt lat="44.0568117" lon="10.2006217"><ele>760.0</ele><time>2026-04-06T15:27:54.658Z</time></trkpt><trkpt lat="44.0568183" lon="10.2007983"><ele>760.0</ele><time>2026-04-06T15:27:55.658Z</time></trkpt><trkpt lat="44.0568183" lon="10.200975"><ele>760.0</ele><time>2026-04-06T15:27:56.659Z</time></trkpt><trkpt lat="44.0568117" lon="10.2011583"><ele>759.75</ele><time>2026-04-06T15:27:57.659Z</time></trkpt><trkpt lat="44.0567883" lon="10.2013517"><ele>759.5</ele><time>2026-04-06T15:27:58.659Z</time></trkpt><trkpt lat="44.0567583" lon="10.2015517"><ele>759.25</ele><time>2026-04-06T15:27:59.659Z</time></trkpt><trkpt lat="44.0567183" lon="10.2017617"><ele>759.0</ele><time>2026-04-06T15:28:00.658Z</time></trkpt><trkpt lat="44.0566783" lon="10.20197"><ele>760.0</ele><time>2026-04-06T15:28:01.658Z</time></trkpt><trkpt lat="44.0566317" lon="10.2021833"><ele>761.0</ele><time>2026-04-06T15:28:02.659Z</time></trkpt><trkpt lat="44.05659" lon="10.202395"><ele>762.0</ele><time>2026-04-06T15:28:03.658Z</time></trkpt><trkpt lat="44.0565517" lon="10.2026083"><ele>748.0</ele><time>2026-04-06T15:28:04.659Z</time></trkpt><trkpt lat="44.0565167" lon="10.20282"><ele>734.0</ele><time>2026-04-06T15:28:05.658Z</time></trkpt><trkpt lat="44.056485" lon="10.2030283"><ele>720.0</ele><time>2026-04-06T15:28:06.659Z</time></trkpt><trkpt lat="44.0564583" lon="10.2032367"><ele>720.0</ele><time>2026-04-06T15:28:07.659Z</time></trkpt><trkpt lat="44.05643" lon="10.2034433"><ele>720.0</ele><time>2026-04-06T15:28:08.658Z</time></trkpt><trkpt lat="44.0564033" lon="10.2036417"><ele>720.0</ele><time>2026-04-06T15:28:09.659Z</time></trkpt><trkpt lat="44.056375" lon="10.2038383"><ele>720.0</ele><time>2026-04-06T15:28:10.658Z</time></trkpt><trkpt lat="44.0563483" lon="10.2040267"><ele>723.75</ele><time>2026-04-06T15:28:11.658Z</time></trkpt><trkpt lat="44.056315" lon="10.2042167"><ele>727.5</ele><time>2026-04-06T15:28:12.658Z</time></trkpt><trkpt lat="44.0562883" lon="10.2044017"><ele>731.25</ele><time>2026-04-06T15:28:13.658Z</time></trkpt><trkpt lat="44.0562617" lon="10.2045767"><ele>735.0</ele><time>2026-04-06T15:28:14.658Z</time></trkpt><trkpt lat="44.0562233" lon="10.2047383"><ele>739.0</ele><time>2026-04-06T15:28:15.658Z</time></trkpt><trkpt lat="44.056165" lon="10.2048817"><ele>743.0</ele><time>2026-04-06T15:28:16.659Z</time></trkpt><trkpt lat="44.0561" lon="10.205015"><ele>747.0</ele><time>2026-04-06T15:28:17.658Z</time></trkpt><trkpt lat="44.0560317" lon="10.20514"><ele>751.0</ele><time>2026-04-06T15:28:18.658Z</time></trkpt><trkpt lat="44.05597" lon="10.2052467"><ele>755.0</ele><time>2026-04-06T15:28:19.659Z</time></trkpt><trkpt lat="44.05591" lon="10.2053117"><ele>755.0</ele><time>2026-04-06T15:28:20.658Z</time></trkpt><trkpt lat="44.055805" lon="10.2052983"><ele>755.0</ele><time>2026-04-06T15:28:22.658Z</time></trkpt><trkpt lat="44.05576" lon="10.205235"><ele>755.0</ele><time>2026-04-06T15:28:23.658Z</time></trkpt><trkpt lat="44.0557633" lon="10.205115"><ele>755.0</ele><time>2026-04-06T15:28:24.658Z</time></trkpt><trkpt lat="44.0557833" lon="10.20499"><ele>755.0</ele><time>2026-04-06T15:28:25.658Z</time></trkpt><trkpt lat="44.0558133" lon="10.2048633"><ele>755.0</ele><time>2026-04-06T15:28:26.659Z</time></trkpt><trkpt lat="44.05587" lon="10.2047217"><ele>750.0</ele><time>2026-04-06T15:28:27.659Z</time></trkpt><trkpt lat="44.055945" lon="10.20458"><ele>745.0</ele><time>2026-04-06T15:28:28.658Z</time></trkpt><trkpt lat="44.0560133" lon="10.2044283"><ele>740.0</ele><time>2026-04-06T15:28:29.658Z</time></trkpt><trkpt lat="44.05607" lon="10.2042767"><ele>735.0</ele><time>2026-04-06T15:28:30.659Z</time></trkpt><trkpt lat="44.0561117" lon="10.20411"><ele>731.25</ele><time>2026-04-06T15:28:31.658Z</time></trkpt><trkpt lat="44.0561417" lon="10.2039333"><ele>727.5</ele><time>2026-04-06T15:28:32.658Z</time></trkpt><trkpt lat="44.05616" lon="10.2037533"><ele>723.75</ele><time>2026-04-06T15:28:33.658Z</time></trkpt><trkpt lat="44.0561733" lon="10.2035717"><ele>720.0</ele><time>2026-04-06T15:28:34.658Z</time></trkpt><trkpt lat="44.0561917" lon="10.2033883"><ele>720.0</ele><time>2026-04-06T15:28:35.659Z</time></trkpt><trkpt lat="44.056205" lon="10.2032"><ele>720.0</ele><time>2026-04-06T15:28:36.658Z</time></trkpt><trkpt lat="44.056215" lon="10.2030133"><ele>720.0</ele><time>2026-04-06T15:28:37.658Z</time></trkpt><trkpt lat="44.0562267" lon="10.2028267"><ele>720.0</ele><time>2026-04-06T15:28:38.658Z</time></trkpt><trkpt lat="44.0562333" lon="10.2026383"><ele>718.0</ele><time>2026-04-06T15:28:39.658Z</time></trkpt><trkpt lat="44.0562383" lon="10.20245"><ele>716.0</ele><time>2026-04-06T15:28:40.658Z</time></trkpt><trkpt lat="44.056245" lon="10.2022583"><ele>714.0</ele><time>2026-04-06T15:28:41.658Z</time></trkpt><trkpt lat="44.0562517" lon="10.202065"><ele>712.0</ele><time>2026-04-06T15:28:42.659Z</time></trkpt><trkpt lat="44.0562617" lon="10.2018733"><ele>710.0</ele><time>2026-04-06T15:28:43.658Z</time></trkpt><trkpt lat="44.05627" lon="10.2016817"><ele>708.0</ele><time>2026-04-06T15:28:44.658Z</time></trkpt><trkpt lat="44.0562717" lon="10.2014933"><ele>706.0</ele><time>2026-04-06T15:28:45.658Z</time></trkpt><trkpt lat="44.0562683" lon="10.201305"><ele>704.0</ele><time>2026-04-06T15:28:46.658Z</time></trkpt><trkpt lat="44.05626" lon="10.2011167"><ele>703.0</ele><time>2026-04-06T15:28:47.658Z</time></trkpt><trkpt lat="44.0562483" lon="10.2009283"><ele>702.0</ele><time>2026-04-06T15:28:48.659Z</time></trkpt><trkpt lat="44.0562333" lon="10.2007417"><ele>701.0</ele><time>2026-04-06T15:28:49.658Z</time></trkpt><trkpt lat="44.05622" lon="10.2005583"><ele>700.0</ele><time>2026-04-06T15:28:50.658Z</time></trkpt><trkpt lat="44.0562083" lon="10.2003717"><ele>700.0</ele><time>2026-04-06T15:28:51.659Z</time></trkpt><trkpt lat="44.0561967" lon="10.2001867"><ele>700.0</ele><time>2026-04-06T15:28:52.658Z</time></trkpt><trkpt lat="44.05618" lon="10.200005"><ele>700.0</ele><time>2026-04-06T15:28:53.658Z</time></trkpt><trkpt lat="44.0561667" lon="10.199825"><ele>700.0</ele><time>2026-04-06T15:28:54.658Z</time></trkpt><trkpt lat="44.05614" lon="10.19964"><ele>698.0</ele><time>2026-04-06T15:28:55.658Z</time></trkpt><trkpt lat="44.05612" lon="10.1994583"><ele>696.0</ele><time>2026-04-06T15:28:56.658Z</time></trkpt><trkpt lat="44.05611" lon="10.1992783"><ele>694.0</ele><time>2026-04-06T15:28:57.658Z</time></trkpt><trkpt lat="44.056095" lon="10.1990933"><ele>692.0</ele><time>2026-04-06T15:28:58.658Z</time></trkpt><trkpt lat="44.0560933" lon="10.1989117"><ele>689.75</ele><time>2026-04-06T15:28:59.658Z</time></trkpt><trkpt lat="44.0561017" lon="10.19873"><ele>687.5</ele><time>2026-04-06T15:29:00.658Z</time></trkpt><trkpt lat="44.0561233" lon="10.1985533"><ele>685.25</ele><time>2026-04-06T15:29:01.658Z</time></trkpt><trkpt lat="44.0561567" lon="10.1983817"><ele>683.0</ele><time>2026-04-06T15:29:02.658Z</time></trkpt><trkpt lat="44.0561983" lon="10.1982217"><ele>680.5</ele><time>2026-04-06T15:29:03.658Z</time></trkpt><trkpt lat="44.0562333" lon="10.1980783"><ele>678.0</ele><time>2026-04-06T15:29:04.658Z</time></trkpt><trkpt lat="44.0562433" lon="10.1979567"><ele>675.5</ele><time>2026-04-06T15:29:05.658Z</time></trkpt><trkpt lat="44.0562367" lon="10.1978483"><ele>673.0</ele><time>2026-04-06T15:29:06.658Z</time></trkpt><trkpt lat="44.0562133" lon="10.1977617"><ele>670.5</ele><time>2026-04-06T15:29:07.659Z</time></trkpt><trkpt lat="44.0561133" lon="10.1977067"><ele>668.0</ele><time>2026-04-06T15:29:09.658Z</time></trkpt><trkpt lat="44.0560483" lon="10.197805"><ele>668.0</ele><time>2026-04-06T15:29:10.659Z</time></trkpt><trkpt lat="44.056005" lon="10.19794"><ele>668.0</ele><time>2026-04-06T15:29:11.658Z</time></trkpt><trkpt lat="44.055975" lon="10.1981483"><ele>668.0</ele><time>2026-04-06T15:29:12.658Z</time></trkpt><trkpt lat="44.0559683" lon="10.1983233"><ele>668.0</ele><time>2026-04-06T15:29:13.659Z</time></trkpt><trkpt lat="44.0559583" lon="10.1984867"><ele>671.75</ele><time>2026-04-06T15:29:14.659Z</time></trkpt><trkpt lat="44.0559483" lon="10.1986517"><ele>675.5</ele><time>2026-04-06T15:29:15.658Z</time></trkpt><trkpt lat="44.055935" lon="10.19883"><ele>679.25</ele><time>2026-04-06T15:29:16.658Z</time></trkpt><trkpt lat="44.0559217" lon="10.199005"><ele>683.0</ele><time>2026-04-06T15:29:17.659Z</time></trkpt><trkpt lat="44.0559067" lon="10.199195"><ele>685.25</ele><time>2026-04-06T15:29:18.658Z</time></trkpt><trkpt lat="44.0558883" lon="10.199375"><ele>687.5</ele><time>2026-04-06T15:29:19.658Z</time></trkpt><trkpt lat="44.05587" lon="10.1995567"><ele>689.75</ele><time>2026-04-06T15:29:20.658Z</time></trkpt><trkpt lat="44.055855" lon="10.199735"><ele>692.0</ele><time>2026-04-06T15:29:21.658Z</time></trkpt><trkpt lat="44.05584" lon="10.1999133"><ele>694.0</ele><time>2026-04-06T15:29:22.658Z</time></trkpt><trkpt lat="44.0558267" lon="10.20009"><ele>696.0</ele><time>2026-04-06T15:29:23.658Z</time></trkpt><trkpt lat="44.0558167" lon="10.2002667"><ele>698.0</ele><time>2026-04-06T15:29:24.658Z</time></trkpt><trkpt lat="44.0558017" lon="10.2004433"><ele>700.0</ele><time>2026-04-06T15:29:25.658Z</time></trkpt><trkpt lat="44.0557883" lon="10.20062"><ele>688.5</ele><time>2026-04-06T15:29:26.658Z</time></trkpt><trkpt lat="44.0557717" lon="10.2007933"><ele>677.0</ele><time>2026-04-06T15:29:27.658Z</time></trkpt><trkpt lat="44.055755" lon="10.2009717"><ele>665.5</ele><time>2026-04-06T15:29:28.658Z</time></trkpt><trkpt lat="44.0557383" lon="10.201145"><ele>654.0</ele><time>2026-04-06T15:29:29.658Z</time></trkpt><trkpt lat="44.05572" lon="10.2013233"><ele>654.0</ele><time>2026-04-06T15:29:30.658Z</time></trkpt><trkpt lat="44.0556967" lon="10.2014933"><ele>654.0</ele><time>2026-04-06T15:29:31.658Z</time></trkpt><trkpt lat="44.05567" lon="10.2016617"><ele>654.0</ele><time>2026-04-06T15:29:32.659Z</time></trkpt><trkpt lat="44.0556417" lon="10.2018317"><ele>654.0</ele><time>2026-04-06T15:29:33.658Z</time></trkpt><trkpt lat="44.0556083" lon="10.2020033"><ele>655.0</ele><time>2026-04-06T15:29:34.658Z</time></trkpt><trkpt lat="44.0555717" lon="10.2021733"><ele>656.0</ele><time>2026-04-06T15:29:35.658Z</time></trkpt><trkpt lat="44.05554" lon="10.2023417"><ele>657.0</ele><time>2026-04-06T15:29:36.658Z</time></trkpt><trkpt lat="44.0555067" lon="10.202505"><ele>658.0</ele><time>2026-04-06T15:29:37.658Z</time></trkpt><trkpt lat="44.0554683" lon="10.2026667"><ele>661.5</ele><time>2026-04-06T15:29:38.658Z</time></trkpt><trkpt lat="44.0554283" lon="10.202825"><ele>665.0</ele><time>2026-04-06T15:29:39.659Z</time></trkpt><trkpt lat="44.0553933" lon="10.2029767"><ele>668.5</ele><time>2026-04-06T15:29:40.658Z</time></trkpt><trkpt lat="44.0553583" lon="10.203125"><ele>672.0</ele><time>2026-04-06T15:29:41.658Z</time></trkpt><trkpt lat="44.0553317" lon="10.2032667"><ele>674.8</ele><time>2026-04-06T15:29:42.659Z</time></trkpt><trkpt lat="44.0553017" lon="10.2033883"><ele>677.6</ele><time>2026-04-06T15:29:43.659Z</time></trkpt><trkpt lat="44.0552767" lon="10.2034933"><ele>680.4</ele><time>2026-04-06T15:29:44.659Z</time></trkpt><trkpt lat="44.055165" lon="10.2035283"><ele>683.1999999999999</ele><time>2026-04-06T15:29:46.66Z</time></trkpt><trkpt lat="44.0550917" lon="10.2034083"><ele>686.0</ele><time>2026-04-06T15:29:48.659Z</time></trkpt><trkpt lat="44.0550783" lon="10.203305"><ele>686.0</ele><time>2026-04-06T15:29:49.659Z</time></trkpt><trkpt lat="44.05508" lon="10.203195"><ele>686.0</ele><time>2026-04-06T15:29:50.659Z</time></trkpt><trkpt lat="44.055105" lon="10.2030683"><ele>686.0</ele><time>2026-04-06T15:29:51.659Z</time></trkpt><trkpt lat="44.0551533" lon="10.20293"><ele>686.0</ele><time>2026-04-06T15:29:52.659Z</time></trkpt><trkpt lat="44.0551983" lon="10.2027967"><ele>686.0</ele><time>2026-04-06T15:29:53.659Z</time></trkpt><trkpt lat="44.05524" lon="10.2026533"><ele>682.5</ele><time>2026-04-06T15:29:54.659Z</time></trkpt><trkpt lat="44.055275" lon="10.202505"><ele>679.0</ele><time>2026-04-06T15:29:55.659Z</time></trkpt><trkpt lat="44.0553017" lon="10.2023483"><ele>675.5</ele><time>2026-04-06T15:29:56.659Z</time></trkpt><trkpt lat="44.0553233" lon="10.2021833"><ele>672.0</ele><time>2026-04-06T15:29:57.659Z</time></trkpt><trkpt lat="44.0553367" lon="10.20201"><ele>668.5</ele><time>2026-04-06T15:29:58.659Z</time></trkpt><trkpt lat="44.0553483" lon="10.2018317"><ele>665.0</ele><time>2026-04-06T15:29:59.66Z</time></trkpt><trkpt lat="44.0553583" lon="10.2016533"><ele>661.5</ele><time>2026-04-06T15:30:00.659Z</time></trkpt><trkpt lat="44.0553617" lon="10.20147"><ele>658.0</ele><time>2026-04-06T15:30:01.659Z</time></trkpt><trkpt lat="44.0553667" lon="10.201285"><ele>657.0</ele><time>2026-04-06T15:30:02.659Z</time></trkpt><trkpt lat="44.05537" lon="10.2010983"><ele>656.0</ele><time>2026-04-06T15:30:03.66Z</time></trkpt><trkpt lat="44.0553767" lon="10.2009117"><ele>655.0</ele><time>2026-04-06T15:30:04.659Z</time></trkpt><trkpt lat="44.05538" lon="10.2007267"><ele>654.0</ele><time>2026-04-06T15:30:05.659Z</time></trkpt><trkpt lat="44.0553817" lon="10.2005467"><ele>651.25</ele><time>2026-04-06T15:30:06.659Z</time></trkpt><trkpt lat="44.0553733" lon="10.200365"><ele>648.5</ele><time>2026-04-06T15:30:07.659Z</time></trkpt><trkpt lat="44.0553683" lon="10.20018"><ele>645.75</ele><time>2026-04-06T15:30:08.659Z</time></trkpt><trkpt lat="44.0553633" lon="10.199995"><ele>643.0</ele><time>2026-04-06T15:30:09.66Z</time></trkpt><trkpt lat="44.05536" lon="10.19981"><ele>641.5</ele><time>2026-04-06T15:30:10.659Z</time></trkpt><trkpt lat="44.0553683" lon="10.199625"><ele>640.0</ele><time>2026-04-06T15:30:11.659Z</time></trkpt><trkpt lat="44.055375" lon="10.1994433"><ele>638.5</ele><time>2026-04-06T15:30:12.66Z</time></trkpt><trkpt lat="44.0553833" lon="10.1992583"><ele>637.0</ele><time>2026-04-06T15:30:13.659Z</time></trkpt><trkpt lat="44.0553867" lon="10.199075"><ele>633.75</ele><time>2026-04-06T15:30:14.659Z</time></trkpt><trkpt lat="44.0553967" lon="10.1988917"><ele>630.5</ele><time>2026-04-06T15:30:15.659Z</time></trkpt><trkpt lat="44.0554067" lon="10.1987083"><ele>627.25</ele><time>2026-04-06T15:30:16.66Z</time></trkpt><trkpt lat="44.0554217" lon="10.198525"><ele>624.0</ele><time>2026-04-06T15:30:17.66Z</time></trkpt><trkpt lat="44.0554367" lon="10.198345"><ele>619.5</ele><time>2026-04-06T15:30:18.66Z</time></trkpt><trkpt lat="44.055455" lon="10.1981633"><ele>615.0</ele><time>2026-04-06T15:30:19.659Z</time></trkpt><trkpt lat="44.0554733" lon="10.1979733"><ele>610.5</ele><time>2026-04-06T15:30:20.659Z</time></trkpt><trkpt lat="44.0555017" lon="10.1977967"><ele>606.0</ele><time>2026-04-06T15:30:21.659Z</time></trkpt><trkpt lat="44.0555483" lon="10.1976317"><ele>606.0</ele><time>2026-04-06T15:30:22.659Z</time></trkpt><trkpt lat="44.0556117" lon="10.1974817"><ele>606.0</ele><time>2026-04-06T15:30:23.66Z</time></trkpt><trkpt lat="44.0556883" lon="10.19734"><ele>606.0</ele><time>2026-04-06T15:30:24.66Z</time></trkpt><trkpt lat="44.0557733" lon="10.1972033"><ele>606.0</ele><time>2026-04-06T15:30:25.659Z</time></trkpt><trkpt lat="44.055865" lon="10.1970733"><ele>615.0</ele><time>2026-04-06T15:30:26.659Z</time></trkpt><trkpt lat="44.0559567" lon="10.1969483"><ele>624.0</ele><time>2026-04-06T15:30:27.659Z</time></trkpt><trkpt lat="44.0560467" lon="10.1968333"><ele>633.0</ele><time>2026-04-06T15:30:28.659Z</time></trkpt><trkpt lat="44.0561417" lon="10.1967183"><ele>642.0</ele><time>2026-04-06T15:30:29.659Z</time></trkpt><trkpt lat="44.056235" lon="10.1965883"><ele>636.0</ele><time>2026-04-06T15:30:30.659Z</time></trkpt><trkpt lat="44.0563217" lon="10.1964617"><ele>630.0</ele><time>2026-04-06T15:30:31.659Z</time></trkpt><trkpt lat="44.056435" lon="10.196325"><ele>624.0</ele><time>2026-04-06T15:30:32.659Z</time></trkpt><trkpt lat="44.0565217" lon="10.1961983"><ele>618.0</ele><time>2026-04-06T15:30:33.659Z</time></trkpt><trkpt lat="44.05656" lon="10.19604"><ele>618.0</ele><time>2026-04-06T15:30:34.659Z</time></trkpt><trkpt lat="44.056585" lon="10.1958833"><ele>618.0</ele><time>2026-04-06T15:30:35.659Z</time></trkpt><trkpt lat="44.0565167" lon="10.19575"><ele>618.0</ele><time>2026-04-06T15:30:36.659Z</time></trkpt><trkpt lat="44.0564683" lon="10.1955833"><ele>618.0</ele><time>2026-04-06T15:30:37.659Z</time></trkpt><trkpt lat="44.056425" lon="10.19541"><ele>616.0</ele><time>2026-04-06T15:30:38.659Z</time></trkpt><trkpt lat="44.05638" lon="10.19521"><ele>614.0</ele><time>2026-04-06T15:30:39.659Z</time></trkpt><trkpt lat="44.0563283" lon="10.195015"><ele>612.0</ele><time>2026-04-06T15:30:40.659Z</time></trkpt><trkpt lat="44.0562667" lon="10.1947933"><ele>609.75</ele><time>2026-04-06T15:30:41.659Z</time></trkpt><trkpt lat="44.05627" lon="10.1946033"><ele>607.5</ele><time>2026-04-06T15:30:42.66Z</time></trkpt><trkpt lat="44.056285" lon="10.1944167"><ele>605.25</ele><time>2026-04-06T15:30:43.659Z</time></trkpt><trkpt lat="44.0563233" lon="10.19424"><ele>603.0</ele><time>2026-04-06T15:30:44.659Z</time></trkpt><trkpt lat="44.0563783" lon="10.1940717"><ele>606.5</ele><time>2026-04-06T15:30:45.659Z</time></trkpt><trkpt lat="44.0564417" lon="10.1939033"><ele>610.0</ele><time>2026-04-06T15:30:46.659Z</time></trkpt><trkpt lat="44.0565017" lon="10.193735"><ele>613.5</ele><time>2026-04-06T15:30:47.66Z</time></trkpt><trkpt lat="44.0565583" lon="10.19357"><ele>617.0</ele><time>2026-04-06T15:30:48.659Z</time></trkpt><trkpt lat="44.0566317" lon="10.1934183"><ele>617.0</ele><time>2026-04-06T15:30:49.659Z</time></trkpt><trkpt lat="44.0567283" lon="10.1933"><ele>617.0</ele><time>2026-04-06T15:30:50.659Z</time></trkpt><trkpt lat="44.05684" lon="10.1932133"><ele>617.0</ele><time>2026-04-06T15:30:51.659Z</time></trkpt><trkpt lat="44.0569567" lon="10.1931583"><ele>617.0</ele><time>2026-04-06T15:30:52.66Z</time></trkpt><trkpt lat="44.0570717" lon="10.1931183"><ele>614.25</ele><time>2026-04-06T15:30:53.659Z</time></trkpt><trkpt lat="44.057185" lon="10.1930683"><ele>611.5</ele><time>2026-04-06T15:30:54.659Z</time></trkpt><trkpt lat="44.0573017" lon="10.1930033"><ele>608.75</ele><time>2026-04-06T15:30:55.659Z</time></trkpt><trkpt lat="44.0574083" lon="10.19292"><ele>606.0</ele><time>2026-04-06T15:30:56.659Z</time></trkpt><trkpt lat="44.0574983" lon="10.1928133"><ele>606.0</ele><time>2026-04-06T15:30:57.66Z</time></trkpt><trkpt lat="44.057575" lon="10.1926883"><ele>606.0</ele><time>2026-04-06T15:30:58.659Z</time></trkpt><trkpt lat="44.05764" lon="10.1925517"><ele>606.0</ele><time>2026-04-06T15:30:59.659Z</time></trkpt><trkpt lat="44.0576883" lon="10.1924033"><ele>606.0</ele><time>2026-04-06T15:31:00.66Z</time></trkpt><trkpt lat="44.0577367" lon="10.1922617"><ele>601.0</ele><time>2026-04-06T15:31:01.659Z</time></trkpt><trkpt lat="44.0577717" lon="10.1920917"><ele>596.0</ele><time>2026-04-06T15:31:02.659Z</time></trkpt><trkpt lat="44.0578083" lon="10.1919217"><ele>591.0</ele><time>2026-04-06T15:31:03.659Z</time></trkpt><trkpt lat="44.0578483" lon="10.1917517"><ele>586.0</ele><time>2026-04-06T15:31:04.659Z</time></trkpt><trkpt lat="44.057885" lon="10.19158"><ele>586.25</ele><time>2026-04-06T15:31:05.659Z</time></trkpt><trkpt lat="44.0579067" lon="10.1914"><ele>586.5</ele><time>2026-04-06T15:31:06.659Z</time></trkpt><trkpt lat="44.05792" lon="10.1912217"><ele>586.75</ele><time>2026-04-06T15:31:07.659Z</time></trkpt><trkpt lat="44.0579167" lon="10.1910367"><ele>587.0</ele><time>2026-04-06T15:31:08.659Z</time></trkpt><trkpt lat="44.057905" lon="10.1908483"><ele>587.5</ele><time>2026-04-06T15:31:09.659Z</time></trkpt><trkpt lat="44.057875" lon="10.1906667"><ele>588.0</ele><time>2026-04-06T15:31:10.659Z</time></trkpt><trkpt lat="44.0578117" lon="10.190505"><ele>588.5</ele><time>2026-04-06T15:31:11.659Z</time></trkpt><trkpt lat="44.0577267" lon="10.190375"><ele>589.0</ele><time>2026-04-06T15:31:12.659Z</time></trkpt><trkpt lat="44.05764" lon="10.1902467"><ele>589.0</ele><time>2026-04-06T15:31:13.659Z</time></trkpt><trkpt lat="44.0575683" lon="10.1901133"><ele>589.0</ele><time>2026-04-06T15:31:14.659Z</time></trkpt><trkpt lat="44.0575167" lon="10.18997"><ele>589.0</ele><time>2026-04-06T15:31:15.66Z</time></trkpt><trkpt lat="44.05749" lon="10.18982"><ele>589.0</ele><time>2026-04-06T15:31:16.659Z</time></trkpt><trkpt lat="44.057485" lon="10.1896683"><ele>587.5</ele><time>2026-04-06T15:31:17.659Z</time></trkpt><trkpt lat="44.0574933" lon="10.1895217"><ele>586.0</ele><time>2026-04-06T15:31:18.66Z</time></trkpt><trkpt lat="44.0575283" lon="10.189375"><ele>584.5</ele><time>2026-04-06T15:31:19.659Z</time></trkpt><trkpt lat="44.0575883" lon="10.189235"><ele>583.0</ele><time>2026-04-06T15:31:20.659Z</time></trkpt><trkpt lat="44.0576667" lon="10.1891"><ele>577.5</ele><time>2026-04-06T15:31:21.66Z</time></trkpt><trkpt lat="44.057745" lon="10.1889717"><ele>572.0</ele><time>2026-04-06T15:31:22.659Z</time></trkpt><trkpt lat="44.05782" lon="10.188835"><ele>566.5</ele><time>2026-04-06T15:31:23.659Z</time></trkpt><trkpt lat="44.0578733" lon="10.188685"><ele>561.0</ele><time>2026-04-06T15:31:24.659Z</time></trkpt><trkpt lat="44.0579133" lon="10.1885283"><ele>561.0</ele><time>2026-04-06T15:31:25.659Z</time></trkpt><trkpt lat="44.0579433" lon="10.1883633"><ele>561.0</ele><time>2026-04-06T15:31:26.659Z</time></trkpt><trkpt lat="44.057975" lon="10.1881967"><ele>561.0</ele><time>2026-04-06T15:31:27.659Z</time></trkpt><trkpt lat="44.0580083" lon="10.1880233"><ele>561.0</ele><time>2026-04-06T15:31:28.659Z</time></trkpt><trkpt lat="44.05804" lon="10.187855"><ele>555.5</ele><time>2026-04-06T15:31:29.659Z</time></trkpt><trkpt lat="44.0580767" lon="10.1876883"><ele>550.0</ele><time>2026-04-06T15:31:30.659Z</time></trkpt><trkpt lat="44.0581083" lon="10.1875217"><ele>544.5</ele><time>2026-04-06T15:31:31.659Z</time></trkpt><trkpt lat="44.058145" lon="10.187355"><ele>539.0</ele><time>2026-04-06T15:31:32.659Z</time></trkpt><trkpt lat="44.05818" lon="10.1871883"><ele>534.5</ele><time>2026-04-06T15:31:33.659Z</time></trkpt><trkpt lat="44.0582133" lon="10.1870167"><ele>530.0</ele><time>2026-04-06T15:31:34.659Z</time></trkpt><trkpt lat="44.05825" lon="10.1868467"><ele>525.5</ele><time>2026-04-06T15:31:35.659Z</time></trkpt><trkpt lat="44.0582917" lon="10.1866833"><ele>521.0</ele><time>2026-04-06T15:31:36.659Z</time></trkpt><trkpt lat="44.05835" lon="10.18653"><ele>522.25</ele><time>2026-04-06T15:31:37.659Z</time></trkpt><trkpt lat="44.0584317" lon="10.18641"><ele>523.5</ele><time>2026-04-06T15:31:38.66Z</time></trkpt><trkpt lat="44.0585333" lon="10.1863233"><ele>524.75</ele><time>2026-04-06T15:31:39.659Z</time></trkpt><trkpt lat="44.0586467" lon="10.18626"><ele>526.0</ele><time>2026-04-06T15:31:40.66Z</time></trkpt><trkpt lat="44.0587583" lon="10.1861967"><ele>526.0</ele><time>2026-04-06T15:31:41.659Z</time></trkpt><trkpt lat="44.0588733" lon="10.18613"><ele>526.0</ele><time>2026-04-06T15:31:42.659Z</time></trkpt><trkpt lat="44.0589933" lon="10.186065"><ele>526.0</ele><time>2026-04-06T15:31:43.659Z</time></trkpt><trkpt lat="44.0591117" lon="10.1859933"><ele>526.0</ele><time>2026-04-06T15:31:44.659Z</time></trkpt><trkpt lat="44.0592333" lon="10.1859283"><ele>533.75</ele><time>2026-04-06T15:31:45.659Z</time></trkpt><trkpt lat="44.0593567" lon="10.1858717"><ele>541.5</ele><time>2026-04-06T15:31:46.659Z</time></trkpt><trkpt lat="44.0594783" lon="10.1858083"><ele>549.25</ele><time>2026-04-06T15:31:47.659Z</time></trkpt><trkpt lat="44.0595967" lon="10.1857467"><ele>557.0</ele><time>2026-04-06T15:31:48.659Z</time></trkpt><trkpt lat="44.0597233" lon="10.1857083"><ele>557.0</ele><time>2026-04-06T15:31:49.659Z</time></trkpt><trkpt lat="44.05985" lon="10.185685"><ele>557.0</ele><time>2026-04-06T15:31:50.659Z</time></trkpt><trkpt lat="44.0599667" lon="10.1856733"><ele>557.0</ele><time>2026-04-06T15:31:51.659Z</time></trkpt><trkpt lat="44.06007" lon="10.1856617"><ele>557.0</ele><time>2026-04-06T15:31:52.659Z</time></trkpt><trkpt lat="44.0601467" lon="10.1856167"><ele>557.0</ele><time>2026-04-06T15:31:53.659Z</time></trkpt><trkpt lat="44.0602083" lon="10.1855617"><ele>552.4</ele><time>2026-04-06T15:31:54.66Z</time></trkpt><trkpt lat="44.0602133" lon="10.1854633"><ele>547.8000000000001</ele><time>2026-04-06T15:31:55.659Z</time></trkpt><trkpt lat="44.06014" lon="10.1853417"><ele>543.2</ele><time>2026-04-06T15:31:57.659Z</time></trkpt><trkpt lat="44.0600567" lon="10.1853517"><ele>538.6</ele><time>2026-04-06T15:31:58.659Z</time></trkpt><trkpt lat="44.059965" lon="10.1853883"><ele>534.0</ele><time>2026-04-06T15:31:59.659Z</time></trkpt><trkpt lat="44.05987" lon="10.1854417"><ele>527.0</ele><time>2026-04-06T15:32:00.659Z</time></trkpt><trkpt lat="44.05977" lon="10.1855"><ele>520.0</ele><time>2026-04-06T15:32:01.659Z</time></trkpt><trkpt lat="44.0596683" lon="10.1855567"><ele>513.0</ele><time>2026-04-06T15:32:02.659Z</time></trkpt><trkpt lat="44.0595583" lon="10.1856083"><ele>506.0</ele><time>2026-04-06T15:32:03.659Z</time></trkpt><trkpt lat="44.0594417" lon="10.185655"><ele>511.0</ele><time>2026-04-06T15:32:04.659Z</time></trkpt><trkpt lat="44.0593183" lon="10.185695"><ele>516.0</ele><time>2026-04-06T15:32:05.659Z</time></trkpt><trkpt lat="44.0591933" lon="10.1857383"><ele>521.0</ele><time>2026-04-06T15:32:06.659Z</time></trkpt><trkpt lat="44.0590733" lon="10.185795"><ele>526.0</ele><time>2026-04-06T15:32:07.659Z</time></trkpt><trkpt lat="44.0589583" lon="10.185865"><ele>526.0</ele><time>2026-04-06T15:32:08.659Z</time></trkpt><trkpt lat="44.0588383" lon="10.1859217"><ele>526.0</ele><time>2026-04-06T15:32:09.66Z</time></trkpt><trkpt lat="44.0587117" lon="10.1859667"><ele>526.0</ele><time>2026-04-06T15:32:10.659Z</time></trkpt><trkpt lat="44.05858" lon="10.1859917"><ele>526.0</ele><time>2026-04-06T15:32:11.659Z</time></trkpt><trkpt lat="44.0584517" lon="10.1860183"><ele>526.0</ele><time>2026-04-06T15:32:12.659Z</time></trkpt><trkpt lat="44.058325" lon="10.1860683"><ele>526.0</ele><time>2026-04-06T15:32:13.659Z</time></trkpt><trkpt lat="44.0581983" lon="10.186125"><ele>526.0</ele><time>2026-04-06T15:32:14.659Z</time></trkpt><trkpt lat="44.05808" lon="10.18621"><ele>526.0</ele><time>2026-04-06T15:32:15.659Z</time></trkpt><trkpt lat="44.05798" lon="10.18633"><ele>524.75</ele><time>2026-04-06T15:32:16.659Z</time></trkpt><trkpt lat="44.05789" lon="10.1864667"><ele>523.5</ele><time>2026-04-06T15:32:17.659Z</time></trkpt><trkpt lat="44.0578083" lon="10.1866183"><ele>522.25</ele><time>2026-04-06T15:32:18.659Z</time></trkpt><trkpt lat="44.057735" lon="10.1867767"><ele>521.0</ele><time>2026-04-06T15:32:19.659Z</time></trkpt><trkpt lat="44.057665" lon="10.18694"><ele>521.0</ele><time>2026-04-06T15:32:20.659Z</time></trkpt><trkpt lat="44.0575983" lon="10.1871033"><ele>521.0</ele><time>2026-04-06T15:32:21.659Z</time></trkpt><trkpt lat="44.057535" lon="10.1872717"><ele>521.0</ele><time>2026-04-06T15:32:22.659Z</time></trkpt><trkpt lat="44.0574733" lon="10.1874417"><ele>521.0</ele><time>2026-04-06T15:32:23.659Z</time></trkpt><trkpt lat="44.0574117" lon="10.1876083"><ele>519.5</ele><time>2026-04-06T15:32:24.659Z</time></trkpt><trkpt lat="44.0573517" lon="10.1877767"><ele>518.0</ele><time>2026-04-06T15:32:25.659Z</time></trkpt><trkpt lat="44.0572933" lon="10.1879417"><ele>516.5</ele><time>2026-04-06T15:32:26.659Z</time></trkpt><trkpt lat="44.0572283" lon="10.1881067"><ele>515.0</ele><time>2026-04-06T15:32:27.659Z</time></trkpt><trkpt lat="44.057145" lon="10.188255"><ele>515.0</ele><time>2026-04-06T15:32:28.659Z</time></trkpt><trkpt lat="44.0570433" lon="10.1883767"><ele>515.0</ele><time>2026-04-06T15:32:29.659Z</time></trkpt><trkpt lat="44.0569333" lon="10.1884867"><ele>515.0</ele><time>2026-04-06T15:32:30.66Z</time></trkpt><trkpt lat="44.0568233" lon="10.18859"><ele>515.0</ele><time>2026-04-06T15:32:31.659Z</time></trkpt><trkpt lat="44.05671" lon="10.1886833"><ele>505.0</ele><time>2026-04-06T15:32:32.659Z</time></trkpt><trkpt lat="44.0566067" lon="10.1887783"><ele>495.0</ele><time>2026-04-06T15:32:33.659Z</time></trkpt><trkpt lat="44.0565183" lon="10.1888883"><ele>485.0</ele><time>2026-04-06T15:32:34.659Z</time></trkpt><trkpt lat="44.0564467" lon="10.1890167"><ele>475.0</ele><time>2026-04-06T15:32:35.659Z</time></trkpt><trkpt lat="44.0563983" lon="10.1891533"><ele>475.0</ele><time>2026-04-06T15:32:36.659Z</time></trkpt><trkpt lat="44.0563733" lon="10.1892983"><ele>475.0</ele><time>2026-04-06T15:32:37.659Z</time></trkpt><trkpt lat="44.05637" lon="10.18944"><ele>475.0</ele><time>2026-04-06T15:32:38.659Z</time></trkpt><trkpt lat="44.0563883" lon="10.1895783"><ele>475.0</ele><time>2026-04-06T15:32:39.659Z</time></trkpt><trkpt lat="44.0564183" lon="10.1897217"><ele>475.0</ele><time>2026-04-06T15:32:40.659Z</time></trkpt><trkpt lat="44.0564517" lon="10.189875"><ele>474.75</ele><time>2026-04-06T15:32:41.659Z</time></trkpt><trkpt lat="44.05649" lon="10.1900233"><ele>474.5</ele><time>2026-04-06T15:32:42.659Z</time></trkpt><trkpt lat="44.0565333" lon="10.1901667"><ele>474.25</ele><time>2026-04-06T15:32:43.659Z</time></trkpt><trkpt lat="44.0565817" lon="10.19031"><ele>474.0</ele><time>2026-04-06T15:32:44.659Z</time></trkpt><trkpt lat="44.05663" lon="10.1904533"><ele>485.4</ele><time>2026-04-06T15:32:45.659Z</time></trkpt><trkpt lat="44.0566833" lon="10.19059"><ele>496.79999999999995</ele><time>2026-04-06T15:32:46.659Z</time></trkpt><trkpt lat="44.0567383" lon="10.1907167"><ele>508.20000000000005</ele><time>2026-04-06T15:32:47.659Z</time></trkpt><trkpt lat="44.0567783" lon="10.1908417"><ele>519.6</ele><time>2026-04-06T15:32:48.659Z</time></trkpt><trkpt lat="44.056795" lon="10.19095"><ele>531.0</ele><time>2026-04-06T15:32:49.659Z</time></trkpt><trkpt lat="44.0567983" lon="10.19105"><ele>531.1666666666666</ele><time>2026-04-06T15:32:50.66Z</time></trkpt><trkpt lat="44.056795" lon="10.1911417"><ele>531.3333333333334</ele><time>2026-04-06T15:32:51.659Z</time></trkpt><trkpt lat="44.05671" lon="10.1911167"><ele>531.5</ele><time>2026-04-06T15:32:52.659Z</time></trkpt><trkpt lat="44.056625" lon="10.1910867"><ele>531.6666666666667</ele><time>2026-04-06T15:32:54.659Z</time></trkpt><trkpt lat="44.056595" lon="10.1909983"><ele>531.8333333333334</ele><time>2026-04-06T15:32:55.659Z</time></trkpt><trkpt lat="44.0565733" lon="10.1908867"><ele>532.0</ele><time>2026-04-06T15:32:56.659Z</time></trkpt><trkpt lat="44.056545" lon="10.1907417"><ele>517.5</ele><time>2026-04-06T15:32:57.659Z</time></trkpt><trkpt lat="44.056525" lon="10.1905683"><ele>503.0</ele><time>2026-04-06T15:32:58.66Z</time></trkpt><trkpt lat="44.05648" lon="10.1903933"><ele>488.5</ele><time>2026-04-06T15:32:59.659Z</time></trkpt><trkpt lat="44.056435" lon="10.1902283"><ele>474.0</ele><time>2026-04-06T15:33:00.659Z</time></trkpt><trkpt lat="44.0563867" lon="10.190075"><ele>474.0</ele><time>2026-04-06T15:33:01.659Z</time></trkpt><trkpt lat="44.05634" lon="10.189935"><ele>474.0</ele><time>2026-04-06T15:33:02.66Z</time></trkpt><trkpt lat="44.0562983" lon="10.1897983"><ele>474.0</ele><time>2026-04-06T15:33:03.659Z</time></trkpt><trkpt lat="44.05626" lon="10.1896733"><ele>474.0</ele><time>2026-04-06T15:33:04.66Z</time></trkpt><trkpt lat="44.0562283" lon="10.1895617"><ele>474.0</ele><time>2026-04-06T15:33:05.659Z</time></trkpt><trkpt lat="44.0562017" lon="10.1894517"><ele>474.1666666666667</ele><time>2026-04-06T15:33:06.659Z</time></trkpt><trkpt lat="44.0561867" lon="10.189335"><ele>474.33333333333337</ele><time>2026-04-06T15:33:07.659Z</time></trkpt><trkpt lat="44.0561817" lon="10.189215"><ele>474.5</ele><time>2026-04-06T15:33:08.659Z</time></trkpt><trkpt lat="44.056175" lon="10.1891033"><ele>474.6666666666667</ele><time>2026-04-06T15:33:09.659Z</time></trkpt><trkpt lat="44.0561933" lon="10.1889833"><ele>474.83333333333337</ele><time>2026-04-06T15:33:10.659Z</time></trkpt><trkpt lat="44.0562183" lon="10.1888733"><ele>475.0</ele><time>2026-04-06T15:33:11.659Z</time></trkpt><trkpt lat="44.05625" lon="10.1887617"><ele>474.1666666666667</ele><time>2026-04-06T15:33:12.659Z</time></trkpt><trkpt lat="44.0562817" lon="10.1886533"><ele>473.33333333333337</ele><time>2026-04-06T15:33:13.66Z</time></trkpt><trkpt lat="44.0563167" lon="10.1885517"><ele>472.5</ele><time>2026-04-06T15:33:14.659Z</time></trkpt><trkpt lat="44.05636" lon="10.1884633"><ele>471.66666666666663</ele><time>2026-04-06T15:33:15.659Z</time></trkpt><trkpt lat="44.05641" lon="10.188395"><ele>470.8333333333333</ele><time>2026-04-06T15:33:16.659Z</time></trkpt><trkpt lat="44.0564717" lon="10.188335"><ele>470.0</ele><time>2026-04-06T15:33:17.659Z</time></trkpt><trkpt lat="44.05654" lon="10.1882767"><ele>470.0</ele><time>2026-04-06T15:33:18.659Z</time></trkpt><trkpt lat="44.0566167" lon="10.1882167"><ele>470.0</ele><time>2026-04-06T15:33:19.659Z</time></trkpt><trkpt lat="44.056695" lon="10.18815"><ele>470.0</ele><time>2026-04-06T15:33:20.659Z</time></trkpt><trkpt lat="44.0567617" lon="10.1880683"><ele>470.0</ele><time>2026-04-06T15:33:21.659Z</time></trkpt><trkpt lat="44.0568167" lon="10.18797"><ele>470.0</ele><time>2026-04-06T15:33:22.659Z</time></trkpt><trkpt lat="44.0568467" lon="10.1878333"><ele>471.75</ele><time>2026-04-06T15:33:23.659Z</time></trkpt><trkpt lat="44.0568783" lon="10.1876817"><ele>473.5</ele><time>2026-04-06T15:33:24.659Z</time></trkpt><trkpt lat="44.0569167" lon="10.1875117"><ele>475.25</ele><time>2026-04-06T15:33:25.659Z</time></trkpt><trkpt lat="44.0569633" lon="10.1873283"><ele>477.0</ele><time>2026-04-06T15:33:26.659Z</time></trkpt><trkpt lat="44.0570117" lon="10.1871433"><ele>477.0</ele><time>2026-04-06T15:33:27.659Z</time></trkpt><trkpt lat="44.0570683" lon="10.1869567"><ele>477.0</ele><time>2026-04-06T15:33:28.659Z</time></trkpt><trkpt lat="44.05712" lon="10.186775"><ele>477.0</ele><time>2026-04-06T15:33:29.659Z</time></trkpt><trkpt lat="44.057165" lon="10.1866"><ele>477.0</ele><time>2026-04-06T15:33:30.659Z</time></trkpt><trkpt lat="44.0572033" lon="10.1864217"><ele>471.75</ele><time>2026-04-06T15:33:31.66Z</time></trkpt><trkpt lat="44.0572433" lon="10.1862383"><ele>466.5</ele><time>2026-04-06T15:33:32.659Z</time></trkpt><trkpt lat="44.0572833" lon="10.1860517"><ele>461.25</ele><time>2026-04-06T15:33:33.66Z</time></trkpt><trkpt lat="44.0573167" lon="10.1858867"><ele>456.0</ele><time>2026-04-06T15:33:34.659Z</time></trkpt><trkpt lat="44.0573567" lon="10.1857567"><ele>458.20000000000005</ele><time>2026-04-06T15:33:35.659Z</time></trkpt><trkpt lat="44.057405" lon="10.1856433"><ele>460.40000000000003</ele><time>2026-04-06T15:33:36.659Z</time></trkpt><trkpt lat="44.0574617" lon="10.1855417"><ele>462.6</ele><time>2026-04-06T15:33:37.66Z</time></trkpt><trkpt lat="44.0575383" lon="10.1854667"><ele>464.8</ele><time>2026-04-06T15:33:38.659Z</time></trkpt><trkpt lat="44.0576333" lon="10.1854017"><ele>467.0</ele><time>2026-04-06T15:33:39.659Z</time></trkpt><trkpt lat="44.05774" lon="10.1853483"><ele>467.0</ele><time>2026-04-06T15:33:40.66Z</time></trkpt><trkpt lat="44.0578517" lon="10.1852933"><ele>467.0</ele><time>2026-04-06T15:33:41.66Z</time></trkpt><trkpt lat="44.05797" lon="10.1852433"><ele>467.0</ele><time>2026-04-06T15:33:42.659Z</time></trkpt><trkpt lat="44.0580867" lon="10.1851833"><ele>467.0</ele><time>2026-04-06T15:33:43.66Z</time></trkpt><trkpt lat="44.0582033" lon="10.1851233"><ele>471.0</ele><time>2026-04-06T15:33:44.659Z</time></trkpt><trkpt lat="44.0583283" lon="10.185075"><ele>475.0</ele><time>2026-04-06T15:33:45.66Z</time></trkpt><trkpt lat="44.0584533" lon="10.1850267"><ele>479.0</ele><time>2026-04-06T15:33:46.659Z</time></trkpt><trkpt lat="44.0585767" lon="10.18497"><ele>483.0</ele><time>2026-04-06T15:33:47.659Z</time></trkpt><trkpt lat="44.0586933" lon="10.1849017"><ele>479.25</ele><time>2026-04-06T15:33:48.659Z</time></trkpt><trkpt lat="44.0588083" lon="10.1848217"><ele>475.5</ele><time>2026-04-06T15:33:49.66Z</time></trkpt><trkpt lat="44.0589183" lon="10.1847333"><ele>471.75</ele><time>2026-04-06T15:33:50.659Z</time></trkpt><trkpt lat="44.0590233" lon="10.1846217"><ele>468.0</ele><time>2026-04-06T15:33:51.659Z</time></trkpt><trkpt lat="44.0591267" lon="10.1845167"><ele>468.0</ele><time>2026-04-06T15:33:52.66Z</time></trkpt><trkpt lat="44.0592267" lon="10.18441"><ele>468.0</ele><time>2026-04-06T15:33:53.659Z</time></trkpt><trkpt lat="44.0593283" lon="10.1843017"><ele>468.0</ele><time>2026-04-06T15:33:54.659Z</time></trkpt><trkpt lat="44.0594267" lon="10.1841933"><ele>468.0</ele><time>2026-04-06T15:33:55.659Z</time></trkpt><trkpt lat="44.0595233" lon="10.18408"><ele>464.0</ele><time>2026-04-06T15:33:56.659Z</time></trkpt><trkpt lat="44.0596083" lon="10.1839517"><ele>460.0</ele><time>2026-04-06T15:33:57.66Z</time></trkpt><trkpt lat="44.059665" lon="10.1838083"><ele>456.0</ele><time>2026-04-06T15:33:58.66Z</time></trkpt><trkpt lat="44.0596867" lon="10.1836517"><ele>452.0</ele><time>2026-04-06T15:33:59.659Z</time></trkpt><trkpt lat="44.059675" lon="10.1834933"><ele>452.0</ele><time>2026-04-06T15:34:00.659Z</time></trkpt><trkpt lat="44.05963" lon="10.183345"><ele>452.00000000000006</ele><time>2026-04-06T15:34:01.66Z</time></trkpt><trkpt lat="44.059565" lon="10.1832017"><ele>452.00000000000006</ele><time>2026-04-06T15:34:02.66Z</time></trkpt><trkpt lat="44.0595167" lon="10.1830733"><ele>452.0</ele><time>2026-04-06T15:34:03.659Z</time></trkpt><trkpt lat="44.0594817" lon="10.18295"><ele>452.0</ele><time>2026-04-06T15:34:04.659Z</time></trkpt><trkpt lat="44.0594783" lon="10.1828417"><ele>450.40000000000003</ele><time>2026-04-06T15:34:05.659Z</time></trkpt><trkpt lat="44.0594833" lon="10.1827267"><ele>448.80000000000007</ele><time>2026-04-06T15:34:06.66Z</time></trkpt><trkpt lat="44.0595083" lon="10.1826133"><ele>447.2</ele><time>2026-04-06T15:34:07.659Z</time></trkpt><trkpt lat="44.0595667" lon="10.1824967"><ele>445.6</ele><time>2026-04-06T15:34:08.66Z</time></trkpt><trkpt lat="44.059665" lon="10.1823783"><ele>444.0</ele><time>2026-04-06T15:34:09.66Z</time></trkpt><trkpt lat="44.0597417" lon="10.1822483"><ele>447.0</ele><time>2026-04-06T15:34:10.659Z</time></trkpt><trkpt lat="44.05982" lon="10.182115"><ele>450.0</ele><time>2026-04-06T15:34:11.659Z</time></trkpt><trkpt lat="44.0599" lon="10.18198"><ele>453.0</ele><time>2026-04-06T15:34:12.659Z</time></trkpt><trkpt lat="44.0599783" lon="10.1818367"><ele>456.0</ele><time>2026-04-06T15:34:13.659Z</time></trkpt><trkpt lat="44.0600467" lon="10.181695"><ele>456.0</ele><time>2026-04-06T15:34:14.659Z</time></trkpt><trkpt lat="44.06011" lon="10.181545"><ele>456.0</ele><time>2026-04-06T15:34:15.659Z</time></trkpt><trkpt lat="44.06016" lon="10.1813883"><ele>456.0</ele><time>2026-04-06T15:34:16.659Z</time></trkpt><trkpt lat="44.060205" lon="10.1812283"><ele>456.0</ele><time>2026-04-06T15:34:17.659Z</time></trkpt><trkpt lat="44.0602283" lon="10.1810533"><ele>451.75</ele><time>2026-04-06T15:34:18.659Z</time></trkpt><trkpt lat="44.0602517" lon="10.18089"><ele>447.5</ele><time>2026-04-06T15:34:19.659Z</time></trkpt><trkpt lat="44.0602533" lon="10.18072"><ele>443.25</ele><time>2026-04-06T15:34:20.659Z</time></trkpt><trkpt lat="44.0602467" lon="10.1805517"><ele>439.0</ele><time>2026-04-06T15:34:21.659Z</time></trkpt><trkpt lat="44.0602333" lon="10.18039"><ele>436.4</ele><time>2026-04-06T15:34:22.66Z</time></trkpt><trkpt lat="44.060215" lon="10.18023"><ele>433.79999999999995</ele><time>2026-04-06T15:34:23.659Z</time></trkpt><trkpt lat="44.0601867" lon="10.1800733"><ele>431.20000000000005</ele><time>2026-04-06T15:34:24.659Z</time></trkpt><trkpt lat="44.06016" lon="10.1799283"><ele>428.6</ele><time>2026-04-06T15:34:25.659Z</time></trkpt><trkpt lat="44.0601467" lon="10.1798"><ele>426.0</ele><time>2026-04-06T15:34:26.659Z</time></trkpt><trkpt lat="44.060155" lon="10.1796883"><ele>423.6666666666667</ele><time>2026-04-06T15:34:27.66Z</time></trkpt><trkpt lat="44.0601733" lon="10.1795917"><ele>421.33333333333337</ele><time>2026-04-06T15:34:28.659Z</time></trkpt><trkpt lat="44.0602183" lon="10.17952"><ele>419.0</ele><time>2026-04-06T15:34:29.659Z</time></trkpt><trkpt lat="44.0602767" lon="10.1794767"><ele>416.6666666666667</ele><time>2026-04-06T15:34:30.659Z</time></trkpt><trkpt lat="44.0603583" lon="10.1794633"><ele>414.33333333333337</ele><time>2026-04-06T15:34:31.659Z</time></trkpt><trkpt lat="44.0604517" lon="10.1794633"><ele>412.0</ele><time>2026-04-06T15:34:32.659Z</time></trkpt><trkpt lat="44.060565" lon="10.1794533"><ele>412.0</ele><time>2026-04-06T15:34:33.659Z</time></trkpt><trkpt lat="44.0606783" lon="10.17942"><ele>412.0</ele><time>2026-04-06T15:34:34.659Z</time></trkpt><trkpt lat="44.06078" lon="10.1793633"><ele>412.0</ele><time>2026-04-06T15:34:35.659Z</time></trkpt><trkpt lat="44.06086" lon="10.179285"><ele>412.0</ele><time>2026-04-06T15:34:36.658Z</time></trkpt><trkpt lat="44.060915" lon="10.1791767"><ele>412.0</ele><time>2026-04-06T15:34:37.658Z</time></trkpt><trkpt lat="44.0609517" lon="10.1790567"><ele>415.6</ele><time>2026-04-06T15:34:38.658Z</time></trkpt><trkpt lat="44.06095" lon="10.17892"><ele>419.20000000000005</ele><time>2026-04-06T15:34:39.658Z</time></trkpt><trkpt lat="44.060935" lon="10.1787633"><ele>422.8</ele><time>2026-04-06T15:34:40.658Z</time></trkpt><trkpt lat="44.060925" lon="10.1786017"><ele>426.4</ele><time>2026-04-06T15:34:41.658Z</time></trkpt><trkpt lat="44.0609183" lon="10.1784367"><ele>430.0</ele><time>2026-04-06T15:34:42.658Z</time></trkpt><trkpt lat="44.0609183" lon="10.1782617"><ele>425.5</ele><time>2026-04-06T15:34:43.659Z</time></trkpt><trkpt lat="44.0609167" lon="10.1780867"><ele>421.0</ele><time>2026-04-06T15:34:44.658Z</time></trkpt><trkpt lat="44.0609017" lon="10.17792"><ele>416.5</ele><time>2026-04-06T15:34:45.658Z</time></trkpt><trkpt lat="44.0608717" lon="10.1777717"><ele>412.0</ele><time>2026-04-06T15:34:46.658Z</time></trkpt><trkpt lat="44.0608583" lon="10.1776383"><ele>412.0</ele><time>2026-04-06T15:34:47.658Z</time></trkpt><trkpt lat="44.0608633" lon="10.1775183"><ele>412.0</ele><time>2026-04-06T15:34:48.658Z</time></trkpt><trkpt lat="44.0608767" lon="10.1774033"><ele>412.0</ele><time>2026-04-06T15:34:49.658Z</time></trkpt><trkpt lat="44.0609117" lon="10.1772833"><ele>412.0</ele><time>2026-04-06T15:34:50.658Z</time></trkpt><trkpt lat="44.0609517" lon="10.1771617"><ele>412.0</ele><time>2026-04-06T15:34:51.658Z</time></trkpt><trkpt lat="44.0609883" lon="10.177025"><ele>409.6</ele><time>2026-04-06T15:34:52.658Z</time></trkpt><trkpt lat="44.0610183" lon="10.17688"><ele>407.20000000000005</ele><time>2026-04-06T15:34:53.658Z</time></trkpt><trkpt lat="44.0610367" lon="10.176735"><ele>404.8</ele><time>2026-04-06T15:34:54.659Z</time></trkpt><trkpt lat="44.061035" lon="10.1765733"><ele>402.4</ele><time>2026-04-06T15:34:55.659Z</time></trkpt><trkpt lat="44.0610283" lon="10.17641"><ele>400.0</ele><time>2026-04-06T15:34:56.659Z</time></trkpt><trkpt lat="44.0610367" lon="10.1762483"><ele>398.6</ele><time>2026-04-06T15:34:57.659Z</time></trkpt><trkpt lat="44.06104" lon="10.1760767"><ele>397.2</ele><time>2026-04-06T15:34:58.658Z</time></trkpt><trkpt lat="44.0610467" lon="10.1759133"><ele>395.79999999999995</ele><time>2026-04-06T15:34:59.658Z</time></trkpt><trkpt lat="44.0610583" lon="10.1757583"><ele>394.4</ele><time>2026-04-06T15:35:00.658Z</time></trkpt><trkpt lat="44.0610717" lon="10.1756267"><ele>393.0</ele><time>2026-04-06T15:35:01.658Z</time></trkpt><trkpt lat="44.061085" lon="10.1755167"><ele>393.0</ele><time>2026-04-06T15:35:02.658Z</time></trkpt><trkpt lat="44.0610933" lon="10.1754183"><ele>393.0</ele><time>2026-04-06T15:35:03.658Z</time></trkpt><trkpt lat="44.0610283" lon="10.1753667"><ele>393.0</ele><time>2026-04-06T15:35:05.659Z</time></trkpt><trkpt lat="44.0609733" lon="10.175465"><ele>393.0</ele><time>2026-04-06T15:35:07.658Z</time></trkpt><trkpt lat="44.0609567" lon="10.1756467"><ele>393.0</ele><time>2026-04-06T15:35:09.658Z</time></trkpt><trkpt lat="44.0609567" lon="10.1757683"><ele>393.0</ele><time>2026-04-06T15:35:10.658Z</time></trkpt><trkpt lat="44.060955" lon="10.1759033"><ele>393.0</ele><time>2026-04-06T15:35:11.658Z</time></trkpt><trkpt lat="44.0609467" lon="10.17604"><ele>393.0</ele><time>2026-04-06T15:35:12.658Z</time></trkpt><trkpt lat="44.060935" lon="10.1761783"><ele>393.0</ele><time>2026-04-06T15:35:13.659Z</time></trkpt><trkpt lat="44.06093" lon="10.1763283"><ele>393.0</ele><time>2026-04-06T15:35:14.658Z</time></trkpt><trkpt lat="44.0609283" lon="10.1764817"><ele>394.4</ele><time>2026-04-06T15:35:15.658Z</time></trkpt><trkpt lat="44.0609267" lon="10.1766383"><ele>395.79999999999995</ele><time>2026-04-06T15:35:16.658Z</time></trkpt><trkpt lat="44.0609233" lon="10.176795"><ele>397.2</ele><time>2026-04-06T15:35:17.658Z</time></trkpt><trkpt lat="44.0609017" lon="10.1769467"><ele>398.6</ele><time>2026-04-06T15:35:18.658Z</time></trkpt><trkpt lat="44.0608583" lon="10.1770833"><ele>400.0</ele><time>2026-04-06T15:35:19.658Z</time></trkpt><trkpt lat="44.0608" lon="10.1772033"><ele>391.0</ele><time>2026-04-06T15:35:20.659Z</time></trkpt><trkpt lat="44.0607267" lon="10.1773"><ele>382.0</ele><time>2026-04-06T15:35:21.659Z</time></trkpt><trkpt lat="44.0606617" lon="10.177385"><ele>373.0</ele><time>2026-04-06T15:35:22.658Z</time></trkpt><trkpt lat="44.0606017" lon="10.1774767"><ele>364.0</ele><time>2026-04-06T15:35:23.658Z</time></trkpt><trkpt lat="44.0605933" lon="10.177595"><ele>355.0</ele><time>2026-04-06T15:35:24.658Z</time></trkpt><trkpt lat="44.060595" lon="10.1777183"><ele>355.0</ele><time>2026-04-06T15:35:25.658Z</time></trkpt><trkpt lat="44.0606067" lon="10.1778567"><ele>355.0</ele><time>2026-04-06T15:35:26.658Z</time></trkpt><trkpt lat="44.0606083" lon="10.177995"><ele>355.0</ele><time>2026-04-06T15:35:27.659Z</time></trkpt><trkpt lat="44.060605" lon="10.178125"><ele>355.0</ele><time>2026-04-06T15:35:28.658Z</time></trkpt><trkpt lat="44.0605917" lon="10.1782517"><ele>355.0</ele><time>2026-04-06T15:35:29.658Z</time></trkpt><trkpt lat="44.0605867" lon="10.1783817"><ele>358.8333333333333</ele><time>2026-04-06T15:35:30.658Z</time></trkpt><trkpt lat="44.0605783" lon="10.1785133"><ele>362.66666666666663</ele><time>2026-04-06T15:35:31.658Z</time></trkpt><trkpt lat="44.060565" lon="10.17864"><ele>366.5</ele><time>2026-04-06T15:35:32.658Z</time></trkpt><trkpt lat="44.06055" lon="10.1787567"><ele>370.3333333333333</ele><time>2026-04-06T15:35:33.658Z</time></trkpt><trkpt lat="44.0605367" lon="10.178865"><ele>374.1666666666667</ele><time>2026-04-06T15:35:34.658Z</time></trkpt><trkpt lat="44.0605017" lon="10.1789433"><ele>378.0</ele><time>2026-04-06T15:35:35.658Z</time></trkpt><trkpt lat="44.06038" lon="10.1790067"><ele>378.0</ele><time>2026-04-06T15:35:37.658Z</time></trkpt><trkpt lat="44.0602283" lon="10.1789617"><ele>378.0</ele><time>2026-04-06T15:35:39.658Z</time></trkpt><trkpt lat="44.0601433" lon="10.17891"><ele>378.0</ele><time>2026-04-06T15:35:40.659Z</time></trkpt><trkpt lat="44.06006" lon="10.1788683"><ele>378.0</ele><time>2026-04-06T15:35:41.658Z</time></trkpt><trkpt lat="44.0599717" lon="10.1788233"><ele>378.0</ele><time>2026-04-06T15:35:42.658Z</time></trkpt><trkpt lat="44.0598883" lon="10.1788433"><ele>375.79999999999995</ele><time>2026-04-06T15:35:43.658Z</time></trkpt><trkpt lat="44.0598217" lon="10.1789017"><ele>373.6</ele><time>2026-04-06T15:35:44.658Z</time></trkpt><trkpt lat="44.05976" lon="10.1789817"><ele>371.4</ele><time>2026-04-06T15:35:45.658Z</time></trkpt><trkpt lat="44.0597133" lon="10.179105"><ele>369.20000000000005</ele><time>2026-04-06T15:35:46.659Z</time></trkpt><trkpt lat="44.0596717" lon="10.1792333"><ele>367.0</ele><time>2026-04-06T15:35:47.658Z</time></trkpt><trkpt lat="44.0596333" lon="10.1793733"><ele>367.0</ele><time>2026-04-06T15:35:48.659Z</time></trkpt><trkpt lat="44.0595917" lon="10.17951"><ele>367.0</ele><time>2026-04-06T15:35:49.658Z</time></trkpt><trkpt lat="44.0595467" lon="10.1796517"><ele>367.0</ele><time>2026-04-06T15:35:50.658Z</time></trkpt><trkpt lat="44.0595017" lon="10.1797917"><ele>367.0</ele><time>2026-04-06T15:35:51.658Z</time></trkpt><trkpt lat="44.0594533" lon="10.17993"><ele>367.0</ele><time>2026-04-06T15:35:52.659Z</time></trkpt><trkpt lat="44.0594017" lon="10.1800617"><ele>369.8</ele><time>2026-04-06T15:35:53.659Z</time></trkpt><trkpt lat="44.0593433" lon="10.1801867"><ele>372.6</ele><time>2026-04-06T15:35:54.658Z</time></trkpt><trkpt lat="44.0592783" lon="10.180305"><ele>375.40000000000003</ele><time>2026-04-06T15:35:55.658Z</time></trkpt><trkpt lat="44.0592133" lon="10.180415"><ele>378.20000000000005</ele><time>2026-04-06T15:35:56.658Z</time></trkpt><trkpt lat="44.0591367" lon="10.1805117"><ele>381.0</ele><time>2026-04-06T15:35:57.658Z</time></trkpt><trkpt lat="44.0590533" lon="10.1805983"><ele>379.4</ele><time>2026-04-06T15:35:58.658Z</time></trkpt><trkpt lat="44.0589667" lon="10.18068"><ele>377.8</ele><time>2026-04-06T15:35:59.658Z</time></trkpt><trkpt lat="44.0588783" lon="10.1807583"><ele>376.2</ele><time>2026-04-06T15:36:00.658Z</time></trkpt><trkpt lat="44.0587833" lon="10.1808283"><ele>374.59999999999997</ele><time>2026-04-06T15:36:01.658Z</time></trkpt><trkpt lat="44.0586883" lon="10.1808917"><ele>373.0</ele><time>2026-04-06T15:36:02.659Z</time></trkpt><trkpt lat="44.0585917" lon="10.1809467"><ele>373.0</ele><time>2026-04-06T15:36:03.658Z</time></trkpt><trkpt lat="44.0584967" lon="10.1810067"><ele>373.0</ele><time>2026-04-06T15:36:04.658Z</time></trkpt><trkpt lat="44.0584017" lon="10.1810633"><ele>373.0</ele><time>2026-04-06T15:36:05.658Z</time></trkpt><trkpt lat="44.0583067" lon="10.1811233"><ele>373.0</ele><time>2026-04-06T15:36:06.658Z</time></trkpt><trkpt lat="44.0582083" lon="10.1811817"><ele>373.0</ele><time>2026-04-06T15:36:07.658Z</time></trkpt><trkpt lat="44.0581083" lon="10.1812417"><ele>373.2</ele><time>2026-04-06T15:36:08.659Z</time></trkpt><trkpt lat="44.05801" lon="10.181305"><ele>373.4</ele><time>2026-04-06T15:36:09.658Z</time></trkpt><trkpt lat="44.05791" lon="10.18137"><ele>373.59999999999997</ele><time>2026-04-06T15:36:10.658Z</time></trkpt><trkpt lat="44.05781" lon="10.1814333"><ele>373.79999999999995</ele><time>2026-04-06T15:36:11.658Z</time></trkpt><trkpt lat="44.0577017" lon="10.18149"><ele>374.0</ele><time>2026-04-06T15:36:12.658Z</time></trkpt><trkpt lat="44.0575933" lon="10.1815417"><ele>374.0</ele><time>2026-04-06T15:36:13.658Z</time></trkpt><trkpt lat="44.057495" lon="10.1816017"><ele>374.0</ele><time>2026-04-06T15:36:14.658Z</time></trkpt><trkpt lat="44.0574067" lon="10.1816633"><ele>374.0</ele><time>2026-04-06T15:36:15.658Z</time></trkpt><trkpt lat="44.0573417" lon="10.181745"><ele>374.0</ele><time>2026-04-06T15:36:16.658Z</time></trkpt><trkpt lat="44.0572933" lon="10.1818367"><ele>374.0</ele><time>2026-04-06T15:36:17.658Z</time></trkpt><trkpt lat="44.05726" lon="10.1819367"><ele>375.0</ele><time>2026-04-06T15:36:18.658Z</time></trkpt><trkpt lat="44.05726" lon="10.182055"><ele>376.0</ele><time>2026-04-06T15:36:19.658Z</time></trkpt><trkpt lat="44.0572867" lon="10.1821817"><ele>377.0</ele><time>2026-04-06T15:36:20.658Z</time></trkpt><trkpt lat="44.05729" lon="10.1823067"><ele>378.0</ele><time>2026-04-06T15:36:21.658Z</time></trkpt><trkpt lat="44.057285" lon="10.182435"><ele>379.0</ele><time>2026-04-06T15:36:22.658Z</time></trkpt><trkpt lat="44.0572517" lon="10.1825433"><ele>380.0</ele><time>2026-04-06T15:36:23.658Z</time></trkpt><trkpt lat="44.057185" lon="10.1826133"><ele>380.0</ele><time>2026-04-06T15:36:24.658Z</time></trkpt><trkpt lat="44.0571117" lon="10.1826617"><ele>380.0</ele><time>2026-04-06T15:36:25.658Z</time></trkpt><trkpt lat="44.0570067" lon="10.182625"><ele>380.0</ele><time>2026-04-06T15:36:26.658Z</time></trkpt><trkpt lat="44.0569133" lon="10.182575"><ele>380.0</ele><time>2026-04-06T15:36:27.658Z</time></trkpt><trkpt lat="44.0568167" lon="10.1824883"><ele>380.0</ele><time>2026-04-06T15:36:28.658Z</time></trkpt><trkpt lat="44.0567167" lon="10.1823983"><ele>372.25</ele><time>2026-04-06T15:36:29.658Z</time></trkpt><trkpt lat="44.0566133" lon="10.1823083"><ele>364.5</ele><time>2026-04-06T15:36:30.658Z</time></trkpt><trkpt lat="44.0565083" lon="10.1822267"><ele>356.75</ele><time>2026-04-06T15:36:31.658Z</time></trkpt><trkpt lat="44.0564033" lon="10.1821483"><ele>349.0</ele><time>2026-04-06T15:36:32.659Z</time></trkpt><trkpt lat="44.056305" lon="10.1820717"><ele>349.0</ele><time>2026-04-06T15:36:33.658Z</time></trkpt><trkpt lat="44.0562033" lon="10.18199"><ele>349.0</ele><time>2026-04-06T15:36:34.658Z</time></trkpt><trkpt lat="44.0561" lon="10.1819133"><ele>349.0</ele><time>2026-04-06T15:36:35.658Z</time></trkpt><trkpt lat="44.055995" lon="10.181855"><ele>349.0</ele><time>2026-04-06T15:36:36.658Z</time></trkpt><trkpt lat="44.05589" lon="10.18182"><ele>342.59999999999997</ele><time>2026-04-06T15:36:37.659Z</time></trkpt><trkpt lat="44.0557867" lon="10.1818133"><ele>336.2</ele><time>2026-04-06T15:36:38.658Z</time></trkpt><trkpt lat="44.0556917" lon="10.18186"><ele>329.79999999999995</ele><time>2026-04-06T15:36:39.658Z</time></trkpt><trkpt lat="44.0556183" lon="10.1819383"><ele>323.4</ele><time>2026-04-06T15:36:40.658Z</time></trkpt><trkpt lat="44.05556" lon="10.1820483"><ele>317.0</ele><time>2026-04-06T15:36:41.658Z</time></trkpt><trkpt lat="44.055515" lon="10.182175"><ele>317.0</ele><time>2026-04-06T15:36:42.658Z</time></trkpt><trkpt lat="44.0554833" lon="10.18231"><ele>317.0</ele><time>2026-04-06T15:36:43.659Z</time></trkpt><trkpt lat="44.055465" lon="10.18246"><ele>317.0</ele><time>2026-04-06T15:36:44.658Z</time></trkpt><trkpt lat="44.0554583" lon="10.1826183"><ele>317.0</ele><time>2026-04-06T15:36:45.658Z</time></trkpt><trkpt lat="44.0554617" lon="10.1827767"><ele>317.0</ele><time>2026-04-06T15:36:46.658Z</time></trkpt><trkpt lat="44.0554783" lon="10.182925"><ele>317.2</ele><time>2026-04-06T15:36:47.658Z</time></trkpt><trkpt lat="44.055505" lon="10.18307"><ele>317.4</ele><time>2026-04-06T15:36:48.658Z</time></trkpt><trkpt lat="44.0555433" lon="10.1832017"><ele>317.6</ele><time>2026-04-06T15:36:49.658Z</time></trkpt><trkpt lat="44.0555883" lon="10.18333"><ele>317.8</ele><time>2026-04-06T15:36:50.658Z</time></trkpt><trkpt lat="44.0556333" lon="10.1834583"><ele>318.0</ele><time>2026-04-06T15:36:51.658Z</time></trkpt><trkpt lat="44.0556767" lon="10.18359"><ele>316.8</ele><time>2026-04-06T15:36:52.658Z</time></trkpt><trkpt lat="44.0557017" lon="10.18373"><ele>315.6</ele><time>2026-04-06T15:36:53.659Z</time></trkpt><trkpt lat="44.0557133" lon="10.1838733"><ele>314.4</ele><time>2026-04-06T15:36:54.659Z</time></trkpt><trkpt lat="44.0557033" lon="10.184015"><ele>313.2</ele><time>2026-04-06T15:36:55.658Z</time></trkpt><trkpt lat="44.0556767" lon="10.18414"><ele>312.0</ele><time>2026-04-06T15:36:56.658Z</time></trkpt><trkpt lat="44.055635" lon="10.184255"><ele>315.1666666666667</ele><time>2026-04-06T15:36:57.658Z</time></trkpt><trkpt lat="44.0555583" lon="10.1843183"><ele>318.3333333333333</ele><time>2026-04-06T15:36:58.658Z</time></trkpt><trkpt lat="44.05549" lon="10.184365"><ele>321.5</ele><time>2026-04-06T15:36:59.658Z</time></trkpt><trkpt lat="44.0554183" lon="10.18438"><ele>324.66666666666663</ele><time>2026-04-06T15:37:00.658Z</time></trkpt><trkpt lat="44.055335" lon="10.1843767"><ele>327.8333333333333</ele><time>2026-04-06T15:37:01.658Z</time></trkpt><trkpt lat="44.055235" lon="10.1844033"><ele>331.0</ele><time>2026-04-06T15:37:02.658Z</time></trkpt><trkpt lat="44.0551283" lon="10.184425"><ele>331.0</ele><time>2026-04-06T15:37:03.658Z</time></trkpt><trkpt lat="44.0550217" lon="10.184465"><ele>331.0</ele><time>2026-04-06T15:37:04.658Z</time></trkpt><trkpt lat="44.0549217" lon="10.18452"><ele>331.0</ele><time>2026-04-06T15:37:05.658Z</time></trkpt><trkpt lat="44.054815" lon="10.1845633"><ele>331.0</ele><time>2026-04-06T15:37:06.658Z</time></trkpt><trkpt lat="44.0547183" lon="10.1846267"><ele>331.0</ele><time>2026-04-06T15:37:07.658Z</time></trkpt><trkpt lat="44.054645" lon="10.1847333"><ele>326.5</ele><time>2026-04-06T15:37:08.658Z</time></trkpt><trkpt lat="44.0545967" lon="10.1848717"><ele>322.0</ele><time>2026-04-06T15:37:09.658Z</time></trkpt><trkpt lat="44.05456" lon="10.1850233"><ele>317.5</ele><time>2026-04-06T15:37:10.658Z</time></trkpt><trkpt lat="44.0545233" lon="10.185175"><ele>313.0</ele><time>2026-04-06T15:37:11.658Z</time></trkpt><trkpt lat="44.0544833" lon="10.1853333"><ele>313.0</ele><time>2026-04-06T15:37:12.658Z</time></trkpt><trkpt lat="44.05445" lon="10.1854967"><ele>313.0</ele><time>2026-04-06T15:37:13.658Z</time></trkpt><trkpt lat="44.0544117" lon="10.1856567"><ele>313.0</ele><time>2026-04-06T15:37:14.659Z</time></trkpt><trkpt lat="44.05437" lon="10.1858083"><ele>313.0</ele><time>2026-04-06T15:37:15.658Z</time></trkpt><trkpt lat="44.0543267" lon="10.18596"><ele>314.4</ele><time>2026-04-06T15:37:16.658Z</time></trkpt><trkpt lat="44.0542883" lon="10.1861067"><ele>315.8</ele><time>2026-04-06T15:37:17.658Z</time></trkpt><trkpt lat="44.0542467" lon="10.1862483"><ele>317.2</ele><time>2026-04-06T15:37:18.658Z</time></trkpt><trkpt lat="44.054215" lon="10.186395"><ele>318.6</ele><time>2026-04-06T15:37:19.659Z</time></trkpt><trkpt lat="44.0541917" lon="10.1865467"><ele>320.0</ele><time>2026-04-06T15:37:20.658Z</time></trkpt><trkpt lat="44.0541783" lon="10.1867"><ele>322.4</ele><time>2026-04-06T15:37:21.659Z</time></trkpt><trkpt lat="44.0541683" lon="10.1868533"><ele>324.8</ele><time>2026-04-06T15:37:22.658Z</time></trkpt><trkpt lat="44.0541483" lon="10.1870117"><ele>327.20000000000005</ele><time>2026-04-06T15:37:23.659Z</time></trkpt><trkpt lat="44.0541167" lon="10.1871583"><ele>329.6</ele><time>2026-04-06T15:37:24.658Z</time></trkpt><trkpt lat="44.05408" lon="10.1873017"><ele>332.0</ele><time>2026-04-06T15:37:25.658Z</time></trkpt><trkpt lat="44.0540383" lon="10.1874417"><ele>322.6</ele><time>2026-04-06T15:37:26.658Z</time></trkpt><trkpt lat="44.054" lon="10.18758"><ele>313.20000000000005</ele><time>2026-04-06T15:37:27.658Z</time></trkpt><trkpt lat="44.0539633" lon="10.1877183"><ele>303.8</ele><time>2026-04-06T15:37:28.659Z</time></trkpt><trkpt lat="44.0539183" lon="10.1878483"><ele>294.4</ele><time>2026-04-06T15:37:29.658Z</time></trkpt><trkpt lat="44.053855" lon="10.1879667"><ele>285.0</ele><time>2026-04-06T15:37:30.658Z</time></trkpt><trkpt lat="44.0537783" lon="10.1880667"><ele>285.0</ele><time>2026-04-06T15:37:31.658Z</time></trkpt><trkpt lat="44.0537117" lon="10.18817"><ele>285.0</ele><time>2026-04-06T15:37:32.658Z</time></trkpt><trkpt lat="44.0536717" lon="10.188275"><ele>285.0</ele><time>2026-04-06T15:37:33.658Z</time></trkpt><trkpt lat="44.0536533" lon="10.1883817"><ele>285.0</ele><time>2026-04-06T15:37:34.658Z</time></trkpt><trkpt lat="44.053705" lon="10.1884833"><ele>285.0</ele><time>2026-04-06T15:37:35.658Z</time></trkpt><trkpt lat="44.0537667" lon="10.1885767"><ele>285.0</ele><time>2026-04-06T15:37:36.658Z</time></trkpt><trkpt lat="44.0538383" lon="10.1886767"><ele>287.6666666666667</ele><time>2026-04-06T15:37:37.659Z</time></trkpt><trkpt lat="44.05391" lon="10.1887783"><ele>290.3333333333333</ele><time>2026-04-06T15:37:38.658Z</time></trkpt><trkpt lat="44.0539633" lon="10.1888817"><ele>293.0</ele><time>2026-04-06T15:37:39.658Z</time></trkpt><trkpt lat="44.0539917" lon="10.1889867"><ele>295.66666666666663</ele><time>2026-04-06T15:37:40.659Z</time></trkpt><trkpt lat="44.0539767" lon="10.1890933"><ele>298.3333333333333</ele><time>2026-04-06T15:37:41.658Z</time></trkpt><trkpt lat="44.0539533" lon="10.1891917"><ele>301.0</ele><time>2026-04-06T15:37:42.658Z</time></trkpt><trkpt lat="44.053915" lon="10.18928"><ele>304.75</ele><time>2026-04-06T15:37:43.659Z</time></trkpt><trkpt lat="44.0537933" lon="10.1893567"><ele>308.5</ele><time>2026-04-06T15:37:45.659Z</time></trkpt><trkpt lat="44.05367" lon="10.1893433"><ele>312.25</ele><time>2026-04-06T15:37:46.658Z</time></trkpt><trkpt lat="44.05356" lon="10.1893567"><ele>316.0</ele><time>2026-04-06T15:37:47.658Z</time></trkpt><trkpt lat="44.0534617" lon="10.1893967"><ele>316.0</ele><time>2026-04-06T15:37:48.658Z</time></trkpt><trkpt lat="44.0533883" lon="10.189485"><ele>316.0</ele><time>2026-04-06T15:37:49.658Z</time></trkpt><trkpt lat="44.0533433" lon="10.1896033"><ele>316.0</ele><time>2026-04-06T15:37:50.658Z</time></trkpt><trkpt lat="44.0533067" lon="10.1897367"><ele>316.0</ele><time>2026-04-06T15:37:51.658Z</time></trkpt><trkpt lat="44.0532833" lon="10.1898833"><ele>316.0</ele><time>2026-04-06T15:37:52.658Z</time></trkpt><trkpt lat="44.0532667" lon="10.1900317"><ele>314.6</ele><time>2026-04-06T15:37:53.658Z</time></trkpt><trkpt lat="44.0532433" lon="10.1901767"><ele>313.20000000000005</ele><time>2026-04-06T15:37:54.658Z</time></trkpt><trkpt lat="44.053205" lon="10.1903167"><ele>311.79999999999995</ele><time>2026-04-06T15:37:55.658Z</time></trkpt><trkpt lat="44.05315" lon="10.19045"><ele>310.4</ele><time>2026-04-06T15:37:56.658Z</time></trkpt><trkpt lat="44.0530783" lon="10.1905767"><ele>309.0</ele><time>2026-04-06T15:37:57.658Z</time></trkpt><trkpt lat="44.0529917" lon="10.1906967"><ele>309.0</ele><time>2026-04-06T15:37:58.658Z</time></trkpt><trkpt lat="44.0529083" lon="10.190805"><ele>309.0</ele><time>2026-04-06T15:37:59.659Z</time></trkpt><trkpt lat="44.0528283" lon="10.1909217"><ele>309.0</ele><time>2026-04-06T15:38:00.658Z</time></trkpt><trkpt lat="44.0527517" lon="10.1910417"><ele>309.0</ele><time>2026-04-06T15:38:01.658Z</time></trkpt><trkpt lat="44.0526733" lon="10.191155"><ele>309.0</ele><time>2026-04-06T15:38:02.658Z</time></trkpt><trkpt lat="44.05259" lon="10.1912617"><ele>309.0</ele><time>2026-04-06T15:38:03.658Z</time></trkpt><trkpt lat="44.0524983" lon="10.1913367"><ele>309.0</ele><time>2026-04-06T15:38:04.658Z</time></trkpt><trkpt lat="44.0523933" lon="10.1913717"><ele>309.0</ele><time>2026-04-06T15:38:05.658Z</time></trkpt><trkpt lat="44.0522833" lon="10.1913633"><ele>309.0</ele><time>2026-04-06T15:38:06.658Z</time></trkpt><trkpt lat="44.052185" lon="10.19131"><ele>313.6</ele><time>2026-04-06T15:38:07.658Z</time></trkpt><trkpt lat="44.0521083" lon="10.1912283"><ele>318.2</ele><time>2026-04-06T15:38:08.658Z</time></trkpt><trkpt lat="44.0520533" lon="10.191115"><ele>322.8</ele><time>2026-04-06T15:38:09.658Z</time></trkpt><trkpt lat="44.0520183" lon="10.1909783"><ele>327.40000000000003</ele><time>2026-04-06T15:38:10.658Z</time></trkpt><trkpt lat="44.0520167" lon="10.1908417"><ele>332.0</ele><time>2026-04-06T15:38:11.658Z</time></trkpt><trkpt lat="44.052035" lon="10.1907117"><ele>337.25</ele><time>2026-04-06T15:38:12.658Z</time></trkpt><trkpt lat="44.0520967" lon="10.190585"><ele>342.5</ele><time>2026-04-06T15:38:13.658Z</time></trkpt><trkpt lat="44.05217" lon="10.1904467"><ele>347.75</ele><time>2026-04-06T15:38:14.659Z</time></trkpt><trkpt lat="44.05222" lon="10.1902917"><ele>353.0</ele><time>2026-04-06T15:38:15.658Z</time></trkpt><trkpt lat="44.0522517" lon="10.1901267"><ele>353.0</ele><time>2026-04-06T15:38:16.658Z</time></trkpt><trkpt lat="44.052265" lon="10.18996"><ele>353.0</ele><time>2026-04-06T15:38:17.658Z</time></trkpt><trkpt lat="44.05226" lon="10.18979"><ele>353.0</ele><time>2026-04-06T15:38:18.658Z</time></trkpt><trkpt lat="44.0522533" lon="10.1896183"><ele>353.0</ele><time>2026-04-06T15:38:19.658Z</time></trkpt><trkpt lat="44.0522417" lon="10.1894433"><ele>353.5</ele><time>2026-04-06T15:38:20.658Z</time></trkpt><trkpt lat="44.0522367" lon="10.1892783"><ele>354.0</ele><time>2026-04-06T15:38:21.659Z</time></trkpt><trkpt lat="44.0522283" lon="10.189115"><ele>354.5</ele><time>2026-04-06T15:38:22.658Z</time></trkpt><trkpt lat="44.0522133" lon="10.1889567"><ele>355.0</ele><time>2026-04-06T15:38:23.658Z</time></trkpt><trkpt lat="44.0521767" lon="10.1888083"><ele>351.0</ele><time>2026-04-06T15:38:24.659Z</time></trkpt><trkpt lat="44.0521317" lon="10.1886733"><ele>347.0</ele><time>2026-04-06T15:38:25.658Z</time></trkpt><trkpt lat="44.052085" lon="10.188545"><ele>343.0</ele><time>2026-04-06T15:38:26.658Z</time></trkpt><trkpt lat="44.0520483" lon="10.1884167"><ele>339.0</ele><time>2026-04-06T15:38:27.658Z</time></trkpt><trkpt lat="44.05202" lon="10.188285"><ele>335.0</ele><time>2026-04-06T15:38:28.658Z</time></trkpt><trkpt lat="44.05202" lon="10.18814"><ele>331.5</ele><time>2026-04-06T15:38:29.659Z</time></trkpt><trkpt lat="44.052035" lon="10.18798"><ele>328.0</ele><time>2026-04-06T15:38:30.659Z</time></trkpt><trkpt lat="44.0520583" lon="10.1878083"><ele>324.5</ele><time>2026-04-06T15:38:31.658Z</time></trkpt><trkpt lat="44.0520917" lon="10.1876283"><ele>321.0</ele><time>2026-04-06T15:38:32.658Z</time></trkpt><trkpt lat="44.052125" lon="10.187435"><ele>328.0</ele><time>2026-04-06T15:38:33.659Z</time></trkpt><trkpt lat="44.052185" lon="10.1872283"><ele>335.0</ele><time>2026-04-06T15:38:34.658Z</time></trkpt><trkpt lat="44.052235" lon="10.18703"><ele>342.0</ele><time>2026-04-06T15:38:35.658Z</time></trkpt><trkpt lat="44.0522517" lon="10.186835"><ele>342.0</ele><time>2026-04-06T15:38:36.658Z</time></trkpt><trkpt lat="44.052265" lon="10.18664"><ele>342.0</ele><time>2026-04-06T15:38:37.658Z</time></trkpt><trkpt lat="44.0522767" lon="10.186445"><ele>342.0</ele><time>2026-04-06T15:38:38.658Z</time></trkpt><trkpt lat="44.0522967" lon="10.1862483"><ele>342.0</ele><time>2026-04-06T15:38:39.658Z</time></trkpt><trkpt lat="44.052325" lon="10.1860533"><ele>348.75</ele><time>2026-04-06T15:38:40.658Z</time></trkpt><trkpt lat="44.0523467" lon="10.1858567"><ele>355.5</ele><time>2026-04-06T15:38:41.658Z</time></trkpt><trkpt lat="44.05235" lon="10.1856617"><ele>362.25</ele><time>2026-04-06T15:38:42.658Z</time></trkpt><trkpt lat="44.0523467" lon="10.1854667"><ele>369.0</ele><time>2026-04-06T15:38:43.658Z</time></trkpt><trkpt lat="44.0523267" lon="10.1852733"><ele>370.0</ele><time>2026-04-06T15:38:44.658Z</time></trkpt><trkpt lat="44.0523017" lon="10.1850817"><ele>371.0</ele><time>2026-04-06T15:38:45.659Z</time></trkpt><trkpt lat="44.05228" lon="10.184895"><ele>372.0</ele><time>2026-04-06T15:38:46.658Z</time></trkpt><trkpt lat="44.05228" lon="10.1847167"><ele>373.0</ele><time>2026-04-06T15:38:47.658Z</time></trkpt><trkpt lat="44.0522883" lon="10.1845433"><ele>367.25</ele><time>2026-04-06T15:38:48.659Z</time></trkpt><trkpt lat="44.0522867" lon="10.1843767"><ele>361.5</ele><time>2026-04-06T15:38:49.658Z</time></trkpt><trkpt lat="44.05227" lon="10.1842083"><ele>355.75</ele><time>2026-04-06T15:38:50.658Z</time></trkpt><trkpt lat="44.0522167" lon="10.184045"><ele>350.0</ele><time>2026-04-06T15:38:51.658Z</time></trkpt><trkpt lat="44.0521417" lon="10.1838833"><ele>345.25</ele><time>2026-04-06T15:38:52.658Z</time></trkpt><trkpt lat="44.0520517" lon="10.1837467"><ele>340.5</ele><time>2026-04-06T15:38:53.658Z</time></trkpt><trkpt lat="44.0519533" lon="10.1836367"><ele>335.75</ele><time>2026-04-06T15:38:54.658Z</time></trkpt><trkpt lat="44.0518367" lon="10.183545"><ele>331.0</ele><time>2026-04-06T15:38:55.658Z</time></trkpt><trkpt lat="44.0517383" lon="10.1834517"><ele>331.0</ele><time>2026-04-06T15:38:56.658Z</time></trkpt><trkpt lat="44.0516717" lon="10.1833317"><ele>331.0</ele><time>2026-04-06T15:38:57.658Z</time></trkpt><trkpt lat="44.0516367" lon="10.1832017"><ele>331.0</ele><time>2026-04-06T15:38:58.658Z</time></trkpt><trkpt lat="44.05163" lon="10.183075"><ele>331.0</ele><time>2026-04-06T15:38:59.658Z</time></trkpt><trkpt lat="44.05168" lon="10.1829783"><ele>331.0</ele><time>2026-04-06T15:39:00.658Z</time></trkpt><trkpt lat="44.0517383" lon="10.182895"><ele>336.0</ele><time>2026-04-06T15:39:01.659Z</time></trkpt><trkpt lat="44.0518033" lon="10.18282"><ele>341.0</ele><time>2026-04-06T15:39:02.658Z</time></trkpt><trkpt lat="44.0518867" lon="10.1827517"><ele>346.0</ele><time>2026-04-06T15:39:03.658Z</time></trkpt><trkpt lat="44.051975" lon="10.1826833"><ele>351.0</ele><time>2026-04-06T15:39:04.659Z</time></trkpt><trkpt lat="44.0520733" lon="10.1826283"><ele>356.0</ele><time>2026-04-06T15:39:05.658Z</time></trkpt><trkpt lat="44.0521733" lon="10.1825733"><ele>356.0</ele><time>2026-04-06T15:39:06.658Z</time></trkpt><trkpt lat="44.0522633" lon="10.1825017"><ele>356.0</ele><time>2026-04-06T15:39:07.658Z</time></trkpt><trkpt lat="44.0523533" lon="10.1824067"><ele>356.0</ele><time>2026-04-06T15:39:08.659Z</time></trkpt><trkpt lat="44.0524083" lon="10.18229"><ele>356.0</ele><time>2026-04-06T15:39:09.658Z</time></trkpt><trkpt lat="44.0524333" lon="10.1821617"><ele>356.0</ele><time>2026-04-06T15:39:10.658Z</time></trkpt><trkpt lat="44.052395" lon="10.1820267"><ele>355.75</ele><time>2026-04-06T15:39:11.658Z</time></trkpt><trkpt lat="44.05233" lon="10.18189"><ele>355.5</ele><time>2026-04-06T15:39:12.658Z</time></trkpt><trkpt lat="44.0522417" lon="10.18176"><ele>355.25</ele><time>2026-04-06T15:39:13.658Z</time></trkpt><trkpt lat="44.0521617" lon="10.181625"><ele>355.0</ele><time>2026-04-06T15:39:14.659Z</time></trkpt><trkpt lat="44.052075" lon="10.1814833"><ele>355.0</ele><time>2026-04-06T15:39:15.658Z</time></trkpt><trkpt lat="44.0519983" lon="10.18133"><ele>355.0</ele><time>2026-04-06T15:39:16.658Z</time></trkpt><trkpt lat="44.0519267" lon="10.1811783"><ele>355.0</ele><time>2026-04-06T15:39:17.658Z</time></trkpt><trkpt lat="44.0518667" lon="10.181025"><ele>355.0</ele><time>2026-04-06T15:39:18.658Z</time></trkpt><trkpt lat="44.051815" lon="10.18087"><ele>355.0</ele><time>2026-04-06T15:39:19.658Z</time></trkpt><trkpt lat="44.0517883" lon="10.1807117"><ele>355.0</ele><time>2026-04-06T15:39:20.658Z</time></trkpt><trkpt lat="44.051785" lon="10.1805567"><ele>355.0</ele><time>2026-04-06T15:39:21.658Z</time></trkpt><trkpt lat="44.0518033" lon="10.1804167"><ele>355.0</ele><time>2026-04-06T15:39:22.658Z</time></trkpt><trkpt lat="44.0518517" lon="10.1802883"><ele>355.0</ele><time>2026-04-06T15:39:23.659Z</time></trkpt><trkpt lat="44.05197" lon="10.1801917"><ele>356.25</ele><time>2026-04-06T15:39:24.658Z</time></trkpt><trkpt lat="44.052045" lon="10.180095"><ele>357.5</ele><time>2026-04-06T15:39:25.659Z</time></trkpt><trkpt lat="44.052125" lon="10.17999"><ele>358.75</ele><time>2026-04-06T15:39:26.658Z</time></trkpt><trkpt lat="44.0522183" lon="10.1798883"><ele>360.0</ele><time>2026-04-06T15:39:27.658Z</time></trkpt><trkpt lat="44.05232" lon="10.17979"><ele>365.0</ele><time>2026-04-06T15:39:28.658Z</time></trkpt><trkpt lat="44.0524067" lon="10.1796783"><ele>370.0</ele><time>2026-04-06T15:39:29.659Z</time></trkpt><trkpt lat="44.052475" lon="10.1795483"><ele>375.0</ele><time>2026-04-06T15:39:30.659Z</time></trkpt><trkpt lat="44.0525167" lon="10.1794083"><ele>380.0</ele><time>2026-04-06T15:39:31.658Z</time></trkpt><trkpt lat="44.0525183" lon="10.17925"><ele>383.75</ele><time>2026-04-06T15:39:32.658Z</time></trkpt><trkpt lat="44.0525017" lon="10.1790917"><ele>387.5</ele><time>2026-04-06T15:39:33.658Z</time></trkpt><trkpt lat="44.0524683" lon="10.1789317"><ele>391.25</ele><time>2026-04-06T15:39:34.658Z</time></trkpt><trkpt lat="44.05244" lon="10.1787683"><ele>395.0</ele><time>2026-04-06T15:39:35.658Z</time></trkpt><trkpt lat="44.0524233" lon="10.1786033"><ele>395.0</ele><time>2026-04-06T15:39:36.658Z</time></trkpt><trkpt lat="44.05239" lon="10.1784367"><ele>395.0</ele><time>2026-04-06T15:39:37.658Z</time></trkpt><trkpt lat="44.0523567" lon="10.1782617"><ele>395.0</ele><time>2026-04-06T15:39:38.658Z</time></trkpt><trkpt lat="44.0523567" lon="10.178095"><ele>395.0</ele><time>2026-04-06T15:39:39.658Z</time></trkpt><trkpt lat="44.052375" lon="10.1779367"><ele>396.5</ele><time>2026-04-06T15:39:40.658Z</time></trkpt><trkpt lat="44.0524167" lon="10.17779"><ele>398.0</ele><time>2026-04-06T15:39:41.658Z</time></trkpt><trkpt lat="44.0525133" lon="10.1776633"><ele>399.5</ele><time>2026-04-06T15:39:42.658Z</time></trkpt><trkpt lat="44.0526483" lon="10.1775633"><ele>401.0</ele><time>2026-04-06T15:39:43.658Z</time></trkpt><trkpt lat="44.0527417" lon="10.1774633"><ele>395.0</ele><time>2026-04-06T15:39:44.658Z</time></trkpt><trkpt lat="44.0528217" lon="10.1773567"><ele>389.0</ele><time>2026-04-06T15:39:45.659Z</time></trkpt><trkpt lat="44.052885" lon="10.1772317"><ele>383.0</ele><time>2026-04-06T15:39:46.658Z</time></trkpt><trkpt lat="44.0529317" lon="10.1770867"><ele>377.0</ele><time>2026-04-06T15:39:47.658Z</time></trkpt><trkpt lat="44.0529733" lon="10.17696"><ele>371.0</ele><time>2026-04-06T15:39:48.658Z</time></trkpt><trkpt lat="44.0530267" lon="10.1768583"><ele>371.0</ele><time>2026-04-06T15:39:49.658Z</time></trkpt><trkpt lat="44.0530867" lon="10.1767717"><ele>371.0</ele><time>2026-04-06T15:39:50.658Z</time></trkpt><trkpt lat="44.0531883" lon="10.1767233"><ele>371.0</ele><time>2026-04-06T15:39:51.658Z</time></trkpt><trkpt lat="44.0533483" lon="10.1767483"><ele>371.0</ele><time>2026-04-06T15:39:52.658Z</time></trkpt><trkpt lat="44.0534683" lon="10.176715"><ele>367.5</ele><time>2026-04-06T15:39:53.658Z</time></trkpt><trkpt lat="44.05359" lon="10.1766683"><ele>364.0</ele><time>2026-04-06T15:39:54.658Z</time></trkpt><trkpt lat="44.053705" lon="10.1766"><ele>360.5</ele><time>2026-04-06T15:39:55.658Z</time></trkpt><trkpt lat="44.053805" lon="10.17651"><ele>357.0</ele><time>2026-04-06T15:39:56.658Z</time></trkpt><trkpt lat="44.0538867" lon="10.1763933"><ele>357.0</ele><time>2026-04-06T15:39:57.658Z</time></trkpt><trkpt lat="44.053955" lon="10.17625"><ele>357.0</ele><time>2026-04-06T15:39:58.658Z</time></trkpt><trkpt lat="44.0540033" lon="10.1760983"><ele>357.0</ele><time>2026-04-06T15:39:59.658Z</time></trkpt><trkpt lat="44.0540417" lon="10.17594"><ele>357.0</ele><time>2026-04-06T15:40:00.659Z</time></trkpt><trkpt lat="44.0540717" lon="10.1757767"><ele>352.75</ele><time>2026-04-06T15:40:01.658Z</time></trkpt><trkpt lat="44.0540817" lon="10.1756183"><ele>348.5</ele><time>2026-04-06T15:40:02.658Z</time></trkpt><trkpt lat="44.0540683" lon="10.1754667"><ele>344.25</ele><time>2026-04-06T15:40:03.658Z</time></trkpt><trkpt lat="44.05404" lon="10.17532"><ele>340.0</ele><time>2026-04-06T15:40:04.658Z</time></trkpt><trkpt lat="44.0539733" lon="10.1751783"><ele>340.0</ele><time>2026-04-06T15:40:05.659Z</time></trkpt><trkpt lat="44.0538983" lon="10.1750533"><ele>340.0</ele><time>2026-04-06T15:40:06.658Z</time></trkpt><trkpt lat="44.0538133" lon="10.174945"><ele>340.0</ele><time>2026-04-06T15:40:07.658Z</time></trkpt><trkpt lat="44.0537167" lon="10.174855"><ele>340.0</ele><time>2026-04-06T15:40:08.658Z</time></trkpt><trkpt lat="44.0536067" lon="10.1747767"><ele>343.0</ele><time>2026-04-06T15:40:09.658Z</time></trkpt><trkpt lat="44.0534933" lon="10.1747133"><ele>346.0</ele><time>2026-04-06T15:40:10.658Z</time></trkpt><trkpt lat="44.0533833" lon="10.1746583"><ele>349.0</ele><time>2026-04-06T15:40:11.658Z</time></trkpt><trkpt lat="44.053275" lon="10.17461"><ele>352.0</ele><time>2026-04-06T15:40:12.658Z</time></trkpt><trkpt lat="44.0531783" lon="10.1745533"><ele>352.0</ele><time>2026-04-06T15:40:13.658Z</time></trkpt><trkpt lat="44.0530883" lon="10.1744783"><ele>352.0</ele><time>2026-04-06T15:40:14.659Z</time></trkpt><trkpt lat="44.053015" lon="10.1743817"><ele>352.0</ele><time>2026-04-06T15:40:15.658Z</time></trkpt><trkpt lat="44.052965" lon="10.1742733"><ele>352.0</ele><time>2026-04-06T15:40:16.658Z</time></trkpt><trkpt lat="44.0529417" lon="10.1741317"><ele>352.0</ele><time>2026-04-06T15:40:17.658Z</time></trkpt><trkpt lat="44.052955" lon="10.1739867"><ele>349.40000000000003</ele><time>2026-04-06T15:40:18.658Z</time></trkpt><trkpt lat="44.0529733" lon="10.1738417"><ele>346.8</ele><time>2026-04-06T15:40:19.658Z</time></trkpt><trkpt lat="44.052995" lon="10.1736933"><ele>344.2</ele><time>2026-04-06T15:40:20.658Z</time></trkpt><trkpt lat="44.053005" lon="10.173545"><ele>341.6</ele><time>2026-04-06T15:40:21.658Z</time></trkpt><trkpt lat="44.0529883" lon="10.1734033"><ele>339.0</ele><time>2026-04-06T15:40:22.658Z</time></trkpt><trkpt lat="44.052955" lon="10.173275"><ele>333.5</ele><time>2026-04-06T15:40:23.658Z</time></trkpt><trkpt lat="44.0528767" lon="10.173175"><ele>328.0</ele><time>2026-04-06T15:40:24.658Z</time></trkpt><trkpt lat="44.0527717" lon="10.1730933"><ele>322.5</ele><time>2026-04-06T15:40:25.658Z</time></trkpt><trkpt lat="44.0526583" lon="10.1730133"><ele>317.0</ele><time>2026-04-06T15:40:26.658Z</time></trkpt><trkpt lat="44.052545" lon="10.172925"><ele>321.5</ele><time>2026-04-06T15:40:27.658Z</time></trkpt><trkpt lat="44.052435" lon="10.17283"><ele>326.0</ele><time>2026-04-06T15:40:28.658Z</time></trkpt><trkpt lat="44.05233" lon="10.1727283"><ele>330.5</ele><time>2026-04-06T15:40:29.658Z</time></trkpt><trkpt lat="44.0522267" lon="10.17262"><ele>335.0</ele><time>2026-04-06T15:40:30.659Z</time></trkpt><trkpt lat="44.0521317" lon="10.1724967"><ele>335.0</ele><time>2026-04-06T15:40:31.658Z</time></trkpt><trkpt lat="44.0520417" lon="10.17236"><ele>335.0</ele><time>2026-04-06T15:40:32.658Z</time></trkpt><trkpt lat="44.0519583" lon="10.17222"><ele>335.0</ele><time>2026-04-06T15:40:33.658Z</time></trkpt><trkpt lat="44.0518767" lon="10.1720833"><ele>335.0</ele><time>2026-04-06T15:40:34.658Z</time></trkpt><trkpt lat="44.0518" lon="10.1719517"><ele>334.0</ele><time>2026-04-06T15:40:35.659Z</time></trkpt><trkpt lat="44.0517317" lon="10.1718117"><ele>333.0</ele><time>2026-04-06T15:40:36.659Z</time></trkpt><trkpt lat="44.0516783" lon="10.1716683"><ele>332.0</ele><time>2026-04-06T15:40:37.658Z</time></trkpt><trkpt lat="44.0516217" lon="10.1715333"><ele>331.0</ele><time>2026-04-06T15:40:38.659Z</time></trkpt><trkpt lat="44.05156" lon="10.1714083"><ele>327.5</ele><time>2026-04-06T15:40:39.659Z</time></trkpt><trkpt lat="44.05148" lon="10.1712967"><ele>324.0</ele><time>2026-04-06T15:40:40.659Z</time></trkpt><trkpt lat="44.0513783" lon="10.1712033"><ele>320.5</ele><time>2026-04-06T15:40:41.658Z</time></trkpt><trkpt lat="44.0512683" lon="10.17112"><ele>317.0</ele><time>2026-04-06T15:40:42.659Z</time></trkpt><trkpt lat="44.0511567" lon="10.1710333"><ele>317.0</ele><time>2026-04-06T15:40:43.658Z</time></trkpt><trkpt lat="44.0510467" lon="10.1709417"><ele>317.0</ele><time>2026-04-06T15:40:44.658Z</time></trkpt><trkpt lat="44.0509317" lon="10.1708483"><ele>317.0</ele><time>2026-04-06T15:40:45.658Z</time></trkpt><trkpt lat="44.050815" lon="10.1707483"><ele>317.0</ele><time>2026-04-06T15:40:46.658Z</time></trkpt><trkpt lat="44.0506983" lon="10.1706517"><ele>317.25</ele><time>2026-04-06T15:40:47.658Z</time></trkpt><trkpt lat="44.0505833" lon="10.170555"><ele>317.5</ele><time>2026-04-06T15:40:48.658Z</time></trkpt><trkpt lat="44.050465" lon="10.1704617"><ele>317.75</ele><time>2026-04-06T15:40:49.658Z</time></trkpt><trkpt lat="44.0503467" lon="10.170365"><ele>318.0</ele><time>2026-04-06T15:40:50.658Z</time></trkpt><trkpt lat="44.0502267" lon="10.1702667"><ele>318.0</ele><time>2026-04-06T15:40:51.658Z</time></trkpt><trkpt lat="44.0501117" lon="10.170165"><ele>318.0</ele><time>2026-04-06T15:40:52.658Z</time></trkpt><trkpt lat="44.0500017" lon="10.17005"><ele>318.0</ele><time>2026-04-06T15:40:53.658Z</time></trkpt><trkpt lat="44.0499017" lon="10.1699133"><ele>318.0</ele><time>2026-04-06T15:40:54.658Z</time></trkpt><trkpt lat="44.04981" lon="10.1697683"><ele>320.0</ele><time>2026-04-06T15:40:55.658Z</time></trkpt><trkpt lat="44.0497183" lon="10.1696233"><ele>322.0</ele><time>2026-04-06T15:40:56.658Z</time></trkpt><trkpt lat="44.0496283" lon="10.1694767"><ele>324.0</ele><time>2026-04-06T15:40:57.658Z</time></trkpt><trkpt lat="44.04954" lon="10.1693283"><ele>326.0</ele><time>2026-04-06T15:40:58.658Z</time></trkpt><trkpt lat="44.04945" lon="10.1691867"><ele>326.0</ele><time>2026-04-06T15:40:59.659Z</time></trkpt><trkpt lat="44.049365" lon="10.1690433"><ele>326.0</ele><time>2026-04-06T15:41:00.659Z</time></trkpt><trkpt lat="44.049275" lon="10.16891"><ele>326.0</ele><time>2026-04-06T15:41:01.658Z</time></trkpt><trkpt lat="44.0491867" lon="10.1687767"><ele>326.0</ele><time>2026-04-06T15:41:02.658Z</time></trkpt><trkpt lat="44.0491017" lon="10.1686433"><ele>328.0</ele><time>2026-04-06T15:41:03.658Z</time></trkpt><trkpt lat="44.0490183" lon="10.1685133"><ele>330.0</ele><time>2026-04-06T15:41:04.658Z</time></trkpt><trkpt lat="44.0489417" lon="10.1683933"><ele>332.0</ele><time>2026-04-06T15:41:05.658Z</time></trkpt><trkpt lat="44.048875" lon="10.1682833"><ele>334.0</ele><time>2026-04-06T15:41:06.658Z</time></trkpt><trkpt lat="44.0488133" lon="10.168175"><ele>336.0</ele><time>2026-04-06T15:41:07.658Z</time></trkpt><trkpt lat="44.048765" lon="10.1680583"><ele>336.0</ele><time>2026-04-06T15:41:08.658Z</time></trkpt><trkpt lat="44.0487183" lon="10.1679367"><ele>336.0</ele><time>2026-04-06T15:41:09.659Z</time></trkpt><trkpt lat="44.048675" lon="10.16781"><ele>336.0</ele><time>2026-04-06T15:41:10.658Z</time></trkpt><trkpt lat="44.0486433" lon="10.1676817"><ele>336.0</ele><time>2026-04-06T15:41:11.658Z</time></trkpt><trkpt lat="44.0486167" lon="10.16756"><ele>336.0</ele><time>2026-04-06T15:41:12.658Z</time></trkpt><trkpt lat="44.0485983" lon="10.1674533"><ele>336.0</ele><time>2026-04-06T15:41:13.658Z</time></trkpt><trkpt lat="44.0485917" lon="10.167365"><ele>336.0</ele><time>2026-04-06T15:41:14.658Z</time></trkpt><trkpt lat="44.0485933" lon="10.167255"><ele>336.0</ele><time>2026-04-06T15:41:16.658Z</time></trkpt><trkpt lat="44.0485617" lon="10.1673833"><ele>336.0</ele><time>2026-04-06T15:41:33.658Z</time></trkpt><trkpt lat="44.0485883" lon="10.1675483"><ele>336.0</ele><time>2026-04-06T15:41:35.658Z</time></trkpt><trkpt lat="44.0486033" lon="10.1676417"><ele>336.0</ele><time>2026-04-06T15:41:36.658Z</time></trkpt><trkpt lat="44.0486317" lon="10.167745"><ele>336.0</ele><time>2026-04-06T15:41:37.658Z</time></trkpt><trkpt lat="44.04866" lon="10.1678517"><ele>336.0</ele><time>2026-04-06T15:41:38.658Z</time></trkpt><trkpt lat="44.0486983" lon="10.1679567"><ele>336.0</ele><time>2026-04-06T15:41:39.658Z</time></trkpt><trkpt lat="44.04875" lon="10.1680583"><ele>336.0</ele><time>2026-04-06T15:41:40.658Z</time></trkpt><trkpt lat="44.0488033" lon="10.1681517"><ele>336.0</ele><time>2026-04-06T15:41:41.659Z</time></trkpt><trkpt lat="44.0488583" lon="10.16824"><ele>336.0</ele><time>2026-04-06T15:41:42.658Z</time></trkpt><trkpt lat="44.0489317" lon="10.1683217"><ele>339.0</ele><time>2026-04-06T15:41:43.658Z</time></trkpt><trkpt lat="44.049015" lon="10.1684083"><ele>342.0</ele><time>2026-04-06T15:41:44.658Z</time></trkpt><trkpt lat="44.0491083" lon="10.16849"><ele>345.0</ele><time>2026-04-06T15:41:45.658Z</time></trkpt><trkpt lat="44.049205" lon="10.1685633"><ele>348.0</ele><time>2026-04-06T15:41:46.659Z</time></trkpt><trkpt lat="44.0493017" lon="10.1686317"><ele>351.0</ele><time>2026-04-06T15:41:47.658Z</time></trkpt><trkpt lat="44.0494017" lon="10.1687017"><ele>344.75</ele><time>2026-04-06T15:41:48.659Z</time></trkpt><trkpt lat="44.0495" lon="10.1687767"><ele>338.5</ele><time>2026-04-06T15:41:49.658Z</time></trkpt><trkpt lat="44.0496" lon="10.16886"><ele>332.25</ele><time>2026-04-06T15:41:50.658Z</time></trkpt><trkpt lat="44.0496983" lon="10.1689517"><ele>326.0</ele><time>2026-04-06T15:41:51.658Z</time></trkpt><trkpt lat="44.0498017" lon="10.169035"><ele>326.0</ele><time>2026-04-06T15:41:52.658Z</time></trkpt><trkpt lat="44.0499133" lon="10.1691067"><ele>326.0</ele><time>2026-04-06T15:41:53.659Z</time></trkpt><trkpt lat="44.0500167" lon="10.1691733"><ele>326.0</ele><time>2026-04-06T15:41:54.658Z</time></trkpt><trkpt lat="44.0501167" lon="10.1692267"><ele>326.0</ele><time>2026-04-06T15:41:55.659Z</time></trkpt><trkpt lat="44.0501983" lon="10.1692883"><ele>326.0</ele><time>2026-04-06T15:41:56.658Z</time></trkpt><trkpt lat="44.05028" lon="10.169345"><ele>320.6</ele><time>2026-04-06T15:41:57.658Z</time></trkpt><trkpt lat="44.05036" lon="10.1693883"><ele>315.20000000000005</ele><time>2026-04-06T15:41:58.658Z</time></trkpt><trkpt lat="44.0504483" lon="10.16941"><ele>309.79999999999995</ele><time>2026-04-06T15:41:59.659Z</time></trkpt><trkpt lat="44.0505383" lon="10.1694117"><ele>304.4</ele><time>2026-04-06T15:42:00.658Z</time></trkpt><trkpt lat="44.0506333" lon="10.169395"><ele>299.0</ele><time>2026-04-06T15:42:01.658Z</time></trkpt><trkpt lat="44.0507333" lon="10.1693833"><ele>295.8</ele><time>2026-04-06T15:42:02.658Z</time></trkpt><trkpt lat="44.050825" lon="10.1693683"><ele>292.59999999999997</ele><time>2026-04-06T15:42:03.658Z</time></trkpt><trkpt lat="44.0509133" lon="10.1693533"><ele>289.4</ele><time>2026-04-06T15:42:04.658Z</time></trkpt><trkpt lat="44.0509983" lon="10.1693067"><ele>286.2</ele><time>2026-04-06T15:42:05.658Z</time></trkpt><trkpt lat="44.051085" lon="10.16927"><ele>283.0</ele><time>2026-04-06T15:42:06.658Z</time></trkpt><trkpt lat="44.0511717" lon="10.1692333"><ele>283.0</ele><time>2026-04-06T15:42:07.658Z</time></trkpt><trkpt lat="44.0512583" lon="10.1692117"><ele>283.0</ele><time>2026-04-06T15:42:08.658Z</time></trkpt><trkpt lat="44.051345" lon="10.1692"><ele>283.0</ele><time>2026-04-06T15:42:09.658Z</time></trkpt><trkpt lat="44.051435" lon="10.1692233"><ele>283.0</ele><time>2026-04-06T15:42:10.658Z</time></trkpt><trkpt lat="44.0515233" lon="10.169235"><ele>283.0</ele><time>2026-04-06T15:42:11.659Z</time></trkpt><trkpt lat="44.0516033" lon="10.1692867"><ele>283.0</ele><time>2026-04-06T15:42:12.658Z</time></trkpt><trkpt lat="44.0516883" lon="10.1693783"><ele>281.8</ele><time>2026-04-06T15:42:13.658Z</time></trkpt><trkpt lat="44.0517567" lon="10.169495"><ele>280.6</ele><time>2026-04-06T15:42:14.658Z</time></trkpt><trkpt lat="44.051805" lon="10.1696367"><ele>279.4</ele><time>2026-04-06T15:42:15.659Z</time></trkpt><trkpt lat="44.051865" lon="10.1697683"><ele>278.2</ele><time>2026-04-06T15:42:16.658Z</time></trkpt><trkpt lat="44.0519333" lon="10.1698967"><ele>277.0</ele><time>2026-04-06T15:42:17.658Z</time></trkpt><trkpt lat="44.0520067" lon="10.1699983"><ele>279.4</ele><time>2026-04-06T15:42:18.658Z</time></trkpt><trkpt lat="44.05208" lon="10.170065"><ele>281.79999999999995</ele><time>2026-04-06T15:42:19.658Z</time></trkpt><trkpt lat="44.0521533" lon="10.1701083"><ele>284.2</ele><time>2026-04-06T15:42:20.658Z</time></trkpt><trkpt lat="44.0522467" lon="10.170125"><ele>286.59999999999997</ele><time>2026-04-06T15:42:21.658Z</time></trkpt><trkpt lat="44.05234" lon="10.1701283"><ele>289.0</ele><time>2026-04-06T15:42:22.658Z</time></trkpt><trkpt lat="44.052435" lon="10.170135"><ele>284.4</ele><time>2026-04-06T15:42:23.658Z</time></trkpt><trkpt lat="44.052525" lon="10.1701633"><ele>279.79999999999995</ele><time>2026-04-06T15:42:24.658Z</time></trkpt><trkpt lat="44.0526133" lon="10.1702067"><ele>275.20000000000005</ele><time>2026-04-06T15:42:25.658Z</time></trkpt><trkpt lat="44.0527" lon="10.1702683"><ele>270.6</ele><time>2026-04-06T15:42:26.658Z</time></trkpt><trkpt lat="44.0527783" lon="10.1704033"><ele>266.0</ele><time>2026-04-06T15:42:27.658Z</time></trkpt><trkpt lat="44.0528433" lon="10.1704933"><ele>266.0</ele><time>2026-04-06T15:42:28.659Z</time></trkpt><trkpt lat="44.0529033" lon="10.1705917"><ele>266.0</ele><time>2026-04-06T15:42:29.659Z</time></trkpt><trkpt lat="44.0529733" lon="10.1706917"><ele>266.0</ele><time>2026-04-06T15:42:30.658Z</time></trkpt><trkpt lat="44.0530317" lon="10.1707967"><ele>266.0</ele><time>2026-04-06T15:42:31.658Z</time></trkpt><trkpt lat="44.0530817" lon="10.1708917"><ele>266.0</ele><time>2026-04-06T15:42:32.658Z</time></trkpt><trkpt lat="44.053135" lon="10.1709467"><ele>266.0</ele><time>2026-04-06T15:42:33.658Z</time></trkpt><trkpt lat="44.0531983" lon="10.1709683"><ele>266.0</ele><time>2026-04-06T15:42:34.658Z</time></trkpt><trkpt lat="44.053295" lon="10.1708817"><ele>266.0</ele><time>2026-04-06T15:42:36.658Z</time></trkpt><trkpt lat="44.05331" lon="10.17079"><ele>266.0</ele><time>2026-04-06T15:42:37.658Z</time></trkpt><trkpt lat="44.0533133" lon="10.170685"><ele>266.0</ele><time>2026-04-06T15:42:38.659Z</time></trkpt><trkpt lat="44.0533" lon="10.1705683"><ele>266.0</ele><time>2026-04-06T15:42:39.658Z</time></trkpt><trkpt lat="44.0532767" lon="10.1704467"><ele>266.0</ele><time>2026-04-06T15:42:40.658Z</time></trkpt><trkpt lat="44.0532483" lon="10.170315"><ele>266.0</ele><time>2026-04-06T15:42:41.658Z</time></trkpt><trkpt lat="44.05322" lon="10.17018"><ele>266.0</ele><time>2026-04-06T15:42:42.658Z</time></trkpt><trkpt lat="44.0531933" lon="10.17004"><ele>266.0</ele><time>2026-04-06T15:42:43.658Z</time></trkpt><trkpt lat="44.0531567" lon="10.1698933"><ele>266.0</ele><time>2026-04-06T15:42:44.659Z</time></trkpt><trkpt lat="44.0531167" lon="10.1697533"><ele>266.0</ele><time>2026-04-06T15:42:45.658Z</time></trkpt><trkpt lat="44.0530683" lon="10.16962"><ele>262.5</ele><time>2026-04-06T15:42:46.659Z</time></trkpt><trkpt lat="44.0530133" lon="10.1694867"><ele>259.0</ele><time>2026-04-06T15:42:47.658Z</time></trkpt><trkpt lat="44.052955" lon="10.1693517"><ele>255.5</ele><time>2026-04-06T15:42:48.658Z</time></trkpt><trkpt lat="44.0528883" lon="10.1692133"><ele>252.0</ele><time>2026-04-06T15:42:49.658Z</time></trkpt><trkpt lat="44.05282" lon="10.1690767"><ele>247.0</ele><time>2026-04-06T15:42:50.658Z</time></trkpt><trkpt lat="44.0527517" lon="10.16894"><ele>242.0</ele><time>2026-04-06T15:42:51.658Z</time></trkpt><trkpt lat="44.0526883" lon="10.1688017"><ele>237.0</ele><time>2026-04-06T15:42:52.658Z</time></trkpt><trkpt lat="44.0526283" lon="10.1686633"><ele>232.0</ele><time>2026-04-06T15:42:53.658Z</time></trkpt><trkpt lat="44.0525817" lon="10.1685183"><ele>232.0</ele><time>2026-04-06T15:42:54.658Z</time></trkpt><trkpt lat="44.052535" lon="10.1683767"><ele>232.0</ele><time>2026-04-06T15:42:55.658Z</time></trkpt><trkpt lat="44.0524883" lon="10.1682367"><ele>232.0</ele><time>2026-04-06T15:42:56.658Z</time></trkpt><trkpt lat="44.0524417" lon="10.1681033"><ele>232.0</ele><time>2026-04-06T15:42:57.658Z</time></trkpt><trkpt lat="44.0523967" lon="10.16797"><ele>232.0</ele><time>2026-04-06T15:42:58.658Z</time></trkpt><trkpt lat="44.0523483" lon="10.1678433"><ele>231.39999999999998</ele><time>2026-04-06T15:42:59.658Z</time></trkpt><trkpt lat="44.052295" lon="10.1677267"><ele>230.79999999999998</ele><time>2026-04-06T15:43:00.658Z</time></trkpt><trkpt lat="44.0522283" lon="10.1676267"><ele>230.2</ele><time>2026-04-06T15:43:01.659Z</time></trkpt><trkpt lat="44.0521533" lon="10.16755"><ele>229.6</ele><time>2026-04-06T15:43:02.658Z</time></trkpt><trkpt lat="44.052075" lon="10.16748"><ele>229.0</ele><time>2026-04-06T15:43:03.658Z</time></trkpt><trkpt lat="44.0519917" lon="10.1674183"><ele>225.16666666666666</ele><time>2026-04-06T15:43:04.658Z</time></trkpt><trkpt lat="44.0519117" lon="10.1673533"><ele>221.33333333333331</ele><time>2026-04-06T15:43:05.658Z</time></trkpt><trkpt lat="44.0518467" lon="10.1672633"><ele>217.5</ele><time>2026-04-06T15:43:06.659Z</time></trkpt><trkpt lat="44.0518017" lon="10.1671583"><ele>213.66666666666669</ele><time>2026-04-06T15:43:07.659Z</time></trkpt><trkpt lat="44.0517583" lon="10.1670533"><ele>209.83333333333334</ele><time>2026-04-06T15:43:08.66Z</time></trkpt><trkpt lat="44.051705" lon="10.16696"><ele>206.0</ele><time>2026-04-06T15:43:09.659Z</time></trkpt><trkpt lat="44.0516433" lon="10.1668783"><ele>211.00000000000003</ele><time>2026-04-06T15:43:10.659Z</time></trkpt><trkpt lat="44.051565" lon="10.1668217"><ele>216.0</ele><time>2026-04-06T15:43:11.659Z</time></trkpt><trkpt lat="44.0514783" lon="10.1667817"><ele>221.0</ele><time>2026-04-06T15:43:12.659Z</time></trkpt><trkpt lat="44.0513883" lon="10.1667567"><ele>226.0</ele><time>2026-04-06T15:43:13.659Z</time></trkpt><trkpt lat="44.051315" lon="10.16672"><ele>231.00000000000003</ele><time>2026-04-06T15:43:14.659Z</time></trkpt><trkpt lat="44.0512533" lon="10.1667017"><ele>236.0</ele><time>2026-04-06T15:43:15.659Z</time></trkpt><trkpt lat="44.05119" lon="10.16667"><ele>236.00000000000003</ele><time>2026-04-06T15:43:16.659Z</time></trkpt><trkpt lat="44.05112" lon="10.1665967"><ele>236.0</ele><time>2026-04-06T15:43:17.659Z</time></trkpt><trkpt lat="44.05111" lon="10.1665067"><ele>236.0</ele><time>2026-04-06T15:43:18.659Z</time></trkpt><trkpt lat="44.05111" lon="10.1663833"><ele>236.0</ele><time>2026-04-06T15:43:19.659Z</time></trkpt><trkpt lat="44.0511233" lon="10.1662617"><ele>236.00000000000003</ele><time>2026-04-06T15:43:20.659Z</time></trkpt><trkpt lat="44.05113" lon="10.1661267"><ele>236.0</ele><time>2026-04-06T15:43:21.659Z</time></trkpt><trkpt lat="44.0511283" lon="10.16599"><ele>233.0</ele><time>2026-04-06T15:43:22.659Z</time></trkpt><trkpt lat="44.0511267" lon="10.1658483"><ele>230.00000000000003</ele><time>2026-04-06T15:43:23.659Z</time></trkpt><trkpt lat="44.0511233" lon="10.1657067"><ele>227.00000000000003</ele><time>2026-04-06T15:43:24.659Z</time></trkpt><trkpt lat="44.05112" lon="10.1655633"><ele>224.0</ele><time>2026-04-06T15:43:25.659Z</time></trkpt><trkpt lat="44.05111" lon="10.1654167"><ele>221.0</ele><time>2026-04-06T15:43:26.659Z</time></trkpt><trkpt lat="44.0510983" lon="10.16527"><ele>217.0</ele><time>2026-04-06T15:43:27.66Z</time></trkpt><trkpt lat="44.051075" lon="10.1651217"><ele>213.00000000000003</ele><time>2026-04-06T15:43:28.659Z</time></trkpt><trkpt lat="44.0510483" lon="10.1649683"><ele>209.0</ele><time>2026-04-06T15:43:29.659Z</time></trkpt><trkpt lat="44.0510217" lon="10.164815"><ele>205.0</ele><time>2026-04-06T15:43:30.659Z</time></trkpt><trkpt lat="44.051" lon="10.16466"><ele>201.0</ele><time>2026-04-06T15:43:31.659Z</time></trkpt><trkpt lat="44.0509817" lon="10.1645067"><ele>201.60000000000002</ele><time>2026-04-06T15:43:32.659Z</time></trkpt><trkpt lat="44.0509583" lon="10.1643567"><ele>202.2</ele><time>2026-04-06T15:43:33.659Z</time></trkpt><trkpt lat="44.05093" lon="10.164205"><ele>202.8</ele><time>2026-04-06T15:43:34.659Z</time></trkpt><trkpt lat="44.050895" lon="10.164065"><ele>203.39999999999998</ele><time>2026-04-06T15:43:35.659Z</time></trkpt><trkpt lat="44.050835" lon="10.1639433"><ele>204.0</ele><time>2026-04-06T15:43:36.659Z</time></trkpt><trkpt lat="44.0507767" lon="10.1638267"><ele>204.0</ele><time>2026-04-06T15:43:37.66Z</time></trkpt><trkpt lat="44.0507117" lon="10.1637067"><ele>204.0</ele><time>2026-04-06T15:43:38.659Z</time></trkpt><trkpt lat="44.050655" lon="10.1635833"><ele>204.0</ele><time>2026-04-06T15:43:39.66Z</time></trkpt><trkpt lat="44.0506067" lon="10.1634467"><ele>204.0</ele><time>2026-04-06T15:43:40.659Z</time></trkpt><trkpt lat="44.0505633" lon="10.1633"><ele>204.0</ele><time>2026-04-06T15:43:41.659Z</time></trkpt><trkpt lat="44.0505283" lon="10.1631467"><ele>201.0</ele><time>2026-04-06T15:43:42.659Z</time></trkpt><trkpt lat="44.0505033" lon="10.16299"><ele>198.0</ele><time>2026-04-06T15:43:43.659Z</time></trkpt><trkpt lat="44.0504883" lon="10.1628267"><ele>195.0</ele><time>2026-04-06T15:43:44.659Z</time></trkpt><trkpt lat="44.0504867" lon="10.1626583"><ele>192.0</ele><time>2026-04-06T15:43:45.659Z</time></trkpt><trkpt lat="44.050505" lon="10.1624933"><ele>185.25</ele><time>2026-04-06T15:43:46.66Z</time></trkpt><trkpt lat="44.0505233" lon="10.162335"><ele>178.5</ele><time>2026-04-06T15:43:47.659Z</time></trkpt><trkpt lat="44.0505667" lon="10.1621817"><ele>171.75</ele><time>2026-04-06T15:43:48.659Z</time></trkpt><trkpt lat="44.0506367" lon="10.1620367"><ele>165.0</ele><time>2026-04-06T15:43:49.659Z</time></trkpt><trkpt lat="44.0506783" lon="10.1618933"><ele>165.0</ele><time>2026-04-06T15:43:50.659Z</time></trkpt><trkpt lat="44.0507067" lon="10.161745"><ele>165.0</ele><time>2026-04-06T15:43:51.659Z</time></trkpt><trkpt lat="44.0507217" lon="10.1615933"><ele>165.0</ele><time>2026-04-06T15:43:52.659Z</time></trkpt><trkpt lat="44.050695" lon="10.1614467"><ele>165.0</ele><time>2026-04-06T15:43:53.659Z</time></trkpt><trkpt lat="44.05064" lon="10.1613133"><ele>165.0</ele><time>2026-04-06T15:43:54.659Z</time></trkpt><trkpt lat="44.0505583" lon="10.1612083"><ele>157.2</ele><time>2026-04-06T15:43:55.659Z</time></trkpt><trkpt lat="44.0504683" lon="10.1611267"><ele>149.4</ele><time>2026-04-06T15:43:56.659Z</time></trkpt><trkpt lat="44.050365" lon="10.161075"><ele>141.6</ele><time>2026-04-06T15:43:57.66Z</time></trkpt><trkpt lat="44.050255" lon="10.16106"><ele>133.8</ele><time>2026-04-06T15:43:58.659Z</time></trkpt><trkpt lat="44.0501467" lon="10.16106"><ele>126.0</ele><time>2026-04-06T15:43:59.659Z</time></trkpt><trkpt lat="44.0500383" lon="10.1610517"><ele>124.19999999999999</ele><time>2026-04-06T15:44:00.659Z</time></trkpt><trkpt lat="44.049935" lon="10.16102"><ele>122.39999999999999</ele><time>2026-04-06T15:44:01.66Z</time></trkpt><trkpt lat="44.0498367" lon="10.1609483"><ele>120.6</ele><time>2026-04-06T15:44:02.659Z</time></trkpt><trkpt lat="44.04975" lon="10.1608617"><ele>118.8</ele><time>2026-04-06T15:44:03.659Z</time></trkpt><trkpt lat="44.0496633" lon="10.1607483"><ele>117.0</ele><time>2026-04-06T15:44:04.659Z</time></trkpt><trkpt lat="44.049585" lon="10.1606383"><ele>117.0</ele><time>2026-04-06T15:44:05.659Z</time></trkpt><trkpt lat="44.0495067" lon="10.160525"><ele>116.99999999999999</ele><time>2026-04-06T15:44:06.66Z</time></trkpt><trkpt lat="44.04943" lon="10.1604083"><ele>116.99999999999999</ele><time>2026-04-06T15:44:07.66Z</time></trkpt><trkpt lat="44.0493617" lon="10.16029"><ele>117.0</ele><time>2026-04-06T15:44:08.659Z</time></trkpt><trkpt lat="44.0492983" lon="10.1601733"><ele>117.0</ele><time>2026-04-06T15:44:09.659Z</time></trkpt><trkpt lat="44.0492333" lon="10.1600483"><ele>117.0</ele><time>2026-04-06T15:44:10.66Z</time></trkpt><trkpt lat="44.0491733" lon="10.1599217"><ele>116.99999999999999</ele><time>2026-04-06T15:44:11.659Z</time></trkpt><trkpt lat="44.0491067" lon="10.1598067"><ele>116.99999999999999</ele><time>2026-04-06T15:44:12.659Z</time></trkpt><trkpt lat="44.04903" lon="10.159715"><ele>117.0</ele><time>2026-04-06T15:44:13.659Z</time></trkpt><trkpt lat="44.04895" lon="10.1596267"><ele>117.0</ele><time>2026-04-06T15:44:14.659Z</time></trkpt><trkpt lat="44.048865" lon="10.1595467"><ele>115.8</ele><time>2026-04-06T15:44:15.659Z</time></trkpt><trkpt lat="44.0487917" lon="10.15947"><ele>114.6</ele><time>2026-04-06T15:44:16.659Z</time></trkpt><trkpt lat="44.04872" lon="10.159385"><ele>113.39999999999999</ele><time>2026-04-06T15:44:17.659Z</time></trkpt><trkpt lat="44.048655" lon="10.1592883"><ele>112.19999999999999</ele><time>2026-04-06T15:44:18.659Z</time></trkpt><trkpt lat="44.0485967" lon="10.15918"><ele>111.0</ele><time>2026-04-06T15:44:19.659Z</time></trkpt><trkpt lat="44.0485383" lon="10.1590667"><ele>107.4</ele><time>2026-04-06T15:44:20.659Z</time></trkpt><trkpt lat="44.04848" lon="10.1589517"><ele>103.8</ele><time>2026-04-06T15:44:21.659Z</time></trkpt><trkpt lat="44.0484217" lon="10.1588317"><ele>100.2</ele><time>2026-04-06T15:44:22.659Z</time></trkpt><trkpt lat="44.0483583" lon="10.1587067"><ele>96.60000000000001</ele><time>2026-04-06T15:44:23.659Z</time></trkpt><trkpt lat="44.048305" lon="10.158585"><ele>93.0</ele><time>2026-04-06T15:44:24.659Z</time></trkpt><trkpt lat="44.0482483" lon="10.1584617"><ele>98.5</ele><time>2026-04-06T15:44:25.659Z</time></trkpt><trkpt lat="44.048195" lon="10.1583483"><ele>104.0</ele><time>2026-04-06T15:44:26.659Z</time></trkpt><trkpt lat="44.0481433" lon="10.1582517"><ele>109.5</ele><time>2026-04-06T15:44:27.659Z</time></trkpt><trkpt lat="44.0481" lon="10.1581633"><ele>115.0</ele><time>2026-04-06T15:44:28.659Z</time></trkpt><trkpt lat="44.04807" lon="10.15808"><ele>120.5</ele><time>2026-04-06T15:44:29.66Z</time></trkpt><trkpt lat="44.0480417" lon="10.1579617"><ele>126.0</ele><time>2026-04-06T15:44:31.659Z</time></trkpt><trkpt lat="44.0480217" lon="10.15779"><ele>126.0</ele><time>2026-04-06T15:44:33.659Z</time></trkpt><trkpt lat="44.0480167" lon="10.1576833"><ele>126.0</ele><time>2026-04-06T15:44:34.659Z</time></trkpt><trkpt lat="44.048025" lon="10.157565"><ele>126.0</ele><time>2026-04-06T15:44:35.66Z</time></trkpt><trkpt lat="44.0480333" lon="10.15744"><ele>126.0</ele><time>2026-04-06T15:44:36.659Z</time></trkpt><trkpt lat="44.048045" lon="10.1573083"><ele>126.0</ele><time>2026-04-06T15:44:37.659Z</time></trkpt><trkpt lat="44.048055" lon="10.1571683"><ele>126.0</ele><time>2026-04-06T15:44:38.659Z</time></trkpt><trkpt lat="44.0480667" lon="10.157025"><ele>126.8</ele><time>2026-04-06T15:44:39.659Z</time></trkpt><trkpt lat="44.0480733" lon="10.1568783"><ele>127.6</ele><time>2026-04-06T15:44:40.66Z</time></trkpt><trkpt lat="44.0480767" lon="10.1567233"><ele>128.4</ele><time>2026-04-06T15:44:41.659Z</time></trkpt><trkpt lat="44.04807" lon="10.1565633"><ele>129.2</ele><time>2026-04-06T15:44:42.66Z</time></trkpt><trkpt lat="44.04806" lon="10.1564067"><ele>130.0</ele><time>2026-04-06T15:44:43.659Z</time></trkpt><trkpt lat="44.0480467" lon="10.1562483"><ele>123.75</ele><time>2026-04-06T15:44:44.66Z</time></trkpt><trkpt lat="44.0480117" lon="10.1560917"><ele>117.5</ele><time>2026-04-06T15:44:45.659Z</time></trkpt><trkpt lat="44.0479617" lon="10.1559333"><ele>111.25</ele><time>2026-04-06T15:44:46.659Z</time></trkpt><trkpt lat="44.0478967" lon="10.15578"><ele>105.0</ele><time>2026-04-06T15:44:47.659Z</time></trkpt><trkpt lat="44.047835" lon="10.15563"><ele>101.0</ele><time>2026-04-06T15:44:48.659Z</time></trkpt><trkpt lat="44.04775" lon="10.15549"><ele>97.0</ele><time>2026-04-06T15:44:49.66Z</time></trkpt><trkpt lat="44.0476517" lon="10.1553617"><ele>93.0</ele><time>2026-04-06T15:44:50.66Z</time></trkpt><trkpt lat="44.047535" lon="10.1552583"><ele>89.0</ele><time>2026-04-06T15:44:51.659Z</time></trkpt><trkpt lat="44.0474033" lon="10.1551817"><ele>89.0</ele><time>2026-04-06T15:44:52.659Z</time></trkpt><trkpt lat="44.0472683" lon="10.1551167"><ele>89.0</ele><time>2026-04-06T15:44:53.66Z</time></trkpt><trkpt lat="44.0471283" lon="10.1550533"><ele>89.0</ele><time>2026-04-06T15:44:54.659Z</time></trkpt><trkpt lat="44.0469867" lon="10.154985"><ele>89.0</ele><time>2026-04-06T15:44:55.659Z</time></trkpt><trkpt lat="44.0468467" lon="10.1549167"><ele>90.0</ele><time>2026-04-06T15:44:56.659Z</time></trkpt><trkpt lat="44.04671" lon="10.1548467"><ele>91.0</ele><time>2026-04-06T15:44:57.659Z</time></trkpt><trkpt lat="44.0465733" lon="10.1547767"><ele>92.0</ele><time>2026-04-06T15:44:58.659Z</time></trkpt><trkpt lat="44.04644" lon="10.154705"><ele>93.0</ele><time>2026-04-06T15:44:59.659Z</time></trkpt><trkpt lat="44.0463067" lon="10.1546267"><ele>93.0</ele><time>2026-04-06T15:45:00.659Z</time></trkpt><trkpt lat="44.0461767" lon="10.1545433"><ele>93.0</ele><time>2026-04-06T15:45:01.66Z</time></trkpt><trkpt lat="44.046055" lon="10.1544417"><ele>93.0</ele><time>2026-04-06T15:45:02.659Z</time></trkpt><trkpt lat="44.0459383" lon="10.1543267"><ele>93.0</ele><time>2026-04-06T15:45:03.659Z</time></trkpt><trkpt lat="44.0458333" lon="10.1541983"><ele>102.0</ele><time>2026-04-06T15:45:04.659Z</time></trkpt><trkpt lat="44.045735" lon="10.15407"><ele>111.0</ele><time>2026-04-06T15:45:05.66Z</time></trkpt><trkpt lat="44.045645" lon="10.153945"><ele>120.0</ele><time>2026-04-06T15:45:06.659Z</time></trkpt><trkpt lat="44.0455667" lon="10.1538067"><ele>129.0</ele><time>2026-04-06T15:45:07.659Z</time></trkpt><trkpt lat="44.045495" lon="10.15366"><ele>129.0</ele><time>2026-04-06T15:45:08.659Z</time></trkpt><trkpt lat="44.0454317" lon="10.1534967"><ele>129.0</ele><time>2026-04-06T15:45:09.659Z</time></trkpt><trkpt lat="44.0453833" lon="10.15332"><ele>129.0</ele><time>2026-04-06T15:45:10.659Z</time></trkpt><trkpt lat="44.0453583" lon="10.1531283"><ele>129.0</ele><time>2026-04-06T15:45:11.66Z</time></trkpt><trkpt lat="44.0453583" lon="10.1529217"><ele>137.0</ele><time>2026-04-06T15:45:12.659Z</time></trkpt><trkpt lat="44.0453733" lon="10.15271"><ele>145.0</ele><time>2026-04-06T15:45:13.66Z</time></trkpt><trkpt lat="44.04545" lon="10.1522967"><ele>152.0</ele><time>2026-04-06T15:45:15.66Z</time></trkpt><trkpt lat="44.0455117" lon="10.1520983"><ele>159.0</ele><time>2026-04-06T15:45:16.659Z</time></trkpt><trkpt lat="44.0455783" lon="10.1519067"><ele>166.0</ele><time>2026-04-06T15:45:17.659Z</time></trkpt><trkpt lat="44.04565" lon="10.1517217"><ele>172.5</ele><time>2026-04-06T15:45:18.659Z</time></trkpt><trkpt lat="44.0457367" lon="10.1515317"><ele>179.0</ele><time>2026-04-06T15:45:19.659Z</time></trkpt><trkpt lat="44.0458683" lon="10.1511483"><ele>154.33333333333331</ele><time>2026-04-06T15:45:21.659Z</time></trkpt><trkpt lat="44.0459367" lon="10.1509483"><ele>129.66666666666666</ele><time>2026-04-06T15:45:22.66Z</time></trkpt><trkpt lat="44.04598" lon="10.150745"><ele>105.0</ele><time>2026-04-06T15:45:23.659Z</time></trkpt><trkpt lat="44.0460083" lon="10.1505367"><ele>105.0</ele><time>2026-04-06T15:45:24.659Z</time></trkpt><trkpt lat="44.04602" lon="10.150325"><ele>105.0</ele><time>2026-04-06T15:45:25.659Z</time></trkpt><trkpt lat="44.0460117" lon="10.1501133"><ele>105.0</ele><time>2026-04-06T15:45:26.659Z</time></trkpt><trkpt lat="44.0459883" lon="10.1499"><ele>103.0</ele><time>2026-04-06T15:45:27.659Z</time></trkpt><trkpt lat="44.04597" lon="10.1496917"><ele>101.0</ele><time>2026-04-06T15:45:28.659Z</time></trkpt><trkpt lat="44.0459483" lon="10.1494817"><ele>99.0</ele><time>2026-04-06T15:45:29.659Z</time></trkpt><trkpt lat="44.0459067" lon="10.14928"><ele>99.0</ele><time>2026-04-06T15:45:30.659Z</time></trkpt><trkpt lat="44.045865" lon="10.1490783"><ele>99.0</ele><time>2026-04-06T15:45:31.659Z</time></trkpt><trkpt lat="44.04583" lon="10.148875"><ele>99.0</ele><time>2026-04-06T15:45:32.659Z</time></trkpt><trkpt lat="44.0458067" lon="10.1486733"><ele>99.0</ele><time>2026-04-06T15:45:33.659Z</time></trkpt><trkpt lat="44.045795" lon="10.1484717"><ele>94.25</ele><time>2026-04-06T15:45:34.659Z</time></trkpt><trkpt lat="44.0457917" lon="10.1482717"><ele>89.5</ele><time>2026-04-06T15:45:35.659Z</time></trkpt><trkpt lat="44.0458083" lon="10.1480767"><ele>84.75</ele><time>2026-04-06T15:45:36.659Z</time></trkpt><trkpt lat="44.045815" lon="10.1478867"><ele>80.0</ele><time>2026-04-06T15:45:37.659Z</time></trkpt><trkpt lat="44.0457967" lon="10.1477"><ele>83.5</ele><time>2026-04-06T15:45:38.659Z</time></trkpt><trkpt lat="44.0457633" lon="10.1475183"><ele>87.0</ele><time>2026-04-06T15:45:39.659Z</time></trkpt><trkpt lat="44.0457067" lon="10.1473433"><ele>90.5</ele><time>2026-04-06T15:45:40.659Z</time></trkpt><trkpt lat="44.0456517" lon="10.1471667"><ele>94.0</ele><time>2026-04-06T15:45:41.659Z</time></trkpt><trkpt lat="44.04559" lon="10.1469967"><ele>94.0</ele><time>2026-04-06T15:45:42.659Z</time></trkpt><trkpt lat="44.0455233" lon="10.1468317"><ele>94.0</ele><time>2026-04-06T15:45:43.659Z</time></trkpt><trkpt lat="44.0454417" lon="10.146685"><ele>94.0</ele><time>2026-04-06T15:45:44.659Z</time></trkpt><trkpt lat="44.0453583" lon="10.1465433"><ele>94.0</ele><time>2026-04-06T15:45:45.659Z</time></trkpt><trkpt lat="44.0452783" lon="10.1464067"><ele>89.25</ele><time>2026-04-06T15:45:46.659Z</time></trkpt><trkpt lat="44.0451817" lon="10.1462983"><ele>84.5</ele><time>2026-04-06T15:45:47.659Z</time></trkpt><trkpt lat="44.04507" lon="10.1462167"><ele>79.75</ele><time>2026-04-06T15:45:48.659Z</time></trkpt><trkpt lat="44.044955" lon="10.1461517"><ele>75.0</ele><time>2026-04-06T15:45:49.66Z</time></trkpt><trkpt lat="44.04484" lon="10.1460917"><ele>75.0</ele><time>2026-04-06T15:45:50.659Z</time></trkpt><trkpt lat="44.0447267" lon="10.1460267"><ele>75.0</ele><time>2026-04-06T15:45:51.659Z</time></trkpt><trkpt lat="44.0446217" lon="10.1459567"><ele>75.0</ele><time>2026-04-06T15:45:52.66Z</time></trkpt><trkpt lat="44.0445217" lon="10.1458733"><ele>75.0</ele><time>2026-04-06T15:45:53.659Z</time></trkpt><trkpt lat="44.044435" lon="10.145765"><ele>73.75</ele><time>2026-04-06T15:45:54.659Z</time></trkpt><trkpt lat="44.0443633" lon="10.145645"><ele>72.5</ele><time>2026-04-06T15:45:55.659Z</time></trkpt><trkpt lat="44.0443017" lon="10.1455083"><ele>71.25</ele><time>2026-04-06T15:45:56.659Z</time></trkpt><trkpt lat="44.0442417" lon="10.14536"><ele>70.0</ele><time>2026-04-06T15:45:57.66Z</time></trkpt><trkpt lat="44.0441833" lon="10.1452133"><ele>70.0</ele><time>2026-04-06T15:45:58.659Z</time></trkpt><trkpt lat="44.044115" lon="10.1450717"><ele>70.0</ele><time>2026-04-06T15:45:59.659Z</time></trkpt><trkpt lat="44.04405" lon="10.1449217"><ele>70.0</ele><time>2026-04-06T15:46:00.66Z</time></trkpt><trkpt lat="44.0439833" lon="10.144775"><ele>70.0</ele><time>2026-04-06T15:46:01.659Z</time></trkpt><trkpt lat="44.04392" lon="10.1446283"><ele>70.0</ele><time>2026-04-06T15:46:02.659Z</time></trkpt><trkpt lat="44.04386" lon="10.1444917"><ele>70.0</ele><time>2026-04-06T15:46:03.659Z</time></trkpt><trkpt lat="44.043795" lon="10.1443567"><ele>70.0</ele><time>2026-04-06T15:46:04.659Z</time></trkpt><trkpt lat="44.043735" lon="10.1442233"><ele>70.0</ele><time>2026-04-06T15:46:05.66Z</time></trkpt><trkpt lat="44.04368" lon="10.1440917"><ele>69.0</ele><time>2026-04-06T15:46:06.659Z</time></trkpt><trkpt lat="44.0436117" lon="10.1439767"><ele>68.0</ele><time>2026-04-06T15:46:07.659Z</time></trkpt><trkpt lat="44.0435517" lon="10.14386"><ele>67.0</ele><time>2026-04-06T15:46:08.659Z</time></trkpt><trkpt lat="44.04351" lon="10.143745"><ele>66.0</ele><time>2026-04-06T15:46:09.659Z</time></trkpt><trkpt lat="44.0434767" lon="10.14362"><ele>65.0</ele><time>2026-04-06T15:46:10.66Z</time></trkpt><trkpt lat="44.04344" lon="10.1434967"><ele>65.0</ele><time>2026-04-06T15:46:11.659Z</time></trkpt><trkpt lat="44.0433883" lon="10.1433817"><ele>65.0</ele><time>2026-04-06T15:46:12.659Z</time></trkpt><trkpt lat="44.0433233" lon="10.1432833"><ele>65.0</ele><time>2026-04-06T15:46:13.659Z</time></trkpt><trkpt lat="44.0432467" lon="10.14319"><ele>65.0</ele><time>2026-04-06T15:46:14.659Z</time></trkpt><trkpt lat="44.043145" lon="10.1431183"><ele>65.0</ele><time>2026-04-06T15:46:15.659Z</time></trkpt><trkpt lat="44.0430367" lon="10.1430683"><ele>64.75</ele><time>2026-04-06T15:46:16.659Z</time></trkpt><trkpt lat="44.0429283" lon="10.14302"><ele>64.5</ele><time>2026-04-06T15:46:17.66Z</time></trkpt><trkpt lat="44.0428167" lon="10.14297"><ele>64.25</ele><time>2026-04-06T15:46:18.659Z</time></trkpt><trkpt lat="44.04271" lon="10.1429183"><ele>64.0</ele><time>2026-04-06T15:46:19.659Z</time></trkpt><trkpt lat="44.0425917" lon="10.1428683"><ele>64.0</ele><time>2026-04-06T15:46:20.659Z</time></trkpt><trkpt lat="44.04247" lon="10.1428167"><ele>64.0</ele><time>2026-04-06T15:46:21.659Z</time></trkpt><trkpt lat="44.0423517" lon="10.1427617"><ele>64.0</ele><time>2026-04-06T15:46:22.659Z</time></trkpt><trkpt lat="44.04223" lon="10.1427067"><ele>64.0</ele><time>2026-04-06T15:46:23.659Z</time></trkpt><trkpt lat="44.0421133" lon="10.14265"><ele>63.5</ele><time>2026-04-06T15:46:24.659Z</time></trkpt><trkpt lat="44.0420017" lon="10.1425983"><ele>63.0</ele><time>2026-04-06T15:46:25.659Z</time></trkpt><trkpt lat="44.041895" lon="10.1425483"><ele>62.5</ele><time>2026-04-06T15:46:26.659Z</time></trkpt><trkpt lat="44.0417883" lon="10.1425033"><ele>62.0</ele><time>2026-04-06T15:46:27.659Z</time></trkpt><trkpt lat="44.0416817" lon="10.1424583"><ele>62.0</ele><time>2026-04-06T15:46:28.659Z</time></trkpt><trkpt lat="44.0415767" lon="10.1424083"><ele>62.0</ele><time>2026-04-06T15:46:29.659Z</time></trkpt><trkpt lat="44.041475" lon="10.1423567"><ele>62.0</ele><time>2026-04-06T15:46:30.659Z</time></trkpt><trkpt lat="44.041385" lon="10.1422933"><ele>62.0</ele><time>2026-04-06T15:46:31.659Z</time></trkpt><trkpt lat="44.0413017" lon="10.1422167"><ele>62.0</ele><time>2026-04-06T15:46:32.659Z</time></trkpt><trkpt lat="44.04124" lon="10.1421383"><ele>62.00000000000001</ele><time>2026-04-06T15:46:33.66Z</time></trkpt><trkpt lat="44.0411883" lon="10.1420733"><ele>62.0</ele><time>2026-04-06T15:46:34.659Z</time></trkpt><trkpt lat="44.0411033" lon="10.1419733"><ele>62.0</ele><time>2026-04-06T15:46:36.659Z</time></trkpt><trkpt lat="44.0410567" lon="10.1419067"><ele>62.0</ele><time>2026-04-06T15:46:50.659Z</time></trkpt><trkpt lat="44.041005" lon="10.1418117"><ele>62.00000000000001</ele><time>2026-04-06T15:46:52.659Z</time></trkpt><trkpt lat="44.0409667" lon="10.1417333"><ele>62.0</ele><time>2026-04-06T15:46:54.659Z</time></trkpt><trkpt lat="44.0409033" lon="10.14162"><ele>61.66666666666667</ele><time>2026-04-06T15:46:56.659Z</time></trkpt><trkpt lat="44.0408617" lon="10.14154"><ele>61.333333333333336</ele><time>2026-04-06T15:46:57.659Z</time></trkpt><trkpt lat="44.04081" lon="10.1414533"><ele>61.0</ele><time>2026-04-06T15:46:58.66Z</time></trkpt><trkpt lat="44.0407567" lon="10.14136"><ele>60.66666666666667</ele><time>2026-04-06T15:46:59.66Z</time></trkpt><trkpt lat="44.0407017" lon="10.1412567"><ele>60.333333333333336</ele><time>2026-04-06T15:47:00.66Z</time></trkpt><trkpt lat="44.040645" lon="10.1411517"><ele>60.0</ele><time>2026-04-06T15:47:01.659Z</time></trkpt><trkpt lat="44.0405917" lon="10.1410433"><ele>60.0</ele><time>2026-04-06T15:47:02.659Z</time></trkpt><trkpt lat="44.04054" lon="10.140935"><ele>60.0</ele><time>2026-04-06T15:47:03.659Z</time></trkpt><trkpt lat="44.0404783" lon="10.1408267"><ele>60.0</ele><time>2026-04-06T15:47:04.659Z</time></trkpt><trkpt lat="44.0404183" lon="10.1407133"><ele>60.0</ele><time>2026-04-06T15:47:05.659Z</time></trkpt><trkpt lat="44.0403633" lon="10.1405967"><ele>60.0</ele><time>2026-04-06T15:47:06.66Z</time></trkpt><trkpt lat="44.0403083" lon="10.1404833"><ele>59.6</ele><time>2026-04-06T15:47:07.659Z</time></trkpt><trkpt lat="44.0402517" lon="10.14037"><ele>59.2</ele><time>2026-04-06T15:47:08.659Z</time></trkpt><trkpt lat="44.0401967" lon="10.1402517"><ele>58.8</ele><time>2026-04-06T15:47:09.659Z</time></trkpt><trkpt lat="44.04014" lon="10.1401317"><ele>58.4</ele><time>2026-04-06T15:47:10.659Z</time></trkpt><trkpt lat="44.0400833" lon="10.1400017"><ele>58.0</ele><time>2026-04-06T15:47:11.659Z</time></trkpt><trkpt lat="44.04003" lon="10.13987"><ele>57.599999999999994</ele><time>2026-04-06T15:47:12.659Z</time></trkpt><trkpt lat="44.0399717" lon="10.1397433"><ele>57.199999999999996</ele><time>2026-04-06T15:47:13.659Z</time></trkpt><trkpt lat="44.0399183" lon="10.1396217"><ele>56.8</ele><time>2026-04-06T15:47:14.659Z</time></trkpt><trkpt lat="44.0398567" lon="10.1395217"><ele>56.4</ele><time>2026-04-06T15:47:15.659Z</time></trkpt><trkpt lat="44.0398083" lon="10.13942"><ele>56.0</ele><time>2026-04-06T15:47:16.659Z</time></trkpt><trkpt lat="44.0397717" lon="10.1393317"><ele>56.0</ele><time>2026-04-06T15:47:17.659Z</time></trkpt><trkpt lat="44.0397583" lon="10.139175"><ele>55.99999999999999</ele><time>2026-04-06T15:47:19.659Z</time></trkpt><trkpt lat="44.0398317" lon="10.13905"><ele>55.99999999999999</ele><time>2026-04-06T15:47:21.659Z</time></trkpt><trkpt lat="44.0399033" lon="10.1389917"><ele>56.0</ele><time>2026-04-06T15:47:22.659Z</time></trkpt><trkpt lat="44.0400367" lon="10.13895"><ele>56.0</ele><time>2026-04-06T15:47:23.659Z</time></trkpt><trkpt lat="44.04014" lon="10.1388867"><ele>51.5</ele><time>2026-04-06T15:47:24.659Z</time></trkpt><trkpt lat="44.0402433" lon="10.138815"><ele>47.0</ele><time>2026-04-06T15:47:25.659Z</time></trkpt><trkpt lat="44.0403433" lon="10.1387367"><ele>42.5</ele><time>2026-04-06T15:47:26.659Z</time></trkpt><trkpt lat="44.0404467" lon="10.13865"><ele>38.0</ele><time>2026-04-06T15:47:27.66Z</time></trkpt><trkpt lat="44.04056" lon="10.138555"><ele>38.0</ele><time>2026-04-06T15:47:28.659Z</time></trkpt><trkpt lat="44.0406717" lon="10.13846"><ele>38.0</ele><time>2026-04-06T15:47:29.659Z</time></trkpt><trkpt lat="44.0407833" lon="10.1383667"><ele>38.0</ele><time>2026-04-06T15:47:30.659Z</time></trkpt><trkpt lat="44.0408983" lon="10.1382717"><ele>38.0</ele><time>2026-04-06T15:47:31.659Z</time></trkpt><trkpt lat="44.0410133" lon="10.1381767"><ele>39.25</ele><time>2026-04-06T15:47:32.659Z</time></trkpt><trkpt lat="44.0411267" lon="10.1380833"><ele>40.5</ele><time>2026-04-06T15:47:33.659Z</time></trkpt><trkpt lat="44.0412383" lon="10.1379867"><ele>41.75</ele><time>2026-04-06T15:47:34.659Z</time></trkpt><trkpt lat="44.04135" lon="10.1378933"><ele>43.0</ele><time>2026-04-06T15:47:35.66Z</time></trkpt><trkpt lat="44.0414617" lon="10.137795"><ele>43.0</ele><time>2026-04-06T15:47:36.659Z</time></trkpt><trkpt lat="44.0415717" lon="10.137695"><ele>43.0</ele><time>2026-04-06T15:47:37.66Z</time></trkpt><trkpt lat="44.041685" lon="10.1375933"><ele>43.0</ele><time>2026-04-06T15:47:38.659Z</time></trkpt><trkpt lat="44.0417967" lon="10.1374983"><ele>43.0</ele><time>2026-04-06T15:47:39.659Z</time></trkpt><trkpt lat="44.04191" lon="10.137405"><ele>45.5</ele><time>2026-04-06T15:47:40.659Z</time></trkpt><trkpt lat="44.04202" lon="10.1373133"><ele>48.0</ele><time>2026-04-06T15:47:41.659Z</time></trkpt><trkpt lat="44.042125" lon="10.137225"><ele>50.5</ele><time>2026-04-06T15:47:42.659Z</time></trkpt><trkpt lat="44.04223" lon="10.1371333"><ele>53.0</ele><time>2026-04-06T15:47:43.659Z</time></trkpt><trkpt lat="44.042335" lon="10.137045"><ele>53.0</ele><time>2026-04-06T15:47:44.659Z</time></trkpt><trkpt lat="44.0424367" lon="10.1369567"><ele>53.0</ele><time>2026-04-06T15:47:45.659Z</time></trkpt><trkpt lat="44.04254" lon="10.136875"><ele>53.0</ele><time>2026-04-06T15:47:46.659Z</time></trkpt><trkpt lat="44.0426383" lon="10.1367933"><ele>53.0</ele><time>2026-04-06T15:47:47.659Z</time></trkpt><trkpt lat="44.0427367" lon="10.1367067"><ele>53.75</ele><time>2026-04-06T15:47:48.659Z</time></trkpt><trkpt lat="44.0428317" lon="10.1366167"><ele>54.5</ele><time>2026-04-06T15:47:49.659Z</time></trkpt><trkpt lat="44.0429283" lon="10.13653"><ele>55.25</ele><time>2026-04-06T15:47:50.659Z</time></trkpt><trkpt lat="44.0430233" lon="10.136445"><ele>56.0</ele><time>2026-04-06T15:47:51.659Z</time></trkpt><trkpt lat="44.04312" lon="10.1363633"><ele>56.0</ele><time>2026-04-06T15:47:52.659Z</time></trkpt><trkpt lat="44.043215" lon="10.1362733"><ele>56.0</ele><time>2026-04-06T15:47:53.659Z</time></trkpt><trkpt lat="44.043315" lon="10.1361867"><ele>56.0</ele><time>2026-04-06T15:47:54.659Z</time></trkpt><trkpt lat="44.0434133" lon="10.136095"><ele>56.0</ele><time>2026-04-06T15:47:55.659Z</time></trkpt><trkpt lat="44.0435133" lon="10.1360067"><ele>56.16666666666667</ele><time>2026-04-06T15:47:56.659Z</time></trkpt><trkpt lat="44.0435967" lon="10.1359367"><ele>56.333333333333336</ele><time>2026-04-06T15:47:57.659Z</time></trkpt><trkpt lat="44.043655" lon="10.135885"><ele>56.5</ele><time>2026-04-06T15:47:58.659Z</time></trkpt><trkpt lat="44.0436683" lon="10.135795"><ele>56.66666666666667</ele><time>2026-04-06T15:48:01.659Z</time></trkpt><trkpt lat="44.0435883" lon="10.1357167"><ele>56.833333333333336</ele><time>2026-04-06T15:48:03.659Z</time></trkpt><trkpt lat="44.04353" lon="10.1356517"><ele>57.0</ele><time>2026-04-06T15:48:04.659Z</time></trkpt><trkpt lat="44.0434767" lon="10.1355767"><ele>57.0</ele><time>2026-04-06T15:48:05.659Z</time></trkpt><trkpt lat="44.04341" lon="10.1354783"><ele>57.0</ele><time>2026-04-06T15:48:06.659Z</time></trkpt><trkpt lat="44.04334" lon="10.1353783"><ele>57.0</ele><time>2026-04-06T15:48:07.659Z</time></trkpt><trkpt lat="44.0432567" lon="10.135275"><ele>57.0</ele><time>2026-04-06T15:48:08.659Z</time></trkpt><trkpt lat="44.0431683" lon="10.1351683"><ele>57.0</ele><time>2026-04-06T15:48:09.659Z</time></trkpt><trkpt lat="44.0430717" lon="10.1350667"><ele>56.75</ele><time>2026-04-06T15:48:10.66Z</time></trkpt><trkpt lat="44.0429733" lon="10.1349617"><ele>56.5</ele><time>2026-04-06T15:48:11.66Z</time></trkpt><trkpt lat="44.042875" lon="10.1348567"><ele>56.25</ele><time>2026-04-06T15:48:12.659Z</time></trkpt><trkpt lat="44.0427767" lon="10.1347567"><ele>56.0</ele><time>2026-04-06T15:48:13.659Z</time></trkpt><trkpt lat="44.0426717" lon="10.1346533"><ele>55.25</ele><time>2026-04-06T15:48:14.659Z</time></trkpt><trkpt lat="44.0425667" lon="10.1345483"><ele>54.5</ele><time>2026-04-06T15:48:15.659Z</time></trkpt><trkpt lat="44.0424617" lon="10.1344433"><ele>53.75</ele><time>2026-04-06T15:48:16.659Z</time></trkpt><trkpt lat="44.0423533" lon="10.1343417"><ele>53.0</ele><time>2026-04-06T15:48:17.659Z</time></trkpt><trkpt lat="44.0422433" lon="10.1342417"><ele>52.25</ele><time>2026-04-06T15:48:18.659Z</time></trkpt><trkpt lat="44.0421333" lon="10.134135"><ele>51.5</ele><time>2026-04-06T15:48:19.66Z</time></trkpt><trkpt lat="44.0420267" lon="10.134025"><ele>50.75</ele><time>2026-04-06T15:48:20.659Z</time></trkpt><trkpt lat="44.0419183" lon="10.1339133"><ele>50.0</ele><time>2026-04-06T15:48:21.659Z</time></trkpt><trkpt lat="44.04181" lon="10.1338033"><ele>50.0</ele><time>2026-04-06T15:48:22.659Z</time></trkpt><trkpt lat="44.0417033" lon="10.1336967"><ele>50.0</ele><time>2026-04-06T15:48:23.659Z</time></trkpt><trkpt lat="44.0415967" lon="10.1335833"><ele>50.0</ele><time>2026-04-06T15:48:24.659Z</time></trkpt><trkpt lat="44.0414917" lon="10.1334783"><ele>50.0</ele><time>2026-04-06T15:48:25.66Z</time></trkpt><trkpt lat="44.04139" lon="10.13337"><ele>49.5</ele><time>2026-04-06T15:48:26.659Z</time></trkpt><trkpt lat="44.0412917" lon="10.1332667"><ele>49.0</ele><time>2026-04-06T15:48:27.659Z</time></trkpt><trkpt lat="44.0411967" lon="10.1331667"><ele>48.5</ele><time>2026-04-06T15:48:28.659Z</time></trkpt><trkpt lat="44.0411033" lon="10.1330767"><ele>48.0</ele><time>2026-04-06T15:48:29.659Z</time></trkpt><trkpt lat="44.041015" lon="10.132985"><ele>48.0</ele><time>2026-04-06T15:48:30.659Z</time></trkpt><trkpt lat="44.0409317" lon="10.1328983"><ele>48.0</ele><time>2026-04-06T15:48:31.659Z</time></trkpt><trkpt lat="44.0408583" lon="10.1328233"><ele>48.0</ele><time>2026-04-06T15:48:32.659Z</time></trkpt><trkpt lat="44.0407967" lon="10.1327567"><ele>48.0</ele><time>2026-04-06T15:48:33.659Z</time></trkpt><trkpt lat="44.040695" lon="10.1326733"><ele>48.0</ele><time>2026-04-06T15:48:35.659Z</time></trkpt><trkpt lat="44.0406417" lon="10.1326217"><ele>47.5</ele><time>2026-04-06T15:48:36.659Z</time></trkpt><trkpt lat="44.0405883" lon="10.1325617"><ele>47.0</ele><time>2026-04-06T15:48:37.659Z</time></trkpt><trkpt lat="44.04053" lon="10.1324933"><ele>46.5</ele><time>2026-04-06T15:48:38.66Z</time></trkpt><trkpt lat="44.040465" lon="10.1324133"><ele>46.0</ele><time>2026-04-06T15:48:39.659Z</time></trkpt><trkpt lat="44.0404017" lon="10.1323317"><ele>45.5</ele><time>2026-04-06T15:48:40.659Z</time></trkpt><trkpt lat="44.0403367" lon="10.1322467"><ele>45.0</ele><time>2026-04-06T15:48:41.659Z</time></trkpt><trkpt lat="44.0402667" lon="10.1321717"><ele>45.0</ele><time>2026-04-06T15:48:42.659Z</time></trkpt><trkpt lat="44.0402083" lon="10.132095"><ele>45.0</ele><time>2026-04-06T15:48:43.659Z</time></trkpt><trkpt lat="44.0401533" lon="10.13204"><ele>45.0</ele><time>2026-04-06T15:48:44.66Z</time></trkpt><trkpt lat="44.0400783" lon="10.1319583"><ele>45.0</ele><time>2026-04-06T15:48:46.66Z</time></trkpt><trkpt lat="44.04004" lon="10.1318717"><ele>45.0</ele><time>2026-04-06T15:48:48.66Z</time></trkpt><trkpt lat="44.0400367" lon="10.1317283"><ele>45.0</ele><time>2026-04-06T15:48:50.659Z</time></trkpt><trkpt lat="44.0400467" lon="10.131635"><ele>45.166666666666664</ele><time>2026-04-06T15:48:51.659Z</time></trkpt><trkpt lat="44.040055" lon="10.131535"><ele>45.333333333333336</ele><time>2026-04-06T15:48:52.659Z</time></trkpt><trkpt lat="44.04007" lon="10.1314233"><ele>45.5</ele><time>2026-04-06T15:48:53.659Z</time></trkpt><trkpt lat="44.0400867" lon="10.1313"><ele>45.66666666666667</ele><time>2026-04-06T15:48:54.659Z</time></trkpt><trkpt lat="44.0401067" lon="10.1311683"><ele>45.833333333333336</ele><time>2026-04-06T15:48:55.659Z</time></trkpt><trkpt lat="44.0401283" lon="10.1310333"><ele>46.0</ele><time>2026-04-06T15:48:56.659Z</time></trkpt><trkpt lat="44.040145" lon="10.130885"><ele>46.0</ele><time>2026-04-06T15:48:57.659Z</time></trkpt><trkpt lat="44.0401667" lon="10.1307317"><ele>46.0</ele><time>2026-04-06T15:48:58.659Z</time></trkpt><trkpt lat="44.040185" lon="10.1305717"><ele>46.0</ele><time>2026-04-06T15:48:59.659Z</time></trkpt><trkpt lat="44.0402" lon="10.13041"><ele>46.0</ele><time>2026-04-06T15:49:00.659Z</time></trkpt><trkpt lat="44.0402117" lon="10.1302467"><ele>46.0</ele><time>2026-04-06T15:49:01.659Z</time></trkpt><trkpt lat="44.0402217" lon="10.1300817"><ele>46.0</ele><time>2026-04-06T15:49:02.659Z</time></trkpt><trkpt lat="44.0402233" lon="10.1299183"><ele>46.0</ele><time>2026-04-06T15:49:03.659Z</time></trkpt><trkpt lat="44.0402283" lon="10.1297567"><ele>46.0</ele><time>2026-04-06T15:49:04.659Z</time></trkpt><trkpt lat="44.040235" lon="10.1295917"><ele>46.0</ele><time>2026-04-06T15:49:05.658Z</time></trkpt><trkpt lat="44.04024" lon="10.12942"><ele>46.0</ele><time>2026-04-06T15:49:06.658Z</time></trkpt><trkpt lat="44.040245" lon="10.1292433"><ele>46.0</ele><time>2026-04-06T15:49:07.659Z</time></trkpt><trkpt lat="44.040245" lon="10.1290683"><ele>46.0</ele><time>2026-04-06T15:49:08.659Z</time></trkpt><trkpt lat="44.04025" lon="10.1288933"><ele>45.75</ele><time>2026-04-06T15:49:09.658Z</time></trkpt><trkpt lat="44.0402567" lon="10.128715"><ele>45.5</ele><time>2026-04-06T15:49:10.658Z</time></trkpt><trkpt lat="44.04026" lon="10.1285333"><ele>45.25</ele><time>2026-04-06T15:49:11.659Z</time></trkpt><trkpt lat="44.0402617" lon="10.1283483"><ele>45.0</ele><time>2026-04-06T15:49:12.659Z</time></trkpt><trkpt lat="44.040265" lon="10.1281667"><ele>45.0</ele><time>2026-04-06T15:49:13.658Z</time></trkpt><trkpt lat="44.0402633" lon="10.127985"><ele>45.0</ele><time>2026-04-06T15:49:14.659Z</time></trkpt><trkpt lat="44.04026" lon="10.1277983"><ele>45.0</ele><time>2026-04-06T15:49:15.658Z</time></trkpt><trkpt lat="44.0402567" lon="10.127615"><ele>45.0</ele><time>2026-04-06T15:49:16.658Z</time></trkpt><trkpt lat="44.0402617" lon="10.12743"><ele>44.5</ele><time>2026-04-06T15:49:17.658Z</time></trkpt><trkpt lat="44.0402633" lon="10.127245"><ele>44.0</ele><time>2026-04-06T15:49:18.658Z</time></trkpt><trkpt lat="44.040265" lon="10.1270567"><ele>43.5</ele><time>2026-04-06T15:49:19.659Z</time></trkpt><trkpt lat="44.0402683" lon="10.1268667"><ele>43.0</ele><time>2026-04-06T15:49:20.658Z</time></trkpt><trkpt lat="44.0402717" lon="10.1266767"><ele>43.25</ele><time>2026-04-06T15:49:21.658Z</time></trkpt><trkpt lat="44.0402667" lon="10.1264883"><ele>43.5</ele><time>2026-04-06T15:49:22.658Z</time></trkpt><trkpt lat="44.0402617" lon="10.1263017"><ele>43.75</ele><time>2026-04-06T15:49:23.659Z</time></trkpt><trkpt lat="44.04026" lon="10.1261183"><ele>44.0</ele><time>2026-04-06T15:49:24.658Z</time></trkpt><trkpt lat="44.0402583" lon="10.125935"><ele>44.0</ele><time>2026-04-06T15:49:25.658Z</time></trkpt><trkpt lat="44.04026" lon="10.125755"><ele>44.0</ele><time>2026-04-06T15:49:26.658Z</time></trkpt><trkpt lat="44.04026" lon="10.125575"><ele>44.0</ele><time>2026-04-06T15:49:27.658Z</time></trkpt><trkpt lat="44.0402583" lon="10.1253933"><ele>44.0</ele><time>2026-04-06T15:49:28.658Z</time></trkpt><trkpt lat="44.0402567" lon="10.1252133"><ele>44.25</ele><time>2026-04-06T15:49:29.658Z</time></trkpt><trkpt lat="44.0402583" lon="10.1250333"><ele>44.5</ele><time>2026-04-06T15:49:30.658Z</time></trkpt><trkpt lat="44.0402567" lon="10.1248617"><ele>44.75</ele><time>2026-04-06T15:49:31.658Z</time></trkpt><trkpt lat="44.0402567" lon="10.1247017"><ele>45.0</ele><time>2026-04-06T15:49:32.658Z</time></trkpt><trkpt lat="44.04026" lon="10.1245517"><ele>45.0</ele><time>2026-04-06T15:49:33.659Z</time></trkpt><trkpt lat="44.0402617" lon="10.1244167"><ele>45.0</ele><time>2026-04-06T15:49:34.658Z</time></trkpt><trkpt lat="44.0402617" lon="10.124295"><ele>45.0</ele><time>2026-04-06T15:49:35.658Z</time></trkpt><trkpt lat="44.0402617" lon="10.1241883"><ele>45.0</ele><time>2026-04-06T15:49:36.659Z</time></trkpt><trkpt lat="44.0402667" lon="10.1240917"><ele>45.0</ele><time>2026-04-06T15:49:37.658Z</time></trkpt><trkpt lat="44.0402883" lon="10.1239333"><ele>45.0</ele><time>2026-04-06T15:49:39.658Z</time></trkpt><trkpt lat="44.04034" lon="10.123775"><ele>44.833333333333336</ele><time>2026-04-06T15:49:41.659Z</time></trkpt><trkpt lat="44.040355" lon="10.123685"><ele>44.666666666666664</ele><time>2026-04-06T15:49:42.658Z</time></trkpt><trkpt lat="44.0403633" lon="10.1235883"><ele>44.5</ele><time>2026-04-06T15:49:43.658Z</time></trkpt><trkpt lat="44.04034" lon="10.1235"><ele>44.33333333333333</ele><time>2026-04-06T15:49:44.658Z</time></trkpt><trkpt lat="44.0403" lon="10.123405"><ele>44.166666666666664</ele><time>2026-04-06T15:49:45.658Z</time></trkpt><trkpt lat="44.0402683" lon="10.123285"><ele>44.0</ele><time>2026-04-06T15:49:46.658Z</time></trkpt><trkpt lat="44.0402533" lon="10.123135"><ele>43.75</ele><time>2026-04-06T15:49:47.659Z</time></trkpt><trkpt lat="44.0402383" lon="10.1229867"><ele>43.5</ele><time>2026-04-06T15:49:48.658Z</time></trkpt><trkpt lat="44.040225" lon="10.1228317"><ele>43.25</ele><time>2026-04-06T15:49:49.659Z</time></trkpt><trkpt lat="44.040205" lon="10.12267"><ele>43.0</ele><time>2026-04-06T15:49:50.658Z</time></trkpt><trkpt lat="44.04018" lon="10.1225083"><ele>42.5</ele><time>2026-04-06T15:49:51.658Z</time></trkpt><trkpt lat="44.0401483" lon="10.1223467"><ele>42.0</ele><time>2026-04-06T15:49:52.658Z</time></trkpt><trkpt lat="44.0401083" lon="10.122185"><ele>41.5</ele><time>2026-04-06T15:49:53.658Z</time></trkpt><trkpt lat="44.0400683" lon="10.1220183"><ele>41.0</ele><time>2026-04-06T15:49:54.659Z</time></trkpt><trkpt lat="44.040025" lon="10.1218517"><ele>41.0</ele><time>2026-04-06T15:49:55.658Z</time></trkpt><trkpt lat="44.039985" lon="10.1216817"><ele>41.0</ele><time>2026-04-06T15:49:56.658Z</time></trkpt><trkpt lat="44.0399467" lon="10.1215183"><ele>41.0</ele><time>2026-04-06T15:49:57.658Z</time></trkpt><trkpt lat="44.0399117" lon="10.1213483"><ele>41.0</ele><time>2026-04-06T15:49:58.658Z</time></trkpt><trkpt lat="44.0398717" lon="10.121175"><ele>40.75</ele><time>2026-04-06T15:49:59.658Z</time></trkpt><trkpt lat="44.0398317" lon="10.1209983"><ele>40.5</ele><time>2026-04-06T15:50:00.659Z</time></trkpt><trkpt lat="44.0397933" lon="10.120815"><ele>40.25</ele><time>2026-04-06T15:50:01.658Z</time></trkpt><trkpt lat="44.0397517" lon="10.1206383"><ele>40.0</ele><time>2026-04-06T15:50:02.659Z</time></trkpt><trkpt lat="44.0397083" lon="10.120455"><ele>39.5</ele><time>2026-04-06T15:50:03.658Z</time></trkpt><trkpt lat="44.0396633" lon="10.1202683"><ele>39.0</ele><time>2026-04-06T15:50:04.658Z</time></trkpt><trkpt lat="44.039615" lon="10.1200833"><ele>38.5</ele><time>2026-04-06T15:50:05.658Z</time></trkpt><trkpt lat="44.0395667" lon="10.119895"><ele>38.0</ele><time>2026-04-06T15:50:06.658Z</time></trkpt><trkpt lat="44.03952" lon="10.1197017"><ele>38.0</ele><time>2026-04-06T15:50:07.658Z</time></trkpt><trkpt lat="44.039475" lon="10.11951"><ele>38.0</ele><time>2026-04-06T15:50:08.658Z</time></trkpt><trkpt lat="44.0394333" lon="10.11931"><ele>38.0</ele><time>2026-04-06T15:50:09.658Z</time></trkpt><trkpt lat="44.0393883" lon="10.1191167"><ele>38.0</ele><time>2026-04-06T15:50:10.658Z</time></trkpt><trkpt lat="44.0393483" lon="10.1189167"><ele>37.75</ele><time>2026-04-06T15:50:11.658Z</time></trkpt><trkpt lat="44.039305" lon="10.1187183"><ele>37.5</ele><time>2026-04-06T15:50:12.658Z</time></trkpt><trkpt lat="44.0392583" lon="10.1185267"><ele>37.25</ele><time>2026-04-06T15:50:13.658Z</time></trkpt><trkpt lat="44.0392133" lon="10.1183317"><ele>37.0</ele><time>2026-04-06T15:50:14.658Z</time></trkpt><trkpt lat="44.0391717" lon="10.11814"><ele>36.25</ele><time>2026-04-06T15:50:15.658Z</time></trkpt><trkpt lat="44.0391283" lon="10.1179433"><ele>35.5</ele><time>2026-04-06T15:50:16.658Z</time></trkpt><trkpt lat="44.0390917" lon="10.11774"><ele>34.75</ele><time>2026-04-06T15:50:17.658Z</time></trkpt><trkpt lat="44.039045" lon="10.1175483"><ele>34.0</ele><time>2026-04-06T15:50:18.658Z</time></trkpt><trkpt lat="44.039" lon="10.1173583"><ele>33.75</ele><time>2026-04-06T15:50:19.658Z</time></trkpt><trkpt lat="44.0389517" lon="10.1171717"><ele>33.5</ele><time>2026-04-06T15:50:20.658Z</time></trkpt><trkpt lat="44.0389067" lon="10.116985"><ele>33.25</ele><time>2026-04-06T15:50:21.658Z</time></trkpt><trkpt lat="44.0388633" lon="10.1167983"><ele>33.0</ele><time>2026-04-06T15:50:22.658Z</time></trkpt><trkpt lat="44.0388183" lon="10.11661"><ele>33.25</ele><time>2026-04-06T15:50:23.659Z</time></trkpt><trkpt lat="44.0387733" lon="10.116425"><ele>33.5</ele><time>2026-04-06T15:50:24.658Z</time></trkpt><trkpt lat="44.0387283" lon="10.1162367"><ele>33.75</ele><time>2026-04-06T15:50:25.658Z</time></trkpt><trkpt lat="44.038685" lon="10.116045"><ele>34.0</ele><time>2026-04-06T15:50:26.658Z</time></trkpt><trkpt lat="44.0386367" lon="10.11585"><ele>33.75</ele><time>2026-04-06T15:50:27.659Z</time></trkpt><trkpt lat="44.03859" lon="10.115655"><ele>33.5</ele><time>2026-04-06T15:50:28.658Z</time></trkpt><trkpt lat="44.0385467" lon="10.1154617"><ele>33.25</ele><time>2026-04-06T15:50:29.658Z</time></trkpt><trkpt lat="44.038505" lon="10.1152667"><ele>33.0</ele><time>2026-04-06T15:50:30.658Z</time></trkpt><trkpt lat="44.0384583" lon="10.1150733"><ele>32.5</ele><time>2026-04-06T15:50:31.658Z</time></trkpt><trkpt lat="44.0384133" lon="10.1148783"><ele>32.0</ele><time>2026-04-06T15:50:32.658Z</time></trkpt><trkpt lat="44.038365" lon="10.1146817"><ele>31.5</ele><time>2026-04-06T15:50:33.658Z</time></trkpt><trkpt lat="44.03832" lon="10.1144883"><ele>31.0</ele><time>2026-04-06T15:50:34.659Z</time></trkpt><trkpt lat="44.0382717" lon="10.1143017"><ele>30.75</ele><time>2026-04-06T15:50:35.658Z</time></trkpt><trkpt lat="44.0382217" lon="10.1141167"><ele>30.5</ele><time>2026-04-06T15:50:36.658Z</time></trkpt><trkpt lat="44.0381767" lon="10.1139217"><ele>30.25</ele><time>2026-04-06T15:50:37.658Z</time></trkpt><trkpt lat="44.0381317" lon="10.1137267"><ele>30.0</ele><time>2026-04-06T15:50:38.658Z</time></trkpt><trkpt lat="44.0380883" lon="10.113535"><ele>30.0</ele><time>2026-04-06T15:50:39.658Z</time></trkpt><trkpt lat="44.0380433" lon="10.1133467"><ele>30.0</ele><time>2026-04-06T15:50:40.658Z</time></trkpt><trkpt lat="44.0379983" lon="10.113155"><ele>30.0</ele><time>2026-04-06T15:50:41.658Z</time></trkpt><trkpt lat="44.0379517" lon="10.1129633"><ele>30.0</ele><time>2026-04-06T15:50:42.658Z</time></trkpt><trkpt lat="44.0379083" lon="10.1127783"><ele>29.75</ele><time>2026-04-06T15:50:43.658Z</time></trkpt><trkpt lat="44.037865" lon="10.1125983"><ele>29.5</ele><time>2026-04-06T15:50:44.658Z</time></trkpt><trkpt lat="44.0378217" lon="10.11241"><ele>29.25</ele><time>2026-04-06T15:50:45.658Z</time></trkpt><trkpt lat="44.0377833" lon="10.1122217"><ele>29.0</ele><time>2026-04-06T15:50:46.658Z</time></trkpt><trkpt lat="44.0377417" lon="10.112035"><ele>29.0</ele><time>2026-04-06T15:50:47.658Z</time></trkpt><trkpt lat="44.0377017" lon="10.1118483"><ele>29.0</ele><time>2026-04-06T15:50:48.658Z</time></trkpt><trkpt lat="44.0376633" lon="10.1116583"><ele>29.0</ele><time>2026-04-06T15:50:49.658Z</time></trkpt><trkpt lat="44.0376167" lon="10.1114767"><ele>29.0</ele><time>2026-04-06T15:50:50.658Z</time></trkpt><trkpt lat="44.0375717" lon="10.1112933"><ele>29.0</ele><time>2026-04-06T15:50:51.658Z</time></trkpt><trkpt lat="44.0375283" lon="10.111115"><ele>29.0</ele><time>2026-04-06T15:50:52.658Z</time></trkpt><trkpt lat="44.0374867" lon="10.1109367"><ele>29.0</ele><time>2026-04-06T15:50:53.658Z</time></trkpt><trkpt lat="44.037445" lon="10.1107683"><ele>29.0</ele><time>2026-04-06T15:50:54.658Z</time></trkpt><trkpt lat="44.0374083" lon="10.1106033"><ele>29.0</ele><time>2026-04-06T15:50:55.658Z</time></trkpt><trkpt lat="44.037375" lon="10.1104383"><ele>29.0</ele><time>2026-04-06T15:50:56.659Z</time></trkpt><trkpt lat="44.037345" lon="10.11028"><ele>29.0</ele><time>2026-04-06T15:50:57.659Z</time></trkpt><trkpt lat="44.0373167" lon="10.110125"><ele>29.0</ele><time>2026-04-06T15:50:58.658Z</time></trkpt><trkpt lat="44.03729" lon="10.1099783"><ele>28.799999999999997</ele><time>2026-04-06T15:50:59.658Z</time></trkpt><trkpt lat="44.0372667" lon="10.1098333"><ele>28.599999999999998</ele><time>2026-04-06T15:51:00.658Z</time></trkpt><trkpt lat="44.03724" lon="10.1096833"><ele>28.4</ele><time>2026-04-06T15:51:01.659Z</time></trkpt><trkpt lat="44.03722" lon="10.109525"><ele>28.2</ele><time>2026-04-06T15:51:02.659Z</time></trkpt><trkpt lat="44.037205" lon="10.1093733"><ele>28.0</ele><time>2026-04-06T15:51:03.658Z</time></trkpt><trkpt lat="44.0372" lon="10.109225"><ele>28.000000000000004</ele><time>2026-04-06T15:51:04.658Z</time></trkpt><trkpt lat="44.0371983" lon="10.1090867"><ele>28.0</ele><time>2026-04-06T15:51:05.658Z</time></trkpt><trkpt lat="44.0372" lon="10.108965"><ele>28.0</ele><time>2026-04-06T15:51:06.658Z</time></trkpt><trkpt lat="44.0371983" lon="10.108855"><ele>28.0</ele><time>2026-04-06T15:51:07.659Z</time></trkpt><trkpt lat="44.0371983" lon="10.108765"><ele>28.000000000000004</ele><time>2026-04-06T15:51:08.658Z</time></trkpt><trkpt lat="44.037195" lon="10.10867"><ele>28.0</ele><time>2026-04-06T15:51:10.658Z</time></trkpt><trkpt lat="44.0371917" lon="10.1085533"><ele>28.0</ele><time>2026-04-06T15:51:56.659Z</time></trkpt><trkpt lat="44.0371867" lon="10.1084583"><ele>27.999999999999996</ele><time>2026-04-06T15:51:57.658Z</time></trkpt><trkpt lat="44.0371817" lon="10.1083517"><ele>27.999999999999996</ele><time>2026-04-06T15:51:58.658Z</time></trkpt><trkpt lat="44.037175" lon="10.1082283"><ele>28.0</ele><time>2026-04-06T15:51:59.658Z</time></trkpt><trkpt lat="44.0371667" lon="10.1080817"><ele>28.0</ele><time>2026-04-06T15:52:00.659Z</time></trkpt><trkpt lat="44.0371617" lon="10.1079183"><ele>27.25</ele><time>2026-04-06T15:52:01.658Z</time></trkpt><trkpt lat="44.0371583" lon="10.1077467"><ele>26.5</ele><time>2026-04-06T15:52:02.658Z</time></trkpt><trkpt lat="44.0371533" lon="10.1075683"><ele>25.75</ele><time>2026-04-06T15:52:03.658Z</time></trkpt><trkpt lat="44.03715" lon="10.107385"><ele>25.0</ele><time>2026-04-06T15:52:04.659Z</time></trkpt><trkpt lat="44.037145" lon="10.1071933"><ele>24.5</ele><time>2026-04-06T15:52:05.659Z</time></trkpt><trkpt lat="44.03714" lon="10.106995"><ele>24.0</ele><time>2026-04-06T15:52:06.658Z</time></trkpt><trkpt lat="44.037135" lon="10.106795"><ele>23.5</ele><time>2026-04-06T15:52:07.658Z</time></trkpt><trkpt lat="44.0371267" lon="10.1065967"><ele>23.0</ele><time>2026-04-06T15:52:08.658Z</time></trkpt><trkpt lat="44.0371217" lon="10.1063983"><ele>22.75</ele><time>2026-04-06T15:52:09.658Z</time></trkpt><trkpt lat="44.0371217" lon="10.1062017"><ele>22.5</ele><time>2026-04-06T15:52:10.658Z</time></trkpt><trkpt lat="44.0371183" lon="10.1060033"><ele>22.25</ele><time>2026-04-06T15:52:11.658Z</time></trkpt><trkpt lat="44.03712" lon="10.1057983"><ele>22.0</ele><time>2026-04-06T15:52:12.658Z</time></trkpt><trkpt lat="44.0371117" lon="10.1056"><ele>22.0</ele><time>2026-04-06T15:52:13.658Z</time></trkpt><trkpt lat="44.0371083" lon="10.1054033"><ele>22.0</ele><time>2026-04-06T15:52:14.658Z</time></trkpt><trkpt lat="44.037105" lon="10.1052083"><ele>22.0</ele><time>2026-04-06T15:52:15.658Z</time></trkpt><trkpt lat="44.0370983" lon="10.1050167"><ele>22.0</ele><time>2026-04-06T15:52:16.659Z</time></trkpt><trkpt lat="44.037095" lon="10.1048217"><ele>21.75</ele><time>2026-04-06T15:52:17.658Z</time></trkpt><trkpt lat="44.0370867" lon="10.1046183"><ele>21.5</ele><time>2026-04-06T15:52:18.658Z</time></trkpt><trkpt lat="44.0370833" lon="10.1044167"><ele>21.25</ele><time>2026-04-06T15:52:19.658Z</time></trkpt><trkpt lat="44.0370783" lon="10.1042167"><ele>21.0</ele><time>2026-04-06T15:52:20.658Z</time></trkpt><trkpt lat="44.0370717" lon="10.1040167"><ele>21.0</ele><time>2026-04-06T15:52:21.659Z</time></trkpt><trkpt lat="44.037065" lon="10.1038183"><ele>21.0</ele><time>2026-04-06T15:52:22.659Z</time></trkpt><trkpt lat="44.03706" lon="10.10362"><ele>21.0</ele><time>2026-04-06T15:52:23.658Z</time></trkpt><trkpt lat="44.037055" lon="10.1034267"><ele>21.0</ele><time>2026-04-06T15:52:24.658Z</time></trkpt><trkpt lat="44.03705" lon="10.10323"><ele>20.25</ele><time>2026-04-06T15:52:25.658Z</time></trkpt><trkpt lat="44.0370467" lon="10.1030333"><ele>19.5</ele><time>2026-04-06T15:52:26.658Z</time></trkpt><trkpt lat="44.03704" lon="10.102835"><ele>18.75</ele><time>2026-04-06T15:52:27.658Z</time></trkpt><trkpt lat="44.0370383" lon="10.1026383"><ele>18.0</ele><time>2026-04-06T15:52:28.658Z</time></trkpt><trkpt lat="44.0370317" lon="10.1024417"><ele>17.75</ele><time>2026-04-06T15:52:29.658Z</time></trkpt><trkpt lat="44.0370267" lon="10.1022433"><ele>17.5</ele><time>2026-04-06T15:52:30.658Z</time></trkpt><trkpt lat="44.0370217" lon="10.1020433"><ele>17.25</ele><time>2026-04-06T15:52:31.658Z</time></trkpt><trkpt lat="44.0370183" lon="10.10185"><ele>17.0</ele><time>2026-04-06T15:52:32.658Z</time></trkpt><trkpt lat="44.03701" lon="10.1016667"><ele>17.5</ele><time>2026-04-06T15:52:33.659Z</time></trkpt><trkpt lat="44.037" lon="10.1014883"><ele>18.0</ele><time>2026-04-06T15:52:34.658Z</time></trkpt><trkpt lat="44.0369833" lon="10.1013233"><ele>18.5</ele><time>2026-04-06T15:52:35.659Z</time></trkpt><trkpt lat="44.0369633" lon="10.1011733"><ele>19.0</ele><time>2026-04-06T15:52:36.658Z</time></trkpt><trkpt lat="44.0369417" lon="10.1010383"><ele>19.0</ele><time>2026-04-06T15:52:37.658Z</time></trkpt><trkpt lat="44.0369317" lon="10.1009033"><ele>19.0</ele><time>2026-04-06T15:52:38.658Z</time></trkpt><trkpt lat="44.036935" lon="10.1007567"><ele>19.0</ele><time>2026-04-06T15:52:39.658Z</time></trkpt><trkpt lat="44.036945" lon="10.1006017"><ele>19.0</ele><time>2026-04-06T15:52:40.658Z</time></trkpt><trkpt lat="44.03696" lon="10.1004383"><ele>19.0</ele><time>2026-04-06T15:52:41.659Z</time></trkpt><trkpt lat="44.0369683" lon="10.1002667"><ele>18.25</ele><time>2026-04-06T15:52:42.658Z</time></trkpt><trkpt lat="44.0369667" lon="10.1000917"><ele>17.5</ele><time>2026-04-06T15:52:43.658Z</time></trkpt><trkpt lat="44.0369683" lon="10.09991"><ele>16.75</ele><time>2026-04-06T15:52:44.658Z</time></trkpt><trkpt lat="44.036975" lon="10.0997183"><ele>16.0</ele><time>2026-04-06T15:52:45.658Z</time></trkpt><trkpt lat="44.0369917" lon="10.099525"><ele>15.0</ele><time>2026-04-06T15:52:46.658Z</time></trkpt><trkpt lat="44.03701" lon="10.099325"><ele>14.0</ele><time>2026-04-06T15:52:47.658Z</time></trkpt><trkpt lat="44.0370333" lon="10.0991333"><ele>13.0</ele><time>2026-04-06T15:52:48.658Z</time></trkpt><trkpt lat="44.0370617" lon="10.098945"><ele>12.0</ele><time>2026-04-06T15:52:49.658Z</time></trkpt><trkpt lat="44.0371" lon="10.0987533"><ele>12.0</ele><time>2026-04-06T15:52:50.658Z</time></trkpt><trkpt lat="44.0371533" lon="10.0985683"><ele>12.0</ele><time>2026-04-06T15:52:51.658Z</time></trkpt><trkpt lat="44.037215" lon="10.0983867"><ele>12.0</ele><time>2026-04-06T15:52:52.658Z</time></trkpt><trkpt lat="44.0372833" lon="10.0982"><ele>12.0</ele><time>2026-04-06T15:52:53.658Z</time></trkpt><trkpt lat="44.0373533" lon="10.098015"><ele>12.333333333333332</ele><time>2026-04-06T15:52:54.658Z</time></trkpt><trkpt lat="44.0374333" lon="10.09783"><ele>12.666666666666666</ele><time>2026-04-06T15:52:55.658Z</time></trkpt><trkpt lat="44.0375183" lon="10.0976483"><ele>13.0</ele><time>2026-04-06T15:52:56.658Z</time></trkpt><trkpt lat="44.037605" lon="10.097475"><ele>13.0</ele><time>2026-04-06T15:52:57.658Z</time></trkpt><trkpt lat="44.0376983" lon="10.0973083"><ele>13.0</ele><time>2026-04-06T15:52:58.658Z</time></trkpt><trkpt lat="44.0378033" lon="10.09715"><ele>13.0</ele><time>2026-04-06T15:52:59.658Z</time></trkpt><trkpt lat="44.0379117" lon="10.0969933"><ele>13.0</ele><time>2026-04-06T15:53:00.659Z</time></trkpt><trkpt lat="44.0380267" lon="10.09684"><ele>13.0</ele><time>2026-04-06T15:53:01.658Z</time></trkpt><trkpt lat="44.038135" lon="10.0966883"><ele>13.0</ele><time>2026-04-06T15:53:02.658Z</time></trkpt><trkpt lat="44.0382433" lon="10.09654"><ele>12.0</ele><time>2026-04-06T15:53:03.658Z</time></trkpt><trkpt lat="44.0383483" lon="10.09639"><ele>11.0</ele><time>2026-04-06T15:53:04.658Z</time></trkpt><trkpt lat="44.0384533" lon="10.0962417"><ele>10.0</ele><time>2026-04-06T15:53:05.658Z</time></trkpt><trkpt lat="44.03856" lon="10.0960917"><ele>10.0</ele><time>2026-04-06T15:53:06.658Z</time></trkpt><trkpt lat="44.0386667" lon="10.0959433"><ele>10.0</ele><time>2026-04-06T15:53:07.658Z</time></trkpt><trkpt lat="44.0387683" lon="10.0957867"><ele>10.0</ele><time>2026-04-06T15:53:08.658Z</time></trkpt><trkpt lat="44.0388683" lon="10.0956367"><ele>10.0</ele><time>2026-04-06T15:53:09.658Z</time></trkpt><trkpt lat="44.0389683" lon="10.095485"><ele>10.0</ele><time>2026-04-06T15:53:10.658Z</time></trkpt><trkpt lat="44.0390717" lon="10.0953283"><ele>10.0</ele><time>2026-04-06T15:53:11.659Z</time></trkpt><trkpt lat="44.0391667" lon="10.0951717"><ele>10.0</ele><time>2026-04-06T15:53:12.658Z</time></trkpt><trkpt lat="44.0392533" lon="10.0950233"><ele>9.5</ele><time>2026-04-06T15:53:13.658Z</time></trkpt><trkpt lat="44.0393383" lon="10.09488"><ele>9.0</ele><time>2026-04-06T15:53:14.658Z</time></trkpt><trkpt lat="44.0394167" lon="10.0947367"><ele>8.5</ele><time>2026-04-06T15:53:15.658Z</time></trkpt><trkpt lat="44.0394917" lon="10.0945967"><ele>8.0</ele><time>2026-04-06T15:53:16.659Z</time></trkpt><trkpt lat="44.039565" lon="10.0944633"><ele>8.0</ele><time>2026-04-06T15:53:17.658Z</time></trkpt><trkpt lat="44.039645" lon="10.0943167"><ele>8.0</ele><time>2026-04-06T15:53:18.658Z</time></trkpt><trkpt lat="44.0397333" lon="10.0941617"><ele>8.0</ele><time>2026-04-06T15:53:19.658Z</time></trkpt><trkpt lat="44.0398233" lon="10.094"><ele>8.0</ele><time>2026-04-06T15:53:20.658Z</time></trkpt><trkpt lat="44.0399133" lon="10.09383"><ele>8.0</ele><time>2026-04-06T15:53:21.658Z</time></trkpt><trkpt lat="44.0399983" lon="10.0936733"><ele>8.0</ele><time>2026-04-06T15:53:22.659Z</time></trkpt><trkpt lat="44.0400783" lon="10.0935167"><ele>8.0</ele><time>2026-04-06T15:53:23.658Z</time></trkpt><trkpt lat="44.0401567" lon="10.093355"><ele>8.0</ele><time>2026-04-06T15:53:24.658Z</time></trkpt><trkpt lat="44.04024" lon="10.0931917"><ele>7.5</ele><time>2026-04-06T15:53:25.658Z</time></trkpt><trkpt lat="44.0403233" lon="10.0930283"><ele>7.0</ele><time>2026-04-06T15:53:26.658Z</time></trkpt><trkpt lat="44.0404083" lon="10.092865"><ele>6.5</ele><time>2026-04-06T15:53:27.659Z</time></trkpt><trkpt lat="44.0404883" lon="10.0926983"><ele>6.0</ele><time>2026-04-06T15:53:28.658Z</time></trkpt><trkpt lat="44.04057" lon="10.09253"><ele>6.25</ele><time>2026-04-06T15:53:29.658Z</time></trkpt><trkpt lat="44.0406533" lon="10.0923633"><ele>6.5</ele><time>2026-04-06T15:53:30.658Z</time></trkpt><trkpt lat="44.0407383" lon="10.0921967"><ele>6.75</ele><time>2026-04-06T15:53:31.659Z</time></trkpt><trkpt lat="44.040825" lon="10.0920283"><ele>7.0</ele><time>2026-04-06T15:53:32.658Z</time></trkpt><trkpt lat="44.0409133" lon="10.09186"><ele>7.5</ele><time>2026-04-06T15:53:33.658Z</time></trkpt><trkpt lat="44.0409983" lon="10.09169"><ele>8.0</ele><time>2026-04-06T15:53:34.658Z</time></trkpt><trkpt lat="44.0410817" lon="10.09152"><ele>8.5</ele><time>2026-04-06T15:53:35.658Z</time></trkpt><trkpt lat="44.041165" lon="10.0913517"><ele>9.0</ele><time>2026-04-06T15:53:36.658Z</time></trkpt><trkpt lat="44.04125" lon="10.0911883"><ele>9.25</ele><time>2026-04-06T15:53:37.658Z</time></trkpt><trkpt lat="44.0413317" lon="10.09103"><ele>9.5</ele><time>2026-04-06T15:53:38.658Z</time></trkpt><trkpt lat="44.041415" lon="10.0908617"><ele>9.75</ele><time>2026-04-06T15:53:39.658Z</time></trkpt><trkpt lat="44.0414917" lon="10.090695"><ele>10.0</ele><time>2026-04-06T15:53:40.658Z</time></trkpt><trkpt lat="44.0415717" lon="10.090525"><ele>9.75</ele><time>2026-04-06T15:53:41.658Z</time></trkpt><trkpt lat="44.041655" lon="10.0903633"><ele>9.5</ele><time>2026-04-06T15:53:42.658Z</time></trkpt><trkpt lat="44.0417383" lon="10.0902017"><ele>9.25</ele><time>2026-04-06T15:53:43.659Z</time></trkpt><trkpt lat="44.04182" lon="10.0900417"><ele>9.0</ele><time>2026-04-06T15:53:44.658Z</time></trkpt><trkpt lat="44.0419033" lon="10.0898767"><ele>8.75</ele><time>2026-04-06T15:53:45.659Z</time></trkpt><trkpt lat="44.0419867" lon="10.0897133"><ele>8.5</ele><time>2026-04-06T15:53:46.658Z</time></trkpt><trkpt lat="44.042065" lon="10.08955"><ele>8.25</ele><time>2026-04-06T15:53:47.658Z</time></trkpt><trkpt lat="44.0421433" lon="10.089385"><ele>8.0</ele><time>2026-04-06T15:53:48.658Z</time></trkpt><trkpt lat="44.042225" lon="10.0892217"><ele>8.0</ele><time>2026-04-06T15:53:49.658Z</time></trkpt><trkpt lat="44.0423067" lon="10.0890617"><ele>8.0</ele><time>2026-04-06T15:53:50.658Z</time></trkpt><trkpt lat="44.04239" lon="10.0889067"><ele>8.0</ele><time>2026-04-06T15:53:51.658Z</time></trkpt><trkpt lat="44.042475" lon="10.0887517"><ele>8.0</ele><time>2026-04-06T15:53:52.658Z</time></trkpt><trkpt lat="44.0425517" lon="10.0885967"><ele>8.0</ele><time>2026-04-06T15:53:53.658Z</time></trkpt><trkpt lat="44.0426317" lon="10.0884433"><ele>8.0</ele><time>2026-04-06T15:53:54.658Z</time></trkpt><trkpt lat="44.04271" lon="10.0882883"><ele>8.0</ele><time>2026-04-06T15:53:55.658Z</time></trkpt><trkpt lat="44.0427867" lon="10.0881333"><ele>8.0</ele><time>2026-04-06T15:53:56.659Z</time></trkpt><trkpt lat="44.0428683" lon="10.0879767"><ele>8.5</ele><time>2026-04-06T15:53:57.658Z</time></trkpt><trkpt lat="44.0429467" lon="10.0878233"><ele>9.0</ele><time>2026-04-06T15:53:58.658Z</time></trkpt><trkpt lat="44.0430233" lon="10.0876717"><ele>9.5</ele><time>2026-04-06T15:53:59.658Z</time></trkpt><trkpt lat="44.0430983" lon="10.0875183"><ele>10.0</ele><time>2026-04-06T15:54:00.658Z</time></trkpt><trkpt lat="44.04317" lon="10.08737"><ele>10.2</ele><time>2026-04-06T15:54:01.659Z</time></trkpt><trkpt lat="44.043235" lon="10.0872317"><ele>10.4</ele><time>2026-04-06T15:54:02.658Z</time></trkpt><trkpt lat="44.0432833" lon="10.0871033"><ele>10.600000000000001</ele><time>2026-04-06T15:54:03.658Z</time></trkpt><trkpt lat="44.0433233" lon="10.0869917"><ele>10.8</ele><time>2026-04-06T15:54:04.658Z</time></trkpt><trkpt lat="44.04336" lon="10.0869067"><ele>11.0</ele><time>2026-04-06T15:54:05.658Z</time></trkpt><trkpt lat="44.0433817" lon="10.0867967"><ele>11.0</ele><time>2026-04-06T15:54:07.658Z</time></trkpt><trkpt lat="44.04338" lon="10.0866933"><ele>11.0</ele><time>2026-04-06T15:54:10.658Z</time></trkpt><trkpt lat="44.0433817" lon="10.086585"><ele>11.0</ele><time>2026-04-06T15:54:12.658Z</time></trkpt><trkpt lat="44.0434083" lon="10.0864667"><ele>11.0</ele><time>2026-04-06T15:54:14.658Z</time></trkpt><trkpt lat="44.0434867" lon="10.08635"><ele>11.0</ele><time>2026-04-06T15:54:16.659Z</time></trkpt><trkpt lat="44.0435517" lon="10.0862983"><ele>11.0</ele><time>2026-04-06T15:54:17.658Z</time></trkpt><trkpt lat="44.04361" lon="10.0862233"><ele>11.0</ele><time>2026-04-06T15:54:18.659Z</time></trkpt><trkpt lat="44.0436583" lon="10.086135"><ele>11.0</ele><time>2026-04-06T15:54:19.658Z</time></trkpt><trkpt lat="44.0436967" lon="10.0860267"><ele>11.0</ele><time>2026-04-06T15:54:20.658Z</time></trkpt><trkpt lat="44.0437317" lon="10.0859083"><ele>11.0</ele><time>2026-04-06T15:54:21.658Z</time></trkpt><trkpt lat="44.0437717" lon="10.0857933"><ele>11.0</ele><time>2026-04-06T15:54:22.658Z</time></trkpt><trkpt lat="44.04382" lon="10.0856783"><ele>11.0</ele><time>2026-04-06T15:54:23.658Z</time></trkpt><trkpt lat="44.0439" lon="10.0855767"><ele>11.0</ele><time>2026-04-06T15:54:24.658Z</time></trkpt><trkpt lat="44.0439917" lon="10.085485"><ele>11.0</ele><time>2026-04-06T15:54:25.658Z</time></trkpt><trkpt lat="44.0440783" lon="10.08539"><ele>11.0</ele><time>2026-04-06T15:54:26.658Z</time></trkpt><trkpt lat="44.0441567" lon="10.0852867"><ele>11.0</ele><time>2026-04-06T15:54:27.658Z</time></trkpt><trkpt lat="44.044235" lon="10.085175"><ele>11.0</ele><time>2026-04-06T15:54:28.658Z</time></trkpt><trkpt lat="44.044305" lon="10.0850567"><ele>11.0</ele><time>2026-04-06T15:54:29.658Z</time></trkpt><trkpt lat="44.044375" lon="10.08493"><ele>11.0</ele><time>2026-04-06T15:54:30.658Z</time></trkpt><trkpt lat="44.04445" lon="10.0847967"><ele>11.0</ele><time>2026-04-06T15:54:31.659Z</time></trkpt><trkpt lat="44.044525" lon="10.0846583"><ele>11.0</ele><time>2026-04-06T15:54:32.658Z</time></trkpt><trkpt lat="44.0446" lon="10.0845117"><ele>11.0</ele><time>2026-04-06T15:54:33.659Z</time></trkpt><trkpt lat="44.04467" lon="10.0843583"><ele>11.0</ele><time>2026-04-06T15:54:34.659Z</time></trkpt><trkpt lat="44.0447467" lon="10.0841967"><ele>11.0</ele><time>2026-04-06T15:54:35.658Z</time></trkpt><trkpt lat="44.044825" lon="10.084035"><ele>11.0</ele><time>2026-04-06T15:54:36.658Z</time></trkpt><trkpt lat="44.04491" lon="10.0838717"><ele>11.25</ele><time>2026-04-06T15:54:37.658Z</time></trkpt><trkpt lat="44.0450017" lon="10.083705"><ele>11.5</ele><time>2026-04-06T15:54:38.658Z</time></trkpt><trkpt lat="44.0450883" lon="10.08354"><ele>11.75</ele><time>2026-04-06T15:54:39.659Z</time></trkpt><trkpt lat="44.04517" lon="10.0833833"><ele>12.0</ele><time>2026-04-06T15:54:40.658Z</time></trkpt><trkpt lat="44.04525" lon="10.0832317"><ele>12.0</ele><time>2026-04-06T15:54:41.658Z</time></trkpt><trkpt lat="44.0453333" lon="10.0830833"><ele>12.0</ele><time>2026-04-06T15:54:42.658Z</time></trkpt><trkpt lat="44.0454067" lon="10.08294"><ele>12.0</ele><time>2026-04-06T15:54:43.658Z</time></trkpt><trkpt lat="44.0454867" lon="10.0827967"><ele>12.0</ele><time>2026-04-06T15:54:44.658Z</time></trkpt><trkpt lat="44.0455633" lon="10.0826467"><ele>12.0</ele><time>2026-04-06T15:54:45.658Z</time></trkpt><trkpt lat="44.04564" lon="10.0825017"><ele>12.0</ele><time>2026-04-06T15:54:46.658Z</time></trkpt><trkpt lat="44.0457133" lon="10.0823533"><ele>12.0</ele><time>2026-04-06T15:54:47.658Z</time></trkpt><trkpt lat="44.04579" lon="10.082205"><ele>12.0</ele><time>2026-04-06T15:54:48.658Z</time></trkpt><trkpt lat="44.0458717" lon="10.0820483"><ele>12.75</ele><time>2026-04-06T15:54:49.658Z</time></trkpt><trkpt lat="44.045955" lon="10.081885"><ele>13.5</ele><time>2026-04-06T15:54:50.658Z</time></trkpt><trkpt lat="44.0460383" lon="10.0817167"><ele>14.25</ele><time>2026-04-06T15:54:51.659Z</time></trkpt><trkpt lat="44.046125" lon="10.0815433"><ele>15.0</ele><time>2026-04-06T15:54:52.658Z</time></trkpt><trkpt lat="44.046215" lon="10.0813633"><ele>15.333333333333332</ele><time>2026-04-06T15:54:53.659Z</time></trkpt><trkpt lat="44.0463033" lon="10.08119"><ele>15.666666666666666</ele><time>2026-04-06T15:54:54.658Z</time></trkpt><trkpt lat="44.0463917" lon="10.0810167"><ele>16.0</ele><time>2026-04-06T15:54:55.658Z</time></trkpt><trkpt lat="44.0464767" lon="10.080845"><ele>16.0</ele><time>2026-04-06T15:54:56.658Z</time></trkpt><trkpt lat="44.0465667" lon="10.0806733"><ele>16.0</ele><time>2026-04-06T15:54:57.658Z</time></trkpt><trkpt lat="44.046655" lon="10.0805067"><ele>16.0</ele><time>2026-04-06T15:54:58.659Z</time></trkpt><trkpt lat="44.0467383" lon="10.08034"><ele>16.0</ele><time>2026-04-06T15:54:59.658Z</time></trkpt><trkpt lat="44.04682" lon="10.0801817"><ele>16.25</ele><time>2026-04-06T15:55:00.658Z</time></trkpt><trkpt lat="44.0468983" lon="10.0800267"><ele>16.5</ele><time>2026-04-06T15:55:01.658Z</time></trkpt><trkpt lat="44.0469767" lon="10.0798733"><ele>16.75</ele><time>2026-04-06T15:55:02.659Z</time></trkpt><trkpt lat="44.0470617" lon="10.079725"><ele>17.0</ele><time>2026-04-06T15:55:03.658Z</time></trkpt><trkpt lat="44.0471417" lon="10.079585"><ele>16.5</ele><time>2026-04-06T15:55:04.658Z</time></trkpt><trkpt lat="44.0472333" lon="10.0794433"><ele>16.0</ele><time>2026-04-06T15:55:05.658Z</time></trkpt><trkpt lat="44.0473167" lon="10.0793033"><ele>15.5</ele><time>2026-04-06T15:55:06.658Z</time></trkpt><trkpt lat="44.0473983" lon="10.0791667"><ele>15.0</ele><time>2026-04-06T15:55:07.658Z</time></trkpt><trkpt lat="44.0474833" lon="10.0790317"><ele>15.0</ele><time>2026-04-06T15:55:08.658Z</time></trkpt><trkpt lat="44.04757" lon="10.0788967"><ele>15.0</ele><time>2026-04-06T15:55:09.658Z</time></trkpt><trkpt lat="44.04766" lon="10.0787617"><ele>15.0</ele><time>2026-04-06T15:55:10.658Z</time></trkpt><trkpt lat="44.0477467" lon="10.078625"><ele>15.0</ele><time>2026-04-06T15:55:11.658Z</time></trkpt><trkpt lat="44.0478383" lon="10.0784867"><ele>15.0</ele><time>2026-04-06T15:55:12.658Z</time></trkpt><trkpt lat="44.0479317" lon="10.0783417"><ele>15.0</ele><time>2026-04-06T15:55:13.658Z</time></trkpt><trkpt lat="44.0480267" lon="10.0781983"><ele>15.0</ele><time>2026-04-06T15:55:14.658Z</time></trkpt><trkpt lat="44.0481217" lon="10.078055"><ele>15.0</ele><time>2026-04-06T15:55:15.658Z</time></trkpt><trkpt lat="44.0482117" lon="10.07792"><ele>15.25</ele><time>2026-04-06T15:55:16.658Z</time></trkpt><trkpt lat="44.0482933" lon="10.077805"><ele>15.5</ele><time>2026-04-06T15:55:17.658Z</time></trkpt><trkpt lat="44.0483717" lon="10.07768"><ele>15.75</ele><time>2026-04-06T15:55:18.658Z</time></trkpt><trkpt lat="44.0484517" lon="10.0775483"><ele>16.0</ele><time>2026-04-06T15:55:19.658Z</time></trkpt><trkpt lat="44.0485433" lon="10.077405"><ele>16.5</ele><time>2026-04-06T15:55:20.658Z</time></trkpt><trkpt lat="44.048635" lon="10.077255"><ele>17.0</ele><time>2026-04-06T15:55:21.658Z</time></trkpt><trkpt lat="44.048725" lon="10.0771033"><ele>17.5</ele><time>2026-04-06T15:55:22.658Z</time></trkpt><trkpt lat="44.048805" lon="10.0769483"><ele>18.0</ele><time>2026-04-06T15:55:23.658Z</time></trkpt><trkpt lat="44.048885" lon="10.0767967"><ele>18.0</ele><time>2026-04-06T15:55:24.659Z</time></trkpt><trkpt lat="44.048965" lon="10.0766483"><ele>18.0</ele><time>2026-04-06T15:55:25.659Z</time></trkpt><trkpt lat="44.0490467" lon="10.076495"><ele>18.0</ele><time>2026-04-06T15:55:26.658Z</time></trkpt><trkpt lat="44.0491267" lon="10.0763433"><ele>18.0</ele><time>2026-04-06T15:55:27.658Z</time></trkpt><trkpt lat="44.049205" lon="10.0761983"><ele>17.6</ele><time>2026-04-06T15:55:28.658Z</time></trkpt><trkpt lat="44.049275" lon="10.0760633"><ele>17.200000000000003</ele><time>2026-04-06T15:55:29.658Z</time></trkpt><trkpt lat="44.049335" lon="10.0759417"><ele>16.8</ele><time>2026-04-06T15:55:30.658Z</time></trkpt><trkpt lat="44.0493867" lon="10.0758217"><ele>16.400000000000002</ele><time>2026-04-06T15:55:31.658Z</time></trkpt><trkpt lat="44.0494433" lon="10.0756983"><ele>16.0</ele><time>2026-04-06T15:55:32.658Z</time></trkpt><trkpt lat="44.0495017" lon="10.0755667"><ele>15.8</ele><time>2026-04-06T15:55:33.658Z</time></trkpt><trkpt lat="44.04956" lon="10.0754333"><ele>15.600000000000001</ele><time>2026-04-06T15:55:34.658Z</time></trkpt><trkpt lat="44.0496267" lon="10.07531"><ele>15.4</ele><time>2026-04-06T15:55:35.658Z</time></trkpt><trkpt lat="44.0496817" lon="10.0752017"><ele>15.2</ele><time>2026-04-06T15:55:36.659Z</time></trkpt><trkpt lat="44.0497267" lon="10.07509"><ele>15.0</ele><time>2026-04-06T15:55:37.658Z</time></trkpt><trkpt lat="44.0497767" lon="10.07498"><ele>14.6</ele><time>2026-04-06T15:55:38.659Z</time></trkpt><trkpt lat="44.0498317" lon="10.0748633"><ele>14.2</ele><time>2026-04-06T15:55:39.659Z</time></trkpt><trkpt lat="44.0498833" lon="10.0747433"><ele>13.8</ele><time>2026-04-06T15:55:40.658Z</time></trkpt><trkpt lat="44.04994" lon="10.07463"><ele>13.4</ele><time>2026-04-06T15:55:41.658Z</time></trkpt><trkpt lat="44.04999" lon="10.0745233"><ele>13.0</ele><time>2026-04-06T15:55:42.658Z</time></trkpt><trkpt lat="44.05004" lon="10.074425"><ele>14.0</ele><time>2026-04-06T15:55:43.658Z</time></trkpt><trkpt lat="44.0500833" lon="10.0743367"><ele>15.0</ele><time>2026-04-06T15:55:44.658Z</time></trkpt><trkpt lat="44.05012" lon="10.07426"><ele>16.0</ele><time>2026-04-06T15:55:45.659Z</time></trkpt><trkpt lat="44.0501667" lon="10.07415"><ele>17.0</ele><time>2026-04-06T15:55:47.658Z</time></trkpt><trkpt lat="44.0502217" lon="10.074005"><ele>18.0</ele><time>2026-04-06T15:56:01.658Z</time></trkpt><trkpt lat="44.0503167" lon="10.0738433"><ele>18.0</ele><time>2026-04-06T15:56:03.658Z</time></trkpt><trkpt lat="44.0503717" lon="10.0737433"><ele>18.0</ele><time>2026-04-06T15:56:04.658Z</time></trkpt><trkpt lat="44.0504233" lon="10.0736317"><ele>18.0</ele><time>2026-04-06T15:56:05.658Z</time></trkpt><trkpt lat="44.050485" lon="10.0735133"><ele>18.0</ele><time>2026-04-06T15:56:06.658Z</time></trkpt><trkpt lat="44.0505483" lon="10.0733933"><ele>18.0</ele><time>2026-04-06T15:56:07.658Z</time></trkpt><trkpt lat="44.0506117" lon="10.0732683"><ele>18.0</ele><time>2026-04-06T15:56:08.658Z</time></trkpt><trkpt lat="44.05068" lon="10.0731417"><ele>18.0</ele><time>2026-04-06T15:56:09.658Z</time></trkpt><trkpt lat="44.0507467" lon="10.0730083"><ele>18.0</ele><time>2026-04-06T15:56:10.658Z</time></trkpt><trkpt lat="44.0508183" lon="10.0728783"><ele>18.0</ele><time>2026-04-06T15:56:11.658Z</time></trkpt><trkpt lat="44.05089" lon="10.0727467"><ele>18.5</ele><time>2026-04-06T15:56:12.659Z</time></trkpt><trkpt lat="44.050965" lon="10.0726117"><ele>19.0</ele><time>2026-04-06T15:56:13.659Z</time></trkpt><trkpt lat="44.05104" lon="10.072475"><ele>19.5</ele><time>2026-04-06T15:56:14.658Z</time></trkpt><trkpt lat="44.0511183" lon="10.07234"><ele>20.0</ele><time>2026-04-06T15:56:15.658Z</time></trkpt><trkpt lat="44.0511933" lon="10.0722"><ele>20.0</ele><time>2026-04-06T15:56:16.659Z</time></trkpt><trkpt lat="44.0512683" lon="10.0720683"><ele>20.0</ele><time>2026-04-06T15:56:17.659Z</time></trkpt><trkpt lat="44.0513383" lon="10.0719467"><ele>20.0</ele><time>2026-04-06T15:56:18.658Z</time></trkpt><trkpt lat="44.0514033" lon="10.0718283"><ele>20.0</ele><time>2026-04-06T15:56:19.658Z</time></trkpt><trkpt lat="44.0514633" lon="10.0717117"><ele>20.0</ele><time>2026-04-06T15:56:20.658Z</time></trkpt><trkpt lat="44.0515233" lon="10.07161"><ele>20.0</ele><time>2026-04-06T15:56:21.658Z</time></trkpt><trkpt lat="44.05158" lon="10.0715067"><ele>20.0</ele><time>2026-04-06T15:56:22.658Z</time></trkpt><trkpt lat="44.0516317" lon="10.071415"><ele>20.0</ele><time>2026-04-06T15:56:23.658Z</time></trkpt><trkpt lat="44.0516783" lon="10.0713367"><ele>20.0</ele><time>2026-04-06T15:56:24.658Z</time></trkpt><trkpt lat="44.0517167" lon="10.0712667"><ele>20.0</ele><time>2026-04-06T15:56:25.658Z</time></trkpt><trkpt lat="44.0517633" lon="10.071195"><ele>20.0</ele><time>2026-04-06T15:56:27.659Z</time></trkpt><trkpt lat="44.0518033" lon="10.07112"><ele>20.2</ele><time>2026-04-06T15:56:29.658Z</time></trkpt><trkpt lat="44.0518717" lon="10.0709967"><ele>20.4</ele><time>2026-04-06T15:56:31.658Z</time></trkpt><trkpt lat="44.05192" lon="10.07091"><ele>20.6</ele><time>2026-04-06T15:56:32.658Z</time></trkpt><trkpt lat="44.051975" lon="10.07082"><ele>20.8</ele><time>2026-04-06T15:56:33.658Z</time></trkpt><trkpt lat="44.0520383" lon="10.0707167"><ele>21.0</ele><time>2026-04-06T15:56:34.659Z</time></trkpt><trkpt lat="44.0521033" lon="10.070605"><ele>21.25</ele><time>2026-04-06T15:56:35.658Z</time></trkpt><trkpt lat="44.0521733" lon="10.070485"><ele>21.5</ele><time>2026-04-06T15:56:36.658Z</time></trkpt><trkpt lat="44.0522483" lon="10.07036"><ele>21.75</ele><time>2026-04-06T15:56:37.658Z</time></trkpt><trkpt lat="44.0523233" lon="10.0702333"><ele>22.0</ele><time>2026-04-06T15:56:38.658Z</time></trkpt><trkpt lat="44.0524" lon="10.070105"><ele>22.0</ele><time>2026-04-06T15:56:39.658Z</time></trkpt><trkpt lat="44.05248" lon="10.0699733"><ele>22.0</ele><time>2026-04-06T15:56:40.658Z</time></trkpt><trkpt lat="44.05256" lon="10.0698417"><ele>22.0</ele><time>2026-04-06T15:56:41.658Z</time></trkpt><trkpt lat="44.05264" lon="10.0697083"><ele>22.0</ele><time>2026-04-06T15:56:42.658Z</time></trkpt><trkpt lat="44.0527233" lon="10.0695667"><ele>22.0</ele><time>2026-04-06T15:56:43.658Z</time></trkpt><trkpt lat="44.0528017" lon="10.0694233"><ele>22.0</ele><time>2026-04-06T15:56:44.658Z</time></trkpt><trkpt lat="44.0528817" lon="10.0692817"><ele>22.0</ele><time>2026-04-06T15:56:45.658Z</time></trkpt><trkpt lat="44.0529583" lon="10.069145"><ele>22.0</ele><time>2026-04-06T15:56:46.658Z</time></trkpt><trkpt lat="44.0530367" lon="10.069005"><ele>21.75</ele><time>2026-04-06T15:56:47.659Z</time></trkpt><trkpt lat="44.0531167" lon="10.06886"><ele>21.5</ele><time>2026-04-06T15:56:48.658Z</time></trkpt><trkpt lat="44.0531983" lon="10.06872"><ele>21.25</ele><time>2026-04-06T15:56:49.658Z</time></trkpt><trkpt lat="44.0532833" lon="10.06858"><ele>21.0</ele><time>2026-04-06T15:56:50.658Z</time></trkpt><trkpt lat="44.053365" lon="10.0684433"><ele>21.0</ele><time>2026-04-06T15:56:51.658Z</time></trkpt><trkpt lat="44.0534467" lon="10.0682983"><ele>21.0</ele><time>2026-04-06T15:56:52.658Z</time></trkpt><trkpt lat="44.05353" lon="10.0681517"><ele>21.0</ele><time>2026-04-06T15:56:53.658Z</time></trkpt><trkpt lat="44.0536183" lon="10.0680083"><ele>21.0</ele><time>2026-04-06T15:56:54.658Z</time></trkpt><trkpt lat="44.0537067" lon="10.0678683"><ele>20.75</ele><time>2026-04-06T15:56:55.658Z</time></trkpt><trkpt lat="44.053795" lon="10.06772"><ele>20.5</ele><time>2026-04-06T15:56:56.658Z</time></trkpt><trkpt lat="44.0538817" lon="10.0675733"><ele>20.25</ele><time>2026-04-06T15:56:57.658Z</time></trkpt><trkpt lat="44.0539667" lon="10.0674217"><ele>20.0</ele><time>2026-04-06T15:56:58.658Z</time></trkpt><trkpt lat="44.054055" lon="10.067265"><ele>20.25</ele><time>2026-04-06T15:56:59.658Z</time></trkpt><trkpt lat="44.0541433" lon="10.067105"><ele>20.5</ele><time>2026-04-06T15:57:00.658Z</time></trkpt><trkpt lat="44.0542333" lon="10.06695"><ele>20.75</ele><time>2026-04-06T15:57:01.658Z</time></trkpt><trkpt lat="44.0543217" lon="10.0667983"><ele>21.0</ele><time>2026-04-06T15:57:02.658Z</time></trkpt><trkpt lat="44.0544083" lon="10.066645"><ele>20.75</ele><time>2026-04-06T15:57:03.658Z</time></trkpt><trkpt lat="44.0544933" lon="10.0664883"><ele>20.5</ele><time>2026-04-06T15:57:04.658Z</time></trkpt><trkpt lat="44.05458" lon="10.066335"><ele>20.25</ele><time>2026-04-06T15:57:05.659Z</time></trkpt><trkpt lat="44.0546683" lon="10.06618"><ele>20.0</ele><time>2026-04-06T15:57:06.658Z</time></trkpt><trkpt lat="44.0547567" lon="10.0660283"><ele>20.0</ele><time>2026-04-06T15:57:07.658Z</time></trkpt><trkpt lat="44.0548417" lon="10.06587"><ele>20.0</ele><time>2026-04-06T15:57:08.658Z</time></trkpt><trkpt lat="44.0549217" lon="10.06571"><ele>20.0</ele><time>2026-04-06T15:57:09.658Z</time></trkpt><trkpt lat="44.0549983" lon="10.0655483"><ele>20.0</ele><time>2026-04-06T15:57:10.658Z</time></trkpt><trkpt lat="44.0550567" lon="10.0653733"><ele>20.0</ele><time>2026-04-06T15:57:11.658Z</time></trkpt><trkpt lat="44.0551017" lon="10.0652"><ele>20.0</ele><time>2026-04-06T15:57:12.659Z</time></trkpt><trkpt lat="44.0551333" lon="10.0650217"><ele>20.0</ele><time>2026-04-06T15:57:13.658Z</time></trkpt><trkpt lat="44.0551533" lon="10.06485"><ele>20.0</ele><time>2026-04-06T15:57:14.658Z</time></trkpt><trkpt lat="44.055165" lon="10.0646833"><ele>20.0</ele><time>2026-04-06T15:57:15.659Z</time></trkpt><trkpt lat="44.05517" lon="10.064525"><ele>20.0</ele><time>2026-04-06T15:57:16.658Z</time></trkpt><trkpt lat="44.0551733" lon="10.064375"><ele>20.0</ele><time>2026-04-06T15:57:17.658Z</time></trkpt><trkpt lat="44.0551683" lon="10.0642417"><ele>20.0</ele><time>2026-04-06T15:57:18.658Z</time></trkpt><trkpt lat="44.0551617" lon="10.0641233"><ele>20.0</ele><time>2026-04-06T15:57:19.658Z</time></trkpt><trkpt lat="44.0551517" lon="10.06402"><ele>19.6</ele><time>2026-04-06T15:57:20.658Z</time></trkpt><trkpt lat="44.05514" lon="10.0639283"><ele>19.2</ele><time>2026-04-06T15:57:21.658Z</time></trkpt><trkpt lat="44.0551333" lon="10.0637633"><ele>18.8</ele><time>2026-04-06T15:57:23.658Z</time></trkpt><trkpt lat="44.055125" lon="10.0636617"><ele>18.4</ele><time>2026-04-06T15:57:25.658Z</time></trkpt><trkpt lat="44.0551033" lon="10.0634667"><ele>18.0</ele><time>2026-04-06T15:57:53.658Z</time></trkpt><trkpt lat="44.0550967" lon="10.0633717"><ele>18.2</ele><time>2026-04-06T15:57:55.658Z</time></trkpt><trkpt lat="44.055105" lon="10.0632433"><ele>18.4</ele><time>2026-04-06T15:58:00.658Z</time></trkpt><trkpt lat="44.0551683" lon="10.063105"><ele>18.599999999999998</ele><time>2026-04-06T15:58:02.658Z</time></trkpt><trkpt lat="44.0552083" lon="10.062985"><ele>18.8</ele><time>2026-04-06T15:58:03.658Z</time></trkpt><trkpt lat="44.05523" lon="10.0628517"><ele>19.0</ele><time>2026-04-06T15:58:04.658Z</time></trkpt><trkpt lat="44.0552317" lon="10.0626967"><ele>19.0</ele><time>2026-04-06T15:58:05.658Z</time></trkpt><trkpt lat="44.055245" lon="10.06254"><ele>19.0</ele><time>2026-04-06T15:58:06.658Z</time></trkpt><trkpt lat="44.0552717" lon="10.06238"><ele>19.0</ele><time>2026-04-06T15:58:07.658Z</time></trkpt><trkpt lat="44.0553217" lon="10.06222"><ele>19.0</ele><time>2026-04-06T15:58:08.658Z</time></trkpt><trkpt lat="44.0553883" lon="10.062065"><ele>18.75</ele><time>2026-04-06T15:58:09.658Z</time></trkpt><trkpt lat="44.05547" lon="10.0619133"><ele>18.5</ele><time>2026-04-06T15:58:10.658Z</time></trkpt><trkpt lat="44.0555583" lon="10.0617617"><ele>18.25</ele><time>2026-04-06T15:58:11.658Z</time></trkpt><trkpt lat="44.05565" lon="10.061605"><ele>18.0</ele><time>2026-04-06T15:58:12.658Z</time></trkpt><trkpt lat="44.0557417" lon="10.06145"><ele>17.75</ele><time>2026-04-06T15:58:13.658Z</time></trkpt><trkpt lat="44.0558367" lon="10.06129"><ele>17.5</ele><time>2026-04-06T15:58:14.658Z</time></trkpt><trkpt lat="44.05593" lon="10.06113"><ele>17.25</ele><time>2026-04-06T15:58:15.658Z</time></trkpt><trkpt lat="44.056025" lon="10.0609717"><ele>17.0</ele><time>2026-04-06T15:58:16.659Z</time></trkpt><trkpt lat="44.0561183" lon="10.0608117"><ele>17.0</ele><time>2026-04-06T15:58:17.658Z</time></trkpt><trkpt lat="44.0562133" lon="10.06065"><ele>17.0</ele><time>2026-04-06T15:58:18.658Z</time></trkpt><trkpt lat="44.0563083" lon="10.060485"><ele>17.0</ele><time>2026-04-06T15:58:19.658Z</time></trkpt><trkpt lat="44.0564017" lon="10.0603317"><ele>17.0</ele><time>2026-04-06T15:58:20.658Z</time></trkpt><trkpt lat="44.0565017" lon="10.060175"><ele>17.0</ele><time>2026-04-06T15:58:21.659Z</time></trkpt><trkpt lat="44.0565967" lon="10.0600233"><ele>17.0</ele><time>2026-04-06T15:58:22.658Z</time></trkpt><trkpt lat="44.0566917" lon="10.059865"><ele>17.0</ele><time>2026-04-06T15:58:23.659Z</time></trkpt><trkpt lat="44.0567867" lon="10.059705"><ele>17.0</ele><time>2026-04-06T15:58:24.658Z</time></trkpt><trkpt lat="44.0568767" lon="10.0595433"><ele>17.0</ele><time>2026-04-06T15:58:25.658Z</time></trkpt><trkpt lat="44.0569667" lon="10.0593767"><ele>17.0</ele><time>2026-04-06T15:58:26.659Z</time></trkpt><trkpt lat="44.05706" lon="10.0592117"><ele>17.0</ele><time>2026-04-06T15:58:27.658Z</time></trkpt><trkpt lat="44.05715" lon="10.05905"><ele>17.0</ele><time>2026-04-06T15:58:28.658Z</time></trkpt><trkpt lat="44.05724" lon="10.058895"><ele>17.5</ele><time>2026-04-06T15:58:29.658Z</time></trkpt><trkpt lat="44.0573317" lon="10.058745"><ele>18.0</ele><time>2026-04-06T15:58:30.658Z</time></trkpt><trkpt lat="44.0574233" lon="10.0585983"><ele>18.5</ele><time>2026-04-06T15:58:31.658Z</time></trkpt><trkpt lat="44.0575133" lon="10.05845"><ele>19.0</ele><time>2026-04-06T15:58:32.658Z</time></trkpt><trkpt lat="44.0575983" lon="10.0583"><ele>18.5</ele><time>2026-04-06T15:58:33.659Z</time></trkpt><trkpt lat="44.0576783" lon="10.0581533"><ele>18.0</ele><time>2026-04-06T15:58:34.658Z</time></trkpt><trkpt lat="44.0577633" lon="10.058005"><ele>17.5</ele><time>2026-04-06T15:58:35.658Z</time></trkpt><trkpt lat="44.057855" lon="10.057865"><ele>17.0</ele><time>2026-04-06T15:58:36.658Z</time></trkpt><trkpt lat="44.0579417" lon="10.05771"><ele>17.0</ele><time>2026-04-06T15:58:37.659Z</time></trkpt><trkpt lat="44.0580217" lon="10.0575517"><ele>17.0</ele><time>2026-04-06T15:58:38.658Z</time></trkpt><trkpt lat="44.0580983" lon="10.0573967"><ele>17.0</ele><time>2026-04-06T15:58:39.658Z</time></trkpt><trkpt lat="44.0581717" lon="10.0572317"><ele>17.0</ele><time>2026-04-06T15:58:40.658Z</time></trkpt><trkpt lat="44.0582417" lon="10.0570583"><ele>17.0</ele><time>2026-04-06T15:58:41.659Z</time></trkpt><trkpt lat="44.0583067" lon="10.0568767"><ele>17.0</ele><time>2026-04-06T15:58:42.658Z</time></trkpt><trkpt lat="44.05836" lon="10.0566867"><ele>17.0</ele><time>2026-04-06T15:58:43.658Z</time></trkpt><trkpt lat="44.0584033" lon="10.0564917"><ele>17.0</ele><time>2026-04-06T15:58:44.658Z</time></trkpt><trkpt lat="44.0584383" lon="10.0562933"><ele>16.5</ele><time>2026-04-06T15:58:45.658Z</time></trkpt><trkpt lat="44.05847" lon="10.0560933"><ele>16.0</ele><time>2026-04-06T15:58:46.658Z</time></trkpt><trkpt lat="44.0584917" lon="10.0558967"><ele>15.5</ele><time>2026-04-06T15:58:47.658Z</time></trkpt><trkpt lat="44.0585067" lon="10.0556983"><ele>15.0</ele><time>2026-04-06T15:58:48.658Z</time></trkpt><trkpt lat="44.05852" lon="10.0554967"><ele>15.0</ele><time>2026-04-06T15:58:49.658Z</time></trkpt><trkpt lat="44.05854" lon="10.055295"><ele>15.0</ele><time>2026-04-06T15:58:50.658Z</time></trkpt><trkpt lat="44.0585517" lon="10.0550917"><ele>15.0</ele><time>2026-04-06T15:58:51.658Z</time></trkpt><trkpt lat="44.0585683" lon="10.05489"><ele>15.0</ele><time>2026-04-06T15:58:52.658Z</time></trkpt><trkpt lat="44.058585" lon="10.0546917"><ele>14.75</ele><time>2026-04-06T15:58:53.658Z</time></trkpt><trkpt lat="44.0586033" lon="10.0544967"><ele>14.5</ele><time>2026-04-06T15:58:54.658Z</time></trkpt><trkpt lat="44.0586217" lon="10.0543"><ele>14.25</ele><time>2026-04-06T15:58:55.658Z</time></trkpt><trkpt lat="44.0586367" lon="10.0541133"><ele>14.0</ele><time>2026-04-06T15:58:56.658Z</time></trkpt><trkpt lat="44.0586483" lon="10.0539217"><ele>13.75</ele><time>2026-04-06T15:58:57.659Z</time></trkpt><trkpt lat="44.0586667" lon="10.0537317"><ele>13.5</ele><time>2026-04-06T15:58:58.659Z</time></trkpt><trkpt lat="44.05868" lon="10.0535417"><ele>13.25</ele><time>2026-04-06T15:58:59.658Z</time></trkpt><trkpt lat="44.05869" lon="10.05335"><ele>13.0</ele><time>2026-04-06T15:59:00.658Z</time></trkpt><trkpt lat="44.0587017" lon="10.0531583"><ele>12.5</ele><time>2026-04-06T15:59:01.658Z</time></trkpt><trkpt lat="44.0587167" lon="10.0529667"><ele>12.0</ele><time>2026-04-06T15:59:02.658Z</time></trkpt><trkpt lat="44.0587367" lon="10.0527783"><ele>11.5</ele><time>2026-04-06T15:59:03.658Z</time></trkpt><trkpt lat="44.05875" lon="10.05259"><ele>11.0</ele><time>2026-04-06T15:59:04.658Z</time></trkpt><trkpt lat="44.0587617" lon="10.0523983"><ele>10.5</ele><time>2026-04-06T15:59:05.658Z</time></trkpt><trkpt lat="44.0587733" lon="10.0522033"><ele>10.0</ele><time>2026-04-06T15:59:06.658Z</time></trkpt><trkpt lat="44.0587883" lon="10.0520067"><ele>9.5</ele><time>2026-04-06T15:59:07.659Z</time></trkpt><trkpt lat="44.058805" lon="10.051805"><ele>9.0</ele><time>2026-04-06T15:59:08.658Z</time></trkpt><trkpt lat="44.05882" lon="10.0516067"><ele>9.0</ele><time>2026-04-06T15:59:09.658Z</time></trkpt><trkpt lat="44.0588333" lon="10.0514033"><ele>9.0</ele><time>2026-04-06T15:59:10.658Z</time></trkpt><trkpt lat="44.0588467" lon="10.0511983"><ele>9.0</ele><time>2026-04-06T15:59:11.658Z</time></trkpt><trkpt lat="44.0588617" lon="10.0509933"><ele>9.0</ele><time>2026-04-06T15:59:12.658Z</time></trkpt><trkpt lat="44.0588783" lon="10.0507917"><ele>8.75</ele><time>2026-04-06T15:59:13.658Z</time></trkpt><trkpt lat="44.0588967" lon="10.0505867"><ele>8.5</ele><time>2026-04-06T15:59:14.658Z</time></trkpt><trkpt lat="44.0589133" lon="10.0503867"><ele>8.25</ele><time>2026-04-06T15:59:15.658Z</time></trkpt><trkpt lat="44.058935" lon="10.0501917"><ele>8.0</ele><time>2026-04-06T15:59:16.658Z</time></trkpt><trkpt lat="44.05896" lon="10.0500033"><ele>7.75</ele><time>2026-04-06T15:59:17.658Z</time></trkpt><trkpt lat="44.05898" lon="10.04982"><ele>7.5</ele><time>2026-04-06T15:59:18.658Z</time></trkpt><trkpt lat="44.0589967" lon="10.0496417"><ele>7.25</ele><time>2026-04-06T15:59:19.658Z</time></trkpt><trkpt lat="44.05901" lon="10.0494667"><ele>7.0</ele><time>2026-04-06T15:59:20.658Z</time></trkpt><trkpt lat="44.059025" lon="10.049295"><ele>7.0</ele><time>2026-04-06T15:59:21.658Z</time></trkpt><trkpt lat="44.0590383" lon="10.0491283"><ele>6.999999999999999</ele><time>2026-04-06T15:59:22.658Z</time></trkpt><trkpt lat="44.0590517" lon="10.0489683"><ele>6.999999999999999</ele><time>2026-04-06T15:59:23.658Z</time></trkpt><trkpt lat="44.0590617" lon="10.0488183"><ele>7.0</ele><time>2026-04-06T15:59:24.658Z</time></trkpt><trkpt lat="44.0590717" lon="10.0486767"><ele>7.0</ele><time>2026-04-06T15:59:25.659Z</time></trkpt><trkpt lat="44.0590817" lon="10.0485483"><ele>6.833333333333334</ele><time>2026-04-06T15:59:26.658Z</time></trkpt><trkpt lat="44.0590883" lon="10.0484367"><ele>6.666666666666667</ele><time>2026-04-06T15:59:27.658Z</time></trkpt><trkpt lat="44.059095" lon="10.0483333"><ele>6.5</ele><time>2026-04-06T15:59:28.658Z</time></trkpt><trkpt lat="44.0591017" lon="10.0482317"><ele>6.333333333333334</ele><time>2026-04-06T15:59:29.658Z</time></trkpt><trkpt lat="44.05911" lon="10.048125"><ele>6.166666666666667</ele><time>2026-04-06T15:59:30.658Z</time></trkpt><trkpt lat="44.059115" lon="10.0480167"><ele>6.0</ele><time>2026-04-06T15:59:31.658Z</time></trkpt><trkpt lat="44.0591217" lon="10.0479033"><ele>5.833333333333333</ele><time>2026-04-06T15:59:32.658Z</time></trkpt><trkpt lat="44.0591283" lon="10.0477867"><ele>5.666666666666667</ele><time>2026-04-06T15:59:33.658Z</time></trkpt><trkpt lat="44.0591383" lon="10.047665"><ele>5.5</ele><time>2026-04-06T15:59:34.658Z</time></trkpt><trkpt lat="44.05915" lon="10.0475383"><ele>5.333333333333334</ele><time>2026-04-06T15:59:35.658Z</time></trkpt><trkpt lat="44.0591583" lon="10.04741"><ele>5.166666666666667</ele><time>2026-04-06T15:59:36.658Z</time></trkpt><trkpt lat="44.0591683" lon="10.0472817"><ele>5.0</ele><time>2026-04-06T15:59:37.659Z</time></trkpt><trkpt lat="44.0591783" lon="10.0471433"><ele>5.0</ele><time>2026-04-06T15:59:38.658Z</time></trkpt><trkpt lat="44.0591933" lon="10.0470017"><ele>5.0</ele><time>2026-04-06T15:59:39.658Z</time></trkpt><trkpt lat="44.0592083" lon="10.04686"><ele>5.0</ele><time>2026-04-06T15:59:40.659Z</time></trkpt><trkpt lat="44.059225" lon="10.0467217"><ele>5.0</ele><time>2026-04-06T15:59:41.658Z</time></trkpt><trkpt lat="44.0592417" lon="10.0465883"><ele>5.0</ele><time>2026-04-06T15:59:42.658Z</time></trkpt><trkpt lat="44.059265" lon="10.0464617"><ele>5.0</ele><time>2026-04-06T15:59:43.658Z</time></trkpt><trkpt lat="44.0592917" lon="10.04634"><ele>5.0</ele><time>2026-04-06T15:59:44.659Z</time></trkpt><trkpt lat="44.05932" lon="10.04623"><ele>5.0</ele><time>2026-04-06T15:59:45.658Z</time></trkpt><trkpt lat="44.0593533" lon="10.0461283"><ele>5.0</ele><time>2026-04-06T15:59:46.658Z</time></trkpt><trkpt lat="44.0593833" lon="10.0460433"><ele>5.0</ele><time>2026-04-06T15:59:47.659Z</time></trkpt><trkpt lat="44.0594333" lon="10.04591"><ele>5.0</ele><time>2026-04-06T15:59:49.658Z</time></trkpt><trkpt lat="44.0594717" lon="10.0457933"><ele>5.0</ele><time>2026-04-06T15:59:51.658Z</time></trkpt><trkpt lat="44.0595083" lon="10.045685"><ele>5.0</ele><time>2026-04-06T15:59:53.658Z</time></trkpt><trkpt lat="44.0595467" lon="10.0455417"><ele>5.0</ele><time>2026-04-06T15:59:55.659Z</time></trkpt><trkpt lat="44.0595733" lon="10.0454533"><ele>5.0</ele><time>2026-04-06T15:59:56.658Z</time></trkpt><trkpt lat="44.05961" lon="10.045365"><ele>5.0</ele><time>2026-04-06T15:59:57.658Z</time></trkpt><trkpt lat="44.0596417" lon="10.0452817"><ele>5.0</ele><time>2026-04-06T15:59:58.658Z</time></trkpt><trkpt lat="44.059685" lon="10.0451517"><ele>5.0</ele><time>2026-04-06T16:00:00.658Z</time></trkpt><trkpt lat="44.0597167" lon="10.0450533"><ele>5.0</ele><time>2026-04-06T16:00:02.658Z</time></trkpt><trkpt lat="44.0597467" lon="10.0449717"><ele>5.0</ele><time>2026-04-06T16:00:04.658Z</time></trkpt><trkpt lat="44.0598" lon="10.044805"><ele>5.0</ele><time>2026-04-06T16:00:28.659Z</time></trkpt><trkpt lat="44.0598433" lon="10.0446717"><ele>5.0</ele><time>2026-04-06T16:00:30.659Z</time></trkpt><trkpt lat="44.05989" lon="10.044515"><ele>5.0</ele><time>2026-04-06T16:00:32.659Z</time></trkpt><trkpt lat="44.0599183" lon="10.0444233"><ele>5.0</ele><time>2026-04-06T16:00:33.659Z</time></trkpt><trkpt lat="44.05995" lon="10.04433"><ele>5.0</ele><time>2026-04-06T16:00:34.659Z</time></trkpt><trkpt lat="44.05998" lon="10.0442367"><ele>5.0</ele><time>2026-04-06T16:00:35.659Z</time></trkpt><trkpt lat="44.0600083" lon="10.044135"><ele>5.0</ele><time>2026-04-06T16:00:36.659Z</time></trkpt><trkpt lat="44.0600433" lon="10.0440267"><ele>5.0</ele><time>2026-04-06T16:00:37.659Z</time></trkpt><trkpt lat="44.06008" lon="10.04391"><ele>4.6</ele><time>2026-04-06T16:00:38.659Z</time></trkpt><trkpt lat="44.0601183" lon="10.0438017"><ele>4.2</ele><time>2026-04-06T16:00:39.66Z</time></trkpt><trkpt lat="44.060155" lon="10.0436917"><ele>3.8</ele><time>2026-04-06T16:00:40.659Z</time></trkpt><trkpt lat="44.0601917" lon="10.0435717"><ele>3.4</ele><time>2026-04-06T16:00:41.659Z</time></trkpt><trkpt lat="44.0602333" lon="10.043445"><ele>3.0</ele><time>2026-04-06T16:00:42.659Z</time></trkpt><trkpt lat="44.0602833" lon="10.0433117"><ele>3.4</ele><time>2026-04-06T16:00:43.659Z</time></trkpt><trkpt lat="44.0603383" lon="10.0431767"><ele>3.8</ele><time>2026-04-06T16:00:44.659Z</time></trkpt><trkpt lat="44.060395" lon="10.043045"><ele>4.2</ele><time>2026-04-06T16:00:45.66Z</time></trkpt><trkpt lat="44.06046" lon="10.0429183"><ele>4.6</ele><time>2026-04-06T16:00:46.659Z</time></trkpt><trkpt lat="44.0605283" lon="10.0427933"><ele>5.0</ele><time>2026-04-06T16:00:47.659Z</time></trkpt><trkpt lat="44.0605967" lon="10.0426717"><ele>5.0</ele><time>2026-04-06T16:00:48.659Z</time></trkpt><trkpt lat="44.06066" lon="10.0425617"><ele>5.0</ele><time>2026-04-06T16:00:49.659Z</time></trkpt><trkpt lat="44.06072" lon="10.0424617"><ele>5.0</ele><time>2026-04-06T16:00:50.659Z</time></trkpt><trkpt lat="44.0607683" lon="10.04237"><ele>5.0</ele><time>2026-04-06T16:00:51.659Z</time></trkpt><trkpt lat="44.0608183" lon="10.0422883"><ele>5.0</ele><time>2026-04-06T16:00:52.659Z</time></trkpt><trkpt lat="44.0608683" lon="10.0422083"><ele>5.0</ele><time>2026-04-06T16:00:53.659Z</time></trkpt><trkpt lat="44.0609167" lon="10.0421233"><ele>5.333333333333334</ele><time>2026-04-06T16:00:54.659Z</time></trkpt><trkpt lat="44.0609633" lon="10.0420383"><ele>5.666666666666667</ele><time>2026-04-06T16:00:55.659Z</time></trkpt><trkpt lat="44.0610133" lon="10.0419517"><ele>6.0</ele><time>2026-04-06T16:00:56.659Z</time></trkpt><trkpt lat="44.0610733" lon="10.0418567"><ele>6.333333333333334</ele><time>2026-04-06T16:00:57.659Z</time></trkpt><trkpt lat="44.0611383" lon="10.0417533"><ele>6.666666666666667</ele><time>2026-04-06T16:00:58.659Z</time></trkpt><trkpt lat="44.0611983" lon="10.0416483"><ele>7.0</ele><time>2026-04-06T16:00:59.659Z</time></trkpt><trkpt lat="44.061255" lon="10.0415433"><ele>7.000000000000001</ele><time>2026-04-06T16:01:00.659Z</time></trkpt><trkpt lat="44.0613083" lon="10.041455"><ele>7.0</ele><time>2026-04-06T16:01:01.659Z</time></trkpt><trkpt lat="44.0613517" lon="10.04138"><ele>7.0</ele><time>2026-04-06T16:01:02.66Z</time></trkpt><trkpt lat="44.061425" lon="10.0412483"><ele>7.0</ele><time>2026-04-06T16:01:04.659Z</time></trkpt><trkpt lat="44.06147" lon="10.0411783"><ele>7.000000000000001</ele><time>2026-04-06T16:01:05.659Z</time></trkpt><trkpt lat="44.0615217" lon="10.0410917"><ele>7.0</ele><time>2026-04-06T16:01:06.659Z</time></trkpt><trkpt lat="44.0615783" lon="10.0409917"><ele>6.8</ele><time>2026-04-06T16:01:07.659Z</time></trkpt><trkpt lat="44.06164" lon="10.040885"><ele>6.6</ele><time>2026-04-06T16:01:08.659Z</time></trkpt><trkpt lat="44.0617" lon="10.040775"><ele>6.3999999999999995</ele><time>2026-04-06T16:01:09.659Z</time></trkpt><trkpt lat="44.061765" lon="10.0406617"><ele>6.199999999999999</ele><time>2026-04-06T16:01:10.659Z</time></trkpt><trkpt lat="44.0618317" lon="10.0405483"><ele>6.0</ele><time>2026-04-06T16:01:11.659Z</time></trkpt><trkpt lat="44.0618983" lon="10.0404367"><ele>6.0</ele><time>2026-04-06T16:01:12.66Z</time></trkpt><trkpt lat="44.0619583" lon="10.0403333"><ele>6.0</ele><time>2026-04-06T16:01:13.66Z</time></trkpt><trkpt lat="44.062015" lon="10.0402233"><ele>6.0</ele><time>2026-04-06T16:01:14.659Z</time></trkpt><trkpt lat="44.0620717" lon="10.0401067"><ele>6.0</ele><time>2026-04-06T16:01:15.659Z</time></trkpt><trkpt lat="44.0621283" lon="10.03998"><ele>6.0</ele><time>2026-04-06T16:01:16.659Z</time></trkpt><trkpt lat="44.062185" lon="10.0398417"><ele>6.0</ele><time>2026-04-06T16:01:17.659Z</time></trkpt><trkpt lat="44.06224" lon="10.0397017"><ele>6.0</ele><time>2026-04-06T16:01:18.66Z</time></trkpt><trkpt lat="44.0622917" lon="10.0395617"><ele>6.0</ele><time>2026-04-06T16:01:19.659Z</time></trkpt><trkpt lat="44.0623383" lon="10.03942"><ele>6.0</ele><time>2026-04-06T16:01:20.659Z</time></trkpt><trkpt lat="44.062385" lon="10.0392783"><ele>6.0</ele><time>2026-04-06T16:01:21.659Z</time></trkpt><trkpt lat="44.06243" lon="10.0391367"><ele>6.0</ele><time>2026-04-06T16:01:22.659Z</time></trkpt><trkpt lat="44.062475" lon="10.039"><ele>6.0</ele><time>2026-04-06T16:01:23.659Z</time></trkpt><trkpt lat="44.0625183" lon="10.0388767"><ele>6.0</ele><time>2026-04-06T16:01:24.659Z</time></trkpt><trkpt lat="44.06256" lon="10.0387667"><ele>6.0</ele><time>2026-04-06T16:01:25.659Z</time></trkpt><trkpt lat="44.0625983" lon="10.0386583"><ele>6.6</ele><time>2026-04-06T16:01:26.659Z</time></trkpt><trkpt lat="44.062635" lon="10.0385417"><ele>7.199999999999999</ele><time>2026-04-06T16:01:27.659Z</time></trkpt><trkpt lat="44.0626767" lon="10.0384217"><ele>7.800000000000001</ele><time>2026-04-06T16:01:28.659Z</time></trkpt><trkpt lat="44.06272" lon="10.0382983"><ele>8.4</ele><time>2026-04-06T16:01:29.659Z</time></trkpt><trkpt lat="44.0627667" lon="10.0381733"><ele>9.0</ele><time>2026-04-06T16:01:30.659Z</time></trkpt><trkpt lat="44.0628133" lon="10.0380483"><ele>9.0</ele><time>2026-04-06T16:01:31.659Z</time></trkpt><trkpt lat="44.06286" lon="10.0379267"><ele>9.0</ele><time>2026-04-06T16:01:32.66Z</time></trkpt><trkpt lat="44.0629033" lon="10.037805"><ele>9.0</ele><time>2026-04-06T16:01:33.66Z</time></trkpt><trkpt lat="44.062945" lon="10.0376833"><ele>9.0</ele><time>2026-04-06T16:01:34.66Z</time></trkpt><trkpt lat="44.06299" lon="10.0375567"><ele>9.0</ele><time>2026-04-06T16:01:35.659Z</time></trkpt><trkpt lat="44.0630367" lon="10.037425"><ele>8.6</ele><time>2026-04-06T16:01:36.659Z</time></trkpt><trkpt lat="44.0630833" lon="10.0372917"><ele>8.2</ele><time>2026-04-06T16:01:37.66Z</time></trkpt><trkpt lat="44.0631333" lon="10.03715"><ele>7.799999999999999</ele><time>2026-04-06T16:01:38.659Z</time></trkpt><trkpt lat="44.0631817" lon="10.0370083"><ele>7.3999999999999995</ele><time>2026-04-06T16:01:39.659Z</time></trkpt><trkpt lat="44.06323" lon="10.0368717"><ele>7.0</ele><time>2026-04-06T16:01:40.659Z</time></trkpt><trkpt lat="44.0632817" lon="10.0367367"><ele>7.3999999999999995</ele><time>2026-04-06T16:01:41.659Z</time></trkpt><trkpt lat="44.063335" lon="10.0366017"><ele>7.799999999999999</ele><time>2026-04-06T16:01:42.66Z</time></trkpt><trkpt lat="44.06339" lon="10.036465"><ele>8.2</ele><time>2026-04-06T16:01:43.659Z</time></trkpt><trkpt lat="44.063445" lon="10.03633"><ele>8.6</ele><time>2026-04-06T16:01:44.659Z</time></trkpt><trkpt lat="44.0635083" lon="10.0362017"><ele>9.0</ele><time>2026-04-06T16:01:45.659Z</time></trkpt><trkpt lat="44.0635683" lon="10.0360817"><ele>9.0</ele><time>2026-04-06T16:01:46.66Z</time></trkpt><trkpt lat="44.06362" lon="10.03597"><ele>9.0</ele><time>2026-04-06T16:01:47.659Z</time></trkpt><trkpt lat="44.0636767" lon="10.035855"><ele>9.0</ele><time>2026-04-06T16:01:48.659Z</time></trkpt><trkpt lat="44.063735" lon="10.03574"><ele>9.0</ele><time>2026-04-06T16:01:49.659Z</time></trkpt><trkpt lat="44.0638" lon="10.0356217"><ele>9.0</ele><time>2026-04-06T16:01:50.659Z</time></trkpt><trkpt lat="44.0638633" lon="10.0355017"><ele>8.8</ele><time>2026-04-06T16:01:51.659Z</time></trkpt><trkpt lat="44.0639283" lon="10.0353833"><ele>8.600000000000001</ele><time>2026-04-06T16:01:52.659Z</time></trkpt><trkpt lat="44.0639917" lon="10.0352667"><ele>8.4</ele><time>2026-04-06T16:01:53.659Z</time></trkpt><trkpt lat="44.064055" lon="10.0351583"><ele>8.200000000000001</ele><time>2026-04-06T16:01:54.659Z</time></trkpt><trkpt lat="44.0641133" lon="10.0350567"><ele>8.0</ele><time>2026-04-06T16:01:55.659Z</time></trkpt><trkpt lat="44.0641667" lon="10.0349617"><ele>8.5</ele><time>2026-04-06T16:01:56.659Z</time></trkpt><trkpt lat="44.0642167" lon="10.03487"><ele>9.0</ele><time>2026-04-06T16:01:57.659Z</time></trkpt><trkpt lat="44.064265" lon="10.03479"><ele>9.5</ele><time>2026-04-06T16:01:58.659Z</time></trkpt><trkpt lat="44.064305" lon="10.03472"><ele>10.0</ele><time>2026-04-06T16:01:59.66Z</time></trkpt><trkpt lat="44.06436" lon="10.0346133"><ele>10.5</ele><time>2026-04-06T16:02:01.659Z</time></trkpt><trkpt lat="44.0644133" lon="10.0345183"><ele>11.0</ele><time>2026-04-06T16:02:03.659Z</time></trkpt><trkpt lat="44.064475" lon="10.0344"><ele>11.0</ele><time>2026-04-06T16:02:05.659Z</time></trkpt><trkpt lat="44.0645133" lon="10.0343133"><ele>11.0</ele><time>2026-04-06T16:02:07.659Z</time></trkpt><trkpt lat="44.06455" lon="10.03424"><ele>11.0</ele><time>2026-04-06T16:02:10.66Z</time></trkpt><trkpt lat="44.0646067" lon="10.03414"><ele>11.0</ele><time>2026-04-06T16:02:12.66Z</time></trkpt><trkpt lat="44.06468" lon="10.0340033"><ele>11.0</ele><time>2026-04-06T16:02:14.66Z</time></trkpt><trkpt lat="44.06474" lon="10.0338867"><ele>11.166666666666666</ele><time>2026-04-06T16:02:16.659Z</time></trkpt><trkpt lat="44.0648083" lon="10.033755"><ele>11.333333333333332</ele><time>2026-04-06T16:02:18.659Z</time></trkpt><trkpt lat="44.064855" lon="10.033665"><ele>11.5</ele><time>2026-04-06T16:02:19.659Z</time></trkpt><trkpt lat="44.0649033" lon="10.0335733"><ele>11.666666666666666</ele><time>2026-04-06T16:02:20.659Z</time></trkpt><trkpt lat="44.064955" lon="10.0334833"><ele>11.833333333333334</ele><time>2026-04-06T16:02:21.659Z</time></trkpt><trkpt lat="44.0650083" lon="10.0333917"><ele>12.0</ele><time>2026-04-06T16:02:22.659Z</time></trkpt><trkpt lat="44.0650633" lon="10.033285"><ele>12.399999999999999</ele><time>2026-04-06T16:02:23.659Z</time></trkpt><trkpt lat="44.0651283" lon="10.0331733"><ele>12.799999999999999</ele><time>2026-04-06T16:02:24.659Z</time></trkpt><trkpt lat="44.0651917" lon="10.0330617"><ele>13.2</ele><time>2026-04-06T16:02:25.659Z</time></trkpt><trkpt lat="44.06526" lon="10.032955"><ele>13.6</ele><time>2026-04-06T16:02:26.66Z</time></trkpt><trkpt lat="44.06533" lon="10.0328517"><ele>14.0</ele><time>2026-04-06T16:02:27.659Z</time></trkpt><trkpt lat="44.0653933" lon="10.0327483"><ele>14.0</ele><time>2026-04-06T16:02:28.659Z</time></trkpt><trkpt lat="44.0654567" lon="10.0326467"><ele>13.999999999999998</ele><time>2026-04-06T16:02:29.659Z</time></trkpt><trkpt lat="44.0655183" lon="10.032545"><ele>13.999999999999998</ele><time>2026-04-06T16:02:30.659Z</time></trkpt><trkpt lat="44.0655817" lon="10.032445"><ele>14.0</ele><time>2026-04-06T16:02:31.659Z</time></trkpt><trkpt lat="44.065645" lon="10.0323483"><ele>14.0</ele><time>2026-04-06T16:02:32.659Z</time></trkpt><trkpt lat="44.0657067" lon="10.0322517"><ele>14.000000000000002</ele><time>2026-04-06T16:02:33.659Z</time></trkpt><trkpt lat="44.0657683" lon="10.032165"><ele>14.0</ele><time>2026-04-06T16:02:34.659Z</time></trkpt><trkpt lat="44.0658233" lon="10.0320833"><ele>14.0</ele><time>2026-04-06T16:02:35.659Z</time></trkpt><trkpt lat="44.0658667" lon="10.0320183"><ele>14.0</ele><time>2026-04-06T16:02:36.659Z</time></trkpt><trkpt lat="44.0659217" lon="10.0319367"><ele>14.000000000000002</ele><time>2026-04-06T16:02:38.659Z</time></trkpt><trkpt lat="44.0659717" lon="10.03183"><ele>14.0</ele><time>2026-04-06T16:03:24.659Z</time></trkpt><trkpt lat="44.0660617" lon="10.0316717"><ele>14.399999999999999</ele><time>2026-04-06T16:03:26.66Z</time></trkpt><trkpt lat="44.066125" lon="10.0315767"><ele>14.799999999999999</ele><time>2026-04-06T16:03:27.659Z</time></trkpt><trkpt lat="44.0661833" lon="10.0314733"><ele>15.200000000000001</ele><time>2026-04-06T16:03:28.659Z</time></trkpt><trkpt lat="44.0662433" lon="10.0313617"><ele>15.600000000000001</ele><time>2026-04-06T16:03:29.66Z</time></trkpt><trkpt lat="44.0662983" lon="10.0312383"><ele>16.0</ele><time>2026-04-06T16:03:30.659Z</time></trkpt><trkpt lat="44.0663667" lon="10.0311117"><ele>16.0</ele><time>2026-04-06T16:03:31.659Z</time></trkpt><trkpt lat="44.0664333" lon="10.0309833"><ele>16.0</ele><time>2026-04-06T16:03:32.659Z</time></trkpt><trkpt lat="44.0665133" lon="10.0308617"><ele>16.0</ele><time>2026-04-06T16:03:33.659Z</time></trkpt><trkpt lat="44.066585" lon="10.03073"><ele>16.0</ele><time>2026-04-06T16:03:34.659Z</time></trkpt><trkpt lat="44.06666" lon="10.0305967"><ele>16.25</ele><time>2026-04-06T16:03:35.659Z</time></trkpt><trkpt lat="44.0667333" lon="10.0304633"><ele>16.5</ele><time>2026-04-06T16:03:36.659Z</time></trkpt><trkpt lat="44.06681" lon="10.0303283"><ele>16.75</ele><time>2026-04-06T16:03:37.659Z</time></trkpt><trkpt lat="44.066885" lon="10.0301917"><ele>17.0</ele><time>2026-04-06T16:03:38.659Z</time></trkpt><trkpt lat="44.0669617" lon="10.0300517"><ele>17.0</ele><time>2026-04-06T16:03:39.659Z</time></trkpt><trkpt lat="44.067035" lon="10.0299133"><ele>17.0</ele><time>2026-04-06T16:03:40.659Z</time></trkpt><trkpt lat="44.06711" lon="10.0297767"><ele>17.0</ele><time>2026-04-06T16:03:41.659Z</time></trkpt><trkpt lat="44.067185" lon="10.0296383"><ele>17.0</ele><time>2026-04-06T16:03:42.659Z</time></trkpt><trkpt lat="44.0672617" lon="10.0294967"><ele>17.0</ele><time>2026-04-06T16:03:43.659Z</time></trkpt><trkpt lat="44.0673367" lon="10.0293467"><ele>17.0</ele><time>2026-04-06T16:03:44.66Z</time></trkpt><trkpt lat="44.0674167" lon="10.0291917"><ele>17.0</ele><time>2026-04-06T16:03:45.659Z</time></trkpt><trkpt lat="44.0674967" lon="10.029035"><ele>17.0</ele><time>2026-04-06T16:03:46.659Z</time></trkpt><trkpt lat="44.0675767" lon="10.02888"><ele>16.75</ele><time>2026-04-06T16:03:47.659Z</time></trkpt><trkpt lat="44.0676567" lon="10.02873"><ele>16.5</ele><time>2026-04-06T16:03:48.659Z</time></trkpt><trkpt lat="44.06774" lon="10.0285817"><ele>16.25</ele><time>2026-04-06T16:03:49.659Z</time></trkpt><trkpt lat="44.0678233" lon="10.0284267"><ele>16.0</ele><time>2026-04-06T16:03:50.659Z</time></trkpt><trkpt lat="44.0679067" lon="10.0282733"><ele>16.0</ele><time>2026-04-06T16:03:51.659Z</time></trkpt><trkpt lat="44.06799" lon="10.0281183"><ele>16.0</ele><time>2026-04-06T16:03:52.659Z</time></trkpt><trkpt lat="44.0680717" lon="10.0279633"><ele>16.0</ele><time>2026-04-06T16:03:53.659Z</time></trkpt><trkpt lat="44.068155" lon="10.0278083"><ele>16.0</ele><time>2026-04-06T16:03:54.66Z</time></trkpt><trkpt lat="44.0682367" lon="10.0276567"><ele>16.5</ele><time>2026-04-06T16:03:55.659Z</time></trkpt><trkpt lat="44.068325" lon="10.027505"><ele>17.0</ele><time>2026-04-06T16:03:56.659Z</time></trkpt><trkpt lat="44.0684083" lon="10.0273517"><ele>17.5</ele><time>2026-04-06T16:03:57.659Z</time></trkpt><trkpt lat="44.0684883" lon="10.0271983"><ele>18.0</ele><time>2026-04-06T16:03:58.659Z</time></trkpt><trkpt lat="44.0685717" lon="10.0270517"><ele>18.0</ele><time>2026-04-06T16:03:59.66Z</time></trkpt><trkpt lat="44.0686517" lon="10.0269083"><ele>18.0</ele><time>2026-04-06T16:04:00.659Z</time></trkpt><trkpt lat="44.0687367" lon="10.0267667"><ele>18.0</ele><time>2026-04-06T16:04:01.659Z</time></trkpt><trkpt lat="44.06883" lon="10.0266267"><ele>18.0</ele><time>2026-04-06T16:04:02.659Z</time></trkpt><trkpt lat="44.068925" lon="10.0264883"><ele>17.75</ele><time>2026-04-06T16:04:03.659Z</time></trkpt><trkpt lat="44.0690167" lon="10.02635"><ele>17.5</ele><time>2026-04-06T16:04:04.659Z</time></trkpt><trkpt lat="44.0691117" lon="10.0262167"><ele>17.25</ele><time>2026-04-06T16:04:05.659Z</time></trkpt><trkpt lat="44.069205" lon="10.0260783"><ele>17.0</ele><time>2026-04-06T16:04:06.659Z</time></trkpt><trkpt lat="44.0693" lon="10.0259417"><ele>17.25</ele><time>2026-04-06T16:04:07.659Z</time></trkpt><trkpt lat="44.0693917" lon="10.0258067"><ele>17.5</ele><time>2026-04-06T16:04:08.659Z</time></trkpt><trkpt lat="44.0694833" lon="10.02567"><ele>17.75</ele><time>2026-04-06T16:04:09.659Z</time></trkpt><trkpt lat="44.0695733" lon="10.0255317"><ele>18.0</ele><time>2026-04-06T16:04:10.659Z</time></trkpt><trkpt lat="44.0696617" lon="10.0253917"><ele>18.0</ele><time>2026-04-06T16:04:11.659Z</time></trkpt><trkpt lat="44.069755" lon="10.0252517"><ele>18.0</ele><time>2026-04-06T16:04:12.66Z</time></trkpt><trkpt lat="44.0698483" lon="10.02511"><ele>18.0</ele><time>2026-04-06T16:04:13.659Z</time></trkpt><trkpt lat="44.0699417" lon="10.0249683"><ele>18.0</ele><time>2026-04-06T16:04:14.659Z</time></trkpt><trkpt lat="44.0700367" lon="10.024825"><ele>18.25</ele><time>2026-04-06T16:04:15.659Z</time></trkpt><trkpt lat="44.0701317" lon="10.024685"><ele>18.5</ele><time>2026-04-06T16:04:16.659Z</time></trkpt><trkpt lat="44.07023" lon="10.0245467"><ele>18.75</ele><time>2026-04-06T16:04:17.659Z</time></trkpt><trkpt lat="44.0703267" lon="10.0244083"><ele>19.0</ele><time>2026-04-06T16:04:18.659Z</time></trkpt><trkpt lat="44.0704217" lon="10.0242733"><ele>19.0</ele><time>2026-04-06T16:04:19.659Z</time></trkpt><trkpt lat="44.0705133" lon="10.0241417"><ele>19.0</ele><time>2026-04-06T16:04:20.659Z</time></trkpt><trkpt lat="44.0706" lon="10.02401"><ele>19.0</ele><time>2026-04-06T16:04:21.66Z</time></trkpt><trkpt lat="44.0706833" lon="10.0238767"><ele>19.0</ele><time>2026-04-06T16:04:22.659Z</time></trkpt><trkpt lat="44.0707617" lon="10.02375"><ele>19.25</ele><time>2026-04-06T16:04:23.659Z</time></trkpt><trkpt lat="44.0708433" lon="10.0236233"><ele>19.5</ele><time>2026-04-06T16:04:24.659Z</time></trkpt><trkpt lat="44.0709267" lon="10.0234917"><ele>19.75</ele><time>2026-04-06T16:04:25.659Z</time></trkpt><trkpt lat="44.0710067" lon="10.0233567"><ele>20.0</ele><time>2026-04-06T16:04:26.66Z</time></trkpt><trkpt lat="44.07109" lon="10.02322"><ele>20.0</ele><time>2026-04-06T16:04:27.659Z</time></trkpt><trkpt lat="44.0711733" lon="10.0230917"><ele>20.0</ele><time>2026-04-06T16:04:28.659Z</time></trkpt><trkpt lat="44.0712483" lon="10.0229617"><ele>20.0</ele><time>2026-04-06T16:04:29.659Z</time></trkpt><trkpt lat="44.071325" lon="10.02284"><ele>20.0</ele><time>2026-04-06T16:04:30.659Z</time></trkpt><trkpt lat="44.0714033" lon="10.022725"><ele>20.0</ele><time>2026-04-06T16:04:31.659Z</time></trkpt><trkpt lat="44.071475" lon="10.0226217"><ele>20.0</ele><time>2026-04-06T16:04:32.659Z</time></trkpt><trkpt lat="44.0715383" lon="10.022525"><ele>20.0</ele><time>2026-04-06T16:04:33.659Z</time></trkpt><trkpt lat="44.071595" lon="10.0224367"><ele>20.0</ele><time>2026-04-06T16:04:34.659Z</time></trkpt><trkpt lat="44.0716383" lon="10.0223583"><ele>20.0</ele><time>2026-04-06T16:04:35.659Z</time></trkpt><trkpt lat="44.0717" lon="10.0222383"><ele>19.833333333333336</ele><time>2026-04-06T16:04:37.659Z</time></trkpt><trkpt lat="44.0717567" lon="10.02214"><ele>19.666666666666668</ele><time>2026-04-06T16:04:39.659Z</time></trkpt><trkpt lat="44.07184" lon="10.0220167"><ele>19.5</ele><time>2026-04-06T16:04:41.66Z</time></trkpt><trkpt lat="44.07189" lon="10.0219467"><ele>19.333333333333332</ele><time>2026-04-06T16:04:42.659Z</time></trkpt><trkpt lat="44.071945" lon="10.0218717"><ele>19.166666666666664</ele><time>2026-04-06T16:04:43.659Z</time></trkpt><trkpt lat="44.071995" lon="10.0217967"><ele>19.0</ele><time>2026-04-06T16:04:44.659Z</time></trkpt><trkpt lat="44.07204" lon="10.0217233"><ele>19.0</ele><time>2026-04-06T16:04:45.659Z</time></trkpt><trkpt lat="44.0720883" lon="10.02165"><ele>19.0</ele><time>2026-04-06T16:04:46.659Z</time></trkpt><trkpt lat="44.0721383" lon="10.0215683"><ele>19.0</ele><time>2026-04-06T16:04:47.659Z</time></trkpt><trkpt lat="44.072195" lon="10.02147"><ele>19.0</ele><time>2026-04-06T16:04:48.659Z</time></trkpt><trkpt lat="44.07226" lon="10.0213567"><ele>19.0</ele><time>2026-04-06T16:04:49.659Z</time></trkpt><trkpt lat="44.0723233" lon="10.02124"><ele>19.0</ele><time>2026-04-06T16:04:50.659Z</time></trkpt><trkpt lat="44.07239" lon="10.02112"><ele>19.0</ele><time>2026-04-06T16:04:51.659Z</time></trkpt><trkpt lat="44.07246" lon="10.0209983"><ele>19.0</ele><time>2026-04-06T16:04:52.659Z</time></trkpt><trkpt lat="44.0725317" lon="10.0208717"><ele>19.0</ele><time>2026-04-06T16:04:53.659Z</time></trkpt><trkpt lat="44.0726033" lon="10.020745"><ele>19.0</ele><time>2026-04-06T16:04:54.659Z</time></trkpt><trkpt lat="44.0726733" lon="10.0206083"><ele>18.5</ele><time>2026-04-06T16:04:55.659Z</time></trkpt><trkpt lat="44.0727417" lon="10.0204733"><ele>18.0</ele><time>2026-04-06T16:04:56.659Z</time></trkpt><trkpt lat="44.0728133" lon="10.0203317"><ele>17.5</ele><time>2026-04-06T16:04:57.659Z</time></trkpt><trkpt lat="44.072885" lon="10.0201933"><ele>17.0</ele><time>2026-04-06T16:04:58.659Z</time></trkpt><trkpt lat="44.0729567" lon="10.02005"><ele>17.25</ele><time>2026-04-06T16:04:59.659Z</time></trkpt><trkpt lat="44.0730267" lon="10.01991"><ele>17.5</ele><time>2026-04-06T16:05:00.66Z</time></trkpt><trkpt lat="44.0731" lon="10.0197667"><ele>17.75</ele><time>2026-04-06T16:05:01.659Z</time></trkpt><trkpt lat="44.0731683" lon="10.01962"><ele>18.0</ele><time>2026-04-06T16:05:02.659Z</time></trkpt><trkpt lat="44.0732367" lon="10.019475"><ele>18.0</ele><time>2026-04-06T16:05:03.659Z</time></trkpt><trkpt lat="44.0733067" lon="10.0193283"><ele>18.0</ele><time>2026-04-06T16:05:04.659Z</time></trkpt><trkpt lat="44.0733767" lon="10.01918"><ele>18.0</ele><time>2026-04-06T16:05:05.66Z</time></trkpt><trkpt lat="44.0734483" lon="10.0190317"><ele>18.0</ele><time>2026-04-06T16:05:06.659Z</time></trkpt><trkpt lat="44.0735217" lon="10.018885"><ele>17.5</ele><time>2026-04-06T16:05:07.659Z</time></trkpt><trkpt lat="44.0735967" lon="10.0187367"><ele>17.0</ele><time>2026-04-06T16:05:08.659Z</time></trkpt><trkpt lat="44.07367" lon="10.01859"><ele>16.5</ele><time>2026-04-06T16:05:09.659Z</time></trkpt><trkpt lat="44.073745" lon="10.0184433"><ele>16.0</ele><time>2026-04-06T16:05:10.659Z</time></trkpt><trkpt lat="44.0738183" lon="10.0182967"><ele>15.75</ele><time>2026-04-06T16:05:11.659Z</time></trkpt><trkpt lat="44.0738917" lon="10.0181467"><ele>15.5</ele><time>2026-04-06T16:05:12.66Z</time></trkpt><trkpt lat="44.073965" lon="10.017995"><ele>15.25</ele><time>2026-04-06T16:05:13.66Z</time></trkpt><trkpt lat="44.0740383" lon="10.017845"><ele>15.0</ele><time>2026-04-06T16:05:14.66Z</time></trkpt><trkpt lat="44.074115" lon="10.017695"><ele>15.0</ele><time>2026-04-06T16:05:15.659Z</time></trkpt><trkpt lat="44.0741967" lon="10.017545"><ele>15.0</ele><time>2026-04-06T16:05:16.659Z</time></trkpt><trkpt lat="44.0742783" lon="10.01739"><ele>15.0</ele><time>2026-04-06T16:05:17.659Z</time></trkpt><trkpt lat="44.0743567" lon="10.0172333"><ele>15.0</ele><time>2026-04-06T16:05:18.659Z</time></trkpt><trkpt lat="44.074435" lon="10.0170717"><ele>15.0</ele><time>2026-04-06T16:05:19.659Z</time></trkpt><trkpt lat="44.0745133" lon="10.01691"><ele>15.0</ele><time>2026-04-06T16:05:20.659Z</time></trkpt><trkpt lat="44.0745917" lon="10.0167517"><ele>15.0</ele><time>2026-04-06T16:05:21.66Z</time></trkpt><trkpt lat="44.07467" lon="10.0165933"><ele>15.0</ele><time>2026-04-06T16:05:22.659Z</time></trkpt><trkpt lat="44.0747467" lon="10.0164283"><ele>14.75</ele><time>2026-04-06T16:05:23.659Z</time></trkpt><trkpt lat="44.0748217" lon="10.016265"><ele>14.5</ele><time>2026-04-06T16:05:24.659Z</time></trkpt><trkpt lat="44.0748983" lon="10.0161067"><ele>14.25</ele><time>2026-04-06T16:05:25.659Z</time></trkpt><trkpt lat="44.0749733" lon="10.0159467"><ele>14.0</ele><time>2026-04-06T16:05:26.659Z</time></trkpt><trkpt lat="44.0750483" lon="10.0157917"><ele>14.0</ele><time>2026-04-06T16:05:27.66Z</time></trkpt><trkpt lat="44.075125" lon="10.01564"><ele>14.0</ele><time>2026-04-06T16:05:28.659Z</time></trkpt><trkpt lat="44.0752" lon="10.015485"><ele>14.0</ele><time>2026-04-06T16:05:29.659Z</time></trkpt><trkpt lat="44.075285" lon="10.015335"><ele>14.0</ele><time>2026-04-06T16:05:30.659Z</time></trkpt><trkpt lat="44.0753733" lon="10.01519"><ele>14.0</ele><time>2026-04-06T16:05:31.659Z</time></trkpt><trkpt lat="44.07546" lon="10.015045"><ele>14.0</ele><time>2026-04-06T16:05:32.659Z</time></trkpt><trkpt lat="44.0755483" lon="10.0149017"><ele>14.0</ele><time>2026-04-06T16:05:33.659Z</time></trkpt><trkpt lat="44.07564" lon="10.0147617"><ele>14.0</ele><time>2026-04-06T16:05:34.659Z</time></trkpt><trkpt lat="44.075735" lon="10.01462"><ele>13.75</ele><time>2026-04-06T16:05:35.659Z</time></trkpt><trkpt lat="44.07583" lon="10.0144783"><ele>13.5</ele><time>2026-04-06T16:05:36.659Z</time></trkpt><trkpt lat="44.075925" lon="10.01434"><ele>13.25</ele><time>2026-04-06T16:05:37.659Z</time></trkpt><trkpt lat="44.076025" lon="10.0142033"><ele>13.0</ele><time>2026-04-06T16:05:38.659Z</time></trkpt><trkpt lat="44.0761183" lon="10.014075"><ele>12.5</ele><time>2026-04-06T16:05:39.659Z</time></trkpt><trkpt lat="44.0762067" lon="10.01395"><ele>12.0</ele><time>2026-04-06T16:05:40.66Z</time></trkpt><trkpt lat="44.0762933" lon="10.0138217"><ele>11.5</ele><time>2026-04-06T16:05:41.659Z</time></trkpt><trkpt lat="44.0763767" lon="10.0137033"><ele>11.0</ele><time>2026-04-06T16:05:42.659Z</time></trkpt><trkpt lat="44.0764633" lon="10.01358"><ele>11.0</ele><time>2026-04-06T16:05:43.66Z</time></trkpt><trkpt lat="44.076545" lon="10.0134633"><ele>11.0</ele><time>2026-04-06T16:05:44.659Z</time></trkpt><trkpt lat="44.0766217" lon="10.01336"><ele>11.0</ele><time>2026-04-06T16:05:45.659Z</time></trkpt><trkpt lat="44.0766883" lon="10.0132683"><ele>11.0</ele><time>2026-04-06T16:05:46.66Z</time></trkpt><trkpt lat="44.076755" lon="10.01318"><ele>11.0</ele><time>2026-04-06T16:05:47.659Z</time></trkpt><trkpt lat="44.0768167" lon="10.0131"><ele>10.833333333333332</ele><time>2026-04-06T16:05:48.659Z</time></trkpt><trkpt lat="44.0768767" lon="10.0130333"><ele>10.666666666666666</ele><time>2026-04-06T16:05:49.659Z</time></trkpt><trkpt lat="44.0769283" lon="10.0129817"><ele>10.5</ele><time>2026-04-06T16:05:50.659Z</time></trkpt><trkpt lat="44.077035" lon="10.012895"><ele>10.333333333333334</ele><time>2026-04-06T16:05:52.659Z</time></trkpt><trkpt lat="44.0770983" lon="10.0128467"><ele>10.166666666666668</ele><time>2026-04-06T16:05:53.659Z</time></trkpt><trkpt lat="44.0771667" lon="10.01279"><ele>10.0</ele><time>2026-04-06T16:05:54.659Z</time></trkpt><trkpt lat="44.0772417" lon="10.0127233"><ele>10.0</ele><time>2026-04-06T16:05:55.66Z</time></trkpt><trkpt lat="44.077325" lon="10.0126567"><ele>10.0</ele><time>2026-04-06T16:05:56.659Z</time></trkpt><trkpt lat="44.0774067" lon="10.0125933"><ele>10.0</ele><time>2026-04-06T16:05:57.659Z</time></trkpt><trkpt lat="44.0774833" lon="10.0125333"><ele>10.0</ele><time>2026-04-06T16:05:58.659Z</time></trkpt><trkpt lat="44.0775567" lon="10.0124817"><ele>10.0</ele><time>2026-04-06T16:05:59.66Z</time></trkpt><trkpt lat="44.0776233" lon="10.012435"><ele>10.0</ele><time>2026-04-06T16:06:00.659Z</time></trkpt><trkpt lat="44.0776817" lon="10.0123917"><ele>9.833333333333334</ele><time>2026-04-06T16:06:01.659Z</time></trkpt><trkpt lat="44.077785" lon="10.01231"><ele>9.666666666666668</ele><time>2026-04-06T16:06:03.66Z</time></trkpt><trkpt lat="44.077845" lon="10.0122633"><ele>9.5</ele><time>2026-04-06T16:06:04.659Z</time></trkpt><trkpt lat="44.0779133" lon="10.01221"><ele>9.333333333333334</ele><time>2026-04-06T16:06:05.659Z</time></trkpt><trkpt lat="44.0779883" lon="10.01215"><ele>9.166666666666666</ele><time>2026-04-06T16:06:06.659Z</time></trkpt><trkpt lat="44.0780717" lon="10.012085"><ele>9.0</ele><time>2026-04-06T16:06:07.659Z</time></trkpt><trkpt lat="44.07816" lon="10.0120133"><ele>9.0</ele><time>2026-04-06T16:06:08.659Z</time></trkpt><trkpt lat="44.0782467" lon="10.0119417"><ele>9.0</ele><time>2026-04-06T16:06:09.659Z</time></trkpt><trkpt lat="44.07833" lon="10.011875"><ele>9.0</ele><time>2026-04-06T16:06:10.659Z</time></trkpt><trkpt lat="44.078415" lon="10.0118117"><ele>9.0</ele><time>2026-04-06T16:06:11.659Z</time></trkpt><trkpt lat="44.0785017" lon="10.0117467"><ele>9.0</ele><time>2026-04-06T16:06:12.659Z</time></trkpt><trkpt lat="44.0785883" lon="10.0116783"><ele>9.0</ele><time>2026-04-06T16:06:13.659Z</time></trkpt><trkpt lat="44.0786783" lon="10.01161"><ele>9.0</ele><time>2026-04-06T16:06:14.66Z</time></trkpt><trkpt lat="44.0787733" lon="10.0115383"><ele>9.0</ele><time>2026-04-06T16:06:15.659Z</time></trkpt><trkpt lat="44.07887" lon="10.0114633"><ele>9.0</ele><time>2026-04-06T16:06:16.659Z</time></trkpt><trkpt lat="44.0789633" lon="10.0113883"><ele>9.0</ele><time>2026-04-06T16:06:17.659Z</time></trkpt><trkpt lat="44.0790583" lon="10.0113117"><ele>9.25</ele><time>2026-04-06T16:06:18.659Z</time></trkpt><trkpt lat="44.07916" lon="10.011235"><ele>9.5</ele><time>2026-04-06T16:06:19.659Z</time></trkpt><trkpt lat="44.0792567" lon="10.01116"><ele>9.75</ele><time>2026-04-06T16:06:20.659Z</time></trkpt><trkpt lat="44.079355" lon="10.011085"><ele>10.0</ele><time>2026-04-06T16:06:21.659Z</time></trkpt><trkpt lat="44.0794517" lon="10.0110067"><ele>10.0</ele><time>2026-04-06T16:06:22.659Z</time></trkpt><trkpt lat="44.07955" lon="10.0109233"><ele>10.0</ele><time>2026-04-06T16:06:23.66Z</time></trkpt><trkpt lat="44.0796517" lon="10.0108417"><ele>10.0</ele><time>2026-04-06T16:06:24.659Z</time></trkpt><trkpt lat="44.0797617" lon="10.010775"><ele>10.0</ele><time>2026-04-06T16:06:25.659Z</time></trkpt><trkpt lat="44.0798583" lon="10.0107033"><ele>10.0</ele><time>2026-04-06T16:06:26.659Z</time></trkpt><trkpt lat="44.07996" lon="10.0106317"><ele>10.0</ele><time>2026-04-06T16:06:27.659Z</time></trkpt><trkpt lat="44.08006" lon="10.0105517"><ele>10.0</ele><time>2026-04-06T16:06:28.659Z</time></trkpt><trkpt lat="44.0801667" lon="10.0104733"><ele>10.0</ele><time>2026-04-06T16:06:29.659Z</time></trkpt><trkpt lat="44.0802667" lon="10.01039"><ele>10.0</ele><time>2026-04-06T16:06:30.659Z</time></trkpt><trkpt lat="44.08037" lon="10.0103"><ele>10.0</ele><time>2026-04-06T16:06:31.659Z</time></trkpt><trkpt lat="44.080475" lon="10.0102117"><ele>10.0</ele><time>2026-04-06T16:06:32.659Z</time></trkpt><trkpt lat="44.080575" lon="10.0101283"><ele>10.0</ele><time>2026-04-06T16:06:33.659Z</time></trkpt><trkpt lat="44.08067" lon="10.0100467"><ele>9.8</ele><time>2026-04-06T16:06:34.659Z</time></trkpt><trkpt lat="44.0807617" lon="10.00997"><ele>9.6</ele><time>2026-04-06T16:06:35.659Z</time></trkpt><trkpt lat="44.08085" lon="10.0098933"><ele>9.4</ele><time>2026-04-06T16:06:36.66Z</time></trkpt><trkpt lat="44.080935" lon="10.009815"><ele>9.2</ele><time>2026-04-06T16:06:37.659Z</time></trkpt><trkpt lat="44.08102" lon="10.0097417"><ele>9.0</ele><time>2026-04-06T16:06:38.659Z</time></trkpt><trkpt lat="44.081105" lon="10.0096667"><ele>9.8</ele><time>2026-04-06T16:06:39.659Z</time></trkpt><trkpt lat="44.0811917" lon="10.0095917"><ele>10.600000000000001</ele><time>2026-04-06T16:06:40.659Z</time></trkpt><trkpt lat="44.0812783" lon="10.009515"><ele>11.4</ele><time>2026-04-06T16:06:41.659Z</time></trkpt><trkpt lat="44.0813633" lon="10.0094383"><ele>12.200000000000001</ele><time>2026-04-06T16:06:42.659Z</time></trkpt><trkpt lat="44.0814467" lon="10.0093617"><ele>13.0</ele><time>2026-04-06T16:06:43.66Z</time></trkpt><trkpt lat="44.081535" lon="10.0092833"><ele>13.0</ele><time>2026-04-06T16:06:44.659Z</time></trkpt><trkpt lat="44.081625" lon="10.0092033"><ele>13.0</ele><time>2026-04-06T16:06:45.659Z</time></trkpt><trkpt lat="44.0817183" lon="10.009125"><ele>13.0</ele><time>2026-04-06T16:06:46.659Z</time></trkpt><trkpt lat="44.08181" lon="10.0090417"><ele>13.0</ele><time>2026-04-06T16:06:47.659Z</time></trkpt><trkpt lat="44.0819" lon="10.0089617"><ele>13.0</ele><time>2026-04-06T16:06:48.659Z</time></trkpt><trkpt lat="44.0819883" lon="10.0088833"><ele>12.999999999999998</ele><time>2026-04-06T16:06:49.659Z</time></trkpt><trkpt lat="44.0820683" lon="10.0088067"><ele>13.0</ele><time>2026-04-06T16:06:50.66Z</time></trkpt><trkpt lat="44.0821467" lon="10.0087333"><ele>13.0</ele><time>2026-04-06T16:06:51.659Z</time></trkpt><trkpt lat="44.0822233" lon="10.00867"><ele>13.0</ele><time>2026-04-06T16:06:52.659Z</time></trkpt><trkpt lat="44.0822967" lon="10.0086083"><ele>12.999999999999998</ele><time>2026-04-06T16:06:53.659Z</time></trkpt><trkpt lat="44.0823617" lon="10.0085567"><ele>13.0</ele><time>2026-04-06T16:06:54.659Z</time></trkpt><trkpt lat="44.0824617" lon="10.0084767"><ele>12.8</ele><time>2026-04-06T16:06:56.659Z</time></trkpt><trkpt lat="44.0825733" lon="10.0083783"><ele>12.600000000000001</ele><time>2026-04-06T16:06:58.659Z</time></trkpt><trkpt lat="44.0826417" lon="10.0083233"><ele>12.399999999999999</ele><time>2026-04-06T16:06:59.66Z</time></trkpt><trkpt lat="44.0827217" lon="10.008265"><ele>12.2</ele><time>2026-04-06T16:07:00.659Z</time></trkpt><trkpt lat="44.0828067" lon="10.0081983"><ele>12.0</ele><time>2026-04-06T16:07:01.659Z</time></trkpt><trkpt lat="44.0829" lon="10.0081217"><ele>12.0</ele><time>2026-04-06T16:07:02.659Z</time></trkpt><trkpt lat="44.082995" lon="10.00804"><ele>12.0</ele><time>2026-04-06T16:07:03.659Z</time></trkpt><trkpt lat="44.083095" lon="10.0079533"><ele>12.0</ele><time>2026-04-06T16:07:04.659Z</time></trkpt><trkpt lat="44.0831933" lon="10.0078517"><ele>12.0</ele><time>2026-04-06T16:07:05.659Z</time></trkpt><trkpt lat="44.0833017" lon="10.0077533"><ele>12.0</ele><time>2026-04-06T16:07:06.659Z</time></trkpt><trkpt lat="44.0834067" lon="10.0076583"><ele>12.0</ele><time>2026-04-06T16:07:07.66Z</time></trkpt><trkpt lat="44.0835117" lon="10.007565"><ele>12.0</ele><time>2026-04-06T16:07:08.659Z</time></trkpt><trkpt lat="44.0836233" lon="10.0074683"><ele>12.0</ele><time>2026-04-06T16:07:09.659Z</time></trkpt><trkpt lat="44.0837317" lon="10.0073667"><ele>12.0</ele><time>2026-04-06T16:07:10.659Z</time></trkpt><trkpt lat="44.083845" lon="10.0072667"><ele>12.0</ele><time>2026-04-06T16:07:11.659Z</time></trkpt><trkpt lat="44.0839617" lon="10.007165"><ele>12.0</ele><time>2026-04-06T16:07:12.659Z</time></trkpt><trkpt lat="44.084075" lon="10.0070633"><ele>12.0</ele><time>2026-04-06T16:07:13.659Z</time></trkpt><trkpt lat="44.08419" lon="10.006965"><ele>12.0</ele><time>2026-04-06T16:07:14.659Z</time></trkpt><trkpt lat="44.0843067" lon="10.0068583"><ele>12.0</ele><time>2026-04-06T16:07:15.659Z</time></trkpt><trkpt lat="44.0844217" lon="10.0067483"><ele>12.0</ele><time>2026-04-06T16:07:16.66Z</time></trkpt><trkpt lat="44.0845333" lon="10.0066333"><ele>12.0</ele><time>2026-04-06T16:07:17.659Z</time></trkpt><trkpt lat="44.084645" lon="10.006515"><ele>11.5</ele><time>2026-04-06T16:07:18.659Z</time></trkpt><trkpt lat="44.0847517" lon="10.00639"><ele>11.0</ele><time>2026-04-06T16:07:19.659Z</time></trkpt><trkpt lat="44.08486" lon="10.0062633"><ele>10.5</ele><time>2026-04-06T16:07:20.659Z</time></trkpt><trkpt lat="44.0849633" lon="10.0061317"><ele>10.0</ele><time>2026-04-06T16:07:21.659Z</time></trkpt><trkpt lat="44.08506" lon="10.006"><ele>10.0</ele><time>2026-04-06T16:07:22.659Z</time></trkpt><trkpt lat="44.08515" lon="10.0058667"><ele>10.0</ele><time>2026-04-06T16:07:23.659Z</time></trkpt><trkpt lat="44.085235" lon="10.0057367"><ele>10.0</ele><time>2026-04-06T16:07:24.659Z</time></trkpt><trkpt lat="44.0853183" lon="10.0056017"><ele>10.0</ele><time>2026-04-06T16:07:25.659Z</time></trkpt><trkpt lat="44.0853983" lon="10.0054683"><ele>10.0</ele><time>2026-04-06T16:07:26.659Z</time></trkpt><trkpt lat="44.0854767" lon="10.0053383"><ele>10.0</ele><time>2026-04-06T16:07:27.659Z</time></trkpt><trkpt lat="44.085555" lon="10.0052067"><ele>10.0</ele><time>2026-04-06T16:07:28.66Z</time></trkpt><trkpt lat="44.0856317" lon="10.00507"><ele>10.0</ele><time>2026-04-06T16:07:29.66Z</time></trkpt><trkpt lat="44.0857083" lon="10.0049483"><ele>10.2</ele><time>2026-04-06T16:07:30.66Z</time></trkpt><trkpt lat="44.0857833" lon="10.004825"><ele>10.4</ele><time>2026-04-06T16:07:31.66Z</time></trkpt><trkpt lat="44.0858567" lon="10.0046983"><ele>10.600000000000001</ele><time>2026-04-06T16:07:32.659Z</time></trkpt><trkpt lat="44.0859267" lon="10.00458"><ele>10.8</ele><time>2026-04-06T16:07:33.659Z</time></trkpt><trkpt lat="44.0859883" lon="10.0044733"><ele>11.0</ele><time>2026-04-06T16:07:34.659Z</time></trkpt><trkpt lat="44.08605" lon="10.0043683"><ele>11.0</ele><time>2026-04-06T16:07:35.659Z</time></trkpt><trkpt lat="44.08611" lon="10.0042667"><ele>11.0</ele><time>2026-04-06T16:07:36.659Z</time></trkpt><trkpt lat="44.08617" lon="10.0041667"><ele>11.0</ele><time>2026-04-06T16:07:37.659Z</time></trkpt><trkpt lat="44.086235" lon="10.004065"><ele>11.0</ele><time>2026-04-06T16:07:38.659Z</time></trkpt><trkpt lat="44.0862983" lon="10.003955"><ele>11.0</ele><time>2026-04-06T16:07:39.659Z</time></trkpt><trkpt lat="44.086365" lon="10.0038333"><ele>11.25</ele><time>2026-04-06T16:07:40.659Z</time></trkpt><trkpt lat="44.0864467" lon="10.003695"><ele>11.5</ele><time>2026-04-06T16:07:41.659Z</time></trkpt><trkpt lat="44.0865467" lon="10.00355"><ele>11.75</ele><time>2026-04-06T16:07:42.659Z</time></trkpt><trkpt lat="44.0866433" lon="10.0034083"><ele>12.0</ele><time>2026-04-06T16:07:43.659Z</time></trkpt><trkpt lat="44.086735" lon="10.0032733"><ele>12.0</ele><time>2026-04-06T16:07:44.659Z</time></trkpt><trkpt lat="44.0868217" lon="10.0031367"><ele>12.0</ele><time>2026-04-06T16:07:45.659Z</time></trkpt><trkpt lat="44.0869133" lon="10.0029967"><ele>12.0</ele><time>2026-04-06T16:07:46.659Z</time></trkpt><trkpt lat="44.0870033" lon="10.0028617"><ele>12.0</ele><time>2026-04-06T16:07:47.66Z</time></trkpt><trkpt lat="44.0870967" lon="10.0027267"><ele>12.0</ele><time>2026-04-06T16:07:48.659Z</time></trkpt><trkpt lat="44.0871917" lon="10.002605"><ele>12.0</ele><time>2026-04-06T16:07:49.659Z</time></trkpt><trkpt lat="44.087295" lon="10.002485"><ele>12.0</ele><time>2026-04-06T16:07:50.659Z</time></trkpt><trkpt lat="44.087405" lon="10.00237"><ele>12.0</ele><time>2026-04-06T16:07:51.659Z</time></trkpt><trkpt lat="44.08752" lon="10.0022633"><ele>11.25</ele><time>2026-04-06T16:07:52.659Z</time></trkpt><trkpt lat="44.0876367" lon="10.0021617"><ele>10.5</ele><time>2026-04-06T16:07:53.659Z</time></trkpt><trkpt lat="44.0877517" lon="10.00207"><ele>9.75</ele><time>2026-04-06T16:07:54.659Z</time></trkpt><trkpt lat="44.0878733" lon="10.0019833"><ele>9.0</ele><time>2026-04-06T16:07:55.659Z</time></trkpt><trkpt lat="44.087995" lon="10.0019"><ele>9.0</ele><time>2026-04-06T16:07:56.659Z</time></trkpt><trkpt lat="44.08812" lon="10.00182"><ele>9.0</ele><time>2026-04-06T16:07:57.659Z</time></trkpt><trkpt lat="44.0882433" lon="10.0017333"><ele>9.0</ele><time>2026-04-06T16:07:58.659Z</time></trkpt><trkpt lat="44.0883633" lon="10.0016383"><ele>9.0</ele><time>2026-04-06T16:07:59.659Z</time></trkpt><trkpt lat="44.08848" lon="10.001535"><ele>9.5</ele><time>2026-04-06T16:08:00.659Z</time></trkpt><trkpt lat="44.088595" lon="10.0014267"><ele>10.0</ele><time>2026-04-06T16:08:01.659Z</time></trkpt><trkpt lat="44.0887017" lon="10.0013117"><ele>10.5</ele><time>2026-04-06T16:08:02.659Z</time></trkpt><trkpt lat="44.0888067" lon="10.001185"><ele>11.0</ele><time>2026-04-06T16:08:03.659Z</time></trkpt><trkpt lat="44.0889067" lon="10.00105"><ele>11.0</ele><time>2026-04-06T16:08:04.659Z</time></trkpt><trkpt lat="44.0890017" lon="10.000905"><ele>11.0</ele><time>2026-04-06T16:08:05.659Z</time></trkpt><trkpt lat="44.0890967" lon="10.000755"><ele>11.0</ele><time>2026-04-06T16:08:06.659Z</time></trkpt><trkpt lat="44.0891917" lon="10.0006017"><ele>11.0</ele><time>2026-04-06T16:08:07.659Z</time></trkpt><trkpt lat="44.0892883" lon="10.0004433"><ele>11.0</ele><time>2026-04-06T16:08:08.659Z</time></trkpt><trkpt lat="44.08938" lon="10.00028"><ele>11.0</ele><time>2026-04-06T16:08:09.659Z</time></trkpt><trkpt lat="44.0894683" lon="10.00011"><ele>11.0</ele><time>2026-04-06T16:08:10.659Z</time></trkpt><trkpt lat="44.089555" lon="9.99994"><ele>11.0</ele><time>2026-04-06T16:08:11.659Z</time></trkpt><trkpt lat="44.089645" lon="9.9997617"><ele>11.0</ele><time>2026-04-06T16:08:12.659Z</time></trkpt><trkpt lat="44.0897333" lon="9.9995817"><ele>11.0</ele><time>2026-04-06T16:08:13.659Z</time></trkpt><trkpt lat="44.0898133" lon="9.9993917"><ele>11.0</ele><time>2026-04-06T16:08:14.659Z</time></trkpt><trkpt lat="44.0898917" lon="9.9992033"><ele>11.75</ele><time>2026-04-06T16:08:15.659Z</time></trkpt><trkpt lat="44.0899717" lon="9.9990183"><ele>12.5</ele><time>2026-04-06T16:08:16.659Z</time></trkpt><trkpt lat="44.09005" lon="9.9988417"><ele>13.25</ele><time>2026-04-06T16:08:17.659Z</time></trkpt><trkpt lat="44.0901217" lon="9.9986767"><ele>14.0</ele><time>2026-04-06T16:08:18.659Z</time></trkpt><trkpt lat="44.090195" lon="9.9985167"><ele>14.0</ele><time>2026-04-06T16:08:19.659Z</time></trkpt><trkpt lat="44.090265" lon="9.9983633"><ele>14.0</ele><time>2026-04-06T16:08:20.659Z</time></trkpt><trkpt lat="44.09033" lon="9.9982133"><ele>14.0</ele><time>2026-04-06T16:08:21.659Z</time></trkpt><trkpt lat="44.0903983" lon="9.9980683"><ele>14.0</ele><time>2026-04-06T16:08:22.659Z</time></trkpt><trkpt lat="44.0904667" lon="9.9979283"><ele>14.25</ele><time>2026-04-06T16:08:23.659Z</time></trkpt><trkpt lat="44.09054" lon="9.9977833"><ele>14.5</ele><time>2026-04-06T16:08:24.659Z</time></trkpt><trkpt lat="44.0906083" lon="9.9976417"><ele>14.75</ele><time>2026-04-06T16:08:25.659Z</time></trkpt><trkpt lat="44.090675" lon="9.9974883"><ele>15.0</ele><time>2026-04-06T16:08:26.659Z</time></trkpt><trkpt lat="44.0907433" lon="9.9973333"><ele>15.5</ele><time>2026-04-06T16:08:27.66Z</time></trkpt><trkpt lat="44.0908117" lon="9.997175"><ele>16.0</ele><time>2026-04-06T16:08:28.659Z</time></trkpt><trkpt lat="44.0908833" lon="9.9970117"><ele>16.5</ele><time>2026-04-06T16:08:29.659Z</time></trkpt><trkpt lat="44.0909583" lon="9.9968467"><ele>17.0</ele><time>2026-04-06T16:08:30.659Z</time></trkpt><trkpt lat="44.0910267" lon="9.9966817"><ele>17.0</ele><time>2026-04-06T16:08:31.659Z</time></trkpt><trkpt lat="44.091095" lon="9.996515"><ele>17.0</ele><time>2026-04-06T16:08:32.659Z</time></trkpt><trkpt lat="44.0911567" lon="9.9963483"><ele>17.0</ele><time>2026-04-06T16:08:33.659Z</time></trkpt><trkpt lat="44.0912133" lon="9.9961783"><ele>17.0</ele><time>2026-04-06T16:08:34.659Z</time></trkpt><trkpt lat="44.0912683" lon="9.9960117"><ele>17.0</ele><time>2026-04-06T16:08:35.659Z</time></trkpt><trkpt lat="44.09132" lon="9.9958483"><ele>17.0</ele><time>2026-04-06T16:08:36.659Z</time></trkpt><trkpt lat="44.09137" lon="9.995685"><ele>17.0</ele><time>2026-04-06T16:08:37.659Z</time></trkpt><trkpt lat="44.0914217" lon="9.9955217"><ele>17.0</ele><time>2026-04-06T16:08:38.659Z</time></trkpt><trkpt lat="44.0914717" lon="9.9953517"><ele>17.0</ele><time>2026-04-06T16:08:39.659Z</time></trkpt><trkpt lat="44.09152" lon="9.9951783"><ele>17.0</ele><time>2026-04-06T16:08:40.66Z</time></trkpt><trkpt lat="44.0915733" lon="9.9950017"><ele>17.0</ele><time>2026-04-06T16:08:41.659Z</time></trkpt><trkpt lat="44.0916233" lon="9.9948283"><ele>17.0</ele><time>2026-04-06T16:08:42.659Z</time></trkpt><trkpt lat="44.0916833" lon="9.9946583"><ele>17.0</ele><time>2026-04-06T16:08:43.659Z</time></trkpt><trkpt lat="44.0917483" lon="9.9944917"><ele>17.0</ele><time>2026-04-06T16:08:44.659Z</time></trkpt><trkpt lat="44.0918283" lon="9.99434"><ele>17.0</ele><time>2026-04-06T16:08:45.66Z</time></trkpt><trkpt lat="44.0919217" lon="9.9942033"><ele>17.0</ele><time>2026-04-06T16:08:46.659Z</time></trkpt><trkpt lat="44.0920233" lon="9.99408"><ele>17.0</ele><time>2026-04-06T16:08:47.659Z</time></trkpt><trkpt lat="44.092125" lon="9.9939667"><ele>17.0</ele><time>2026-04-06T16:08:48.659Z</time></trkpt><trkpt lat="44.0922283" lon="9.9938517"><ele>17.0</ele><time>2026-04-06T16:08:49.659Z</time></trkpt><trkpt lat="44.0923267" lon="9.99374"><ele>17.0</ele><time>2026-04-06T16:08:50.66Z</time></trkpt><trkpt lat="44.0924267" lon="9.9936267"><ele>17.5</ele><time>2026-04-06T16:08:51.659Z</time></trkpt><trkpt lat="44.0925267" lon="9.993515"><ele>18.0</ele><time>2026-04-06T16:08:52.659Z</time></trkpt><trkpt lat="44.0926267" lon="9.993405"><ele>18.5</ele><time>2026-04-06T16:08:53.659Z</time></trkpt><trkpt lat="44.0927217" lon="9.9932967"><ele>19.0</ele><time>2026-04-06T16:08:54.659Z</time></trkpt><trkpt lat="44.0928117" lon="9.99319"><ele>19.2</ele><time>2026-04-06T16:08:55.66Z</time></trkpt><trkpt lat="44.092895" lon="9.9930833"><ele>19.4</ele><time>2026-04-06T16:08:56.659Z</time></trkpt><trkpt lat="44.0929767" lon="9.9929833"><ele>19.6</ele><time>2026-04-06T16:08:57.659Z</time></trkpt><trkpt lat="44.0930517" lon="9.99289"><ele>19.8</ele><time>2026-04-06T16:08:58.659Z</time></trkpt><trkpt lat="44.0931217" lon="9.9928017"><ele>20.0</ele><time>2026-04-06T16:08:59.659Z</time></trkpt><trkpt lat="44.0931883" lon="9.992715"><ele>20.0</ele><time>2026-04-06T16:09:00.659Z</time></trkpt><trkpt lat="44.0932517" lon="9.9926267"><ele>20.0</ele><time>2026-04-06T16:09:01.659Z</time></trkpt><trkpt lat="44.0933167" lon="9.9925383"><ele>20.0</ele><time>2026-04-06T16:09:02.659Z</time></trkpt><trkpt lat="44.0933867" lon="9.99245"><ele>20.0</ele><time>2026-04-06T16:09:03.659Z</time></trkpt><trkpt lat="44.0934583" lon="9.9923583"><ele>20.0</ele><time>2026-04-06T16:09:04.66Z</time></trkpt><trkpt lat="44.09353" lon="9.9922633"><ele>20.4</ele><time>2026-04-06T16:09:05.659Z</time></trkpt><trkpt lat="44.0936033" lon="9.9921683"><ele>20.8</ele><time>2026-04-06T16:09:06.66Z</time></trkpt><trkpt lat="44.09368" lon="9.9920683"><ele>21.200000000000003</ele><time>2026-04-06T16:09:07.66Z</time></trkpt><trkpt lat="44.0937517" lon="9.9919667"><ele>21.6</ele><time>2026-04-06T16:09:08.659Z</time></trkpt><trkpt lat="44.093825" lon="9.99186"><ele>22.0</ele><time>2026-04-06T16:09:09.659Z</time></trkpt><trkpt lat="44.0939017" lon="9.99175"><ele>22.0</ele><time>2026-04-06T16:09:10.659Z</time></trkpt><trkpt lat="44.093975" lon="9.9916367"><ele>22.0</ele><time>2026-04-06T16:09:11.659Z</time></trkpt><trkpt lat="44.0940483" lon="9.9915183"><ele>22.0</ele><time>2026-04-06T16:09:12.659Z</time></trkpt><trkpt lat="44.094125" lon="9.991395"><ele>22.0</ele><time>2026-04-06T16:09:13.659Z</time></trkpt><trkpt lat="44.0942017" lon="9.991275"><ele>22.0</ele><time>2026-04-06T16:09:14.66Z</time></trkpt><trkpt lat="44.0942817" lon="9.99116"><ele>22.0</ele><time>2026-04-06T16:09:15.659Z</time></trkpt><trkpt lat="44.0943667" lon="9.991055"><ele>22.0</ele><time>2026-04-06T16:09:16.659Z</time></trkpt><trkpt lat="44.0944517" lon="9.9909583"><ele>22.0</ele><time>2026-04-06T16:09:17.659Z</time></trkpt><trkpt lat="44.09454" lon="9.990865"><ele>22.0</ele><time>2026-04-06T16:09:18.659Z</time></trkpt><trkpt lat="44.0946333" lon="9.9907817"><ele>22.0</ele><time>2026-04-06T16:09:19.659Z</time></trkpt><trkpt lat="44.0947233" lon="9.9906917"><ele>22.0</ele><time>2026-04-06T16:09:20.659Z</time></trkpt><trkpt lat="44.0948117" lon="9.9905933"><ele>22.0</ele><time>2026-04-06T16:09:21.659Z</time></trkpt><trkpt lat="44.094895" lon="9.9904817"><ele>22.0</ele><time>2026-04-06T16:09:22.659Z</time></trkpt><trkpt lat="44.0949683" lon="9.99036"><ele>22.0</ele><time>2026-04-06T16:09:23.659Z</time></trkpt><trkpt lat="44.0950367" lon="9.9902283"><ele>22.0</ele><time>2026-04-06T16:09:24.659Z</time></trkpt><trkpt lat="44.0951" lon="9.9901"><ele>22.0</ele><time>2026-04-06T16:09:25.659Z</time></trkpt><trkpt lat="44.0951567" lon="9.9899683"><ele>22.0</ele><time>2026-04-06T16:09:26.659Z</time></trkpt><trkpt lat="44.0952117" lon="9.989835"><ele>22.0</ele><time>2026-04-06T16:09:27.659Z</time></trkpt><trkpt lat="44.0952717" lon="9.9896983"><ele>22.0</ele><time>2026-04-06T16:09:28.659Z</time></trkpt><trkpt lat="44.095335" lon="9.989565"><ele>22.0</ele><time>2026-04-06T16:09:29.659Z</time></trkpt><trkpt lat="44.0953967" lon="9.989435"><ele>22.0</ele><time>2026-04-06T16:09:30.659Z</time></trkpt><trkpt lat="44.0954583" lon="9.98931"><ele>22.0</ele><time>2026-04-06T16:09:31.659Z</time></trkpt><trkpt lat="44.09552" lon="9.989185"><ele>22.0</ele><time>2026-04-06T16:09:32.659Z</time></trkpt><trkpt lat="44.0955833" lon="9.9890567"><ele>22.0</ele><time>2026-04-06T16:09:33.66Z</time></trkpt><trkpt lat="44.095645" lon="9.9889333"><ele>22.0</ele><time>2026-04-06T16:09:34.659Z</time></trkpt><trkpt lat="44.095705" lon="9.9888033"><ele>22.0</ele><time>2026-04-06T16:09:35.66Z</time></trkpt><trkpt lat="44.095765" lon="9.988675"><ele>22.0</ele><time>2026-04-06T16:09:36.659Z</time></trkpt><trkpt lat="44.0958283" lon="9.98855"><ele>22.0</ele><time>2026-04-06T16:09:37.659Z</time></trkpt><trkpt lat="44.0958883" lon="9.9884267"><ele>21.8</ele><time>2026-04-06T16:09:38.659Z</time></trkpt><trkpt lat="44.0959483" lon="9.988305"><ele>21.6</ele><time>2026-04-06T16:09:39.659Z</time></trkpt><trkpt lat="44.0960117" lon="9.9881833"><ele>21.400000000000002</ele><time>2026-04-06T16:09:40.66Z</time></trkpt><trkpt lat="44.0960767" lon="9.9880633"><ele>21.200000000000003</ele><time>2026-04-06T16:09:41.659Z</time></trkpt><trkpt lat="44.096145" lon="9.9879467"><ele>21.0</ele><time>2026-04-06T16:09:42.659Z</time></trkpt><trkpt lat="44.096215" lon="9.9878317"><ele>21.0</ele><time>2026-04-06T16:09:43.659Z</time></trkpt><trkpt lat="44.0962867" lon="9.9877167"><ele>21.0</ele><time>2026-04-06T16:09:44.659Z</time></trkpt><trkpt lat="44.09636" lon="9.9876033"><ele>21.0</ele><time>2026-04-06T16:09:45.659Z</time></trkpt><trkpt lat="44.09643" lon="9.987495"><ele>21.0</ele><time>2026-04-06T16:09:46.659Z</time></trkpt><trkpt lat="44.0964933" lon="9.9874033"><ele>21.0</ele><time>2026-04-06T16:09:47.659Z</time></trkpt><trkpt lat="44.0965467" lon="9.9873233"><ele>21.333333333333332</ele><time>2026-04-06T16:09:48.659Z</time></trkpt><trkpt lat="44.09659" lon="9.9872583"><ele>21.666666666666668</ele><time>2026-04-06T16:09:49.659Z</time></trkpt><trkpt lat="44.0966367" lon="9.987175"><ele>22.0</ele><time>2026-04-06T16:09:51.659Z</time></trkpt><trkpt lat="44.0966917" lon="9.987095"><ele>22.333333333333336</ele><time>2026-04-06T16:09:54.659Z</time></trkpt><trkpt lat="44.0967583" lon="9.9869933"><ele>22.666666666666668</ele><time>2026-04-06T16:09:56.66Z</time></trkpt><trkpt lat="44.0968333" lon="9.9868733"><ele>23.0</ele><time>2026-04-06T16:09:58.66Z</time></trkpt><trkpt lat="44.0968783" lon="9.98681"><ele>23.0</ele><time>2026-04-06T16:09:59.659Z</time></trkpt><trkpt lat="44.0969233" lon="9.9867467"><ele>23.0</ele><time>2026-04-06T16:10:00.659Z</time></trkpt><trkpt lat="44.0969667" lon="9.98668"><ele>23.0</ele><time>2026-04-06T16:10:01.66Z</time></trkpt><trkpt lat="44.0970117" lon="9.986605"><ele>23.0</ele><time>2026-04-06T16:10:02.659Z</time></trkpt><trkpt lat="44.097065" lon="9.9865217"><ele>23.0</ele><time>2026-04-06T16:10:03.659Z</time></trkpt><trkpt lat="44.0971217" lon="9.9864333"><ele>23.0</ele><time>2026-04-06T16:10:04.659Z</time></trkpt><trkpt lat="44.09719" lon="9.9863383"><ele>23.0</ele><time>2026-04-06T16:10:05.659Z</time></trkpt><trkpt lat="44.0972633" lon="9.98624"><ele>23.0</ele><time>2026-04-06T16:10:06.659Z</time></trkpt><trkpt lat="44.097335" lon="9.9861317"><ele>23.0</ele><time>2026-04-06T16:10:07.66Z</time></trkpt><trkpt lat="44.0974083" lon="9.9860183"><ele>23.0</ele><time>2026-04-06T16:10:08.659Z</time></trkpt><trkpt lat="44.0974817" lon="9.985905"><ele>23.0</ele><time>2026-04-06T16:10:09.659Z</time></trkpt><trkpt lat="44.0975617" lon="9.9857917"><ele>22.75</ele><time>2026-04-06T16:10:10.659Z</time></trkpt><trkpt lat="44.0976467" lon="9.985675"><ele>22.5</ele><time>2026-04-06T16:10:11.659Z</time></trkpt><trkpt lat="44.097725" lon="9.9855567"><ele>22.25</ele><time>2026-04-06T16:10:12.659Z</time></trkpt><trkpt lat="44.0977967" lon="9.985445"><ele>22.0</ele><time>2026-04-06T16:10:13.659Z</time></trkpt><trkpt lat="44.0978683" lon="9.9853317"><ele>22.0</ele><time>2026-04-06T16:10:14.659Z</time></trkpt><trkpt lat="44.09794" lon="9.9852233"><ele>22.0</ele><time>2026-04-06T16:10:15.66Z</time></trkpt><trkpt lat="44.0980133" lon="9.985115"><ele>22.0</ele><time>2026-04-06T16:10:16.659Z</time></trkpt><trkpt lat="44.0980917" lon="9.984995"><ele>22.0</ele><time>2026-04-06T16:10:17.659Z</time></trkpt><trkpt lat="44.0981667" lon="9.9848817"><ele>22.0</ele><time>2026-04-06T16:10:18.66Z</time></trkpt><trkpt lat="44.0982467" lon="9.9847617"><ele>22.0</ele><time>2026-04-06T16:10:19.66Z</time></trkpt><trkpt lat="44.098325" lon="9.9846383"><ele>22.0</ele><time>2026-04-06T16:10:20.66Z</time></trkpt><trkpt lat="44.098405" lon="9.9845133"><ele>22.0</ele><time>2026-04-06T16:10:21.659Z</time></trkpt><trkpt lat="44.0984833" lon="9.984395"><ele>22.0</ele><time>2026-04-06T16:10:22.659Z</time></trkpt><trkpt lat="44.0985617" lon="9.9842767"><ele>21.5</ele><time>2026-04-06T16:10:23.658Z</time></trkpt><trkpt lat="44.0986417" lon="9.9841567"><ele>21.0</ele><time>2026-04-06T16:10:24.659Z</time></trkpt><trkpt lat="44.09872" lon="9.9840383"><ele>20.5</ele><time>2026-04-06T16:10:25.658Z</time></trkpt><trkpt lat="44.0987967" lon="9.98392"><ele>20.0</ele><time>2026-04-06T16:10:26.658Z</time></trkpt><trkpt lat="44.098875" lon="9.9838067"><ele>20.0</ele><time>2026-04-06T16:10:27.658Z</time></trkpt><trkpt lat="44.0989517" lon="9.983695"><ele>20.0</ele><time>2026-04-06T16:10:28.658Z</time></trkpt><trkpt lat="44.0990317" lon="9.9835867"><ele>20.0</ele><time>2026-04-06T16:10:29.658Z</time></trkpt><trkpt lat="44.0991133" lon="9.98349"><ele>20.0</ele><time>2026-04-06T16:10:30.658Z</time></trkpt><trkpt lat="44.0991983" lon="9.983395"><ele>20.0</ele><time>2026-04-06T16:10:31.658Z</time></trkpt><trkpt lat="44.099285" lon="9.9833033"><ele>20.25</ele><time>2026-04-06T16:10:32.658Z</time></trkpt><trkpt lat="44.0993767" lon="9.9832133"><ele>20.5</ele><time>2026-04-06T16:10:33.658Z</time></trkpt><trkpt lat="44.0994717" lon="9.983125"><ele>20.75</ele><time>2026-04-06T16:10:34.658Z</time></trkpt><trkpt lat="44.0995683" lon="9.9830417"><ele>21.0</ele><time>2026-04-06T16:10:35.658Z</time></trkpt><trkpt lat="44.0996617" lon="9.98296"><ele>21.0</ele><time>2026-04-06T16:10:36.658Z</time></trkpt><trkpt lat="44.0997567" lon="9.9828833"><ele>21.0</ele><time>2026-04-06T16:10:37.658Z</time></trkpt><trkpt lat="44.0998517" lon="9.9827933"><ele>21.0</ele><time>2026-04-06T16:10:38.659Z</time></trkpt><trkpt lat="44.099945" lon="9.9826967"><ele>21.0</ele><time>2026-04-06T16:10:39.658Z</time></trkpt><trkpt lat="44.1000317" lon="9.9825867"><ele>19.75</ele><time>2026-04-06T16:10:40.658Z</time></trkpt><trkpt lat="44.1001167" lon="9.982465"><ele>18.5</ele><time>2026-04-06T16:10:41.658Z</time></trkpt><trkpt lat="44.1002" lon="9.982345"><ele>17.25</ele><time>2026-04-06T16:10:42.658Z</time></trkpt><trkpt lat="44.1002817" lon="9.9822267"><ele>16.0</ele><time>2026-04-06T16:10:43.658Z</time></trkpt><trkpt lat="44.1003583" lon="9.9821117"><ele>16.0</ele><time>2026-04-06T16:10:44.659Z</time></trkpt><trkpt lat="44.1004367" lon="9.9819933"><ele>16.0</ele><time>2026-04-06T16:10:45.658Z</time></trkpt><trkpt lat="44.1005083" lon="9.9818833"><ele>16.0</ele><time>2026-04-06T16:10:46.658Z</time></trkpt><trkpt lat="44.100575" lon="9.98178"><ele>16.0</ele><time>2026-04-06T16:10:47.658Z</time></trkpt><trkpt lat="44.1006433" lon="9.9816767"><ele>16.0</ele><time>2026-04-06T16:10:48.658Z</time></trkpt><trkpt lat="44.10071" lon="9.981575"><ele>16.333333333333332</ele><time>2026-04-06T16:10:49.658Z</time></trkpt><trkpt lat="44.1007767" lon="9.9814833"><ele>16.666666666666664</ele><time>2026-04-06T16:10:50.658Z</time></trkpt><trkpt lat="44.1008383" lon="9.9813933"><ele>17.0</ele><time>2026-04-06T16:10:51.658Z</time></trkpt><trkpt lat="44.100895" lon="9.981305"><ele>17.333333333333332</ele><time>2026-04-06T16:10:52.658Z</time></trkpt><trkpt lat="44.1009533" lon="9.9812167"><ele>17.666666666666668</ele><time>2026-04-06T16:10:53.658Z</time></trkpt><trkpt lat="44.1010117" lon="9.9811283"><ele>18.0</ele><time>2026-04-06T16:10:54.658Z</time></trkpt><trkpt lat="44.1010717" lon="9.9810417"><ele>18.0</ele><time>2026-04-06T16:10:55.659Z</time></trkpt><trkpt lat="44.1011317" lon="9.9809483"><ele>18.0</ele><time>2026-04-06T16:10:56.658Z</time></trkpt><trkpt lat="44.101195" lon="9.9808533"><ele>18.0</ele><time>2026-04-06T16:10:57.658Z</time></trkpt><trkpt lat="44.1012583" lon="9.9807533"><ele>18.0</ele><time>2026-04-06T16:10:58.659Z</time></trkpt><trkpt lat="44.1013233" lon="9.9806583"><ele>18.0</ele><time>2026-04-06T16:10:59.659Z</time></trkpt><trkpt lat="44.1013883" lon="9.98056"><ele>18.4</ele><time>2026-04-06T16:11:00.658Z</time></trkpt><trkpt lat="44.10145" lon="9.9804583"><ele>18.8</ele><time>2026-04-06T16:11:01.658Z</time></trkpt><trkpt lat="44.1015133" lon="9.98036"><ele>19.2</ele><time>2026-04-06T16:11:02.659Z</time></trkpt><trkpt lat="44.1015767" lon="9.9802617"><ele>19.6</ele><time>2026-04-06T16:11:03.658Z</time></trkpt><trkpt lat="44.10164" lon="9.9801567"><ele>20.0</ele><time>2026-04-06T16:11:04.658Z</time></trkpt><trkpt lat="44.101705" lon="9.9800567"><ele>19.8</ele><time>2026-04-06T16:11:05.658Z</time></trkpt><trkpt lat="44.1017667" lon="9.97995"><ele>19.6</ele><time>2026-04-06T16:11:06.658Z</time></trkpt><trkpt lat="44.1018317" lon="9.9798433"><ele>19.4</ele><time>2026-04-06T16:11:07.658Z</time></trkpt><trkpt lat="44.1018983" lon="9.9797367"><ele>19.2</ele><time>2026-04-06T16:11:08.659Z</time></trkpt><trkpt lat="44.10197" lon="9.97963"><ele>19.0</ele><time>2026-04-06T16:11:09.658Z</time></trkpt><trkpt lat="44.1020433" lon="9.9795183"><ele>19.0</ele><time>2026-04-06T16:11:10.658Z</time></trkpt><trkpt lat="44.10212" lon="9.979405"><ele>19.0</ele><time>2026-04-06T16:11:11.658Z</time></trkpt><trkpt lat="44.1021983" lon="9.9792933"><ele>19.0</ele><time>2026-04-06T16:11:12.658Z</time></trkpt><trkpt lat="44.1022817" lon="9.9791867"><ele>19.0</ele><time>2026-04-06T16:11:13.658Z</time></trkpt><trkpt lat="44.10236" lon="9.9790683"><ele>18.25</ele><time>2026-04-06T16:11:14.658Z</time></trkpt><trkpt lat="44.102435" lon="9.9789433"><ele>17.5</ele><time>2026-04-06T16:11:15.658Z</time></trkpt><trkpt lat="44.102515" lon="9.9788183"><ele>16.75</ele><time>2026-04-06T16:11:16.658Z</time></trkpt><trkpt lat="44.1025933" lon="9.9786983"><ele>16.0</ele><time>2026-04-06T16:11:17.658Z</time></trkpt><trkpt lat="44.1026733" lon="9.9785783"><ele>16.0</ele><time>2026-04-06T16:11:18.658Z</time></trkpt><trkpt lat="44.1027533" lon="9.9784667"><ele>16.0</ele><time>2026-04-06T16:11:19.658Z</time></trkpt><trkpt lat="44.102835" lon="9.9783583"><ele>16.0</ele><time>2026-04-06T16:11:20.658Z</time></trkpt><trkpt lat="44.1029183" lon="9.97824"><ele>16.0</ele><time>2026-04-06T16:11:21.658Z</time></trkpt><trkpt lat="44.103005" lon="9.9781133"><ele>16.75</ele><time>2026-04-06T16:11:22.658Z</time></trkpt><trkpt lat="44.1030867" lon="9.9779717"><ele>17.5</ele><time>2026-04-06T16:11:23.659Z</time></trkpt><trkpt lat="44.1031667" lon="9.9778117"><ele>18.25</ele><time>2026-04-06T16:11:24.658Z</time></trkpt><trkpt lat="44.1032433" lon="9.977635"><ele>19.0</ele><time>2026-04-06T16:11:25.658Z</time></trkpt><trkpt lat="44.10331" lon="9.9774417"><ele>16.666666666666664</ele><time>2026-04-06T16:11:26.658Z</time></trkpt><trkpt lat="44.1033633" lon="9.97724"><ele>14.333333333333332</ele><time>2026-04-06T16:11:27.658Z</time></trkpt><trkpt lat="44.1034083" lon="9.9770317"><ele>12.0</ele><time>2026-04-06T16:11:28.658Z</time></trkpt><trkpt lat="44.103445" lon="9.976815"><ele>11.666666666666666</ele><time>2026-04-06T16:11:29.658Z</time></trkpt><trkpt lat="44.1034733" lon="9.9765983"><ele>11.333333333333332</ele><time>2026-04-06T16:11:30.659Z</time></trkpt><trkpt lat="44.1034867" lon="9.9763833"><ele>11.0</ele><time>2026-04-06T16:11:31.659Z</time></trkpt><trkpt lat="44.1034867" lon="9.9761767"><ele>11.0</ele><time>2026-04-06T16:11:32.658Z</time></trkpt><trkpt lat="44.1034767" lon="9.975965"><ele>11.0</ele><time>2026-04-06T16:11:33.658Z</time></trkpt><trkpt lat="44.103455" lon="9.9757533"><ele>11.0</ele><time>2026-04-06T16:11:34.659Z</time></trkpt><trkpt lat="44.1034333" lon="9.9755467"><ele>11.25</ele><time>2026-04-06T16:11:35.658Z</time></trkpt><trkpt lat="44.1034117" lon="9.975345"><ele>11.5</ele><time>2026-04-06T16:11:36.658Z</time></trkpt><trkpt lat="44.1033867" lon="9.9751433"><ele>11.75</ele><time>2026-04-06T16:11:37.658Z</time></trkpt><trkpt lat="44.1033583" lon="9.9749367"><ele>12.0</ele><time>2026-04-06T16:11:38.658Z</time></trkpt><trkpt lat="44.10333" lon="9.9747233"><ele>11.5</ele><time>2026-04-06T16:11:39.658Z</time></trkpt><trkpt lat="44.1033" lon="9.974515"><ele>11.0</ele><time>2026-04-06T16:11:40.658Z</time></trkpt><trkpt lat="44.10327" lon="9.974315"><ele>10.5</ele><time>2026-04-06T16:11:41.659Z</time></trkpt><trkpt lat="44.10324" lon="9.974115"><ele>10.0</ele><time>2026-04-06T16:11:42.658Z</time></trkpt><trkpt lat="44.103215" lon="9.9739133"><ele>9.75</ele><time>2026-04-06T16:11:43.658Z</time></trkpt><trkpt lat="44.103195" lon="9.9737117"><ele>9.5</ele><time>2026-04-06T16:11:44.658Z</time></trkpt><trkpt lat="44.1031667" lon="9.9735233"><ele>9.25</ele><time>2026-04-06T16:11:45.658Z</time></trkpt><trkpt lat="44.1031383" lon="9.9733333"><ele>9.0</ele><time>2026-04-06T16:11:46.658Z</time></trkpt><trkpt lat="44.103115" lon="9.9731383"><ele>8.75</ele><time>2026-04-06T16:11:47.658Z</time></trkpt><trkpt lat="44.1030917" lon="9.9729467"><ele>8.5</ele><time>2026-04-06T16:11:48.658Z</time></trkpt><trkpt lat="44.10307" lon="9.972755"><ele>8.25</ele><time>2026-04-06T16:11:49.658Z</time></trkpt><trkpt lat="44.1030483" lon="9.9725717"><ele>8.0</ele><time>2026-04-06T16:11:50.658Z</time></trkpt><trkpt lat="44.1030317" lon="9.9724"><ele>8.4</ele><time>2026-04-06T16:11:51.659Z</time></trkpt><trkpt lat="44.1030217" lon="9.972245"><ele>8.8</ele><time>2026-04-06T16:11:52.658Z</time></trkpt><trkpt lat="44.103015" lon="9.9721083"><ele>9.2</ele><time>2026-04-06T16:11:53.659Z</time></trkpt><trkpt lat="44.1030083" lon="9.9719783"><ele>9.6</ele><time>2026-04-06T16:11:54.659Z</time></trkpt><trkpt lat="44.103005" lon="9.971845"><ele>10.0</ele><time>2026-04-06T16:11:55.658Z</time></trkpt><trkpt lat="44.1030067" lon="9.9716967"><ele>9.5</ele><time>2026-04-06T16:11:56.658Z</time></trkpt><trkpt lat="44.1030117" lon="9.97154"><ele>9.0</ele><time>2026-04-06T16:11:57.658Z</time></trkpt><trkpt lat="44.1030183" lon="9.9713783"><ele>8.5</ele><time>2026-04-06T16:11:58.658Z</time></trkpt><trkpt lat="44.1030233" lon="9.9712183"><ele>8.0</ele><time>2026-04-06T16:11:59.658Z</time></trkpt><trkpt lat="44.1030333" lon="9.97106"><ele>8.0</ele><time>2026-04-06T16:12:00.658Z</time></trkpt><trkpt lat="44.103045" lon="9.9709067"><ele>8.0</ele><time>2026-04-06T16:12:01.658Z</time></trkpt><trkpt lat="44.1030533" lon="9.9707583"><ele>8.0</ele><time>2026-04-06T16:12:02.658Z</time></trkpt><trkpt lat="44.1030617" lon="9.970615"><ele>8.0</ele><time>2026-04-06T16:12:03.658Z</time></trkpt><trkpt lat="44.1030683" lon="9.9704717"><ele>8.0</ele><time>2026-04-06T16:12:04.658Z</time></trkpt><trkpt lat="44.1030783" lon="9.9703217"><ele>8.0</ele><time>2026-04-06T16:12:05.658Z</time></trkpt><trkpt lat="44.10309" lon="9.9701667"><ele>8.0</ele><time>2026-04-06T16:12:06.659Z</time></trkpt><trkpt lat="44.1031033" lon="9.9700083"><ele>8.0</ele><time>2026-04-06T16:12:07.658Z</time></trkpt><trkpt lat="44.103115" lon="9.9698717"><ele>8.0</ele><time>2026-04-06T16:12:08.658Z</time></trkpt><trkpt lat="44.1031267" lon="9.969755"><ele>8.0</ele><time>2026-04-06T16:12:09.658Z</time></trkpt><trkpt lat="44.10313" lon="9.969645"><ele>7.999999999999999</ele><time>2026-04-06T16:12:10.658Z</time></trkpt><trkpt lat="44.1031333" lon="9.969525"><ele>8.0</ele><time>2026-04-06T16:12:11.658Z</time></trkpt><trkpt lat="44.10314" lon="9.9694133"><ele>8.0</ele><time>2026-04-06T16:12:12.658Z</time></trkpt><trkpt lat="44.1031467" lon="9.969315"><ele>8.0</ele><time>2026-04-06T16:12:13.658Z</time></trkpt><trkpt lat="44.1031567" lon="9.9691983"><ele>7.999999999999999</ele><time>2026-04-06T16:12:15.658Z</time></trkpt><trkpt lat="44.10317" lon="9.9691083"><ele>8.0</ele><time>2026-04-06T16:12:17.658Z</time></trkpt><trkpt lat="44.1032017" lon="9.9689883"><ele>7.999999999999999</ele><time>2026-04-06T16:12:19.658Z</time></trkpt><trkpt lat="44.1032367" lon="9.9689017"><ele>8.0</ele><time>2026-04-06T16:12:22.658Z</time></trkpt><trkpt lat="44.1032983" lon="9.96879"><ele>8.0</ele><time>2026-04-06T16:12:25.658Z</time></trkpt><trkpt lat="44.1033183" lon="9.9686917"><ele>8.0</ele><time>2026-04-06T16:12:27.658Z</time></trkpt><trkpt lat="44.103305" lon="9.9685733"><ele>7.999999999999999</ele><time>2026-04-06T16:12:30.659Z</time></trkpt><trkpt lat="44.1032917" lon="9.9684367"><ele>8.0</ele><time>2026-04-06T16:12:32.658Z</time></trkpt><trkpt lat="44.1032967" lon="9.96834"><ele>7.833333333333333</ele><time>2026-04-06T16:12:33.658Z</time></trkpt><trkpt lat="44.103305" lon="9.9682433"><ele>7.666666666666666</ele><time>2026-04-06T16:12:34.658Z</time></trkpt><trkpt lat="44.10333" lon="9.968075"><ele>7.5</ele><time>2026-04-06T16:12:36.659Z</time></trkpt><trkpt lat="44.1033583" lon="9.9679917"><ele>7.333333333333334</ele><time>2026-04-06T16:12:37.658Z</time></trkpt><trkpt lat="44.1034133" lon="9.9678617"><ele>7.166666666666667</ele><time>2026-04-06T16:12:39.658Z</time></trkpt><trkpt lat="44.1034433" lon="9.9677733"><ele>7.0</ele><time>2026-04-06T16:12:41.658Z</time></trkpt><trkpt lat="44.1034767" lon="9.96767"><ele>7.000000000000001</ele><time>2026-04-06T16:12:44.658Z</time></trkpt><trkpt lat="44.1035067" lon="9.9675567"><ele>7.0</ele><time>2026-04-06T16:12:47.658Z</time></trkpt><trkpt lat="44.103545" lon="9.9674233"><ele>7.0</ele><time>2026-04-06T16:12:49.658Z</time></trkpt><trkpt lat="44.1035683" lon="9.9673417"><ele>7.0</ele><time>2026-04-06T16:12:50.658Z</time></trkpt><trkpt lat="44.10359" lon="9.967255"><ele>7.000000000000001</ele><time>2026-04-06T16:12:51.658Z</time></trkpt><trkpt lat="44.1036167" lon="9.9671683"><ele>7.0</ele><time>2026-04-06T16:12:52.658Z</time></trkpt><trkpt lat="44.1036433" lon="9.9670867"><ele>6.6</ele><time>2026-04-06T16:12:53.658Z</time></trkpt><trkpt lat="44.1036917" lon="9.9669217"><ele>6.199999999999999</ele><time>2026-04-06T16:12:55.658Z</time></trkpt><trkpt lat="44.10372" lon="9.96683"><ele>5.8</ele><time>2026-04-06T16:12:56.658Z</time></trkpt><trkpt lat="44.1037467" lon="9.9667267"><ele>5.4</ele><time>2026-04-06T16:12:57.658Z</time></trkpt><trkpt lat="44.1037767" lon="9.96661"><ele>5.0</ele><time>2026-04-06T16:12:58.658Z</time></trkpt><trkpt lat="44.10381" lon="9.9664883"><ele>5.0</ele><time>2026-04-06T16:12:59.659Z</time></trkpt><trkpt lat="44.1038417" lon="9.9663617"><ele>5.0</ele><time>2026-04-06T16:13:00.659Z</time></trkpt><trkpt lat="44.1038767" lon="9.96623"><ele>5.0</ele><time>2026-04-06T16:13:01.658Z</time></trkpt><trkpt lat="44.103905" lon="9.96611"><ele>5.0</ele><time>2026-04-06T16:13:02.658Z</time></trkpt><trkpt lat="44.10393" lon="9.9660033"><ele>5.0</ele><time>2026-04-06T16:13:03.658Z</time></trkpt><trkpt lat="44.1039533" lon="9.9659083"><ele>5.0</ele><time>2026-04-06T16:13:04.658Z</time></trkpt><trkpt lat="44.103975" lon="9.965825"><ele>5.166666666666667</ele><time>2026-04-06T16:13:05.658Z</time></trkpt><trkpt lat="44.104" lon="9.96573"><ele>5.333333333333334</ele><time>2026-04-06T16:13:07.659Z</time></trkpt><trkpt lat="44.104035" lon="9.9656283"><ele>5.5</ele><time>2026-04-06T16:13:12.659Z</time></trkpt><trkpt lat="44.1040667" lon="9.9655333"><ele>5.666666666666667</ele><time>2026-04-06T16:13:15.659Z</time></trkpt><trkpt lat="44.1041" lon="9.9654383"><ele>5.833333333333333</ele><time>2026-04-06T16:13:17.658Z</time></trkpt><trkpt lat="44.10414" lon="9.9652967"><ele>6.0</ele><time>2026-04-06T16:13:19.658Z</time></trkpt><trkpt lat="44.1041667" lon="9.9652033"><ele>6.0</ele><time>2026-04-06T16:13:20.658Z</time></trkpt><trkpt lat="44.1041983" lon="9.9651033"><ele>6.0</ele><time>2026-04-06T16:13:21.658Z</time></trkpt><trkpt lat="44.104235" lon="9.9649967"><ele>6.0</ele><time>2026-04-06T16:13:22.658Z</time></trkpt><trkpt lat="44.1042633" lon="9.96489"><ele>6.0</ele><time>2026-04-06T16:13:23.658Z</time></trkpt><trkpt lat="44.1042933" lon="9.9647883"><ele>6.0</ele><time>2026-04-06T16:13:24.659Z</time></trkpt><trkpt lat="44.10432" lon="9.9646933"><ele>6.0</ele><time>2026-04-06T16:13:25.658Z</time></trkpt><trkpt lat="44.1043483" lon="9.9646017"><ele>6.666666666666667</ele><time>2026-04-06T16:13:26.658Z</time></trkpt><trkpt lat="44.1043917" lon="9.9644417"><ele>7.333333333333334</ele><time>2026-04-06T16:13:28.658Z</time></trkpt><trkpt lat="44.1044117" lon="9.9643583"><ele>8.0</ele><time>2026-04-06T16:13:29.658Z</time></trkpt><trkpt lat="44.1044533" lon="9.9641917"><ele>8.666666666666668</ele><time>2026-04-06T16:13:31.658Z</time></trkpt><trkpt lat="44.10448" lon="9.964105"><ele>9.333333333333334</ele><time>2026-04-06T16:13:32.658Z</time></trkpt><trkpt lat="44.1045033" lon="9.96402"><ele>10.0</ele><time>2026-04-06T16:13:33.658Z</time></trkpt><trkpt lat="44.1045333" lon="9.9639233"><ele>10.0</ele><time>2026-04-06T16:13:34.659Z</time></trkpt><trkpt lat="44.104565" lon="9.963815"><ele>10.0</ele><time>2026-04-06T16:13:35.659Z</time></trkpt><trkpt lat="44.104595" lon="9.96371"><ele>10.0</ele><time>2026-04-06T16:13:36.658Z</time></trkpt><trkpt lat="44.1046267" lon="9.96361"><ele>10.0</ele><time>2026-04-06T16:13:37.658Z</time></trkpt><trkpt lat="44.1046567" lon="9.9635217"><ele>10.0</ele><time>2026-04-06T16:13:38.658Z</time></trkpt><trkpt lat="44.1046983" lon="9.9634133"><ele>10.0</ele><time>2026-04-06T16:13:40.658Z</time></trkpt><trkpt lat="44.1047317" lon="9.9633217"><ele>10.0</ele><time>2026-04-06T16:13:42.658Z</time></trkpt><trkpt lat="44.10479" lon="9.963175"><ele>10.0</ele><time>2026-04-06T16:13:44.658Z</time></trkpt><trkpt lat="44.1048133" lon="9.963075"><ele>10.0</ele><time>2026-04-06T16:13:45.658Z</time></trkpt><trkpt lat="44.10483" lon="9.96295"><ele>10.0</ele><time>2026-04-06T16:13:46.658Z</time></trkpt><trkpt lat="44.104855" lon="9.9628117"><ele>10.0</ele><time>2026-04-06T16:13:47.658Z</time></trkpt><trkpt lat="44.104885" lon="9.9626667"><ele>10.0</ele><time>2026-04-06T16:13:48.658Z</time></trkpt><trkpt lat="44.1049233" lon="9.9625167"><ele>10.0</ele><time>2026-04-06T16:13:49.658Z</time></trkpt><trkpt lat="44.104965" lon="9.962365"><ele>10.0</ele><time>2026-04-06T16:13:50.658Z</time></trkpt><trkpt lat="44.1050067" lon="9.9622133"><ele>10.0</ele><time>2026-04-06T16:13:51.658Z</time></trkpt><trkpt lat="44.1050517" lon="9.9620583"><ele>10.0</ele><time>2026-04-06T16:13:52.658Z</time></trkpt><trkpt lat="44.1050933" lon="9.9619017"><ele>10.0</ele><time>2026-04-06T16:13:53.658Z</time></trkpt><trkpt lat="44.105135" lon="9.9617417"><ele>10.0</ele><time>2026-04-06T16:13:54.658Z</time></trkpt><trkpt lat="44.105175" lon="9.961575"><ele>10.0</ele><time>2026-04-06T16:13:55.659Z</time></trkpt><trkpt lat="44.105205" lon="9.9614017"><ele>10.0</ele><time>2026-04-06T16:13:56.658Z</time></trkpt><trkpt lat="44.1052333" lon="9.9612267"><ele>10.0</ele><time>2026-04-06T16:13:57.658Z</time></trkpt><trkpt lat="44.1052617" lon="9.961045"><ele>10.0</ele><time>2026-04-06T16:13:58.658Z</time></trkpt><trkpt lat="44.1052867" lon="9.9608617"><ele>10.0</ele><time>2026-04-06T16:13:59.658Z</time></trkpt><trkpt lat="44.10531" lon="9.96068"><ele>10.0</ele><time>2026-04-06T16:14:00.658Z</time></trkpt><trkpt lat="44.105335" lon="9.9605017"><ele>10.0</ele><time>2026-04-06T16:14:01.658Z</time></trkpt><trkpt lat="44.10536" lon="9.9603167"><ele>10.0</ele><time>2026-04-06T16:14:02.658Z</time></trkpt><trkpt lat="44.1053867" lon="9.9601333"><ele>10.0</ele><time>2026-04-06T16:14:03.658Z</time></trkpt><trkpt lat="44.1054133" lon="9.9599517"><ele>10.0</ele><time>2026-04-06T16:14:04.658Z</time></trkpt><trkpt lat="44.1054417" lon="9.95977"><ele>10.0</ele><time>2026-04-06T16:14:05.658Z</time></trkpt><trkpt lat="44.1054667" lon="9.95959"><ele>10.0</ele><time>2026-04-06T16:14:06.658Z</time></trkpt><trkpt lat="44.1054917" lon="9.9594133"><ele>10.0</ele><time>2026-04-06T16:14:07.658Z</time></trkpt><trkpt lat="44.1055183" lon="9.95924"><ele>10.25</ele><time>2026-04-06T16:14:08.659Z</time></trkpt><trkpt lat="44.1055433" lon="9.959075"><ele>10.5</ele><time>2026-04-06T16:14:09.659Z</time></trkpt><trkpt lat="44.10557" lon="9.9589167"><ele>10.75</ele><time>2026-04-06T16:14:10.658Z</time></trkpt><trkpt lat="44.105595" lon="9.9587617"><ele>11.0</ele><time>2026-04-06T16:14:11.659Z</time></trkpt><trkpt lat="44.10562" lon="9.9586033"><ele>11.0</ele><time>2026-04-06T16:14:12.658Z</time></trkpt><trkpt lat="44.1056433" lon="9.958445"><ele>11.0</ele><time>2026-04-06T16:14:13.658Z</time></trkpt><trkpt lat="44.105665" lon="9.9582833"><ele>11.0</ele><time>2026-04-06T16:14:14.658Z</time></trkpt><trkpt lat="44.1056917" lon="9.9581267"><ele>11.0</ele><time>2026-04-06T16:14:15.658Z</time></trkpt><trkpt lat="44.1057217" lon="9.957975"><ele>11.0</ele><time>2026-04-06T16:14:16.658Z</time></trkpt><trkpt lat="44.1057567" lon="9.9578183"><ele>11.0</ele><time>2026-04-06T16:14:17.659Z</time></trkpt><trkpt lat="44.1057983" lon="9.9576667"><ele>11.0</ele><time>2026-04-06T16:14:18.658Z</time></trkpt><trkpt lat="44.105845" lon="9.95752"><ele>11.0</ele><time>2026-04-06T16:14:19.658Z</time></trkpt><trkpt lat="44.1058917" lon="9.9573783"><ele>11.0</ele><time>2026-04-06T16:14:20.658Z</time></trkpt><trkpt lat="44.10594" lon="9.957235"><ele>11.0</ele><time>2026-04-06T16:14:21.658Z</time></trkpt><trkpt lat="44.10599" lon="9.9570867"><ele>11.0</ele><time>2026-04-06T16:14:22.658Z</time></trkpt><trkpt lat="44.1060417" lon="9.9569367"><ele>11.0</ele><time>2026-04-06T16:14:23.658Z</time></trkpt><trkpt lat="44.1060967" lon="9.9567833"><ele>11.0</ele><time>2026-04-06T16:14:24.658Z</time></trkpt><trkpt lat="44.1061517" lon="9.956635"><ele>11.0</ele><time>2026-04-06T16:14:25.658Z</time></trkpt><trkpt lat="44.1062083" lon="9.9565"><ele>11.0</ele><time>2026-04-06T16:14:26.659Z</time></trkpt><trkpt lat="44.1062533" lon="9.9563767"><ele>11.0</ele><time>2026-04-06T16:14:27.658Z</time></trkpt><trkpt lat="44.1063" lon="9.9562417"><ele>11.0</ele><time>2026-04-06T16:14:28.658Z</time></trkpt><trkpt lat="44.10636" lon="9.9560933"><ele>11.0</ele><time>2026-04-06T16:14:29.658Z</time></trkpt><trkpt lat="44.1064267" lon="9.95595"><ele>11.0</ele><time>2026-04-06T16:14:30.658Z</time></trkpt><trkpt lat="44.1065017" lon="9.955815"><ele>11.0</ele><time>2026-04-06T16:14:31.659Z</time></trkpt><trkpt lat="44.10658" lon="9.9556833"><ele>11.0</ele><time>2026-04-06T16:14:32.658Z</time></trkpt><trkpt lat="44.106645" lon="9.9555467"><ele>11.0</ele><time>2026-04-06T16:14:33.658Z</time></trkpt><trkpt lat="44.1066967" lon="9.9553983"><ele>11.0</ele><time>2026-04-06T16:14:34.659Z</time></trkpt><trkpt lat="44.106745" lon="9.9552567"><ele>11.0</ele><time>2026-04-06T16:14:35.658Z</time></trkpt><trkpt lat="44.10679" lon="9.95512"><ele>11.0</ele><time>2026-04-06T16:14:36.659Z</time></trkpt><trkpt lat="44.1068317" lon="9.954995"><ele>11.0</ele><time>2026-04-06T16:14:37.658Z</time></trkpt><trkpt lat="44.1068783" lon="9.9548917"><ele>11.0</ele><time>2026-04-06T16:14:38.658Z</time></trkpt><trkpt lat="44.10692" lon="9.9548217"><ele>11.0</ele><time>2026-04-06T16:14:39.658Z</time></trkpt><trkpt lat="44.1070133" lon="9.9547083"><ele>11.0</ele><time>2026-04-06T16:14:41.658Z</time></trkpt><trkpt lat="44.107065" lon="9.9546567"><ele>11.0</ele><time>2026-04-06T16:14:42.658Z</time></trkpt><trkpt lat="44.10712" lon="9.9546033"><ele>11.0</ele><time>2026-04-06T16:14:43.658Z</time></trkpt><trkpt lat="44.10718" lon="9.9545467"><ele>11.0</ele><time>2026-04-06T16:14:44.659Z</time></trkpt><trkpt lat="44.1072467" lon="9.9545017"><ele>11.0</ele><time>2026-04-06T16:14:45.658Z</time></trkpt><trkpt lat="44.10732" lon="9.954465"><ele>11.0</ele><time>2026-04-06T16:14:46.658Z</time></trkpt><trkpt lat="44.10741" lon="9.9544417"><ele>11.0</ele><time>2026-04-06T16:14:47.658Z</time></trkpt><trkpt lat="44.107505" lon="9.9544233"><ele>11.0</ele><time>2026-04-06T16:14:48.658Z</time></trkpt><trkpt lat="44.1076133" lon="9.954405"><ele>11.0</ele><time>2026-04-06T16:14:49.658Z</time></trkpt><trkpt lat="44.1077317" lon="9.9543867"><ele>11.75</ele><time>2026-04-06T16:14:50.658Z</time></trkpt><trkpt lat="44.1078567" lon="9.95437"><ele>12.5</ele><time>2026-04-06T16:14:51.658Z</time></trkpt><trkpt lat="44.1079783" lon="9.9543467"><ele>13.25</ele><time>2026-04-06T16:14:52.658Z</time></trkpt><trkpt lat="44.1080983" lon="9.9543267"><ele>14.0</ele><time>2026-04-06T16:14:53.659Z</time></trkpt><trkpt lat="44.1082183" lon="9.9543117"><ele>14.0</ele><time>2026-04-06T16:14:54.658Z</time></trkpt><trkpt lat="44.10835" lon="9.9542767"><ele>14.0</ele><time>2026-04-06T16:14:55.658Z</time></trkpt><trkpt lat="44.1084983" lon="9.9542333"><ele>14.0</ele><time>2026-04-06T16:14:56.659Z</time></trkpt><trkpt lat="44.10864" lon="9.954195"><ele>14.0</ele><time>2026-04-06T16:14:57.658Z</time></trkpt><trkpt lat="44.10879" lon="9.9541583"><ele>13.75</ele><time>2026-04-06T16:14:58.659Z</time></trkpt><trkpt lat="44.108935" lon="9.9541233"><ele>13.5</ele><time>2026-04-06T16:14:59.659Z</time></trkpt><trkpt lat="44.109075" lon="9.954085"><ele>13.25</ele><time>2026-04-06T16:15:00.658Z</time></trkpt><trkpt lat="44.109225" lon="9.9540467"><ele>13.0</ele><time>2026-04-06T16:15:01.658Z</time></trkpt><trkpt lat="44.109365" lon="9.9540033"><ele>13.0</ele><time>2026-04-06T16:15:02.658Z</time></trkpt><trkpt lat="44.1094967" lon="9.953945"><ele>13.0</ele><time>2026-04-06T16:15:03.658Z</time></trkpt><trkpt lat="44.109625" lon="9.9538733"><ele>13.0</ele><time>2026-04-06T16:15:04.658Z</time></trkpt><trkpt lat="44.1097467" lon="9.953795"><ele>13.0</ele><time>2026-04-06T16:15:05.658Z</time></trkpt><trkpt lat="44.109865" lon="9.953715"><ele>13.4</ele><time>2026-04-06T16:15:06.659Z</time></trkpt><trkpt lat="44.10997" lon="9.9536283"><ele>13.8</ele><time>2026-04-06T16:15:07.658Z</time></trkpt><trkpt lat="44.1100667" lon="9.95355"><ele>14.2</ele><time>2026-04-06T16:15:08.658Z</time></trkpt><trkpt lat="44.1101483" lon="9.9534767"><ele>14.6</ele><time>2026-04-06T16:15:09.658Z</time></trkpt><trkpt lat="44.1102233" lon="9.9533983"><ele>15.0</ele><time>2026-04-06T16:15:10.658Z</time></trkpt><trkpt lat="44.1102983" lon="9.953315"><ele>15.2</ele><time>2026-04-06T16:15:11.658Z</time></trkpt><trkpt lat="44.1103717" lon="9.9532333"><ele>15.4</ele><time>2026-04-06T16:15:12.658Z</time></trkpt><trkpt lat="44.110445" lon="9.95314"><ele>15.600000000000001</ele><time>2026-04-06T16:15:13.658Z</time></trkpt><trkpt lat="44.11052" lon="9.9530417"><ele>15.8</ele><time>2026-04-06T16:15:14.658Z</time></trkpt><trkpt lat="44.1105917" lon="9.9529333"><ele>16.0</ele><time>2026-04-06T16:15:15.658Z</time></trkpt><trkpt lat="44.110655" lon="9.9528267"><ele>16.0</ele><time>2026-04-06T16:15:16.658Z</time></trkpt><trkpt lat="44.1107133" lon="9.9527283"><ele>15.999999999999998</ele><time>2026-04-06T16:15:17.658Z</time></trkpt><trkpt lat="44.1107617" lon="9.9526417"><ele>16.0</ele><time>2026-04-06T16:15:18.658Z</time></trkpt><trkpt lat="44.1108067" lon="9.9525633"><ele>16.0</ele><time>2026-04-06T16:15:19.658Z</time></trkpt><trkpt lat="44.1108483" lon="9.95249"><ele>15.999999999999998</ele><time>2026-04-06T16:15:20.658Z</time></trkpt><trkpt lat="44.1108883" lon="9.9524167"><ele>16.0</ele><time>2026-04-06T16:15:21.658Z</time></trkpt><trkpt lat="44.110925" lon="9.9523417"><ele>16.0</ele><time>2026-04-06T16:15:22.658Z</time></trkpt><trkpt lat="44.1110067" lon="9.9522"><ele>15.8</ele><time>2026-04-06T16:15:24.658Z</time></trkpt><trkpt lat="44.111065" lon="9.9520683"><ele>15.600000000000001</ele><time>2026-04-06T16:15:26.658Z</time></trkpt><trkpt lat="44.1111117" lon="9.9519517"><ele>15.4</ele><time>2026-04-06T16:15:28.658Z</time></trkpt><trkpt lat="44.1111383" lon="9.9518483"><ele>15.2</ele><time>2026-04-06T16:15:30.658Z</time></trkpt><trkpt lat="44.111175" lon="9.9517583"><ele>15.0</ele><time>2026-04-06T16:15:32.658Z</time></trkpt><trkpt lat="44.1112367" lon="9.9516483"><ele>14.833333333333334</ele><time>2026-04-06T16:15:34.658Z</time></trkpt><trkpt lat="44.1112783" lon="9.9515817"><ele>14.666666666666668</ele><time>2026-04-06T16:15:35.658Z</time></trkpt><trkpt lat="44.1113217" lon="9.9515017"><ele>14.5</ele><time>2026-04-06T16:15:36.659Z</time></trkpt><trkpt lat="44.11137" lon="9.9514217"><ele>14.333333333333334</ele><time>2026-04-06T16:15:37.658Z</time></trkpt><trkpt lat="44.11143" lon="9.95135"><ele>14.166666666666668</ele><time>2026-04-06T16:15:38.658Z</time></trkpt><trkpt lat="44.1114933" lon="9.9512867"><ele>14.0</ele><time>2026-04-06T16:15:39.658Z</time></trkpt><trkpt lat="44.1115617" lon="9.9512183"><ele>14.399999999999999</ele><time>2026-04-06T16:15:40.658Z</time></trkpt><trkpt lat="44.11163" lon="9.9511383"><ele>14.799999999999999</ele><time>2026-04-06T16:15:41.658Z</time></trkpt><trkpt lat="44.1116983" lon="9.951055"><ele>15.200000000000001</ele><time>2026-04-06T16:15:42.659Z</time></trkpt><trkpt lat="44.1117683" lon="9.95097"><ele>15.600000000000001</ele><time>2026-04-06T16:15:43.659Z</time></trkpt><trkpt lat="44.11184" lon="9.9508883"><ele>16.0</ele><time>2026-04-06T16:15:44.658Z</time></trkpt><trkpt lat="44.11191" lon="9.9508133"><ele>16.0</ele><time>2026-04-06T16:15:45.658Z</time></trkpt><trkpt lat="44.1119883" lon="9.950745"><ele>16.0</ele><time>2026-04-06T16:15:46.659Z</time></trkpt><trkpt lat="44.11207" lon="9.9506733"><ele>16.0</ele><time>2026-04-06T16:15:47.659Z</time></trkpt><trkpt lat="44.112165" lon="9.9506083"><ele>16.0</ele><time>2026-04-06T16:15:48.658Z</time></trkpt><trkpt lat="44.1122617" lon="9.950545"><ele>16.0</ele><time>2026-04-06T16:15:49.658Z</time></trkpt><trkpt lat="44.11236" lon="9.95048"><ele>16.25</ele><time>2026-04-06T16:15:50.659Z</time></trkpt><trkpt lat="44.11246" lon="9.9504133"><ele>16.5</ele><time>2026-04-06T16:15:51.659Z</time></trkpt><trkpt lat="44.1125667" lon="9.95035"><ele>16.75</ele><time>2026-04-06T16:15:52.658Z</time></trkpt><trkpt lat="44.1126767" lon="9.95028"><ele>17.0</ele><time>2026-04-06T16:15:53.659Z</time></trkpt><trkpt lat="44.1127917" lon="9.95021"><ele>17.0</ele><time>2026-04-06T16:15:54.658Z</time></trkpt><trkpt lat="44.1129083" lon="9.950135"><ele>17.0</ele><time>2026-04-06T16:15:55.659Z</time></trkpt><trkpt lat="44.1130267" lon="9.950055"><ele>17.0</ele><time>2026-04-06T16:15:56.659Z</time></trkpt><trkpt lat="44.1131483" lon="9.94998"><ele>17.0</ele><time>2026-04-06T16:15:57.658Z</time></trkpt><trkpt lat="44.11327" lon="9.9499"><ele>17.0</ele><time>2026-04-06T16:15:58.658Z</time></trkpt><trkpt lat="44.1133883" lon="9.9498217"><ele>17.0</ele><time>2026-04-06T16:15:59.658Z</time></trkpt><trkpt lat="44.1135067" lon="9.94974"><ele>17.0</ele><time>2026-04-06T16:16:00.658Z</time></trkpt><trkpt lat="44.1136217" lon="9.94966"><ele>17.0</ele><time>2026-04-06T16:16:01.658Z</time></trkpt><trkpt lat="44.1137367" lon="9.94958"><ele>17.0</ele><time>2026-04-06T16:16:02.659Z</time></trkpt><trkpt lat="44.1138517" lon="9.9495017"><ele>17.0</ele><time>2026-04-06T16:16:03.659Z</time></trkpt><trkpt lat="44.1139683" lon="9.9494283"><ele>17.0</ele><time>2026-04-06T16:16:04.658Z</time></trkpt><trkpt lat="44.1140883" lon="9.9493517"><ele>17.0</ele><time>2026-04-06T16:16:05.658Z</time></trkpt><trkpt lat="44.11421" lon="9.9492717"><ele>16.75</ele><time>2026-04-06T16:16:06.658Z</time></trkpt><trkpt lat="44.1143383" lon="9.9492"><ele>16.5</ele><time>2026-04-06T16:16:07.658Z</time></trkpt><trkpt lat="44.114465" lon="9.9491167"><ele>16.25</ele><time>2026-04-06T16:16:08.659Z</time></trkpt><trkpt lat="44.1145917" lon="9.9490267"><ele>16.0</ele><time>2026-04-06T16:16:09.658Z</time></trkpt><trkpt lat="44.1147167" lon="9.9489317"><ele>16.0</ele><time>2026-04-06T16:16:10.658Z</time></trkpt><trkpt lat="44.1148383" lon="9.9488233"><ele>16.0</ele><time>2026-04-06T16:16:11.659Z</time></trkpt><trkpt lat="44.114955" lon="9.9487033"><ele>16.0</ele><time>2026-04-06T16:16:12.658Z</time></trkpt><trkpt lat="44.115065" lon="9.9485783"><ele>16.0</ele><time>2026-04-06T16:16:13.658Z</time></trkpt><trkpt lat="44.1151733" lon="9.9484433"><ele>15.5</ele><time>2026-04-06T16:16:14.658Z</time></trkpt><trkpt lat="44.115275" lon="9.94831"><ele>15.0</ele><time>2026-04-06T16:16:15.658Z</time></trkpt><trkpt lat="44.1153733" lon="9.94818"><ele>14.5</ele><time>2026-04-06T16:16:16.658Z</time></trkpt><trkpt lat="44.11547" lon="9.9480533"><ele>14.0</ele><time>2026-04-06T16:16:17.658Z</time></trkpt><trkpt lat="44.11556" lon="9.947935"><ele>14.0</ele><time>2026-04-06T16:16:18.658Z</time></trkpt><trkpt lat="44.11565" lon="9.9478233"><ele>14.0</ele><time>2026-04-06T16:16:19.658Z</time></trkpt><trkpt lat="44.11574" lon="9.94772"><ele>14.0</ele><time>2026-04-06T16:16:20.659Z</time></trkpt><trkpt lat="44.1158267" lon="9.94762"><ele>14.0</ele><time>2026-04-06T16:16:21.658Z</time></trkpt><trkpt lat="44.1159133" lon="9.947535"><ele>13.799999999999999</ele><time>2026-04-06T16:16:22.658Z</time></trkpt><trkpt lat="44.1160017" lon="9.9474667"><ele>13.599999999999998</ele><time>2026-04-06T16:16:23.658Z</time></trkpt><trkpt lat="44.1160883" lon="9.9474083"><ele>13.4</ele><time>2026-04-06T16:16:24.658Z</time></trkpt><trkpt lat="44.1161767" lon="9.947365"><ele>13.2</ele><time>2026-04-06T16:16:25.658Z</time></trkpt><trkpt lat="44.1162717" lon="9.94734"><ele>13.0</ele><time>2026-04-06T16:16:26.658Z</time></trkpt><trkpt lat="44.1163583" lon="9.94735"><ele>13.0</ele><time>2026-04-06T16:16:27.658Z</time></trkpt><trkpt lat="44.1164383" lon="9.9473833"><ele>13.0</ele><time>2026-04-06T16:16:28.658Z</time></trkpt><trkpt lat="44.11652" lon="9.947435"><ele>13.0</ele><time>2026-04-06T16:16:29.658Z</time></trkpt><trkpt lat="44.1166017" lon="9.9475083"><ele>13.0</ele><time>2026-04-06T16:16:30.658Z</time></trkpt><trkpt lat="44.1166833" lon="9.947605"><ele>13.0</ele><time>2026-04-06T16:16:31.658Z</time></trkpt><trkpt lat="44.1167683" lon="9.9477067"><ele>13.4</ele><time>2026-04-06T16:16:32.658Z</time></trkpt><trkpt lat="44.11685" lon="9.94781"><ele>13.8</ele><time>2026-04-06T16:16:33.658Z</time></trkpt><trkpt lat="44.1169317" lon="9.9479217"><ele>14.2</ele><time>2026-04-06T16:16:34.658Z</time></trkpt><trkpt lat="44.1170083" lon="9.94802"><ele>14.6</ele><time>2026-04-06T16:16:35.658Z</time></trkpt><trkpt lat="44.1170833" lon="9.9481117"><ele>15.0</ele><time>2026-04-06T16:16:36.658Z</time></trkpt><trkpt lat="44.11715" lon="9.9482067"><ele>15.0</ele><time>2026-04-06T16:16:37.658Z</time></trkpt><trkpt lat="44.1172067" lon="9.9483017"><ele>15.0</ele><time>2026-04-06T16:16:38.658Z</time></trkpt><trkpt lat="44.117245" lon="9.94838"><ele>15.0</ele><time>2026-04-06T16:16:39.658Z</time></trkpt><trkpt lat="44.117255" lon="9.9485133"><ele>15.0</ele><time>2026-04-06T16:16:41.658Z</time></trkpt><trkpt lat="44.117215" lon="9.94865"><ele>15.0</ele><time>2026-04-06T16:16:43.658Z</time></trkpt><trkpt lat="44.1172317" lon="9.9488183"><ele>15.2</ele><time>2026-04-06T16:16:45.658Z</time></trkpt><trkpt lat="44.1172833" lon="9.9488967"><ele>15.4</ele><time>2026-04-06T16:16:46.658Z</time></trkpt><trkpt lat="44.117355" lon="9.9489783"><ele>15.600000000000001</ele><time>2026-04-06T16:16:47.658Z</time></trkpt><trkpt lat="44.11745" lon="9.9490617"><ele>15.8</ele><time>2026-04-06T16:16:48.658Z</time></trkpt><trkpt lat="44.1175467" lon="9.9491567"><ele>16.0</ele><time>2026-04-06T16:16:49.658Z</time></trkpt><trkpt lat="44.1176333" lon="9.9492583"><ele>16.8</ele><time>2026-04-06T16:16:50.659Z</time></trkpt><trkpt lat="44.1177183" lon="9.949365"><ele>17.6</ele><time>2026-04-06T16:16:51.658Z</time></trkpt><trkpt lat="44.1178017" lon="9.949465"><ele>18.4</ele><time>2026-04-06T16:16:52.658Z</time></trkpt><trkpt lat="44.1178767" lon="9.949545"><ele>19.2</ele><time>2026-04-06T16:16:53.658Z</time></trkpt><trkpt lat="44.11795" lon="9.949595"><ele>20.0</ele><time>2026-04-06T16:16:54.658Z</time></trkpt><trkpt lat="44.11802" lon="9.9496217"><ele>20.0</ele><time>2026-04-06T16:16:55.659Z</time></trkpt><trkpt lat="44.1180867" lon="9.9496167"><ele>20.0</ele><time>2026-04-06T16:16:56.659Z</time></trkpt><trkpt lat="44.1181933" lon="9.949515"><ele>20.0</ele><time>2026-04-06T16:16:58.658Z</time></trkpt><trkpt lat="44.11824" lon="9.94941"><ele>20.0</ele><time>2026-04-06T16:16:59.658Z</time></trkpt><trkpt lat="44.118295" lon="9.949325"><ele>20.0</ele><time>2026-04-06T16:17:00.658Z</time></trkpt><trkpt lat="44.1183367" lon="9.9492333"><ele>20.0</ele><time>2026-04-06T16:17:01.659Z</time></trkpt><trkpt lat="44.1183617" lon="9.94914"><ele>19.5</ele><time>2026-04-06T16:17:02.658Z</time></trkpt><trkpt lat="44.1183833" lon="9.9490567"><ele>19.0</ele><time>2026-04-06T16:17:03.658Z</time></trkpt><trkpt lat="44.1184067" lon="9.948975"><ele>18.5</ele><time>2026-04-06T16:17:04.658Z</time></trkpt><trkpt lat="44.1183617" lon="9.9487783"><ele>18.0</ele><time>2026-04-06T16:17:06.658Z</time></trkpt><trkpt lat="44.118335" lon="9.9486783"><ele>17.5</ele><time>2026-04-06T16:17:07.658Z</time></trkpt><trkpt lat="44.1183367" lon="9.948585"><ele>17.0</ele><time>2026-04-06T16:17:08.658Z</time></trkpt><trkpt lat="44.118345" lon="9.9484967"><ele>17.0</ele><time>2026-04-06T16:17:09.658Z</time></trkpt><trkpt lat="44.1184133" lon="9.94836"><ele>18.0</ele><time>2026-04-06T16:17:11.658Z</time></trkpt></trkseg><trkseg><trkpt lat="44.117995" lon="9.9481267"><ele>15.5</ele><time>2026-04-06T16:41:26.658Z</time></trkpt><trkpt lat="44.1179583" lon="9.948415"><ele>16.0</ele><time>2026-04-06T16:41:33.658Z</time></trkpt><trkpt lat="44.1180167" lon="9.94849"><ele>16.5</ele><time>2026-04-06T16:41:35.658Z</time></trkpt><trkpt lat="44.1180833" lon="9.948555"><ele>17.0</ele><time>2026-04-06T16:41:37.658Z</time></trkpt><trkpt lat="44.1181617" lon="9.948645"><ele>17.0</ele><time>2026-04-06T16:41:39.658Z</time></trkpt><trkpt lat="44.1182417" lon="9.9487617"><ele>17.0</ele><time>2026-04-06T16:41:41.658Z</time></trkpt><trkpt lat="44.1183083" lon="9.9489017"><ele>17.0</ele><time>2026-04-06T16:41:43.658Z</time></trkpt><trkpt lat="44.1183667" lon="9.9490383"><ele>17.0</ele><time>2026-04-06T16:41:45.658Z</time></trkpt><trkpt lat="44.118375" lon="9.9491717"><ele>17.0</ele><time>2026-04-06T16:41:47.658Z</time></trkpt><trkpt lat="44.1182967" lon="9.949305"><ele>17.5</ele><time>2026-04-06T16:41:49.658Z</time></trkpt><trkpt lat="44.11823" lon="9.9493667"><ele>18.0</ele><time>2026-04-06T16:41:50.658Z</time></trkpt><trkpt lat="44.1181733" lon="9.94943"><ele>18.5</ele><time>2026-04-06T16:41:51.658Z</time></trkpt><trkpt lat="44.1181183" lon="9.9494783"><ele>19.0</ele><time>2026-04-06T16:41:52.658Z</time></trkpt><trkpt lat="44.1179867" lon="9.949475"><ele>19.5</ele><time>2026-04-06T16:41:54.658Z</time></trkpt><trkpt lat="44.1179117" lon="9.9494167"><ele>20.0</ele><time>2026-04-06T16:41:55.658Z</time></trkpt><trkpt lat="44.11783" lon="9.9493233"><ele>20.0</ele><time>2026-04-06T16:41:56.658Z</time></trkpt><trkpt lat="44.11776" lon="9.9492333"><ele>20.0</ele><time>2026-04-06T16:41:57.658Z</time></trkpt><trkpt lat="44.117685" lon="9.9491467"><ele>20.0</ele><time>2026-04-06T16:41:58.658Z</time></trkpt><trkpt lat="44.117615" lon="9.9490583"><ele>20.0</ele><time>2026-04-06T16:41:59.658Z</time></trkpt><trkpt lat="44.1175417" lon="9.9489783"><ele>20.0</ele><time>2026-04-06T16:42:00.658Z</time></trkpt><trkpt lat="44.1174733" lon="9.9488917"><ele>19.5</ele><time>2026-04-06T16:42:01.658Z</time></trkpt><trkpt lat="44.117405" lon="9.9488133"><ele>19.0</ele><time>2026-04-06T16:42:02.658Z</time></trkpt><trkpt lat="44.11734" lon="9.9487467"><ele>18.5</ele><time>2026-04-06T16:42:03.658Z</time></trkpt><trkpt lat="44.1172867" lon="9.9486833"><ele>18.0</ele><time>2026-04-06T16:42:04.658Z</time></trkpt><trkpt lat="44.117235" lon="9.948555"><ele>17.5</ele><time>2026-04-06T16:42:06.658Z</time></trkpt><trkpt lat="44.1172683" lon="9.9484717"><ele>17.0</ele><time>2026-04-06T16:42:09.658Z</time></trkpt><trkpt lat="44.1173767" lon="9.94851"><ele>17.0</ele><time>2026-04-06T16:42:11.658Z</time></trkpt><trkpt lat="44.1174733" lon="9.948615"><ele>17.0</ele><time>2026-04-06T16:42:13.658Z</time></trkpt><trkpt lat="44.117535" lon="9.9486917"><ele>17.0</ele><time>2026-04-06T16:42:14.658Z</time></trkpt><trkpt lat="44.1176017" lon="9.9487683"><ele>17.0</ele><time>2026-04-06T16:42:15.659Z</time></trkpt><trkpt lat="44.1176733" lon="9.9488433"><ele>17.0</ele><time>2026-04-06T16:42:16.659Z</time></trkpt><trkpt lat="44.1177567" lon="9.9489117"><ele>17.0</ele><time>2026-04-06T16:42:17.658Z</time></trkpt><trkpt lat="44.11784" lon="9.9489733"><ele>17.0</ele><time>2026-04-06T16:42:18.658Z</time></trkpt><trkpt lat="44.11793" lon="9.9490217"><ele>17.0</ele><time>2026-04-06T16:42:19.658Z</time></trkpt><trkpt lat="44.118015" lon="9.949045"><ele>17.0</ele><time>2026-04-06T16:42:20.658Z</time></trkpt><trkpt lat="44.118105" lon="9.9490483"><ele>17.0</ele><time>2026-04-06T16:42:21.658Z</time></trkpt><trkpt lat="44.118195" lon="9.94902"><ele>17.0</ele><time>2026-04-06T16:42:22.658Z</time></trkpt><trkpt lat="44.118275" lon="9.9489967"><ele>17.0</ele><time>2026-04-06T16:42:23.658Z</time></trkpt><trkpt lat="44.118345" lon="9.94897"><ele>17.0</ele><time>2026-04-06T16:42:24.658Z</time></trkpt><trkpt lat="44.1184317" lon="9.9489483"><ele>17.0</ele><time>2026-04-06T16:42:26.658Z</time></trkpt><trkpt lat="44.118515" lon="9.94904"><ele>17.0</ele><time>2026-04-06T16:42:29.658Z</time></trkpt><trkpt lat="44.1185933" lon="9.9491817"><ele>17.333333333333336</ele><time>2026-04-06T16:42:31.658Z</time></trkpt><trkpt lat="44.118655" lon="9.949255"><ele>17.666666666666668</ele><time>2026-04-06T16:42:32.658Z</time></trkpt><trkpt lat="44.1187267" lon="9.9493083"><ele>18.0</ele><time>2026-04-06T16:42:33.659Z</time></trkpt><trkpt lat="44.118805" lon="9.9493467"><ele>18.333333333333332</ele><time>2026-04-06T16:42:34.658Z</time></trkpt><trkpt lat="44.118885" lon="9.9494017"><ele>18.666666666666664</ele><time>2026-04-06T16:42:35.659Z</time></trkpt><trkpt lat="44.118965" lon="9.9494867"><ele>19.0</ele><time>2026-04-06T16:42:36.658Z</time></trkpt><trkpt lat="44.1190383" lon="9.9495817"><ele>19.4</ele><time>2026-04-06T16:42:37.658Z</time></trkpt><trkpt lat="44.1191117" lon="9.9496833"><ele>19.799999999999997</ele><time>2026-04-06T16:42:38.658Z</time></trkpt><trkpt lat="44.1191883" lon="9.949785"><ele>20.200000000000003</ele><time>2026-04-06T16:42:39.658Z</time></trkpt><trkpt lat="44.1192767" lon="9.9498733"><ele>20.6</ele><time>2026-04-06T16:42:40.658Z</time></trkpt><trkpt lat="44.119375" lon="9.9499383"><ele>21.0</ele><time>2026-04-06T16:42:41.658Z</time></trkpt><trkpt lat="44.1194817" lon="9.949985"><ele>21.0</ele><time>2026-04-06T16:42:42.658Z</time></trkpt><trkpt lat="44.1195933" lon="9.9500167"><ele>21.0</ele><time>2026-04-06T16:42:43.659Z</time></trkpt><trkpt lat="44.1197083" lon="9.9500383"><ele>21.0</ele><time>2026-04-06T16:42:44.658Z</time></trkpt><trkpt lat="44.1198267" lon="9.950055"><ele>21.0</ele><time>2026-04-06T16:42:45.658Z</time></trkpt><trkpt lat="44.1199483" lon="9.9500633"><ele>21.25</ele><time>2026-04-06T16:42:46.659Z</time></trkpt><trkpt lat="44.1200733" lon="9.9500767"><ele>21.5</ele><time>2026-04-06T16:42:47.659Z</time></trkpt><trkpt lat="44.1201983" lon="9.9500917"><ele>21.75</ele><time>2026-04-06T16:42:48.658Z</time></trkpt><trkpt lat="44.1203233" lon="9.9501017"><ele>22.0</ele><time>2026-04-06T16:42:49.658Z</time></trkpt><trkpt lat="44.1204467" lon="9.9501117"><ele>22.0</ele><time>2026-04-06T16:42:50.658Z</time></trkpt><trkpt lat="44.1205683" lon="9.95013"><ele>22.0</ele><time>2026-04-06T16:42:51.658Z</time></trkpt><trkpt lat="44.1206867" lon="9.9501633"><ele>22.0</ele><time>2026-04-06T16:42:52.659Z</time></trkpt><trkpt lat="44.1208033" lon="9.9502183"><ele>22.0</ele><time>2026-04-06T16:42:53.659Z</time></trkpt><trkpt lat="44.1209183" lon="9.9502867"><ele>22.25</ele><time>2026-04-06T16:42:54.659Z</time></trkpt><trkpt lat="44.1210333" lon="9.9503617"><ele>22.5</ele><time>2026-04-06T16:42:55.658Z</time></trkpt><trkpt lat="44.12115" lon="9.95044"><ele>22.75</ele><time>2026-04-06T16:42:56.658Z</time></trkpt><trkpt lat="44.12126" lon="9.9505183"><ele>23.0</ele><time>2026-04-06T16:42:57.658Z</time></trkpt><trkpt lat="44.1213683" lon="9.9505983"><ele>23.0</ele><time>2026-04-06T16:42:58.658Z</time></trkpt><trkpt lat="44.1214767" lon="9.9506883"><ele>23.0</ele><time>2026-04-06T16:42:59.658Z</time></trkpt><trkpt lat="44.1215883" lon="9.9507767"><ele>23.0</ele><time>2026-04-06T16:43:00.658Z</time></trkpt><trkpt lat="44.1217017" lon="9.95086"><ele>23.0</ele><time>2026-04-06T16:43:01.658Z</time></trkpt><trkpt lat="44.121815" lon="9.9509417"><ele>23.25</ele><time>2026-04-06T16:43:02.658Z</time></trkpt><trkpt lat="44.1219267" lon="9.951015"><ele>23.5</ele><time>2026-04-06T16:43:03.659Z</time></trkpt><trkpt lat="44.12204" lon="9.9510767"><ele>23.75</ele><time>2026-04-06T16:43:04.658Z</time></trkpt><trkpt lat="44.1221533" lon="9.9511383"><ele>24.0</ele><time>2026-04-06T16:43:05.658Z</time></trkpt><trkpt lat="44.1222667" lon="9.951195"><ele>24.0</ele><time>2026-04-06T16:43:06.658Z</time></trkpt><trkpt lat="44.1223767" lon="9.9512517"><ele>24.0</ele><time>2026-04-06T16:43:07.659Z</time></trkpt><trkpt lat="44.122485" lon="9.951305"><ele>24.0</ele><time>2026-04-06T16:43:08.658Z</time></trkpt><trkpt lat="44.1225917" lon="9.9513417"><ele>24.0</ele><time>2026-04-06T16:43:09.658Z</time></trkpt><trkpt lat="44.1226933" lon="9.9513567"><ele>24.0</ele><time>2026-04-06T16:43:10.658Z</time></trkpt><trkpt lat="44.1227983" lon="9.9513583"><ele>24.4</ele><time>2026-04-06T16:43:11.658Z</time></trkpt><trkpt lat="44.1229033" lon="9.9513567"><ele>24.799999999999997</ele><time>2026-04-06T16:43:12.658Z</time></trkpt><trkpt lat="44.1230117" lon="9.9513467"><ele>25.200000000000003</ele><time>2026-04-06T16:43:13.658Z</time></trkpt><trkpt lat="44.1231183" lon="9.951345"><ele>25.6</ele><time>2026-04-06T16:43:14.658Z</time></trkpt><trkpt lat="44.1232233" lon="9.9513583"><ele>26.0</ele><time>2026-04-06T16:43:15.658Z</time></trkpt><trkpt lat="44.1233217" lon="9.9513783"><ele>26.166666666666664</ele><time>2026-04-06T16:43:16.659Z</time></trkpt><trkpt lat="44.12341" lon="9.9513983"><ele>26.333333333333332</ele><time>2026-04-06T16:43:17.658Z</time></trkpt><trkpt lat="44.123485" lon="9.95143"><ele>26.5</ele><time>2026-04-06T16:43:18.658Z</time></trkpt><trkpt lat="44.12355" lon="9.9514733"><ele>26.666666666666664</ele><time>2026-04-06T16:43:19.658Z</time></trkpt><trkpt lat="44.123615" lon="9.951605"><ele>26.833333333333332</ele><time>2026-04-06T16:43:21.658Z</time></trkpt><trkpt lat="44.12361" lon="9.951695"><ele>27.0</ele><time>2026-04-06T16:43:22.658Z</time></trkpt><trkpt lat="44.1235833" lon="9.9517967"><ele>27.166666666666668</ele><time>2026-04-06T16:43:23.658Z</time></trkpt><trkpt lat="44.12356" lon="9.9518983"><ele>27.333333333333336</ele><time>2026-04-06T16:43:24.659Z</time></trkpt><trkpt lat="44.1235267" lon="9.9520033"><ele>27.5</ele><time>2026-04-06T16:43:25.659Z</time></trkpt><trkpt lat="44.123495" lon="9.9521083"><ele>27.666666666666668</ele><time>2026-04-06T16:43:26.658Z</time></trkpt><trkpt lat="44.1234667" lon="9.95221"><ele>27.833333333333336</ele><time>2026-04-06T16:43:27.658Z</time></trkpt><trkpt lat="44.1234517" lon="9.9522983"><ele>28.0</ele><time>2026-04-06T16:43:28.658Z</time></trkpt><trkpt lat="44.1234733" lon="9.9524467"><ele>28.0</ele><time>2026-04-06T16:43:30.659Z</time></trkpt><trkpt lat="44.1235567" lon="9.9525033"><ele>27.999999999999996</ele><time>2026-04-06T16:43:32.658Z</time></trkpt><trkpt lat="44.1236383" lon="9.9525017"><ele>27.999999999999996</ele><time>2026-04-06T16:43:33.658Z</time></trkpt><trkpt lat="44.1237167" lon="9.9525"><ele>28.0</ele><time>2026-04-06T16:43:34.658Z</time></trkpt><trkpt lat="44.1238133" lon="9.9524867"><ele>28.0</ele><time>2026-04-06T16:43:35.658Z</time></trkpt><trkpt lat="44.1239333" lon="9.952445"><ele>28.0</ele><time>2026-04-06T16:43:36.658Z</time></trkpt><trkpt lat="44.1240417" lon="9.95243"><ele>27.999999999999996</ele><time>2026-04-06T16:43:37.658Z</time></trkpt><trkpt lat="44.1241433" lon="9.9524333"><ele>27.999999999999996</ele><time>2026-04-06T16:43:38.658Z</time></trkpt><trkpt lat="44.1242467" lon="9.952435"><ele>28.0</ele><time>2026-04-06T16:43:39.658Z</time></trkpt><trkpt lat="44.1243533" lon="9.9524367"><ele>28.0</ele><time>2026-04-06T16:43:40.658Z</time></trkpt><trkpt lat="44.12446" lon="9.9524383"><ele>28.4</ele><time>2026-04-06T16:43:41.658Z</time></trkpt><trkpt lat="44.12457" lon="9.9524317"><ele>28.799999999999997</ele><time>2026-04-06T16:43:42.658Z</time></trkpt><trkpt lat="44.1246817" lon="9.95243"><ele>29.2</ele><time>2026-04-06T16:43:43.658Z</time></trkpt><trkpt lat="44.1247917" lon="9.9524233"><ele>29.6</ele><time>2026-04-06T16:43:44.658Z</time></trkpt><trkpt lat="44.1249017" lon="9.9524133"><ele>30.0</ele><time>2026-04-06T16:43:45.658Z</time></trkpt><trkpt lat="44.125015" lon="9.952405"><ele>30.4</ele><time>2026-04-06T16:43:46.658Z</time></trkpt><trkpt lat="44.1251283" lon="9.9523983"><ele>30.8</ele><time>2026-04-06T16:43:47.658Z</time></trkpt><trkpt lat="44.1252383" lon="9.9523867"><ele>31.200000000000003</ele><time>2026-04-06T16:43:48.659Z</time></trkpt><trkpt lat="44.1253483" lon="9.9523633"><ele>31.6</ele><time>2026-04-06T16:43:49.658Z</time></trkpt><trkpt lat="44.1254567" lon="9.9523283"><ele>32.0</ele><time>2026-04-06T16:43:50.658Z</time></trkpt><trkpt lat="44.1255583" lon="9.9522867"><ele>32.0</ele><time>2026-04-06T16:43:51.658Z</time></trkpt><trkpt lat="44.1256567" lon="9.9522367"><ele>32.0</ele><time>2026-04-06T16:43:52.659Z</time></trkpt><trkpt lat="44.1257517" lon="9.9521883"><ele>32.0</ele><time>2026-04-06T16:43:53.658Z</time></trkpt><trkpt lat="44.1258433" lon="9.95213"><ele>32.0</ele><time>2026-04-06T16:43:54.659Z</time></trkpt><trkpt lat="44.1259217" lon="9.9520617"><ele>32.0</ele><time>2026-04-06T16:43:55.658Z</time></trkpt><trkpt lat="44.1259933" lon="9.9519833"><ele>32.2</ele><time>2026-04-06T16:43:56.658Z</time></trkpt><trkpt lat="44.126065" lon="9.951905"><ele>32.400000000000006</ele><time>2026-04-06T16:43:57.658Z</time></trkpt><trkpt lat="44.1261317" lon="9.951825"><ele>32.599999999999994</ele><time>2026-04-06T16:43:58.658Z</time></trkpt><trkpt lat="44.1262033" lon="9.951745"><ele>32.8</ele><time>2026-04-06T16:43:59.658Z</time></trkpt><trkpt lat="44.1262783" lon="9.9516583"><ele>33.0</ele><time>2026-04-06T16:44:00.658Z</time></trkpt><trkpt lat="44.1263533" lon="9.9515717"><ele>33.0</ele><time>2026-04-06T16:44:01.658Z</time></trkpt><trkpt lat="44.12643" lon="9.9514817"><ele>33.0</ele><time>2026-04-06T16:44:02.658Z</time></trkpt><trkpt lat="44.1265067" lon="9.951395"><ele>33.0</ele><time>2026-04-06T16:44:03.659Z</time></trkpt><trkpt lat="44.1265833" lon="9.95132"><ele>33.0</ele><time>2026-04-06T16:44:04.658Z</time></trkpt><trkpt lat="44.126665" lon="9.951265"><ele>33.0</ele><time>2026-04-06T16:44:05.658Z</time></trkpt><trkpt lat="44.126755" lon="9.951215"><ele>33.199999999999996</ele><time>2026-04-06T16:44:06.658Z</time></trkpt><trkpt lat="44.1268467" lon="9.9511683"><ele>33.4</ele><time>2026-04-06T16:44:07.658Z</time></trkpt><trkpt lat="44.12694" lon="9.951125"><ele>33.599999999999994</ele><time>2026-04-06T16:44:08.658Z</time></trkpt><trkpt lat="44.1270367" lon="9.9510933"><ele>33.8</ele><time>2026-04-06T16:44:09.658Z</time></trkpt><trkpt lat="44.127145" lon="9.9510767"><ele>34.0</ele><time>2026-04-06T16:44:10.659Z</time></trkpt><trkpt lat="44.127255" lon="9.9510617"><ele>34.0</ele><time>2026-04-06T16:44:11.658Z</time></trkpt><trkpt lat="44.127375" lon="9.9510417"><ele>34.0</ele><time>2026-04-06T16:44:12.658Z</time></trkpt><trkpt lat="44.1275033" lon="9.95101"><ele>34.0</ele><time>2026-04-06T16:44:13.659Z</time></trkpt><trkpt lat="44.1276317" lon="9.950975"><ele>34.0</ele><time>2026-04-06T16:44:14.658Z</time></trkpt><trkpt lat="44.1277583" lon="9.9509383"><ele>34.0</ele><time>2026-04-06T16:44:15.658Z</time></trkpt><trkpt lat="44.1278833" lon="9.9509067"><ele>34.0</ele><time>2026-04-06T16:44:16.658Z</time></trkpt><trkpt lat="44.1280067" lon="9.9508633"><ele>34.0</ele><time>2026-04-06T16:44:17.658Z</time></trkpt><trkpt lat="44.128125" lon="9.9508133"><ele>34.0</ele><time>2026-04-06T16:44:18.658Z</time></trkpt><trkpt lat="44.1282417" lon="9.9507567"><ele>34.75</ele><time>2026-04-06T16:44:19.658Z</time></trkpt><trkpt lat="44.1283617" lon="9.950695"><ele>35.5</ele><time>2026-04-06T16:44:20.658Z</time></trkpt><trkpt lat="44.1284767" lon="9.9506317"><ele>36.25</ele><time>2026-04-06T16:44:21.658Z</time></trkpt><trkpt lat="44.1285883" lon="9.9505717"><ele>37.0</ele><time>2026-04-06T16:44:22.658Z</time></trkpt><trkpt lat="44.1287" lon="9.9505133"><ele>37.0</ele><time>2026-04-06T16:44:23.659Z</time></trkpt><trkpt lat="44.128805" lon="9.95046"><ele>37.0</ele><time>2026-04-06T16:44:24.658Z</time></trkpt><trkpt lat="44.1289033" lon="9.950405"><ele>37.0</ele><time>2026-04-06T16:44:25.659Z</time></trkpt><trkpt lat="44.1289967" lon="9.9503617"><ele>37.0</ele><time>2026-04-06T16:44:26.658Z</time></trkpt><trkpt lat="44.129085" lon="9.9503333"><ele>37.0</ele><time>2026-04-06T16:44:27.658Z</time></trkpt><trkpt lat="44.1291667" lon="9.9503117"><ele>37.4</ele><time>2026-04-06T16:44:28.658Z</time></trkpt><trkpt lat="44.129245" lon="9.9503083"><ele>37.800000000000004</ele><time>2026-04-06T16:44:29.659Z</time></trkpt><trkpt lat="44.12933" lon="9.9503117"><ele>38.2</ele><time>2026-04-06T16:44:30.658Z</time></trkpt><trkpt lat="44.1294233" lon="9.9503217"><ele>38.6</ele><time>2026-04-06T16:44:31.658Z</time></trkpt><trkpt lat="44.1295183" lon="9.95033"><ele>39.0</ele><time>2026-04-06T16:44:32.658Z</time></trkpt><trkpt lat="44.1296167" lon="9.950335"><ele>39.0</ele><time>2026-04-06T16:44:33.658Z</time></trkpt><trkpt lat="44.1297217" lon="9.9503383"><ele>39.0</ele><time>2026-04-06T16:44:34.658Z</time></trkpt><trkpt lat="44.1298233" lon="9.9503333"><ele>39.0</ele><time>2026-04-06T16:44:35.658Z</time></trkpt><trkpt lat="44.1299317" lon="9.950325"><ele>39.0</ele><time>2026-04-06T16:44:36.658Z</time></trkpt><trkpt lat="44.130045" lon="9.950305"><ele>39.0</ele><time>2026-04-06T16:44:37.658Z</time></trkpt><trkpt lat="44.13016" lon="9.9502633"><ele>39.75</ele><time>2026-04-06T16:44:38.658Z</time></trkpt><trkpt lat="44.1302783" lon="9.9502083"><ele>40.5</ele><time>2026-04-06T16:44:39.658Z</time></trkpt><trkpt lat="44.1303983" lon="9.95015"><ele>41.25</ele><time>2026-04-06T16:44:40.658Z</time></trkpt><trkpt lat="44.1305217" lon="9.9501"><ele>42.0</ele><time>2026-04-06T16:44:41.658Z</time></trkpt><trkpt lat="44.13065" lon="9.9500583"><ele>42.5</ele><time>2026-04-06T16:44:42.658Z</time></trkpt><trkpt lat="44.1307783" lon="9.9500267"><ele>43.0</ele><time>2026-04-06T16:44:43.658Z</time></trkpt><trkpt lat="44.1309067" lon="9.95"><ele>43.5</ele><time>2026-04-06T16:44:44.658Z</time></trkpt><trkpt lat="44.1310333" lon="9.949975"><ele>44.0</ele><time>2026-04-06T16:44:45.658Z</time></trkpt><trkpt lat="44.131155" lon="9.9499583"><ele>44.0</ele><time>2026-04-06T16:44:46.658Z</time></trkpt><trkpt lat="44.1312783" lon="9.9499567"><ele>44.0</ele><time>2026-04-06T16:44:47.659Z</time></trkpt><trkpt lat="44.1314017" lon="9.9499733"><ele>44.0</ele><time>2026-04-06T16:44:48.658Z</time></trkpt><trkpt lat="44.1315267" lon="9.9499983"><ele>44.0</ele><time>2026-04-06T16:44:49.658Z</time></trkpt><trkpt lat="44.131655" lon="9.9500317"><ele>44.75</ele><time>2026-04-06T16:44:50.658Z</time></trkpt><trkpt lat="44.131785" lon="9.9500633"><ele>45.5</ele><time>2026-04-06T16:44:51.659Z</time></trkpt><trkpt lat="44.13192" lon="9.9500967"><ele>46.25</ele><time>2026-04-06T16:44:52.658Z</time></trkpt><trkpt lat="44.1320583" lon="9.95012"><ele>47.0</ele><time>2026-04-06T16:44:53.658Z</time></trkpt><trkpt lat="44.1321917" lon="9.9501483"><ele>47.0</ele><time>2026-04-06T16:44:54.658Z</time></trkpt><trkpt lat="44.13233" lon="9.9501783"><ele>47.0</ele><time>2026-04-06T16:44:55.658Z</time></trkpt><trkpt lat="44.1324733" lon="9.9502133"><ele>47.0</ele><time>2026-04-06T16:44:56.658Z</time></trkpt><trkpt lat="44.13262" lon="9.95026"><ele>47.0</ele><time>2026-04-06T16:44:57.659Z</time></trkpt><trkpt lat="44.1327767" lon="9.9503"><ele>47.0</ele><time>2026-04-06T16:44:58.659Z</time></trkpt><trkpt lat="44.1329333" lon="9.9503317"><ele>47.0</ele><time>2026-04-06T16:44:59.658Z</time></trkpt><trkpt lat="44.1330883" lon="9.950365"><ele>47.0</ele><time>2026-04-06T16:45:00.658Z</time></trkpt><trkpt lat="44.1332433" lon="9.9504017"><ele>47.666666666666664</ele><time>2026-04-06T16:45:01.658Z</time></trkpt><trkpt lat="44.1334" lon="9.9504333"><ele>48.33333333333333</ele><time>2026-04-06T16:45:02.658Z</time></trkpt><trkpt lat="44.13356" lon="9.9504667"><ele>49.0</ele><time>2026-04-06T16:45:03.658Z</time></trkpt><trkpt lat="44.1337183" lon="9.95051"><ele>49.0</ele><time>2026-04-06T16:45:04.658Z</time></trkpt><trkpt lat="44.1338733" lon="9.95055"><ele>49.0</ele><time>2026-04-06T16:45:05.658Z</time></trkpt><trkpt lat="44.1340267" lon="9.9505917"><ele>49.0</ele><time>2026-04-06T16:45:06.658Z</time></trkpt><trkpt lat="44.1341817" lon="9.95064"><ele>50.0</ele><time>2026-04-06T16:45:07.658Z</time></trkpt><trkpt lat="44.1343283" lon="9.95069"><ele>51.0</ele><time>2026-04-06T16:45:08.658Z</time></trkpt><trkpt lat="44.1344717" lon="9.9507467"><ele>52.0</ele><time>2026-04-06T16:45:09.658Z</time></trkpt><trkpt lat="44.134615" lon="9.9508117"><ele>52.0</ele><time>2026-04-06T16:45:10.658Z</time></trkpt><trkpt lat="44.13476" lon="9.95087"><ele>52.0</ele><time>2026-04-06T16:45:11.659Z</time></trkpt><trkpt lat="44.1349017" lon="9.9509317"><ele>52.0</ele><time>2026-04-06T16:45:12.658Z</time></trkpt><trkpt lat="44.1350417" lon="9.9509933"><ele>52.0</ele><time>2026-04-06T16:45:13.658Z</time></trkpt><trkpt lat="44.135185" lon="9.9510517"><ele>53.0</ele><time>2026-04-06T16:45:14.658Z</time></trkpt><trkpt lat="44.1353217" lon="9.951115"><ele>54.0</ele><time>2026-04-06T16:45:15.658Z</time></trkpt><trkpt lat="44.1354567" lon="9.9511767"><ele>55.0</ele><time>2026-04-06T16:45:16.658Z</time></trkpt><trkpt lat="44.1355883" lon="9.951235"><ele>56.0</ele><time>2026-04-06T16:45:17.659Z</time></trkpt><trkpt lat="44.1357167" lon="9.9512883"><ele>56.5</ele><time>2026-04-06T16:45:18.658Z</time></trkpt><trkpt lat="44.1358417" lon="9.95134"><ele>57.0</ele><time>2026-04-06T16:45:19.658Z</time></trkpt><trkpt lat="44.1359567" lon="9.9513883"><ele>57.5</ele><time>2026-04-06T16:45:20.658Z</time></trkpt><trkpt lat="44.1360633" lon="9.9514233"><ele>58.0</ele><time>2026-04-06T16:45:21.658Z</time></trkpt><trkpt lat="44.1361617" lon="9.951455"><ele>57.99999999999999</ele><time>2026-04-06T16:45:22.658Z</time></trkpt><trkpt lat="44.1362433" lon="9.9514783"><ele>58.0</ele><time>2026-04-06T16:45:23.658Z</time></trkpt><trkpt lat="44.1363117" lon="9.9515"><ele>58.0</ele><time>2026-04-06T16:45:24.659Z</time></trkpt><trkpt lat="44.1363733" lon="9.95152"><ele>58.0</ele><time>2026-04-06T16:45:25.659Z</time></trkpt><trkpt lat="44.1364367" lon="9.95154"><ele>57.99999999999999</ele><time>2026-04-06T16:45:26.659Z</time></trkpt><trkpt lat="44.1365617" lon="9.9515667"><ele>58.0</ele><time>2026-04-06T16:45:28.659Z</time></trkpt><trkpt lat="44.1366517" lon="9.95158"><ele>58.25</ele><time>2026-04-06T16:45:29.658Z</time></trkpt><trkpt lat="44.1367583" lon="9.95159"><ele>58.5</ele><time>2026-04-06T16:45:30.658Z</time></trkpt><trkpt lat="44.1368767" lon="9.9516033"><ele>58.75</ele><time>2026-04-06T16:45:31.658Z</time></trkpt><trkpt lat="44.1370017" lon="9.9516283"><ele>59.0</ele><time>2026-04-06T16:45:32.658Z</time></trkpt><trkpt lat="44.1371267" lon="9.9516533"><ele>59.0</ele><time>2026-04-06T16:45:33.658Z</time></trkpt><trkpt lat="44.13725" lon="9.9516617"><ele>59.0</ele><time>2026-04-06T16:45:34.658Z</time></trkpt><trkpt lat="44.137375" lon="9.9516667"><ele>59.0</ele><time>2026-04-06T16:45:35.658Z</time></trkpt><trkpt lat="44.1374983" lon="9.9516667"><ele>59.0</ele><time>2026-04-06T16:45:36.658Z</time></trkpt><trkpt lat="44.13762" lon="9.9516633"><ele>59.5</ele><time>2026-04-06T16:45:37.658Z</time></trkpt><trkpt lat="44.1377433" lon="9.9516617"><ele>60.0</ele><time>2026-04-06T16:45:38.658Z</time></trkpt><trkpt lat="44.1378617" lon="9.9516567"><ele>60.5</ele><time>2026-04-06T16:45:39.658Z</time></trkpt><trkpt lat="44.1379817" lon="9.9516533"><ele>61.0</ele><time>2026-04-06T16:45:40.658Z</time></trkpt><trkpt lat="44.1381" lon="9.9516533"><ele>61.0</ele><time>2026-04-06T16:45:41.658Z</time></trkpt><trkpt lat="44.138215" lon="9.9516567"><ele>60.99999999999999</ele><time>2026-04-06T16:45:42.658Z</time></trkpt><trkpt lat="44.13832" lon="9.95166"><ele>60.99999999999999</ele><time>2026-04-06T16:45:43.658Z</time></trkpt><trkpt lat="44.1384267" lon="9.9516717"><ele>61.0</ele><time>2026-04-06T16:45:44.658Z</time></trkpt><trkpt lat="44.13854" lon="9.9516883"><ele>61.0</ele><time>2026-04-06T16:45:45.658Z</time></trkpt><trkpt lat="44.1386583" lon="9.951715"><ele>64.25</ele><time>2026-04-06T16:45:46.658Z</time></trkpt><trkpt lat="44.1387817" lon="9.9517383"><ele>67.5</ele><time>2026-04-06T16:45:47.658Z</time></trkpt><trkpt lat="44.1389033" lon="9.9517633"><ele>70.75</ele><time>2026-04-06T16:45:48.659Z</time></trkpt><trkpt lat="44.1390367" lon="9.9517967"><ele>74.0</ele><time>2026-04-06T16:45:49.658Z</time></trkpt><trkpt lat="44.1391733" lon="9.9518317"><ele>74.5</ele><time>2026-04-06T16:45:50.658Z</time></trkpt><trkpt lat="44.1393133" lon="9.951865"><ele>75.0</ele><time>2026-04-06T16:45:51.659Z</time></trkpt><trkpt lat="44.139455" lon="9.951895"><ele>75.5</ele><time>2026-04-06T16:45:52.658Z</time></trkpt><trkpt lat="44.1396083" lon="9.951935"><ele>76.0</ele><time>2026-04-06T16:45:53.658Z</time></trkpt><trkpt lat="44.1397667" lon="9.9519733"><ele>77.33333333333333</ele><time>2026-04-06T16:45:54.658Z</time></trkpt><trkpt lat="44.13993" lon="9.9520117"><ele>78.66666666666667</ele><time>2026-04-06T16:45:55.658Z</time></trkpt><trkpt lat="44.1400917" lon="9.9520517"><ele>80.0</ele><time>2026-04-06T16:45:56.658Z</time></trkpt><trkpt lat="44.14025" lon="9.9520917"><ele>80.0</ele><time>2026-04-06T16:45:57.659Z</time></trkpt><trkpt lat="44.1404083" lon="9.9521267"><ele>80.0</ele><time>2026-04-06T16:45:58.658Z</time></trkpt><trkpt lat="44.140565" lon="9.9521633"><ele>80.0</ele><time>2026-04-06T16:45:59.659Z</time></trkpt><trkpt lat="44.1407217" lon="9.9522033"><ele>79.0</ele><time>2026-04-06T16:46:00.658Z</time></trkpt><trkpt lat="44.1408733" lon="9.9522467"><ele>78.0</ele><time>2026-04-06T16:46:01.659Z</time></trkpt><trkpt lat="44.1410217" lon="9.952285"><ele>77.0</ele><time>2026-04-06T16:46:02.658Z</time></trkpt><trkpt lat="44.1411667" lon="9.952325"><ele>77.0</ele><time>2026-04-06T16:46:03.658Z</time></trkpt><trkpt lat="44.1413083" lon="9.9523583"><ele>77.0</ele><time>2026-04-06T16:46:04.658Z</time></trkpt><trkpt lat="44.1414517" lon="9.9523967"><ele>77.0</ele><time>2026-04-06T16:46:05.658Z</time></trkpt><trkpt lat="44.1415883" lon="9.95245"><ele>77.0</ele><time>2026-04-06T16:46:06.658Z</time></trkpt><trkpt lat="44.1417267" lon="9.9525217"><ele>81.0</ele><time>2026-04-06T16:46:07.658Z</time></trkpt><trkpt lat="44.1418617" lon="9.952605"><ele>85.0</ele><time>2026-04-06T16:46:08.658Z</time></trkpt><trkpt lat="44.141995" lon="9.9526933"><ele>89.0</ele><time>2026-04-06T16:46:09.658Z</time></trkpt><trkpt lat="44.1421267" lon="9.9527867"><ele>93.0</ele><time>2026-04-06T16:46:10.658Z</time></trkpt><trkpt lat="44.1422583" lon="9.952885"><ele>92.0</ele><time>2026-04-06T16:46:11.659Z</time></trkpt><trkpt lat="44.14239" lon="9.9529867"><ele>91.0</ele><time>2026-04-06T16:46:12.658Z</time></trkpt><trkpt lat="44.1425233" lon="9.9530833"><ele>90.0</ele><time>2026-04-06T16:46:13.658Z</time></trkpt><trkpt lat="44.1426567" lon="9.9531783"><ele>90.0</ele><time>2026-04-06T16:46:14.658Z</time></trkpt><trkpt lat="44.1427917" lon="9.9532767"><ele>90.0</ele><time>2026-04-06T16:46:15.659Z</time></trkpt><trkpt lat="44.1429267" lon="9.9533733"><ele>90.0</ele><time>2026-04-06T16:46:16.659Z</time></trkpt><trkpt lat="44.1430617" lon="9.9534717"><ele>92.33333333333334</ele><time>2026-04-06T16:46:17.658Z</time></trkpt><trkpt lat="44.1432" lon="9.9535717"><ele>94.66666666666667</ele><time>2026-04-06T16:46:18.658Z</time></trkpt><trkpt lat="44.1433383" lon="9.95367"><ele>97.0</ele><time>2026-04-06T16:46:19.658Z</time></trkpt><trkpt lat="44.1434767" lon="9.9537667"><ele>97.0</ele><time>2026-04-06T16:46:20.659Z</time></trkpt><trkpt lat="44.1436133" lon="9.9538583"><ele>97.0</ele><time>2026-04-06T16:46:21.658Z</time></trkpt><trkpt lat="44.1437567" lon="9.953945"><ele>97.0</ele><time>2026-04-06T16:46:22.658Z</time></trkpt><trkpt lat="44.1439017" lon="9.9540217"><ele>96.33333333333334</ele><time>2026-04-06T16:46:23.658Z</time></trkpt><trkpt lat="44.14405" lon="9.9540967"><ele>95.66666666666667</ele><time>2026-04-06T16:46:24.658Z</time></trkpt><trkpt lat="44.1441967" lon="9.9541733"><ele>95.0</ele><time>2026-04-06T16:46:25.659Z</time></trkpt><trkpt lat="44.1443417" lon="9.9542483"><ele>102.66666666666667</ele><time>2026-04-06T16:46:26.659Z</time></trkpt><trkpt lat="44.1444867" lon="9.9543233"><ele>110.33333333333334</ele><time>2026-04-06T16:46:27.658Z</time></trkpt><trkpt lat="44.1446317" lon="9.9543967"><ele>118.0</ele><time>2026-04-06T16:46:28.658Z</time></trkpt><trkpt lat="44.1447733" lon="9.9544733"><ele>114.33333333333334</ele><time>2026-04-06T16:46:29.658Z</time></trkpt><trkpt lat="44.1449183" lon="9.95455"><ele>110.66666666666666</ele><time>2026-04-06T16:46:30.658Z</time></trkpt><trkpt lat="44.1450617" lon="9.9546267"><ele>107.0</ele><time>2026-04-06T16:46:31.658Z</time></trkpt><trkpt lat="44.1452067" lon="9.9547067"><ele>107.0</ele><time>2026-04-06T16:46:32.658Z</time></trkpt><trkpt lat="44.1453533" lon="9.9547817"><ele>107.0</ele><time>2026-04-06T16:46:33.658Z</time></trkpt><trkpt lat="44.1454983" lon="9.9548583"><ele>107.0</ele><time>2026-04-06T16:46:34.658Z</time></trkpt><trkpt lat="44.1456433" lon="9.954935"><ele>106.25</ele><time>2026-04-06T16:46:35.658Z</time></trkpt><trkpt lat="44.1457817" lon="9.9550167"><ele>105.5</ele><time>2026-04-06T16:46:36.658Z</time></trkpt><trkpt lat="44.145915" lon="9.9551"><ele>104.75</ele><time>2026-04-06T16:46:37.658Z</time></trkpt><trkpt lat="44.146045" lon="9.955175"><ele>104.0</ele><time>2026-04-06T16:46:38.658Z</time></trkpt><trkpt lat="44.1461717" lon="9.955245"><ele>105.5</ele><time>2026-04-06T16:46:39.658Z</time></trkpt><trkpt lat="44.1462967" lon="9.95531"><ele>107.0</ele><time>2026-04-06T16:46:40.659Z</time></trkpt><trkpt lat="44.1464267" lon="9.955365"><ele>108.5</ele><time>2026-04-06T16:46:41.658Z</time></trkpt><trkpt lat="44.146555" lon="9.9553967"><ele>110.0</ele><time>2026-04-06T16:46:42.658Z</time></trkpt><trkpt lat="44.1466883" lon="9.9554133"><ele>110.0</ele><time>2026-04-06T16:46:43.658Z</time></trkpt><trkpt lat="44.1468283" lon="9.9554183"><ele>110.0</ele><time>2026-04-06T16:46:44.659Z</time></trkpt><trkpt lat="44.1469717" lon="9.9554267"><ele>110.0</ele><time>2026-04-06T16:46:45.658Z</time></trkpt><trkpt lat="44.147125" lon="9.95543"><ele>110.0</ele><time>2026-04-06T16:46:46.658Z</time></trkpt><trkpt lat="44.1472783" lon="9.955435"><ele>109.25</ele><time>2026-04-06T16:46:47.659Z</time></trkpt><trkpt lat="44.1474283" lon="9.9554467"><ele>108.5</ele><time>2026-04-06T16:46:48.658Z</time></trkpt><trkpt lat="44.1475783" lon="9.9554567"><ele>107.75</ele><time>2026-04-06T16:46:49.658Z</time></trkpt><trkpt lat="44.147725" lon="9.9554667"><ele>107.0</ele><time>2026-04-06T16:46:50.659Z</time></trkpt><trkpt lat="44.1478717" lon="9.9554733"><ele>107.0</ele><time>2026-04-06T16:46:51.659Z</time></trkpt><trkpt lat="44.1480167" lon="9.9554833"><ele>107.0</ele><time>2026-04-06T16:46:52.658Z</time></trkpt><trkpt lat="44.1481617" lon="9.9554883"><ele>107.0</ele><time>2026-04-06T16:46:53.658Z</time></trkpt><trkpt lat="44.1483033" lon="9.9555"><ele>107.0</ele><time>2026-04-06T16:46:54.658Z</time></trkpt><trkpt lat="44.1484417" lon="9.955515"><ele>108.39999999999999</ele><time>2026-04-06T16:46:55.658Z</time></trkpt><trkpt lat="44.148565" lon="9.9555267"><ele>109.79999999999998</ele><time>2026-04-06T16:46:56.658Z</time></trkpt><trkpt lat="44.148675" lon="9.9555367"><ele>111.2</ele><time>2026-04-06T16:46:57.658Z</time></trkpt><trkpt lat="44.1487717" lon="9.9555517"><ele>112.6</ele><time>2026-04-06T16:46:58.658Z</time></trkpt><trkpt lat="44.148855" lon="9.955595"><ele>114.0</ele><time>2026-04-06T16:46:59.658Z</time></trkpt><trkpt lat="44.1489283" lon="9.95567"><ele>114.0</ele><time>2026-04-06T16:47:00.659Z</time></trkpt><trkpt lat="44.1489983" lon="9.9557717"><ele>114.0</ele><time>2026-04-06T16:47:01.658Z</time></trkpt><trkpt lat="44.1490767" lon="9.9558717"><ele>114.0</ele><time>2026-04-06T16:47:02.658Z</time></trkpt><trkpt lat="44.14917" lon="9.955945"><ele>114.0</ele><time>2026-04-06T16:47:03.658Z</time></trkpt><trkpt lat="44.1492817" lon="9.9559667"><ele>114.0</ele><time>2026-04-06T16:47:04.658Z</time></trkpt><trkpt lat="44.1493933" lon="9.955965"><ele>117.0</ele><time>2026-04-06T16:47:05.658Z</time></trkpt><trkpt lat="44.1495183" lon="9.9559383"><ele>120.0</ele><time>2026-04-06T16:47:06.658Z</time></trkpt><trkpt lat="44.149635" lon="9.955895"><ele>123.0</ele><time>2026-04-06T16:47:07.658Z</time></trkpt><trkpt lat="44.1497417" lon="9.9558433"><ele>126.0</ele><time>2026-04-06T16:47:08.658Z</time></trkpt><trkpt lat="44.1498267" lon="9.95577"><ele>127.8</ele><time>2026-04-06T16:47:09.658Z</time></trkpt><trkpt lat="44.1498983" lon="9.955705"><ele>129.6</ele><time>2026-04-06T16:47:10.658Z</time></trkpt><trkpt lat="44.1499683" lon="9.9556633"><ele>131.4</ele><time>2026-04-06T16:47:11.658Z</time></trkpt><trkpt lat="44.1500867" lon="9.9556867"><ele>133.2</ele><time>2026-04-06T16:47:13.659Z</time></trkpt><trkpt lat="44.1500883" lon="9.955815"><ele>135.0</ele><time>2026-04-06T16:47:15.658Z</time></trkpt><trkpt lat="44.1499583" lon="9.95595"><ele>135.2</ele><time>2026-04-06T16:47:17.658Z</time></trkpt><trkpt lat="44.1498717" lon="9.9560133"><ele>135.4</ele><time>2026-04-06T16:47:18.659Z</time></trkpt><trkpt lat="44.14978" lon="9.95607"><ele>135.6</ele><time>2026-04-06T16:47:19.658Z</time></trkpt><trkpt lat="44.1496783" lon="9.9561217"><ele>135.8</ele><time>2026-04-06T16:47:20.658Z</time></trkpt><trkpt lat="44.14957" lon="9.9561667"><ele>136.0</ele><time>2026-04-06T16:47:21.658Z</time></trkpt><trkpt lat="44.14946" lon="9.956205"><ele>136.0</ele><time>2026-04-06T16:47:22.659Z</time></trkpt><trkpt lat="44.14935" lon="9.956235"><ele>136.0</ele><time>2026-04-06T16:47:23.658Z</time></trkpt><trkpt lat="44.1492383" lon="9.9562367"><ele>136.0</ele><time>2026-04-06T16:47:24.658Z</time></trkpt><trkpt lat="44.1491383" lon="9.95622"><ele>136.0</ele><time>2026-04-06T16:47:25.659Z</time></trkpt><trkpt lat="44.1490467" lon="9.956165"><ele>136.0</ele><time>2026-04-06T16:47:26.658Z</time></trkpt><trkpt lat="44.1489567" lon="9.95611"><ele>133.4</ele><time>2026-04-06T16:47:27.658Z</time></trkpt><trkpt lat="44.148885" lon="9.9560767"><ele>130.8</ele><time>2026-04-06T16:47:28.658Z</time></trkpt><trkpt lat="44.148775" lon="9.9561067"><ele>128.20000000000002</ele><time>2026-04-06T16:47:30.658Z</time></trkpt><trkpt lat="44.148815" lon="9.95619"><ele>125.60000000000001</ele><time>2026-04-06T16:47:31.658Z</time></trkpt><trkpt lat="44.148925" lon="9.9562983"><ele>123.0</ele><time>2026-04-06T16:47:33.658Z</time></trkpt><trkpt lat="44.1490233" lon="9.9563317"><ele>125.60000000000001</ele><time>2026-04-06T16:47:34.659Z</time></trkpt><trkpt lat="44.1491167" lon="9.9563583"><ele>128.20000000000002</ele><time>2026-04-06T16:47:35.658Z</time></trkpt><trkpt lat="44.1492117" lon="9.9563783"><ele>130.8</ele><time>2026-04-06T16:47:36.659Z</time></trkpt><trkpt lat="44.1493183" lon="9.95638"><ele>133.4</ele><time>2026-04-06T16:47:37.658Z</time></trkpt><trkpt lat="44.1494333" lon="9.9563633"><ele>136.0</ele><time>2026-04-06T16:47:38.658Z</time></trkpt><trkpt lat="44.1495517" lon="9.9563283"><ele>136.0</ele><time>2026-04-06T16:47:39.658Z</time></trkpt><trkpt lat="44.1496717" lon="9.9562817"><ele>136.0</ele><time>2026-04-06T16:47:40.658Z</time></trkpt><trkpt lat="44.1497817" lon="9.9562333"><ele>136.0</ele><time>2026-04-06T16:47:41.659Z</time></trkpt><trkpt lat="44.1499" lon="9.9561833"><ele>136.0</ele><time>2026-04-06T16:47:42.658Z</time></trkpt><trkpt lat="44.1500183" lon="9.956145"><ele>140.8</ele><time>2026-04-06T16:47:43.659Z</time></trkpt><trkpt lat="44.1501367" lon="9.956105"><ele>145.6</ele><time>2026-04-06T16:47:44.658Z</time></trkpt><trkpt lat="44.1502383" lon="9.9560517"><ele>150.4</ele><time>2026-04-06T16:47:45.658Z</time></trkpt><trkpt lat="44.1503267" lon="9.9560017"><ele>155.2</ele><time>2026-04-06T16:47:46.658Z</time></trkpt><trkpt lat="44.1504017" lon="9.95596"><ele>160.0</ele><time>2026-04-06T16:47:47.658Z</time></trkpt><trkpt lat="44.1504683" lon="9.9559333"><ele>160.0</ele><time>2026-04-06T16:47:48.658Z</time></trkpt><trkpt lat="44.1505533" lon="9.9559817"><ele>160.0</ele><time>2026-04-06T16:47:50.658Z</time></trkpt><trkpt lat="44.15051" lon="9.9560833"><ele>160.0</ele><time>2026-04-06T16:47:52.659Z</time></trkpt><trkpt lat="44.15045" lon="9.956115"><ele>160.0</ele><time>2026-04-06T16:47:53.658Z</time></trkpt><trkpt lat="44.1503767" lon="9.9561483"><ele>160.0</ele><time>2026-04-06T16:47:54.658Z</time></trkpt><trkpt lat="44.1503017" lon="9.956205"><ele>160.0</ele><time>2026-04-06T16:47:55.658Z</time></trkpt><trkpt lat="44.1502217" lon="9.9562783"><ele>160.0</ele><time>2026-04-06T16:47:56.659Z</time></trkpt><trkpt lat="44.1501417" lon="9.9563567"><ele>160.0</ele><time>2026-04-06T16:47:57.658Z</time></trkpt><trkpt lat="44.1500483" lon="9.9564233"><ele>160.0</ele><time>2026-04-06T16:47:58.658Z</time></trkpt><trkpt lat="44.149945" lon="9.9564733"><ele>160.0</ele><time>2026-04-06T16:47:59.658Z</time></trkpt><trkpt lat="44.149845" lon="9.956525"><ele>160.0</ele><time>2026-04-06T16:48:00.658Z</time></trkpt><trkpt lat="44.1497483" lon="9.95658"><ele>156.5</ele><time>2026-04-06T16:48:01.658Z</time></trkpt><trkpt lat="44.149665" lon="9.9566367"><ele>153.0</ele><time>2026-04-06T16:48:02.658Z</time></trkpt><trkpt lat="44.1496083" lon="9.9567"><ele>149.5</ele><time>2026-04-06T16:48:03.658Z</time></trkpt><trkpt lat="44.1496183" lon="9.9568183"><ele>146.0</ele><time>2026-04-06T16:48:05.659Z</time></trkpt><trkpt lat="44.1497083" lon="9.9568"><ele>142.5</ele><time>2026-04-06T16:48:07.658Z</time></trkpt><trkpt lat="44.1497767" lon="9.956755"><ele>139.0</ele><time>2026-04-06T16:48:08.659Z</time></trkpt><trkpt lat="44.149855" lon="9.9567083"><ele>143.2</ele><time>2026-04-06T16:48:09.659Z</time></trkpt><trkpt lat="44.1499433" lon="9.9566767"><ele>147.4</ele><time>2026-04-06T16:48:10.658Z</time></trkpt><trkpt lat="44.1500417" lon="9.9566733"><ele>151.6</ele><time>2026-04-06T16:48:11.658Z</time></trkpt><trkpt lat="44.1501367" lon="9.95665"><ele>155.8</ele><time>2026-04-06T16:48:12.658Z</time></trkpt><trkpt lat="44.150225" lon="9.95661"><ele>160.0</ele><time>2026-04-06T16:48:13.658Z</time></trkpt><trkpt lat="44.1503083" lon="9.9565667"><ele>160.0</ele><time>2026-04-06T16:48:14.658Z</time></trkpt><trkpt lat="44.1503867" lon="9.95654"><ele>160.0</ele><time>2026-04-06T16:48:15.658Z</time></trkpt><trkpt lat="44.1504733" lon="9.9565667"><ele>160.0</ele><time>2026-04-06T16:48:16.658Z</time></trkpt><trkpt lat="44.15056" lon="9.956615"><ele>160.0</ele><time>2026-04-06T16:48:17.658Z</time></trkpt><trkpt lat="44.1506467" lon="9.9566967"><ele>160.0</ele><time>2026-04-06T16:48:18.658Z</time></trkpt><trkpt lat="44.1507367" lon="9.9567783"><ele>168.2</ele><time>2026-04-06T16:48:19.658Z</time></trkpt><trkpt lat="44.1508217" lon="9.9568483"><ele>176.4</ele><time>2026-04-06T16:48:20.659Z</time></trkpt><trkpt lat="44.1509033" lon="9.9569067"><ele>184.60000000000002</ele><time>2026-04-06T16:48:21.658Z</time></trkpt><trkpt lat="44.1509917" lon="9.9569317"><ele>192.8</ele><time>2026-04-06T16:48:22.658Z</time></trkpt><trkpt lat="44.15108" lon="9.9569267"><ele>201.0</ele><time>2026-04-06T16:48:23.659Z</time></trkpt><trkpt lat="44.1511683" lon="9.9568867"><ele>201.0</ele><time>2026-04-06T16:48:24.658Z</time></trkpt><trkpt lat="44.1512633" lon="9.956855"><ele>201.0</ele><time>2026-04-06T16:48:25.658Z</time></trkpt><trkpt lat="44.1513567" lon="9.95685"><ele>201.0</ele><time>2026-04-06T16:48:26.658Z</time></trkpt><trkpt lat="44.1514467" lon="9.9568767"><ele>201.0</ele><time>2026-04-06T16:48:27.658Z</time></trkpt><trkpt lat="44.1515267" lon="9.9569367"><ele>201.0</ele><time>2026-04-06T16:48:28.658Z</time></trkpt><trkpt lat="44.1516067" lon="9.9569733"><ele>201.0</ele><time>2026-04-06T16:48:29.659Z</time></trkpt><trkpt lat="44.1516833" lon="9.9569967"><ele>201.0</ele><time>2026-04-06T16:48:30.658Z</time></trkpt><trkpt lat="44.1517583" lon="9.9569383"><ele>201.0</ele><time>2026-04-06T16:48:31.658Z</time></trkpt><trkpt lat="44.1518183" lon="9.956855"><ele>201.0</ele><time>2026-04-06T16:48:32.658Z</time></trkpt><trkpt lat="44.1518733" lon="9.9567517"><ele>201.0</ele><time>2026-04-06T16:48:33.658Z</time></trkpt><trkpt lat="44.15193" lon="9.956655"><ele>201.0</ele><time>2026-04-06T16:48:34.658Z</time></trkpt><trkpt lat="44.1519933" lon="9.95657"><ele>201.0</ele><time>2026-04-06T16:48:35.659Z</time></trkpt><trkpt lat="44.1520483" lon="9.9565067"><ele>201.0</ele><time>2026-04-06T16:48:36.658Z</time></trkpt><trkpt lat="44.1521017" lon="9.956455"><ele>201.0</ele><time>2026-04-06T16:48:37.659Z</time></trkpt><trkpt lat="44.152155" lon="9.956505"><ele>201.0</ele><time>2026-04-06T16:48:39.658Z</time></trkpt><trkpt lat="44.1521283" lon="9.9565917"><ele>201.0</ele><time>2026-04-06T16:48:41.658Z</time></trkpt><trkpt lat="44.1520233" lon="9.95667"><ele>201.0</ele><time>2026-04-06T16:48:43.658Z</time></trkpt><trkpt lat="44.1519633" lon="9.9567233"><ele>201.0</ele><time>2026-04-06T16:48:44.659Z</time></trkpt><trkpt lat="44.1519167" lon="9.9567983"><ele>201.0</ele><time>2026-04-06T16:48:45.658Z</time></trkpt><trkpt lat="44.1519017" lon="9.95691"><ele>201.0</ele><time>2026-04-06T16:48:46.658Z</time></trkpt><trkpt lat="44.151895" lon="9.9570467"><ele>201.0</ele><time>2026-04-06T16:48:47.659Z</time></trkpt><trkpt lat="44.1518783" lon="9.95717"><ele>201.0</ele><time>2026-04-06T16:48:48.659Z</time></trkpt><trkpt lat="44.1518533" lon="9.9572883"><ele>201.0</ele><time>2026-04-06T16:48:49.658Z</time></trkpt><trkpt lat="44.1517783" lon="9.9573467"><ele>201.0</ele><time>2026-04-06T16:48:50.658Z</time></trkpt><trkpt lat="44.1517017" lon="9.9573783"><ele>201.0</ele><time>2026-04-06T16:48:51.658Z</time></trkpt><trkpt lat="44.151625" lon="9.9573867"><ele>201.0</ele><time>2026-04-06T16:48:52.658Z</time></trkpt><trkpt lat="44.151545" lon="9.957365"><ele>201.0</ele><time>2026-04-06T16:48:53.658Z</time></trkpt><trkpt lat="44.1514533" lon="9.95734"><ele>201.0</ele><time>2026-04-06T16:48:54.658Z</time></trkpt><trkpt lat="44.151365" lon="9.9573483"><ele>201.0</ele><time>2026-04-06T16:48:55.658Z</time></trkpt><trkpt lat="44.1512717" lon="9.9573733"><ele>201.0</ele><time>2026-04-06T16:48:56.658Z</time></trkpt><trkpt lat="44.1511683" lon="9.9574167"><ele>201.0</ele><time>2026-04-06T16:48:57.659Z</time></trkpt><trkpt lat="44.1510567" lon="9.95745"><ele>201.0</ele><time>2026-04-06T16:48:58.658Z</time></trkpt><trkpt lat="44.1509467" lon="9.95747"><ele>201.0</ele><time>2026-04-06T16:48:59.658Z</time></trkpt><trkpt lat="44.1508367" lon="9.9574683"><ele>201.0</ele><time>2026-04-06T16:49:00.658Z</time></trkpt><trkpt lat="44.1507333" lon="9.957455"><ele>195.5</ele><time>2026-04-06T16:49:01.659Z</time></trkpt><trkpt lat="44.1506367" lon="9.9574467"><ele>190.0</ele><time>2026-04-06T16:49:02.658Z</time></trkpt><trkpt lat="44.1505583" lon="9.95745"><ele>184.5</ele><time>2026-04-06T16:49:03.658Z</time></trkpt><trkpt lat="44.1504817" lon="9.9574733"><ele>179.0</ele><time>2026-04-06T16:49:04.658Z</time></trkpt><trkpt lat="44.1504233" lon="9.9575133"><ele>173.5</ele><time>2026-04-06T16:49:05.658Z</time></trkpt><trkpt lat="44.1504433" lon="9.9576067"><ele>168.0</ele><time>2026-04-06T16:49:06.658Z</time></trkpt><trkpt lat="44.15055" lon="9.9576417"><ele>166.4</ele><time>2026-04-06T16:49:08.658Z</time></trkpt><trkpt lat="44.1506367" lon="9.9576233"><ele>164.8</ele><time>2026-04-06T16:49:09.658Z</time></trkpt><trkpt lat="44.1507333" lon="9.9576117"><ele>163.2</ele><time>2026-04-06T16:49:10.658Z</time></trkpt><trkpt lat="44.150835" lon="9.9576117"><ele>161.6</ele><time>2026-04-06T16:49:11.658Z</time></trkpt><trkpt lat="44.150945" lon="9.957615"><ele>160.0</ele><time>2026-04-06T16:49:12.658Z</time></trkpt><trkpt lat="44.1510617" lon="9.957615"><ele>170.5</ele><time>2026-04-06T16:49:13.658Z</time></trkpt><trkpt lat="44.1511783" lon="9.9576133"><ele>181.0</ele><time>2026-04-06T16:49:14.658Z</time></trkpt><trkpt lat="44.151295" lon="9.95762"><ele>191.5</ele><time>2026-04-06T16:49:15.658Z</time></trkpt><trkpt lat="44.1514067" lon="9.9576383"><ele>202.0</ele><time>2026-04-06T16:49:16.659Z</time></trkpt><trkpt lat="44.15151" lon="9.95768"><ele>207.0</ele><time>2026-04-06T16:49:17.658Z</time></trkpt><trkpt lat="44.151605" lon="9.9577267"><ele>212.0</ele><time>2026-04-06T16:49:18.658Z</time></trkpt><trkpt lat="44.1516933" lon="9.95778"><ele>217.0</ele><time>2026-04-06T16:49:19.659Z</time></trkpt><trkpt lat="44.1517733" lon="9.9578233"><ele>222.0</ele><time>2026-04-06T16:49:20.659Z</time></trkpt><trkpt lat="44.15184" lon="9.9578583"><ele>227.0</ele><time>2026-04-06T16:49:21.658Z</time></trkpt><trkpt lat="44.151925" lon="9.9579583"><ele>227.0</ele><time>2026-04-06T16:49:23.658Z</time></trkpt><trkpt lat="44.15185" lon="9.9580383"><ele>227.0</ele><time>2026-04-06T16:49:25.659Z</time></trkpt><trkpt lat="44.15171" lon="9.9580133"><ele>227.0</ele><time>2026-04-06T16:49:27.659Z</time></trkpt><trkpt lat="44.151625" lon="9.957975"><ele>227.0</ele><time>2026-04-06T16:49:28.658Z</time></trkpt><trkpt lat="44.151535" lon="9.9579283"><ele>227.0</ele><time>2026-04-06T16:49:29.658Z</time></trkpt><trkpt lat="44.1514417" lon="9.9578817"><ele>222.83333333333334</ele><time>2026-04-06T16:49:30.658Z</time></trkpt><trkpt lat="44.1513433" lon="9.9578567"><ele>218.66666666666669</ele><time>2026-04-06T16:49:31.658Z</time></trkpt><trkpt lat="44.1512517" lon="9.9578633"><ele>214.5</ele><time>2026-04-06T16:49:32.659Z</time></trkpt><trkpt lat="44.1511617" lon="9.95788"><ele>210.33333333333331</ele><time>2026-04-06T16:49:33.659Z</time></trkpt><trkpt lat="44.15108" lon="9.9579067"><ele>206.16666666666666</ele><time>2026-04-06T16:49:34.658Z</time></trkpt><trkpt lat="44.151015" lon="9.95794"><ele>202.0</ele><time>2026-04-06T16:49:35.658Z</time></trkpt><trkpt lat="44.1509433" lon="9.95803"><ele>234.0</ele><time>2026-04-06T16:49:37.659Z</time></trkpt><trkpt lat="44.1527117" lon="9.958075"><ele>234.0</ele><time>2026-04-06T16:50:15.659Z</time></trkpt><trkpt lat="44.1526517" lon="9.95813"><ele>233.99999999999997</ele><time>2026-04-06T16:50:16.658Z</time></trkpt><trkpt lat="44.1526033" lon="9.9582083"><ele>233.99999999999997</ele><time>2026-04-06T16:50:17.659Z</time></trkpt><trkpt lat="44.15256" lon="9.95831"><ele>234.0</ele><time>2026-04-06T16:50:18.658Z</time></trkpt><trkpt lat="44.1525117" lon="9.9584183"><ele>234.0</ele><time>2026-04-06T16:50:19.658Z</time></trkpt><trkpt lat="44.1523833" lon="9.9585983"><ele>233.79999999999998</ele><time>2026-04-06T16:50:21.658Z</time></trkpt><trkpt lat="44.1522967" lon="9.9586567"><ele>233.59999999999997</ele><time>2026-04-06T16:50:22.658Z</time></trkpt><trkpt lat="44.1522067" lon="9.9587"><ele>233.4</ele><time>2026-04-06T16:50:23.658Z</time></trkpt><trkpt lat="44.15212" lon="9.95873"><ele>233.2</ele><time>2026-04-06T16:50:24.659Z</time></trkpt><trkpt lat="44.152045" lon="9.9587567"><ele>233.0</ele><time>2026-04-06T16:50:25.658Z</time></trkpt><trkpt lat="44.1519367" lon="9.9588217"><ele>233.0</ele><time>2026-04-06T16:50:27.658Z</time></trkpt><trkpt lat="44.1519017" lon="9.9589283"><ele>233.0</ele><time>2026-04-06T16:50:29.658Z</time></trkpt><trkpt lat="44.1519767" lon="9.959075"><ele>233.0</ele><time>2026-04-06T16:50:31.658Z</time></trkpt><trkpt lat="44.1520183" lon="9.9591667"><ele>233.0</ele><time>2026-04-06T16:50:32.658Z</time></trkpt><trkpt lat="44.1520617" lon="9.959265"><ele>233.0</ele><time>2026-04-06T16:50:33.658Z</time></trkpt><trkpt lat="44.1521083" lon="9.9593667"><ele>231.33333333333334</ele><time>2026-04-06T16:50:34.658Z</time></trkpt><trkpt lat="44.1521483" lon="9.9594683"><ele>229.66666666666669</ele><time>2026-04-06T16:50:35.658Z</time></trkpt><trkpt lat="44.1521933" lon="9.9595667"><ele>228.0</ele><time>2026-04-06T16:50:36.658Z</time></trkpt><trkpt lat="44.1522317" lon="9.9596583"><ele>226.33333333333331</ele><time>2026-04-06T16:50:37.659Z</time></trkpt><trkpt lat="44.152255" lon="9.95975"><ele>224.66666666666666</ele><time>2026-04-06T16:50:38.658Z</time></trkpt><trkpt lat="44.1522583" lon="9.9598383"><ele>223.0</ele><time>2026-04-06T16:50:39.658Z</time></trkpt><trkpt lat="44.1522583" lon="9.9599867"><ele>224.25</ele><time>2026-04-06T16:50:41.659Z</time></trkpt><trkpt lat="44.1523667" lon="9.9601317"><ele>225.5</ele><time>2026-04-06T16:50:45.658Z</time></trkpt><trkpt lat="44.1524367" lon="9.960175"><ele>226.75</ele><time>2026-04-06T16:50:47.659Z</time></trkpt><trkpt lat="44.1524867" lon="9.9603133"><ele>228.0</ele><time>2026-04-06T16:50:49.659Z</time></trkpt><trkpt lat="44.15255" lon="9.9604583"><ele>236.0</ele><time>2026-04-06T16:50:51.659Z</time></trkpt><trkpt lat="44.1526317" lon="9.9605767"><ele>244.0</ele><time>2026-04-06T16:50:53.658Z</time></trkpt><trkpt lat="44.1527083" lon="9.9606517"><ele>252.0</ele><time>2026-04-06T16:50:55.658Z</time></trkpt><trkpt lat="44.1527917" lon="9.9606567"><ele>260.0</ele><time>2026-04-06T16:51:04.658Z</time></trkpt><trkpt lat="44.1529817" lon="9.9608767"><ele>260.83333333333337</ele><time>2026-04-06T16:51:08.658Z</time></trkpt><trkpt lat="44.1530317" lon="9.9609483"><ele>261.6666666666667</ele><time>2026-04-06T16:51:09.658Z</time></trkpt><trkpt lat="44.1530767" lon="9.9610133"><ele>262.5</ele><time>2026-04-06T16:51:10.658Z</time></trkpt><trkpt lat="44.15313" lon="9.9611467"><ele>263.3333333333333</ele><time>2026-04-06T16:51:12.658Z</time></trkpt><trkpt lat="44.1531483" lon="9.961245"><ele>264.16666666666663</ele><time>2026-04-06T16:51:14.659Z</time></trkpt><trkpt lat="44.1531367" lon="9.9613367"><ele>265.0</ele><time>2026-04-06T16:51:17.658Z</time></trkpt><trkpt lat="44.1530867" lon="9.9612317"><ele>265.0</ele><time>2026-04-06T16:51:33.659Z</time></trkpt><trkpt lat="44.1529583" lon="9.9610483"><ele>265.0</ele><time>2026-04-06T16:51:37.658Z</time></trkpt><trkpt lat="44.15285" lon="9.961025"><ele>265.0</ele><time>2026-04-06T16:51:39.658Z</time></trkpt><trkpt lat="44.15277" lon="9.9610017"><ele>265.0</ele><time>2026-04-06T16:51:41.658Z</time></trkpt><trkpt lat="44.1527083" lon="9.9609683"><ele>265.0</ele><time>2026-04-06T16:51:44.658Z</time></trkpt><trkpt lat="44.1526383" lon="9.9609467"><ele>265.0</ele><time>2026-04-06T16:51:51.658Z</time></trkpt><trkpt lat="44.1525817" lon="9.9610117"><ele>265.0</ele><time>2026-04-06T16:51:58.658Z</time></trkpt></trkseg><trkseg><trkpt lat="44.1525917" lon="9.9609783"><ele>265.0</ele><time>2026-04-07T08:26:23.66Z</time></trkpt><trkpt lat="44.152665" lon="9.9609467"><ele>265.0</ele><time>2026-04-07T08:26:32.659Z</time></trkpt><trkpt lat="44.1527467" lon="9.96095"><ele>265.0</ele><time>2026-04-07T08:26:35.659Z</time></trkpt><trkpt lat="44.15283" lon="9.961005"><ele>265.0</ele><time>2026-04-07T08:26:37.659Z</time></trkpt><trkpt lat="44.1529033" lon="9.9610417"><ele>265.0</ele><time>2026-04-07T08:26:39.659Z</time></trkpt><trkpt lat="44.1529767" lon="9.96108"><ele>265.0</ele><time>2026-04-07T08:26:41.659Z</time></trkpt><trkpt lat="44.15304" lon="9.9611433"><ele>265.0</ele><time>2026-04-07T08:26:43.659Z</time></trkpt><trkpt lat="44.1530817" lon="9.9612333"><ele>265.0</ele><time>2026-04-07T08:26:45.659Z</time></trkpt><trkpt lat="44.1530933" lon="9.961335"><ele>265.0</ele><time>2026-04-07T08:26:48.659Z</time></trkpt><trkpt lat="44.1531133" lon="9.96123"><ele>265.0</ele><time>2026-04-07T08:26:55.66Z</time></trkpt><trkpt lat="44.1530917" lon="9.9611233"><ele>265.0</ele><time>2026-04-07T08:26:57.659Z</time></trkpt><trkpt lat="44.15305" lon="9.96099"><ele>265.0</ele><time>2026-04-07T08:26:59.659Z</time></trkpt><trkpt lat="44.1529833" lon="9.96087"><ele>264.16666666666663</ele><time>2026-04-07T08:27:01.659Z</time></trkpt><trkpt lat="44.1529317" lon="9.9608083"><ele>263.3333333333333</ele><time>2026-04-07T08:27:02.659Z</time></trkpt><trkpt lat="44.15286" lon="9.960735"><ele>262.5</ele><time>2026-04-07T08:27:03.659Z</time></trkpt><trkpt lat="44.1527917" lon="9.9606683"><ele>261.6666666666667</ele><time>2026-04-07T08:27:04.659Z</time></trkpt><trkpt lat="44.1527283" lon="9.96059"><ele>260.83333333333337</ele><time>2026-04-07T08:27:05.659Z</time></trkpt><trkpt lat="44.1526717" lon="9.960515"><ele>260.0</ele><time>2026-04-07T08:27:06.659Z</time></trkpt><trkpt lat="44.1526283" lon="9.960435"><ele>260.0</ele><time>2026-04-07T08:27:07.659Z</time></trkpt><trkpt lat="44.1525867" lon="9.9603667"><ele>260.0</ele><time>2026-04-07T08:27:08.659Z</time></trkpt><trkpt lat="44.1525317" lon="9.96022"><ele>260.0</ele><time>2026-04-07T08:27:10.659Z</time></trkpt><trkpt lat="44.1524783" lon="9.9600767"><ele>260.0</ele><time>2026-04-07T08:27:12.659Z</time></trkpt><trkpt lat="44.1524017" lon="9.95998"><ele>260.0</ele><time>2026-04-07T08:27:14.659Z</time></trkpt><trkpt lat="44.15233" lon="9.95998"><ele>252.6</ele><time>2026-04-07T08:27:16.659Z</time></trkpt><trkpt lat="44.152255" lon="9.9599183"><ele>245.2</ele><time>2026-04-07T08:27:19.659Z</time></trkpt><trkpt lat="44.1522367" lon="9.9598167"><ele>237.8</ele><time>2026-04-07T08:27:21.659Z</time></trkpt><trkpt lat="44.152215" lon="9.9596433"><ele>230.4</ele><time>2026-04-07T08:27:23.659Z</time></trkpt><trkpt lat="44.1521833" lon="9.9595383"><ele>223.0</ele><time>2026-04-07T08:27:24.66Z</time></trkpt><trkpt lat="44.15215" lon="9.9594317"><ele>222.99999999999997</ele><time>2026-04-07T08:27:25.66Z</time></trkpt><trkpt lat="44.1521167" lon="9.9593317"><ele>223.0</ele><time>2026-04-07T08:27:26.659Z</time></trkpt><trkpt lat="44.152085" lon="9.9592333"><ele>223.0</ele><time>2026-04-07T08:27:27.659Z</time></trkpt><trkpt lat="44.152055" lon="9.9591433"><ele>223.0</ele><time>2026-04-07T08:27:28.659Z</time></trkpt><trkpt lat="44.152005" lon="9.9590033"><ele>222.99999999999997</ele><time>2026-04-07T08:27:30.66Z</time></trkpt><trkpt lat="44.1519467" lon="9.9589317"><ele>223.0</ele><time>2026-04-07T08:27:32.659Z</time></trkpt><trkpt lat="44.15195" lon="9.9588267"><ele>224.66666666666666</ele><time>2026-04-07T08:27:34.659Z</time></trkpt><trkpt lat="44.1520067" lon="9.9587333"><ele>226.33333333333331</ele><time>2026-04-07T08:27:36.659Z</time></trkpt><trkpt lat="44.1521267" lon="9.9586783"><ele>228.0</ele><time>2026-04-07T08:27:38.659Z</time></trkpt><trkpt lat="44.1521983" lon="9.958655"><ele>229.66666666666669</ele><time>2026-04-07T08:27:39.659Z</time></trkpt><trkpt lat="44.1522717" lon="9.9586283"><ele>231.33333333333334</ele><time>2026-04-07T08:27:40.659Z</time></trkpt><trkpt lat="44.152345" lon="9.958595"><ele>233.0</ele><time>2026-04-07T08:27:41.66Z</time></trkpt><trkpt lat="44.1524133" lon="9.95855"><ele>233.16666666666669</ele><time>2026-04-07T08:27:42.659Z</time></trkpt><trkpt lat="44.1524733" lon="9.9584883"><ele>233.33333333333334</ele><time>2026-04-07T08:27:43.659Z</time></trkpt><trkpt lat="44.152525" lon="9.958405"><ele>233.5</ele><time>2026-04-07T08:27:44.659Z</time></trkpt><trkpt lat="44.1525683" lon="9.95831"><ele>233.66666666666669</ele><time>2026-04-07T08:27:45.659Z</time></trkpt><trkpt lat="44.152605" lon="9.958215"><ele>233.83333333333334</ele><time>2026-04-07T08:27:46.659Z</time></trkpt><trkpt lat="44.15265" lon="9.9581317"><ele>234.0</ele><time>2026-04-07T08:27:47.659Z</time></trkpt><trkpt lat="44.1527317" lon="9.9580117"><ele>234.0</ele><time>2026-04-07T08:27:49.659Z</time></trkpt><trkpt lat="44.1528083" lon="9.9579267"><ele>233.99999999999997</ele><time>2026-04-07T08:27:51.659Z</time></trkpt><trkpt lat="44.1528417" lon="9.957835"><ele>233.99999999999997</ele><time>2026-04-07T08:27:53.659Z</time></trkpt><trkpt lat="44.1527667" lon="9.957765"><ele>234.0</ele><time>2026-04-07T08:27:55.659Z</time></trkpt><trkpt lat="44.1526417" lon="9.957805"><ele>234.0</ele><time>2026-04-07T08:27:57.66Z</time></trkpt><trkpt lat="44.1525733" lon="9.9578467"><ele>234.0</ele><time>2026-04-07T08:27:58.659Z</time></trkpt><trkpt lat="44.1525117" lon="9.957925"><ele>234.0</ele><time>2026-04-07T08:27:59.659Z</time></trkpt><trkpt lat="44.1524583" lon="9.958005"><ele>234.0</ele><time>2026-04-07T08:28:00.659Z</time></trkpt><trkpt lat="44.152405" lon="9.9580867"><ele>234.0</ele><time>2026-04-07T08:28:01.659Z</time></trkpt><trkpt lat="44.1523467" lon="9.9581633"><ele>234.0</ele><time>2026-04-07T08:28:02.659Z</time></trkpt><trkpt lat="44.152275" lon="9.9582317"><ele>234.0</ele><time>2026-04-07T08:28:03.659Z</time></trkpt><trkpt lat="44.1521983" lon="9.9582817"><ele>232.83333333333334</ele><time>2026-04-07T08:28:04.66Z</time></trkpt><trkpt lat="44.1521217" lon="9.9583183"><ele>231.66666666666669</ele><time>2026-04-07T08:28:05.659Z</time></trkpt><trkpt lat="44.1520433" lon="9.9583433"><ele>230.5</ele><time>2026-04-07T08:28:06.659Z</time></trkpt><trkpt lat="44.1519667" lon="9.95836"><ele>229.33333333333334</ele><time>2026-04-07T08:28:07.659Z</time></trkpt><trkpt lat="44.1518917" lon="9.9583667"><ele>228.16666666666669</ele><time>2026-04-07T08:28:08.659Z</time></trkpt><trkpt lat="44.15182" lon="9.958365"><ele>227.0</ele><time>2026-04-07T08:28:09.66Z</time></trkpt><trkpt lat="44.1517433" lon="9.9583483"><ele>227.0</ele><time>2026-04-07T08:28:10.659Z</time></trkpt><trkpt lat="44.151675" lon="9.95832"><ele>227.00000000000003</ele><time>2026-04-07T08:28:11.659Z</time></trkpt><trkpt lat="44.1516083" lon="9.95827"><ele>227.0</ele><time>2026-04-07T08:28:12.659Z</time></trkpt><trkpt lat="44.1515517" lon="9.9582133"><ele>227.0</ele><time>2026-04-07T08:28:13.659Z</time></trkpt><trkpt lat="44.151495" lon="9.958145"><ele>227.00000000000003</ele><time>2026-04-07T08:28:14.659Z</time></trkpt><trkpt lat="44.151435" lon="9.9580783"><ele>227.0</ele><time>2026-04-07T08:28:15.659Z</time></trkpt><trkpt lat="44.1513717" lon="9.9580267"><ele>227.0</ele><time>2026-04-07T08:28:16.66Z</time></trkpt><trkpt lat="44.1513033" lon="9.958"><ele>222.83333333333334</ele><time>2026-04-07T08:28:17.659Z</time></trkpt><trkpt lat="44.151235" lon="9.9579917"><ele>218.66666666666669</ele><time>2026-04-07T08:28:18.66Z</time></trkpt><trkpt lat="44.15117" lon="9.958005"><ele>214.5</ele><time>2026-04-07T08:28:19.659Z</time></trkpt><trkpt lat="44.151065" lon="9.958025"><ele>210.33333333333331</ele><time>2026-04-07T08:28:21.659Z</time></trkpt><trkpt lat="44.1510467" lon="9.9579133"><ele>206.16666666666666</ele><time>2026-04-07T08:28:25.659Z</time></trkpt><trkpt lat="44.151155" lon="9.9578383"><ele>202.0</ele><time>2026-04-07T08:28:27.659Z</time></trkpt><trkpt lat="44.15123" lon="9.9578183"><ele>202.0</ele><time>2026-04-07T08:28:28.659Z</time></trkpt><trkpt lat="44.1513133" lon="9.95781"><ele>202.0</ele><time>2026-04-07T08:28:29.659Z</time></trkpt><trkpt lat="44.1513967" lon="9.9578133"><ele>202.0</ele><time>2026-04-07T08:28:30.659Z</time></trkpt><trkpt lat="44.1514833" lon="9.95784"><ele>202.0</ele><time>2026-04-07T08:28:31.659Z</time></trkpt><trkpt lat="44.15158" lon="9.9578883"><ele>202.0</ele><time>2026-04-07T08:28:32.659Z</time></trkpt><trkpt lat="44.15167" lon="9.95794"><ele>206.16666666666666</ele><time>2026-04-07T08:28:33.66Z</time></trkpt><trkpt lat="44.15176" lon="9.957985"><ele>210.33333333333331</ele><time>2026-04-07T08:28:34.659Z</time></trkpt><trkpt lat="44.15184" lon="9.9580067"><ele>214.5</ele><time>2026-04-07T08:28:35.659Z</time></trkpt><trkpt lat="44.151915" lon="9.9580167"><ele>218.66666666666669</ele><time>2026-04-07T08:28:36.659Z</time></trkpt><trkpt lat="44.1519683" lon="9.9579383"><ele>222.83333333333334</ele><time>2026-04-07T08:28:38.659Z</time></trkpt><trkpt lat="44.1519183" lon="9.957845"><ele>227.0</ele><time>2026-04-07T08:28:40.659Z</time></trkpt><trkpt lat="44.151855" lon="9.9578067"><ele>227.0</ele><time>2026-04-07T08:28:41.66Z</time></trkpt><trkpt lat="44.1517783" lon="9.95776"><ele>227.0</ele><time>2026-04-07T08:28:42.66Z</time></trkpt><trkpt lat="44.151695" lon="9.9577033"><ele>227.0</ele><time>2026-04-07T08:28:43.66Z</time></trkpt><trkpt lat="44.1516017" lon="9.9576417"><ele>227.0</ele><time>2026-04-07T08:28:44.659Z</time></trkpt><trkpt lat="44.15151" lon="9.957595"><ele>227.0</ele><time>2026-04-07T08:28:45.659Z</time></trkpt><trkpt lat="44.1514083" lon="9.9575783"><ele>222.0</ele><time>2026-04-07T08:28:46.659Z</time></trkpt><trkpt lat="44.1512983" lon="9.95757"><ele>217.0</ele><time>2026-04-07T08:28:47.659Z</time></trkpt><trkpt lat="44.1511867" lon="9.957565"><ele>212.0</ele><time>2026-04-07T08:28:48.659Z</time></trkpt><trkpt lat="44.1510767" lon="9.95756"><ele>207.0</ele><time>2026-04-07T08:28:49.659Z</time></trkpt><trkpt lat="44.1509633" lon="9.957545"><ele>202.0</ele><time>2026-04-07T08:28:50.659Z</time></trkpt><trkpt lat="44.1508533" lon="9.9575317"><ele>201.83333333333331</ele><time>2026-04-07T08:28:51.659Z</time></trkpt><trkpt lat="44.1507467" lon="9.9575267"><ele>201.66666666666666</ele><time>2026-04-07T08:28:52.659Z</time></trkpt><trkpt lat="44.15066" lon="9.957535"><ele>201.5</ele><time>2026-04-07T08:28:53.659Z</time></trkpt><trkpt lat="44.1505833" lon="9.957545"><ele>201.33333333333331</ele><time>2026-04-07T08:28:54.659Z</time></trkpt><trkpt lat="44.1505133" lon="9.9575433"><ele>201.16666666666666</ele><time>2026-04-07T08:28:55.659Z</time></trkpt><trkpt lat="44.1504317" lon="9.9575"><ele>201.0</ele><time>2026-04-07T08:28:57.659Z</time></trkpt><trkpt lat="44.150465" lon="9.9574017"><ele>201.0</ele><time>2026-04-07T08:28:59.659Z</time></trkpt><trkpt lat="44.15058" lon="9.9573683"><ele>201.0</ele><time>2026-04-07T08:29:01.659Z</time></trkpt><trkpt lat="44.15067" lon="9.9573767"><ele>201.0</ele><time>2026-04-07T08:29:02.659Z</time></trkpt><trkpt lat="44.1507867" lon="9.9573933"><ele>201.0</ele><time>2026-04-07T08:29:03.659Z</time></trkpt><trkpt lat="44.1508933" lon="9.95739"><ele>201.0</ele><time>2026-04-07T08:29:04.659Z</time></trkpt><trkpt lat="44.1509983" lon="9.95737"><ele>201.0</ele><time>2026-04-07T08:29:05.66Z</time></trkpt><trkpt lat="44.1511033" lon="9.9573367"><ele>201.0</ele><time>2026-04-07T08:29:06.659Z</time></trkpt><trkpt lat="44.151205" lon="9.95729"><ele>201.0</ele><time>2026-04-07T08:29:07.66Z</time></trkpt><trkpt lat="44.15131" lon="9.9572483"><ele>201.0</ele><time>2026-04-07T08:29:08.659Z</time></trkpt><trkpt lat="44.151415" lon="9.95721"><ele>201.0</ele><time>2026-04-07T08:29:09.659Z</time></trkpt><trkpt lat="44.1515133" lon="9.9572017"><ele>201.0</ele><time>2026-04-07T08:29:10.659Z</time></trkpt><trkpt lat="44.1515983" lon="9.9572283"><ele>201.0</ele><time>2026-04-07T08:29:11.659Z</time></trkpt><trkpt lat="44.1516783" lon="9.95724"><ele>201.0</ele><time>2026-04-07T08:29:12.659Z</time></trkpt><trkpt lat="44.15176" lon="9.95724"><ele>201.0</ele><time>2026-04-07T08:29:13.659Z</time></trkpt><trkpt lat="44.1518433" lon="9.9572233"><ele>201.0</ele><time>2026-04-07T08:29:14.659Z</time></trkpt><trkpt lat="44.1519133" lon="9.95719"><ele>201.0</ele><time>2026-04-07T08:29:15.659Z</time></trkpt><trkpt lat="44.1519617" lon="9.957125"><ele>201.0</ele><time>2026-04-07T08:29:16.66Z</time></trkpt><trkpt lat="44.151955" lon="9.9570117"><ele>201.0</ele><time>2026-04-07T08:29:17.659Z</time></trkpt><trkpt lat="44.1519483" lon="9.9568733"><ele>201.0</ele><time>2026-04-07T08:29:18.659Z</time></trkpt><trkpt lat="44.1519667" lon="9.9567483"><ele>201.0</ele><time>2026-04-07T08:29:19.659Z</time></trkpt><trkpt lat="44.1520183" lon="9.9566433"><ele>201.0</ele><time>2026-04-07T08:29:20.659Z</time></trkpt><trkpt lat="44.1520733" lon="9.95658"><ele>201.0</ele><time>2026-04-07T08:29:21.659Z</time></trkpt><trkpt lat="44.1521617" lon="9.956495"><ele>196.4</ele><time>2026-04-07T08:29:23.659Z</time></trkpt><trkpt lat="44.1521167" lon="9.956415"><ele>191.8</ele><time>2026-04-07T08:29:26.659Z</time></trkpt><trkpt lat="44.1520233" lon="9.9564633"><ele>187.20000000000002</ele><time>2026-04-07T08:29:28.659Z</time></trkpt><trkpt lat="44.1519417" lon="9.9565383"><ele>182.60000000000002</ele><time>2026-04-07T08:29:29.659Z</time></trkpt><trkpt lat="44.1518667" lon="9.95661"><ele>178.0</ele><time>2026-04-07T08:29:30.659Z</time></trkpt><trkpt lat="44.1517917" lon="9.9566967"><ele>181.83333333333334</ele><time>2026-04-07T08:29:31.66Z</time></trkpt><trkpt lat="44.15174" lon="9.956785"><ele>185.66666666666669</ele><time>2026-04-07T08:29:32.659Z</time></trkpt><trkpt lat="44.1516883" lon="9.956855"><ele>189.5</ele><time>2026-04-07T08:29:33.659Z</time></trkpt><trkpt lat="44.1516317" lon="9.9569233"><ele>193.33333333333334</ele><time>2026-04-07T08:29:34.659Z</time></trkpt><trkpt lat="44.1515683" lon="9.95693"><ele>197.16666666666666</ele><time>2026-04-07T08:29:35.66Z</time></trkpt><trkpt lat="44.1514883" lon="9.9569033"><ele>201.0</ele><time>2026-04-07T08:29:36.659Z</time></trkpt><trkpt lat="44.15141" lon="9.9568483"><ele>201.0</ele><time>2026-04-07T08:29:37.659Z</time></trkpt><trkpt lat="44.1513267" lon="9.9568117"><ele>201.0</ele><time>2026-04-07T08:29:38.659Z</time></trkpt><trkpt lat="44.1512483" lon="9.956805"><ele>201.0</ele><time>2026-04-07T08:29:39.659Z</time></trkpt><trkpt lat="44.1511683" lon="9.956825"><ele>201.0</ele><time>2026-04-07T08:29:40.659Z</time></trkpt><trkpt lat="44.15109" lon="9.9568633"><ele>201.0</ele><time>2026-04-07T08:29:41.66Z</time></trkpt><trkpt lat="44.15101" lon="9.9568767"><ele>201.0</ele><time>2026-04-07T08:29:42.659Z</time></trkpt><trkpt lat="44.1509167" lon="9.95687"><ele>201.0</ele><time>2026-04-07T08:29:43.659Z</time></trkpt><trkpt lat="44.1508233" lon="9.9568317"><ele>201.0</ele><time>2026-04-07T08:29:44.659Z</time></trkpt><trkpt lat="44.1507533" lon="9.95674"><ele>201.0</ele><time>2026-04-07T08:29:45.66Z</time></trkpt><trkpt lat="44.15067" lon="9.95667"><ele>201.0</ele><time>2026-04-07T08:29:46.659Z</time></trkpt><trkpt lat="44.150595" lon="9.95659"><ele>201.0</ele><time>2026-04-07T08:29:47.659Z</time></trkpt><trkpt lat="44.1505233" lon="9.95651"><ele>194.16666666666666</ele><time>2026-04-07T08:29:48.659Z</time></trkpt><trkpt lat="44.1504467" lon="9.9564533"><ele>187.33333333333334</ele><time>2026-04-07T08:29:49.66Z</time></trkpt><trkpt lat="44.1503817" lon="9.9564183"><ele>180.5</ele><time>2026-04-07T08:29:50.659Z</time></trkpt><trkpt lat="44.1503183" lon="9.95641"><ele>173.66666666666669</ele><time>2026-04-07T08:29:51.659Z</time></trkpt><trkpt lat="44.1501883" lon="9.9565"><ele>166.83333333333334</ele><time>2026-04-07T08:29:53.659Z</time></trkpt><trkpt lat="44.150115" lon="9.9565333"><ele>160.0</ele><time>2026-04-07T08:29:54.66Z</time></trkpt><trkpt lat="44.15003" lon="9.9565483"><ele>160.0</ele><time>2026-04-07T08:29:55.659Z</time></trkpt><trkpt lat="44.14995" lon="9.9565833"><ele>160.0</ele><time>2026-04-07T08:29:56.659Z</time></trkpt><trkpt lat="44.14987" lon="9.9566233"><ele>160.0</ele><time>2026-04-07T08:29:57.659Z</time></trkpt><trkpt lat="44.1497983" lon="9.9566767"><ele>160.0</ele><time>2026-04-07T08:29:58.659Z</time></trkpt><trkpt lat="44.1497333" lon="9.9567267"><ele>160.0</ele><time>2026-04-07T08:29:59.659Z</time></trkpt><trkpt lat="44.1496617" lon="9.9567367"><ele>160.0</ele><time>2026-04-07T08:30:01.659Z</time></trkpt><trkpt lat="44.149635" lon="9.9566533"><ele>160.0</ele><time>2026-04-07T08:30:03.659Z</time></trkpt><trkpt lat="44.1497033" lon="9.9565483"><ele>160.0</ele><time>2026-04-07T08:30:05.66Z</time></trkpt><trkpt lat="44.1497683" lon="9.9565033"><ele>160.0</ele><time>2026-04-07T08:30:06.659Z</time></trkpt><trkpt lat="44.1498533" lon="9.9564733"><ele>160.0</ele><time>2026-04-07T08:30:07.659Z</time></trkpt><trkpt lat="44.1499433" lon="9.95644"><ele>160.0</ele><time>2026-04-07T08:30:08.659Z</time></trkpt><trkpt lat="44.15003" lon="9.9564"><ele>160.0</ele><time>2026-04-07T08:30:09.659Z</time></trkpt><trkpt lat="44.1501133" lon="9.9563517"><ele>160.0</ele><time>2026-04-07T08:30:10.659Z</time></trkpt><trkpt lat="44.1501917" lon="9.9562933"><ele>160.0</ele><time>2026-04-07T08:30:11.659Z</time></trkpt><trkpt lat="44.1502683" lon="9.9562283"><ele>160.0</ele><time>2026-04-07T08:30:12.659Z</time></trkpt><trkpt lat="44.1503467" lon="9.9561817"><ele>160.0</ele><time>2026-04-07T08:30:13.659Z</time></trkpt><trkpt lat="44.15042" lon="9.9561517"><ele>160.0</ele><time>2026-04-07T08:30:14.659Z</time></trkpt><trkpt lat="44.1504867" lon="9.95613"><ele>160.0</ele><time>2026-04-07T08:30:15.659Z</time></trkpt><trkpt lat="44.1505533" lon="9.9560683"><ele>160.0</ele><time>2026-04-07T08:30:17.659Z</time></trkpt><trkpt lat="44.1504917" lon="9.9560033"><ele>160.0</ele><time>2026-04-07T08:30:19.659Z</time></trkpt><trkpt lat="44.150395" lon="9.9560067"><ele>160.0</ele><time>2026-04-07T08:30:21.659Z</time></trkpt><trkpt lat="44.1503117" lon="9.9560633"><ele>160.0</ele><time>2026-04-07T08:30:22.659Z</time></trkpt><trkpt lat="44.1502317" lon="9.95611"><ele>160.0</ele><time>2026-04-07T08:30:23.659Z</time></trkpt><trkpt lat="44.1501433" lon="9.9561567"><ele>160.0</ele><time>2026-04-07T08:30:24.659Z</time></trkpt><trkpt lat="44.15005" lon="9.9561983"><ele>160.0</ele><time>2026-04-07T08:30:25.659Z</time></trkpt><trkpt lat="44.1499567" lon="9.9562367"><ele>160.0</ele><time>2026-04-07T08:30:26.659Z</time></trkpt><trkpt lat="44.1498567" lon="9.9562717"><ele>160.0</ele><time>2026-04-07T08:30:27.659Z</time></trkpt><trkpt lat="44.1497533" lon="9.9563083"><ele>160.0</ele><time>2026-04-07T08:30:28.66Z</time></trkpt><trkpt lat="44.1496483" lon="9.9563433"><ele>160.0</ele><time>2026-04-07T08:30:29.659Z</time></trkpt><trkpt lat="44.149545" lon="9.9563767"><ele>155.2</ele><time>2026-04-07T08:30:30.66Z</time></trkpt><trkpt lat="44.1494367" lon="9.9563917"><ele>150.4</ele><time>2026-04-07T08:30:31.659Z</time></trkpt><trkpt lat="44.149325" lon="9.956385"><ele>145.6</ele><time>2026-04-07T08:30:32.66Z</time></trkpt><trkpt lat="44.1492217" lon="9.9563733"><ele>140.8</ele><time>2026-04-07T08:30:33.66Z</time></trkpt><trkpt lat="44.1491217" lon="9.95636"><ele>136.0</ele><time>2026-04-07T08:30:34.659Z</time></trkpt><trkpt lat="44.1490217" lon="9.9563283"><ele>136.0</ele><time>2026-04-07T08:30:35.659Z</time></trkpt><trkpt lat="44.14894" lon="9.9562933"><ele>136.0</ele><time>2026-04-07T08:30:36.659Z</time></trkpt><trkpt lat="44.1488733" lon="9.9562633"><ele>136.0</ele><time>2026-04-07T08:30:37.659Z</time></trkpt><trkpt lat="44.1488433" lon="9.956175"><ele>136.0</ele><time>2026-04-07T08:30:39.66Z</time></trkpt><trkpt lat="44.148895" lon="9.9561133"><ele>136.0</ele><time>2026-04-07T08:30:41.659Z</time></trkpt><trkpt lat="44.149015" lon="9.9561267"><ele>136.0</ele><time>2026-04-07T08:30:43.659Z</time></trkpt><trkpt lat="44.149095" lon="9.956165"><ele>136.0</ele><time>2026-04-07T08:30:44.659Z</time></trkpt><trkpt lat="44.1491817" lon="9.9561933"><ele>136.0</ele><time>2026-04-07T08:30:45.659Z</time></trkpt><trkpt lat="44.14928" lon="9.95621"><ele>136.0</ele><time>2026-04-07T08:30:46.659Z</time></trkpt><trkpt lat="44.1493917" lon="9.95619"><ele>136.0</ele><time>2026-04-07T08:30:47.659Z</time></trkpt><trkpt lat="44.1495017" lon="9.9561333"><ele>136.0</ele><time>2026-04-07T08:30:48.659Z</time></trkpt><trkpt lat="44.1496067" lon="9.9560783"><ele>136.0</ele><time>2026-04-07T08:30:49.659Z</time></trkpt><trkpt lat="44.1497133" lon="9.9560267"><ele>136.0</ele><time>2026-04-07T08:30:50.659Z</time></trkpt><trkpt lat="44.1498167" lon="9.9559617"><ele>136.0</ele><time>2026-04-07T08:30:51.66Z</time></trkpt><trkpt lat="44.1499067" lon="9.9559017"><ele>136.0</ele><time>2026-04-07T08:30:52.659Z</time></trkpt><trkpt lat="44.1499817" lon="9.955835"><ele>136.0</ele><time>2026-04-07T08:30:53.66Z</time></trkpt><trkpt lat="44.1500383" lon="9.9557833"><ele>135.8</ele><time>2026-04-07T08:30:54.659Z</time></trkpt><trkpt lat="44.1501033" lon="9.955675"><ele>135.6</ele><time>2026-04-07T08:30:56.659Z</time></trkpt><trkpt lat="44.1500117" lon="9.9556217"><ele>135.4</ele><time>2026-04-07T08:30:58.659Z</time></trkpt><trkpt lat="44.14993" lon="9.9556433"><ele>135.2</ele><time>2026-04-07T08:31:00.659Z</time></trkpt><trkpt lat="44.1498517" lon="9.9557117"><ele>135.0</ele><time>2026-04-07T08:31:01.658Z</time></trkpt><trkpt lat="44.14976" lon="9.9558033"><ele>135.2</ele><time>2026-04-07T08:31:02.658Z</time></trkpt><trkpt lat="44.1496733" lon="9.9558683"><ele>135.4</ele><time>2026-04-07T08:31:03.658Z</time></trkpt><trkpt lat="44.1495867" lon="9.9559333"><ele>135.6</ele><time>2026-04-07T08:31:04.659Z</time></trkpt><trkpt lat="44.14949" lon="9.9559783"><ele>135.8</ele><time>2026-04-07T08:31:05.658Z</time></trkpt><trkpt lat="44.1493783" lon="9.9559883"><ele>136.0</ele><time>2026-04-07T08:31:06.658Z</time></trkpt><trkpt lat="44.149275" lon="9.9559717"><ele>136.0</ele><time>2026-04-07T08:31:07.658Z</time></trkpt><trkpt lat="44.149175" lon="9.9559317"><ele>136.0</ele><time>2026-04-07T08:31:08.658Z</time></trkpt><trkpt lat="44.1490833" lon="9.955865"><ele>136.0</ele><time>2026-04-07T08:31:09.659Z</time></trkpt><trkpt lat="44.1489967" lon="9.9557817"><ele>136.0</ele><time>2026-04-07T08:31:10.658Z</time></trkpt><trkpt lat="44.1489233" lon="9.9556883"><ele>136.0</ele><time>2026-04-07T08:31:11.658Z</time></trkpt><trkpt lat="44.1488383" lon="9.955625"><ele>131.6</ele><time>2026-04-07T08:31:12.658Z</time></trkpt><trkpt lat="44.1487533" lon="9.9555967"><ele>127.19999999999999</ele><time>2026-04-07T08:31:13.658Z</time></trkpt><trkpt lat="44.148665" lon="9.95558"><ele>122.80000000000001</ele><time>2026-04-07T08:31:14.658Z</time></trkpt><trkpt lat="44.1485683" lon="9.9555733"><ele>118.4</ele><time>2026-04-07T08:31:15.658Z</time></trkpt><trkpt lat="44.1484583" lon="9.9555583"><ele>114.0</ele><time>2026-04-07T08:31:16.658Z</time></trkpt><trkpt lat="44.14834" lon="9.9555367"><ele>114.0</ele><time>2026-04-07T08:31:17.658Z</time></trkpt><trkpt lat="44.148225" lon="9.9555333"><ele>114.0</ele><time>2026-04-07T08:31:18.658Z</time></trkpt><trkpt lat="44.1481067" lon="9.9555317"><ele>114.0</ele><time>2026-04-07T08:31:19.658Z</time></trkpt><trkpt lat="44.147985" lon="9.955535"><ele>114.0</ele><time>2026-04-07T08:31:20.658Z</time></trkpt><trkpt lat="44.1478567" lon="9.9555283"><ele>113.0</ele><time>2026-04-07T08:31:21.658Z</time></trkpt><trkpt lat="44.147725" lon="9.9555233"><ele>112.0</ele><time>2026-04-07T08:31:22.658Z</time></trkpt><trkpt lat="44.1475917" lon="9.9555117"><ele>111.0</ele><time>2026-04-07T08:31:23.658Z</time></trkpt><trkpt lat="44.147455" lon="9.9555"><ele>110.0</ele><time>2026-04-07T08:31:24.659Z</time></trkpt><trkpt lat="44.1473183" lon="9.9554883"><ele>110.0</ele><time>2026-04-07T08:31:25.658Z</time></trkpt><trkpt lat="44.1471817" lon="9.9554833"><ele>110.0</ele><time>2026-04-07T08:31:26.658Z</time></trkpt><trkpt lat="44.1470467" lon="9.955475"><ele>110.0</ele><time>2026-04-07T08:31:27.658Z</time></trkpt><trkpt lat="44.1469117" lon="9.9554667"><ele>110.0</ele><time>2026-04-07T08:31:28.658Z</time></trkpt><trkpt lat="44.1467733" lon="9.955455"><ele>110.0</ele><time>2026-04-07T08:31:29.658Z</time></trkpt><trkpt lat="44.146635" lon="9.9554417"><ele>110.0</ele><time>2026-04-07T08:31:30.658Z</time></trkpt><trkpt lat="44.1465" lon="9.9554167"><ele>110.0</ele><time>2026-04-07T08:31:31.658Z</time></trkpt><trkpt lat="44.14636" lon="9.9553617"><ele>110.0</ele><time>2026-04-07T08:31:32.658Z</time></trkpt><trkpt lat="44.1462217" lon="9.955295"><ele>109.25</ele><time>2026-04-07T08:31:33.658Z</time></trkpt><trkpt lat="44.1460883" lon="9.9552217"><ele>108.5</ele><time>2026-04-07T08:31:34.658Z</time></trkpt><trkpt lat="44.14595" lon="9.955145"><ele>107.75</ele><time>2026-04-07T08:31:35.658Z</time></trkpt><trkpt lat="44.1458133" lon="9.9550667"><ele>107.0</ele><time>2026-04-07T08:31:36.658Z</time></trkpt><trkpt lat="44.1456733" lon="9.95499"><ele>107.0</ele><time>2026-04-07T08:31:37.658Z</time></trkpt><trkpt lat="44.1455317" lon="9.954915"><ele>107.0</ele><time>2026-04-07T08:31:38.659Z</time></trkpt><trkpt lat="44.1453883" lon="9.9548367"><ele>107.0</ele><time>2026-04-07T08:31:39.658Z</time></trkpt><trkpt lat="44.1452433" lon="9.9547533"><ele>107.0</ele><time>2026-04-07T08:31:40.658Z</time></trkpt><trkpt lat="44.1450983" lon="9.95467"><ele>107.0</ele><time>2026-04-07T08:31:41.658Z</time></trkpt><trkpt lat="44.1449533" lon="9.9545883"><ele>107.0</ele><time>2026-04-07T08:31:42.658Z</time></trkpt><trkpt lat="44.144805" lon="9.95451"><ele>110.66666666666666</ele><time>2026-04-07T08:31:43.658Z</time></trkpt><trkpt lat="44.1446583" lon="9.9544367"><ele>114.33333333333334</ele><time>2026-04-07T08:31:44.658Z</time></trkpt><trkpt lat="44.144515" lon="9.9543633"><ele>118.0</ele><time>2026-04-07T08:31:45.658Z</time></trkpt><trkpt lat="44.14437" lon="9.9542867"><ele>118.0</ele><time>2026-04-07T08:31:46.658Z</time></trkpt><trkpt lat="44.1442267" lon="9.9542083"><ele>118.0</ele><time>2026-04-07T08:31:47.658Z</time></trkpt><trkpt lat="44.1440833" lon="9.9541317"><ele>118.0</ele><time>2026-04-07T08:31:48.658Z</time></trkpt><trkpt lat="44.143945" lon="9.9540567"><ele>112.75</ele><time>2026-04-07T08:31:49.658Z</time></trkpt><trkpt lat="44.143805" lon="9.95398"><ele>107.5</ele><time>2026-04-07T08:31:50.658Z</time></trkpt><trkpt lat="44.1436683" lon="9.9539"><ele>102.25</ele><time>2026-04-07T08:31:51.658Z</time></trkpt><trkpt lat="44.143535" lon="9.953815"><ele>97.0</ele><time>2026-04-07T08:31:52.658Z</time></trkpt><trkpt lat="44.1434067" lon="9.9537217"><ele>97.0</ele><time>2026-04-07T08:31:53.658Z</time></trkpt><trkpt lat="44.14328" lon="9.9536267"><ele>97.0</ele><time>2026-04-07T08:31:54.658Z</time></trkpt><trkpt lat="44.1431517" lon="9.953535"><ele>97.0</ele><time>2026-04-07T08:31:55.658Z</time></trkpt><trkpt lat="44.1430283" lon="9.9534433"><ele>97.0</ele><time>2026-04-07T08:31:56.658Z</time></trkpt><trkpt lat="44.142905" lon="9.9533567"><ele>95.25</ele><time>2026-04-07T08:31:57.658Z</time></trkpt><trkpt lat="44.1427817" lon="9.95327"><ele>93.5</ele><time>2026-04-07T08:31:58.658Z</time></trkpt><trkpt lat="44.1426567" lon="9.9531833"><ele>91.75</ele><time>2026-04-07T08:31:59.658Z</time></trkpt><trkpt lat="44.1425367" lon="9.9531017"><ele>90.0</ele><time>2026-04-07T08:32:00.659Z</time></trkpt><trkpt lat="44.1424183" lon="9.9530183"><ele>90.75</ele><time>2026-04-07T08:32:01.658Z</time></trkpt><trkpt lat="44.1423" lon="9.9529383"><ele>91.5</ele><time>2026-04-07T08:32:02.658Z</time></trkpt><trkpt lat="44.1421833" lon="9.95286"><ele>92.25</ele><time>2026-04-07T08:32:03.658Z</time></trkpt><trkpt lat="44.1420667" lon="9.9527867"><ele>93.0</ele><time>2026-04-07T08:32:04.658Z</time></trkpt><trkpt lat="44.1419567" lon="9.9527083"><ele>93.0</ele><time>2026-04-07T08:32:05.658Z</time></trkpt><trkpt lat="44.141845" lon="9.9526267"><ele>93.0</ele><time>2026-04-07T08:32:06.658Z</time></trkpt><trkpt lat="44.1417333" lon="9.9525467"><ele>93.0</ele><time>2026-04-07T08:32:07.659Z</time></trkpt><trkpt lat="44.1416167" lon="9.95248"><ele>93.0</ele><time>2026-04-07T08:32:08.658Z</time></trkpt><trkpt lat="44.141495" lon="9.952425"><ele>89.0</ele><time>2026-04-07T08:32:09.658Z</time></trkpt><trkpt lat="44.141365" lon="9.952385"><ele>85.0</ele><time>2026-04-07T08:32:10.658Z</time></trkpt><trkpt lat="44.1412317" lon="9.9523533"><ele>81.0</ele><time>2026-04-07T08:32:11.658Z</time></trkpt><trkpt lat="44.1410983" lon="9.95232"><ele>77.0</ele><time>2026-04-07T08:32:12.658Z</time></trkpt><trkpt lat="44.1409667" lon="9.95229"><ele>77.0</ele><time>2026-04-07T08:32:13.658Z</time></trkpt><trkpt lat="44.1408317" lon="9.9522567"><ele>77.0</ele><time>2026-04-07T08:32:14.658Z</time></trkpt><trkpt lat="44.140695" lon="9.9522267"><ele>77.0</ele><time>2026-04-07T08:32:15.658Z</time></trkpt><trkpt lat="44.14056" lon="9.9521933"><ele>77.0</ele><time>2026-04-07T08:32:16.659Z</time></trkpt><trkpt lat="44.140425" lon="9.9521633"><ele>77.75</ele><time>2026-04-07T08:32:17.658Z</time></trkpt><trkpt lat="44.1402933" lon="9.95213"><ele>78.5</ele><time>2026-04-07T08:32:18.658Z</time></trkpt><trkpt lat="44.1401633" lon="9.9521033"><ele>79.25</ele><time>2026-04-07T08:32:19.658Z</time></trkpt><trkpt lat="44.14003" lon="9.9520767"><ele>80.0</ele><time>2026-04-07T08:32:20.658Z</time></trkpt><trkpt lat="44.139895" lon="9.9520467"><ele>79.0</ele><time>2026-04-07T08:32:21.658Z</time></trkpt><trkpt lat="44.1397567" lon="9.952015"><ele>78.0</ele><time>2026-04-07T08:32:22.658Z</time></trkpt><trkpt lat="44.1396167" lon="9.951985"><ele>77.0</ele><time>2026-04-07T08:32:23.658Z</time></trkpt><trkpt lat="44.139475" lon="9.9519567"><ele>76.0</ele><time>2026-04-07T08:32:24.658Z</time></trkpt><trkpt lat="44.1393317" lon="9.9519267"><ele>76.0</ele><time>2026-04-07T08:32:25.658Z</time></trkpt><trkpt lat="44.1391883" lon="9.9518833"><ele>76.0</ele><time>2026-04-07T08:32:26.658Z</time></trkpt><trkpt lat="44.1390417" lon="9.9518517"><ele>76.0</ele><time>2026-04-07T08:32:27.658Z</time></trkpt><trkpt lat="44.1389017" lon="9.9518133"><ele>76.0</ele><time>2026-04-07T08:32:28.659Z</time></trkpt><trkpt lat="44.1387617" lon="9.9517867"><ele>75.5</ele><time>2026-04-07T08:32:29.658Z</time></trkpt><trkpt lat="44.1386267" lon="9.9517567"><ele>75.0</ele><time>2026-04-07T08:32:30.658Z</time></trkpt><trkpt lat="44.1385" lon="9.9517317"><ele>74.5</ele><time>2026-04-07T08:32:31.658Z</time></trkpt><trkpt lat="44.13839" lon="9.9517083"><ele>74.0</ele><time>2026-04-07T08:32:32.658Z</time></trkpt><trkpt lat="44.1382917" lon="9.9516933"><ele>71.4</ele><time>2026-04-07T08:32:33.659Z</time></trkpt><trkpt lat="44.1381983" lon="9.9516833"><ele>68.80000000000001</ele><time>2026-04-07T08:32:34.658Z</time></trkpt><trkpt lat="44.1381033" lon="9.95168"><ele>66.19999999999999</ele><time>2026-04-07T08:32:35.658Z</time></trkpt><trkpt lat="44.1379983" lon="9.9516817"><ele>63.599999999999994</ele><time>2026-04-07T08:32:36.658Z</time></trkpt><trkpt lat="44.1378883" lon="9.95168"><ele>61.0</ele><time>2026-04-07T08:32:37.658Z</time></trkpt><trkpt lat="44.137775" lon="9.9516817"><ele>61.0</ele><time>2026-04-07T08:32:38.658Z</time></trkpt><trkpt lat="44.1376583" lon="9.95168"><ele>61.0</ele><time>2026-04-07T08:32:39.658Z</time></trkpt><trkpt lat="44.13754" lon="9.9516833"><ele>61.0</ele><time>2026-04-07T08:32:40.658Z</time></trkpt><trkpt lat="44.1374217" lon="9.9516917"><ele>61.0</ele><time>2026-04-07T08:32:41.659Z</time></trkpt><trkpt lat="44.1373" lon="9.951695"><ele>60.5</ele><time>2026-04-07T08:32:42.658Z</time></trkpt><trkpt lat="44.1371817" lon="9.951695"><ele>60.0</ele><time>2026-04-07T08:32:43.658Z</time></trkpt><trkpt lat="44.137065" lon="9.9516933"><ele>59.5</ele><time>2026-04-07T08:32:44.658Z</time></trkpt><trkpt lat="44.1369467" lon="9.951685"><ele>59.0</ele><time>2026-04-07T08:32:45.658Z</time></trkpt><trkpt lat="44.136825" lon="9.9516717"><ele>59.0</ele><time>2026-04-07T08:32:46.658Z</time></trkpt><trkpt lat="44.1367083" lon="9.9516567"><ele>59.00000000000001</ele><time>2026-04-07T08:32:47.658Z</time></trkpt><trkpt lat="44.1365933" lon="9.9516333"><ele>59.00000000000001</ele><time>2026-04-07T08:32:48.659Z</time></trkpt><trkpt lat="44.1364933" lon="9.9516083"><ele>59.0</ele><time>2026-04-07T08:32:49.658Z</time></trkpt><trkpt lat="44.1364033" lon="9.9515833"><ele>59.0</ele><time>2026-04-07T08:32:50.658Z</time></trkpt><trkpt lat="44.1363167" lon="9.9515567"><ele>58.800000000000004</ele><time>2026-04-07T08:32:51.658Z</time></trkpt><trkpt lat="44.1362283" lon="9.9515233"><ele>58.60000000000001</ele><time>2026-04-07T08:32:52.658Z</time></trkpt><trkpt lat="44.1361333" lon="9.9514833"><ele>58.4</ele><time>2026-04-07T08:32:53.658Z</time></trkpt><trkpt lat="44.13603" lon="9.95144"><ele>58.2</ele><time>2026-04-07T08:32:54.659Z</time></trkpt><trkpt lat="44.135915" lon="9.951395"><ele>58.0</ele><time>2026-04-07T08:32:55.658Z</time></trkpt><trkpt lat="44.1357917" lon="9.9513417"><ele>57.5</ele><time>2026-04-07T08:32:56.658Z</time></trkpt><trkpt lat="44.135665" lon="9.9512917"><ele>57.0</ele><time>2026-04-07T08:32:57.658Z</time></trkpt><trkpt lat="44.1355317" lon="9.951235"><ele>56.5</ele><time>2026-04-07T08:32:58.659Z</time></trkpt><trkpt lat="44.135395" lon="9.951175"><ele>56.0</ele><time>2026-04-07T08:32:59.658Z</time></trkpt><trkpt lat="44.1352533" lon="9.951115"><ele>56.0</ele><time>2026-04-07T08:33:00.658Z</time></trkpt><trkpt lat="44.1351133" lon="9.9510517"><ele>56.0</ele><time>2026-04-07T08:33:01.658Z</time></trkpt><trkpt lat="44.134975" lon="9.9509867"><ele>56.0</ele><time>2026-04-07T08:33:02.658Z</time></trkpt><trkpt lat="44.1348367" lon="9.950925"><ele>56.0</ele><time>2026-04-07T08:33:03.659Z</time></trkpt><trkpt lat="44.1346967" lon="9.9508633"><ele>55.0</ele><time>2026-04-07T08:33:04.658Z</time></trkpt><trkpt lat="44.13456" lon="9.9508"><ele>54.0</ele><time>2026-04-07T08:33:05.658Z</time></trkpt><trkpt lat="44.13442" lon="9.9507367"><ele>53.0</ele><time>2026-04-07T08:33:06.658Z</time></trkpt><trkpt lat="44.1342783" lon="9.95068"><ele>52.0</ele><time>2026-04-07T08:33:07.658Z</time></trkpt><trkpt lat="44.1341383" lon="9.9506283"><ele>51.25</ele><time>2026-04-07T08:33:08.658Z</time></trkpt><trkpt lat="44.13399" lon="9.9505817"><ele>50.5</ele><time>2026-04-07T08:33:09.658Z</time></trkpt><trkpt lat="44.1338467" lon="9.95054"><ele>49.75</ele><time>2026-04-07T08:33:10.658Z</time></trkpt><trkpt lat="44.1337017" lon="9.9505017"><ele>49.0</ele><time>2026-04-07T08:33:11.659Z</time></trkpt><trkpt lat="44.1335567" lon="9.9504633"><ele>49.0</ele><time>2026-04-07T08:33:12.659Z</time></trkpt><trkpt lat="44.1334117" lon="9.950425"><ele>49.0</ele><time>2026-04-07T08:33:13.659Z</time></trkpt><trkpt lat="44.1332683" lon="9.9503917"><ele>49.0</ele><time>2026-04-07T08:33:14.658Z</time></trkpt><trkpt lat="44.133125" lon="9.9503583"><ele>49.0</ele><time>2026-04-07T08:33:15.658Z</time></trkpt><trkpt lat="44.132985" lon="9.9503317"><ele>48.5</ele><time>2026-04-07T08:33:16.659Z</time></trkpt><trkpt lat="44.1328417" lon="9.950295"><ele>48.0</ele><time>2026-04-07T08:33:17.658Z</time></trkpt><trkpt lat="44.1327033" lon="9.950265"><ele>47.5</ele><time>2026-04-07T08:33:18.658Z</time></trkpt><trkpt lat="44.1325633" lon="9.9502317"><ele>47.0</ele><time>2026-04-07T08:33:19.658Z</time></trkpt><trkpt lat="44.132425" lon="9.9501917"><ele>47.0</ele><time>2026-04-07T08:33:20.658Z</time></trkpt><trkpt lat="44.132285" lon="9.9501533"><ele>47.0</ele><time>2026-04-07T08:33:21.658Z</time></trkpt><trkpt lat="44.1321467" lon="9.95012"><ele>47.0</ele><time>2026-04-07T08:33:22.658Z</time></trkpt><trkpt lat="44.13201" lon="9.950085"><ele>47.0</ele><time>2026-04-07T08:33:23.658Z</time></trkpt><trkpt lat="44.1318717" lon="9.9500567"><ele>46.25</ele><time>2026-04-07T08:33:24.658Z</time></trkpt><trkpt lat="44.1317367" lon="9.9500167"><ele>45.5</ele><time>2026-04-07T08:33:25.658Z</time></trkpt><trkpt lat="44.1315967" lon="9.9499833"><ele>44.75</ele><time>2026-04-07T08:33:26.658Z</time></trkpt><trkpt lat="44.1314617" lon="9.9499483"><ele>44.0</ele><time>2026-04-07T08:33:27.658Z</time></trkpt><trkpt lat="44.1313267" lon="9.9499233"><ele>44.0</ele><time>2026-04-07T08:33:28.658Z</time></trkpt><trkpt lat="44.131195" lon="9.9499067"><ele>44.0</ele><time>2026-04-07T08:33:29.658Z</time></trkpt><trkpt lat="44.13106" lon="9.9499133"><ele>44.0</ele><time>2026-04-07T08:33:30.658Z</time></trkpt><trkpt lat="44.1309267" lon="9.949935"><ele>44.0</ele><time>2026-04-07T08:33:31.659Z</time></trkpt><trkpt lat="44.1307933" lon="9.94997"><ele>43.5</ele><time>2026-04-07T08:33:32.658Z</time></trkpt><trkpt lat="44.1306617" lon="9.950015"><ele>43.0</ele><time>2026-04-07T08:33:33.658Z</time></trkpt><trkpt lat="44.13053" lon="9.950065"><ele>42.5</ele><time>2026-04-07T08:33:34.658Z</time></trkpt><trkpt lat="44.1304033" lon="9.9501167"><ele>42.0</ele><time>2026-04-07T08:33:35.658Z</time></trkpt><trkpt lat="44.130275" lon="9.9501683"><ele>42.0</ele><time>2026-04-07T08:33:36.658Z</time></trkpt><trkpt lat="44.130145" lon="9.9502233"><ele>42.0</ele><time>2026-04-07T08:33:37.658Z</time></trkpt><trkpt lat="44.130015" lon="9.9502683"><ele>42.0</ele><time>2026-04-07T08:33:38.658Z</time></trkpt><trkpt lat="44.1298833" lon="9.9502917"><ele>42.0</ele><time>2026-04-07T08:33:39.658Z</time></trkpt><trkpt lat="44.1297533" lon="9.9502917"><ele>41.25</ele><time>2026-04-07T08:33:40.658Z</time></trkpt><trkpt lat="44.1296233" lon="9.9502883"><ele>40.5</ele><time>2026-04-07T08:33:41.659Z</time></trkpt><trkpt lat="44.1294933" lon="9.95029"><ele>39.75</ele><time>2026-04-07T08:33:42.658Z</time></trkpt><trkpt lat="44.1293633" lon="9.95029"><ele>39.0</ele><time>2026-04-07T08:33:43.658Z</time></trkpt><trkpt lat="44.1292367" lon="9.9502917"><ele>39.0</ele><time>2026-04-07T08:33:44.658Z</time></trkpt><trkpt lat="44.1291183" lon="9.9503083"><ele>39.0</ele><time>2026-04-07T08:33:45.658Z</time></trkpt><trkpt lat="44.1290017" lon="9.9503283"><ele>39.0</ele><time>2026-04-07T08:33:46.658Z</time></trkpt><trkpt lat="44.12889" lon="9.9503733"><ele>39.0</ele><time>2026-04-07T08:33:47.659Z</time></trkpt><trkpt lat="44.128775" lon="9.9504333"><ele>38.5</ele><time>2026-04-07T08:33:48.658Z</time></trkpt><trkpt lat="44.1286633" lon="9.9504983"><ele>38.0</ele><time>2026-04-07T08:33:49.658Z</time></trkpt><trkpt lat="44.12855" lon="9.9505667"><ele>37.5</ele><time>2026-04-07T08:33:50.658Z</time></trkpt><trkpt lat="44.1284267" lon="9.950635"><ele>37.0</ele><time>2026-04-07T08:33:51.659Z</time></trkpt><trkpt lat="44.128305" lon="9.9507033"><ele>37.0</ele><time>2026-04-07T08:33:52.658Z</time></trkpt><trkpt lat="44.1281817" lon="9.9507667"><ele>37.0</ele><time>2026-04-07T08:33:53.658Z</time></trkpt><trkpt lat="44.1280567" lon="9.9508217"><ele>37.0</ele><time>2026-04-07T08:33:54.658Z</time></trkpt><trkpt lat="44.1279283" lon="9.9508617"><ele>37.0</ele><time>2026-04-07T08:33:55.658Z</time></trkpt><trkpt lat="44.1278017" lon="9.950895"><ele>37.0</ele><time>2026-04-07T08:33:56.658Z</time></trkpt><trkpt lat="44.1276767" lon="9.9509333"><ele>37.0</ele><time>2026-04-07T08:33:57.658Z</time></trkpt><trkpt lat="44.1275467" lon="9.9509717"><ele>37.0</ele><time>2026-04-07T08:33:58.658Z</time></trkpt><trkpt lat="44.1274167" lon="9.9510033"><ele>37.0</ele><time>2026-04-07T08:33:59.658Z</time></trkpt><trkpt lat="44.1272883" lon="9.9510283"><ele>36.25</ele><time>2026-04-07T08:34:00.658Z</time></trkpt><trkpt lat="44.127165" lon="9.9510483"><ele>35.5</ele><time>2026-04-07T08:34:01.658Z</time></trkpt><trkpt lat="44.12705" lon="9.9510683"><ele>34.75</ele><time>2026-04-07T08:34:02.659Z</time></trkpt><trkpt lat="44.1269417" lon="9.951095"><ele>34.0</ele><time>2026-04-07T08:34:03.659Z</time></trkpt><trkpt lat="44.1268333" lon="9.9511433"><ele>34.0</ele><time>2026-04-07T08:34:04.658Z</time></trkpt><trkpt lat="44.1267283" lon="9.9512"><ele>34.0</ele><time>2026-04-07T08:34:05.658Z</time></trkpt><trkpt lat="44.126625" lon="9.9512633"><ele>34.0</ele><time>2026-04-07T08:34:06.658Z</time></trkpt><trkpt lat="44.1265267" lon="9.951335"><ele>34.0</ele><time>2026-04-07T08:34:07.658Z</time></trkpt><trkpt lat="44.126435" lon="9.9514183"><ele>34.0</ele><time>2026-04-07T08:34:08.658Z</time></trkpt><trkpt lat="44.1263533" lon="9.951515"><ele>33.8</ele><time>2026-04-07T08:34:09.658Z</time></trkpt><trkpt lat="44.1262717" lon="9.9516083"><ele>33.599999999999994</ele><time>2026-04-07T08:34:10.658Z</time></trkpt><trkpt lat="44.1261867" lon="9.9517083"><ele>33.4</ele><time>2026-04-07T08:34:11.658Z</time></trkpt><trkpt lat="44.1261033" lon="9.951805"><ele>33.199999999999996</ele><time>2026-04-07T08:34:12.658Z</time></trkpt><trkpt lat="44.126015" lon="9.9518967"><ele>33.0</ele><time>2026-04-07T08:34:13.658Z</time></trkpt><trkpt lat="44.1259217" lon="9.9519833"><ele>32.75</ele><time>2026-04-07T08:34:14.659Z</time></trkpt><trkpt lat="44.1258317" lon="9.9520667"><ele>32.5</ele><time>2026-04-07T08:34:15.658Z</time></trkpt><trkpt lat="44.12573" lon="9.95214"><ele>32.25</ele><time>2026-04-07T08:34:16.658Z</time></trkpt><trkpt lat="44.1256217" lon="9.95221"><ele>32.0</ele><time>2026-04-07T08:34:17.658Z</time></trkpt><trkpt lat="44.125505" lon="9.9522717"><ele>32.0</ele><time>2026-04-07T08:34:18.659Z</time></trkpt><trkpt lat="44.1253867" lon="9.95232"><ele>32.0</ele><time>2026-04-07T08:34:19.659Z</time></trkpt><trkpt lat="44.125265" lon="9.9523567"><ele>32.0</ele><time>2026-04-07T08:34:20.659Z</time></trkpt><trkpt lat="44.1251317" lon="9.9523783"><ele>32.0</ele><time>2026-04-07T08:34:21.658Z</time></trkpt><trkpt lat="44.1249933" lon="9.9523917"><ele>31.5</ele><time>2026-04-07T08:34:22.658Z</time></trkpt><trkpt lat="44.1248617" lon="9.9524033"><ele>31.0</ele><time>2026-04-07T08:34:23.658Z</time></trkpt><trkpt lat="44.1247283" lon="9.9524117"><ele>30.5</ele><time>2026-04-07T08:34:24.658Z</time></trkpt><trkpt lat="44.1245933" lon="9.95242"><ele>30.0</ele><time>2026-04-07T08:34:25.658Z</time></trkpt><trkpt lat="44.12446" lon="9.9524233"><ele>30.0</ele><time>2026-04-07T08:34:26.658Z</time></trkpt><trkpt lat="44.1243233" lon="9.95242"><ele>30.0</ele><time>2026-04-07T08:34:27.658Z</time></trkpt><trkpt lat="44.1241883" lon="9.9524133"><ele>30.0</ele><time>2026-04-07T08:34:28.658Z</time></trkpt><trkpt lat="44.1240567" lon="9.95241"><ele>30.0</ele><time>2026-04-07T08:34:29.658Z</time></trkpt><trkpt lat="44.1239233" lon="9.9524067"><ele>29.6</ele><time>2026-04-07T08:34:30.658Z</time></trkpt><trkpt lat="44.123795" lon="9.9524083"><ele>29.2</ele><time>2026-04-07T08:34:31.658Z</time></trkpt><trkpt lat="44.123685" lon="9.9524117"><ele>28.799999999999997</ele><time>2026-04-07T08:34:32.658Z</time></trkpt><trkpt lat="44.1236067" lon="9.95241"><ele>28.4</ele><time>2026-04-07T08:34:33.658Z</time></trkpt><trkpt lat="44.1234967" lon="9.9523933"><ele>28.0</ele><time>2026-04-07T08:34:35.658Z</time></trkpt><trkpt lat="44.1234483" lon="9.9523333"><ele>28.000000000000004</ele><time>2026-04-07T08:34:37.658Z</time></trkpt><trkpt lat="44.1234567" lon="9.952225"><ele>28.0</ele><time>2026-04-07T08:34:39.658Z</time></trkpt><trkpt lat="44.1234833" lon="9.9521267"><ele>28.0</ele><time>2026-04-07T08:34:40.658Z</time></trkpt><trkpt lat="44.12351" lon="9.9520183"><ele>28.0</ele><time>2026-04-07T08:34:41.658Z</time></trkpt><trkpt lat="44.1235317" lon="9.9519117"><ele>28.000000000000004</ele><time>2026-04-07T08:34:42.659Z</time></trkpt><trkpt lat="44.1235583" lon="9.9517933"><ele>28.0</ele><time>2026-04-07T08:34:43.658Z</time></trkpt><trkpt lat="44.1235767" lon="9.9516767"><ele>27.833333333333336</ele><time>2026-04-07T08:34:44.658Z</time></trkpt><trkpt lat="44.1235967" lon="9.9515667"><ele>27.666666666666668</ele><time>2026-04-07T08:34:45.658Z</time></trkpt><trkpt lat="44.1235967" lon="9.951465"><ele>27.5</ele><time>2026-04-07T08:34:46.659Z</time></trkpt><trkpt lat="44.1235883" lon="9.951365"><ele>27.333333333333336</ele><time>2026-04-07T08:34:47.658Z</time></trkpt><trkpt lat="44.1235283" lon="9.9513067"><ele>27.166666666666668</ele><time>2026-04-07T08:34:48.658Z</time></trkpt><trkpt lat="44.1234583" lon="9.9512717"><ele>27.0</ele><time>2026-04-07T08:34:49.658Z</time></trkpt><trkpt lat="44.1233767" lon="9.95126"><ele>27.0</ele><time>2026-04-07T08:34:50.658Z</time></trkpt><trkpt lat="44.12329" lon="9.951265"><ele>27.0</ele><time>2026-04-07T08:34:51.658Z</time></trkpt><trkpt lat="44.1232117" lon="9.951245"><ele>27.0</ele><time>2026-04-07T08:34:52.659Z</time></trkpt><trkpt lat="44.1231383" lon="9.9512117"><ele>27.0</ele><time>2026-04-07T08:34:53.658Z</time></trkpt><trkpt lat="44.1230683" lon="9.95117"><ele>27.0</ele><time>2026-04-07T08:34:54.658Z</time></trkpt><trkpt lat="44.1230083" lon="9.9511217"><ele>27.0</ele><time>2026-04-07T08:34:55.658Z</time></trkpt><trkpt lat="44.122905" lon="9.9510617"><ele>26.833333333333332</ele><time>2026-04-07T08:34:57.659Z</time></trkpt><trkpt lat="44.1228067" lon="9.9511367"><ele>26.666666666666664</ele><time>2026-04-07T08:34:59.658Z</time></trkpt><trkpt lat="44.1227517" lon="9.9511867"><ele>26.5</ele><time>2026-04-07T08:35:00.659Z</time></trkpt><trkpt lat="44.1226833" lon="9.9512267"><ele>26.333333333333332</ele><time>2026-04-07T08:35:01.658Z</time></trkpt><trkpt lat="44.122605" lon="9.95124"><ele>26.166666666666664</ele><time>2026-04-07T08:35:02.658Z</time></trkpt><trkpt lat="44.1225133" lon="9.9512333"><ele>26.0</ele><time>2026-04-07T08:35:03.658Z</time></trkpt><trkpt lat="44.122415" lon="9.9512017"><ele>25.6</ele><time>2026-04-07T08:35:04.658Z</time></trkpt><trkpt lat="44.1223183" lon="9.9511617"><ele>25.200000000000003</ele><time>2026-04-07T08:35:05.659Z</time></trkpt><trkpt lat="44.1222233" lon="9.9511133"><ele>24.799999999999997</ele><time>2026-04-07T08:35:06.658Z</time></trkpt><trkpt lat="44.1221283" lon="9.9510617"><ele>24.4</ele><time>2026-04-07T08:35:07.658Z</time></trkpt><trkpt lat="44.122035" lon="9.9510083"><ele>24.0</ele><time>2026-04-07T08:35:08.658Z</time></trkpt><trkpt lat="44.1219417" lon="9.9509517"><ele>24.0</ele><time>2026-04-07T08:35:09.658Z</time></trkpt><trkpt lat="44.1218517" lon="9.9508867"><ele>24.0</ele><time>2026-04-07T08:35:10.659Z</time></trkpt><trkpt lat="44.1217633" lon="9.9508233"><ele>24.0</ele><time>2026-04-07T08:35:11.658Z</time></trkpt><trkpt lat="44.121675" lon="9.95076"><ele>24.0</ele><time>2026-04-07T08:35:12.659Z</time></trkpt><trkpt lat="44.1215867" lon="9.9506967"><ele>24.0</ele><time>2026-04-07T08:35:13.658Z</time></trkpt><trkpt lat="44.1214967" lon="9.9506317"><ele>23.799999999999997</ele><time>2026-04-07T08:35:14.658Z</time></trkpt><trkpt lat="44.1214083" lon="9.9505717"><ele>23.599999999999998</ele><time>2026-04-07T08:35:15.658Z</time></trkpt><trkpt lat="44.12132" lon="9.9505117"><ele>23.4</ele><time>2026-04-07T08:35:16.658Z</time></trkpt><trkpt lat="44.1212383" lon="9.95045"><ele>23.2</ele><time>2026-04-07T08:35:17.658Z</time></trkpt><trkpt lat="44.1211533" lon="9.9503883"><ele>23.0</ele><time>2026-04-07T08:35:18.658Z</time></trkpt><trkpt lat="44.1210667" lon="9.9503283"><ele>23.0</ele><time>2026-04-07T08:35:19.658Z</time></trkpt><trkpt lat="44.1209817" lon="9.9502783"><ele>23.0</ele><time>2026-04-07T08:35:20.658Z</time></trkpt><trkpt lat="44.1208933" lon="9.95023"><ele>23.0</ele><time>2026-04-07T08:35:21.658Z</time></trkpt><trkpt lat="44.1208033" lon="9.9501817"><ele>23.0</ele><time>2026-04-07T08:35:22.658Z</time></trkpt><trkpt lat="44.1207117" lon="9.950135"><ele>23.0</ele><time>2026-04-07T08:35:23.658Z</time></trkpt><trkpt lat="44.1206167" lon="9.9501"><ele>22.799999999999997</ele><time>2026-04-07T08:35:24.659Z</time></trkpt><trkpt lat="44.12052" lon="9.95008"><ele>22.6</ele><time>2026-04-07T08:35:25.658Z</time></trkpt><trkpt lat="44.1204217" lon="9.9500683"><ele>22.4</ele><time>2026-04-07T08:35:26.659Z</time></trkpt><trkpt lat="44.1203167" lon="9.950065"><ele>22.200000000000003</ele><time>2026-04-07T08:35:27.658Z</time></trkpt><trkpt lat="44.1202017" lon="9.95006"><ele>22.0</ele><time>2026-04-07T08:35:28.659Z</time></trkpt><trkpt lat="44.12008" lon="9.9500517"><ele>22.25</ele><time>2026-04-07T08:35:29.658Z</time></trkpt><trkpt lat="44.1199583" lon="9.9500367"><ele>22.5</ele><time>2026-04-07T08:35:30.658Z</time></trkpt><trkpt lat="44.1198367" lon="9.9500183"><ele>22.75</ele><time>2026-04-07T08:35:31.658Z</time></trkpt><trkpt lat="44.1197183" lon="9.9499983"><ele>23.0</ele><time>2026-04-07T08:35:32.659Z</time></trkpt><trkpt lat="44.1195983" lon="9.94998"><ele>22.5</ele><time>2026-04-07T08:35:33.659Z</time></trkpt><trkpt lat="44.1194817" lon="9.9499517"><ele>22.0</ele><time>2026-04-07T08:35:34.658Z</time></trkpt><trkpt lat="44.1193683" lon="9.9499117"><ele>21.5</ele><time>2026-04-07T08:35:35.659Z</time></trkpt><trkpt lat="44.1192617" lon="9.949855"><ele>21.0</ele><time>2026-04-07T08:35:36.658Z</time></trkpt><trkpt lat="44.1191717" lon="9.9497833"><ele>21.0</ele><time>2026-04-07T08:35:37.658Z</time></trkpt><trkpt lat="44.1191" lon="9.9496933"><ele>21.0</ele><time>2026-04-07T08:35:38.658Z</time></trkpt><trkpt lat="44.1190483" lon="9.9495867"><ele>21.0</ele><time>2026-04-07T08:35:39.658Z</time></trkpt><trkpt lat="44.1190133" lon="9.9494683"><ele>21.0</ele><time>2026-04-07T08:35:40.658Z</time></trkpt><trkpt lat="44.1189967" lon="9.9493533"><ele>21.0</ele><time>2026-04-07T08:35:41.658Z</time></trkpt><trkpt lat="44.1189917" lon="9.9492483"><ele>21.0</ele><time>2026-04-07T08:35:42.658Z</time></trkpt><trkpt lat="44.1189967" lon="9.949155"><ele>20.333333333333332</ele><time>2026-04-07T08:35:43.658Z</time></trkpt><trkpt lat="44.119" lon="9.9490567"><ele>19.666666666666668</ele><time>2026-04-07T08:35:44.658Z</time></trkpt><trkpt lat="44.1189967" lon="9.9489583"><ele>19.0</ele><time>2026-04-07T08:35:45.658Z</time></trkpt><trkpt lat="44.11897" lon="9.9488617"><ele>18.333333333333336</ele><time>2026-04-07T08:35:46.658Z</time></trkpt><trkpt lat="44.1189267" lon="9.9487667"><ele>17.666666666666668</ele><time>2026-04-07T08:35:47.658Z</time></trkpt><trkpt lat="44.1188683" lon="9.948685"><ele>17.0</ele><time>2026-04-07T08:35:48.658Z</time></trkpt><trkpt lat="44.1188033" lon="9.948625"><ele>17.0</ele><time>2026-04-07T08:35:49.658Z</time></trkpt><trkpt lat="44.1187233" lon="9.9486067"><ele>17.0</ele><time>2026-04-07T08:35:50.658Z</time></trkpt><trkpt lat="44.11864" lon="9.94863"><ele>17.0</ele><time>2026-04-07T08:35:51.658Z</time></trkpt><trkpt lat="44.1185533" lon="9.948685"><ele>17.0</ele><time>2026-04-07T08:35:52.658Z</time></trkpt><trkpt lat="44.1184683" lon="9.948755"><ele>17.0</ele><time>2026-04-07T08:35:53.658Z</time></trkpt><trkpt lat="44.11838" lon="9.9488317"><ele>17.0</ele><time>2026-04-07T08:35:54.659Z</time></trkpt><trkpt lat="44.1182917" lon="9.9489"><ele>17.0</ele><time>2026-04-07T08:35:55.658Z</time></trkpt><trkpt lat="44.1182" lon="9.9489533"><ele>17.0</ele><time>2026-04-07T08:35:56.659Z</time></trkpt><trkpt lat="44.1181017" lon="9.9489983"><ele>17.0</ele><time>2026-04-07T08:35:57.658Z</time></trkpt><trkpt lat="44.1179967" lon="9.9490117"><ele>17.0</ele><time>2026-04-07T08:35:58.659Z</time></trkpt><trkpt lat="44.1178917" lon="9.948995"><ele>17.0</ele><time>2026-04-07T08:35:59.659Z</time></trkpt><trkpt lat="44.1177867" lon="9.94895"><ele>17.0</ele><time>2026-04-07T08:36:00.658Z</time></trkpt><trkpt lat="44.1176833" lon="9.94887"><ele>17.0</ele><time>2026-04-07T08:36:01.658Z</time></trkpt><trkpt lat="44.1175883" lon="9.948765"><ele>17.0</ele><time>2026-04-07T08:36:02.658Z</time></trkpt><trkpt lat="44.1175017" lon="9.94864"><ele>17.0</ele><time>2026-04-07T08:36:03.658Z</time></trkpt><trkpt lat="44.1174167" lon="9.9485133"><ele>17.0</ele><time>2026-04-07T08:36:04.658Z</time></trkpt><trkpt lat="44.1173317" lon="9.9483933"><ele>17.0</ele><time>2026-04-07T08:36:05.659Z</time></trkpt><trkpt lat="44.1172383" lon="9.9482783"><ele>17.0</ele><time>2026-04-07T08:36:06.658Z</time></trkpt><trkpt lat="44.1171417" lon="9.9481583"><ele>16.5</ele><time>2026-04-07T08:36:07.658Z</time></trkpt><trkpt lat="44.1170417" lon="9.9480333"><ele>16.0</ele><time>2026-04-07T08:36:08.658Z</time></trkpt><trkpt lat="44.116945" lon="9.9479067"><ele>15.5</ele><time>2026-04-07T08:36:09.658Z</time></trkpt><trkpt lat="44.11685" lon="9.9477783"><ele>15.0</ele><time>2026-04-07T08:36:10.658Z</time></trkpt><trkpt lat="44.116755" lon="9.94766"><ele>15.0</ele><time>2026-04-07T08:36:11.658Z</time></trkpt><trkpt lat="44.1166617" lon="9.9475433"><ele>15.0</ele><time>2026-04-07T08:36:12.658Z</time></trkpt><trkpt lat="44.1165733" lon="9.9474333"><ele>15.0</ele><time>2026-04-07T08:36:13.658Z</time></trkpt><trkpt lat="44.1164783" lon="9.9473383"><ele>15.0</ele><time>2026-04-07T08:36:14.659Z</time></trkpt><trkpt lat="44.1163867" lon="9.9472583"><ele>14.6</ele><time>2026-04-07T08:36:15.659Z</time></trkpt><trkpt lat="44.1162917" lon="9.9472133"><ele>14.2</ele><time>2026-04-07T08:36:16.658Z</time></trkpt><trkpt lat="44.1161967" lon="9.9472083"><ele>13.8</ele><time>2026-04-07T08:36:17.658Z</time></trkpt><trkpt lat="44.1160983" lon="9.9472367"><ele>13.4</ele><time>2026-04-07T08:36:18.658Z</time></trkpt><trkpt lat="44.116005" lon="9.9472633"><ele>13.0</ele><time>2026-04-07T08:36:19.658Z</time></trkpt><trkpt lat="44.1159167" lon="9.9472933"><ele>12.999999999999998</ele><time>2026-04-07T08:36:20.658Z</time></trkpt><trkpt lat="44.1158267" lon="9.94732"><ele>13.0</ele><time>2026-04-07T08:36:21.658Z</time></trkpt><trkpt lat="44.1157367" lon="9.9473483"><ele>13.0</ele><time>2026-04-07T08:36:22.658Z</time></trkpt><trkpt lat="44.11565" lon="9.9473383"><ele>13.0</ele><time>2026-04-07T08:36:23.658Z</time></trkpt><trkpt lat="44.11558" lon="9.9472733"><ele>12.999999999999998</ele><time>2026-04-07T08:36:24.658Z</time></trkpt><trkpt lat="44.1155183" lon="9.9472033"><ele>13.0</ele><time>2026-04-07T08:36:25.658Z</time></trkpt><trkpt lat="44.1154567" lon="9.9471417"><ele>12.8</ele><time>2026-04-07T08:36:26.658Z</time></trkpt><trkpt lat="44.1152917" lon="9.9471633"><ele>12.600000000000001</ele><time>2026-04-07T08:36:28.658Z</time></trkpt><trkpt lat="44.11521" lon="9.9472333"><ele>12.399999999999999</ele><time>2026-04-07T08:36:29.658Z</time></trkpt><trkpt lat="44.1152317" lon="9.9473733"><ele>12.2</ele><time>2026-04-07T08:36:30.659Z</time></trkpt><trkpt lat="44.1152333" lon="9.9474867"><ele>12.0</ele><time>2026-04-07T08:36:31.658Z</time></trkpt><trkpt lat="44.1152483" lon="9.9475983"><ele>12.333333333333334</ele><time>2026-04-07T08:36:32.658Z</time></trkpt><trkpt lat="44.1152867" lon="9.9477083"><ele>12.666666666666668</ele><time>2026-04-07T08:36:33.658Z</time></trkpt><trkpt lat="44.11532" lon="9.9478117"><ele>13.0</ele><time>2026-04-07T08:36:34.658Z</time></trkpt><trkpt lat="44.1153317" lon="9.947915"><ele>13.333333333333334</ele><time>2026-04-07T08:36:35.658Z</time></trkpt><trkpt lat="44.1153267" lon="9.9480183"><ele>13.666666666666668</ele><time>2026-04-07T08:36:36.658Z</time></trkpt><trkpt lat="44.1153117" lon="9.94811"><ele>14.0</ele><time>2026-04-07T08:36:37.658Z</time></trkpt><trkpt lat="44.115255" lon="9.9482083"><ele>14.0</ele><time>2026-04-07T08:36:38.658Z</time></trkpt><trkpt lat="44.11518" lon="9.9483133"><ele>14.0</ele><time>2026-04-07T08:36:39.658Z</time></trkpt><trkpt lat="44.115085" lon="9.948435"><ele>14.0</ele><time>2026-04-07T08:36:40.658Z</time></trkpt><trkpt lat="44.11499" lon="9.9485467"><ele>14.0</ele><time>2026-04-07T08:36:41.658Z</time></trkpt><trkpt lat="44.11489" lon="9.9486583"><ele>14.5</ele><time>2026-04-07T08:36:42.658Z</time></trkpt><trkpt lat="44.11479" lon="9.94876"><ele>15.0</ele><time>2026-04-07T08:36:43.658Z</time></trkpt><trkpt lat="44.11469" lon="9.94885"><ele>15.5</ele><time>2026-04-07T08:36:44.658Z</time></trkpt><trkpt lat="44.1145933" lon="9.94893"><ele>16.0</ele><time>2026-04-07T08:36:45.658Z</time></trkpt><trkpt lat="44.114495" lon="9.9490067"><ele>16.0</ele><time>2026-04-07T08:36:46.658Z</time></trkpt><trkpt lat="44.1144" lon="9.949075"><ele>16.0</ele><time>2026-04-07T08:36:47.658Z</time></trkpt><trkpt lat="44.114305" lon="9.9491417"><ele>16.0</ele><time>2026-04-07T08:36:48.658Z</time></trkpt><trkpt lat="44.1142133" lon="9.94921"><ele>16.0</ele><time>2026-04-07T08:36:49.658Z</time></trkpt><trkpt lat="44.114125" lon="9.9492733"><ele>16.0</ele><time>2026-04-07T08:36:50.658Z</time></trkpt><trkpt lat="44.114035" lon="9.949335"><ele>16.2</ele><time>2026-04-07T08:36:51.658Z</time></trkpt><trkpt lat="44.1139417" lon="9.9493917"><ele>16.400000000000002</ele><time>2026-04-07T08:36:52.658Z</time></trkpt><trkpt lat="44.11385" lon="9.9494467"><ele>16.6</ele><time>2026-04-07T08:36:53.659Z</time></trkpt><trkpt lat="44.1137583" lon="9.9494983"><ele>16.8</ele><time>2026-04-07T08:36:54.658Z</time></trkpt><trkpt lat="44.1136767" lon="9.9495567"><ele>17.0</ele><time>2026-04-07T08:36:55.658Z</time></trkpt><trkpt lat="44.1135917" lon="9.949615"><ele>17.0</ele><time>2026-04-07T08:36:56.659Z</time></trkpt><trkpt lat="44.1135033" lon="9.9496733"><ele>17.0</ele><time>2026-04-07T08:36:57.659Z</time></trkpt><trkpt lat="44.1134117" lon="9.94973"><ele>17.0</ele><time>2026-04-07T08:36:58.658Z</time></trkpt><trkpt lat="44.1133183" lon="9.9497917"><ele>17.0</ele><time>2026-04-07T08:36:59.658Z</time></trkpt><trkpt lat="44.1132217" lon="9.9498583"><ele>17.0</ele><time>2026-04-07T08:37:00.658Z</time></trkpt><trkpt lat="44.1131217" lon="9.94992"><ele>17.0</ele><time>2026-04-07T08:37:01.658Z</time></trkpt><trkpt lat="44.113025" lon="9.9499833"><ele>17.0</ele><time>2026-04-07T08:37:02.658Z</time></trkpt><trkpt lat="44.1129267" lon="9.9500467"><ele>17.0</ele><time>2026-04-07T08:37:03.658Z</time></trkpt><trkpt lat="44.1128333" lon="9.95011"><ele>17.0</ele><time>2026-04-07T08:37:04.658Z</time></trkpt><trkpt lat="44.1127367" lon="9.9501683"><ele>17.0</ele><time>2026-04-07T08:37:05.658Z</time></trkpt><trkpt lat="44.1126433" lon="9.9502267"><ele>17.0</ele><time>2026-04-07T08:37:06.658Z</time></trkpt><trkpt lat="44.11255" lon="9.9502867"><ele>17.0</ele><time>2026-04-07T08:37:07.658Z</time></trkpt><trkpt lat="44.112465" lon="9.950345"><ele>17.0</ele><time>2026-04-07T08:37:08.658Z</time></trkpt><trkpt lat="44.1123783" lon="9.9504017"><ele>17.0</ele><time>2026-04-07T08:37:09.658Z</time></trkpt><trkpt lat="44.1122933" lon="9.95046"><ele>17.0</ele><time>2026-04-07T08:37:10.658Z</time></trkpt><trkpt lat="44.112215" lon="9.9505217"><ele>16.8</ele><time>2026-04-07T08:37:11.658Z</time></trkpt><trkpt lat="44.1121367" lon="9.950585"><ele>16.6</ele><time>2026-04-07T08:37:12.658Z</time></trkpt><trkpt lat="44.11205" lon="9.950655"><ele>16.400000000000002</ele><time>2026-04-07T08:37:13.659Z</time></trkpt><trkpt lat="44.1119667" lon="9.95073"><ele>16.2</ele><time>2026-04-07T08:37:14.658Z</time></trkpt><trkpt lat="44.111885" lon="9.9508033"><ele>16.0</ele><time>2026-04-07T08:37:15.658Z</time></trkpt><trkpt lat="44.1118117" lon="9.9508717"><ele>16.142857142857142</ele><time>2026-04-07T08:37:16.658Z</time></trkpt><trkpt lat="44.1117483" lon="9.9509333"><ele>16.285714285714285</ele><time>2026-04-07T08:37:17.659Z</time></trkpt><trkpt lat="44.111695" lon="9.9509833"><ele>16.428571428571427</ele><time>2026-04-07T08:37:18.658Z</time></trkpt><trkpt lat="44.1116433" lon="9.9510417"><ele>16.57142857142857</ele><time>2026-04-07T08:37:20.658Z</time></trkpt><trkpt lat="44.1115933" lon="9.951095"><ele>16.714285714285715</ele><time>2026-04-07T08:37:22.658Z</time></trkpt><trkpt lat="44.11153" lon="9.9511667"><ele>16.857142857142854</ele><time>2026-04-07T08:37:24.658Z</time></trkpt><trkpt lat="44.1114567" lon="9.951235"><ele>17.0</ele><time>2026-04-07T08:37:26.658Z</time></trkpt><trkpt lat="44.1113767" lon="9.9513"><ele>16.25</ele><time>2026-04-07T08:37:28.658Z</time></trkpt><trkpt lat="44.111275" lon="9.951335"><ele>15.5</ele><time>2026-04-07T08:37:30.658Z</time></trkpt><trkpt lat="44.1111583" lon="9.951365"><ele>14.75</ele><time>2026-04-07T08:37:32.658Z</time></trkpt><trkpt lat="44.111065" lon="9.95145"><ele>14.0</ele><time>2026-04-07T08:37:34.658Z</time></trkpt><trkpt lat="44.111055" lon="9.9516383"><ele>14.166666666666668</ele><time>2026-04-07T08:37:36.659Z</time></trkpt><trkpt lat="44.1110617" lon="9.9517433"><ele>14.333333333333334</ele><time>2026-04-07T08:37:37.658Z</time></trkpt><trkpt lat="44.11106" lon="9.9518567"><ele>14.5</ele><time>2026-04-07T08:37:38.658Z</time></trkpt><trkpt lat="44.1110517" lon="9.9519633"><ele>14.666666666666668</ele><time>2026-04-07T08:37:39.659Z</time></trkpt><trkpt lat="44.1110283" lon="9.9520667"><ele>14.833333333333334</ele><time>2026-04-07T08:37:40.658Z</time></trkpt><trkpt lat="44.11099" lon="9.9521617"><ele>15.0</ele><time>2026-04-07T08:37:41.658Z</time></trkpt><trkpt lat="44.1109417" lon="9.95226"><ele>15.0</ele><time>2026-04-07T08:37:42.658Z</time></trkpt><trkpt lat="44.1108883" lon="9.9523583"><ele>15.0</ele><time>2026-04-07T08:37:43.658Z</time></trkpt><trkpt lat="44.1108333" lon="9.95246"><ele>15.0</ele><time>2026-04-07T08:37:44.659Z</time></trkpt><trkpt lat="44.11077" lon="9.9525667"><ele>15.0</ele><time>2026-04-07T08:37:45.658Z</time></trkpt><trkpt lat="44.1107083" lon="9.952675"><ele>15.0</ele><time>2026-04-07T08:37:46.658Z</time></trkpt><trkpt lat="44.1106417" lon="9.9527817"><ele>15.2</ele><time>2026-04-07T08:37:47.659Z</time></trkpt><trkpt lat="44.1105717" lon="9.95289"><ele>15.4</ele><time>2026-04-07T08:37:48.658Z</time></trkpt><trkpt lat="44.1104983" lon="9.952995"><ele>15.600000000000001</ele><time>2026-04-07T08:37:49.658Z</time></trkpt><trkpt lat="44.110425" lon="9.9531017"><ele>15.8</ele><time>2026-04-07T08:37:50.658Z</time></trkpt><trkpt lat="44.1103433" lon="9.9532017"><ele>16.0</ele><time>2026-04-07T08:37:51.658Z</time></trkpt><trkpt lat="44.1102583" lon="9.9532983"><ele>15.75</ele><time>2026-04-07T08:37:52.659Z</time></trkpt><trkpt lat="44.110175" lon="9.9533983"><ele>15.5</ele><time>2026-04-07T08:37:53.658Z</time></trkpt><trkpt lat="44.110085" lon="9.9534933"><ele>15.25</ele><time>2026-04-07T08:37:54.658Z</time></trkpt><trkpt lat="44.10999" lon="9.9535817"><ele>15.0</ele><time>2026-04-07T08:37:55.658Z</time></trkpt><trkpt lat="44.1098883" lon="9.9536683"><ele>14.5</ele><time>2026-04-07T08:37:56.658Z</time></trkpt><trkpt lat="44.1097917" lon="9.9537567"><ele>14.0</ele><time>2026-04-07T08:37:57.659Z</time></trkpt><trkpt lat="44.1096833" lon="9.953835"><ele>13.5</ele><time>2026-04-07T08:37:58.658Z</time></trkpt><trkpt lat="44.10957" lon="9.9539033"><ele>13.0</ele><time>2026-04-07T08:37:59.658Z</time></trkpt><trkpt lat="44.1094533" lon="9.9539617"><ele>13.0</ele><time>2026-04-07T08:38:00.659Z</time></trkpt><trkpt lat="44.1093267" lon="9.9540167"><ele>13.0</ele><time>2026-04-07T08:38:01.658Z</time></trkpt><trkpt lat="44.1092033" lon="9.954075"><ele>13.0</ele><time>2026-04-07T08:38:02.658Z</time></trkpt><trkpt lat="44.1090517" lon="9.9541067"><ele>13.0</ele><time>2026-04-07T08:38:03.658Z</time></trkpt><trkpt lat="44.1089083" lon="9.9541317"><ele>13.0</ele><time>2026-04-07T08:38:04.658Z</time></trkpt><trkpt lat="44.1087683" lon="9.9541617"><ele>13.0</ele><time>2026-04-07T08:38:05.658Z</time></trkpt><trkpt lat="44.1086267" lon="9.9541933"><ele>13.0</ele><time>2026-04-07T08:38:06.658Z</time></trkpt><trkpt lat="44.1084833" lon="9.95422"><ele>13.0</ele><time>2026-04-07T08:38:07.658Z</time></trkpt><trkpt lat="44.1083417" lon="9.9542483"><ele>13.25</ele><time>2026-04-07T08:38:08.658Z</time></trkpt><trkpt lat="44.1082033" lon="9.95428"><ele>13.5</ele><time>2026-04-07T08:38:09.658Z</time></trkpt><trkpt lat="44.1080583" lon="9.9543017"><ele>13.75</ele><time>2026-04-07T08:38:10.658Z</time></trkpt><trkpt lat="44.1079167" lon="9.9543183"><ele>14.0</ele><time>2026-04-07T08:38:11.658Z</time></trkpt><trkpt lat="44.1077767" lon="9.954335"><ele>14.0</ele><time>2026-04-07T08:38:12.658Z</time></trkpt><trkpt lat="44.1076383" lon="9.9543433"><ele>14.0</ele><time>2026-04-07T08:38:13.658Z</time></trkpt><trkpt lat="44.107495" lon="9.954335"><ele>14.0</ele><time>2026-04-07T08:38:14.658Z</time></trkpt><trkpt lat="44.107365" lon="9.9543167"><ele>14.0</ele><time>2026-04-07T08:38:15.658Z</time></trkpt><trkpt lat="44.10724" lon="9.9542733"><ele>13.25</ele><time>2026-04-07T08:38:16.658Z</time></trkpt><trkpt lat="44.10712" lon="9.9542117"><ele>12.5</ele><time>2026-04-07T08:38:17.658Z</time></trkpt><trkpt lat="44.107005" lon="9.954135"><ele>11.75</ele><time>2026-04-07T08:38:18.658Z</time></trkpt><trkpt lat="44.106905" lon="9.9540483"><ele>11.0</ele><time>2026-04-07T08:38:19.658Z</time></trkpt><trkpt lat="44.1068133" lon="9.953955"><ele>10.833333333333332</ele><time>2026-04-07T08:38:20.658Z</time></trkpt><trkpt lat="44.1067317" lon="9.953855"><ele>10.666666666666666</ele><time>2026-04-07T08:38:21.658Z</time></trkpt><trkpt lat="44.1066667" lon="9.9537633"><ele>10.5</ele><time>2026-04-07T08:38:22.658Z</time></trkpt><trkpt lat="44.106615" lon="9.95368"><ele>10.333333333333334</ele><time>2026-04-07T08:38:23.658Z</time></trkpt><trkpt lat="44.1065733" lon="9.95359"><ele>10.166666666666668</ele><time>2026-04-07T08:38:24.658Z</time></trkpt><trkpt lat="44.10654" lon="9.9535067"><ele>10.0</ele><time>2026-04-07T08:38:25.658Z</time></trkpt><trkpt lat="44.1064883" lon="9.9533467"><ele>9.5</ele><time>2026-04-07T08:38:27.658Z</time></trkpt><trkpt lat="44.106455" lon="9.9532533"><ele>9.0</ele><time>2026-04-07T08:38:28.658Z</time></trkpt><trkpt lat="44.1064233" lon="9.9531533"><ele>8.5</ele><time>2026-04-07T08:38:29.658Z</time></trkpt><trkpt lat="44.1063967" lon="9.9530533"><ele>8.0</ele><time>2026-04-07T08:38:30.658Z</time></trkpt><trkpt lat="44.10637" lon="9.9529517"><ele>7.500000000000001</ele><time>2026-04-07T08:38:31.658Z</time></trkpt><trkpt lat="44.106345" lon="9.9528517"><ele>7.0</ele><time>2026-04-07T08:38:32.659Z</time></trkpt><trkpt lat="44.1063233" lon="9.9527517"><ele>7.000000000000001</ele><time>2026-04-07T08:38:33.658Z</time></trkpt><trkpt lat="44.1063017" lon="9.9526467"><ele>7.0</ele><time>2026-04-07T08:38:34.658Z</time></trkpt><trkpt lat="44.1062733" lon="9.95254"><ele>7.0</ele><time>2026-04-07T08:38:35.658Z</time></trkpt><trkpt lat="44.1062417" lon="9.9524233"><ele>7.0</ele><time>2026-04-07T08:38:36.658Z</time></trkpt><trkpt lat="44.1062083" lon="9.9523033"><ele>7.000000000000001</ele><time>2026-04-07T08:38:37.658Z</time></trkpt><trkpt lat="44.1061767" lon="9.9521733"><ele>7.0</ele><time>2026-04-07T08:38:38.658Z</time></trkpt><trkpt lat="44.1061433" lon="9.9520383"><ele>7.0</ele><time>2026-04-07T08:38:39.658Z</time></trkpt><trkpt lat="44.106115" lon="9.9518933"><ele>6.999999999999999</ele><time>2026-04-07T08:38:40.659Z</time></trkpt><trkpt lat="44.1060867" lon="9.9517517"><ele>6.999999999999999</ele><time>2026-04-07T08:38:41.659Z</time></trkpt><trkpt lat="44.1060583" lon="9.9516083"><ele>7.0</ele><time>2026-04-07T08:38:42.658Z</time></trkpt><trkpt lat="44.1060267" lon="9.9514717"><ele>7.0</ele><time>2026-04-07T08:38:43.658Z</time></trkpt><trkpt lat="44.1059967" lon="9.9513383"><ele>7.0</ele><time>2026-04-07T08:38:44.658Z</time></trkpt><trkpt lat="44.1059683" lon="9.9512133"><ele>6.999999999999999</ele><time>2026-04-07T08:38:45.659Z</time></trkpt><trkpt lat="44.10594" lon="9.9510917"><ele>6.999999999999999</ele><time>2026-04-07T08:38:46.658Z</time></trkpt><trkpt lat="44.1059133" lon="9.950965"><ele>7.0</ele><time>2026-04-07T08:38:47.658Z</time></trkpt><trkpt lat="44.105885" lon="9.9508367"><ele>7.0</ele><time>2026-04-07T08:38:48.658Z</time></trkpt><trkpt lat="44.1058583" lon="9.9507117"><ele>7.0</ele><time>2026-04-07T08:38:49.658Z</time></trkpt><trkpt lat="44.1058317" lon="9.9505867"><ele>6.999999999999999</ele><time>2026-04-07T08:38:50.658Z</time></trkpt><trkpt lat="44.1058" lon="9.950465"><ele>6.999999999999999</ele><time>2026-04-07T08:38:51.659Z</time></trkpt><trkpt lat="44.10577" lon="9.9503367"><ele>7.0</ele><time>2026-04-07T08:38:52.658Z</time></trkpt><trkpt lat="44.1057383" lon="9.9502033"><ele>7.0</ele><time>2026-04-07T08:38:53.658Z</time></trkpt><trkpt lat="44.1057083" lon="9.95007"><ele>6.6</ele><time>2026-04-07T08:38:54.658Z</time></trkpt><trkpt lat="44.1056767" lon="9.9499333"><ele>6.199999999999999</ele><time>2026-04-07T08:38:55.658Z</time></trkpt><trkpt lat="44.105645" lon="9.9497933"><ele>5.8</ele><time>2026-04-07T08:38:56.658Z</time></trkpt><trkpt lat="44.10561" lon="9.9496517"><ele>5.4</ele><time>2026-04-07T08:38:57.658Z</time></trkpt><trkpt lat="44.105575" lon="9.94951"><ele>5.0</ele><time>2026-04-07T08:38:58.658Z</time></trkpt><trkpt lat="44.10554" lon="9.9493667"><ele>5.0</ele><time>2026-04-07T08:38:59.658Z</time></trkpt><trkpt lat="44.1055067" lon="9.9492133"><ele>5.0</ele><time>2026-04-07T08:39:00.658Z</time></trkpt><trkpt lat="44.1054717" lon="9.9490583"><ele>5.0</ele><time>2026-04-07T08:39:01.659Z</time></trkpt><trkpt lat="44.1054383" lon="9.9489017"><ele>5.0</ele><time>2026-04-07T08:39:02.658Z</time></trkpt><trkpt lat="44.1054067" lon="9.948755"><ele>5.0</ele><time>2026-04-07T08:39:03.658Z</time></trkpt><trkpt lat="44.105375" lon="9.948615"><ele>5.0</ele><time>2026-04-07T08:39:04.658Z</time></trkpt><trkpt lat="44.1053433" lon="9.9484767"><ele>5.0</ele><time>2026-04-07T08:39:05.658Z</time></trkpt><trkpt lat="44.1053133" lon="9.9483367"><ele>5.0</ele><time>2026-04-07T08:39:06.658Z</time></trkpt><trkpt lat="44.1052883" lon="9.94819"><ele>5.0</ele><time>2026-04-07T08:39:07.658Z</time></trkpt><trkpt lat="44.1052767" lon="9.948045"><ele>5.0</ele><time>2026-04-07T08:39:08.658Z</time></trkpt><trkpt lat="44.10528" lon="9.9479083"><ele>5.0</ele><time>2026-04-07T08:39:09.658Z</time></trkpt><trkpt lat="44.1053017" lon="9.9477783"><ele>5.0</ele><time>2026-04-07T08:39:10.658Z</time></trkpt><trkpt lat="44.1053417" lon="9.9476667"><ele>5.0</ele><time>2026-04-07T08:39:11.658Z</time></trkpt><trkpt lat="44.1053833" lon="9.9475767"><ele>5.0</ele><time>2026-04-07T08:39:12.658Z</time></trkpt><trkpt lat="44.1054667" lon="9.9474783"><ele>5.333333333333334</ele><time>2026-04-07T08:39:14.658Z</time></trkpt><trkpt lat="44.105565" lon="9.947415"><ele>5.666666666666667</ele><time>2026-04-07T08:39:16.658Z</time></trkpt><trkpt lat="44.1056283" lon="9.94738"><ele>6.0</ele><time>2026-04-07T08:39:17.658Z</time></trkpt><trkpt lat="44.1057017" lon="9.9473533"><ele>6.333333333333334</ele><time>2026-04-07T08:39:18.658Z</time></trkpt><trkpt lat="44.1057767" lon="9.94733"><ele>6.666666666666667</ele><time>2026-04-07T08:39:19.658Z</time></trkpt><trkpt lat="44.1058483" lon="9.947305"><ele>7.0</ele><time>2026-04-07T08:39:20.658Z</time></trkpt><trkpt lat="44.1059167" lon="9.9472633"><ele>7.199999999999999</ele><time>2026-04-07T08:39:21.658Z</time></trkpt><trkpt lat="44.1059767" lon="9.9471917"><ele>7.3999999999999995</ele><time>2026-04-07T08:39:22.658Z</time></trkpt><trkpt lat="44.10601" lon="9.9471083"><ele>7.6000000000000005</ele><time>2026-04-07T08:39:23.658Z</time></trkpt><trkpt lat="44.10596" lon="9.9469367"><ele>7.800000000000001</ele><time>2026-04-07T08:39:25.658Z</time></trkpt><trkpt lat="44.105885" lon="9.94683"><ele>8.0</ele><time>2026-04-07T08:39:26.658Z</time></trkpt><trkpt lat="44.1057933" lon="9.9467217"><ele>8.25</ele><time>2026-04-07T08:39:27.658Z</time></trkpt><trkpt lat="44.1056967" lon="9.946615"><ele>8.5</ele><time>2026-04-07T08:39:28.658Z</time></trkpt><trkpt lat="44.1056033" lon="9.94651"><ele>8.75</ele><time>2026-04-07T08:39:29.658Z</time></trkpt><trkpt lat="44.1055233" lon="9.9464017"><ele>9.0</ele><time>2026-04-07T08:39:30.658Z</time></trkpt><trkpt lat="44.10544" lon="9.9462867"><ele>9.0</ele><time>2026-04-07T08:39:31.658Z</time></trkpt><trkpt lat="44.10535" lon="9.9461717"><ele>9.0</ele><time>2026-04-07T08:39:32.658Z</time></trkpt><trkpt lat="44.105255" lon="9.94605"><ele>9.0</ele><time>2026-04-07T08:39:33.658Z</time></trkpt><trkpt lat="44.1051567" lon="9.9459283"><ele>9.0</ele><time>2026-04-07T08:39:34.658Z</time></trkpt><trkpt lat="44.105045" lon="9.94581"><ele>8.75</ele><time>2026-04-07T08:39:35.658Z</time></trkpt><trkpt lat="44.1049183" lon="9.945725"><ele>8.5</ele><time>2026-04-07T08:39:36.659Z</time></trkpt><trkpt lat="44.104785" lon="9.9456683"><ele>8.25</ele><time>2026-04-07T08:39:37.659Z</time></trkpt><trkpt lat="44.1046567" lon="9.945645"><ele>8.0</ele><time>2026-04-07T08:39:38.658Z</time></trkpt><trkpt lat="44.1045183" lon="9.945665"><ele>8.0</ele><time>2026-04-07T08:39:39.658Z</time></trkpt><trkpt lat="44.1043867" lon="9.94571"><ele>8.0</ele><time>2026-04-07T08:39:40.658Z</time></trkpt><trkpt lat="44.1042683" lon="9.945785"><ele>8.0</ele><time>2026-04-07T08:39:41.658Z</time></trkpt><trkpt lat="44.1041683" lon="9.9458917"><ele>8.0</ele><time>2026-04-07T08:39:42.658Z</time></trkpt><trkpt lat="44.1040883" lon="9.9459883"><ele>7.6000000000000005</ele><time>2026-04-07T08:39:43.658Z</time></trkpt><trkpt lat="44.1040183" lon="9.9460833"><ele>7.200000000000001</ele><time>2026-04-07T08:39:44.658Z</time></trkpt><trkpt lat="44.10395" lon="9.94618"><ele>6.8</ele><time>2026-04-07T08:39:45.658Z</time></trkpt><trkpt lat="44.103875" lon="9.9462917"><ele>6.4</ele><time>2026-04-07T08:39:46.658Z</time></trkpt><trkpt lat="44.103805" lon="9.9464117"><ele>6.0</ele><time>2026-04-07T08:39:47.658Z</time></trkpt><trkpt lat="44.1037383" lon="9.94654"><ele>6.0</ele><time>2026-04-07T08:39:48.659Z</time></trkpt><trkpt lat="44.1036717" lon="9.946675"><ele>6.0</ele><time>2026-04-07T08:39:49.658Z</time></trkpt><trkpt lat="44.1036" lon="9.9468167"><ele>6.0</ele><time>2026-04-07T08:39:50.658Z</time></trkpt><trkpt lat="44.1035283" lon="9.9469667"><ele>6.0</ele><time>2026-04-07T08:39:51.659Z</time></trkpt><trkpt lat="44.10345" lon="9.9471217"><ele>5.75</ele><time>2026-04-07T08:39:52.658Z</time></trkpt><trkpt lat="44.1033717" lon="9.9472783"><ele>5.5</ele><time>2026-04-07T08:39:53.658Z</time></trkpt><trkpt lat="44.1032933" lon="9.9474367"><ele>5.25</ele><time>2026-04-07T08:39:54.658Z</time></trkpt><trkpt lat="44.1032133" lon="9.9475983"><ele>5.0</ele><time>2026-04-07T08:39:55.659Z</time></trkpt><trkpt lat="44.1031333" lon="9.9477633"><ele>5.0</ele><time>2026-04-07T08:39:56.658Z</time></trkpt><trkpt lat="44.1030517" lon="9.9479317"><ele>5.0</ele><time>2026-04-07T08:39:57.658Z</time></trkpt><trkpt lat="44.1029683" lon="9.948105"><ele>5.0</ele><time>2026-04-07T08:39:58.658Z</time></trkpt><trkpt lat="44.1028833" lon="9.9482817"><ele>5.0</ele><time>2026-04-07T08:39:59.659Z</time></trkpt><trkpt lat="44.1028" lon="9.9484567"><ele>5.0</ele><time>2026-04-07T08:40:00.658Z</time></trkpt><trkpt lat="44.102715" lon="9.9486283"><ele>5.0</ele><time>2026-04-07T08:40:01.658Z</time></trkpt><trkpt lat="44.1026217" lon="9.9487917"><ele>5.0</ele><time>2026-04-07T08:40:02.658Z</time></trkpt><trkpt lat="44.102405" lon="9.9490183"><ele>5.25</ele><time>2026-04-07T08:40:04.658Z</time></trkpt><trkpt lat="44.10228" lon="9.9490783"><ele>5.5</ele><time>2026-04-07T08:40:05.658Z</time></trkpt><trkpt lat="44.1021467" lon="9.9491167"><ele>5.75</ele><time>2026-04-07T08:40:06.658Z</time></trkpt><trkpt lat="44.1020133" lon="9.9491533"><ele>6.0</ele><time>2026-04-07T08:40:07.658Z</time></trkpt><trkpt lat="44.1018867" lon="9.94919"><ele>6.0</ele><time>2026-04-07T08:40:08.658Z</time></trkpt><trkpt lat="44.1017633" lon="9.9492333"><ele>6.0</ele><time>2026-04-07T08:40:09.658Z</time></trkpt><trkpt lat="44.10165" lon="9.949285"><ele>6.0</ele><time>2026-04-07T08:40:10.658Z</time></trkpt><trkpt lat="44.10155" lon="9.9493417"><ele>6.0</ele><time>2026-04-07T08:40:11.658Z</time></trkpt><trkpt lat="44.1014667" lon="9.9493883"><ele>6.0</ele><time>2026-04-07T08:40:12.659Z</time></trkpt><trkpt lat="44.101385" lon="9.9494417"><ele>6.0</ele><time>2026-04-07T08:40:13.659Z</time></trkpt><trkpt lat="44.1013017" lon="9.9494917"><ele>6.0</ele><time>2026-04-07T08:40:14.659Z</time></trkpt><trkpt lat="44.1012183" lon="9.94954"><ele>6.0</ele><time>2026-04-07T08:40:15.659Z</time></trkpt><trkpt lat="44.10113" lon="9.9496017"><ele>6.0</ele><time>2026-04-07T08:40:16.659Z</time></trkpt><trkpt lat="44.101035" lon="9.94968"><ele>6.0</ele><time>2026-04-07T08:40:17.659Z</time></trkpt><trkpt lat="44.10094" lon="9.949765"><ele>6.0</ele><time>2026-04-07T08:40:18.659Z</time></trkpt><trkpt lat="44.10084" lon="9.9498717"><ele>6.0</ele><time>2026-04-07T08:40:19.659Z</time></trkpt><trkpt lat="44.1007367" lon="9.9499933"><ele>6.0</ele><time>2026-04-07T08:40:20.659Z</time></trkpt><trkpt lat="44.1006367" lon="9.9501183"><ele>6.0</ele><time>2026-04-07T08:40:21.659Z</time></trkpt><trkpt lat="44.1005383" lon="9.9502517"><ele>6.0</ele><time>2026-04-07T08:40:22.659Z</time></trkpt><trkpt lat="44.100445" lon="9.9503917"><ele>6.0</ele><time>2026-04-07T08:40:23.66Z</time></trkpt><trkpt lat="44.1003533" lon="9.9505383"><ele>6.0</ele><time>2026-04-07T08:40:24.66Z</time></trkpt><trkpt lat="44.100265" lon="9.9506967"><ele>6.0</ele><time>2026-04-07T08:40:25.659Z</time></trkpt><trkpt lat="44.1001883" lon="9.9508633"><ele>6.25</ele><time>2026-04-07T08:40:26.659Z</time></trkpt><trkpt lat="44.1001317" lon="9.9510483"><ele>6.5</ele><time>2026-04-07T08:40:27.66Z</time></trkpt><trkpt lat="44.1000983" lon="9.9512483"><ele>6.75</ele><time>2026-04-07T08:40:28.659Z</time></trkpt><trkpt lat="44.100085" lon="9.95146"><ele>7.0</ele><time>2026-04-07T08:40:29.659Z</time></trkpt><trkpt lat="44.1000967" lon="9.9516667"><ele>7.0</ele><time>2026-04-07T08:40:30.659Z</time></trkpt><trkpt lat="44.100135" lon="9.9518667"><ele>7.0</ele><time>2026-04-07T08:40:31.659Z</time></trkpt><trkpt lat="44.1001983" lon="9.9520483"><ele>7.0</ele><time>2026-04-07T08:40:32.659Z</time></trkpt><trkpt lat="44.1002883" lon="9.9522133"><ele>7.0</ele><time>2026-04-07T08:40:33.659Z</time></trkpt><trkpt lat="44.1003983" lon="9.9523567"><ele>7.0</ele><time>2026-04-07T08:40:34.66Z</time></trkpt><trkpt lat="44.10052" lon="9.9524867"><ele>7.0</ele><time>2026-04-07T08:40:35.659Z</time></trkpt><trkpt lat="44.1006483" lon="9.9526117"><ele>7.0</ele><time>2026-04-07T08:40:36.659Z</time></trkpt><trkpt lat="44.1007783" lon="9.9527333"><ele>7.0</ele><time>2026-04-07T08:40:37.659Z</time></trkpt><trkpt lat="44.1009033" lon="9.95286"><ele>7.0</ele><time>2026-04-07T08:40:38.659Z</time></trkpt><trkpt lat="44.1010317" lon="9.95298"><ele>7.0</ele><time>2026-04-07T08:40:39.659Z</time></trkpt><trkpt lat="44.10115" lon="9.9530967"><ele>7.0</ele><time>2026-04-07T08:40:40.659Z</time></trkpt><trkpt lat="44.1012667" lon="9.9532067"><ele>7.0</ele><time>2026-04-07T08:40:41.66Z</time></trkpt><trkpt lat="44.1013783" lon="9.9533117"><ele>7.0</ele><time>2026-04-07T08:40:42.659Z</time></trkpt><trkpt lat="44.1014917" lon="9.9534133"><ele>7.0</ele><time>2026-04-07T08:40:43.66Z</time></trkpt><trkpt lat="44.1016067" lon="9.9535033"><ele>6.5</ele><time>2026-04-07T08:40:44.66Z</time></trkpt><trkpt lat="44.1017283" lon="9.9535533"><ele>6.0</ele><time>2026-04-07T08:40:45.659Z</time></trkpt><trkpt lat="44.1018467" lon="9.9535667"><ele>5.5</ele><time>2026-04-07T08:40:46.659Z</time></trkpt><trkpt lat="44.1019617" lon="9.95354"><ele>5.0</ele><time>2026-04-07T08:40:47.659Z</time></trkpt><trkpt lat="44.102065" lon="9.953485"><ele>5.0</ele><time>2026-04-07T08:40:48.659Z</time></trkpt><trkpt lat="44.1021533" lon="9.9534067"><ele>5.0</ele><time>2026-04-07T08:40:49.659Z</time></trkpt><trkpt lat="44.1022233" lon="9.9533067"><ele>5.0</ele><time>2026-04-07T08:40:50.66Z</time></trkpt><trkpt lat="44.1022783" lon="9.95319"><ele>5.0</ele><time>2026-04-07T08:40:51.659Z</time></trkpt><trkpt lat="44.1023133" lon="9.9530633"><ele>5.0</ele><time>2026-04-07T08:40:52.659Z</time></trkpt><trkpt lat="44.1023333" lon="9.9529267"><ele>5.2</ele><time>2026-04-07T08:40:53.66Z</time></trkpt><trkpt lat="44.1023367" lon="9.9527867"><ele>5.4</ele><time>2026-04-07T08:40:54.659Z</time></trkpt><trkpt lat="44.1023283" lon="9.952645"><ele>5.6</ele><time>2026-04-07T08:40:55.66Z</time></trkpt><trkpt lat="44.1023083" lon="9.9525067"><ele>5.8</ele><time>2026-04-07T08:40:56.659Z</time></trkpt><trkpt lat="44.1022817" lon="9.9523683"><ele>6.0</ele><time>2026-04-07T08:40:57.659Z</time></trkpt><trkpt lat="44.1022517" lon="9.9522283"><ele>6.4</ele><time>2026-04-07T08:40:58.66Z</time></trkpt><trkpt lat="44.102225" lon="9.9520867"><ele>6.8</ele><time>2026-04-07T08:40:59.659Z</time></trkpt><trkpt lat="44.1022" lon="9.9519433"><ele>7.200000000000001</ele><time>2026-04-07T08:41:00.66Z</time></trkpt><trkpt lat="44.102185" lon="9.9517967"><ele>7.6000000000000005</ele><time>2026-04-07T08:41:01.659Z</time></trkpt><trkpt lat="44.1021767" lon="9.9516467"><ele>8.0</ele><time>2026-04-07T08:41:02.659Z</time></trkpt><trkpt lat="44.1021733" lon="9.9514967"><ele>8.200000000000001</ele><time>2026-04-07T08:41:03.659Z</time></trkpt><trkpt lat="44.1021767" lon="9.9513433"><ele>8.4</ele><time>2026-04-07T08:41:04.659Z</time></trkpt><trkpt lat="44.102185" lon="9.9511933"><ele>8.600000000000001</ele><time>2026-04-07T08:41:05.659Z</time></trkpt><trkpt lat="44.1021967" lon="9.9510417"><ele>8.8</ele><time>2026-04-07T08:41:06.66Z</time></trkpt><trkpt lat="44.10222" lon="9.95089"><ele>9.0</ele><time>2026-04-07T08:41:07.659Z</time></trkpt><trkpt lat="44.102255" lon="9.9507367"><ele>9.0</ele><time>2026-04-07T08:41:08.659Z</time></trkpt><trkpt lat="44.1023" lon="9.9505833"><ele>9.0</ele><time>2026-04-07T08:41:09.659Z</time></trkpt><trkpt lat="44.1023517" lon="9.9504283"><ele>9.0</ele><time>2026-04-07T08:41:10.659Z</time></trkpt><trkpt lat="44.1024183" lon="9.9502767"><ele>9.0</ele><time>2026-04-07T08:41:11.659Z</time></trkpt><trkpt lat="44.1024883" lon="9.95013"><ele>8.25</ele><time>2026-04-07T08:41:12.66Z</time></trkpt><trkpt lat="44.1025683" lon="9.9499883"><ele>7.5</ele><time>2026-04-07T08:41:13.66Z</time></trkpt><trkpt lat="44.1026483" lon="9.9498517"><ele>6.75</ele><time>2026-04-07T08:41:14.659Z</time></trkpt><trkpt lat="44.1027283" lon="9.9497217"><ele>6.0</ele><time>2026-04-07T08:41:15.659Z</time></trkpt><trkpt lat="44.1028067" lon="9.9495933"><ele>6.0</ele><time>2026-04-07T08:41:16.659Z</time></trkpt><trkpt lat="44.1028867" lon="9.9494617"><ele>6.0</ele><time>2026-04-07T08:41:17.659Z</time></trkpt><trkpt lat="44.1029717" lon="9.9493283"><ele>6.0</ele><time>2026-04-07T08:41:18.659Z</time></trkpt><trkpt lat="44.1030633" lon="9.94919"><ele>6.0</ele><time>2026-04-07T08:41:19.659Z</time></trkpt><trkpt lat="44.10316" lon="9.949045"><ele>6.0</ele><time>2026-04-07T08:41:20.659Z</time></trkpt><trkpt lat="44.10326" lon="9.9488983"><ele>6.0</ele><time>2026-04-07T08:41:21.659Z</time></trkpt><trkpt lat="44.1033617" lon="9.9487533"><ele>6.0</ele><time>2026-04-07T08:41:22.659Z</time></trkpt><trkpt lat="44.1034617" lon="9.9486167"><ele>6.0</ele><time>2026-04-07T08:41:23.66Z</time></trkpt><trkpt lat="44.1035633" lon="9.9484817"><ele>6.5</ele><time>2026-04-07T08:41:24.66Z</time></trkpt><trkpt lat="44.1036583" lon="9.948345"><ele>7.0</ele><time>2026-04-07T08:41:25.659Z</time></trkpt><trkpt lat="44.1037533" lon="9.9482133"><ele>7.5</ele><time>2026-04-07T08:41:26.659Z</time></trkpt><trkpt lat="44.10385" lon="9.9480767"><ele>8.0</ele><time>2026-04-07T08:41:27.659Z</time></trkpt><trkpt lat="44.103955" lon="9.9479383"><ele>8.0</ele><time>2026-04-07T08:41:28.659Z</time></trkpt><trkpt lat="44.10407" lon="9.947795"><ele>8.0</ele><time>2026-04-07T08:41:29.659Z</time></trkpt><trkpt lat="44.1041917" lon="9.9476467"><ele>8.0</ele><time>2026-04-07T08:41:30.659Z</time></trkpt><trkpt lat="44.104325" lon="9.9474917"><ele>8.666666666666666</ele><time>2026-04-07T08:41:31.659Z</time></trkpt><trkpt lat="44.1044683" lon="9.9473317"><ele>9.333333333333334</ele><time>2026-04-07T08:41:32.659Z</time></trkpt><trkpt lat="44.1046117" lon="9.9471733"><ele>10.0</ele><time>2026-04-07T08:41:33.66Z</time></trkpt><trkpt lat="44.1047567" lon="9.9470167"><ele>10.0</ele><time>2026-04-07T08:41:34.659Z</time></trkpt><trkpt lat="44.1049033" lon="9.9468583"><ele>10.0</ele><time>2026-04-07T08:41:35.659Z</time></trkpt><trkpt lat="44.105055" lon="9.946705"><ele>10.0</ele><time>2026-04-07T08:41:36.659Z</time></trkpt><trkpt lat="44.10521" lon="9.9465533"><ele>9.666666666666668</ele><time>2026-04-07T08:41:37.659Z</time></trkpt><trkpt lat="44.105365" lon="9.946405"><ele>9.333333333333334</ele><time>2026-04-07T08:41:38.659Z</time></trkpt><trkpt lat="44.1055217" lon="9.94626"><ele>9.0</ele><time>2026-04-07T08:41:39.659Z</time></trkpt><trkpt lat="44.1056833" lon="9.9461183"><ele>8.666666666666666</ele><time>2026-04-07T08:41:40.659Z</time></trkpt><trkpt lat="44.1058467" lon="9.945975"><ele>8.333333333333332</ele><time>2026-04-07T08:41:41.659Z</time></trkpt><trkpt lat="44.1060167" lon="9.94582"><ele>8.0</ele><time>2026-04-07T08:41:42.659Z</time></trkpt><trkpt lat="44.1063933" lon="9.9454933"><ele>7.5</ele><time>2026-04-07T08:41:44.659Z</time></trkpt><trkpt lat="44.1065967" lon="9.9453383"><ele>7.0</ele><time>2026-04-07T08:41:45.659Z</time></trkpt><trkpt lat="44.1068033" lon="9.94519"><ele>7.0</ele><time>2026-04-07T08:41:46.66Z</time></trkpt><trkpt lat="44.107015" lon="9.945045"><ele>7.0</ele><time>2026-04-07T08:41:47.659Z</time></trkpt><trkpt lat="44.1072283" lon="9.944905"><ele>7.5</ele><time>2026-04-07T08:41:48.659Z</time></trkpt><trkpt lat="44.1074467" lon="9.9447683"><ele>8.0</ele><time>2026-04-07T08:41:49.659Z</time></trkpt><trkpt lat="44.1076667" lon="9.944635"><ele>8.0</ele><time>2026-04-07T08:41:50.659Z</time></trkpt><trkpt lat="44.1078883" lon="9.9445033"><ele>8.0</ele><time>2026-04-07T08:41:51.659Z</time></trkpt><trkpt lat="44.1081117" lon="9.9443733"><ele>8.5</ele><time>2026-04-07T08:41:52.659Z</time></trkpt><trkpt lat="44.1083367" lon="9.9442433"><ele>9.0</ele><time>2026-04-07T08:41:53.659Z</time></trkpt><trkpt lat="44.1085633" lon="9.9441133"><ele>9.0</ele><time>2026-04-07T08:41:54.659Z</time></trkpt><trkpt lat="44.108785" lon="9.9439833"><ele>9.0</ele><time>2026-04-07T08:41:55.66Z</time></trkpt><trkpt lat="44.1090083" lon="9.9438517"><ele>9.5</ele><time>2026-04-07T08:41:56.66Z</time></trkpt><trkpt lat="44.10923" lon="9.94372"><ele>10.0</ele><time>2026-04-07T08:41:57.659Z</time></trkpt><trkpt lat="44.10945" lon="9.9435883"><ele>10.0</ele><time>2026-04-07T08:41:58.659Z</time></trkpt><trkpt lat="44.1096717" lon="9.94346"><ele>10.0</ele><time>2026-04-07T08:41:59.66Z</time></trkpt><trkpt lat="44.109895" lon="9.9433283"><ele>11.0</ele><time>2026-04-07T08:42:00.66Z</time></trkpt><trkpt lat="44.1101167" lon="9.9432"><ele>12.0</ele><time>2026-04-07T08:42:01.659Z</time></trkpt><trkpt lat="44.11034" lon="9.9430733"><ele>12.0</ele><time>2026-04-07T08:42:02.66Z</time></trkpt><trkpt lat="44.1105617" lon="9.942945"><ele>12.0</ele><time>2026-04-07T08:42:03.66Z</time></trkpt><trkpt lat="44.11078" lon="9.9428133"><ele>11.0</ele><time>2026-04-07T08:42:04.659Z</time></trkpt><trkpt lat="44.111" lon="9.9426817"><ele>10.0</ele><time>2026-04-07T08:42:05.659Z</time></trkpt><trkpt lat="44.1112183" lon="9.9425517"><ele>10.0</ele><time>2026-04-07T08:42:06.66Z</time></trkpt><trkpt lat="44.11144" lon="9.9424267"><ele>10.0</ele><time>2026-04-07T08:42:07.659Z</time></trkpt><trkpt lat="44.11166" lon="9.942305"><ele>10.0</ele><time>2026-04-07T08:42:08.66Z</time></trkpt><trkpt lat="44.1118833" lon="9.9421867"><ele>10.0</ele><time>2026-04-07T08:42:09.659Z</time></trkpt><trkpt lat="44.1121067" lon="9.9420667"><ele>10.0</ele><time>2026-04-07T08:42:10.66Z</time></trkpt><trkpt lat="44.11233" lon="9.9419467"><ele>10.0</ele><time>2026-04-07T08:42:11.66Z</time></trkpt><trkpt lat="44.112555" lon="9.9418233"><ele>9.0</ele><time>2026-04-07T08:42:12.659Z</time></trkpt><trkpt lat="44.1127783" lon="9.941695"><ele>8.0</ele><time>2026-04-07T08:42:13.659Z</time></trkpt><trkpt lat="44.1129983" lon="9.941565"><ele>8.0</ele><time>2026-04-07T08:42:14.659Z</time></trkpt><trkpt lat="44.11322" lon="9.9414317"><ele>8.0</ele><time>2026-04-07T08:42:15.659Z</time></trkpt><trkpt lat="44.1134417" lon="9.9413033"><ele>8.0</ele><time>2026-04-07T08:42:16.659Z</time></trkpt><trkpt lat="44.1136667" lon="9.9411733"><ele>8.0</ele><time>2026-04-07T08:42:17.659Z</time></trkpt><trkpt lat="44.1138917" lon="9.9410483"><ele>8.0</ele><time>2026-04-07T08:42:18.659Z</time></trkpt><trkpt lat="44.1141133" lon="9.9409233"><ele>8.0</ele><time>2026-04-07T08:42:19.66Z</time></trkpt><trkpt lat="44.1143367" lon="9.9407967"><ele>7.0</ele><time>2026-04-07T08:42:20.659Z</time></trkpt><trkpt lat="44.1145617" lon="9.94067"><ele>6.0</ele><time>2026-04-07T08:42:21.659Z</time></trkpt><trkpt lat="44.1147833" lon="9.9405417"><ele>6.5</ele><time>2026-04-07T08:42:22.659Z</time></trkpt><trkpt lat="44.115005" lon="9.9404083"><ele>7.0</ele><time>2026-04-07T08:42:23.659Z</time></trkpt><trkpt lat="44.1152233" lon="9.940275"><ele>7.0</ele><time>2026-04-07T08:42:24.66Z</time></trkpt><trkpt lat="44.1154433" lon="9.9401433"><ele>7.0</ele><time>2026-04-07T08:42:25.659Z</time></trkpt><trkpt lat="44.1156633" lon="9.94001"><ele>8.0</ele><time>2026-04-07T08:42:26.659Z</time></trkpt><trkpt lat="44.1158833" lon="9.9398783"><ele>9.0</ele><time>2026-04-07T08:42:27.659Z</time></trkpt><trkpt lat="44.116105" lon="9.93975"><ele>9.0</ele><time>2026-04-07T08:42:28.659Z</time></trkpt><trkpt lat="44.1163267" lon="9.93962"><ele>9.0</ele><time>2026-04-07T08:42:29.659Z</time></trkpt><trkpt lat="44.11655" lon="9.9394917"><ele>10.0</ele><time>2026-04-07T08:42:30.659Z</time></trkpt><trkpt lat="44.1167717" lon="9.9393633"><ele>11.0</ele><time>2026-04-07T08:42:31.659Z</time></trkpt><trkpt lat="44.116995" lon="9.9392317"><ele>10.5</ele><time>2026-04-07T08:42:32.66Z</time></trkpt><trkpt lat="44.1172167" lon="9.9390983"><ele>10.0</ele><time>2026-04-07T08:42:33.659Z</time></trkpt><trkpt lat="44.1174417" lon="9.9389683"><ele>10.0</ele><time>2026-04-07T08:42:34.659Z</time></trkpt><trkpt lat="44.117665" lon="9.9388367"><ele>10.0</ele><time>2026-04-07T08:42:35.66Z</time></trkpt><trkpt lat="44.1178933" lon="9.9387067"><ele>10.0</ele><time>2026-04-07T08:42:36.659Z</time></trkpt><trkpt lat="44.1181217" lon="9.938575"><ele>10.0</ele><time>2026-04-07T08:42:37.659Z</time></trkpt><trkpt lat="44.1183533" lon="9.938445"><ele>10.0</ele><time>2026-04-07T08:42:38.66Z</time></trkpt><trkpt lat="44.11858" lon="9.9383117"><ele>10.0</ele><time>2026-04-07T08:42:39.659Z</time></trkpt><trkpt lat="44.1188033" lon="9.93818"><ele>10.0</ele><time>2026-04-07T08:42:40.659Z</time></trkpt><trkpt lat="44.11903" lon="9.9380467"><ele>10.0</ele><time>2026-04-07T08:42:41.66Z</time></trkpt><trkpt lat="44.119255" lon="9.9379117"><ele>10.5</ele><time>2026-04-07T08:42:42.659Z</time></trkpt><trkpt lat="44.1194817" lon="9.93778"><ele>11.0</ele><time>2026-04-07T08:42:43.659Z</time></trkpt><trkpt lat="44.11971" lon="9.9376483"><ele>10.0</ele><time>2026-04-07T08:42:44.659Z</time></trkpt><trkpt lat="44.1199367" lon="9.93751"><ele>9.0</ele><time>2026-04-07T08:42:45.659Z</time></trkpt><trkpt lat="44.12016" lon="9.9373717"><ele>9.0</ele><time>2026-04-07T08:42:46.66Z</time></trkpt><trkpt lat="44.1203817" lon="9.9372267"><ele>9.0</ele><time>2026-04-07T08:42:47.659Z</time></trkpt><trkpt lat="44.1206033" lon="9.93708"><ele>9.0</ele><time>2026-04-07T08:42:48.659Z</time></trkpt><trkpt lat="44.1208167" lon="9.9369233"><ele>9.0</ele><time>2026-04-07T08:42:49.659Z</time></trkpt><trkpt lat="44.1210317" lon="9.9367667"><ele>8.5</ele><time>2026-04-07T08:42:50.659Z</time></trkpt><trkpt lat="44.1212467" lon="9.9366067"><ele>8.0</ele><time>2026-04-07T08:42:51.659Z</time></trkpt><trkpt lat="44.12146" lon="9.9364417"><ele>8.5</ele><time>2026-04-07T08:42:52.66Z</time></trkpt><trkpt lat="44.1216717" lon="9.9362733"><ele>9.0</ele><time>2026-04-07T08:42:53.659Z</time></trkpt><trkpt lat="44.12188" lon="9.9360967"><ele>9.0</ele><time>2026-04-07T08:42:54.659Z</time></trkpt><trkpt lat="44.1220883" lon="9.9359117"><ele>9.0</ele><time>2026-04-07T08:42:55.659Z</time></trkpt><trkpt lat="44.1222933" lon="9.9357283"><ele>9.0</ele><time>2026-04-07T08:42:56.659Z</time></trkpt><trkpt lat="44.1224983" lon="9.9355417"><ele>9.0</ele><time>2026-04-07T08:42:57.659Z</time></trkpt><trkpt lat="44.1227" lon="9.9353517"><ele>9.0</ele><time>2026-04-07T08:42:58.659Z</time></trkpt><trkpt lat="44.1229" lon="9.9351583"><ele>9.0</ele><time>2026-04-07T08:42:59.659Z</time></trkpt><trkpt lat="44.1230967" lon="9.9349617"><ele>9.5</ele><time>2026-04-07T08:43:00.659Z</time></trkpt><trkpt lat="44.1232933" lon="9.9347583"><ele>10.0</ele><time>2026-04-07T08:43:01.659Z</time></trkpt><trkpt lat="44.1234867" lon="9.9345533"><ele>10.0</ele><time>2026-04-07T08:43:02.66Z</time></trkpt><trkpt lat="44.1236817" lon="9.934345"><ele>10.0</ele><time>2026-04-07T08:43:03.659Z</time></trkpt><trkpt lat="44.123875" lon="9.9341333"><ele>10.5</ele><time>2026-04-07T08:43:04.659Z</time></trkpt><trkpt lat="44.1240667" lon="9.933915"><ele>11.0</ele><time>2026-04-07T08:43:05.659Z</time></trkpt><trkpt lat="44.1242583" lon="9.9336867"><ele>11.0</ele><time>2026-04-07T08:43:06.659Z</time></trkpt><trkpt lat="44.1244467" lon="9.933455"><ele>11.0</ele><time>2026-04-07T08:43:07.659Z</time></trkpt><trkpt lat="44.1246333" lon="9.9332233"><ele>11.0</ele><time>2026-04-07T08:43:08.659Z</time></trkpt><trkpt lat="44.1248183" lon="9.9329883"><ele>11.0</ele><time>2026-04-07T08:43:09.659Z</time></trkpt><trkpt lat="44.1250033" lon="9.9327483"><ele>10.0</ele><time>2026-04-07T08:43:10.659Z</time></trkpt><trkpt lat="44.12519" lon="9.9325083"><ele>9.0</ele><time>2026-04-07T08:43:11.659Z</time></trkpt><trkpt lat="44.1253683" lon="9.932275"><ele>9.0</ele><time>2026-04-07T08:43:12.659Z</time></trkpt><trkpt lat="44.1255533" lon="9.932045"><ele>9.0</ele><time>2026-04-07T08:43:13.659Z</time></trkpt><trkpt lat="44.1257383" lon="9.9318133"><ele>10.5</ele><time>2026-04-07T08:43:14.659Z</time></trkpt><trkpt lat="44.12592" lon="9.9315783"><ele>12.0</ele><time>2026-04-07T08:43:15.659Z</time></trkpt><trkpt lat="44.1261033" lon="9.93134"><ele>12.0</ele><time>2026-04-07T08:43:16.659Z</time></trkpt><trkpt lat="44.1262867" lon="9.9311067"><ele>12.0</ele><time>2026-04-07T08:43:17.659Z</time></trkpt><trkpt lat="44.1264717" lon="9.9308683"><ele>12.5</ele><time>2026-04-07T08:43:18.659Z</time></trkpt><trkpt lat="44.126655" lon="9.9306333"><ele>13.0</ele><time>2026-04-07T08:43:19.659Z</time></trkpt><trkpt lat="44.1268367" lon="9.9303933"><ele>13.0</ele><time>2026-04-07T08:43:20.659Z</time></trkpt><trkpt lat="44.1270233" lon="9.930155"><ele>13.0</ele><time>2026-04-07T08:43:21.659Z</time></trkpt><trkpt lat="44.1272083" lon="9.92991"><ele>12.0</ele><time>2026-04-07T08:43:22.659Z</time></trkpt><trkpt lat="44.1273883" lon="9.9296717"><ele>11.0</ele><time>2026-04-07T08:43:23.659Z</time></trkpt><trkpt lat="44.1275733" lon="9.9294317"><ele>10.0</ele><time>2026-04-07T08:43:24.659Z</time></trkpt><trkpt lat="44.1277583" lon="9.9291933"><ele>9.0</ele><time>2026-04-07T08:43:25.659Z</time></trkpt><trkpt lat="44.1279433" lon="9.928955"><ele>9.0</ele><time>2026-04-07T08:43:26.659Z</time></trkpt><trkpt lat="44.1281267" lon="9.928715"><ele>9.0</ele><time>2026-04-07T08:43:27.659Z</time></trkpt><trkpt lat="44.12831" lon="9.92848"><ele>10.5</ele><time>2026-04-07T08:43:28.659Z</time></trkpt><trkpt lat="44.1284967" lon="9.9282483"><ele>12.0</ele><time>2026-04-07T08:43:29.659Z</time></trkpt><trkpt lat="44.1286833" lon="9.9280133"><ele>12.0</ele><time>2026-04-07T08:43:30.66Z</time></trkpt><trkpt lat="44.1288683" lon="9.92778"><ele>12.0</ele><time>2026-04-07T08:43:31.659Z</time></trkpt><trkpt lat="44.1290533" lon="9.9275417"><ele>12.0</ele><time>2026-04-07T08:43:32.659Z</time></trkpt><trkpt lat="44.12924" lon="9.927305"><ele>12.0</ele><time>2026-04-07T08:43:33.66Z</time></trkpt><trkpt lat="44.1294267" lon="9.9270667"><ele>12.0</ele><time>2026-04-07T08:43:34.659Z</time></trkpt><trkpt lat="44.12961" lon="9.926825"><ele>12.0</ele><time>2026-04-07T08:43:35.659Z</time></trkpt><trkpt lat="44.1297933" lon="9.926585"><ele>12.0</ele><time>2026-04-07T08:43:36.66Z</time></trkpt><trkpt lat="44.129975" lon="9.9263517"><ele>12.0</ele><time>2026-04-07T08:43:37.659Z</time></trkpt><trkpt lat="44.1301583" lon="9.926115"><ele>11.5</ele><time>2026-04-07T08:43:38.659Z</time></trkpt><trkpt lat="44.1303417" lon="9.92588"><ele>11.0</ele><time>2026-04-07T08:43:39.66Z</time></trkpt><trkpt lat="44.1305267" lon="9.9256467"><ele>11.0</ele><time>2026-04-07T08:43:40.659Z</time></trkpt><trkpt lat="44.1307117" lon="9.9254133"><ele>11.0</ele><time>2026-04-07T08:43:41.659Z</time></trkpt><trkpt lat="44.1308933" lon="9.9251783"><ele>11.5</ele><time>2026-04-07T08:43:42.659Z</time></trkpt><trkpt lat="44.131075" lon="9.9249417"><ele>12.0</ele><time>2026-04-07T08:43:43.659Z</time></trkpt><trkpt lat="44.1312567" lon="9.9247017"><ele>12.0</ele><time>2026-04-07T08:43:44.659Z</time></trkpt><trkpt lat="44.1314417" lon="9.9244617"><ele>12.0</ele><time>2026-04-07T08:43:45.659Z</time></trkpt><trkpt lat="44.1316233" lon="9.9242233"><ele>12.5</ele><time>2026-04-07T08:43:46.659Z</time></trkpt><trkpt lat="44.131805" lon="9.9239833"><ele>13.0</ele><time>2026-04-07T08:43:47.659Z</time></trkpt><trkpt lat="44.1319883" lon="9.9237483"><ele>13.0</ele><time>2026-04-07T08:43:48.659Z</time></trkpt><trkpt lat="44.13217" lon="9.9235133"><ele>13.0</ele><time>2026-04-07T08:43:49.66Z</time></trkpt><trkpt lat="44.132355" lon="9.9232783"><ele>12.5</ele><time>2026-04-07T08:43:50.659Z</time></trkpt><trkpt lat="44.13254" lon="9.9230483"><ele>12.0</ele><time>2026-04-07T08:43:51.659Z</time></trkpt><trkpt lat="44.1327317" lon="9.9228067"><ele>12.0</ele><time>2026-04-07T08:43:52.66Z</time></trkpt><trkpt lat="44.1329183" lon="9.9225683"><ele>12.0</ele><time>2026-04-07T08:43:53.659Z</time></trkpt><trkpt lat="44.133105" lon="9.9223267"><ele>11.5</ele><time>2026-04-07T08:43:54.659Z</time></trkpt><trkpt lat="44.1332867" lon="9.9220867"><ele>11.0</ele><time>2026-04-07T08:43:55.659Z</time></trkpt><trkpt lat="44.13347" lon="9.9218483"><ele>10.5</ele><time>2026-04-07T08:43:56.659Z</time></trkpt><trkpt lat="44.133655" lon="9.92161"><ele>10.0</ele><time>2026-04-07T08:43:57.659Z</time></trkpt><trkpt lat="44.1338383" lon="9.9213717"><ele>10.0</ele><time>2026-04-07T08:43:58.66Z</time></trkpt><trkpt lat="44.1340267" lon="9.92113"><ele>10.0</ele><time>2026-04-07T08:43:59.659Z</time></trkpt><trkpt lat="44.1342133" lon="9.92089"><ele>9.5</ele><time>2026-04-07T08:44:00.659Z</time></trkpt><trkpt lat="44.1344017" lon="9.9206483"><ele>9.0</ele><time>2026-04-07T08:44:01.66Z</time></trkpt><trkpt lat="44.13459" lon="9.9204033"><ele>9.0</ele><time>2026-04-07T08:44:02.659Z</time></trkpt><trkpt lat="44.13478" lon="9.92016"><ele>9.0</ele><time>2026-04-07T08:44:03.659Z</time></trkpt><trkpt lat="44.1349717" lon="9.919915"><ele>11.5</ele><time>2026-04-07T08:44:04.659Z</time></trkpt><trkpt lat="44.1351617" lon="9.9196683"><ele>14.0</ele><time>2026-04-07T08:44:05.659Z</time></trkpt><trkpt lat="44.1353517" lon="9.9194217"><ele>14.0</ele><time>2026-04-07T08:44:06.659Z</time></trkpt><trkpt lat="44.1355383" lon="9.9191783"><ele>14.0</ele><time>2026-04-07T08:44:07.659Z</time></trkpt><trkpt lat="44.13573" lon="9.918935"><ele>11.5</ele><time>2026-04-07T08:44:08.659Z</time></trkpt><trkpt lat="44.1359233" lon="9.9186867"><ele>9.0</ele><time>2026-04-07T08:44:09.659Z</time></trkpt><trkpt lat="44.136115" lon="9.91844"><ele>10.0</ele><time>2026-04-07T08:44:10.659Z</time></trkpt><trkpt lat="44.13631" lon="9.9181917"><ele>11.0</ele><time>2026-04-07T08:44:11.659Z</time></trkpt><trkpt lat="44.136505" lon="9.9179417"><ele>11.5</ele><time>2026-04-07T08:44:12.659Z</time></trkpt><trkpt lat="44.1366983" lon="9.9176933"><ele>12.0</ele><time>2026-04-07T08:44:13.659Z</time></trkpt><trkpt lat="44.1368917" lon="9.9174467"><ele>12.5</ele><time>2026-04-07T08:44:14.659Z</time></trkpt><trkpt lat="44.13708" lon="9.917205"><ele>13.0</ele><time>2026-04-07T08:44:15.659Z</time></trkpt><trkpt lat="44.13727" lon="9.9169583"><ele>14.0</ele><time>2026-04-07T08:44:16.66Z</time></trkpt><trkpt lat="44.1374583" lon="9.9167117"><ele>15.0</ele><time>2026-04-07T08:44:17.66Z</time></trkpt><trkpt lat="44.137645" lon="9.9164683"><ele>15.0</ele><time>2026-04-07T08:44:18.659Z</time></trkpt><trkpt lat="44.13783" lon="9.916225"><ele>15.0</ele><time>2026-04-07T08:44:19.659Z</time></trkpt><trkpt lat="44.1380183" lon="9.9159817"><ele>14.5</ele><time>2026-04-07T08:44:20.659Z</time></trkpt><trkpt lat="44.1382083" lon="9.9157433"><ele>14.0</ele><time>2026-04-07T08:44:21.659Z</time></trkpt><trkpt lat="44.1383967" lon="9.9155017"><ele>14.0</ele><time>2026-04-07T08:44:22.659Z</time></trkpt><trkpt lat="44.1385833" lon="9.91526"><ele>14.0</ele><time>2026-04-07T08:44:23.66Z</time></trkpt><trkpt lat="44.1387683" lon="9.9150233"><ele>14.0</ele><time>2026-04-07T08:44:24.659Z</time></trkpt><trkpt lat="44.1389517" lon="9.9147933"><ele>14.0</ele><time>2026-04-07T08:44:25.659Z</time></trkpt><trkpt lat="44.139135" lon="9.91457"><ele>14.0</ele><time>2026-04-07T08:44:26.659Z</time></trkpt><trkpt lat="44.1393183" lon="9.914355"><ele>14.0</ele><time>2026-04-07T08:44:27.659Z</time></trkpt><trkpt lat="44.1395017" lon="9.91415"><ele>14.0</ele><time>2026-04-07T08:44:28.659Z</time></trkpt><trkpt lat="44.1396833" lon="9.913945"><ele>14.0</ele><time>2026-04-07T08:44:29.659Z</time></trkpt><trkpt lat="44.1398667" lon="9.913745"><ele>14.5</ele><time>2026-04-07T08:44:30.659Z</time></trkpt><trkpt lat="44.140055" lon="9.9135533"><ele>15.0</ele><time>2026-04-07T08:44:31.659Z</time></trkpt><trkpt lat="44.14024" lon="9.913365"><ele>15.5</ele><time>2026-04-07T08:44:32.659Z</time></trkpt><trkpt lat="44.14043" lon="9.9131817"><ele>16.0</ele><time>2026-04-07T08:44:33.659Z</time></trkpt><trkpt lat="44.14062" lon="9.9130017"><ele>15.0</ele><time>2026-04-07T08:44:34.659Z</time></trkpt><trkpt lat="44.140815" lon="9.91282"><ele>14.0</ele><time>2026-04-07T08:44:35.659Z</time></trkpt><trkpt lat="44.1410117" lon="9.912635"><ele>14.5</ele><time>2026-04-07T08:44:36.659Z</time></trkpt><trkpt lat="44.1412117" lon="9.9124567"><ele>15.0</ele><time>2026-04-07T08:44:37.659Z</time></trkpt><trkpt lat="44.14141" lon="9.9122783"><ele>14.5</ele><time>2026-04-07T08:44:38.659Z</time></trkpt><trkpt lat="44.14161" lon="9.9121067"><ele>14.0</ele><time>2026-04-07T08:44:39.659Z</time></trkpt><trkpt lat="44.1418133" lon="9.9119383"><ele>14.0</ele><time>2026-04-07T08:44:40.659Z</time></trkpt><trkpt lat="44.142015" lon="9.9117767"><ele>14.0</ele><time>2026-04-07T08:44:41.659Z</time></trkpt><trkpt lat="44.14222" lon="9.9116183"><ele>16.0</ele><time>2026-04-07T08:44:42.659Z</time></trkpt><trkpt lat="44.1424283" lon="9.9114633"><ele>18.0</ele><time>2026-04-07T08:44:43.659Z</time></trkpt><trkpt lat="44.1426317" lon="9.9113067"><ele>18.0</ele><time>2026-04-07T08:44:44.659Z</time></trkpt><trkpt lat="44.1428383" lon="9.911145"><ele>18.0</ele><time>2026-04-07T08:44:45.66Z</time></trkpt><trkpt lat="44.143045" lon="9.910985"><ele>19.0</ele><time>2026-04-07T08:44:46.659Z</time></trkpt><trkpt lat="44.1432517" lon="9.9108233"><ele>20.0</ele><time>2026-04-07T08:44:47.659Z</time></trkpt><trkpt lat="44.1434583" lon="9.9106633"><ele>20.0</ele><time>2026-04-07T08:44:48.659Z</time></trkpt><trkpt lat="44.143665" lon="9.9105"><ele>20.0</ele><time>2026-04-07T08:44:49.659Z</time></trkpt><trkpt lat="44.14387" lon="9.9103367"><ele>18.0</ele><time>2026-04-07T08:44:50.659Z</time></trkpt><trkpt lat="44.1440733" lon="9.9101733"><ele>16.0</ele><time>2026-04-07T08:44:51.659Z</time></trkpt><trkpt lat="44.1442783" lon="9.9100117"><ele>16.0</ele><time>2026-04-07T08:44:52.659Z</time></trkpt><trkpt lat="44.1444733" lon="9.90986"><ele>16.0</ele><time>2026-04-07T08:44:53.659Z</time></trkpt><trkpt lat="44.1446467" lon="9.9097233"><ele>16.0</ele><time>2026-04-07T08:44:54.659Z</time></trkpt><trkpt lat="44.1447933" lon="9.9096083"><ele>15.666666666666666</ele><time>2026-04-07T08:44:55.659Z</time></trkpt><trkpt lat="44.14493" lon="9.9095033"><ele>15.333333333333332</ele><time>2026-04-07T08:44:56.659Z</time></trkpt><trkpt lat="44.1450633" lon="9.9094"><ele>15.0</ele><time>2026-04-07T08:44:57.659Z</time></trkpt><trkpt lat="44.1452" lon="9.9093"><ele>15.0</ele><time>2026-04-07T08:44:58.659Z</time></trkpt><trkpt lat="44.145335" lon="9.9091983"><ele>15.0</ele><time>2026-04-07T08:44:59.659Z</time></trkpt><trkpt lat="44.1454717" lon="9.90909"><ele>15.0</ele><time>2026-04-07T08:45:00.659Z</time></trkpt><trkpt lat="44.1456117" lon="9.9089717"><ele>14.0</ele><time>2026-04-07T08:45:01.659Z</time></trkpt><trkpt lat="44.145765" lon="9.908845"><ele>13.0</ele><time>2026-04-07T08:45:02.659Z</time></trkpt><trkpt lat="44.1459367" lon="9.9087017"><ele>12.0</ele><time>2026-04-07T08:45:03.659Z</time></trkpt><trkpt lat="44.146115" lon="9.90855"><ele>12.333333333333332</ele><time>2026-04-07T08:45:04.659Z</time></trkpt><trkpt lat="44.1463017" lon="9.9083967"><ele>12.666666666666666</ele><time>2026-04-07T08:45:05.659Z</time></trkpt><trkpt lat="44.1465" lon="9.9082467"><ele>13.0</ele><time>2026-04-07T08:45:06.659Z</time></trkpt><trkpt lat="44.1467017" lon="9.9080933"><ele>13.5</ele><time>2026-04-07T08:45:07.66Z</time></trkpt><trkpt lat="44.1469017" lon="9.9079383"><ele>14.0</ele><time>2026-04-07T08:45:08.659Z</time></trkpt><trkpt lat="44.147105" lon="9.90778"><ele>14.0</ele><time>2026-04-07T08:45:09.659Z</time></trkpt><trkpt lat="44.1473117" lon="9.90762"><ele>14.0</ele><time>2026-04-07T08:45:10.659Z</time></trkpt><trkpt lat="44.1475233" lon="9.90746"><ele>14.5</ele><time>2026-04-07T08:45:11.659Z</time></trkpt><trkpt lat="44.1477317" lon="9.9073"><ele>15.0</ele><time>2026-04-07T08:45:12.659Z</time></trkpt><trkpt lat="44.1479467" lon="9.907135"><ele>15.0</ele><time>2026-04-07T08:45:13.659Z</time></trkpt><trkpt lat="44.1481767" lon="9.9069583"><ele>15.0</ele><time>2026-04-07T08:45:14.66Z</time></trkpt><trkpt lat="44.1484217" lon="9.9067717"><ele>15.0</ele><time>2026-04-07T08:45:15.659Z</time></trkpt><trkpt lat="44.14868" lon="9.906565"><ele>15.0</ele><time>2026-04-07T08:45:16.659Z</time></trkpt><trkpt lat="44.1489533" lon="9.9063567"><ele>14.5</ele><time>2026-04-07T08:45:17.659Z</time></trkpt><trkpt lat="44.1492333" lon="9.9061417"><ele>14.0</ele><time>2026-04-07T08:45:18.66Z</time></trkpt><trkpt lat="44.1495033" lon="9.9059367"><ele>14.5</ele><time>2026-04-07T08:45:19.659Z</time></trkpt><trkpt lat="44.1497667" lon="9.90573"><ele>15.0</ele><time>2026-04-07T08:45:20.659Z</time></trkpt><trkpt lat="44.150025" lon="9.9055283"><ele>16.0</ele><time>2026-04-07T08:45:21.659Z</time></trkpt><trkpt lat="44.150275" lon="9.9053333"><ele>17.0</ele><time>2026-04-07T08:45:22.659Z</time></trkpt><trkpt lat="44.1505217" lon="9.9051433"><ele>17.5</ele><time>2026-04-07T08:45:23.659Z</time></trkpt><trkpt lat="44.15076" lon="9.904955"><ele>18.0</ele><time>2026-04-07T08:45:24.659Z</time></trkpt><trkpt lat="44.1509967" lon="9.9047717"><ele>18.0</ele><time>2026-04-07T08:45:25.659Z</time></trkpt><trkpt lat="44.1512317" lon="9.9045933"><ele>18.0</ele><time>2026-04-07T08:45:26.659Z</time></trkpt><trkpt lat="44.1514617" lon="9.9044217"><ele>18.5</ele><time>2026-04-07T08:45:27.659Z</time></trkpt><trkpt lat="44.1516867" lon="9.9042517"><ele>19.0</ele><time>2026-04-07T08:45:28.659Z</time></trkpt><trkpt lat="44.1519067" lon="9.9040783"><ele>21.5</ele><time>2026-04-07T08:45:29.659Z</time></trkpt><trkpt lat="44.15212" lon="9.9039"><ele>24.0</ele><time>2026-04-07T08:45:30.659Z</time></trkpt><trkpt lat="44.152325" lon="9.9037217"><ele>22.0</ele><time>2026-04-07T08:45:31.659Z</time></trkpt><trkpt lat="44.1525233" lon="9.903545"><ele>20.0</ele><time>2026-04-07T08:45:32.66Z</time></trkpt><trkpt lat="44.1527133" lon="9.9033717"><ele>20.0</ele><time>2026-04-07T08:45:33.659Z</time></trkpt><trkpt lat="44.1528983" lon="9.9031967"><ele>20.0</ele><time>2026-04-07T08:45:34.659Z</time></trkpt><trkpt lat="44.15308" lon="9.9030183"><ele>20.0</ele><time>2026-04-07T08:45:35.659Z</time></trkpt><trkpt lat="44.15326" lon="9.9028317"><ele>20.0</ele><time>2026-04-07T08:45:36.659Z</time></trkpt><trkpt lat="44.15344" lon="9.902645"><ele>20.0</ele><time>2026-04-07T08:45:37.659Z</time></trkpt><trkpt lat="44.15362" lon="9.9024533"><ele>21.0</ele><time>2026-04-07T08:45:38.659Z</time></trkpt><trkpt lat="44.1537967" lon="9.9022583"><ele>22.0</ele><time>2026-04-07T08:45:39.659Z</time></trkpt><trkpt lat="44.153975" lon="9.9020583"><ele>22.5</ele><time>2026-04-07T08:45:40.659Z</time></trkpt><trkpt lat="44.1541517" lon="9.9018533"><ele>23.0</ele><time>2026-04-07T08:45:41.659Z</time></trkpt><trkpt lat="44.154325" lon="9.9016433"><ele>23.5</ele><time>2026-04-07T08:45:42.659Z</time></trkpt><trkpt lat="44.1544967" lon="9.9014283"><ele>24.0</ele><time>2026-04-07T08:45:43.66Z</time></trkpt><trkpt lat="44.154665" lon="9.9012067"><ele>24.0</ele><time>2026-04-07T08:45:44.659Z</time></trkpt><trkpt lat="44.15483" lon="9.9009817"><ele>24.0</ele><time>2026-04-07T08:45:45.659Z</time></trkpt><trkpt lat="44.15499" lon="9.9007533"><ele>24.5</ele><time>2026-04-07T08:45:46.659Z</time></trkpt><trkpt lat="44.15515" lon="9.9005183"><ele>25.0</ele><time>2026-04-07T08:45:47.66Z</time></trkpt><trkpt lat="44.155305" lon="9.9002783"><ele>23.5</ele><time>2026-04-07T08:45:48.66Z</time></trkpt><trkpt lat="44.1554583" lon="9.900035"><ele>22.0</ele><time>2026-04-07T08:45:49.66Z</time></trkpt><trkpt lat="44.155605" lon="9.8997917"><ele>22.0</ele><time>2026-04-07T08:45:50.66Z</time></trkpt><trkpt lat="44.15575" lon="9.8995483"><ele>22.0</ele><time>2026-04-07T08:45:51.659Z</time></trkpt><trkpt lat="44.155895" lon="9.8993017"><ele>22.0</ele><time>2026-04-07T08:45:52.659Z</time></trkpt><trkpt lat="44.1560367" lon="9.8990517"><ele>22.0</ele><time>2026-04-07T08:45:53.66Z</time></trkpt><trkpt lat="44.1561783" lon="9.8988017"><ele>22.0</ele><time>2026-04-07T08:45:54.659Z</time></trkpt><trkpt lat="44.156315" lon="9.8985483"><ele>22.0</ele><time>2026-04-07T08:45:55.66Z</time></trkpt><trkpt lat="44.1564467" lon="9.8982933"><ele>22.5</ele><time>2026-04-07T08:45:56.66Z</time></trkpt><trkpt lat="44.1565767" lon="9.898035"><ele>23.0</ele><time>2026-04-07T08:45:57.659Z</time></trkpt><trkpt lat="44.156705" lon="9.8977733"><ele>23.0</ele><time>2026-04-07T08:45:58.659Z</time></trkpt><trkpt lat="44.1568283" lon="9.89751"><ele>23.0</ele><time>2026-04-07T08:45:59.659Z</time></trkpt><trkpt lat="44.156945" lon="9.8972417"><ele>23.0</ele><time>2026-04-07T08:46:00.659Z</time></trkpt><trkpt lat="44.15706" lon="9.896975"><ele>23.0</ele><time>2026-04-07T08:46:01.659Z</time></trkpt><trkpt lat="44.1571717" lon="9.8967083"><ele>23.0</ele><time>2026-04-07T08:46:02.659Z</time></trkpt><trkpt lat="44.1572783" lon="9.89644"><ele>23.0</ele><time>2026-04-07T08:46:03.659Z</time></trkpt><trkpt lat="44.1573883" lon="9.8961667"><ele>23.0</ele><time>2026-04-07T08:46:04.659Z</time></trkpt><trkpt lat="44.1574933" lon="9.895895"><ele>23.0</ele><time>2026-04-07T08:46:05.659Z</time></trkpt><trkpt lat="44.1575983" lon="9.8956217"><ele>23.0</ele><time>2026-04-07T08:46:06.659Z</time></trkpt><trkpt lat="44.1577083" lon="9.89535"><ele>23.0</ele><time>2026-04-07T08:46:07.659Z</time></trkpt><trkpt lat="44.157815" lon="9.895075"><ele>23.0</ele><time>2026-04-07T08:46:08.659Z</time></trkpt><trkpt lat="44.1579217" lon="9.8948033"><ele>23.0</ele><time>2026-04-07T08:46:09.659Z</time></trkpt><trkpt lat="44.1580283" lon="9.8945333"><ele>23.0</ele><time>2026-04-07T08:46:10.66Z</time></trkpt><trkpt lat="44.1581317" lon="9.8942617"><ele>23.0</ele><time>2026-04-07T08:46:11.659Z</time></trkpt><trkpt lat="44.158235" lon="9.8939867"><ele>22.666666666666668</ele><time>2026-04-07T08:46:12.659Z</time></trkpt><trkpt lat="44.158345" lon="9.8937133"><ele>22.333333333333332</ele><time>2026-04-07T08:46:13.659Z</time></trkpt><trkpt lat="44.1584517" lon="9.8934383"><ele>22.0</ele><time>2026-04-07T08:46:14.659Z</time></trkpt><trkpt lat="44.1585567" lon="9.8931683"><ele>21.666666666666664</ele><time>2026-04-07T08:46:15.659Z</time></trkpt><trkpt lat="44.15866" lon="9.892895"><ele>21.333333333333332</ele><time>2026-04-07T08:46:16.659Z</time></trkpt><trkpt lat="44.158765" lon="9.892625"><ele>21.0</ele><time>2026-04-07T08:46:17.66Z</time></trkpt><trkpt lat="44.1588667" lon="9.892355"><ele>20.666666666666668</ele><time>2026-04-07T08:46:18.659Z</time></trkpt><trkpt lat="44.1589733" lon="9.8920867"><ele>20.333333333333336</ele><time>2026-04-07T08:46:19.659Z</time></trkpt><trkpt lat="44.1590767" lon="9.891815"><ele>20.0</ele><time>2026-04-07T08:46:20.659Z</time></trkpt><trkpt lat="44.1591817" lon="9.891545"><ele>20.333333333333336</ele><time>2026-04-07T08:46:21.66Z</time></trkpt><trkpt lat="44.159285" lon="9.8912717"><ele>20.666666666666668</ele><time>2026-04-07T08:46:22.659Z</time></trkpt><trkpt lat="44.1593883" lon="9.8910033"><ele>21.0</ele><time>2026-04-07T08:46:23.659Z</time></trkpt><trkpt lat="44.15949" lon="9.8907367"><ele>21.0</ele><time>2026-04-07T08:46:24.659Z</time></trkpt><trkpt lat="44.1595917" lon="9.8904683"><ele>21.0</ele><time>2026-04-07T08:46:25.659Z</time></trkpt><trkpt lat="44.1596933" lon="9.8901983"><ele>21.0</ele><time>2026-04-07T08:46:26.66Z</time></trkpt><trkpt lat="44.1597967" lon="9.8899283"><ele>21.666666666666668</ele><time>2026-04-07T08:46:27.66Z</time></trkpt><trkpt lat="44.1599" lon="9.8896633"><ele>22.333333333333336</ele><time>2026-04-07T08:46:28.659Z</time></trkpt><trkpt lat="44.1600017" lon="9.8893983"><ele>23.0</ele><time>2026-04-07T08:46:29.659Z</time></trkpt><trkpt lat="44.160105" lon="9.8891317"><ele>23.0</ele><time>2026-04-07T08:46:30.659Z</time></trkpt><trkpt lat="44.16021" lon="9.888865"><ele>23.0</ele><time>2026-04-07T08:46:31.66Z</time></trkpt><trkpt lat="44.160315" lon="9.8885933"><ele>23.0</ele><time>2026-04-07T08:46:32.659Z</time></trkpt><trkpt lat="44.16042" lon="9.8883233"><ele>22.666666666666668</ele><time>2026-04-07T08:46:33.659Z</time></trkpt><trkpt lat="44.1605183" lon="9.888055"><ele>22.333333333333332</ele><time>2026-04-07T08:46:34.66Z</time></trkpt><trkpt lat="44.1606183" lon="9.8877933"><ele>22.0</ele><time>2026-04-07T08:46:35.659Z</time></trkpt><trkpt lat="44.1607217" lon="9.8875333"><ele>22.0</ele><time>2026-04-07T08:46:36.66Z</time></trkpt><trkpt lat="44.1608267" lon="9.8872683"><ele>22.0</ele><time>2026-04-07T08:46:37.659Z</time></trkpt><trkpt lat="44.1609267" lon="9.8870017"><ele>22.0</ele><time>2026-04-07T08:46:38.66Z</time></trkpt><trkpt lat="44.16103" lon="9.8867283"><ele>22.0</ele><time>2026-04-07T08:46:39.659Z</time></trkpt><trkpt lat="44.161135" lon="9.886455"><ele>22.0</ele><time>2026-04-07T08:46:40.659Z</time></trkpt><trkpt lat="44.1612417" lon="9.88618"><ele>22.0</ele><time>2026-04-07T08:46:41.659Z</time></trkpt><trkpt lat="44.161345" lon="9.885905"><ele>22.0</ele><time>2026-04-07T08:46:42.659Z</time></trkpt><trkpt lat="44.1614533" lon="9.8856317"><ele>22.0</ele><time>2026-04-07T08:46:43.659Z</time></trkpt><trkpt lat="44.1615633" lon="9.88536"><ele>22.0</ele><time>2026-04-07T08:46:44.659Z</time></trkpt><trkpt lat="44.1616733" lon="9.8850883"><ele>21.666666666666664</ele><time>2026-04-07T08:46:45.659Z</time></trkpt><trkpt lat="44.1617867" lon="9.8848233"><ele>21.333333333333332</ele><time>2026-04-07T08:46:46.659Z</time></trkpt><trkpt lat="44.1619017" lon="9.8845617"><ele>21.0</ele><time>2026-04-07T08:46:47.659Z</time></trkpt><trkpt lat="44.1620183" lon="9.8843017"><ele>21.0</ele><time>2026-04-07T08:46:48.659Z</time></trkpt><trkpt lat="44.1621367" lon="9.8840417"><ele>21.0</ele><time>2026-04-07T08:46:49.659Z</time></trkpt><trkpt lat="44.16226" lon="9.883775"><ele>21.0</ele><time>2026-04-07T08:46:50.659Z</time></trkpt><trkpt lat="44.1623833" lon="9.8835167"><ele>21.0</ele><time>2026-04-07T08:46:51.659Z</time></trkpt><trkpt lat="44.1625033" lon="9.8832567"><ele>21.0</ele><time>2026-04-07T08:46:52.66Z</time></trkpt><trkpt lat="44.162625" lon="9.8829983"><ele>21.0</ele><time>2026-04-07T08:46:53.659Z</time></trkpt><trkpt lat="44.1627517" lon="9.8827383"><ele>22.0</ele><time>2026-04-07T08:46:54.659Z</time></trkpt><trkpt lat="44.1628817" lon="9.8824783"><ele>23.0</ele><time>2026-04-07T08:46:55.659Z</time></trkpt><trkpt lat="44.1630117" lon="9.8822167"><ele>23.0</ele><time>2026-04-07T08:46:56.66Z</time></trkpt><trkpt lat="44.1631433" lon="9.881955"><ele>23.0</ele><time>2026-04-07T08:46:57.659Z</time></trkpt><trkpt lat="44.16328" lon="9.8816933"><ele>23.0</ele><time>2026-04-07T08:46:58.659Z</time></trkpt><trkpt lat="44.16342" lon="9.881435"><ele>23.0</ele><time>2026-04-07T08:46:59.659Z</time></trkpt><trkpt lat="44.163565" lon="9.88118"><ele>22.5</ele><time>2026-04-07T08:47:00.659Z</time></trkpt><trkpt lat="44.1637083" lon="9.88092"><ele>22.0</ele><time>2026-04-07T08:47:01.659Z</time></trkpt><trkpt lat="44.1638533" lon="9.8806583"><ele>22.0</ele><time>2026-04-07T08:47:02.659Z</time></trkpt><trkpt lat="44.164" lon="9.8804033"><ele>22.0</ele><time>2026-04-07T08:47:03.659Z</time></trkpt><trkpt lat="44.1641533" lon="9.8801517"><ele>22.5</ele><time>2026-04-07T08:47:04.659Z</time></trkpt><trkpt lat="44.164305" lon="9.8799"><ele>23.0</ele><time>2026-04-07T08:47:05.659Z</time></trkpt><trkpt lat="44.1644533" lon="9.8796517"><ele>23.0</ele><time>2026-04-07T08:47:06.659Z</time></trkpt><trkpt lat="44.1646083" lon="9.879405"><ele>23.0</ele><time>2026-04-07T08:47:07.66Z</time></trkpt><trkpt lat="44.1647567" lon="9.8791633"><ele>23.0</ele><time>2026-04-07T08:47:08.659Z</time></trkpt><trkpt lat="44.16491" lon="9.8789233"><ele>23.0</ele><time>2026-04-07T08:47:09.659Z</time></trkpt><trkpt lat="44.16506" lon="9.8786817"><ele>23.0</ele><time>2026-04-07T08:47:10.659Z</time></trkpt><trkpt lat="44.1652183" lon="9.878445"><ele>23.0</ele><time>2026-04-07T08:47:11.659Z</time></trkpt><trkpt lat="44.1653767" lon="9.8782133"><ele>23.0</ele><time>2026-04-07T08:47:12.659Z</time></trkpt><trkpt lat="44.1655317" lon="9.8779783"><ele>23.0</ele><time>2026-04-07T08:47:13.659Z</time></trkpt><trkpt lat="44.165695" lon="9.877745"><ele>24.0</ele><time>2026-04-07T08:47:14.659Z</time></trkpt><trkpt lat="44.16586" lon="9.87751"><ele>25.0</ele><time>2026-04-07T08:47:15.659Z</time></trkpt><trkpt lat="44.1660283" lon="9.87728"><ele>25.0</ele><time>2026-04-07T08:47:16.659Z</time></trkpt><trkpt lat="44.1661967" lon="9.87705"><ele>25.0</ele><time>2026-04-07T08:47:17.659Z</time></trkpt><trkpt lat="44.1663633" lon="9.8768283"><ele>25.0</ele><time>2026-04-07T08:47:18.659Z</time></trkpt><trkpt lat="44.1665317" lon="9.8766067"><ele>25.0</ele><time>2026-04-07T08:47:19.659Z</time></trkpt><trkpt lat="44.1667017" lon="9.8763883"><ele>25.0</ele><time>2026-04-07T08:47:20.66Z</time></trkpt><trkpt lat="44.166875" lon="9.8761683"><ele>25.0</ele><time>2026-04-07T08:47:21.659Z</time></trkpt><trkpt lat="44.16705" lon="9.8759533"><ele>24.5</ele><time>2026-04-07T08:47:22.659Z</time></trkpt><trkpt lat="44.167225" lon="9.875745"><ele>24.0</ele><time>2026-04-07T08:47:23.659Z</time></trkpt><trkpt lat="44.1674033" lon="9.875535"><ele>24.0</ele><time>2026-04-07T08:47:24.659Z</time></trkpt><trkpt lat="44.1675833" lon="9.8753267"><ele>24.0</ele><time>2026-04-07T08:47:25.659Z</time></trkpt><trkpt lat="44.167765" lon="9.8751133"><ele>24.0</ele><time>2026-04-07T08:47:26.659Z</time></trkpt><trkpt lat="44.1679467" lon="9.8749067"><ele>24.0</ele><time>2026-04-07T08:47:27.66Z</time></trkpt><trkpt lat="44.16813" lon="9.8747"><ele>25.5</ele><time>2026-04-07T08:47:28.659Z</time></trkpt><trkpt lat="44.168315" lon="9.8744967"><ele>27.0</ele><time>2026-04-07T08:47:29.66Z</time></trkpt><trkpt lat="44.1685017" lon="9.874295"><ele>26.5</ele><time>2026-04-07T08:47:30.659Z</time></trkpt><trkpt lat="44.1686867" lon="9.8740933"><ele>26.0</ele><time>2026-04-07T08:47:31.66Z</time></trkpt><trkpt lat="44.168875" lon="9.873895"><ele>26.0</ele><time>2026-04-07T08:47:32.659Z</time></trkpt><trkpt lat="44.169065" lon="9.8737033"><ele>26.0</ele><time>2026-04-07T08:47:33.659Z</time></trkpt><trkpt lat="44.16926" lon="9.8735117"><ele>26.0</ele><time>2026-04-07T08:47:34.659Z</time></trkpt><trkpt lat="44.1694533" lon="9.8733183"><ele>26.0</ele><time>2026-04-07T08:47:35.659Z</time></trkpt><trkpt lat="44.1696467" lon="9.873125"><ele>26.0</ele><time>2026-04-07T08:47:36.659Z</time></trkpt><trkpt lat="44.1698433" lon="9.872935"><ele>26.0</ele><time>2026-04-07T08:47:37.66Z</time></trkpt><trkpt lat="44.1700367" lon="9.8727483"><ele>26.0</ele><time>2026-04-07T08:47:38.66Z</time></trkpt><trkpt lat="44.1702367" lon="9.872565"><ele>26.0</ele><time>2026-04-07T08:47:39.659Z</time></trkpt><trkpt lat="44.1704383" lon="9.87238"><ele>26.0</ele><time>2026-04-07T08:47:40.659Z</time></trkpt><trkpt lat="44.1706417" lon="9.8722"><ele>26.0</ele><time>2026-04-07T08:47:41.66Z</time></trkpt><trkpt lat="44.1708467" lon="9.8720183"><ele>26.0</ele><time>2026-04-07T08:47:42.659Z</time></trkpt><trkpt lat="44.1710517" lon="9.87184"><ele>26.0</ele><time>2026-04-07T08:47:43.659Z</time></trkpt><trkpt lat="44.1712583" lon="9.8716683"><ele>26.0</ele><time>2026-04-07T08:47:44.659Z</time></trkpt><trkpt lat="44.171465" lon="9.8715017"><ele>26.0</ele><time>2026-04-07T08:47:45.659Z</time></trkpt><trkpt lat="44.171675" lon="9.8713383"><ele>26.0</ele><time>2026-04-07T08:47:46.659Z</time></trkpt><trkpt lat="44.1718833" lon="9.8711733"><ele>26.0</ele><time>2026-04-07T08:47:47.66Z</time></trkpt><trkpt lat="44.172095" lon="9.871015"><ele>26.0</ele><time>2026-04-07T08:47:48.659Z</time></trkpt><trkpt lat="44.1723033" lon="9.8708567"><ele>26.0</ele><time>2026-04-07T08:47:49.659Z</time></trkpt><trkpt lat="44.172515" lon="9.8707033"><ele>26.0</ele><time>2026-04-07T08:47:50.659Z</time></trkpt><trkpt lat="44.172725" lon="9.8705483"><ele>26.0</ele><time>2026-04-07T08:47:51.66Z</time></trkpt><trkpt lat="44.1729383" lon="9.870395"><ele>26.0</ele><time>2026-04-07T08:47:52.659Z</time></trkpt><trkpt lat="44.1731533" lon="9.8702383"><ele>26.0</ele><time>2026-04-07T08:47:53.659Z</time></trkpt><trkpt lat="44.1733717" lon="9.870085"><ele>26.0</ele><time>2026-04-07T08:47:54.659Z</time></trkpt><trkpt lat="44.17359" lon="9.8699317"><ele>26.0</ele><time>2026-04-07T08:47:55.66Z</time></trkpt><trkpt lat="44.1738067" lon="9.869775"><ele>26.5</ele><time>2026-04-07T08:47:56.659Z</time></trkpt><trkpt lat="44.1740233" lon="9.86962"><ele>27.0</ele><time>2026-04-07T08:47:57.659Z</time></trkpt><trkpt lat="44.1742383" lon="9.8694633"><ele>27.0</ele><time>2026-04-07T08:47:58.659Z</time></trkpt><trkpt lat="44.1744567" lon="9.8693067"><ele>27.0</ele><time>2026-04-07T08:47:59.659Z</time></trkpt><trkpt lat="44.1746783" lon="9.8691533"><ele>28.0</ele><time>2026-04-07T08:48:00.659Z</time></trkpt><trkpt lat="44.1749" lon="9.8689983"><ele>29.0</ele><time>2026-04-07T08:48:01.659Z</time></trkpt><trkpt lat="44.1751217" lon="9.86884"><ele>29.0</ele><time>2026-04-07T08:48:02.66Z</time></trkpt><trkpt lat="44.1753467" lon="9.8686833"><ele>29.0</ele><time>2026-04-07T08:48:03.659Z</time></trkpt><trkpt lat="44.1755683" lon="9.8685267"><ele>29.0</ele><time>2026-04-07T08:48:04.659Z</time></trkpt><trkpt lat="44.1757933" lon="9.8683683"><ele>29.0</ele><time>2026-04-07T08:48:05.66Z</time></trkpt><trkpt lat="44.1760167" lon="9.8682067"><ele>29.0</ele><time>2026-04-07T08:48:06.659Z</time></trkpt><trkpt lat="44.1762433" lon="9.868045"><ele>29.0</ele><time>2026-04-07T08:48:07.659Z</time></trkpt><trkpt lat="44.1764683" lon="9.8678833"><ele>29.0</ele><time>2026-04-07T08:48:08.659Z</time></trkpt><trkpt lat="44.1766933" lon="9.8677233"><ele>29.0</ele><time>2026-04-07T08:48:09.659Z</time></trkpt><trkpt lat="44.1769183" lon="9.8675617"><ele>29.0</ele><time>2026-04-07T08:48:10.659Z</time></trkpt><trkpt lat="44.1771433" lon="9.8674"><ele>29.0</ele><time>2026-04-07T08:48:11.659Z</time></trkpt><trkpt lat="44.1773683" lon="9.8672367"><ele>29.5</ele><time>2026-04-07T08:48:12.66Z</time></trkpt><trkpt lat="44.1775933" lon="9.8670717"><ele>30.0</ele><time>2026-04-07T08:48:13.659Z</time></trkpt><trkpt lat="44.1778167" lon="9.8669083"><ele>29.5</ele><time>2026-04-07T08:48:14.659Z</time></trkpt><trkpt lat="44.17804" lon="9.866745"><ele>29.0</ele><time>2026-04-07T08:48:15.659Z</time></trkpt><trkpt lat="44.1782633" lon="9.8665833"><ele>30.0</ele><time>2026-04-07T08:48:16.66Z</time></trkpt><trkpt lat="44.17849" lon="9.8664267"><ele>31.0</ele><time>2026-04-07T08:48:17.659Z</time></trkpt><trkpt lat="44.17872" lon="9.8662667"><ele>31.0</ele><time>2026-04-07T08:48:18.66Z</time></trkpt><trkpt lat="44.1789467" lon="9.866105"><ele>31.0</ele><time>2026-04-07T08:48:19.659Z</time></trkpt><trkpt lat="44.1791717" lon="9.8659467"><ele>33.0</ele><time>2026-04-07T08:48:20.659Z</time></trkpt><trkpt lat="44.1793967" lon="9.8657867"><ele>35.0</ele><time>2026-04-07T08:48:21.659Z</time></trkpt><trkpt lat="44.1796233" lon="9.8656217"><ele>34.0</ele><time>2026-04-07T08:48:22.659Z</time></trkpt><trkpt lat="44.1798533" lon="9.865455"><ele>33.0</ele><time>2026-04-07T08:48:23.659Z</time></trkpt><trkpt lat="44.18008" lon="9.8652933"><ele>33.0</ele><time>2026-04-07T08:48:24.659Z</time></trkpt><trkpt lat="44.1803083" lon="9.8651267"><ele>33.0</ele><time>2026-04-07T08:48:25.659Z</time></trkpt><trkpt lat="44.18054" lon="9.8649583"><ele>35.5</ele><time>2026-04-07T08:48:26.659Z</time></trkpt><trkpt lat="44.1807683" lon="9.864795"><ele>38.0</ele><time>2026-04-07T08:48:27.659Z</time></trkpt><trkpt lat="44.1809983" lon="9.8646317"><ele>38.0</ele><time>2026-04-07T08:48:28.659Z</time></trkpt><trkpt lat="44.1812267" lon="9.8644733"><ele>38.0</ele><time>2026-04-07T08:48:29.659Z</time></trkpt><trkpt lat="44.1814533" lon="9.8643183"><ele>37.0</ele><time>2026-04-07T08:48:30.66Z</time></trkpt><trkpt lat="44.181685" lon="9.8641683"><ele>36.0</ele><time>2026-04-07T08:48:31.659Z</time></trkpt><trkpt lat="44.1819167" lon="9.8640183"><ele>36.0</ele><time>2026-04-07T08:48:32.66Z</time></trkpt><trkpt lat="44.1821533" lon="9.86387"><ele>36.0</ele><time>2026-04-07T08:48:33.659Z</time></trkpt><trkpt lat="44.182395" lon="9.863725"><ele>38.5</ele><time>2026-04-07T08:48:34.659Z</time></trkpt><trkpt lat="44.182635" lon="9.8635867"><ele>41.0</ele><time>2026-04-07T08:48:35.659Z</time></trkpt><trkpt lat="44.1828767" lon="9.8634533"><ele>38.5</ele><time>2026-04-07T08:48:36.66Z</time></trkpt><trkpt lat="44.18312" lon="9.8633183"><ele>36.0</ele><time>2026-04-07T08:48:37.659Z</time></trkpt><trkpt lat="44.1833633" lon="9.86319"><ele>41.0</ele><time>2026-04-07T08:48:38.66Z</time></trkpt><trkpt lat="44.1836117" lon="9.863065"><ele>46.0</ele><time>2026-04-07T08:48:39.659Z</time></trkpt><trkpt lat="44.1838633" lon="9.86294"><ele>49.5</ele><time>2026-04-07T08:48:40.659Z</time></trkpt><trkpt lat="44.1841133" lon="9.8628183"><ele>53.0</ele><time>2026-04-07T08:48:41.659Z</time></trkpt><trkpt lat="44.1843667" lon="9.8626983"><ele>44.0</ele><time>2026-04-07T08:48:42.659Z</time></trkpt><trkpt lat="44.1846183" lon="9.8625817"><ele>35.0</ele><time>2026-04-07T08:48:43.659Z</time></trkpt><trkpt lat="44.1848667" lon="9.8624667"><ele>34.5</ele><time>2026-04-07T08:48:44.659Z</time></trkpt><trkpt lat="44.1851183" lon="9.8623517"><ele>34.0</ele><time>2026-04-07T08:48:45.659Z</time></trkpt><trkpt lat="44.18537" lon="9.86224"><ele>34.0</ele><time>2026-04-07T08:48:46.659Z</time></trkpt><trkpt lat="44.1856267" lon="9.8621267"><ele>34.0</ele><time>2026-04-07T08:48:47.66Z</time></trkpt><trkpt lat="44.185885" lon="9.8620133"><ele>34.5</ele><time>2026-04-07T08:48:48.66Z</time></trkpt><trkpt lat="44.1861433" lon="9.8618983"><ele>35.0</ele><time>2026-04-07T08:48:49.659Z</time></trkpt><trkpt lat="44.1864067" lon="9.8617767"><ele>34.5</ele><time>2026-04-07T08:48:50.659Z</time></trkpt><trkpt lat="44.18668" lon="9.8616567"><ele>34.0</ele><time>2026-04-07T08:48:51.659Z</time></trkpt><trkpt lat="44.1869567" lon="9.861535"><ele>34.0</ele><time>2026-04-07T08:48:52.659Z</time></trkpt><trkpt lat="44.1872317" lon="9.8614083"><ele>34.0</ele><time>2026-04-07T08:48:53.659Z</time></trkpt><trkpt lat="44.187505" lon="9.8612833"><ele>34.5</ele><time>2026-04-07T08:48:54.659Z</time></trkpt><trkpt lat="44.18778" lon="9.8611583"><ele>35.0</ele><time>2026-04-07T08:48:55.659Z</time></trkpt><trkpt lat="44.1880533" lon="9.8610383"><ele>36.0</ele><time>2026-04-07T08:48:56.659Z</time></trkpt><trkpt lat="44.1883267" lon="9.8609217"><ele>37.0</ele><time>2026-04-07T08:48:57.66Z</time></trkpt><trkpt lat="44.1885983" lon="9.8608083"><ele>37.0</ele><time>2026-04-07T08:48:58.66Z</time></trkpt><trkpt lat="44.18887" lon="9.8607"><ele>37.0</ele><time>2026-04-07T08:48:59.659Z</time></trkpt><trkpt lat="44.18914" lon="9.8605917"><ele>36.0</ele><time>2026-04-07T08:49:00.66Z</time></trkpt><trkpt lat="44.18941" lon="9.8604783"><ele>35.0</ele><time>2026-04-07T08:49:01.659Z</time></trkpt><trkpt lat="44.1896783" lon="9.8603633"><ele>37.0</ele><time>2026-04-07T08:49:02.659Z</time></trkpt><trkpt lat="44.1899467" lon="9.8602483"><ele>39.0</ele><time>2026-04-07T08:49:03.659Z</time></trkpt><trkpt lat="44.1902083" lon="9.86013"><ele>38.5</ele><time>2026-04-07T08:49:04.66Z</time></trkpt><trkpt lat="44.1904667" lon="9.8600117"><ele>38.0</ele><time>2026-04-07T08:49:05.659Z</time></trkpt><trkpt lat="44.1907267" lon="9.8599"><ele>38.0</ele><time>2026-04-07T08:49:06.659Z</time></trkpt><trkpt lat="44.190985" lon="9.8597867"><ele>38.0</ele><time>2026-04-07T08:49:07.659Z</time></trkpt><trkpt lat="44.1912467" lon="9.859675"><ele>38.0</ele><time>2026-04-07T08:49:08.66Z</time></trkpt><trkpt lat="44.191505" lon="9.8595583"><ele>38.0</ele><time>2026-04-07T08:49:09.659Z</time></trkpt><trkpt lat="44.1917617" lon="9.8594433"><ele>38.0</ele><time>2026-04-07T08:49:10.659Z</time></trkpt><trkpt lat="44.1920183" lon="9.8593283"><ele>38.0</ele><time>2026-04-07T08:49:11.659Z</time></trkpt><trkpt lat="44.1922783" lon="9.8592133"><ele>38.5</ele><time>2026-04-07T08:49:12.66Z</time></trkpt><trkpt lat="44.19254" lon="9.859095"><ele>39.0</ele><time>2026-04-07T08:49:13.66Z</time></trkpt><trkpt lat="44.1928017" lon="9.8589733"><ele>39.0</ele><time>2026-04-07T08:49:14.659Z</time></trkpt><trkpt lat="44.1930667" lon="9.858855"><ele>39.0</ele><time>2026-04-07T08:49:15.659Z</time></trkpt><trkpt lat="44.193335" lon="9.858735"><ele>41.0</ele><time>2026-04-07T08:49:16.66Z</time></trkpt><trkpt lat="44.1936033" lon="9.8586133"><ele>43.0</ele><time>2026-04-07T08:49:17.659Z</time></trkpt><trkpt lat="44.1938733" lon="9.8584917"><ele>43.5</ele><time>2026-04-07T08:49:18.66Z</time></trkpt><trkpt lat="44.1941433" lon="9.8583733"><ele>44.0</ele><time>2026-04-07T08:49:19.659Z</time></trkpt><trkpt lat="44.194415" lon="9.8582567"><ele>44.0</ele><time>2026-04-07T08:49:20.659Z</time></trkpt><trkpt lat="44.1946867" lon="9.8581383"><ele>44.0</ele><time>2026-04-07T08:49:21.659Z</time></trkpt><trkpt lat="44.1949583" lon="9.85802"><ele>43.0</ele><time>2026-04-07T08:49:22.659Z</time></trkpt><trkpt lat="44.1952317" lon="9.8579017"><ele>42.0</ele><time>2026-04-07T08:49:23.659Z</time></trkpt><trkpt lat="44.1955017" lon="9.8577717"><ele>43.0</ele><time>2026-04-07T08:49:24.659Z</time></trkpt><trkpt lat="44.1957617" lon="9.857625"><ele>44.0</ele><time>2026-04-07T08:49:25.66Z</time></trkpt><trkpt lat="44.196015" lon="9.8574567"><ele>44.0</ele><time>2026-04-07T08:49:26.659Z</time></trkpt><trkpt lat="44.19626" lon="9.8572633"><ele>44.0</ele><time>2026-04-07T08:49:27.66Z</time></trkpt><trkpt lat="44.196495" lon="9.8570483"><ele>45.0</ele><time>2026-04-07T08:49:28.659Z</time></trkpt><trkpt lat="44.196725" lon="9.8568083"><ele>46.0</ele><time>2026-04-07T08:49:29.659Z</time></trkpt><trkpt lat="44.196945" lon="9.85655"><ele>44.0</ele><time>2026-04-07T08:49:30.659Z</time></trkpt><trkpt lat="44.197155" lon="9.8562767"><ele>42.0</ele><time>2026-04-07T08:49:31.659Z</time></trkpt><trkpt lat="44.1973533" lon="9.8559867"><ele>42.5</ele><time>2026-04-07T08:49:32.659Z</time></trkpt><trkpt lat="44.1975367" lon="9.8556783"><ele>43.0</ele><time>2026-04-07T08:49:33.66Z</time></trkpt><trkpt lat="44.1977083" lon="9.8553567"><ele>43.0</ele><time>2026-04-07T08:49:34.659Z</time></trkpt><trkpt lat="44.197865" lon="9.8550217"><ele>43.0</ele><time>2026-04-07T08:49:35.66Z</time></trkpt><trkpt lat="44.198005" lon="9.8546817"><ele>43.0</ele><time>2026-04-07T08:49:36.659Z</time></trkpt><trkpt lat="44.1981283" lon="9.8543333"><ele>43.0</ele><time>2026-04-07T08:49:37.659Z</time></trkpt><trkpt lat="44.1982367" lon="9.8539783"><ele>43.0</ele><time>2026-04-07T08:49:38.659Z</time></trkpt><trkpt lat="44.19832" lon="9.8536167"><ele>43.0</ele><time>2026-04-07T08:49:39.659Z</time></trkpt><trkpt lat="44.19839" lon="9.8532517"><ele>43.0</ele><time>2026-04-07T08:49:40.659Z</time></trkpt><trkpt lat="44.198445" lon="9.8528817"><ele>43.0</ele><time>2026-04-07T08:49:41.659Z</time></trkpt><trkpt lat="44.1984917" lon="9.8525083"><ele>42.5</ele><time>2026-04-07T08:49:42.659Z</time></trkpt><trkpt lat="44.1985333" lon="9.852135"><ele>42.0</ele><time>2026-04-07T08:49:43.659Z</time></trkpt><trkpt lat="44.1985767" lon="9.8517583"><ele>41.0</ele><time>2026-04-07T08:49:44.66Z</time></trkpt><trkpt lat="44.1986217" lon="9.8513817"><ele>40.0</ele><time>2026-04-07T08:49:45.659Z</time></trkpt><trkpt lat="44.198665" lon="9.851005"><ele>38.5</ele><time>2026-04-07T08:49:46.66Z</time></trkpt><trkpt lat="44.19871" lon="9.850625"><ele>37.0</ele><time>2026-04-07T08:49:47.659Z</time></trkpt><trkpt lat="44.1987583" lon="9.850245"><ele>37.5</ele><time>2026-04-07T08:49:48.66Z</time></trkpt><trkpt lat="44.1988067" lon="9.8498617"><ele>38.0</ele><time>2026-04-07T08:49:49.66Z</time></trkpt><trkpt lat="44.198855" lon="9.84948"><ele>38.0</ele><time>2026-04-07T08:49:50.66Z</time></trkpt><trkpt lat="44.1989017" lon="9.8490983"><ele>38.0</ele><time>2026-04-07T08:49:51.659Z</time></trkpt><trkpt lat="44.1989467" lon="9.8487133"><ele>39.0</ele><time>2026-04-07T08:49:52.659Z</time></trkpt><trkpt lat="44.1989917" lon="9.8483267"><ele>40.0</ele><time>2026-04-07T08:49:53.659Z</time></trkpt><trkpt lat="44.199035" lon="9.8479417"><ele>44.5</ele><time>2026-04-07T08:49:54.659Z</time></trkpt><trkpt lat="44.1990783" lon="9.8475583"><ele>49.0</ele><time>2026-04-07T08:49:55.659Z</time></trkpt><trkpt lat="44.1991217" lon="9.8471733"><ele>47.5</ele><time>2026-04-07T08:49:56.659Z</time></trkpt><trkpt lat="44.1991667" lon="9.84679"><ele>46.0</ele><time>2026-04-07T08:49:57.659Z</time></trkpt><trkpt lat="44.199215" lon="9.84641"><ele>46.0</ele><time>2026-04-07T08:49:58.659Z</time></trkpt><trkpt lat="44.1992633" lon="9.84603"><ele>46.0</ele><time>2026-04-07T08:49:59.659Z</time></trkpt><trkpt lat="44.19931" lon="9.8456467"><ele>45.5</ele><time>2026-04-07T08:50:00.659Z</time></trkpt><trkpt lat="44.1993583" lon="9.8452617"><ele>45.0</ele><time>2026-04-07T08:50:01.659Z</time></trkpt><trkpt lat="44.1994083" lon="9.8448733"><ele>44.5</ele><time>2026-04-07T08:50:02.659Z</time></trkpt><trkpt lat="44.1994533" lon="9.8444817"><ele>44.0</ele><time>2026-04-07T08:50:03.659Z</time></trkpt><trkpt lat="44.1995917" lon="9.8432983"><ele>43.5</ele><time>2026-04-07T08:50:06.659Z</time></trkpt><trkpt lat="44.1996333" lon="9.842905"><ele>43.0</ele><time>2026-04-07T08:50:07.659Z</time></trkpt><trkpt lat="44.1996733" lon="9.8425117"><ele>42.5</ele><time>2026-04-07T08:50:08.659Z</time></trkpt><trkpt lat="44.199705" lon="9.8421133"><ele>42.0</ele><time>2026-04-07T08:50:09.659Z</time></trkpt><trkpt lat="44.1997333" lon="9.8417183"><ele>43.0</ele><time>2026-04-07T08:50:10.659Z</time></trkpt><trkpt lat="44.1997583" lon="9.8413167"><ele>44.0</ele><time>2026-04-07T08:50:11.659Z</time></trkpt><trkpt lat="44.1997783" lon="9.84092"><ele>44.0</ele><time>2026-04-07T08:50:12.659Z</time></trkpt><trkpt lat="44.1997917" lon="9.840525"><ele>44.0</ele><time>2026-04-07T08:50:13.659Z</time></trkpt><trkpt lat="44.1998" lon="9.8401317"><ele>43.5</ele><time>2026-04-07T08:50:14.66Z</time></trkpt><trkpt lat="44.1998" lon="9.8397383"><ele>43.0</ele><time>2026-04-07T08:50:15.659Z</time></trkpt><trkpt lat="44.1997967" lon="9.8393467"><ele>43.5</ele><time>2026-04-07T08:50:16.659Z</time></trkpt><trkpt lat="44.1997867" lon="9.8389567"><ele>44.0</ele><time>2026-04-07T08:50:17.659Z</time></trkpt><trkpt lat="44.1997717" lon="9.838565"><ele>43.5</ele><time>2026-04-07T08:50:18.659Z</time></trkpt><trkpt lat="44.19975" lon="9.8381783"><ele>43.0</ele><time>2026-04-07T08:50:19.659Z</time></trkpt><trkpt lat="44.1997217" lon="9.8377917"><ele>44.0</ele><time>2026-04-07T08:50:20.66Z</time></trkpt><trkpt lat="44.199695" lon="9.8374083"><ele>45.0</ele><time>2026-04-07T08:50:21.659Z</time></trkpt><trkpt lat="44.1996683" lon="9.837025"><ele>45.0</ele><time>2026-04-07T08:50:22.659Z</time></trkpt><trkpt lat="44.199645" lon="9.8366367"><ele>45.0</ele><time>2026-04-07T08:50:23.659Z</time></trkpt><trkpt lat="44.1996183" lon="9.83625"><ele>44.5</ele><time>2026-04-07T08:50:24.659Z</time></trkpt><trkpt lat="44.1995917" lon="9.835865"><ele>44.0</ele><time>2026-04-07T08:50:25.66Z</time></trkpt><trkpt lat="44.199565" lon="9.8354833"><ele>44.5</ele><time>2026-04-07T08:50:26.659Z</time></trkpt><trkpt lat="44.199535" lon="9.8351"><ele>45.0</ele><time>2026-04-07T08:50:27.659Z</time></trkpt><trkpt lat="44.19951" lon="9.834715"><ele>45.0</ele><time>2026-04-07T08:50:28.659Z</time></trkpt><trkpt lat="44.1994883" lon="9.8343333"><ele>45.0</ele><time>2026-04-07T08:50:29.659Z</time></trkpt><trkpt lat="44.1994667" lon="9.83395"><ele>45.5</ele><time>2026-04-07T08:50:30.659Z</time></trkpt><trkpt lat="44.199445" lon="9.8335667"><ele>46.0</ele><time>2026-04-07T08:50:31.659Z</time></trkpt><trkpt lat="44.19942" lon="9.8331817"><ele>47.0</ele><time>2026-04-07T08:50:32.659Z</time></trkpt><trkpt lat="44.1993933" lon="9.8327967"><ele>48.0</ele><time>2026-04-07T08:50:33.659Z</time></trkpt><trkpt lat="44.1993683" lon="9.83241"><ele>49.0</ele><time>2026-04-07T08:50:34.659Z</time></trkpt><trkpt lat="44.1993433" lon="9.8320233"><ele>50.0</ele><time>2026-04-07T08:50:35.659Z</time></trkpt><trkpt lat="44.1993183" lon="9.831635"><ele>51.5</ele><time>2026-04-07T08:50:36.66Z</time></trkpt><trkpt lat="44.1992917" lon="9.8312483"><ele>53.0</ele><time>2026-04-07T08:50:37.659Z</time></trkpt><trkpt lat="44.1992667" lon="9.83086"><ele>53.0</ele><time>2026-04-07T08:50:38.659Z</time></trkpt><trkpt lat="44.1992417" lon="9.8304733"><ele>53.0</ele><time>2026-04-07T08:50:39.659Z</time></trkpt><trkpt lat="44.199215" lon="9.8300867"><ele>53.0</ele><time>2026-04-07T08:50:40.659Z</time></trkpt><trkpt lat="44.1991883" lon="9.8296983"><ele>53.0</ele><time>2026-04-07T08:50:41.659Z</time></trkpt><trkpt lat="44.1991633" lon="9.8293117"><ele>53.5</ele><time>2026-04-07T08:50:42.659Z</time></trkpt><trkpt lat="44.1991417" lon="9.8289267"><ele>54.0</ele><time>2026-04-07T08:50:43.659Z</time></trkpt><trkpt lat="44.1991183" lon="9.828545"><ele>54.5</ele><time>2026-04-07T08:50:44.659Z</time></trkpt><trkpt lat="44.1990967" lon="9.8281633"><ele>55.0</ele><time>2026-04-07T08:50:45.659Z</time></trkpt><trkpt lat="44.1990717" lon="9.8277817"><ele>57.0</ele><time>2026-04-07T08:50:46.659Z</time></trkpt><trkpt lat="44.1990467" lon="9.8274"><ele>59.0</ele><time>2026-04-07T08:50:47.659Z</time></trkpt><trkpt lat="44.1990233" lon="9.827015"><ele>56.0</ele><time>2026-04-07T08:50:48.66Z</time></trkpt><trkpt lat="44.199" lon="9.8266283"><ele>53.0</ele><time>2026-04-07T08:50:49.659Z</time></trkpt><trkpt lat="44.1989767" lon="9.8262433"><ele>52.0</ele><time>2026-04-07T08:50:50.659Z</time></trkpt><trkpt lat="44.1989517" lon="9.8258583"><ele>51.0</ele><time>2026-04-07T08:50:51.659Z</time></trkpt><trkpt lat="44.1989283" lon="9.825475"><ele>51.0</ele><time>2026-04-07T08:50:52.659Z</time></trkpt><trkpt lat="44.1989017" lon="9.8250883"><ele>51.0</ele><time>2026-04-07T08:50:53.659Z</time></trkpt><trkpt lat="44.1988767" lon="9.8247017"><ele>51.0</ele><time>2026-04-07T08:50:54.659Z</time></trkpt><trkpt lat="44.1988533" lon="9.8243183"><ele>51.0</ele><time>2026-04-07T08:50:55.659Z</time></trkpt><trkpt lat="44.1988283" lon="9.8239367"><ele>50.5</ele><time>2026-04-07T08:50:56.659Z</time></trkpt><trkpt lat="44.198805" lon="9.8235567"><ele>50.0</ele><time>2026-04-07T08:50:57.659Z</time></trkpt><trkpt lat="44.198785" lon="9.82318"><ele>50.0</ele><time>2026-04-07T08:50:58.659Z</time></trkpt><trkpt lat="44.1987633" lon="9.8228"><ele>50.0</ele><time>2026-04-07T08:50:59.659Z</time></trkpt><trkpt lat="44.1987417" lon="9.8224217"><ele>50.5</ele><time>2026-04-07T08:51:00.66Z</time></trkpt><trkpt lat="44.1987183" lon="9.8220467"><ele>51.0</ele><time>2026-04-07T08:51:01.659Z</time></trkpt><trkpt lat="44.1986917" lon="9.8216733"><ele>51.0</ele><time>2026-04-07T08:51:02.659Z</time></trkpt><trkpt lat="44.198665" lon="9.8212983"><ele>51.0</ele><time>2026-04-07T08:51:03.659Z</time></trkpt><trkpt lat="44.1986367" lon="9.820925"><ele>51.5</ele><time>2026-04-07T08:51:04.659Z</time></trkpt><trkpt lat="44.198605" lon="9.82055"><ele>52.0</ele><time>2026-04-07T08:51:05.659Z</time></trkpt><trkpt lat="44.1985767" lon="9.8201767"><ele>53.5</ele><time>2026-04-07T08:51:06.659Z</time></trkpt><trkpt lat="44.1985467" lon="9.8198067"><ele>55.0</ele><time>2026-04-07T08:51:07.66Z</time></trkpt><trkpt lat="44.1985167" lon="9.8194367"><ele>56.5</ele><time>2026-04-07T08:51:08.66Z</time></trkpt><trkpt lat="44.1984867" lon="9.8190633"><ele>58.0</ele><time>2026-04-07T08:51:09.659Z</time></trkpt><trkpt lat="44.1984583" lon="9.81869"><ele>56.0</ele><time>2026-04-07T08:51:10.659Z</time></trkpt><trkpt lat="44.19843" lon="9.81832"><ele>54.0</ele><time>2026-04-07T08:51:11.659Z</time></trkpt><trkpt lat="44.19842" lon="9.8179467"><ele>52.5</ele><time>2026-04-07T08:51:12.66Z</time></trkpt><trkpt lat="44.1983967" lon="9.817575"><ele>51.0</ele><time>2026-04-07T08:51:13.66Z</time></trkpt><trkpt lat="44.1983683" lon="9.8172033"><ele>51.0</ele><time>2026-04-07T08:51:14.659Z</time></trkpt><trkpt lat="44.1983533" lon="9.8168283"><ele>51.0</ele><time>2026-04-07T08:51:15.659Z</time></trkpt><trkpt lat="44.1983333" lon="9.8164533"><ele>51.5</ele><time>2026-04-07T08:51:16.659Z</time></trkpt><trkpt lat="44.1983117" lon="9.81608"><ele>52.0</ele><time>2026-04-07T08:51:17.66Z</time></trkpt><trkpt lat="44.19829" lon="9.8157083"><ele>52.0</ele><time>2026-04-07T08:51:18.659Z</time></trkpt><trkpt lat="44.19827" lon="9.8153367"><ele>52.0</ele><time>2026-04-07T08:51:19.659Z</time></trkpt><trkpt lat="44.1982483" lon="9.8149633"><ele>51.5</ele><time>2026-04-07T08:51:20.659Z</time></trkpt><trkpt lat="44.1982317" lon="9.814585"><ele>51.0</ele><time>2026-04-07T08:51:21.659Z</time></trkpt><trkpt lat="44.198225" lon="9.8142067"><ele>51.0</ele><time>2026-04-07T08:51:22.659Z</time></trkpt><trkpt lat="44.19823" lon="9.813825"><ele>51.0</ele><time>2026-04-07T08:51:23.659Z</time></trkpt><trkpt lat="44.1982533" lon="9.813445"><ele>51.5</ele><time>2026-04-07T08:51:24.659Z</time></trkpt><trkpt lat="44.1982933" lon="9.8130717"><ele>52.0</ele><time>2026-04-07T08:51:25.659Z</time></trkpt><trkpt lat="44.1983533" lon="9.8126983"><ele>53.0</ele><time>2026-04-07T08:51:26.659Z</time></trkpt><trkpt lat="44.1984317" lon="9.8123383"><ele>54.0</ele><time>2026-04-07T08:51:27.659Z</time></trkpt><trkpt lat="44.198525" lon="9.8119867"><ele>54.0</ele><time>2026-04-07T08:51:28.659Z</time></trkpt><trkpt lat="44.1986317" lon="9.81164"><ele>54.0</ele><time>2026-04-07T08:51:29.659Z</time></trkpt><trkpt lat="44.1987533" lon="9.8113017"><ele>54.0</ele><time>2026-04-07T08:51:30.659Z</time></trkpt><trkpt lat="44.1988867" lon="9.8109717"><ele>54.0</ele><time>2026-04-07T08:51:31.659Z</time></trkpt><trkpt lat="44.1990333" lon="9.8106517"><ele>55.5</ele><time>2026-04-07T08:51:32.659Z</time></trkpt><trkpt lat="44.1991883" lon="9.810335"><ele>57.0</ele><time>2026-04-07T08:51:33.659Z</time></trkpt><trkpt lat="44.1993417" lon="9.8100167"><ele>57.5</ele><time>2026-04-07T08:51:34.659Z</time></trkpt><trkpt lat="44.199495" lon="9.8096967"><ele>58.0</ele><time>2026-04-07T08:51:35.66Z</time></trkpt><trkpt lat="44.19965" lon="9.80938"><ele>57.0</ele><time>2026-04-07T08:51:36.659Z</time></trkpt><trkpt lat="44.199805" lon="9.8090617"><ele>56.0</ele><time>2026-04-07T08:51:37.659Z</time></trkpt><trkpt lat="44.19996" lon="9.8087467"><ele>56.5</ele><time>2026-04-07T08:51:38.659Z</time></trkpt><trkpt lat="44.2001133" lon="9.80844"><ele>57.0</ele><time>2026-04-07T08:51:39.659Z</time></trkpt><trkpt lat="44.2002583" lon="9.80815"><ele>57.0</ele><time>2026-04-07T08:51:40.659Z</time></trkpt><trkpt lat="44.2003967" lon="9.8078717"><ele>57.0</ele><time>2026-04-07T08:51:41.659Z</time></trkpt><trkpt lat="44.2005333" lon="9.8075967"><ele>61.0</ele><time>2026-04-07T08:51:42.659Z</time></trkpt><trkpt lat="44.20067" lon="9.8073267"><ele>65.0</ele><time>2026-04-07T08:51:43.66Z</time></trkpt><trkpt lat="44.200805" lon="9.8070583"><ele>61.5</ele><time>2026-04-07T08:51:44.66Z</time></trkpt><trkpt lat="44.2009417" lon="9.80679"><ele>58.0</ele><time>2026-04-07T08:51:45.66Z</time></trkpt><trkpt lat="44.2010783" lon="9.8065167"><ele>58.0</ele><time>2026-04-07T08:51:46.66Z</time></trkpt><trkpt lat="44.20121" lon="9.8062433"><ele>58.0</ele><time>2026-04-07T08:51:47.659Z</time></trkpt><trkpt lat="44.2013483" lon="9.8059667"><ele>57.0</ele><time>2026-04-07T08:51:48.66Z</time></trkpt><trkpt lat="44.2014867" lon="9.8056917"><ele>56.0</ele><time>2026-04-07T08:51:49.66Z</time></trkpt><trkpt lat="44.2016267" lon="9.8054117"><ele>57.0</ele><time>2026-04-07T08:51:50.659Z</time></trkpt><trkpt lat="44.2017667" lon="9.8051317"><ele>58.0</ele><time>2026-04-07T08:51:51.659Z</time></trkpt><trkpt lat="44.20191" lon="9.8048367"><ele>58.0</ele><time>2026-04-07T08:51:52.659Z</time></trkpt><trkpt lat="44.2020533" lon="9.8045317"><ele>58.0</ele><time>2026-04-07T08:51:53.659Z</time></trkpt><trkpt lat="44.2022033" lon="9.8042167"><ele>58.5</ele><time>2026-04-07T08:51:54.659Z</time></trkpt><trkpt lat="44.202355" lon="9.8038967"><ele>59.0</ele><time>2026-04-07T08:51:55.659Z</time></trkpt><trkpt lat="44.2025133" lon="9.8035733"><ele>57.5</ele><time>2026-04-07T08:51:56.659Z</time></trkpt><trkpt lat="44.2026733" lon="9.80325"><ele>56.0</ele><time>2026-04-07T08:51:57.659Z</time></trkpt><trkpt lat="44.2028383" lon="9.8029233"><ele>55.5</ele><time>2026-04-07T08:51:58.659Z</time></trkpt><trkpt lat="44.2030017" lon="9.8025967"><ele>55.0</ele><time>2026-04-07T08:51:59.659Z</time></trkpt><trkpt lat="44.203165" lon="9.8022667"><ele>54.5</ele><time>2026-04-07T08:52:00.66Z</time></trkpt><trkpt lat="44.2033283" lon="9.801935"><ele>54.0</ele><time>2026-04-07T08:52:01.659Z</time></trkpt><trkpt lat="44.2034933" lon="9.8016033"><ele>54.0</ele><time>2026-04-07T08:52:02.659Z</time></trkpt><trkpt lat="44.20366" lon="9.80127"><ele>54.0</ele><time>2026-04-07T08:52:03.659Z</time></trkpt><trkpt lat="44.20383" lon="9.800945"><ele>54.5</ele><time>2026-04-07T08:52:04.659Z</time></trkpt><trkpt lat="44.2040017" lon="9.8006283"><ele>55.0</ele><time>2026-04-07T08:52:05.659Z</time></trkpt><trkpt lat="44.20417" lon="9.80031"><ele>54.0</ele><time>2026-04-07T08:52:06.659Z</time></trkpt><trkpt lat="44.204335" lon="9.7999883"><ele>53.0</ele><time>2026-04-07T08:52:07.659Z</time></trkpt><trkpt lat="44.2044967" lon="9.7996683"><ele>53.0</ele><time>2026-04-07T08:52:08.659Z</time></trkpt><trkpt lat="44.20465" lon="9.799345"><ele>53.0</ele><time>2026-04-07T08:52:09.659Z</time></trkpt><trkpt lat="44.2047917" lon="9.7990117"><ele>54.5</ele><time>2026-04-07T08:52:10.66Z</time></trkpt><trkpt lat="44.20492" lon="9.79867"><ele>56.0</ele><time>2026-04-07T08:52:11.66Z</time></trkpt><trkpt lat="44.2050333" lon="9.7983183"><ele>56.0</ele><time>2026-04-07T08:52:12.659Z</time></trkpt><trkpt lat="44.2051283" lon="9.7979567"><ele>56.0</ele><time>2026-04-07T08:52:13.659Z</time></trkpt><trkpt lat="44.2052083" lon="9.7975867"><ele>56.0</ele><time>2026-04-07T08:52:14.659Z</time></trkpt><trkpt lat="44.205275" lon="9.79721"><ele>56.0</ele><time>2026-04-07T08:52:15.659Z</time></trkpt><trkpt lat="44.205325" lon="9.7968267"><ele>56.5</ele><time>2026-04-07T08:52:16.659Z</time></trkpt><trkpt lat="44.2053667" lon="9.7964383"><ele>57.0</ele><time>2026-04-07T08:52:17.659Z</time></trkpt><trkpt lat="44.205395" lon="9.7960467"><ele>57.0</ele><time>2026-04-07T08:52:18.659Z</time></trkpt><trkpt lat="44.2054133" lon="9.7956533"><ele>57.0</ele><time>2026-04-07T08:52:19.659Z</time></trkpt><trkpt lat="44.2054317" lon="9.7952567"><ele>56.5</ele><time>2026-04-07T08:52:20.66Z</time></trkpt><trkpt lat="44.205445" lon="9.79486"><ele>56.0</ele><time>2026-04-07T08:52:21.659Z</time></trkpt><trkpt lat="44.20546" lon="9.7944633"><ele>56.0</ele><time>2026-04-07T08:52:22.659Z</time></trkpt><trkpt lat="44.2054733" lon="9.7940683"><ele>56.0</ele><time>2026-04-07T08:52:23.659Z</time></trkpt><trkpt lat="44.2054867" lon="9.7936733"><ele>56.0</ele><time>2026-04-07T08:52:24.659Z</time></trkpt><trkpt lat="44.2055017" lon="9.793275"><ele>56.0</ele><time>2026-04-07T08:52:25.66Z</time></trkpt><trkpt lat="44.2055167" lon="9.7928767"><ele>57.0</ele><time>2026-04-07T08:52:26.659Z</time></trkpt><trkpt lat="44.2055333" lon="9.7924783"><ele>58.0</ele><time>2026-04-07T08:52:27.659Z</time></trkpt><trkpt lat="44.2055483" lon="9.79208"><ele>58.5</ele><time>2026-04-07T08:52:28.659Z</time></trkpt><trkpt lat="44.2055617" lon="9.7916833"><ele>59.0</ele><time>2026-04-07T08:52:29.659Z</time></trkpt><trkpt lat="44.2055767" lon="9.791285"><ele>60.0</ele><time>2026-04-07T08:52:30.659Z</time></trkpt><trkpt lat="44.20559" lon="9.7908867"><ele>61.0</ele><time>2026-04-07T08:52:31.659Z</time></trkpt><trkpt lat="44.2056033" lon="9.79049"><ele>62.5</ele><time>2026-04-07T08:52:32.659Z</time></trkpt><trkpt lat="44.2056167" lon="9.7900917"><ele>64.0</ele><time>2026-04-07T08:52:33.659Z</time></trkpt><trkpt lat="44.2056333" lon="9.7896933"><ele>63.5</ele><time>2026-04-07T08:52:34.659Z</time></trkpt><trkpt lat="44.205655" lon="9.7892983"><ele>63.0</ele><time>2026-04-07T08:52:35.659Z</time></trkpt><trkpt lat="44.2056767" lon="9.788905"><ele>65.0</ele><time>2026-04-07T08:52:36.66Z</time></trkpt><trkpt lat="44.2056967" lon="9.78851"><ele>67.0</ele><time>2026-04-07T08:52:37.659Z</time></trkpt><trkpt lat="44.2057117" lon="9.7881217"><ele>67.0</ele><time>2026-04-07T08:52:38.659Z</time></trkpt><trkpt lat="44.2057283" lon="9.7877333"><ele>67.0</ele><time>2026-04-07T08:52:39.659Z</time></trkpt><trkpt lat="44.2057417" lon="9.7873467"><ele>68.0</ele><time>2026-04-07T08:52:40.659Z</time></trkpt><trkpt lat="44.2057583" lon="9.78697"><ele>69.0</ele><time>2026-04-07T08:52:41.659Z</time></trkpt><trkpt lat="44.205775" lon="9.7865917"><ele>70.0</ele><time>2026-04-07T08:52:42.659Z</time></trkpt><trkpt lat="44.2057883" lon="9.786215"><ele>71.0</ele><time>2026-04-07T08:52:43.659Z</time></trkpt><trkpt lat="44.2058017" lon="9.7858383"><ele>71.5</ele><time>2026-04-07T08:52:44.66Z</time></trkpt><trkpt lat="44.205815" lon="9.785465"><ele>72.0</ele><time>2026-04-07T08:52:45.659Z</time></trkpt><trkpt lat="44.20583" lon="9.7850917"><ele>73.5</ele><time>2026-04-07T08:52:46.66Z</time></trkpt><trkpt lat="44.20585" lon="9.7847167"><ele>75.0</ele><time>2026-04-07T08:52:47.659Z</time></trkpt><trkpt lat="44.2058767" lon="9.78434"><ele>76.5</ele><time>2026-04-07T08:52:48.66Z</time></trkpt><trkpt lat="44.20591" lon="9.783965"><ele>78.0</ele><time>2026-04-07T08:52:49.659Z</time></trkpt><trkpt lat="44.2059467" lon="9.78359"><ele>80.0</ele><time>2026-04-07T08:52:50.659Z</time></trkpt><trkpt lat="44.2059833" lon="9.7832133"><ele>82.0</ele><time>2026-04-07T08:52:51.659Z</time></trkpt><trkpt lat="44.2060233" lon="9.78284"><ele>84.5</ele><time>2026-04-07T08:52:52.66Z</time></trkpt><trkpt lat="44.20607" lon="9.782465"><ele>87.0</ele><time>2026-04-07T08:52:53.66Z</time></trkpt><trkpt lat="44.20612" lon="9.7820883"><ele>93.0</ele><time>2026-04-07T08:52:54.659Z</time></trkpt><trkpt lat="44.206175" lon="9.78171"><ele>99.0</ele><time>2026-04-07T08:52:55.659Z</time></trkpt><trkpt lat="44.206235" lon="9.781335"><ele>108.0</ele><time>2026-04-07T08:52:56.659Z</time></trkpt><trkpt lat="44.2062983" lon="9.780965"><ele>117.0</ele><time>2026-04-07T08:52:57.66Z</time></trkpt><trkpt lat="44.2063633" lon="9.7805917"><ele>117.0</ele><time>2026-04-07T08:52:58.66Z</time></trkpt><trkpt lat="44.20643" lon="9.7802117"><ele>117.0</ele><time>2026-04-07T08:52:59.659Z</time></trkpt><trkpt lat="44.2064983" lon="9.7798317"><ele>132.0</ele><time>2026-04-07T08:53:00.659Z</time></trkpt><trkpt lat="44.20657" lon="9.779455"><ele>147.0</ele><time>2026-04-07T08:53:01.659Z</time></trkpt><trkpt lat="44.20664" lon="9.779075"><ele>162.5</ele><time>2026-04-07T08:53:02.659Z</time></trkpt><trkpt lat="44.2067083" lon="9.7786933"><ele>178.0</ele><time>2026-04-07T08:53:03.66Z</time></trkpt><trkpt lat="44.2067783" lon="9.7783117"><ele>194.5</ele><time>2026-04-07T08:53:04.659Z</time></trkpt><trkpt lat="44.206845" lon="9.7779233"><ele>211.0</ele><time>2026-04-07T08:53:05.659Z</time></trkpt><trkpt lat="44.20691" lon="9.7775283"><ele>224.5</ele><time>2026-04-07T08:53:06.659Z</time></trkpt><trkpt lat="44.2069933" lon="9.7771567"><ele>238.0</ele><time>2026-04-07T08:53:07.659Z</time></trkpt><trkpt lat="44.2139367" lon="9.7660583"><ele>176.0</ele><time>2026-04-07T08:53:44.659Z</time></trkpt><trkpt lat="44.2141333" lon="9.7657383"><ele>114.0</ele><time>2026-04-07T08:53:45.659Z</time></trkpt><trkpt lat="44.21432" lon="9.76543"><ele>103.0</ele><time>2026-04-07T08:53:46.66Z</time></trkpt><trkpt lat="44.2145133" lon="9.7651317"><ele>92.0</ele><time>2026-04-07T08:53:47.659Z</time></trkpt><trkpt lat="44.2147117" lon="9.7648383"><ele>96.0</ele><time>2026-04-07T08:53:48.659Z</time></trkpt><trkpt lat="44.21491" lon="9.7645467"><ele>100.0</ele><time>2026-04-07T08:53:49.659Z</time></trkpt><trkpt lat="44.2151033" lon="9.7642583"><ele>100.0</ele><time>2026-04-07T08:53:50.659Z</time></trkpt><trkpt lat="44.215295" lon="9.7639683"><ele>100.0</ele><time>2026-04-07T08:53:51.659Z</time></trkpt><trkpt lat="44.2154883" lon="9.7636617"><ele>108.0</ele><time>2026-04-07T08:53:52.659Z</time></trkpt><trkpt lat="44.2156767" lon="9.7633667"><ele>116.0</ele><time>2026-04-07T08:53:53.659Z</time></trkpt><trkpt lat="44.2158667" lon="9.7630783"><ele>116.0</ele><time>2026-04-07T08:53:54.659Z</time></trkpt><trkpt lat="44.21605" lon="9.7627933"><ele>116.0</ele><time>2026-04-07T08:53:55.659Z</time></trkpt><trkpt lat="44.2162233" lon="9.762505"><ele>118.5</ele><time>2026-04-07T08:53:56.659Z</time></trkpt><trkpt lat="44.2164" lon="9.7622267"><ele>121.0</ele><time>2026-04-07T08:53:57.659Z</time></trkpt><trkpt lat="44.2165717" lon="9.76196"><ele>155.5</ele><time>2026-04-07T08:53:58.659Z</time></trkpt><trkpt lat="44.2167433" lon="9.7616867"><ele>190.0</ele><time>2026-04-07T08:53:59.66Z</time></trkpt><trkpt lat="44.2169117" lon="9.7614267"><ele>190.0</ele><time>2026-04-07T08:54:00.659Z</time></trkpt><trkpt lat="44.2170733" lon="9.7611717"><ele>190.0</ele><time>2026-04-07T08:54:01.659Z</time></trkpt><trkpt lat="44.21723" lon="9.7608917"><ele>214.0</ele><time>2026-04-07T08:54:02.659Z</time></trkpt><trkpt lat="44.21738" lon="9.7605483"><ele>238.0</ele><time>2026-04-07T08:54:03.659Z</time></trkpt><trkpt lat="44.2175333" lon="9.7602667"><ele>233.0</ele><time>2026-04-07T08:54:04.659Z</time></trkpt><trkpt lat="44.2176867" lon="9.7600083"><ele>228.0</ele><time>2026-04-07T08:54:05.659Z</time></trkpt><trkpt lat="44.2196667" lon="9.757465"><ele>167.0</ele><time>2026-04-07T08:54:13.659Z</time></trkpt><trkpt lat="44.2198683" lon="9.7571383"><ele>106.0</ele><time>2026-04-07T08:54:14.659Z</time></trkpt><trkpt lat="44.2200683" lon="9.7568383"><ele>100.0</ele><time>2026-04-07T08:54:15.659Z</time></trkpt><trkpt lat="44.2202683" lon="9.7565583"><ele>94.0</ele><time>2026-04-07T08:54:16.659Z</time></trkpt><trkpt lat="44.2204783" lon="9.7562883"><ele>91.5</ele><time>2026-04-07T08:54:17.659Z</time></trkpt><trkpt lat="44.22069" lon="9.7560283"><ele>89.0</ele><time>2026-04-07T08:54:18.66Z</time></trkpt><trkpt lat="44.2209083" lon="9.7557783"><ele>89.0</ele><time>2026-04-07T08:54:19.659Z</time></trkpt><trkpt lat="44.2211283" lon="9.755535"><ele>89.0</ele><time>2026-04-07T08:54:20.66Z</time></trkpt><trkpt lat="44.221345" lon="9.75529"><ele>86.0</ele><time>2026-04-07T08:54:21.659Z</time></trkpt><trkpt lat="44.2215533" lon="9.7550367"><ele>83.0</ele><time>2026-04-07T08:54:22.659Z</time></trkpt><trkpt lat="44.221765" lon="9.7547867"><ele>83.0</ele><time>2026-04-07T08:54:23.659Z</time></trkpt><trkpt lat="44.2219767" lon="9.7545367"><ele>83.0</ele><time>2026-04-07T08:54:24.659Z</time></trkpt><trkpt lat="44.2221883" lon="9.7542883"><ele>86.5</ele><time>2026-04-07T08:54:25.659Z</time></trkpt><trkpt lat="44.2223967" lon="9.7540433"><ele>90.0</ele><time>2026-04-07T08:54:26.659Z</time></trkpt><trkpt lat="44.2226" lon="9.7537983"><ele>90.0</ele><time>2026-04-07T08:54:27.659Z</time></trkpt><trkpt lat="44.2227967" lon="9.7535433"><ele>90.0</ele><time>2026-04-07T08:54:28.659Z</time></trkpt><trkpt lat="44.2229883" lon="9.7532783"><ele>90.5</ele><time>2026-04-07T08:54:29.659Z</time></trkpt><trkpt lat="44.2231683" lon="9.753"><ele>91.0</ele><time>2026-04-07T08:54:30.659Z</time></trkpt><trkpt lat="44.2233383" lon="9.7527033"><ele>91.0</ele><time>2026-04-07T08:54:31.659Z</time></trkpt><trkpt lat="44.223495" lon="9.752395"><ele>91.0</ele><time>2026-04-07T08:54:32.659Z</time></trkpt><trkpt lat="44.2236433" lon="9.7520767"><ele>98.0</ele><time>2026-04-07T08:54:33.659Z</time></trkpt><trkpt lat="44.2237733" lon="9.75174"><ele>105.0</ele><time>2026-04-07T08:54:34.659Z</time></trkpt><trkpt lat="44.2238917" lon="9.751395"><ele>96.0</ele><time>2026-04-07T08:54:35.659Z</time></trkpt><trkpt lat="44.224005" lon="9.75105"><ele>87.0</ele><time>2026-04-07T08:54:36.659Z</time></trkpt><trkpt lat="44.2241083" lon="9.750695"><ele>87.0</ele><time>2026-04-07T08:54:37.659Z</time></trkpt><trkpt lat="44.2241983" lon="9.7503417"><ele>87.0</ele><time>2026-04-07T08:54:38.66Z</time></trkpt><trkpt lat="44.22428" lon="9.749975"><ele>88.0</ele><time>2026-04-07T08:54:39.659Z</time></trkpt><trkpt lat="44.2243483" lon="9.7496017"><ele>89.0</ele><time>2026-04-07T08:54:40.66Z</time></trkpt><trkpt lat="44.2244167" lon="9.74923"><ele>89.0</ele><time>2026-04-07T08:54:41.659Z</time></trkpt><trkpt lat="44.22449" lon="9.7488617"><ele>89.0</ele><time>2026-04-07T08:54:42.659Z</time></trkpt><trkpt lat="44.2245633" lon="9.7484917"><ele>89.0</ele><time>2026-04-07T08:54:43.659Z</time></trkpt><trkpt lat="44.22463" lon="9.7481217"><ele>89.0</ele><time>2026-04-07T08:54:44.659Z</time></trkpt><trkpt lat="44.224695" lon="9.74775"><ele>89.0</ele><time>2026-04-07T08:54:45.659Z</time></trkpt><trkpt lat="44.2247617" lon="9.7473817"><ele>89.0</ele><time>2026-04-07T08:54:46.66Z</time></trkpt><trkpt lat="44.2248267" lon="9.747015"><ele>87.5</ele><time>2026-04-07T08:54:47.659Z</time></trkpt><trkpt lat="44.2248933" lon="9.7466433"><ele>86.0</ele><time>2026-04-07T08:54:48.66Z</time></trkpt><trkpt lat="44.2249583" lon="9.7462717"><ele>87.5</ele><time>2026-04-07T08:54:49.658Z</time></trkpt><trkpt lat="44.2250183" lon="9.7459"><ele>89.0</ele><time>2026-04-07T08:54:50.659Z</time></trkpt><trkpt lat="44.2250717" lon="9.7455317"><ele>89.5</ele><time>2026-04-07T08:54:51.659Z</time></trkpt><trkpt lat="44.22511" lon="9.74516"><ele>90.0</ele><time>2026-04-07T08:54:52.659Z</time></trkpt><trkpt lat="44.2251333" lon="9.7447883"><ele>90.0</ele><time>2026-04-07T08:54:53.659Z</time></trkpt><trkpt lat="44.2251433" lon="9.744415"><ele>90.0</ele><time>2026-04-07T08:54:54.659Z</time></trkpt><trkpt lat="44.225135" lon="9.74404"><ele>89.5</ele><time>2026-04-07T08:54:55.659Z</time></trkpt><trkpt lat="44.2251117" lon="9.7436617"><ele>89.0</ele><time>2026-04-07T08:54:56.659Z</time></trkpt><trkpt lat="44.22507" lon="9.7432817"><ele>88.5</ele><time>2026-04-07T08:54:57.659Z</time></trkpt><trkpt lat="44.22501" lon="9.7429083"><ele>88.0</ele><time>2026-04-07T08:54:58.659Z</time></trkpt><trkpt lat="44.2249367" lon="9.7425417"><ele>88.5</ele><time>2026-04-07T08:54:59.659Z</time></trkpt><trkpt lat="44.2248533" lon="9.7421783"><ele>89.0</ele><time>2026-04-07T08:55:00.659Z</time></trkpt><trkpt lat="44.2247667" lon="9.741815"><ele>89.0</ele><time>2026-04-07T08:55:01.659Z</time></trkpt><trkpt lat="44.2246817" lon="9.7414533"><ele>89.0</ele><time>2026-04-07T08:55:02.66Z</time></trkpt><trkpt lat="44.224595" lon="9.74109"><ele>89.5</ele><time>2026-04-07T08:55:03.659Z</time></trkpt><trkpt lat="44.224505" lon="9.74073"><ele>90.0</ele><time>2026-04-07T08:55:04.659Z</time></trkpt><trkpt lat="44.2244183" lon="9.7403667"><ele>90.5</ele><time>2026-04-07T08:55:05.659Z</time></trkpt><trkpt lat="44.2243317" lon="9.7400017"><ele>91.0</ele><time>2026-04-07T08:55:06.659Z</time></trkpt><trkpt lat="44.2242467" lon="9.7396367"><ele>91.0</ele><time>2026-04-07T08:55:07.66Z</time></trkpt><trkpt lat="44.2241617" lon="9.73927"><ele>91.0</ele><time>2026-04-07T08:55:08.659Z</time></trkpt><trkpt lat="44.2240867" lon="9.7389"><ele>91.5</ele><time>2026-04-07T08:55:09.659Z</time></trkpt><trkpt lat="44.2240233" lon="9.7385267"><ele>92.0</ele><time>2026-04-07T08:55:10.659Z</time></trkpt><trkpt lat="44.2239783" lon="9.73815"><ele>91.0</ele><time>2026-04-07T08:55:11.659Z</time></trkpt><trkpt lat="44.2239483" lon="9.7377717"><ele>90.0</ele><time>2026-04-07T08:55:12.659Z</time></trkpt><trkpt lat="44.223935" lon="9.73739"><ele>90.0</ele><time>2026-04-07T08:55:13.659Z</time></trkpt><trkpt lat="44.2239367" lon="9.73701"><ele>90.0</ele><time>2026-04-07T08:55:14.659Z</time></trkpt><trkpt lat="44.2239517" lon="9.7366317"><ele>94.0</ele><time>2026-04-07T08:55:15.659Z</time></trkpt><trkpt lat="44.2239817" lon="9.736255"><ele>98.0</ele><time>2026-04-07T08:55:16.659Z</time></trkpt><trkpt lat="44.2240283" lon="9.7358817"><ele>99.0</ele><time>2026-04-07T08:55:17.659Z</time></trkpt><trkpt lat="44.2240917" lon="9.7355117"><ele>100.0</ele><time>2026-04-07T08:55:18.659Z</time></trkpt><trkpt lat="44.2241717" lon="9.7351483"><ele>100.0</ele><time>2026-04-07T08:55:19.659Z</time></trkpt><trkpt lat="44.2242683" lon="9.734795"><ele>100.0</ele><time>2026-04-07T08:55:20.659Z</time></trkpt><trkpt lat="44.22438" lon="9.7344517"><ele>99.0</ele><time>2026-04-07T08:55:21.659Z</time></trkpt><trkpt lat="44.2245033" lon="9.73412"><ele>98.0</ele><time>2026-04-07T08:55:22.659Z</time></trkpt><trkpt lat="44.2246417" lon="9.733795"><ele>97.0</ele><time>2026-04-07T08:55:23.659Z</time></trkpt><trkpt lat="44.2247933" lon="9.7334817"><ele>96.0</ele><time>2026-04-07T08:55:24.659Z</time></trkpt><trkpt lat="44.224965" lon="9.733185"><ele>98.0</ele><time>2026-04-07T08:55:25.66Z</time></trkpt><trkpt lat="44.22514" lon="9.7328917"><ele>100.0</ele><time>2026-04-07T08:55:26.659Z</time></trkpt><trkpt lat="44.22532" lon="9.7325983"><ele>100.0</ele><time>2026-04-07T08:55:27.659Z</time></trkpt><trkpt lat="44.22549" lon="9.7323067"><ele>100.0</ele><time>2026-04-07T08:55:28.659Z</time></trkpt><trkpt lat="44.22566" lon="9.7320133"><ele>101.5</ele><time>2026-04-07T08:55:29.659Z</time></trkpt><trkpt lat="44.2258283" lon="9.7317217"><ele>103.0</ele><time>2026-04-07T08:55:30.659Z</time></trkpt><trkpt lat="44.2259967" lon="9.7314267"><ele>103.0</ele><time>2026-04-07T08:55:31.66Z</time></trkpt><trkpt lat="44.2261633" lon="9.731135"><ele>103.0</ele><time>2026-04-07T08:55:32.659Z</time></trkpt><trkpt lat="44.2263317" lon="9.73084"><ele>105.0</ele><time>2026-04-07T08:55:33.659Z</time></trkpt><trkpt lat="44.2264967" lon="9.7305467"><ele>107.0</ele><time>2026-04-07T08:55:34.66Z</time></trkpt><trkpt lat="44.226665" lon="9.73025"><ele>107.0</ele><time>2026-04-07T08:55:35.66Z</time></trkpt><trkpt lat="44.2268317" lon="9.729955"><ele>107.0</ele><time>2026-04-07T08:55:36.659Z</time></trkpt><trkpt lat="44.227" lon="9.7296583"><ele>105.5</ele><time>2026-04-07T08:55:37.659Z</time></trkpt><trkpt lat="44.2271667" lon="9.7293633"><ele>104.0</ele><time>2026-04-07T08:55:38.659Z</time></trkpt><trkpt lat="44.2273333" lon="9.729065"><ele>103.5</ele><time>2026-04-07T08:55:39.66Z</time></trkpt><trkpt lat="44.2275017" lon="9.72877"><ele>103.0</ele><time>2026-04-07T08:55:40.659Z</time></trkpt><trkpt lat="44.2276717" lon="9.728475"><ele>102.5</ele><time>2026-04-07T08:55:41.659Z</time></trkpt><trkpt lat="44.2278417" lon="9.7281817"><ele>102.0</ele><time>2026-04-07T08:55:42.659Z</time></trkpt><trkpt lat="44.2280067" lon="9.7278883"><ele>103.0</ele><time>2026-04-07T08:55:43.659Z</time></trkpt><trkpt lat="44.2281733" lon="9.7275967"><ele>104.0</ele><time>2026-04-07T08:55:44.66Z</time></trkpt><trkpt lat="44.2283383" lon="9.7273067"><ele>104.0</ele><time>2026-04-07T08:55:45.659Z</time></trkpt><trkpt lat="44.2285067" lon="9.7270183"><ele>104.0</ele><time>2026-04-07T08:55:46.659Z</time></trkpt><trkpt lat="44.2286717" lon="9.7267283"><ele>103.5</ele><time>2026-04-07T08:55:47.659Z</time></trkpt><trkpt lat="44.2288333" lon="9.7264383"><ele>103.0</ele><time>2026-04-07T08:55:48.66Z</time></trkpt><trkpt lat="44.2289983" lon="9.7261483"><ele>102.5</ele><time>2026-04-07T08:55:49.659Z</time></trkpt><trkpt lat="44.2291633" lon="9.7258567"><ele>102.0</ele><time>2026-04-07T08:55:50.659Z</time></trkpt><trkpt lat="44.22933" lon="9.7255617"><ele>102.0</ele><time>2026-04-07T08:55:51.66Z</time></trkpt><trkpt lat="44.2294967" lon="9.7252683"><ele>102.0</ele><time>2026-04-07T08:55:52.659Z</time></trkpt><trkpt lat="44.2296633" lon="9.7249717"><ele>102.0</ele><time>2026-04-07T08:55:53.659Z</time></trkpt><trkpt lat="44.2298283" lon="9.7246783"><ele>102.0</ele><time>2026-04-07T08:55:54.659Z</time></trkpt><trkpt lat="44.2299967" lon="9.7243833"><ele>102.0</ele><time>2026-04-07T08:55:55.659Z</time></trkpt><trkpt lat="44.2301633" lon="9.72409"><ele>102.0</ele><time>2026-04-07T08:55:56.659Z</time></trkpt><trkpt lat="44.2303283" lon="9.7237983"><ele>102.0</ele><time>2026-04-07T08:55:57.66Z</time></trkpt><trkpt lat="44.2304933" lon="9.7235083"><ele>102.0</ele><time>2026-04-07T08:55:58.659Z</time></trkpt><trkpt lat="44.2306617" lon="9.7232183"><ele>102.0</ele><time>2026-04-07T08:55:59.66Z</time></trkpt><trkpt lat="44.2308267" lon="9.7229283"><ele>102.0</ele><time>2026-04-07T08:56:00.659Z</time></trkpt><trkpt lat="44.2309933" lon="9.7226367"><ele>101.5</ele><time>2026-04-07T08:56:01.659Z</time></trkpt><trkpt lat="44.2311617" lon="9.722345"><ele>101.0</ele><time>2026-04-07T08:56:02.66Z</time></trkpt><trkpt lat="44.2313283" lon="9.7220567"><ele>101.5</ele><time>2026-04-07T08:56:03.659Z</time></trkpt><trkpt lat="44.2314933" lon="9.7217667"><ele>102.0</ele><time>2026-04-07T08:56:04.659Z</time></trkpt><trkpt lat="44.2316567" lon="9.72148"><ele>102.0</ele><time>2026-04-07T08:56:05.659Z</time></trkpt><trkpt lat="44.2318233" lon="9.7211883"><ele>102.0</ele><time>2026-04-07T08:56:06.659Z</time></trkpt><trkpt lat="44.2319883" lon="9.720895"><ele>102.0</ele><time>2026-04-07T08:56:07.659Z</time></trkpt><trkpt lat="44.2321533" lon="9.7206067"><ele>102.0</ele><time>2026-04-07T08:56:08.66Z</time></trkpt><trkpt lat="44.23232" lon="9.7203183"><ele>103.0</ele><time>2026-04-07T08:56:09.659Z</time></trkpt><trkpt lat="44.2324817" lon="9.72003"><ele>104.0</ele><time>2026-04-07T08:56:10.659Z</time></trkpt><trkpt lat="44.2326467" lon="9.71975"><ele>104.0</ele><time>2026-04-07T08:56:11.659Z</time></trkpt><trkpt lat="44.2328083" lon="9.7194633"><ele>104.0</ele><time>2026-04-07T08:56:12.659Z</time></trkpt><trkpt lat="44.2329683" lon="9.7191783"><ele>104.5</ele><time>2026-04-07T08:56:13.66Z</time></trkpt><trkpt lat="44.2331267" lon="9.7188967"><ele>105.0</ele><time>2026-04-07T08:56:14.659Z</time></trkpt><trkpt lat="44.2332883" lon="9.7186133"><ele>106.5</ele><time>2026-04-07T08:56:15.66Z</time></trkpt><trkpt lat="44.2334467" lon="9.7183333"><ele>108.0</ele><time>2026-04-07T08:56:16.659Z</time></trkpt><trkpt lat="44.2336033" lon="9.718055"><ele>108.0</ele><time>2026-04-07T08:56:17.66Z</time></trkpt><trkpt lat="44.23376" lon="9.717775"><ele>108.0</ele><time>2026-04-07T08:56:18.659Z</time></trkpt><trkpt lat="44.2339167" lon="9.7174967"><ele>108.5</ele><time>2026-04-07T08:56:19.659Z</time></trkpt><trkpt lat="44.234075" lon="9.71722"><ele>109.0</ele><time>2026-04-07T08:56:20.659Z</time></trkpt><trkpt lat="44.234235" lon="9.71694"><ele>109.0</ele><time>2026-04-07T08:56:21.659Z</time></trkpt><trkpt lat="44.234395" lon="9.7166617"><ele>109.0</ele><time>2026-04-07T08:56:22.659Z</time></trkpt><trkpt lat="44.2345533" lon="9.7163783"><ele>109.0</ele><time>2026-04-07T08:56:23.659Z</time></trkpt><trkpt lat="44.2347067" lon="9.7160933"><ele>109.0</ele><time>2026-04-07T08:56:24.66Z</time></trkpt><trkpt lat="44.2348567" lon="9.7158017"><ele>113.0</ele><time>2026-04-07T08:56:25.659Z</time></trkpt><trkpt lat="44.2350033" lon="9.7155017"><ele>117.0</ele><time>2026-04-07T08:56:26.659Z</time></trkpt><trkpt lat="44.2351483" lon="9.7152"><ele>118.5</ele><time>2026-04-07T08:56:27.659Z</time></trkpt><trkpt lat="44.2352867" lon="9.7148917"><ele>120.0</ele><time>2026-04-07T08:56:28.659Z</time></trkpt><trkpt lat="44.2354183" lon="9.71458"><ele>120.0</ele><time>2026-04-07T08:56:29.659Z</time></trkpt><trkpt lat="44.2355467" lon="9.714265"><ele>120.0</ele><time>2026-04-07T08:56:30.659Z</time></trkpt><trkpt lat="44.2356683" lon="9.7139417"><ele>123.0</ele><time>2026-04-07T08:56:31.659Z</time></trkpt><trkpt lat="44.2357867" lon="9.713615"><ele>126.0</ele><time>2026-04-07T08:56:32.66Z</time></trkpt><trkpt lat="44.2358967" lon="9.71328"><ele>126.5</ele><time>2026-04-07T08:56:33.659Z</time></trkpt><trkpt lat="44.2360033" lon="9.7129417"><ele>127.0</ele><time>2026-04-07T08:56:34.659Z</time></trkpt><trkpt lat="44.2361033" lon="9.7126"><ele>121.5</ele><time>2026-04-07T08:56:35.659Z</time></trkpt><trkpt lat="44.2361967" lon="9.7122567"><ele>116.0</ele><time>2026-04-07T08:56:36.659Z</time></trkpt><trkpt lat="44.236285" lon="9.7119083"><ele>112.5</ele><time>2026-04-07T08:56:37.659Z</time></trkpt><trkpt lat="44.23637" lon="9.7115567"><ele>109.0</ele><time>2026-04-07T08:56:38.659Z</time></trkpt><trkpt lat="44.2364483" lon="9.7112017"><ele>109.0</ele><time>2026-04-07T08:56:39.659Z</time></trkpt><trkpt lat="44.2365217" lon="9.7108433"><ele>109.0</ele><time>2026-04-07T08:56:40.659Z</time></trkpt><trkpt lat="44.2365883" lon="9.7104833"><ele>109.0</ele><time>2026-04-07T08:56:41.659Z</time></trkpt><trkpt lat="44.2366533" lon="9.7101217"><ele>109.0</ele><time>2026-04-07T08:56:42.659Z</time></trkpt><trkpt lat="44.2367167" lon="9.7097617"><ele>115.5</ele><time>2026-04-07T08:56:43.659Z</time></trkpt><trkpt lat="44.2367817" lon="9.7093983"><ele>122.0</ele><time>2026-04-07T08:56:44.659Z</time></trkpt><trkpt lat="44.236845" lon="9.7090367"><ele>122.0</ele><time>2026-04-07T08:56:45.659Z</time></trkpt><trkpt lat="44.236905" lon="9.7086767"><ele>122.0</ele><time>2026-04-07T08:56:46.658Z</time></trkpt><trkpt lat="44.2369667" lon="9.7083133"><ele>128.5</ele><time>2026-04-07T08:56:47.659Z</time></trkpt><trkpt lat="44.2370267" lon="9.7079533"><ele>135.0</ele><time>2026-04-07T08:56:48.659Z</time></trkpt><trkpt lat="44.2370883" lon="9.70759"><ele>139.5</ele><time>2026-04-07T08:56:49.658Z</time></trkpt><trkpt lat="44.2371533" lon="9.7072317"><ele>144.0</ele><time>2026-04-07T08:56:50.658Z</time></trkpt><trkpt lat="44.23722" lon="9.7068717"><ele>151.0</ele><time>2026-04-07T08:56:51.658Z</time></trkpt><trkpt lat="44.237285" lon="9.7065167"><ele>158.0</ele><time>2026-04-07T08:56:52.658Z</time></trkpt><trkpt lat="44.2373483" lon="9.7061733"><ele>174.5</ele><time>2026-04-07T08:56:53.658Z</time></trkpt><trkpt lat="44.2374167" lon="9.7058233"><ele>191.0</ele><time>2026-04-07T08:56:54.658Z</time></trkpt><trkpt lat="44.23749" lon="9.7054717"><ele>205.0</ele><time>2026-04-07T08:56:55.658Z</time></trkpt><trkpt lat="44.237575" lon="9.7051217"><ele>219.0</ele><time>2026-04-07T08:56:56.658Z</time></trkpt><trkpt lat="44.2376533" lon="9.7047717"><ele>219.0</ele><time>2026-04-07T08:56:57.658Z</time></trkpt><trkpt lat="44.2377367" lon="9.704425"><ele>219.0</ele><time>2026-04-07T08:56:58.658Z</time></trkpt><trkpt lat="44.2378417" lon="9.704105"><ele>233.5</ele><time>2026-04-07T08:56:59.658Z</time></trkpt><trkpt lat="44.238035" lon="9.7039033"><ele>248.0</ele><time>2026-04-07T08:57:00.659Z</time></trkpt><trkpt lat="44.238275" lon="9.7037683"><ele>168.0</ele><time>2026-04-07T08:57:01.658Z</time></trkpt><trkpt lat="44.237555" lon="9.6984917"><ele>168.0</ele><time>2026-04-07T08:57:14.658Z</time></trkpt><trkpt lat="44.2375617" lon="9.6981167"><ele>168.0</ele><time>2026-04-07T08:57:15.658Z</time></trkpt><trkpt lat="44.2375567" lon="9.6977267"><ele>164.5</ele><time>2026-04-07T08:57:16.658Z</time></trkpt><trkpt lat="44.2375533" lon="9.6973533"><ele>161.0</ele><time>2026-04-07T08:57:17.658Z</time></trkpt><trkpt lat="44.237565" lon="9.6969733"><ele>164.5</ele><time>2026-04-07T08:57:18.658Z</time></trkpt><trkpt lat="44.23759" lon="9.6966"><ele>168.0</ele><time>2026-04-07T08:57:19.658Z</time></trkpt><trkpt lat="44.2376367" lon="9.69623"><ele>172.0</ele><time>2026-04-07T08:57:20.658Z</time></trkpt><trkpt lat="44.237705" lon="9.6958667"><ele>176.0</ele><time>2026-04-07T08:57:21.659Z</time></trkpt><trkpt lat="44.237785" lon="9.6955117"><ele>178.5</ele><time>2026-04-07T08:57:22.658Z</time></trkpt><trkpt lat="44.23788" lon="9.695165"><ele>181.0</ele><time>2026-04-07T08:57:23.658Z</time></trkpt><trkpt lat="44.23799" lon="9.6948267"><ele>181.0</ele><time>2026-04-07T08:57:24.658Z</time></trkpt><trkpt lat="44.2381167" lon="9.6944983"><ele>181.0</ele><time>2026-04-07T08:57:25.658Z</time></trkpt><trkpt lat="44.23825" lon="9.6941867"><ele>176.5</ele><time>2026-04-07T08:57:26.658Z</time></trkpt><trkpt lat="44.2383967" lon="9.69389"><ele>172.0</ele><time>2026-04-07T08:57:27.658Z</time></trkpt><trkpt lat="44.23856" lon="9.6936017"><ele>179.0</ele><time>2026-04-07T08:57:28.658Z</time></trkpt><trkpt lat="44.2387333" lon="9.6933283"><ele>186.0</ele><time>2026-04-07T08:57:29.658Z</time></trkpt><trkpt lat="44.2389117" lon="9.6930633"><ele>189.0</ele><time>2026-04-07T08:57:30.658Z</time></trkpt><trkpt lat="44.2390967" lon="9.6928083"><ele>192.0</ele><time>2026-04-07T08:57:31.658Z</time></trkpt><trkpt lat="44.2392883" lon="9.6925567"><ele>192.0</ele><time>2026-04-07T08:57:32.658Z</time></trkpt><trkpt lat="44.23948" lon="9.6922933"><ele>192.0</ele><time>2026-04-07T08:57:33.658Z</time></trkpt><trkpt lat="44.239675" lon="9.6920033"><ele>197.0</ele><time>2026-04-07T08:57:34.658Z</time></trkpt><trkpt lat="44.2398717" lon="9.6917367"><ele>202.0</ele><time>2026-04-07T08:57:35.658Z</time></trkpt><trkpt lat="44.2400683" lon="9.6914683"><ele>202.0</ele><time>2026-04-07T08:57:36.658Z</time></trkpt><trkpt lat="44.2402717" lon="9.6911933"><ele>202.0</ele><time>2026-04-07T08:57:37.658Z</time></trkpt><trkpt lat="44.2404717" lon="9.69092"><ele>214.5</ele><time>2026-04-07T08:57:38.658Z</time></trkpt><trkpt lat="44.2407" lon="9.6905733"><ele>227.0</ele><time>2026-04-07T08:57:39.658Z</time></trkpt><trkpt lat="44.240955" lon="9.690175"><ele>233.5</ele><time>2026-04-07T08:57:40.658Z</time></trkpt><trkpt lat="44.24123" lon="9.689735"><ele>240.0</ele><time>2026-04-07T08:57:41.658Z</time></trkpt><trkpt lat="44.2414867" lon="9.6893967"><ele>249.5</ele><time>2026-04-07T08:57:42.658Z</time></trkpt><trkpt lat="44.2417667" lon="9.6890633"><ele>259.0</ele><time>2026-04-07T08:57:43.658Z</time></trkpt><trkpt lat="44.2410567" lon="9.68536"><ele>230.5</ele><time>2026-04-07T08:57:54.658Z</time></trkpt><trkpt lat="44.2409983" lon="9.68498"><ele>202.0</ele><time>2026-04-07T08:57:55.659Z</time></trkpt><trkpt lat="44.2409417" lon="9.6846117"><ele>201.0</ele><time>2026-04-07T08:57:56.658Z</time></trkpt><trkpt lat="44.240895" lon="9.684245"><ele>200.0</ele><time>2026-04-07T08:57:57.658Z</time></trkpt><trkpt lat="44.24084" lon="9.6838667"><ele>198.5</ele><time>2026-04-07T08:57:58.658Z</time></trkpt><trkpt lat="44.2407867" lon="9.6835067"><ele>197.0</ele><time>2026-04-07T08:57:59.659Z</time></trkpt><trkpt lat="44.2407283" lon="9.6831483"><ele>197.0</ele><time>2026-04-07T08:58:00.658Z</time></trkpt><trkpt lat="44.2406683" lon="9.6827933"><ele>197.0</ele><time>2026-04-07T08:58:01.658Z</time></trkpt><trkpt lat="44.2406117" lon="9.68244"><ele>207.0</ele><time>2026-04-07T08:58:02.658Z</time></trkpt><trkpt lat="44.2405633" lon="9.68208"><ele>217.0</ele><time>2026-04-07T08:58:03.658Z</time></trkpt><trkpt lat="44.2405067" lon="9.68172"><ele>217.0</ele><time>2026-04-07T08:58:04.658Z</time></trkpt><trkpt lat="44.2404433" lon="9.6813633"><ele>217.0</ele><time>2026-04-07T08:58:05.658Z</time></trkpt><trkpt lat="44.240375" lon="9.6810067"><ele>217.0</ele><time>2026-04-07T08:58:06.658Z</time></trkpt><trkpt lat="44.2403017" lon="9.6806517"><ele>217.0</ele><time>2026-04-07T08:58:07.658Z</time></trkpt><trkpt lat="44.240225" lon="9.6803"><ele>215.5</ele><time>2026-04-07T08:58:08.658Z</time></trkpt><trkpt lat="44.240145" lon="9.6799533"><ele>214.0</ele><time>2026-04-07T08:58:09.658Z</time></trkpt><trkpt lat="44.2400617" lon="9.6796067"><ele>205.5</ele><time>2026-04-07T08:58:10.658Z</time></trkpt><trkpt lat="44.23997" lon="9.6792617"><ele>197.0</ele><time>2026-04-07T08:58:11.658Z</time></trkpt><trkpt lat="44.23987" lon="9.67892"><ele>214.0</ele><time>2026-04-07T08:58:12.658Z</time></trkpt><trkpt lat="44.2397683" lon="9.6785783"><ele>231.0</ele><time>2026-04-07T08:58:13.658Z</time></trkpt><trkpt lat="44.2396617" lon="9.678235"><ele>231.0</ele><time>2026-04-07T08:58:14.658Z</time></trkpt><trkpt lat="44.2395583" lon="9.67789"><ele>231.0</ele><time>2026-04-07T08:58:15.658Z</time></trkpt><trkpt lat="44.2394517" lon="9.677545"><ele>233.0</ele><time>2026-04-07T08:58:16.658Z</time></trkpt><trkpt lat="44.23935" lon="9.6771983"><ele>235.0</ele><time>2026-04-07T08:58:17.658Z</time></trkpt><trkpt lat="44.2392367" lon="9.6768483"><ele>239.0</ele><time>2026-04-07T08:58:18.658Z</time></trkpt><trkpt lat="44.2391317" lon="9.6764767"><ele>243.0</ele><time>2026-04-07T08:58:19.658Z</time></trkpt><trkpt lat="44.23903" lon="9.6760833"><ele>262.5</ele><time>2026-04-07T08:58:20.658Z</time></trkpt><trkpt lat="44.2389467" lon="9.6756867"><ele>282.0</ele><time>2026-04-07T08:58:21.658Z</time></trkpt><trkpt lat="44.2388433" lon="9.6753117"><ele>283.5</ele><time>2026-04-07T08:58:22.658Z</time></trkpt><trkpt lat="44.2387033" lon="9.6749133"><ele>285.0</ele><time>2026-04-07T08:58:23.658Z</time></trkpt><trkpt lat="44.2385233" lon="9.6745117"><ele>290.0</ele><time>2026-04-07T08:58:24.659Z</time></trkpt><trkpt lat="44.2383967" lon="9.6741317"><ele>295.0</ele><time>2026-04-07T08:58:25.658Z</time></trkpt><trkpt lat="44.238235" lon="9.6738533"><ele>220.0</ele><time>2026-04-07T08:58:26.659Z</time></trkpt><trkpt lat="44.23841" lon="9.6670583"><ele>215.5</ele><time>2026-04-07T08:58:43.658Z</time></trkpt><trkpt lat="44.23833" lon="9.6667067"><ele>211.0</ele><time>2026-04-07T08:58:44.658Z</time></trkpt><trkpt lat="44.2382517" lon="9.66638"><ele>208.5</ele><time>2026-04-07T08:58:45.658Z</time></trkpt><trkpt lat="44.23815" lon="9.666025"><ele>206.0</ele><time>2026-04-07T08:58:46.658Z</time></trkpt><trkpt lat="44.238035" lon="9.6656583"><ele>210.0</ele><time>2026-04-07T08:58:47.658Z</time></trkpt><trkpt lat="44.2379067" lon="9.6652967"><ele>214.0</ele><time>2026-04-07T08:58:48.658Z</time></trkpt><trkpt lat="44.2377733" lon="9.66494"><ele>214.0</ele><time>2026-04-07T08:58:49.658Z</time></trkpt><trkpt lat="44.237635" lon="9.664585"><ele>214.0</ele><time>2026-04-07T08:58:50.658Z</time></trkpt><trkpt lat="44.2374917" lon="9.664235"><ele>206.5</ele><time>2026-04-07T08:58:51.658Z</time></trkpt><trkpt lat="44.2373467" lon="9.6638833"><ele>199.0</ele><time>2026-04-07T08:58:52.658Z</time></trkpt><trkpt lat="44.2372017" lon="9.6635333"><ele>198.0</ele><time>2026-04-07T08:58:53.658Z</time></trkpt><trkpt lat="44.23706" lon="9.66318"><ele>197.0</ele><time>2026-04-07T08:58:54.658Z</time></trkpt><trkpt lat="44.2369233" lon="9.662825"><ele>198.0</ele><time>2026-04-07T08:58:55.659Z</time></trkpt><trkpt lat="44.2367867" lon="9.66247"><ele>199.0</ele><time>2026-04-07T08:58:56.658Z</time></trkpt><trkpt lat="44.23666" lon="9.66211"><ele>202.5</ele><time>2026-04-07T08:58:57.658Z</time></trkpt><trkpt lat="44.2365383" lon="9.6617483"><ele>206.0</ele><time>2026-04-07T08:58:58.658Z</time></trkpt><trkpt lat="44.2364217" lon="9.66138"><ele>216.5</ele><time>2026-04-07T08:58:59.659Z</time></trkpt><trkpt lat="44.23631" lon="9.6610117"><ele>227.0</ele><time>2026-04-07T08:59:00.658Z</time></trkpt><trkpt lat="44.2361967" lon="9.66064"><ele>232.5</ele><time>2026-04-07T08:59:01.659Z</time></trkpt><trkpt lat="44.2360883" lon="9.6602717"><ele>238.0</ele><time>2026-04-07T08:59:02.658Z</time></trkpt><trkpt lat="44.2359767" lon="9.659895"><ele>238.0</ele><time>2026-04-07T08:59:03.658Z</time></trkpt><trkpt lat="44.235865" lon="9.659515"><ele>238.0</ele><time>2026-04-07T08:59:04.658Z</time></trkpt><trkpt lat="44.2357583" lon="9.65914"><ele>244.5</ele><time>2026-04-07T08:59:05.658Z</time></trkpt><trkpt lat="44.2357017" lon="9.6587067"><ele>251.0</ele><time>2026-04-07T08:59:06.658Z</time></trkpt><trkpt lat="44.2356367" lon="9.6583617"><ele>255.0</ele><time>2026-04-07T08:59:07.658Z</time></trkpt><trkpt lat="44.2356617" lon="9.6579083"><ele>259.0</ele><time>2026-04-07T08:59:08.658Z</time></trkpt><trkpt lat="44.23572" lon="9.6575067"><ele>259.0</ele><time>2026-04-07T08:59:09.658Z</time></trkpt><trkpt lat="44.2357733" lon="9.6572483"><ele>259.0</ele><time>2026-04-07T08:59:10.658Z</time></trkpt><trkpt lat="44.2357267" lon="9.6540833"><ele>235.0</ele><time>2026-04-07T08:59:18.658Z</time></trkpt><trkpt lat="44.235735" lon="9.6536517"><ele>211.0</ele><time>2026-04-07T08:59:19.658Z</time></trkpt><trkpt lat="44.2357667" lon="9.653225"><ele>211.0</ele><time>2026-04-07T08:59:20.658Z</time></trkpt><trkpt lat="44.2358033" lon="9.6528283"><ele>211.0</ele><time>2026-04-07T08:59:21.658Z</time></trkpt><trkpt lat="44.2358533" lon="9.6524367"><ele>212.5</ele><time>2026-04-07T08:59:22.658Z</time></trkpt><trkpt lat="44.23591" lon="9.6520583"><ele>214.0</ele><time>2026-04-07T08:59:23.658Z</time></trkpt><trkpt lat="44.2359617" lon="9.65168"><ele>217.0</ele><time>2026-04-07T08:59:24.658Z</time></trkpt><trkpt lat="44.23601" lon="9.6513033"><ele>220.0</ele><time>2026-04-07T08:59:25.658Z</time></trkpt><trkpt lat="44.2360517" lon="9.65093"><ele>222.5</ele><time>2026-04-07T08:59:26.658Z</time></trkpt><trkpt lat="44.2360867" lon="9.6505533"><ele>225.0</ele><time>2026-04-07T08:59:27.659Z</time></trkpt><trkpt lat="44.2361133" lon="9.6501767"><ele>231.0</ele><time>2026-04-07T08:59:28.658Z</time></trkpt><trkpt lat="44.2361283" lon="9.6498"><ele>237.0</ele><time>2026-04-07T08:59:29.658Z</time></trkpt><trkpt lat="44.23613" lon="9.6494233"><ele>238.0</ele><time>2026-04-07T08:59:30.658Z</time></trkpt><trkpt lat="44.2361133" lon="9.6490517"><ele>239.0</ele><time>2026-04-07T08:59:31.658Z</time></trkpt><trkpt lat="44.236085" lon="9.6486817"><ele>238.5</ele><time>2026-04-07T08:59:32.658Z</time></trkpt><trkpt lat="44.236045" lon="9.6483133"><ele>238.0</ele><time>2026-04-07T08:59:33.659Z</time></trkpt><trkpt lat="44.23599" lon="9.6479467"><ele>236.0</ele><time>2026-04-07T08:59:34.658Z</time></trkpt><trkpt lat="44.235925" lon="9.6475817"><ele>234.0</ele><time>2026-04-07T08:59:35.658Z</time></trkpt><trkpt lat="44.2358517" lon="9.6472117"><ele>243.5</ele><time>2026-04-07T08:59:36.658Z</time></trkpt><trkpt lat="44.2357683" lon="9.6468483"><ele>253.0</ele><time>2026-04-07T08:59:37.659Z</time></trkpt><trkpt lat="44.23568" lon="9.6464833"><ele>290.0</ele><time>2026-04-07T08:59:38.658Z</time></trkpt><trkpt lat="44.235585" lon="9.6461133"><ele>327.0</ele><time>2026-04-07T08:59:39.658Z</time></trkpt><trkpt lat="44.2354983" lon="9.6457417"><ele>327.0</ele><time>2026-04-07T08:59:40.658Z</time></trkpt><trkpt lat="44.2354183" lon="9.6453717"><ele>327.0</ele><time>2026-04-07T08:59:41.658Z</time></trkpt><trkpt lat="44.235335" lon="9.6450583"><ele>321.0</ele><time>2026-04-07T08:59:42.658Z</time></trkpt><trkpt lat="44.235265" lon="9.6447033"><ele>315.0</ele><time>2026-04-07T08:59:43.658Z</time></trkpt><trkpt lat="44.2351983" lon="9.6443383"><ele>302.5</ele><time>2026-04-07T08:59:44.658Z</time></trkpt><trkpt lat="44.2351317" lon="9.643985"><ele>290.0</ele><time>2026-04-07T08:59:45.658Z</time></trkpt><trkpt lat="44.2350633" lon="9.6436267"><ele>278.0</ele><time>2026-04-07T08:59:46.658Z</time></trkpt><trkpt lat="44.2349967" lon="9.6432667"><ele>266.0</ele><time>2026-04-07T08:59:47.658Z</time></trkpt><trkpt lat="44.2349017" lon="9.642865"><ele>246.5</ele><time>2026-04-07T08:59:48.658Z</time></trkpt><trkpt lat="44.2345683" lon="9.6426033"><ele>227.0</ele><time>2026-04-07T08:59:49.658Z</time></trkpt><trkpt lat="44.2341717" lon="9.6424167"><ele>227.0</ele><time>2026-04-07T08:59:50.658Z</time></trkpt><trkpt lat="44.2340383" lon="9.6421067"><ele>227.0</ele><time>2026-04-07T08:59:51.658Z</time></trkpt><trkpt lat="44.233925" lon="9.641775"><ele>224.0</ele><time>2026-04-07T08:59:52.658Z</time></trkpt><trkpt lat="44.2338233" lon="9.6414383"><ele>221.0</ele><time>2026-04-07T08:59:53.658Z</time></trkpt><trkpt lat="44.23373" lon="9.6411033"><ele>213.0</ele><time>2026-04-07T08:59:54.658Z</time></trkpt><trkpt lat="44.23364" lon="9.640755"><ele>205.0</ele><time>2026-04-07T08:59:55.658Z</time></trkpt><trkpt lat="44.23355" lon="9.6404083"><ele>206.5</ele><time>2026-04-07T08:59:56.658Z</time></trkpt><trkpt lat="44.2334633" lon="9.6400617"><ele>208.0</ele><time>2026-04-07T08:59:57.658Z</time></trkpt><trkpt lat="44.23338" lon="9.63972"><ele>214.0</ele><time>2026-04-07T08:59:58.658Z</time></trkpt><trkpt lat="44.2333067" lon="9.6393883"><ele>220.0</ele><time>2026-04-07T08:59:59.659Z</time></trkpt><trkpt lat="44.2332383" lon="9.6390617"><ele>220.0</ele><time>2026-04-07T09:00:00.658Z</time></trkpt><trkpt lat="44.2331733" lon="9.6387367"><ele>220.0</ele><time>2026-04-07T09:00:01.658Z</time></trkpt><trkpt lat="44.23311" lon="9.63841"><ele>230.0</ele><time>2026-04-07T09:00:02.658Z</time></trkpt><trkpt lat="44.2330467" lon="9.63809"><ele>240.0</ele><time>2026-04-07T09:00:03.658Z</time></trkpt><trkpt lat="44.2329833" lon="9.63777"><ele>249.0</ele><time>2026-04-07T09:00:04.658Z</time></trkpt><trkpt lat="44.23292" lon="9.6374467"><ele>258.0</ele><time>2026-04-07T09:00:05.658Z</time></trkpt><trkpt lat="44.2328567" lon="9.6371267"><ele>262.0</ele><time>2026-04-07T09:00:06.658Z</time></trkpt><trkpt lat="44.2327883" lon="9.6368083"><ele>266.0</ele><time>2026-04-07T09:00:07.658Z</time></trkpt><trkpt lat="44.2327167" lon="9.63649"><ele>266.0</ele><time>2026-04-07T09:00:08.658Z</time></trkpt><trkpt lat="44.2326417" lon="9.6361633"><ele>266.0</ele><time>2026-04-07T09:00:09.659Z</time></trkpt><trkpt lat="44.2325633" lon="9.6358333"><ele>266.0</ele><time>2026-04-07T09:00:10.658Z</time></trkpt><trkpt lat="44.232475" lon="9.6355"><ele>266.0</ele><time>2026-04-07T09:00:11.658Z</time></trkpt><trkpt lat="44.2323867" lon="9.635155"><ele>275.0</ele><time>2026-04-07T09:00:12.658Z</time></trkpt><trkpt lat="44.2322983" lon="9.6348117"><ele>284.0</ele><time>2026-04-07T09:00:13.658Z</time></trkpt><trkpt lat="44.2321983" lon="9.6344583"><ele>284.0</ele><time>2026-04-07T09:00:14.658Z</time></trkpt><trkpt lat="44.2320867" lon="9.6341067"><ele>284.0</ele><time>2026-04-07T09:00:15.658Z</time></trkpt><trkpt lat="44.231975" lon="9.6337483"><ele>280.5</ele><time>2026-04-07T09:00:16.658Z</time></trkpt><trkpt lat="44.2318583" lon="9.6333883"><ele>277.0</ele><time>2026-04-07T09:00:17.658Z</time></trkpt><trkpt lat="44.2317367" lon="9.633025"><ele>273.0</ele><time>2026-04-07T09:00:18.658Z</time></trkpt><trkpt lat="44.2316117" lon="9.6326617"><ele>269.0</ele><time>2026-04-07T09:00:19.658Z</time></trkpt><trkpt lat="44.2314783" lon="9.6323"><ele>285.0</ele><time>2026-04-07T09:00:20.658Z</time></trkpt><trkpt lat="44.2313433" lon="9.6319383"><ele>301.0</ele><time>2026-04-07T09:00:21.658Z</time></trkpt><trkpt lat="44.2312017" lon="9.63158"><ele>301.0</ele><time>2026-04-07T09:00:22.658Z</time></trkpt><trkpt lat="44.2310617" lon="9.6312217"><ele>301.0</ele><time>2026-04-07T09:00:23.658Z</time></trkpt><trkpt lat="44.2309183" lon="9.6308783"><ele>303.0</ele><time>2026-04-07T09:00:24.658Z</time></trkpt><trkpt lat="44.2307767" lon="9.6305283"><ele>305.0</ele><time>2026-04-07T09:00:25.658Z</time></trkpt><trkpt lat="44.2306383" lon="9.63018"><ele>305.0</ele><time>2026-04-07T09:00:26.658Z</time></trkpt><trkpt lat="44.2305" lon="9.629835"><ele>305.0</ele><time>2026-04-07T09:00:27.658Z</time></trkpt><trkpt lat="44.2303617" lon="9.6294883"><ele>298.0</ele><time>2026-04-07T09:00:28.658Z</time></trkpt><trkpt lat="44.2302267" lon="9.629145"><ele>291.0</ele><time>2026-04-07T09:00:29.658Z</time></trkpt><trkpt lat="44.2301" lon="9.6288"><ele>285.5</ele><time>2026-04-07T09:00:30.659Z</time></trkpt><trkpt lat="44.229985" lon="9.6284467"><ele>280.0</ele><time>2026-04-07T09:00:31.658Z</time></trkpt><trkpt lat="44.2298883" lon="9.62808"><ele>303.0</ele><time>2026-04-07T09:00:32.658Z</time></trkpt><trkpt lat="44.2298083" lon="9.6277033"><ele>326.0</ele><time>2026-04-07T09:00:33.658Z</time></trkpt><trkpt lat="44.2297367" lon="9.6273267"><ele>322.0</ele><time>2026-04-07T09:00:34.658Z</time></trkpt><trkpt lat="44.22967" lon="9.6269517"><ele>318.0</ele><time>2026-04-07T09:00:35.658Z</time></trkpt><trkpt lat="44.2296133" lon="9.6265817"><ele>318.0</ele><time>2026-04-07T09:00:36.658Z</time></trkpt><trkpt lat="44.2295617" lon="9.6262183"><ele>318.0</ele><time>2026-04-07T09:00:37.659Z</time></trkpt><trkpt lat="44.22952" lon="9.6258517"><ele>316.5</ele><time>2026-04-07T09:00:38.658Z</time></trkpt><trkpt lat="44.22949" lon="9.6254883"><ele>315.0</ele><time>2026-04-07T09:00:39.658Z</time></trkpt><trkpt lat="44.2294733" lon="9.62512"><ele>311.0</ele><time>2026-04-07T09:00:40.658Z</time></trkpt><trkpt lat="44.22946" lon="9.62475"><ele>307.0</ele><time>2026-04-07T09:00:41.658Z</time></trkpt><trkpt lat="44.22945" lon="9.624385"><ele>298.5</ele><time>2026-04-07T09:00:42.658Z</time></trkpt><trkpt lat="44.2294417" lon="9.6240183"><ele>290.0</ele><time>2026-04-07T09:00:43.659Z</time></trkpt><trkpt lat="44.229425" lon="9.6236483"><ele>290.0</ele><time>2026-04-07T09:00:44.658Z</time></trkpt><trkpt lat="44.2294033" lon="9.623275"><ele>290.0</ele><time>2026-04-07T09:00:45.658Z</time></trkpt><trkpt lat="44.229375" lon="9.6229067"><ele>295.0</ele><time>2026-04-07T09:00:46.658Z</time></trkpt><trkpt lat="44.2293367" lon="9.622535"><ele>300.0</ele><time>2026-04-07T09:00:47.659Z</time></trkpt><trkpt lat="44.2292867" lon="9.622165"><ele>298.0</ele><time>2026-04-07T09:00:48.658Z</time></trkpt><trkpt lat="44.2292267" lon="9.6218017"><ele>296.0</ele><time>2026-04-07T09:00:49.658Z</time></trkpt><trkpt lat="44.2291567" lon="9.6214383"><ele>293.5</ele><time>2026-04-07T09:00:50.658Z</time></trkpt><trkpt lat="44.2290783" lon="9.6210783"><ele>291.0</ele><time>2026-04-07T09:00:51.658Z</time></trkpt><trkpt lat="44.2289883" lon="9.6207217"><ele>306.0</ele><time>2026-04-07T09:00:52.658Z</time></trkpt><trkpt lat="44.2288883" lon="9.62037"><ele>321.0</ele><time>2026-04-07T09:00:53.658Z</time></trkpt><trkpt lat="44.2287833" lon="9.6200183"><ele>321.0</ele><time>2026-04-07T09:00:54.658Z</time></trkpt><trkpt lat="44.228675" lon="9.61967"><ele>321.0</ele><time>2026-04-07T09:00:55.658Z</time></trkpt><trkpt lat="44.2285683" lon="9.6193217"><ele>318.5</ele><time>2026-04-07T09:00:56.658Z</time></trkpt><trkpt lat="44.22846" lon="9.6189733"><ele>316.0</ele><time>2026-04-07T09:00:57.659Z</time></trkpt><trkpt lat="44.228355" lon="9.6186267"><ele>310.0</ele><time>2026-04-07T09:00:58.659Z</time></trkpt><trkpt lat="44.22826" lon="9.6182717"><ele>304.0</ele><time>2026-04-07T09:00:59.659Z</time></trkpt><trkpt lat="44.2281717" lon="9.6179117"><ele>310.0</ele><time>2026-04-07T09:01:00.658Z</time></trkpt><trkpt lat="44.228095" lon="9.6175483"><ele>316.0</ele><time>2026-04-07T09:01:01.658Z</time></trkpt><trkpt lat="44.2280233" lon="9.617185"><ele>311.5</ele><time>2026-04-07T09:01:02.658Z</time></trkpt><trkpt lat="44.2279617" lon="9.6168167"><ele>307.0</ele><time>2026-04-07T09:01:03.658Z</time></trkpt><trkpt lat="44.227915" lon="9.6164467"><ele>312.5</ele><time>2026-04-07T09:01:04.658Z</time></trkpt><trkpt lat="44.227875" lon="9.61607"><ele>318.0</ele><time>2026-04-07T09:01:05.658Z</time></trkpt><trkpt lat="44.227845" lon="9.6156933"><ele>318.0</ele><time>2026-04-07T09:01:06.658Z</time></trkpt><trkpt lat="44.2278183" lon="9.6153217"><ele>318.0</ele><time>2026-04-07T09:01:07.658Z</time></trkpt><trkpt lat="44.227795" lon="9.614955"><ele>330.5</ele><time>2026-04-07T09:01:08.658Z</time></trkpt><trkpt lat="44.2277733" lon="9.6146133"><ele>343.0</ele><time>2026-04-07T09:01:09.658Z</time></trkpt><trkpt lat="44.2277867" lon="9.6142533"><ele>356.0</ele><time>2026-04-07T09:01:10.658Z</time></trkpt><trkpt lat="44.2277833" lon="9.6139083"><ele>369.0</ele><time>2026-04-07T09:01:11.658Z</time></trkpt><trkpt lat="44.2277833" lon="9.613565"><ele>378.66666666666663</ele><time>2026-04-07T09:01:12.658Z</time></trkpt><trkpt lat="44.2277683" lon="9.613245"><ele>388.3333333333333</ele><time>2026-04-07T09:01:13.658Z</time></trkpt><trkpt lat="44.2277333" lon="9.6129583"><ele>398.0</ele><time>2026-04-07T09:01:14.658Z</time></trkpt><trkpt lat="44.22772" lon="9.6126317"><ele>408.5</ele><time>2026-04-07T09:01:15.658Z</time></trkpt><trkpt lat="44.2277083" lon="9.61231"><ele>419.0</ele><time>2026-04-07T09:01:16.658Z</time></trkpt><trkpt lat="44.2276967" lon="9.6119867"><ele>421.5</ele><time>2026-04-07T09:01:17.659Z</time></trkpt><trkpt lat="44.227685" lon="9.6116633"><ele>424.0</ele><time>2026-04-07T09:01:18.658Z</time></trkpt><trkpt lat="44.2278333" lon="9.6104683"><ele>333.0</ele><time>2026-04-07T09:01:22.659Z</time></trkpt><trkpt lat="44.2289717" lon="9.60968"><ele>323.0</ele><time>2026-04-07T09:01:23.658Z</time></trkpt><trkpt lat="44.2291883" lon="9.6092967"><ele>313.0</ele><time>2026-04-07T09:01:24.658Z</time></trkpt><trkpt lat="44.2293617" lon="9.608985"><ele>313.0</ele><time>2026-04-07T09:01:25.658Z</time></trkpt><trkpt lat="44.2295233" lon="9.6086883"><ele>313.0</ele><time>2026-04-07T09:01:26.658Z</time></trkpt><trkpt lat="44.2296983" lon="9.608395"><ele>314.5</ele><time>2026-04-07T09:01:27.659Z</time></trkpt><trkpt lat="44.2298717" lon="9.6080967"><ele>316.0</ele><time>2026-04-07T09:01:28.658Z</time></trkpt><trkpt lat="44.23004" lon="9.6078017"><ele>324.0</ele><time>2026-04-07T09:01:29.658Z</time></trkpt><trkpt lat="44.2302083" lon="9.6074967"><ele>332.0</ele><time>2026-04-07T09:01:30.658Z</time></trkpt><trkpt lat="44.23038" lon="9.6071933"><ele>326.5</ele><time>2026-04-07T09:01:31.658Z</time></trkpt><trkpt lat="44.23055" lon="9.6068917"><ele>321.0</ele><time>2026-04-07T09:01:32.658Z</time></trkpt><trkpt lat="44.2307183" lon="9.6065917"><ele>316.0</ele><time>2026-04-07T09:01:33.658Z</time></trkpt><trkpt lat="44.2308883" lon="9.6062917"><ele>311.0</ele><time>2026-04-07T09:01:34.658Z</time></trkpt><trkpt lat="44.2310567" lon="9.6059917"><ele>311.0</ele><time>2026-04-07T09:01:35.658Z</time></trkpt><trkpt lat="44.23123" lon="9.605695"><ele>311.0</ele><time>2026-04-07T09:01:36.658Z</time></trkpt><trkpt lat="44.2314017" lon="9.6053983"><ele>322.0</ele><time>2026-04-07T09:01:37.659Z</time></trkpt><trkpt lat="44.2315733" lon="9.6051"><ele>333.0</ele><time>2026-04-07T09:01:38.658Z</time></trkpt><trkpt lat="44.23175" lon="9.604805"><ele>333.0</ele><time>2026-04-07T09:01:39.658Z</time></trkpt><trkpt lat="44.2319317" lon="9.6045183"><ele>333.0</ele><time>2026-04-07T09:01:40.658Z</time></trkpt><trkpt lat="44.23212" lon="9.6042383"><ele>334.5</ele><time>2026-04-07T09:01:41.659Z</time></trkpt><trkpt lat="44.2323183" lon="9.6039683"><ele>336.0</ele><time>2026-04-07T09:01:42.658Z</time></trkpt><trkpt lat="44.2325233" lon="9.6037133"><ele>343.0</ele><time>2026-04-07T09:01:43.658Z</time></trkpt><trkpt lat="44.2327367" lon="9.6034767"><ele>350.0</ele><time>2026-04-07T09:01:44.658Z</time></trkpt><trkpt lat="44.2329567" lon="9.60325"><ele>353.5</ele><time>2026-04-07T09:01:45.658Z</time></trkpt><trkpt lat="44.2331817" lon="9.6030267"><ele>357.0</ele><time>2026-04-07T09:01:46.658Z</time></trkpt><trkpt lat="44.2334083" lon="9.6028117"><ele>359.0</ele><time>2026-04-07T09:01:47.658Z</time></trkpt><trkpt lat="44.2336317" lon="9.6025967"><ele>361.0</ele><time>2026-04-07T09:01:48.658Z</time></trkpt><trkpt lat="44.2338467" lon="9.6023867"><ele>380.5</ele><time>2026-04-07T09:01:49.658Z</time></trkpt><trkpt lat="44.234065" lon="9.602175"><ele>400.0</ele><time>2026-04-07T09:01:50.659Z</time></trkpt><trkpt lat="44.2342833" lon="9.6019567"><ele>400.0</ele><time>2026-04-07T09:01:51.658Z</time></trkpt><trkpt lat="44.234515" lon="9.601725"><ele>400.0</ele><time>2026-04-07T09:01:52.658Z</time></trkpt><trkpt lat="44.2347633" lon="9.6014817"><ele>402.5</ele><time>2026-04-07T09:01:53.658Z</time></trkpt><trkpt lat="44.2350167" lon="9.6012467"><ele>405.0</ele><time>2026-04-07T09:01:54.658Z</time></trkpt><trkpt lat="44.235255" lon="9.6010117"><ele>405.0</ele><time>2026-04-07T09:01:55.658Z</time></trkpt><trkpt lat="44.2354883" lon="9.600775"><ele>405.0</ele><time>2026-04-07T09:01:56.658Z</time></trkpt><trkpt lat="44.2357283" lon="9.6005333"><ele>378.0</ele><time>2026-04-07T09:01:57.658Z</time></trkpt><trkpt lat="44.2359167" lon="9.6003417"><ele>351.0</ele><time>2026-04-07T09:01:58.658Z</time></trkpt><trkpt lat="44.2361567" lon="9.6001733"><ele>351.0</ele><time>2026-04-07T09:01:59.658Z</time></trkpt><trkpt lat="44.2363883" lon="9.5999817"><ele>351.0</ele><time>2026-04-07T09:02:00.658Z</time></trkpt><trkpt lat="44.2366067" lon="9.5997617"><ele>352.0</ele><time>2026-04-07T09:02:01.658Z</time></trkpt><trkpt lat="44.23682" lon="9.59952"><ele>353.0</ele><time>2026-04-07T09:02:02.658Z</time></trkpt><trkpt lat="44.2370267" lon="9.5992733"><ele>353.0</ele><time>2026-04-07T09:02:03.658Z</time></trkpt><trkpt lat="44.2372183" lon="9.5990133"><ele>353.0</ele><time>2026-04-07T09:02:04.658Z</time></trkpt><trkpt lat="44.237405" lon="9.598745"><ele>346.0</ele><time>2026-04-07T09:02:05.659Z</time></trkpt><trkpt lat="44.2375883" lon="9.5984667"><ele>339.0</ele><time>2026-04-07T09:02:06.659Z</time></trkpt><trkpt lat="44.2377617" lon="9.59818"><ele>339.0</ele><time>2026-04-07T09:02:07.659Z</time></trkpt><trkpt lat="44.23793" lon="9.5978867"><ele>339.0</ele><time>2026-04-07T09:02:08.659Z</time></trkpt><trkpt lat="44.2380883" lon="9.5975817"><ele>338.0</ele><time>2026-04-07T09:02:09.659Z</time></trkpt><trkpt lat="44.2382383" lon="9.5972683"><ele>337.0</ele><time>2026-04-07T09:02:10.659Z</time></trkpt><trkpt lat="44.23838" lon="9.5969517"><ele>337.0</ele><time>2026-04-07T09:02:11.66Z</time></trkpt><trkpt lat="44.238515" lon="9.5966317"><ele>337.0</ele><time>2026-04-07T09:02:12.659Z</time></trkpt><trkpt lat="44.2386433" lon="9.5963033"><ele>338.5</ele><time>2026-04-07T09:02:13.659Z</time></trkpt><trkpt lat="44.2387633" lon="9.5959633"><ele>340.0</ele><time>2026-04-07T09:02:14.659Z</time></trkpt><trkpt lat="44.2388733" lon="9.595615"><ele>343.0</ele><time>2026-04-07T09:02:15.659Z</time></trkpt><trkpt lat="44.2389783" lon="9.59526"><ele>346.0</ele><time>2026-04-07T09:02:16.659Z</time></trkpt><trkpt lat="44.2390783" lon="9.5948967"><ele>346.0</ele><time>2026-04-07T09:02:17.659Z</time></trkpt><trkpt lat="44.23917" lon="9.59453"><ele>346.0</ele><time>2026-04-07T09:02:18.659Z</time></trkpt><trkpt lat="44.239255" lon="9.594165"><ele>346.5</ele><time>2026-04-07T09:02:19.659Z</time></trkpt><trkpt lat="44.2393317" lon="9.5937933"><ele>347.0</ele><time>2026-04-07T09:02:20.659Z</time></trkpt><trkpt lat="44.2394" lon="9.5934133"><ele>350.0</ele><time>2026-04-07T09:02:21.659Z</time></trkpt><trkpt lat="44.2394567" lon="9.59303"><ele>353.0</ele><time>2026-04-07T09:02:22.659Z</time></trkpt><trkpt lat="44.2395033" lon="9.5926467"><ele>363.5</ele><time>2026-04-07T09:02:23.659Z</time></trkpt><trkpt lat="44.23955" lon="9.5922583"><ele>374.0</ele><time>2026-04-07T09:02:24.659Z</time></trkpt><trkpt lat="44.239585" lon="9.59187"><ele>389.5</ele><time>2026-04-07T09:02:25.659Z</time></trkpt><trkpt lat="44.2396217" lon="9.59148"><ele>405.0</ele><time>2026-04-07T09:02:26.659Z</time></trkpt><trkpt lat="44.23966" lon="9.5910883"><ele>414.0</ele><time>2026-04-07T09:02:27.659Z</time></trkpt><trkpt lat="44.2396967" lon="9.5906967"><ele>423.0</ele><time>2026-04-07T09:02:28.66Z</time></trkpt><trkpt lat="44.23974" lon="9.5903133"><ele>430.0</ele><time>2026-04-07T09:02:29.659Z</time></trkpt><trkpt lat="44.239795" lon="9.589945"><ele>437.0</ele><time>2026-04-07T09:02:30.659Z</time></trkpt><trkpt lat="44.2398517" lon="9.589585"><ele>446.0</ele><time>2026-04-07T09:02:31.659Z</time></trkpt><trkpt lat="44.239935" lon="9.5892667"><ele>455.0</ele><time>2026-04-07T09:02:32.659Z</time></trkpt><trkpt lat="44.239975" lon="9.5889433"><ele>459.3333333333333</ele><time>2026-04-07T09:02:33.659Z</time></trkpt><trkpt lat="44.240045" lon="9.5886517"><ele>463.66666666666663</ele><time>2026-04-07T09:02:34.659Z</time></trkpt><trkpt lat="44.2400883" lon="9.588345"><ele>468.0</ele><time>2026-04-07T09:02:35.659Z</time></trkpt><trkpt lat="44.239985" lon="9.57044"><ele>394.5</ele><time>2026-04-07T09:03:21.659Z</time></trkpt><trkpt lat="44.2401133" lon="9.57015"><ele>321.0</ele><time>2026-04-07T09:03:22.659Z</time></trkpt><trkpt lat="44.24025" lon="9.56984"><ele>321.0</ele><time>2026-04-07T09:03:23.659Z</time></trkpt><trkpt lat="44.2403933" lon="9.569535"><ele>321.0</ele><time>2026-04-07T09:03:24.659Z</time></trkpt><trkpt lat="44.2405417" lon="9.5692467"><ele>321.5</ele><time>2026-04-07T09:03:25.659Z</time></trkpt><trkpt lat="44.2406967" lon="9.5689533"><ele>322.0</ele><time>2026-04-07T09:03:26.659Z</time></trkpt><trkpt lat="44.2408533" lon="9.5686683"><ele>322.0</ele><time>2026-04-07T09:03:27.659Z</time></trkpt><trkpt lat="44.2410117" lon="9.568385"><ele>322.0</ele><time>2026-04-07T09:03:28.66Z</time></trkpt><trkpt lat="44.2411717" lon="9.5681083"><ele>324.5</ele><time>2026-04-07T09:03:29.66Z</time></trkpt><trkpt lat="44.2413367" lon="9.5678317"><ele>327.0</ele><time>2026-04-07T09:03:30.659Z</time></trkpt><trkpt lat="44.2415" lon="9.5675567"><ele>340.0</ele><time>2026-04-07T09:03:31.659Z</time></trkpt><trkpt lat="44.241665" lon="9.56729"><ele>353.0</ele><time>2026-04-07T09:03:32.659Z</time></trkpt><trkpt lat="44.2418383" lon="9.5670233"><ele>369.0</ele><time>2026-04-07T09:03:33.659Z</time></trkpt><trkpt lat="44.24202" lon="9.5667583"><ele>385.0</ele><time>2026-04-07T09:03:34.659Z</time></trkpt><trkpt lat="44.2422033" lon="9.5664917"><ele>398.5</ele><time>2026-04-07T09:03:35.659Z</time></trkpt><trkpt lat="44.242365" lon="9.56624"><ele>412.0</ele><time>2026-04-07T09:03:36.659Z</time></trkpt><trkpt lat="44.24251" lon="9.5659967"><ele>434.0</ele><time>2026-04-07T09:03:37.66Z</time></trkpt><trkpt lat="44.24268" lon="9.5657067"><ele>456.0</ele><time>2026-04-07T09:03:38.659Z</time></trkpt><trkpt lat="44.2428583" lon="9.5653883"><ele>468.0</ele><time>2026-04-07T09:03:39.659Z</time></trkpt><trkpt lat="44.243045" lon="9.565055"><ele>480.0</ele><time>2026-04-07T09:03:40.659Z</time></trkpt><trkpt lat="44.243275" lon="9.564705"><ele>471.5</ele><time>2026-04-07T09:03:41.659Z</time></trkpt><trkpt lat="44.243515" lon="9.5643417"><ele>463.0</ele><time>2026-04-07T09:03:42.659Z</time></trkpt><trkpt lat="44.2437417" lon="9.5640483"><ele>469.0</ele><time>2026-04-07T09:03:43.659Z</time></trkpt><trkpt lat="44.24399" lon="9.5637683"><ele>475.0</ele><time>2026-04-07T09:03:44.659Z</time></trkpt><trkpt lat="44.2443217" lon="9.562985"><ele>428.0</ele><time>2026-04-07T09:03:45.659Z</time></trkpt><trkpt lat="44.2445467" lon="9.5625967"><ele>381.0</ele><time>2026-04-07T09:03:46.659Z</time></trkpt><trkpt lat="44.2436017" lon="9.5609867"><ele>297.0</ele><time>2026-04-07T09:03:49.659Z</time></trkpt><trkpt lat="44.24308" lon="9.560875"><ele>297.0</ele><time>2026-04-07T09:03:50.659Z</time></trkpt><trkpt lat="44.242975" lon="9.5605833"><ele>297.0</ele><time>2026-04-07T09:03:51.659Z</time></trkpt><trkpt lat="44.242925" lon="9.5602517"><ele>286.5</ele><time>2026-04-07T09:03:52.659Z</time></trkpt><trkpt lat="44.2428783" lon="9.5599083"><ele>276.0</ele><time>2026-04-07T09:03:53.659Z</time></trkpt><trkpt lat="44.2428267" lon="9.5595583"><ele>273.5</ele><time>2026-04-07T09:03:54.659Z</time></trkpt><trkpt lat="44.24277" lon="9.559225"><ele>271.0</ele><time>2026-04-07T09:03:55.659Z</time></trkpt><trkpt lat="44.2427167" lon="9.558885"><ele>283.0</ele><time>2026-04-07T09:03:56.66Z</time></trkpt><trkpt lat="44.2426667" lon="9.55853"><ele>295.0</ele><time>2026-04-07T09:03:57.659Z</time></trkpt><trkpt lat="44.242615" lon="9.558175"><ele>308.0</ele><time>2026-04-07T09:03:58.659Z</time></trkpt><trkpt lat="44.242565" lon="9.5578133"><ele>321.0</ele><time>2026-04-07T09:03:59.659Z</time></trkpt><trkpt lat="44.2425133" lon="9.5574483"><ele>321.0</ele><time>2026-04-07T09:04:00.659Z</time></trkpt><trkpt lat="44.2424533" lon="9.55709"><ele>321.0</ele><time>2026-04-07T09:04:01.659Z</time></trkpt><trkpt lat="44.242375" lon="9.5567317"><ele>341.0</ele><time>2026-04-07T09:04:02.659Z</time></trkpt><trkpt lat="44.2422983" lon="9.556375"><ele>361.0</ele><time>2026-04-07T09:04:03.659Z</time></trkpt><trkpt lat="44.242215" lon="9.5560133"><ele>374.0</ele><time>2026-04-07T09:04:04.659Z</time></trkpt><trkpt lat="44.2421217" lon="9.5556617"><ele>387.0</ele><time>2026-04-07T09:04:05.659Z</time></trkpt><trkpt lat="44.2420517" lon="9.5552967"><ele>399.5</ele><time>2026-04-07T09:04:06.659Z</time></trkpt><trkpt lat="44.241975" lon="9.55495"><ele>412.0</ele><time>2026-04-07T09:04:07.659Z</time></trkpt><trkpt lat="44.2418833" lon="9.5546517"><ele>411.5</ele><time>2026-04-07T09:04:08.659Z</time></trkpt><trkpt lat="44.2419283" lon="9.554275"><ele>411.0</ele><time>2026-04-07T09:04:09.659Z</time></trkpt><trkpt lat="44.24205" lon="9.5538183"><ele>312.0</ele><time>2026-04-07T09:04:10.659Z</time></trkpt><trkpt lat="44.2428717" lon="9.5481217"><ele>306.5</ele><time>2026-04-07T09:04:25.659Z</time></trkpt><trkpt lat="44.2429433" lon="9.5477717"><ele>301.0</ele><time>2026-04-07T09:04:26.66Z</time></trkpt><trkpt lat="44.2430417" lon="9.5474167"><ele>309.0</ele><time>2026-04-07T09:04:27.659Z</time></trkpt><trkpt lat="44.2431533" lon="9.5470867"><ele>317.0</ele><time>2026-04-07T09:04:28.659Z</time></trkpt><trkpt lat="44.2432683" lon="9.5467667"><ele>317.0</ele><time>2026-04-07T09:04:29.66Z</time></trkpt><trkpt lat="44.2433967" lon="9.546455"><ele>317.0</ele><time>2026-04-07T09:04:30.659Z</time></trkpt><trkpt lat="44.24353" lon="9.5461517"><ele>312.0</ele><time>2026-04-07T09:04:31.659Z</time></trkpt><trkpt lat="44.243665" lon="9.5458483"><ele>307.0</ele><time>2026-04-07T09:04:32.66Z</time></trkpt><trkpt lat="44.2438" lon="9.5455467"><ele>304.5</ele><time>2026-04-07T09:04:33.659Z</time></trkpt><trkpt lat="44.243935" lon="9.5452483"><ele>302.0</ele><time>2026-04-07T09:04:34.659Z</time></trkpt><trkpt lat="44.2440683" lon="9.5449467"><ele>302.0</ele><time>2026-04-07T09:04:35.659Z</time></trkpt><trkpt lat="44.244205" lon="9.54464"><ele>302.0</ele><time>2026-04-07T09:04:36.659Z</time></trkpt><trkpt lat="44.24434" lon="9.544325"><ele>291.5</ele><time>2026-04-07T09:04:37.659Z</time></trkpt><trkpt lat="44.24447" lon="9.5440083"><ele>281.0</ele><time>2026-04-07T09:04:38.659Z</time></trkpt><trkpt lat="44.2445883" lon="9.5436867"><ele>282.0</ele><time>2026-04-07T09:04:39.66Z</time></trkpt><trkpt lat="44.2447" lon="9.5433567"><ele>283.0</ele><time>2026-04-07T09:04:40.659Z</time></trkpt><trkpt lat="44.244805" lon="9.5430217"><ele>277.0</ele><time>2026-04-07T09:04:41.659Z</time></trkpt><trkpt lat="44.2449017" lon="9.5426783"><ele>271.0</ele><time>2026-04-07T09:04:42.659Z</time></trkpt><trkpt lat="44.24499" lon="9.5423317"><ele>271.0</ele><time>2026-04-07T09:04:43.659Z</time></trkpt><trkpt lat="44.24507" lon="9.5419783"><ele>271.0</ele><time>2026-04-07T09:04:44.659Z</time></trkpt><trkpt lat="44.2451433" lon="9.541625"><ele>271.0</ele><time>2026-04-07T09:04:45.659Z</time></trkpt><trkpt lat="44.2452067" lon="9.541265"><ele>271.0</ele><time>2026-04-07T09:04:46.66Z</time></trkpt><trkpt lat="44.2452633" lon="9.5409083"><ele>279.5</ele><time>2026-04-07T09:04:47.659Z</time></trkpt><trkpt lat="44.2453233" lon="9.5405533"><ele>288.0</ele><time>2026-04-07T09:04:48.659Z</time></trkpt><trkpt lat="44.2453867" lon="9.540195"><ele>288.5</ele><time>2026-04-07T09:04:49.659Z</time></trkpt><trkpt lat="44.245455" lon="9.5398367"><ele>289.0</ele><time>2026-04-07T09:04:50.659Z</time></trkpt><trkpt lat="44.2455233" lon="9.5394817"><ele>285.5</ele><time>2026-04-07T09:04:51.659Z</time></trkpt><trkpt lat="44.2455933" lon="9.5391233"><ele>282.0</ele><time>2026-04-07T09:04:52.659Z</time></trkpt><trkpt lat="44.2456617" lon="9.5387633"><ele>299.5</ele><time>2026-04-07T09:04:53.659Z</time></trkpt><trkpt lat="44.2457283" lon="9.5384033"><ele>317.0</ele><time>2026-04-07T09:04:54.659Z</time></trkpt><trkpt lat="44.24579" lon="9.538045"><ele>327.0</ele><time>2026-04-07T09:04:55.659Z</time></trkpt><trkpt lat="44.2458533" lon="9.5377017"><ele>337.0</ele><time>2026-04-07T09:04:56.659Z</time></trkpt><trkpt lat="44.2459167" lon="9.537355"><ele>352.5</ele><time>2026-04-07T09:04:57.659Z</time></trkpt><trkpt lat="44.2459817" lon="9.5370017"><ele>368.0</ele><time>2026-04-07T09:04:58.659Z</time></trkpt><trkpt lat="44.2460433" lon="9.5366483"><ele>368.0</ele><time>2026-04-07T09:04:59.659Z</time></trkpt><trkpt lat="44.2460917" lon="9.5362767"><ele>368.0</ele><time>2026-04-07T09:05:00.66Z</time></trkpt><trkpt lat="44.2461417" lon="9.5359067"><ele>385.0</ele><time>2026-04-07T09:05:01.659Z</time></trkpt><trkpt lat="44.2461883" lon="9.5355317"><ele>402.0</ele><time>2026-04-07T09:05:02.659Z</time></trkpt><trkpt lat="44.2462267" lon="9.5351417"><ele>421.0</ele><time>2026-04-07T09:05:03.659Z</time></trkpt><trkpt lat="44.246255" lon="9.534735"><ele>440.0</ele><time>2026-04-07T09:05:04.66Z</time></trkpt><trkpt lat="44.2494983" lon="9.5203167"><ele>359.0</ele><time>2026-04-07T09:05:44.659Z</time></trkpt><trkpt lat="44.249655" lon="9.5200167"><ele>278.0</ele><time>2026-04-07T09:05:45.66Z</time></trkpt><trkpt lat="44.2498233" lon="9.519705"><ele>272.5</ele><time>2026-04-07T09:05:46.659Z</time></trkpt><trkpt lat="44.2499867" lon="9.5193867"><ele>267.0</ele><time>2026-04-07T09:05:47.659Z</time></trkpt><trkpt lat="44.2501433" lon="9.51908"><ele>267.0</ele><time>2026-04-07T09:05:48.659Z</time></trkpt><trkpt lat="44.2502983" lon="9.5187767"><ele>267.0</ele><time>2026-04-07T09:05:49.659Z</time></trkpt><trkpt lat="44.2504567" lon="9.5184733"><ele>260.0</ele><time>2026-04-07T09:05:50.659Z</time></trkpt><trkpt lat="44.25062" lon="9.51817"><ele>253.0</ele><time>2026-04-07T09:05:51.66Z</time></trkpt><trkpt lat="44.2507767" lon="9.5178783"><ele>251.0</ele><time>2026-04-07T09:05:52.659Z</time></trkpt><trkpt lat="44.2509333" lon="9.5175817"><ele>249.0</ele><time>2026-04-07T09:05:53.659Z</time></trkpt><trkpt lat="44.25109" lon="9.5172867"><ele>242.0</ele><time>2026-04-07T09:05:54.659Z</time></trkpt><trkpt lat="44.2512467" lon="9.5169917"><ele>235.0</ele><time>2026-04-07T09:05:55.659Z</time></trkpt><trkpt lat="44.2514017" lon="9.51669"><ele>236.0</ele><time>2026-04-07T09:05:56.659Z</time></trkpt><trkpt lat="44.251555" lon="9.5163917"><ele>237.0</ele><time>2026-04-07T09:05:57.66Z</time></trkpt><trkpt lat="44.2517117" lon="9.5160933"><ele>237.0</ele><time>2026-04-07T09:05:58.659Z</time></trkpt><trkpt lat="44.2518667" lon="9.515795"><ele>237.0</ele><time>2026-04-07T09:05:59.66Z</time></trkpt><trkpt lat="44.2520167" lon="9.5154917"><ele>234.0</ele><time>2026-04-07T09:06:00.659Z</time></trkpt><trkpt lat="44.252165" lon="9.5151867"><ele>231.0</ele><time>2026-04-07T09:06:01.659Z</time></trkpt><trkpt lat="44.2523083" lon="9.5148817"><ele>238.0</ele><time>2026-04-07T09:06:02.659Z</time></trkpt><trkpt lat="44.25245" lon="9.51457"><ele>245.0</ele><time>2026-04-07T09:06:03.659Z</time></trkpt><trkpt lat="44.2525883" lon="9.5142533"><ele>245.0</ele><time>2026-04-07T09:06:04.659Z</time></trkpt><trkpt lat="44.2527217" lon="9.5139333"><ele>245.0</ele><time>2026-04-07T09:06:05.659Z</time></trkpt><trkpt lat="44.2528517" lon="9.51361"><ele>246.0</ele><time>2026-04-07T09:06:06.659Z</time></trkpt><trkpt lat="44.252975" lon="9.5132883"><ele>247.0</ele><time>2026-04-07T09:06:07.659Z</time></trkpt><trkpt lat="44.2530867" lon="9.512955"><ele>257.5</ele><time>2026-04-07T09:06:08.659Z</time></trkpt><trkpt lat="44.2532017" lon="9.51261"><ele>268.0</ele><time>2026-04-07T09:06:09.66Z</time></trkpt><trkpt lat="44.2533167" lon="9.512265"><ele>276.5</ele><time>2026-04-07T09:06:10.659Z</time></trkpt><trkpt lat="44.2534317" lon="9.5119367"><ele>285.0</ele><time>2026-04-07T09:06:11.659Z</time></trkpt><trkpt lat="44.2535367" lon="9.511605"><ele>285.0</ele><time>2026-04-07T09:06:12.659Z</time></trkpt><trkpt lat="44.253655" lon="9.51128"><ele>285.0</ele><time>2026-04-07T09:06:13.659Z</time></trkpt><trkpt lat="44.2537883" lon="9.51097"><ele>289.0</ele><time>2026-04-07T09:06:14.659Z</time></trkpt><trkpt lat="44.2539417" lon="9.5106867"><ele>293.0</ele><time>2026-04-07T09:06:15.659Z</time></trkpt><trkpt lat="44.2541083" lon="9.5104333"><ele>288.5</ele><time>2026-04-07T09:06:16.659Z</time></trkpt><trkpt lat="44.2542283" lon="9.5101167"><ele>284.0</ele><time>2026-04-07T09:06:17.659Z</time></trkpt><trkpt lat="44.2542817" lon="9.5097433"><ele>271.5</ele><time>2026-04-07T09:06:18.66Z</time></trkpt><trkpt lat="44.2542783" lon="9.50934"><ele>259.0</ele><time>2026-04-07T09:06:19.66Z</time></trkpt><trkpt lat="44.25436" lon="9.508995"><ele>247.5</ele><time>2026-04-07T09:06:20.659Z</time></trkpt><trkpt lat="44.2544283" lon="9.5086283"><ele>236.0</ele><time>2026-04-07T09:06:21.659Z</time></trkpt><trkpt lat="44.254465" lon="9.5080817"><ele>231.0</ele><time>2026-04-07T09:06:22.66Z</time></trkpt><trkpt lat="44.2544167" lon="9.5076633"><ele>226.0</ele><time>2026-04-07T09:06:23.659Z</time></trkpt><trkpt lat="44.2544783" lon="9.5072683"><ele>228.0</ele><time>2026-04-07T09:06:24.659Z</time></trkpt><trkpt lat="44.2545267" lon="9.5068817"><ele>230.0</ele><time>2026-04-07T09:06:25.659Z</time></trkpt><trkpt lat="44.254575" lon="9.5065083"><ele>225.5</ele><time>2026-04-07T09:06:26.659Z</time></trkpt><trkpt lat="44.2546217" lon="9.5061517"><ele>221.0</ele><time>2026-04-07T09:06:27.659Z</time></trkpt><trkpt lat="44.254665" lon="9.50579"><ele>221.0</ele><time>2026-04-07T09:06:28.659Z</time></trkpt><trkpt lat="44.2547033" lon="9.5054333"><ele>221.0</ele><time>2026-04-07T09:06:29.659Z</time></trkpt><trkpt lat="44.2547433" lon="9.5050717"><ele>215.5</ele><time>2026-04-07T09:06:30.66Z</time></trkpt><trkpt lat="44.2547833" lon="9.5047067"><ele>210.0</ele><time>2026-04-07T09:06:31.659Z</time></trkpt><trkpt lat="44.2548217" lon="9.5043383"><ele>223.5</ele><time>2026-04-07T09:06:32.659Z</time></trkpt><trkpt lat="44.25486" lon="9.5039667"><ele>237.0</ele><time>2026-04-07T09:06:33.659Z</time></trkpt><trkpt lat="44.2548967" lon="9.5035967"><ele>246.0</ele><time>2026-04-07T09:06:34.659Z</time></trkpt><trkpt lat="44.2549367" lon="9.5032317"><ele>255.0</ele><time>2026-04-07T09:06:35.659Z</time></trkpt><trkpt lat="44.2549767" lon="9.5028717"><ele>269.0</ele><time>2026-04-07T09:06:36.659Z</time></trkpt><trkpt lat="44.255015" lon="9.5025117"><ele>283.0</ele><time>2026-04-07T09:06:37.659Z</time></trkpt><trkpt lat="44.2550567" lon="9.50215"><ele>295.0</ele><time>2026-04-07T09:06:38.659Z</time></trkpt><trkpt lat="44.2550967" lon="9.50179"><ele>307.0</ele><time>2026-04-07T09:06:39.659Z</time></trkpt><trkpt lat="44.2551367" lon="9.5014267"><ele>303.5</ele><time>2026-04-07T09:06:40.659Z</time></trkpt><trkpt lat="44.255175" lon="9.501065"><ele>300.0</ele><time>2026-04-07T09:06:41.659Z</time></trkpt><trkpt lat="44.2550167" lon="9.4972917"><ele>257.0</ele><time>2026-04-07T09:06:51.659Z</time></trkpt><trkpt lat="44.2549583" lon="9.49685"><ele>214.0</ele><time>2026-04-07T09:06:52.659Z</time></trkpt><trkpt lat="44.2549267" lon="9.4964583"><ele>209.0</ele><time>2026-04-07T09:06:53.66Z</time></trkpt><trkpt lat="44.25491" lon="9.4960683"><ele>204.0</ele><time>2026-04-07T09:06:54.659Z</time></trkpt><trkpt lat="44.254895" lon="9.4956833"><ele>205.0</ele><time>2026-04-07T09:06:55.659Z</time></trkpt><trkpt lat="44.2548817" lon="9.4953083"><ele>206.0</ele><time>2026-04-07T09:06:56.659Z</time></trkpt><trkpt lat="44.2548717" lon="9.4949317"><ele>218.0</ele><time>2026-04-07T09:06:57.659Z</time></trkpt><trkpt lat="44.2548633" lon="9.4945617"><ele>230.0</ele><time>2026-04-07T09:06:58.659Z</time></trkpt><trkpt lat="44.2548517" lon="9.4941933"><ele>230.0</ele><time>2026-04-07T09:06:59.659Z</time></trkpt><trkpt lat="44.25484" lon="9.4938283"><ele>230.0</ele><time>2026-04-07T09:07:00.66Z</time></trkpt><trkpt lat="44.2548317" lon="9.4934717"><ele>231.0</ele><time>2026-04-07T09:07:01.659Z</time></trkpt><trkpt lat="44.2548317" lon="9.4931167"><ele>232.0</ele><time>2026-04-07T09:07:02.659Z</time></trkpt><trkpt lat="44.2548367" lon="9.4927517"><ele>221.5</ele><time>2026-04-07T09:07:03.659Z</time></trkpt><trkpt lat="44.25485" lon="9.4923333"><ele>211.0</ele><time>2026-04-07T09:07:04.659Z</time></trkpt><trkpt lat="44.2548333" lon="9.4919383"><ele>206.5</ele><time>2026-04-07T09:07:05.659Z</time></trkpt><trkpt lat="44.2548317" lon="9.4915567"><ele>202.0</ele><time>2026-04-07T09:07:06.659Z</time></trkpt><trkpt lat="44.2548483" lon="9.4911817"><ele>202.0</ele><time>2026-04-07T09:07:07.659Z</time></trkpt><trkpt lat="44.2548883" lon="9.4908183"><ele>202.0</ele><time>2026-04-07T09:07:08.659Z</time></trkpt><trkpt lat="44.2549333" lon="9.4904667"><ele>196.5</ele><time>2026-04-07T09:07:09.659Z</time></trkpt><trkpt lat="44.25499" lon="9.4901183"><ele>191.0</ele><time>2026-04-07T09:07:10.659Z</time></trkpt><trkpt lat="44.2550517" lon="9.4897733"><ele>184.0</ele><time>2026-04-07T09:07:11.659Z</time></trkpt><trkpt lat="44.2551317" lon="9.4894333"><ele>177.0</ele><time>2026-04-07T09:07:12.66Z</time></trkpt><trkpt lat="44.2552267" lon="9.489095"><ele>177.0</ele><time>2026-04-07T09:07:13.659Z</time></trkpt><trkpt lat="44.2553333" lon="9.4887667"><ele>177.0</ele><time>2026-04-07T09:07:14.659Z</time></trkpt><trkpt lat="44.25545" lon="9.4884467"><ele>181.5</ele><time>2026-04-07T09:07:15.659Z</time></trkpt><trkpt lat="44.2555717" lon="9.4881167"><ele>186.0</ele><time>2026-04-07T09:07:16.659Z</time></trkpt><trkpt lat="44.2556933" lon="9.4877783"><ele>212.0</ele><time>2026-04-07T09:07:17.66Z</time></trkpt><trkpt lat="44.2558067" lon="9.4874417"><ele>238.0</ele><time>2026-04-07T09:07:18.659Z</time></trkpt><trkpt lat="44.2559133" lon="9.4871133"><ele>243.5</ele><time>2026-04-07T09:07:19.659Z</time></trkpt><trkpt lat="44.256025" lon="9.4867817"><ele>249.0</ele><time>2026-04-07T09:07:20.659Z</time></trkpt><trkpt lat="44.2561317" lon="9.486445"><ele>255.0</ele><time>2026-04-07T09:07:21.66Z</time></trkpt><trkpt lat="44.2562417" lon="9.4861133"><ele>261.0</ele><time>2026-04-07T09:07:22.659Z</time></trkpt><trkpt lat="44.2563467" lon="9.4857633"><ele>273.5</ele><time>2026-04-07T09:07:23.659Z</time></trkpt><trkpt lat="44.2564583" lon="9.4854117"><ele>286.0</ele><time>2026-04-07T09:07:24.659Z</time></trkpt><trkpt lat="44.2565667" lon="9.48507"><ele>286.0</ele><time>2026-04-07T09:07:25.659Z</time></trkpt><trkpt lat="44.2566767" lon="9.4847267"><ele>286.0</ele><time>2026-04-07T09:07:26.659Z</time></trkpt><trkpt lat="44.2567867" lon="9.4843833"><ele>174.0</ele><time>2026-04-07T09:07:27.659Z</time></trkpt><trkpt lat="44.2620683" lon="9.4840517"><ele>170.0</ele><time>2026-04-07T09:07:44.659Z</time></trkpt><trkpt lat="44.2623312" lon="9.4839839"><ele>166.0</ele><time>2026-04-07T09:07:45.659Z</time></trkpt><trkpt lat="44.2625907" lon="9.4838996"><ele>166.0</ele><time>2026-04-07T09:07:46.659Z</time></trkpt><trkpt lat="44.2628478" lon="9.4838035"><ele>166.0</ele><time>2026-04-07T09:07:47.659Z</time></trkpt><trkpt lat="44.2631025" lon="9.4836923"><ele>168.0</ele><time>2026-04-07T09:07:48.659Z</time></trkpt><trkpt lat="44.2633506" lon="9.4835644"><ele>170.0</ele><time>2026-04-07T09:07:49.659Z</time></trkpt><trkpt lat="44.2635929" lon="9.4834149"><ele>170.0</ele><time>2026-04-07T09:07:50.659Z</time></trkpt><trkpt lat="44.2638287" lon="9.4832443"><ele>170.0</ele><time>2026-04-07T09:07:51.659Z</time></trkpt><trkpt lat="44.2640579" lon="9.4830515"><ele>159.0</ele><time>2026-04-07T09:07:52.659Z</time></trkpt><trkpt lat="44.2642814" lon="9.4828466"><ele>148.0</ele><time>2026-04-07T09:07:53.659Z</time></trkpt><trkpt lat="44.264495" lon="9.4826289"><ele>148.0</ele><time>2026-04-07T09:07:54.659Z</time></trkpt><trkpt lat="44.2647097" lon="9.4824037"><ele>148.0</ele><time>2026-04-07T09:07:55.659Z</time></trkpt><trkpt lat="44.2649216" lon="9.4821771"><ele>138.5</ele><time>2026-04-07T09:07:56.658Z</time></trkpt><trkpt lat="44.265134" lon="9.4819405"><ele>129.0</ele><time>2026-04-07T09:07:57.658Z</time></trkpt><trkpt lat="44.2653482" lon="9.481702"><ele>129.0</ele><time>2026-04-07T09:07:58.658Z</time></trkpt><trkpt lat="44.2655589" lon="9.481468"><ele>129.0</ele><time>2026-04-07T09:07:59.658Z</time></trkpt><trkpt lat="44.2657687" lon="9.4812294"><ele>138.5</ele><time>2026-04-07T09:08:00.659Z</time></trkpt><trkpt lat="44.2659781" lon="9.4809918"><ele>148.0</ele><time>2026-04-07T09:08:01.658Z</time></trkpt><trkpt lat="44.2661862" lon="9.4807515"><ele>148.0</ele><time>2026-04-07T09:08:02.658Z</time></trkpt><trkpt lat="44.266394" lon="9.4805081"><ele>148.0</ele><time>2026-04-07T09:08:03.659Z</time></trkpt><trkpt lat="44.2665993" lon="9.4802603"><ele>147.5</ele><time>2026-04-07T09:08:04.658Z</time></trkpt><trkpt lat="44.2667997" lon="9.4800043"><ele>147.0</ele><time>2026-04-07T09:08:05.658Z</time></trkpt><trkpt lat="44.2669977" lon="9.479741"><ele>140.0</ele><time>2026-04-07T09:08:06.658Z</time></trkpt><trkpt lat="44.2671903" lon="9.4794735"><ele>133.0</ele><time>2026-04-07T09:08:07.658Z</time></trkpt><trkpt lat="44.267379" lon="9.4792016"><ele>133.0</ele><time>2026-04-07T09:08:08.659Z</time></trkpt><trkpt lat="44.2675638" lon="9.4789218"><ele>133.0</ele><time>2026-04-07T09:08:09.659Z</time></trkpt><trkpt lat="44.2677439" lon="9.4786365"><ele>143.0</ele><time>2026-04-07T09:08:10.658Z</time></trkpt><trkpt lat="44.2679205" lon="9.4783451"><ele>153.0</ele><time>2026-04-07T09:08:11.658Z</time></trkpt><trkpt lat="44.2680926" lon="9.4780473"><ele>147.5</ele><time>2026-04-07T09:08:12.658Z</time></trkpt><trkpt lat="44.2682608" lon="9.4777467"><ele>142.0</ele><time>2026-04-07T09:08:13.659Z</time></trkpt><trkpt lat="44.2684247" lon="9.4774422"><ele>142.0</ele><time>2026-04-07T09:08:14.659Z</time></trkpt><trkpt lat="44.2685851" lon="9.4771294"><ele>142.0</ele><time>2026-04-07T09:08:15.658Z</time></trkpt><trkpt lat="44.2687411" lon="9.4768145"><ele>159.5</ele><time>2026-04-07T09:08:16.658Z</time></trkpt><trkpt lat="44.2688959" lon="9.4765016"><ele>177.0</ele><time>2026-04-07T09:08:17.658Z</time></trkpt><trkpt lat="44.2690505" lon="9.4761931"><ele>185.5</ele><time>2026-04-07T09:08:18.658Z</time></trkpt><trkpt lat="44.2692089" lon="9.4758872"><ele>194.0</ele><time>2026-04-07T09:08:19.658Z</time></trkpt><trkpt lat="44.2693733" lon="9.4755881"><ele>201.5</ele><time>2026-04-07T09:08:20.659Z</time></trkpt><trkpt lat="44.2695323" lon="9.4752812"><ele>209.0</ele><time>2026-04-07T09:08:21.658Z</time></trkpt><trkpt lat="44.2696886" lon="9.4749701"><ele>202.5</ele><time>2026-04-07T09:08:22.658Z</time></trkpt><trkpt lat="44.2698397" lon="9.4746479"><ele>196.0</ele><time>2026-04-07T09:08:23.658Z</time></trkpt><trkpt lat="44.2699975" lon="9.4743374"><ele>196.0</ele><time>2026-04-07T09:08:24.658Z</time></trkpt><trkpt lat="44.2701549" lon="9.4740263"><ele>196.0</ele><time>2026-04-07T09:08:25.658Z</time></trkpt><trkpt lat="44.2709284" lon="9.4710669"><ele>149.5</ele><time>2026-04-07T09:08:33.659Z</time></trkpt><trkpt lat="44.2709805" lon="9.4706943"><ele>103.0</ele><time>2026-04-07T09:08:34.658Z</time></trkpt><trkpt lat="44.2710394" lon="9.4703465"><ele>103.0</ele><time>2026-04-07T09:08:35.658Z</time></trkpt><trkpt lat="44.271099" lon="9.4699953"><ele>103.0</ele><time>2026-04-07T09:08:36.658Z</time></trkpt><trkpt lat="44.2711468" lon="9.4696408"><ele>113.5</ele><time>2026-04-07T09:08:37.658Z</time></trkpt><trkpt lat="44.2711784" lon="9.4692844"><ele>124.0</ele><time>2026-04-07T09:08:38.658Z</time></trkpt><trkpt lat="44.2711983" lon="9.4689263"><ele>126.5</ele><time>2026-04-07T09:08:39.658Z</time></trkpt><trkpt lat="44.2712083" lon="9.4685627"><ele>129.0</ele><time>2026-04-07T09:08:40.658Z</time></trkpt><trkpt lat="44.2712099" lon="9.4681953"><ele>123.5</ele><time>2026-04-07T09:08:41.658Z</time></trkpt><trkpt lat="44.2712026" lon="9.4678283"><ele>118.0</ele><time>2026-04-07T09:08:42.658Z</time></trkpt><trkpt lat="44.2711859" lon="9.4674617"><ele>113.5</ele><time>2026-04-07T09:08:43.659Z</time></trkpt><trkpt lat="44.2711577" lon="9.4671005"><ele>109.0</ele><time>2026-04-07T09:08:44.658Z</time></trkpt><trkpt lat="44.2711199" lon="9.4667445"><ele>109.0</ele><time>2026-04-07T09:08:45.658Z</time></trkpt><trkpt lat="44.271075" lon="9.4663884"><ele>109.0</ele><time>2026-04-07T09:08:46.658Z</time></trkpt><trkpt lat="44.2710244" lon="9.4660331"><ele>108.5</ele><time>2026-04-07T09:08:47.658Z</time></trkpt><trkpt lat="44.2709693" lon="9.4656742"><ele>108.0</ele><time>2026-04-07T09:08:48.658Z</time></trkpt><trkpt lat="44.2709108" lon="9.4653159"><ele>109.5</ele><time>2026-04-07T09:08:49.659Z</time></trkpt><trkpt lat="44.2708514" lon="9.4649564"><ele>111.0</ele><time>2026-04-07T09:08:50.658Z</time></trkpt><trkpt lat="44.2707928" lon="9.4645977"><ele>116.0</ele><time>2026-04-07T09:08:51.658Z</time></trkpt><trkpt lat="44.2707321" lon="9.4642392"><ele>121.0</ele><time>2026-04-07T09:08:52.658Z</time></trkpt><trkpt lat="44.2706718" lon="9.4638805"><ele>120.0</ele><time>2026-04-07T09:08:53.658Z</time></trkpt><trkpt lat="44.2706141" lon="9.4635157"><ele>119.0</ele><time>2026-04-07T09:08:54.658Z</time></trkpt><trkpt lat="44.2705575" lon="9.4631518"><ele>111.0</ele><time>2026-04-07T09:08:55.658Z</time></trkpt><trkpt lat="44.2705006" lon="9.4627818"><ele>103.0</ele><time>2026-04-07T09:08:56.658Z</time></trkpt><trkpt lat="44.2704456" lon="9.4624116"><ele>93.5</ele><time>2026-04-07T09:08:57.658Z</time></trkpt><trkpt lat="44.270388" lon="9.4620469"><ele>84.0</ele><time>2026-04-07T09:08:58.658Z</time></trkpt><trkpt lat="44.2703284" lon="9.4616847"><ele>84.0</ele><time>2026-04-07T09:08:59.659Z</time></trkpt><trkpt lat="44.2702696" lon="9.4613193"><ele>84.0</ele><time>2026-04-07T09:09:00.658Z</time></trkpt><trkpt lat="44.2702111" lon="9.460954"><ele>77.0</ele><time>2026-04-07T09:09:01.658Z</time></trkpt><trkpt lat="44.2701562" lon="9.4605924"><ele>70.0</ele><time>2026-04-07T09:09:02.659Z</time></trkpt><trkpt lat="44.2701001" lon="9.4602319"><ele>64.5</ele><time>2026-04-07T09:09:03.659Z</time></trkpt><trkpt lat="44.2700435" lon="9.4598679"><ele>59.0</ele><time>2026-04-07T09:09:04.658Z</time></trkpt><trkpt lat="44.2699832" lon="9.4594965"><ele>53.5</ele><time>2026-04-07T09:09:05.659Z</time></trkpt><trkpt lat="44.269923" lon="9.4591259"><ele>48.0</ele><time>2026-04-07T09:09:06.658Z</time></trkpt><trkpt lat="44.2698629" lon="9.4587569"><ele>47.5</ele><time>2026-04-07T09:09:07.658Z</time></trkpt><trkpt lat="44.2698041" lon="9.4583895"><ele>47.0</ele><time>2026-04-07T09:09:08.658Z</time></trkpt><trkpt lat="44.2697457" lon="9.458024"><ele>64.5</ele><time>2026-04-07T09:09:09.658Z</time></trkpt><trkpt lat="44.2696862" lon="9.4576577"><ele>82.0</ele><time>2026-04-07T09:09:10.658Z</time></trkpt><trkpt lat="44.2696274" lon="9.4572847"><ele>88.0</ele><time>2026-04-07T09:09:11.658Z</time></trkpt><trkpt lat="44.2695676" lon="9.4569096"><ele>94.0</ele><time>2026-04-07T09:09:12.658Z</time></trkpt><trkpt lat="44.2695088" lon="9.4565342"><ele>92.0</ele><time>2026-04-07T09:09:13.659Z</time></trkpt><trkpt lat="44.2694517" lon="9.4561562"><ele>90.0</ele><time>2026-04-07T09:09:14.658Z</time></trkpt><trkpt lat="44.2693962" lon="9.4557824"><ele>85.5</ele><time>2026-04-07T09:09:15.658Z</time></trkpt><trkpt lat="44.269339" lon="9.4554018"><ele>81.0</ele><time>2026-04-07T09:09:16.658Z</time></trkpt><trkpt lat="44.2692796" lon="9.4550268"><ele>81.0</ele><time>2026-04-07T09:09:17.658Z</time></trkpt><trkpt lat="44.2692196" lon="9.454652"><ele>81.0</ele><time>2026-04-07T09:09:18.658Z</time></trkpt><trkpt lat="44.2691607" lon="9.4542769"><ele>80.5</ele><time>2026-04-07T09:09:19.659Z</time></trkpt><trkpt lat="44.2690985" lon="9.4539104"><ele>80.0</ele><time>2026-04-07T09:09:20.658Z</time></trkpt><trkpt lat="44.2690328" lon="9.4535478"><ele>83.5</ele><time>2026-04-07T09:09:21.658Z</time></trkpt><trkpt lat="44.2689608" lon="9.4531923"><ele>87.0</ele><time>2026-04-07T09:09:22.658Z</time></trkpt><trkpt lat="44.268891" lon="9.4528428"><ele>97.0</ele><time>2026-04-07T09:09:23.659Z</time></trkpt><trkpt lat="44.2688222" lon="9.4525013"><ele>107.0</ele><time>2026-04-07T09:09:24.658Z</time></trkpt><trkpt lat="44.2687574" lon="9.4521619"><ele>96.5</ele><time>2026-04-07T09:09:25.658Z</time></trkpt><trkpt lat="44.2686925" lon="9.4518204"><ele>86.0</ele><time>2026-04-07T09:09:26.658Z</time></trkpt><trkpt lat="44.2686288" lon="9.4514775"><ele>77.0</ele><time>2026-04-07T09:09:27.658Z</time></trkpt><trkpt lat="44.2685792" lon="9.4511333"><ele>68.0</ele><time>2026-04-07T09:09:28.658Z</time></trkpt><trkpt lat="44.2685248" lon="9.4507467"><ele>57.5</ele><time>2026-04-07T09:09:29.658Z</time></trkpt><trkpt lat="44.2684557" lon="9.450332"><ele>47.0</ele><time>2026-04-07T09:09:30.658Z</time></trkpt><trkpt lat="44.268397" lon="9.4499015"><ele>41.0</ele><time>2026-04-07T09:09:31.658Z</time></trkpt><trkpt lat="44.2683437" lon="9.4495055"><ele>35.0</ele><time>2026-04-07T09:09:32.658Z</time></trkpt><trkpt lat="44.268303" lon="9.4491149"><ele>35.5</ele><time>2026-04-07T09:09:33.658Z</time></trkpt><trkpt lat="44.2682667" lon="9.4487321"><ele>36.0</ele><time>2026-04-07T09:09:34.659Z</time></trkpt><trkpt lat="44.2682338" lon="9.4483602"><ele>36.0</ele><time>2026-04-07T09:09:35.658Z</time></trkpt><trkpt lat="44.2682125" lon="9.447996"><ele>36.0</ele><time>2026-04-07T09:09:36.659Z</time></trkpt><trkpt lat="44.2682041" lon="9.4476252"><ele>41.5</ele><time>2026-04-07T09:09:37.658Z</time></trkpt><trkpt lat="44.2682097" lon="9.4472565"><ele>47.0</ele><time>2026-04-07T09:09:38.658Z</time></trkpt><trkpt lat="44.2682234" lon="9.4469002"><ele>51.0</ele><time>2026-04-07T09:09:39.658Z</time></trkpt><trkpt lat="44.2682522" lon="9.4465457"><ele>55.0</ele><time>2026-04-07T09:09:40.658Z</time></trkpt><trkpt lat="44.2682954" lon="9.4461905"><ele>59.0</ele><time>2026-04-07T09:09:41.658Z</time></trkpt><trkpt lat="44.2683449" lon="9.4458386"><ele>63.0</ele><time>2026-04-07T09:09:42.658Z</time></trkpt><trkpt lat="44.2684024" lon="9.4454891"><ele>69.5</ele><time>2026-04-07T09:09:43.658Z</time></trkpt><trkpt lat="44.2684738" lon="9.4451415"><ele>76.0</ele><time>2026-04-07T09:09:44.658Z</time></trkpt><trkpt lat="44.2685485" lon="9.4447964"><ele>77.5</ele><time>2026-04-07T09:09:45.658Z</time></trkpt><trkpt lat="44.268616" lon="9.4444517"><ele>79.0</ele><time>2026-04-07T09:09:46.659Z</time></trkpt><trkpt lat="44.2686758" lon="9.4441068"><ele>80.0</ele><time>2026-04-07T09:09:47.658Z</time></trkpt><trkpt lat="44.2687292" lon="9.443763"><ele>81.0</ele><time>2026-04-07T09:09:48.658Z</time></trkpt><trkpt lat="44.2687745" lon="9.4434183"><ele>81.0</ele><time>2026-04-07T09:09:49.658Z</time></trkpt><trkpt lat="44.2688091" lon="9.4430732"><ele>81.0</ele><time>2026-04-07T09:09:50.658Z</time></trkpt><trkpt lat="44.2688377" lon="9.442727"><ele>75.5</ele><time>2026-04-07T09:09:51.658Z</time></trkpt><trkpt lat="44.2688549" lon="9.4423804"><ele>70.0</ele><time>2026-04-07T09:09:52.658Z</time></trkpt><trkpt lat="44.2688592" lon="9.442036"><ele>55.0</ele><time>2026-04-07T09:09:53.658Z</time></trkpt><trkpt lat="44.26886" lon="9.4416923"><ele>40.0</ele><time>2026-04-07T09:09:54.658Z</time></trkpt><trkpt lat="44.2688525" lon="9.441353"><ele>37.0</ele><time>2026-04-07T09:09:55.658Z</time></trkpt><trkpt lat="44.2688343" lon="9.4410199"><ele>34.0</ele><time>2026-04-07T09:09:56.658Z</time></trkpt><trkpt lat="44.268805" lon="9.4406898"><ele>45.5</ele><time>2026-04-07T09:09:57.658Z</time></trkpt><trkpt lat="44.2687693" lon="9.4403579"><ele>57.0</ele><time>2026-04-07T09:09:58.659Z</time></trkpt><trkpt lat="44.2687272" lon="9.440025"><ele>57.0</ele><time>2026-04-07T09:09:59.658Z</time></trkpt><trkpt lat="44.2686805" lon="9.4396892"><ele>57.0</ele><time>2026-04-07T09:10:00.658Z</time></trkpt><trkpt lat="44.2686332" lon="9.4393529"><ele>55.5</ele><time>2026-04-07T09:10:01.658Z</time></trkpt><trkpt lat="44.2685844" lon="9.4390137"><ele>54.0</ele><time>2026-04-07T09:10:02.658Z</time></trkpt><trkpt lat="44.2685372" lon="9.438675"><ele>54.0</ele><time>2026-04-07T09:10:03.658Z</time></trkpt><trkpt lat="44.2684934" lon="9.438334"><ele>54.0</ele><time>2026-04-07T09:10:04.658Z</time></trkpt><trkpt lat="44.2684474" lon="9.4379978"><ele>50.5</ele><time>2026-04-07T09:10:05.658Z</time></trkpt><trkpt lat="44.2684005" lon="9.4376643"><ele>47.0</ele><time>2026-04-07T09:10:06.658Z</time></trkpt><trkpt lat="44.2683512" lon="9.4373261"><ele>43.5</ele><time>2026-04-07T09:10:07.658Z</time></trkpt><trkpt lat="44.2683024" lon="9.4369875"><ele>40.0</ele><time>2026-04-07T09:10:08.658Z</time></trkpt><trkpt lat="44.2682513" lon="9.4366477"><ele>40.0</ele><time>2026-04-07T09:10:09.659Z</time></trkpt><trkpt lat="44.2681963" lon="9.4363072"><ele>40.0</ele><time>2026-04-07T09:10:10.659Z</time></trkpt><trkpt lat="44.2681418" lon="9.4359631"><ele>44.5</ele><time>2026-04-07T09:10:11.658Z</time></trkpt><trkpt lat="44.2680888" lon="9.4356141"><ele>49.0</ele><time>2026-04-07T09:10:12.658Z</time></trkpt><trkpt lat="44.2680398" lon="9.435266"><ele>49.0</ele><time>2026-04-07T09:10:13.658Z</time></trkpt><trkpt lat="44.2679914" lon="9.4349125"><ele>49.0</ele><time>2026-04-07T09:10:14.658Z</time></trkpt><trkpt lat="44.267929" lon="9.4345059"><ele>49.0</ele><time>2026-04-07T09:10:15.865Z</time></trkpt><trkpt lat="44.2678559" lon="9.4338459"><ele>47.5</ele><time>2026-04-07T09:10:17.658Z</time></trkpt><trkpt lat="44.2678208" lon="9.4334864"><ele>46.0</ele><time>2026-04-07T09:10:18.659Z</time></trkpt><trkpt lat="44.2677954" lon="9.4331236"><ele>45.0</ele><time>2026-04-07T09:10:19.658Z</time></trkpt><trkpt lat="44.2677829" lon="9.4327611"><ele>44.0</ele><time>2026-04-07T09:10:20.658Z</time></trkpt><trkpt lat="44.267781" lon="9.432395"><ele>44.5</ele><time>2026-04-07T09:10:21.659Z</time></trkpt><trkpt lat="44.2677891" lon="9.4320242"><ele>45.0</ele><time>2026-04-07T09:10:22.658Z</time></trkpt><trkpt lat="44.2678111" lon="9.4316559"><ele>45.0</ele><time>2026-04-07T09:10:23.658Z</time></trkpt><trkpt lat="44.2678444" lon="9.431286"><ele>45.0</ele><time>2026-04-07T09:10:24.659Z</time></trkpt><trkpt lat="44.2678886" lon="9.4309171"><ele>45.0</ele><time>2026-04-07T09:10:25.658Z</time></trkpt><trkpt lat="44.2679447" lon="9.4305488"><ele>45.0</ele><time>2026-04-07T09:10:26.658Z</time></trkpt><trkpt lat="44.2680162" lon="9.4301872"><ele>40.5</ele><time>2026-04-07T09:10:27.658Z</time></trkpt><trkpt lat="44.2681064" lon="9.4298364"><ele>36.0</ele><time>2026-04-07T09:10:28.658Z</time></trkpt><trkpt lat="44.2682152" lon="9.4294989"><ele>27.0</ele><time>2026-04-07T09:10:29.658Z</time></trkpt><trkpt lat="44.268339" lon="9.4291678"><ele>18.0</ele><time>2026-04-07T09:10:30.659Z</time></trkpt><trkpt lat="44.2684711" lon="9.4288385"><ele>16.0</ele><time>2026-04-07T09:10:31.658Z</time></trkpt><trkpt lat="44.2686135" lon="9.4285242"><ele>14.0</ele><time>2026-04-07T09:10:32.658Z</time></trkpt><trkpt lat="44.2687668" lon="9.4282203"><ele>13.5</ele><time>2026-04-07T09:10:33.658Z</time></trkpt><trkpt lat="44.2689265" lon="9.4279264"><ele>13.0</ele><time>2026-04-07T09:10:34.659Z</time></trkpt><trkpt lat="44.2690937" lon="9.427639"><ele>13.0</ele><time>2026-04-07T09:10:35.659Z</time></trkpt><trkpt lat="44.2692682" lon="9.4273653"><ele>13.0</ele><time>2026-04-07T09:10:36.658Z</time></trkpt><trkpt lat="44.2694561" lon="9.4271022"><ele>12.5</ele><time>2026-04-07T09:10:37.658Z</time></trkpt><trkpt lat="44.2696537" lon="9.4268597"><ele>12.0</ele><time>2026-04-07T09:10:38.658Z</time></trkpt><trkpt lat="44.2698592" lon="9.4266284"><ele>12.0</ele><time>2026-04-07T09:10:39.658Z</time></trkpt><trkpt lat="44.2700675" lon="9.4263994"><ele>12.0</ele><time>2026-04-07T09:10:40.658Z</time></trkpt><trkpt lat="44.2702793" lon="9.4261735"><ele>12.0</ele><time>2026-04-07T09:10:41.658Z</time></trkpt><trkpt lat="44.2704914" lon="9.4259527"><ele>12.0</ele><time>2026-04-07T09:10:42.658Z</time></trkpt><trkpt lat="44.2707008" lon="9.4257278"><ele>14.0</ele><time>2026-04-07T09:10:43.659Z</time></trkpt><trkpt lat="44.2709096" lon="9.4254992"><ele>16.0</ele><time>2026-04-07T09:10:44.659Z</time></trkpt><trkpt lat="44.271122" lon="9.4252722"><ele>16.0</ele><time>2026-04-07T09:10:45.658Z</time></trkpt><trkpt lat="44.2713353" lon="9.4250443"><ele>16.0</ele><time>2026-04-07T09:10:46.658Z</time></trkpt><trkpt lat="44.2715465" lon="9.4248202"><ele>16.5</ele><time>2026-04-07T09:10:47.658Z</time></trkpt><trkpt lat="44.2717614" lon="9.4246019"><ele>17.0</ele><time>2026-04-07T09:10:48.658Z</time></trkpt><trkpt lat="44.2719736" lon="9.4243832"><ele>17.0</ele><time>2026-04-07T09:10:49.659Z</time></trkpt><trkpt lat="44.272181" lon="9.424158"><ele>17.0</ele><time>2026-04-07T09:10:50.658Z</time></trkpt><trkpt lat="44.2723859" lon="9.423927"><ele>20.5</ele><time>2026-04-07T09:10:51.658Z</time></trkpt><trkpt lat="44.2725878" lon="9.423691"><ele>24.0</ele><time>2026-04-07T09:10:52.659Z</time></trkpt><trkpt lat="44.2727917" lon="9.4234527"><ele>24.0</ele><time>2026-04-07T09:10:53.658Z</time></trkpt><trkpt lat="44.2729941" lon="9.4232127"><ele>24.0</ele><time>2026-04-07T09:10:54.658Z</time></trkpt><trkpt lat="44.2731959" lon="9.4229702"><ele>25.0</ele><time>2026-04-07T09:10:55.658Z</time></trkpt><trkpt lat="44.2733964" lon="9.4227265"><ele>26.0</ele><time>2026-04-07T09:10:56.658Z</time></trkpt><trkpt lat="44.2735938" lon="9.4224787"><ele>26.0</ele><time>2026-04-07T09:10:57.659Z</time></trkpt><trkpt lat="44.2737929" lon="9.4222339"><ele>26.0</ele><time>2026-04-07T09:10:58.658Z</time></trkpt><trkpt lat="44.2739905" lon="9.4219916"><ele>21.5</ele><time>2026-04-07T09:10:59.658Z</time></trkpt><trkpt lat="44.2741938" lon="9.4217526"><ele>17.0</ele><time>2026-04-07T09:11:00.658Z</time></trkpt><trkpt lat="44.2743973" lon="9.4215154"><ele>17.0</ele><time>2026-04-07T09:11:01.659Z</time></trkpt><trkpt lat="44.2746008" lon="9.421275"><ele>17.0</ele><time>2026-04-07T09:11:02.658Z</time></trkpt><trkpt lat="44.2748057" lon="9.4210365"><ele>17.0</ele><time>2026-04-07T09:11:03.658Z</time></trkpt><trkpt lat="44.2750097" lon="9.4208012"><ele>17.0</ele><time>2026-04-07T09:11:04.659Z</time></trkpt><trkpt lat="44.2752157" lon="9.42057"><ele>17.0</ele><time>2026-04-07T09:11:05.658Z</time></trkpt><trkpt lat="44.2754197" lon="9.4203334"><ele>17.0</ele><time>2026-04-07T09:11:06.658Z</time></trkpt><trkpt lat="44.2756228" lon="9.4200951"><ele>17.0</ele><time>2026-04-07T09:11:07.658Z</time></trkpt><trkpt lat="44.2758273" lon="9.4198545"><ele>17.0</ele><time>2026-04-07T09:11:08.658Z</time></trkpt><trkpt lat="44.2760297" lon="9.4196133"><ele>16.5</ele><time>2026-04-07T09:11:09.658Z</time></trkpt><trkpt lat="44.2762315" lon="9.4193703"><ele>16.0</ele><time>2026-04-07T09:11:10.658Z</time></trkpt><trkpt lat="44.2764302" lon="9.4191236"><ele>16.0</ele><time>2026-04-07T09:11:11.658Z</time></trkpt><trkpt lat="44.2766259" lon="9.4188789"><ele>16.0</ele><time>2026-04-07T09:11:12.658Z</time></trkpt><trkpt lat="44.276825" lon="9.4186345"><ele>14.5</ele><time>2026-04-07T09:11:13.658Z</time></trkpt><trkpt lat="44.2770285" lon="9.4183924"><ele>13.0</ele><time>2026-04-07T09:11:14.658Z</time></trkpt><trkpt lat="44.2772311" lon="9.4181469"><ele>15.0</ele><time>2026-04-07T09:11:15.659Z</time></trkpt><trkpt lat="44.2774369" lon="9.4179015"><ele>17.0</ele><time>2026-04-07T09:11:16.658Z</time></trkpt><trkpt lat="44.2776435" lon="9.4176587"><ele>17.0</ele><time>2026-04-07T09:11:17.658Z</time></trkpt><trkpt lat="44.2778515" lon="9.4174165"><ele>17.0</ele><time>2026-04-07T09:11:18.658Z</time></trkpt><trkpt lat="44.2780588" lon="9.4171729"><ele>24.0</ele><time>2026-04-07T09:11:19.658Z</time></trkpt><trkpt lat="44.2782616" lon="9.4169348"><ele>31.0</ele><time>2026-04-07T09:11:20.659Z</time></trkpt><trkpt lat="44.2784632" lon="9.4166966"><ele>31.0</ele><time>2026-04-07T09:11:21.658Z</time></trkpt><trkpt lat="44.2786633" lon="9.4164622"><ele>31.0</ele><time>2026-04-07T09:11:22.658Z</time></trkpt><trkpt lat="44.2788599" lon="9.4162257"><ele>33.0</ele><time>2026-04-07T09:11:23.658Z</time></trkpt><trkpt lat="44.2790488" lon="9.4159805"><ele>35.0</ele><time>2026-04-07T09:11:24.658Z</time></trkpt><trkpt lat="44.2792268" lon="9.4157176"><ele>45.0</ele><time>2026-04-07T09:11:25.658Z</time></trkpt><trkpt lat="44.2793927" lon="9.4154358"><ele>55.0</ele><time>2026-04-07T09:11:26.658Z</time></trkpt><trkpt lat="44.279538" lon="9.4151401"><ele>55.0</ele><time>2026-04-07T09:11:27.658Z</time></trkpt><trkpt lat="44.2796735" lon="9.4148441"><ele>55.0</ele><time>2026-04-07T09:11:28.658Z</time></trkpt><trkpt lat="44.2798138" lon="9.4145406"><ele>50.0</ele><time>2026-04-07T09:11:29.658Z</time></trkpt><trkpt lat="44.2799508" lon="9.4142463"><ele>45.0</ele><time>2026-04-07T09:11:30.658Z</time></trkpt><trkpt lat="44.2800839" lon="9.4139355"><ele>36.0</ele><time>2026-04-07T09:11:31.658Z</time></trkpt><trkpt lat="44.2802057" lon="9.4136236"><ele>27.0</ele><time>2026-04-07T09:11:32.658Z</time></trkpt><trkpt lat="44.2803314" lon="9.4133131"><ele>27.0</ele><time>2026-04-07T09:11:33.658Z</time></trkpt><trkpt lat="44.2804587" lon="9.4129911"><ele>27.0</ele><time>2026-04-07T09:11:34.658Z</time></trkpt><trkpt lat="44.2805864" lon="9.4126702"><ele>26.0</ele><time>2026-04-07T09:11:35.658Z</time></trkpt><trkpt lat="44.2807119" lon="9.4123496"><ele>25.0</ele><time>2026-04-07T09:11:36.658Z</time></trkpt><trkpt lat="44.2808421" lon="9.412032"><ele>32.5</ele><time>2026-04-07T09:11:37.658Z</time></trkpt><trkpt lat="44.2809769" lon="9.4117249"><ele>40.0</ele><time>2026-04-07T09:11:38.658Z</time></trkpt><trkpt lat="44.2811205" lon="9.4114266"><ele>36.5</ele><time>2026-04-07T09:11:39.658Z</time></trkpt><trkpt lat="44.281275" lon="9.4111371"><ele>33.0</ele><time>2026-04-07T09:11:40.658Z</time></trkpt><trkpt lat="44.2814467" lon="9.4108656"><ele>38.5</ele><time>2026-04-07T09:11:41.658Z</time></trkpt><trkpt lat="44.2816382" lon="9.4106168"><ele>44.0</ele><time>2026-04-07T09:11:42.659Z</time></trkpt><trkpt lat="44.2818442" lon="9.410387"><ele>44.0</ele><time>2026-04-07T09:11:43.658Z</time></trkpt><trkpt lat="44.282055" lon="9.410167"><ele>44.0</ele><time>2026-04-07T09:11:44.658Z</time></trkpt><trkpt lat="44.2822653" lon="9.4099476"><ele>45.0</ele><time>2026-04-07T09:11:45.658Z</time></trkpt><trkpt lat="44.2824712" lon="9.4097263"><ele>46.0</ele><time>2026-04-07T09:11:46.658Z</time></trkpt><trkpt lat="44.2826726" lon="9.4095024"><ele>46.0</ele><time>2026-04-07T09:11:47.658Z</time></trkpt><trkpt lat="44.2828676" lon="9.4092686"><ele>46.0</ele><time>2026-04-07T09:11:48.659Z</time></trkpt><trkpt lat="44.2830578" lon="9.4090281"><ele>52.5</ele><time>2026-04-07T09:11:49.659Z</time></trkpt><trkpt lat="44.2832429" lon="9.4087762"><ele>59.0</ele><time>2026-04-07T09:11:50.659Z</time></trkpt><trkpt lat="44.2834142" lon="9.4085049"><ele>59.0</ele><time>2026-04-07T09:11:51.658Z</time></trkpt><trkpt lat="44.28357" lon="9.4082123"><ele>59.0</ele><time>2026-04-07T09:11:52.658Z</time></trkpt><trkpt lat="44.2837102" lon="9.4079024"><ele>57.5</ele><time>2026-04-07T09:11:53.658Z</time></trkpt><trkpt lat="44.2838324" lon="9.4075722"><ele>56.0</ele><time>2026-04-07T09:11:54.659Z</time></trkpt><trkpt lat="44.2839376" lon="9.4072269"><ele>68.0</ele><time>2026-04-07T09:11:55.658Z</time></trkpt><trkpt lat="44.2840272" lon="9.4068734"><ele>80.0</ele><time>2026-04-07T09:11:56.659Z</time></trkpt><trkpt lat="44.284102" lon="9.4065046"><ele>78.0</ele><time>2026-04-07T09:11:57.658Z</time></trkpt><trkpt lat="44.2841647" lon="9.4061308"><ele>76.0</ele><time>2026-04-07T09:11:58.658Z</time></trkpt><trkpt lat="44.2842158" lon="9.4057501"><ele>70.0</ele><time>2026-04-07T09:11:59.658Z</time></trkpt><trkpt lat="44.2842597" lon="9.4053712"><ele>64.0</ele><time>2026-04-07T09:12:00.659Z</time></trkpt><trkpt lat="44.2842979" lon="9.4049971"><ele>64.0</ele><time>2026-04-07T09:12:01.658Z</time></trkpt><trkpt lat="44.2843338" lon="9.4046298"><ele>64.0</ele><time>2026-04-07T09:12:02.658Z</time></trkpt><trkpt lat="44.2843705" lon="9.4042681"><ele>64.0</ele><time>2026-04-07T09:12:03.658Z</time></trkpt><trkpt lat="44.2844065" lon="9.4039057"><ele>64.0</ele><time>2026-04-07T09:12:04.658Z</time></trkpt><trkpt lat="44.2844448" lon="9.4035405"><ele>68.5</ele><time>2026-04-07T09:12:05.658Z</time></trkpt><trkpt lat="44.2844841" lon="9.4031743"><ele>73.0</ele><time>2026-04-07T09:12:06.658Z</time></trkpt><trkpt lat="44.2845215" lon="9.4028126"><ele>73.0</ele><time>2026-04-07T09:12:07.658Z</time></trkpt><trkpt lat="44.2845583" lon="9.4024532"><ele>73.0</ele><time>2026-04-07T09:12:08.658Z</time></trkpt><trkpt lat="44.284595" lon="9.402091"><ele>69.5</ele><time>2026-04-07T09:12:09.658Z</time></trkpt><trkpt lat="44.2846304" lon="9.4017306"><ele>66.0</ele><time>2026-04-07T09:12:10.658Z</time></trkpt><trkpt lat="44.2846643" lon="9.4013692"><ele>71.0</ele><time>2026-04-07T09:12:11.658Z</time></trkpt><trkpt lat="44.2847015" lon="9.4010063"><ele>76.0</ele><time>2026-04-07T09:12:12.658Z</time></trkpt><trkpt lat="44.2847383" lon="9.4006403"><ele>87.0</ele><time>2026-04-07T09:12:13.658Z</time></trkpt><trkpt lat="44.2847763" lon="9.4002758"><ele>98.0</ele><time>2026-04-07T09:12:14.659Z</time></trkpt><trkpt lat="44.2848181" lon="9.3999096"><ele>99.5</ele><time>2026-04-07T09:12:15.659Z</time></trkpt><trkpt lat="44.2848599" lon="9.3995469"><ele>101.0</ele><time>2026-04-07T09:12:16.659Z</time></trkpt><trkpt lat="44.2849076" lon="9.3991785"><ele>105.5</ele><time>2026-04-07T09:12:17.659Z</time></trkpt><trkpt lat="44.2849545" lon="9.3988104"><ele>110.0</ele><time>2026-04-07T09:12:18.659Z</time></trkpt><trkpt lat="44.2850165" lon="9.3984512"><ele>110.0</ele><time>2026-04-07T09:12:19.659Z</time></trkpt><trkpt lat="44.2850793" lon="9.3980942"><ele>110.0</ele><time>2026-04-07T09:12:20.659Z</time></trkpt><trkpt lat="44.2851401" lon="9.397726"><ele>120.0</ele><time>2026-04-07T09:12:21.659Z</time></trkpt><trkpt lat="44.2851979" lon="9.3973523"><ele>130.0</ele><time>2026-04-07T09:12:22.659Z</time></trkpt><trkpt lat="44.2852574" lon="9.3969685"><ele>128.5</ele><time>2026-04-07T09:12:23.659Z</time></trkpt><trkpt lat="44.2853135" lon="9.3965881"><ele>127.0</ele><time>2026-04-07T09:12:24.66Z</time></trkpt><trkpt lat="44.28537" lon="9.3962064"><ele>127.0</ele><time>2026-04-07T09:12:25.659Z</time></trkpt><trkpt lat="44.2854253" lon="9.3958256"><ele>127.0</ele><time>2026-04-07T09:12:26.66Z</time></trkpt><trkpt lat="44.2854674" lon="9.3954277"><ele>114.5</ele><time>2026-04-07T09:12:27.659Z</time></trkpt><trkpt lat="44.2855744" lon="9.3950817"><ele>102.0</ele><time>2026-04-07T09:12:28.66Z</time></trkpt><trkpt lat="44.2858131" lon="9.394921"><ele>102.0</ele><time>2026-04-07T09:12:29.659Z</time></trkpt><trkpt lat="44.2860167" lon="9.394715"><ele>102.0</ele><time>2026-04-07T09:12:30.659Z</time></trkpt><trkpt lat="44.2861417" lon="9.3944033"><ele>107.5</ele><time>2026-04-07T09:12:31.659Z</time></trkpt><trkpt lat="44.2862467" lon="9.39407"><ele>113.0</ele><time>2026-04-07T09:12:32.659Z</time></trkpt><trkpt lat="44.2863467" lon="9.3937333"><ele>113.0</ele><time>2026-04-07T09:12:33.659Z</time></trkpt><trkpt lat="44.2864033" lon="9.393345"><ele>113.0</ele><time>2026-04-07T09:12:34.659Z</time></trkpt><trkpt lat="44.2863967" lon="9.3929433"><ele>123.5</ele><time>2026-04-07T09:12:35.659Z</time></trkpt><trkpt lat="44.28639" lon="9.3924817"><ele>134.0</ele><time>2026-04-07T09:12:36.659Z</time></trkpt><trkpt lat="44.28644" lon="9.3921033"><ele>166.0</ele><time>2026-04-07T09:12:37.659Z</time></trkpt><trkpt lat="44.286485" lon="9.3917267"><ele>198.0</ele><time>2026-04-07T09:12:38.659Z</time></trkpt><trkpt lat="44.28652" lon="9.391355"><ele>216.0</ele><time>2026-04-07T09:12:39.66Z</time></trkpt><trkpt lat="44.286645" lon="9.3907333"><ele>104.0</ele><time>2026-04-07T09:12:41.66Z</time></trkpt><trkpt lat="44.2920267" lon="9.3868333"><ele>104.0</ele><time>2026-04-07T09:13:01.659Z</time></trkpt><trkpt lat="44.2922033" lon="9.3865583"><ele>104.0</ele><time>2026-04-07T09:13:02.659Z</time></trkpt><trkpt lat="44.2924117" lon="9.386295"><ele>98.5</ele><time>2026-04-07T09:13:03.659Z</time></trkpt><trkpt lat="44.29261" lon="9.386025"><ele>93.0</ele><time>2026-04-07T09:13:04.659Z</time></trkpt><trkpt lat="44.2928083" lon="9.3857633"><ele>93.0</ele><time>2026-04-07T09:13:05.659Z</time></trkpt><trkpt lat="44.2930133" lon="9.3855183"><ele>93.0</ele><time>2026-04-07T09:13:06.659Z</time></trkpt><trkpt lat="44.293225" lon="9.38529"><ele>96.5</ele><time>2026-04-07T09:13:07.659Z</time></trkpt><trkpt lat="44.293445" lon="9.3850783"><ele>100.0</ele><time>2026-04-07T09:13:08.659Z</time></trkpt><trkpt lat="44.2936717" lon="9.3848817"><ele>100.0</ele><time>2026-04-07T09:13:09.659Z</time></trkpt><trkpt lat="44.2939067" lon="9.3846967"><ele>100.0</ele><time>2026-04-07T09:13:10.659Z</time></trkpt><trkpt lat="44.2941433" lon="9.384525"><ele>100.0</ele><time>2026-04-07T09:13:11.659Z</time></trkpt><trkpt lat="44.2943883" lon="9.3843683"><ele>100.0</ele><time>2026-04-07T09:13:12.659Z</time></trkpt><trkpt lat="44.2946367" lon="9.38423"><ele>97.0</ele><time>2026-04-07T09:13:13.659Z</time></trkpt><trkpt lat="44.2948883" lon="9.38411"><ele>94.0</ele><time>2026-04-07T09:13:14.659Z</time></trkpt><trkpt lat="44.2951433" lon="9.3840083"><ele>94.0</ele><time>2026-04-07T09:13:15.659Z</time></trkpt><trkpt lat="44.2954033" lon="9.3839283"><ele>94.0</ele><time>2026-04-07T09:13:16.66Z</time></trkpt><trkpt lat="44.29567" lon="9.3838633"><ele>81.0</ele><time>2026-04-07T09:13:17.659Z</time></trkpt><trkpt lat="44.29594" lon="9.3838167"><ele>68.0</ele><time>2026-04-07T09:13:18.659Z</time></trkpt><trkpt lat="44.29621" lon="9.3837917"><ele>67.5</ele><time>2026-04-07T09:13:19.659Z</time></trkpt><trkpt lat="44.2964817" lon="9.3837883"><ele>67.0</ele><time>2026-04-07T09:13:20.659Z</time></trkpt><trkpt lat="44.2967517" lon="9.383805"><ele>67.0</ele><time>2026-04-07T09:13:21.659Z</time></trkpt><trkpt lat="44.29702" lon="9.3838333"><ele>67.0</ele><time>2026-04-07T09:13:22.659Z</time></trkpt><trkpt lat="44.297285" lon="9.3838733"><ele>85.0</ele><time>2026-04-07T09:13:23.659Z</time></trkpt><trkpt lat="44.29755" lon="9.38392"><ele>103.0</ele><time>2026-04-07T09:13:24.659Z</time></trkpt><trkpt lat="44.297815" lon="9.3839617"><ele>103.0</ele><time>2026-04-07T09:13:25.659Z</time></trkpt><trkpt lat="44.29808" lon="9.3840033"><ele>103.0</ele><time>2026-04-07T09:13:26.659Z</time></trkpt><trkpt lat="44.2983467" lon="9.3840417"><ele>106.5</ele><time>2026-04-07T09:13:27.659Z</time></trkpt><trkpt lat="44.298615" lon="9.384085"><ele>110.0</ele><time>2026-04-07T09:13:28.66Z</time></trkpt><trkpt lat="44.2988817" lon="9.384125"><ele>107.5</ele><time>2026-04-07T09:13:29.659Z</time></trkpt><trkpt lat="44.2991433" lon="9.384145"><ele>105.0</ele><time>2026-04-07T09:13:30.659Z</time></trkpt><trkpt lat="44.299405" lon="9.3841667"><ele>105.0</ele><time>2026-04-07T09:13:31.66Z</time></trkpt><trkpt lat="44.2996633" lon="9.384175"><ele>105.0</ele><time>2026-04-07T09:13:32.659Z</time></trkpt><trkpt lat="44.2999233" lon="9.3841633"><ele>104.5</ele><time>2026-04-07T09:13:33.659Z</time></trkpt><trkpt lat="44.300185" lon="9.3841367"><ele>104.0</ele><time>2026-04-07T09:13:34.659Z</time></trkpt><trkpt lat="44.30044" lon="9.3840733"><ele>105.5</ele><time>2026-04-07T09:13:35.659Z</time></trkpt><trkpt lat="44.30069" lon="9.3839867"><ele>107.0</ele><time>2026-04-07T09:13:36.659Z</time></trkpt><trkpt lat="44.3009367" lon="9.383875"><ele>97.0</ele><time>2026-04-07T09:13:37.659Z</time></trkpt><trkpt lat="44.3011733" lon="9.3837383"><ele>87.0</ele><time>2026-04-07T09:13:38.659Z</time></trkpt><trkpt lat="44.3014083" lon="9.3836033"><ele>106.0</ele><time>2026-04-07T09:13:39.659Z</time></trkpt><trkpt lat="44.3018483" lon="9.3832117"><ele>105.5</ele><time>2026-04-07T09:13:41.659Z</time></trkpt><trkpt lat="44.302055" lon="9.382985"><ele>105.0</ele><time>2026-04-07T09:13:42.66Z</time></trkpt><trkpt lat="44.3022517" lon="9.382735"><ele>105.0</ele><time>2026-04-07T09:13:43.659Z</time></trkpt><trkpt lat="44.3024317" lon="9.3824617"><ele>105.0</ele><time>2026-04-07T09:13:44.659Z</time></trkpt><trkpt lat="44.302595" lon="9.38217"><ele>107.5</ele><time>2026-04-07T09:13:45.659Z</time></trkpt><trkpt lat="44.3027467" lon="9.3818583"><ele>110.0</ele><time>2026-04-07T09:13:46.659Z</time></trkpt><trkpt lat="44.3028817" lon="9.381535"><ele>120.5</ele><time>2026-04-07T09:13:47.66Z</time></trkpt><trkpt lat="44.3030083" lon="9.38121"><ele>131.0</ele><time>2026-04-07T09:13:48.659Z</time></trkpt><trkpt lat="44.3031267" lon="9.38087"><ele>131.0</ele><time>2026-04-07T09:13:49.659Z</time></trkpt><trkpt lat="44.3032433" lon="9.38053"><ele>131.0</ele><time>2026-04-07T09:13:50.659Z</time></trkpt><trkpt lat="44.3033583" lon="9.380185"><ele>144.5</ele><time>2026-04-07T09:13:51.659Z</time></trkpt><trkpt lat="44.3034683" lon="9.3798567"><ele>158.0</ele><time>2026-04-07T09:13:52.659Z</time></trkpt><trkpt lat="44.3035717" lon="9.37953"><ele>171.0</ele><time>2026-04-07T09:13:53.66Z</time></trkpt><trkpt lat="44.30368" lon="9.3791983"><ele>184.0</ele><time>2026-04-07T09:13:54.66Z</time></trkpt><trkpt lat="44.3037883" lon="9.378865"><ele>80.0</ele><time>2026-04-07T09:13:55.659Z</time></trkpt><trkpt lat="44.3072733" lon="9.3664667"><ele>81.5</ele><time>2026-04-07T09:14:29.659Z</time></trkpt><trkpt lat="44.307435" lon="9.3661317"><ele>83.0</ele><time>2026-04-07T09:14:30.659Z</time></trkpt><trkpt lat="44.3076117" lon="9.3658017"><ele>88.0</ele><time>2026-04-07T09:14:31.659Z</time></trkpt><trkpt lat="44.307775" lon="9.36549"><ele>93.0</ele><time>2026-04-07T09:14:32.659Z</time></trkpt><trkpt lat="44.3079467" lon="9.365185"><ele>81.5</ele><time>2026-04-07T09:14:33.659Z</time></trkpt><trkpt lat="44.30812" lon="9.3648717"><ele>70.0</ele><time>2026-04-07T09:14:34.659Z</time></trkpt><trkpt lat="44.3082967" lon="9.3645633"><ele>70.0</ele><time>2026-04-07T09:14:35.659Z</time></trkpt><trkpt lat="44.3084733" lon="9.364265"><ele>70.0</ele><time>2026-04-07T09:14:36.659Z</time></trkpt><trkpt lat="44.3086567" lon="9.36397"><ele>72.0</ele><time>2026-04-07T09:14:37.66Z</time></trkpt><trkpt lat="44.3088533" lon="9.3636833"><ele>74.0</ele><time>2026-04-07T09:14:38.659Z</time></trkpt><trkpt lat="44.3090633" lon="9.3633917"><ele>67.5</ele><time>2026-04-07T09:14:39.659Z</time></trkpt><trkpt lat="44.3092717" lon="9.3631067"><ele>61.0</ele><time>2026-04-07T09:14:40.659Z</time></trkpt><trkpt lat="44.3094833" lon="9.3628217"><ele>62.0</ele><time>2026-04-07T09:14:41.659Z</time></trkpt><trkpt lat="44.3096917" lon="9.3625333"><ele>63.0</ele><time>2026-04-07T09:14:42.659Z</time></trkpt><trkpt lat="44.3098967" lon="9.3622517"><ele>58.5</ele><time>2026-04-07T09:14:43.659Z</time></trkpt><trkpt lat="44.3100917" lon="9.361975"><ele>54.0</ele><time>2026-04-07T09:14:44.659Z</time></trkpt><trkpt lat="44.3102817" lon="9.3617083"><ele>54.0</ele><time>2026-04-07T09:14:45.66Z</time></trkpt><trkpt lat="44.31047" lon="9.3614433"><ele>54.0</ele><time>2026-04-07T09:14:46.659Z</time></trkpt><trkpt lat="44.31065" lon="9.3611783"><ele>56.0</ele><time>2026-04-07T09:14:47.659Z</time></trkpt><trkpt lat="44.3108233" lon="9.3609133"><ele>58.0</ele><time>2026-04-07T09:14:48.659Z</time></trkpt><trkpt lat="44.3109967" lon="9.3606633"><ele>63.5</ele><time>2026-04-07T09:14:49.659Z</time></trkpt><trkpt lat="44.311165" lon="9.36042"><ele>69.0</ele><time>2026-04-07T09:14:50.66Z</time></trkpt><trkpt lat="44.3113267" lon="9.3601833"><ele>60.333333333333336</ele><time>2026-04-07T09:14:51.659Z</time></trkpt><trkpt lat="44.311485" lon="9.3599633"><ele>51.66666666666667</ele><time>2026-04-07T09:14:52.659Z</time></trkpt><trkpt lat="44.31164" lon="9.3597433"><ele>43.0</ele><time>2026-04-07T09:14:53.659Z</time></trkpt><trkpt lat="44.31179" lon="9.3595267"><ele>42.66666666666667</ele><time>2026-04-07T09:14:54.659Z</time></trkpt><trkpt lat="44.3119367" lon="9.3593167"><ele>42.333333333333336</ele><time>2026-04-07T09:14:55.66Z</time></trkpt><trkpt lat="44.31208" lon="9.3591083"><ele>42.0</ele><time>2026-04-07T09:14:56.659Z</time></trkpt><trkpt lat="44.3122217" lon="9.3589117"><ele>40.333333333333336</ele><time>2026-04-07T09:14:57.66Z</time></trkpt><trkpt lat="44.31236" lon="9.3587183"><ele>38.66666666666667</ele><time>2026-04-07T09:14:58.659Z</time></trkpt><trkpt lat="44.3124917" lon="9.3585317"><ele>37.0</ele><time>2026-04-07T09:14:59.659Z</time></trkpt><trkpt lat="44.3126183" lon="9.35835"><ele>37.0</ele><time>2026-04-07T09:15:00.659Z</time></trkpt><trkpt lat="44.3127367" lon="9.35818"><ele>37.0</ele><time>2026-04-07T09:15:01.66Z</time></trkpt><trkpt lat="44.3128367" lon="9.3580267"><ele>37.0</ele><time>2026-04-07T09:15:02.659Z</time></trkpt><trkpt lat="44.3129283" lon="9.3578967"><ele>37.0</ele><time>2026-04-07T09:15:03.659Z</time></trkpt><trkpt lat="44.3130033" lon="9.35778"><ele>36.66666666666667</ele><time>2026-04-07T09:15:04.659Z</time></trkpt><trkpt lat="44.3130683" lon="9.3576817"><ele>36.333333333333336</ele><time>2026-04-07T09:15:05.659Z</time></trkpt><trkpt lat="44.31313" lon="9.3576"><ele>36.0</ele><time>2026-04-07T09:15:06.659Z</time></trkpt><trkpt lat="44.3131867" lon="9.3575233"><ele>35.666666666666664</ele><time>2026-04-07T09:15:07.66Z</time></trkpt><trkpt lat="44.3132517" lon="9.3574467"><ele>35.33333333333333</ele><time>2026-04-07T09:15:08.659Z</time></trkpt><trkpt lat="44.31332" lon="9.3573717"><ele>35.0</ele><time>2026-04-07T09:15:09.659Z</time></trkpt><trkpt lat="44.3133883" lon="9.357295"><ele>39.0</ele><time>2026-04-07T09:15:10.659Z</time></trkpt><trkpt lat="44.3134633" lon="9.3572433"><ele>43.0</ele><time>2026-04-07T09:15:11.659Z</time></trkpt><trkpt lat="44.3135433" lon="9.3572183"><ele>47.0</ele><time>2026-04-07T09:15:12.659Z</time></trkpt><trkpt lat="44.3136167" lon="9.3572267"><ele>51.0</ele><time>2026-04-07T09:15:13.66Z</time></trkpt><trkpt lat="44.3137083" lon="9.3572633"><ele>55.00000000000001</ele><time>2026-04-07T09:15:14.659Z</time></trkpt><trkpt lat="44.313795" lon="9.357335"><ele>59.0</ele><time>2026-04-07T09:15:15.659Z</time></trkpt><trkpt lat="44.31384" lon="9.35724"><ele>58.5</ele><time>2026-04-07T09:15:17.659Z</time></trkpt><trkpt lat="44.3138433" lon="9.3571483"><ele>58.0</ele><time>2026-04-07T09:15:18.66Z</time></trkpt><trkpt lat="44.3139383" lon="9.3570767"><ele>57.5</ele><time>2026-04-07T09:15:20.659Z</time></trkpt><trkpt lat="44.3139967" lon="9.3569333"><ele>57.0</ele><time>2026-04-07T09:15:22.659Z</time></trkpt><trkpt lat="44.3140833" lon="9.35656"><ele>57.0</ele><time>2026-04-07T09:15:23.659Z</time></trkpt><trkpt lat="44.314335" lon="9.3564167"><ele>57.0</ele><time>2026-04-07T09:15:24.659Z</time></trkpt><trkpt lat="44.314735" lon="9.3561667"><ele>38.0</ele><time>2026-04-07T09:15:25.659Z</time></trkpt><trkpt lat="44.3149783" lon="9.3554867"><ele>38.0</ele><time>2026-04-07T09:15:26.659Z</time></trkpt><trkpt lat="44.3150883" lon="9.3549283"><ele>38.0</ele><time>2026-04-07T09:15:27.659Z</time></trkpt><trkpt lat="44.31566" lon="9.3540783"><ele>35.666666666666664</ele><time>2026-04-07T09:15:30.659Z</time></trkpt><trkpt lat="44.3158033" lon="9.3538567"><ele>33.333333333333336</ele><time>2026-04-07T09:15:31.66Z</time></trkpt><trkpt lat="44.3159383" lon="9.3536417"><ele>31.0</ele><time>2026-04-07T09:15:32.659Z</time></trkpt><trkpt lat="44.31607" lon="9.3534267"><ele>31.0</ele><time>2026-04-07T09:15:33.659Z</time></trkpt><trkpt lat="44.3161933" lon="9.35321"><ele>31.0</ele><time>2026-04-07T09:15:34.659Z</time></trkpt><trkpt lat="44.3163133" lon="9.35299"><ele>31.0</ele><time>2026-04-07T09:15:35.659Z</time></trkpt><trkpt lat="44.3164333" lon="9.3527683"><ele>31.333333333333336</ele><time>2026-04-07T09:15:36.659Z</time></trkpt><trkpt lat="44.3165483" lon="9.352545"><ele>31.666666666666664</ele><time>2026-04-07T09:15:37.659Z</time></trkpt><trkpt lat="44.31666" lon="9.352315"><ele>32.0</ele><time>2026-04-07T09:15:38.659Z</time></trkpt><trkpt lat="44.3167717" lon="9.35208"><ele>32.0</ele><time>2026-04-07T09:15:39.659Z</time></trkpt><trkpt lat="44.316885" lon="9.3518383"><ele>32.0</ele><time>2026-04-07T09:15:40.659Z</time></trkpt><trkpt lat="44.317" lon="9.3515917"><ele>32.0</ele><time>2026-04-07T09:15:41.659Z</time></trkpt><trkpt lat="44.3171117" lon="9.3513383"><ele>31.0</ele><time>2026-04-07T09:15:42.659Z</time></trkpt><trkpt lat="44.31722" lon="9.3510867"><ele>30.0</ele><time>2026-04-07T09:15:43.659Z</time></trkpt><trkpt lat="44.3173267" lon="9.3508367"><ele>29.0</ele><time>2026-04-07T09:15:44.659Z</time></trkpt><trkpt lat="44.3174367" lon="9.3505867"><ele>34.0</ele><time>2026-04-07T09:15:45.659Z</time></trkpt><trkpt lat="44.317545" lon="9.3503433"><ele>39.0</ele><time>2026-04-07T09:15:46.659Z</time></trkpt><trkpt lat="44.31765" lon="9.3501"><ele>44.0</ele><time>2026-04-07T09:15:47.659Z</time></trkpt><trkpt lat="44.317955" lon="9.3493917"><ele>44.0</ele><time>2026-04-07T09:15:50.659Z</time></trkpt><trkpt lat="44.3180483" lon="9.349165"><ele>44.0</ele><time>2026-04-07T09:15:51.659Z</time></trkpt><trkpt lat="44.3181367" lon="9.3489467"><ele>44.0</ele><time>2026-04-07T09:15:52.659Z</time></trkpt><trkpt lat="44.31822" lon="9.348735"><ele>41.0</ele><time>2026-04-07T09:15:53.659Z</time></trkpt><trkpt lat="44.3182917" lon="9.3485317"><ele>38.0</ele><time>2026-04-07T09:15:54.659Z</time></trkpt><trkpt lat="44.3183633" lon="9.34833"><ele>35.0</ele><time>2026-04-07T09:15:55.659Z</time></trkpt><trkpt lat="44.3184333" lon="9.34813"><ele>32.33333333333333</ele><time>2026-04-07T09:15:56.659Z</time></trkpt><trkpt lat="44.3185017" lon="9.3479317"><ele>29.666666666666664</ele><time>2026-04-07T09:15:57.659Z</time></trkpt><trkpt lat="44.318565" lon="9.3477383"><ele>27.0</ele><time>2026-04-07T09:15:58.659Z</time></trkpt><trkpt lat="44.318635" lon="9.34754"><ele>27.0</ele><time>2026-04-07T09:15:59.659Z</time></trkpt><trkpt lat="44.31871" lon="9.347335"><ele>27.0</ele><time>2026-04-07T09:16:00.659Z</time></trkpt><trkpt lat="44.31879" lon="9.3471167"><ele>27.0</ele><time>2026-04-07T09:16:01.659Z</time></trkpt><trkpt lat="44.318865" lon="9.3468917"><ele>20.333333333333332</ele><time>2026-04-07T09:16:02.659Z</time></trkpt><trkpt lat="44.3189417" lon="9.34666"><ele>13.666666666666668</ele><time>2026-04-07T09:16:03.659Z</time></trkpt><trkpt lat="44.3190217" lon="9.346425"><ele>7.0</ele><time>2026-04-07T09:16:04.659Z</time></trkpt><trkpt lat="44.319105" lon="9.3461883"><ele>7.0</ele><time>2026-04-07T09:16:05.659Z</time></trkpt><trkpt lat="44.31919" lon="9.345965"><ele>7.0</ele><time>2026-04-07T09:16:06.659Z</time></trkpt><trkpt lat="44.3192717" lon="9.345745"><ele>7.0</ele><time>2026-04-07T09:16:07.659Z</time></trkpt><trkpt lat="44.3193517" lon="9.3455283"><ele>7.0</ele><time>2026-04-07T09:16:08.659Z</time></trkpt><trkpt lat="44.31943" lon="9.3453083"><ele>7.0</ele><time>2026-04-07T09:16:09.659Z</time></trkpt><trkpt lat="44.31951" lon="9.345085"><ele>7.0</ele><time>2026-04-07T09:16:10.659Z</time></trkpt><trkpt lat="44.319595" lon="9.3448533"><ele>7.333333333333334</ele><time>2026-04-07T09:16:11.659Z</time></trkpt><trkpt lat="44.3196867" lon="9.3446167"><ele>7.666666666666666</ele><time>2026-04-07T09:16:12.659Z</time></trkpt><trkpt lat="44.3197783" lon="9.34438"><ele>8.0</ele><time>2026-04-07T09:16:13.659Z</time></trkpt><trkpt lat="44.319865" lon="9.344145"><ele>8.0</ele><time>2026-04-07T09:16:14.659Z</time></trkpt><trkpt lat="44.3199483" lon="9.3439133"><ele>8.0</ele><time>2026-04-07T09:16:15.659Z</time></trkpt><trkpt lat="44.32003" lon="9.3436867"><ele>8.0</ele><time>2026-04-07T09:16:16.659Z</time></trkpt><trkpt lat="44.32011" lon="9.3434617"><ele>8.0</ele><time>2026-04-07T09:16:17.659Z</time></trkpt><trkpt lat="44.3201883" lon="9.3432433"><ele>8.0</ele><time>2026-04-07T09:16:18.659Z</time></trkpt><trkpt lat="44.320265" lon="9.3430267"><ele>8.0</ele><time>2026-04-07T09:16:19.659Z</time></trkpt><trkpt lat="44.3203383" lon="9.3428083"><ele>8.0</ele><time>2026-04-07T09:16:20.659Z</time></trkpt><trkpt lat="44.3204117" lon="9.34259"><ele>8.0</ele><time>2026-04-07T09:16:21.66Z</time></trkpt><trkpt lat="44.3204867" lon="9.3423733"><ele>8.0</ele><time>2026-04-07T09:16:22.659Z</time></trkpt><trkpt lat="44.3205667" lon="9.3421617"><ele>8.666666666666666</ele><time>2026-04-07T09:16:23.66Z</time></trkpt><trkpt lat="44.3206467" lon="9.3419483"><ele>9.333333333333334</ele><time>2026-04-07T09:16:24.659Z</time></trkpt><trkpt lat="44.3207317" lon="9.3417317"><ele>10.0</ele><time>2026-04-07T09:16:25.659Z</time></trkpt><trkpt lat="44.3208167" lon="9.3415133"><ele>13.333333333333334</ele><time>2026-04-07T09:16:26.659Z</time></trkpt><trkpt lat="44.3209017" lon="9.3412833"><ele>16.666666666666668</ele><time>2026-04-07T09:16:27.659Z</time></trkpt><trkpt lat="44.3209833" lon="9.3410617"><ele>20.0</ele><time>2026-04-07T09:16:28.659Z</time></trkpt><trkpt lat="44.32106" lon="9.3408483"><ele>20.0</ele><time>2026-04-07T09:16:29.66Z</time></trkpt><trkpt lat="44.321135" lon="9.3406417"><ele>20.0</ele><time>2026-04-07T09:16:30.659Z</time></trkpt><trkpt lat="44.3212083" lon="9.3404433"><ele>20.0</ele><time>2026-04-07T09:16:31.659Z</time></trkpt><trkpt lat="44.3212767" lon="9.3402533"><ele>21.75</ele><time>2026-04-07T09:16:32.659Z</time></trkpt><trkpt lat="44.3213433" lon="9.3400717"><ele>23.5</ele><time>2026-04-07T09:16:33.66Z</time></trkpt><trkpt lat="44.3214017" lon="9.3399067"><ele>25.25</ele><time>2026-04-07T09:16:34.66Z</time></trkpt><trkpt lat="44.3214583" lon="9.339755"><ele>27.0</ele><time>2026-04-07T09:16:35.659Z</time></trkpt><trkpt lat="44.3215167" lon="9.3396033"><ele>31.0</ele><time>2026-04-07T09:16:36.659Z</time></trkpt><trkpt lat="44.3215783" lon="9.3394467"><ele>35.0</ele><time>2026-04-07T09:16:37.66Z</time></trkpt><trkpt lat="44.3216417" lon="9.3392917"><ele>39.0</ele><time>2026-04-07T09:16:38.659Z</time></trkpt><trkpt lat="44.3217" lon="9.339155"><ele>43.0</ele><time>2026-04-07T09:16:39.659Z</time></trkpt><trkpt lat="44.3217533" lon="9.3390283"><ele>43.0</ele><time>2026-04-07T09:16:40.659Z</time></trkpt><trkpt lat="44.3218017" lon="9.3389117"><ele>43.0</ele><time>2026-04-07T09:16:41.659Z</time></trkpt><trkpt lat="44.321855" lon="9.3387883"><ele>43.0</ele><time>2026-04-07T09:16:42.659Z</time></trkpt><trkpt lat="44.321905" lon="9.3386667"><ele>43.0</ele><time>2026-04-07T09:16:43.659Z</time></trkpt><trkpt lat="44.321955" lon="9.3385417"><ele>43.0</ele><time>2026-04-07T09:16:44.659Z</time></trkpt><trkpt lat="44.3220067" lon="9.3384267"><ele>43.8</ele><time>2026-04-07T09:16:45.659Z</time></trkpt><trkpt lat="44.3220583" lon="9.3383133"><ele>44.599999999999994</ele><time>2026-04-07T09:16:46.659Z</time></trkpt><trkpt lat="44.32211" lon="9.3382"><ele>45.400000000000006</ele><time>2026-04-07T09:16:47.659Z</time></trkpt><trkpt lat="44.32216" lon="9.3380967"><ele>46.2</ele><time>2026-04-07T09:16:48.659Z</time></trkpt><trkpt lat="44.32221" lon="9.3380083"><ele>47.0</ele><time>2026-04-07T09:16:49.659Z</time></trkpt><trkpt lat="44.322265" lon="9.3379117"><ele>52.2</ele><time>2026-04-07T09:16:50.659Z</time></trkpt><trkpt lat="44.3223217" lon="9.3378083"><ele>57.400000000000006</ele><time>2026-04-07T09:16:51.659Z</time></trkpt><trkpt lat="44.32239" lon="9.337725"><ele>62.599999999999994</ele><time>2026-04-07T09:16:52.659Z</time></trkpt><trkpt lat="44.3224583" lon="9.3376233"><ele>67.8</ele><time>2026-04-07T09:16:53.659Z</time></trkpt><trkpt lat="44.3225267" lon="9.3375417"><ele>73.0</ele><time>2026-04-07T09:16:54.659Z</time></trkpt><trkpt lat="44.3225983" lon="9.33746"><ele>73.0</ele><time>2026-04-07T09:16:55.659Z</time></trkpt><trkpt lat="44.3226667" lon="9.3373833"><ele>73.0</ele><time>2026-04-07T09:16:56.659Z</time></trkpt><trkpt lat="44.3227467" lon="9.3373133"><ele>73.0</ele><time>2026-04-07T09:16:57.66Z</time></trkpt><trkpt lat="44.3228333" lon="9.3372367"><ele>73.0</ele><time>2026-04-07T09:16:58.659Z</time></trkpt><trkpt lat="44.3229317" lon="9.33713"><ele>73.0</ele><time>2026-04-07T09:16:59.659Z</time></trkpt><trkpt lat="44.322865" lon="9.3368583"><ele>67.66666666666666</ele><time>2026-04-07T09:17:00.659Z</time></trkpt><trkpt lat="44.3228533" lon="9.3365517"><ele>62.33333333333333</ele><time>2026-04-07T09:17:01.659Z</time></trkpt><trkpt lat="44.3229083" lon="9.3363183"><ele>57.0</ele><time>2026-04-07T09:17:02.66Z</time></trkpt><trkpt lat="44.322965" lon="9.3361583"><ele>56.0</ele><time>2026-04-07T09:17:03.659Z</time></trkpt><trkpt lat="44.3230417" lon="9.3359933"><ele>55.0</ele><time>2026-04-07T09:17:04.659Z</time></trkpt><trkpt lat="44.323105" lon="9.3358467"><ele>54.0</ele><time>2026-04-07T09:17:05.659Z</time></trkpt><trkpt lat="44.3231683" lon="9.3356967"><ele>53.0</ele><time>2026-04-07T09:17:06.659Z</time></trkpt><trkpt lat="44.3232283" lon="9.33555"><ele>51.5</ele><time>2026-04-07T09:17:07.659Z</time></trkpt><trkpt lat="44.3232917" lon="9.3353983"><ele>50.0</ele><time>2026-04-07T09:17:08.66Z</time></trkpt><trkpt lat="44.3233533" lon="9.33524"><ele>48.5</ele><time>2026-04-07T09:17:09.66Z</time></trkpt><trkpt lat="44.3234267" lon="9.3350767"><ele>47.0</ele><time>2026-04-07T09:17:10.659Z</time></trkpt><trkpt lat="44.323505" lon="9.33492"><ele>47.0</ele><time>2026-04-07T09:17:11.659Z</time></trkpt><trkpt lat="44.323575" lon="9.3347567"><ele>47.0</ele><time>2026-04-07T09:17:12.659Z</time></trkpt><trkpt lat="44.3236483" lon="9.3345883"><ele>47.0</ele><time>2026-04-07T09:17:13.659Z</time></trkpt><trkpt lat="44.32372" lon="9.3344217"><ele>47.0</ele><time>2026-04-07T09:17:14.659Z</time></trkpt><trkpt lat="44.3237917" lon="9.3342483"><ele>47.666666666666664</ele><time>2026-04-07T09:17:15.659Z</time></trkpt><trkpt lat="44.323865" lon="9.3340683"><ele>48.33333333333333</ele><time>2026-04-07T09:17:16.659Z</time></trkpt><trkpt lat="44.323945" lon="9.3338783"><ele>49.0</ele><time>2026-04-07T09:17:17.659Z</time></trkpt><trkpt lat="44.3240267" lon="9.333685"><ele>58.33333333333333</ele><time>2026-04-07T09:17:18.659Z</time></trkpt><trkpt lat="44.3241117" lon="9.333485"><ele>67.66666666666667</ele><time>2026-04-07T09:17:19.659Z</time></trkpt><trkpt lat="44.3242167" lon="9.3332917"><ele>77.0</ele><time>2026-04-07T09:17:20.659Z</time></trkpt><trkpt lat="44.3243167" lon="9.3330883"><ele>82.66666666666667</ele><time>2026-04-07T09:17:21.66Z</time></trkpt><trkpt lat="44.324405" lon="9.3328833"><ele>88.33333333333333</ele><time>2026-04-07T09:17:22.659Z</time></trkpt><trkpt lat="44.3244783" lon="9.332685"><ele>94.0</ele><time>2026-04-07T09:17:23.659Z</time></trkpt><trkpt lat="44.3245317" lon="9.332485"><ele>94.0</ele><time>2026-04-07T09:17:24.66Z</time></trkpt><trkpt lat="44.3245383" lon="9.3323"><ele>94.0</ele><time>2026-04-07T09:17:25.659Z</time></trkpt><trkpt lat="44.3244883" lon="9.3321917"><ele>94.0</ele><time>2026-04-07T09:17:26.659Z</time></trkpt><trkpt lat="44.3243483" lon="9.3321367"><ele>94.0</ele><time>2026-04-07T09:17:27.659Z</time></trkpt><trkpt lat="44.3256967" lon="9.328385"><ele>67.0</ele><time>2026-04-07T09:17:37.659Z</time></trkpt><trkpt lat="44.3256783" lon="9.3280833"><ele>40.0</ele><time>2026-04-07T09:17:38.66Z</time></trkpt><trkpt lat="44.325695" lon="9.327725"><ele>39.0</ele><time>2026-04-07T09:17:39.659Z</time></trkpt><trkpt lat="44.3257533" lon="9.3273933"><ele>38.0</ele><time>2026-04-07T09:17:40.659Z</time></trkpt><trkpt lat="44.3258217" lon="9.3270617"><ele>38.0</ele><time>2026-04-07T09:17:41.659Z</time></trkpt><trkpt lat="44.3258817" lon="9.3267317"><ele>38.0</ele><time>2026-04-07T09:17:42.659Z</time></trkpt><trkpt lat="44.3259367" lon="9.3264033"><ele>41.0</ele><time>2026-04-07T09:17:43.659Z</time></trkpt><trkpt lat="44.3259933" lon="9.3260717"><ele>44.0</ele><time>2026-04-07T09:17:44.659Z</time></trkpt><trkpt lat="44.326055" lon="9.3257417"><ele>45.5</ele><time>2026-04-07T09:17:45.659Z</time></trkpt><trkpt lat="44.3261167" lon="9.3254117"><ele>47.0</ele><time>2026-04-07T09:17:46.659Z</time></trkpt><trkpt lat="44.3261783" lon="9.3250717"><ele>47.0</ele><time>2026-04-07T09:17:47.66Z</time></trkpt><trkpt lat="44.3262417" lon="9.3247367"><ele>47.0</ele><time>2026-04-07T09:17:48.659Z</time></trkpt><trkpt lat="44.3263033" lon="9.324395"><ele>44.0</ele><time>2026-04-07T09:17:49.66Z</time></trkpt><trkpt lat="44.32636" lon="9.3240567"><ele>41.0</ele><time>2026-04-07T09:17:50.659Z</time></trkpt><trkpt lat="44.3264233" lon="9.3237183"><ele>41.0</ele><time>2026-04-07T09:17:51.659Z</time></trkpt><trkpt lat="44.326485" lon="9.3233733"><ele>41.0</ele><time>2026-04-07T09:17:52.659Z</time></trkpt><trkpt lat="44.32655" lon="9.3230317"><ele>34.5</ele><time>2026-04-07T09:17:53.659Z</time></trkpt><trkpt lat="44.3266167" lon="9.3226883"><ele>28.0</ele><time>2026-04-07T09:17:54.659Z</time></trkpt><trkpt lat="44.32669" lon="9.3223467"><ele>22.0</ele><time>2026-04-07T09:17:55.659Z</time></trkpt><trkpt lat="44.326775" lon="9.32201"><ele>16.0</ele><time>2026-04-07T09:17:56.659Z</time></trkpt><trkpt lat="44.32687" lon="9.3216767"><ele>12.0</ele><time>2026-04-07T09:17:57.66Z</time></trkpt><trkpt lat="44.326975" lon="9.3213533"><ele>8.0</ele><time>2026-04-07T09:17:58.659Z</time></trkpt><trkpt lat="44.3270867" lon="9.3210367"><ele>8.0</ele><time>2026-04-07T09:17:59.659Z</time></trkpt><trkpt lat="44.3272117" lon="9.3207217"><ele>8.0</ele><time>2026-04-07T09:18:00.66Z</time></trkpt><trkpt lat="44.3273417" lon="9.320415"><ele>12.0</ele><time>2026-04-07T09:18:01.66Z</time></trkpt><trkpt lat="44.32748" lon="9.3201117"><ele>16.0</ele><time>2026-04-07T09:18:02.659Z</time></trkpt><trkpt lat="44.32762" lon="9.3198083"><ele>18.0</ele><time>2026-04-07T09:18:03.659Z</time></trkpt><trkpt lat="44.32776" lon="9.3195067"><ele>20.0</ele><time>2026-04-07T09:18:04.659Z</time></trkpt><trkpt lat="44.3278983" lon="9.3192017"><ele>25.5</ele><time>2026-04-07T09:18:05.659Z</time></trkpt><trkpt lat="44.328035" lon="9.3188983"><ele>31.0</ele><time>2026-04-07T09:18:06.659Z</time></trkpt><trkpt lat="44.3281717" lon="9.3185917"><ele>35.0</ele><time>2026-04-07T09:18:07.659Z</time></trkpt><trkpt lat="44.3283033" lon="9.3182883"><ele>39.0</ele><time>2026-04-07T09:18:08.659Z</time></trkpt><trkpt lat="44.3284333" lon="9.3179733"><ele>48.0</ele><time>2026-04-07T09:18:09.659Z</time></trkpt><trkpt lat="44.3285517" lon="9.3176483"><ele>57.0</ele><time>2026-04-07T09:18:10.659Z</time></trkpt><trkpt lat="44.32866" lon="9.3173217"><ele>69.5</ele><time>2026-04-07T09:18:11.659Z</time></trkpt><trkpt lat="44.3287617" lon="9.316985"><ele>82.0</ele><time>2026-04-07T09:18:12.659Z</time></trkpt><trkpt lat="44.3288583" lon="9.3166367"><ele>80.0</ele><time>2026-04-07T09:18:13.66Z</time></trkpt><trkpt lat="44.328955" lon="9.3162883"><ele>78.0</ele><time>2026-04-07T09:18:14.66Z</time></trkpt><trkpt lat="44.3290533" lon="9.3159367"><ele>78.0</ele><time>2026-04-07T09:18:15.659Z</time></trkpt><trkpt lat="44.32915" lon="9.3155933"><ele>78.0</ele><time>2026-04-07T09:18:16.66Z</time></trkpt><trkpt lat="44.3292533" lon="9.3152883"><ele>77.33333333333333</ele><time>2026-04-07T09:18:17.659Z</time></trkpt><trkpt lat="44.32936" lon="9.31502"><ele>76.66666666666666</ele><time>2026-04-07T09:18:18.659Z</time></trkpt><trkpt lat="44.3293867" lon="9.314725"><ele>76.0</ele><time>2026-04-07T09:18:19.659Z</time></trkpt><trkpt lat="44.3294683" lon="9.3144517"><ele>76.0</ele><time>2026-04-07T09:18:20.66Z</time></trkpt><trkpt lat="44.3295483" lon="9.314185"><ele>76.0</ele><time>2026-04-07T09:18:21.659Z</time></trkpt><trkpt lat="44.3296367" lon="9.313915"><ele>76.0</ele><time>2026-04-07T09:18:22.66Z</time></trkpt><trkpt lat="44.32973" lon="9.3136683"><ele>72.66666666666666</ele><time>2026-04-07T09:18:23.66Z</time></trkpt><trkpt lat="44.329815" lon="9.3134117"><ele>69.33333333333333</ele><time>2026-04-07T09:18:24.659Z</time></trkpt><trkpt lat="44.3298983" lon="9.3131583"><ele>66.0</ele><time>2026-04-07T09:18:25.659Z</time></trkpt><trkpt lat="44.32998" lon="9.3129017"><ele>66.0</ele><time>2026-04-07T09:18:26.659Z</time></trkpt><trkpt lat="44.33006" lon="9.3126367"><ele>66.0</ele><time>2026-04-07T09:18:27.659Z</time></trkpt><trkpt lat="44.3301317" lon="9.3123783"><ele>66.0</ele><time>2026-04-07T09:18:28.66Z</time></trkpt><trkpt lat="44.3302" lon="9.312125"><ele>70.0</ele><time>2026-04-07T09:18:29.659Z</time></trkpt><trkpt lat="44.3302633" lon="9.31187"><ele>74.0</ele><time>2026-04-07T09:18:30.659Z</time></trkpt><trkpt lat="44.33032" lon="9.31162"><ele>78.0</ele><time>2026-04-07T09:18:31.659Z</time></trkpt><trkpt lat="44.3303783" lon="9.3113667"><ele>78.0</ele><time>2026-04-07T09:18:32.66Z</time></trkpt><trkpt lat="44.330435" lon="9.3111117"><ele>78.0</ele><time>2026-04-07T09:18:33.659Z</time></trkpt><trkpt lat="44.3304917" lon="9.3108517"><ele>78.0</ele><time>2026-04-07T09:18:34.659Z</time></trkpt><trkpt lat="44.33055" lon="9.310585"><ele>70.33333333333333</ele><time>2026-04-07T09:18:35.659Z</time></trkpt><trkpt lat="44.3306083" lon="9.3103117"><ele>62.666666666666664</ele><time>2026-04-07T09:18:36.659Z</time></trkpt><trkpt lat="44.330665" lon="9.3100333"><ele>55.0</ele><time>2026-04-07T09:18:37.659Z</time></trkpt><trkpt lat="44.3307233" lon="9.30975"><ele>61.33333333333333</ele><time>2026-04-07T09:18:38.659Z</time></trkpt><trkpt lat="44.3307833" lon="9.30946"><ele>67.66666666666667</ele><time>2026-04-07T09:18:39.659Z</time></trkpt><trkpt lat="44.3308433" lon="9.3091683"><ele>74.0</ele><time>2026-04-07T09:18:40.659Z</time></trkpt><trkpt lat="44.330905" lon="9.3088683"><ele>83.5</ele><time>2026-04-07T09:18:41.659Z</time></trkpt><trkpt lat="44.3309683" lon="9.3085583"><ele>93.0</ele><time>2026-04-07T09:18:42.659Z</time></trkpt><trkpt lat="44.33103" lon="9.30824"><ele>97.5</ele><time>2026-04-07T09:18:43.659Z</time></trkpt><trkpt lat="44.3310867" lon="9.307925"><ele>102.0</ele><time>2026-04-07T09:18:44.659Z</time></trkpt><trkpt lat="44.3311367" lon="9.3076083"><ele>102.0</ele><time>2026-04-07T09:18:45.658Z</time></trkpt><trkpt lat="44.3311767" lon="9.3072883"><ele>102.0</ele><time>2026-04-07T09:18:46.658Z</time></trkpt><trkpt lat="44.331195" lon="9.3069667"><ele>106.0</ele><time>2026-04-07T09:18:47.659Z</time></trkpt><trkpt lat="44.3311933" lon="9.3066467"><ele>110.0</ele><time>2026-04-07T09:18:48.658Z</time></trkpt><trkpt lat="44.3311783" lon="9.3063233"><ele>110.0</ele><time>2026-04-07T09:18:49.658Z</time></trkpt><trkpt lat="44.3311533" lon="9.306"><ele>110.0</ele><time>2026-04-07T09:18:50.658Z</time></trkpt><trkpt lat="44.331115" lon="9.3056733"><ele>107.0</ele><time>2026-04-07T09:18:51.659Z</time></trkpt><trkpt lat="44.3310717" lon="9.3053417"><ele>104.0</ele><time>2026-04-07T09:18:52.658Z</time></trkpt><trkpt lat="44.3310367" lon="9.305005"><ele>103.0</ele><time>2026-04-07T09:18:53.658Z</time></trkpt><trkpt lat="44.331005" lon="9.304665"><ele>102.0</ele><time>2026-04-07T09:18:54.658Z</time></trkpt><trkpt lat="44.33099" lon="9.3043183"><ele>102.0</ele><time>2026-04-07T09:18:55.658Z</time></trkpt><trkpt lat="44.3309883" lon="9.303975"><ele>102.0</ele><time>2026-04-07T09:18:56.658Z</time></trkpt><trkpt lat="44.3309967" lon="9.3036283"><ele>105.0</ele><time>2026-04-07T09:18:57.658Z</time></trkpt><trkpt lat="44.3310067" lon="9.3032817"><ele>108.0</ele><time>2026-04-07T09:18:58.658Z</time></trkpt><trkpt lat="44.33102" lon="9.3029383"><ele>109.0</ele><time>2026-04-07T09:18:59.659Z</time></trkpt><trkpt lat="44.3310383" lon="9.302585"><ele>110.0</ele><time>2026-04-07T09:19:00.658Z</time></trkpt><trkpt lat="44.3310517" lon="9.3022317"><ele>110.0</ele><time>2026-04-07T09:19:01.658Z</time></trkpt><trkpt lat="44.33106" lon="9.30188"><ele>110.0</ele><time>2026-04-07T09:19:02.658Z</time></trkpt><trkpt lat="44.3310533" lon="9.30153"><ele>107.5</ele><time>2026-04-07T09:19:03.658Z</time></trkpt><trkpt lat="44.3310333" lon="9.3011817"><ele>105.0</ele><time>2026-04-07T09:19:04.658Z</time></trkpt><trkpt lat="44.3310017" lon="9.300835"><ele>105.0</ele><time>2026-04-07T09:19:05.658Z</time></trkpt><trkpt lat="44.3309717" lon="9.3004883"><ele>105.0</ele><time>2026-04-07T09:19:06.658Z</time></trkpt><trkpt lat="44.3309483" lon="9.3001383"><ele>105.0</ele><time>2026-04-07T09:19:07.658Z</time></trkpt><trkpt lat="44.33093" lon="9.29979"><ele>105.0</ele><time>2026-04-07T09:19:08.658Z</time></trkpt><trkpt lat="44.3309233" lon="9.2994417"><ele>108.5</ele><time>2026-04-07T09:19:09.658Z</time></trkpt><trkpt lat="44.3309233" lon="9.2990983"><ele>112.0</ele><time>2026-04-07T09:19:10.658Z</time></trkpt><trkpt lat="44.3309367" lon="9.2987533"><ele>120.5</ele><time>2026-04-07T09:19:11.658Z</time></trkpt><trkpt lat="44.3309617" lon="9.29841"><ele>129.0</ele><time>2026-04-07T09:19:12.658Z</time></trkpt><trkpt lat="44.331" lon="9.2980617"><ele>133.0</ele><time>2026-04-07T09:19:13.658Z</time></trkpt><trkpt lat="44.331055" lon="9.297715"><ele>137.0</ele><time>2026-04-07T09:19:14.658Z</time></trkpt><trkpt lat="44.3311233" lon="9.297375"><ele>141.0</ele><time>2026-04-07T09:19:15.658Z</time></trkpt><trkpt lat="44.3312017" lon="9.2970417"><ele>145.0</ele><time>2026-04-07T09:19:16.658Z</time></trkpt><trkpt lat="44.3312917" lon="9.2967117"><ele>152.0</ele><time>2026-04-07T09:19:17.659Z</time></trkpt><trkpt lat="44.3313883" lon="9.296385"><ele>159.0</ele><time>2026-04-07T09:19:18.658Z</time></trkpt><trkpt lat="44.33148" lon="9.296065"><ele>146.0</ele><time>2026-04-07T09:19:19.658Z</time></trkpt><trkpt lat="44.3315767" lon="9.2957433"><ele>133.0</ele><time>2026-04-07T09:19:20.658Z</time></trkpt><trkpt lat="44.331685" lon="9.2954233"><ele>133.0</ele><time>2026-04-07T09:19:21.658Z</time></trkpt><trkpt lat="44.3317967" lon="9.2951117"><ele>133.0</ele><time>2026-04-07T09:19:22.658Z</time></trkpt><trkpt lat="44.331915" lon="9.2948033"><ele>145.5</ele><time>2026-04-07T09:19:23.658Z</time></trkpt><trkpt lat="44.3320483" lon="9.2945083"><ele>158.0</ele><time>2026-04-07T09:19:24.658Z</time></trkpt><trkpt lat="44.33219" lon="9.29422"><ele>151.0</ele><time>2026-04-07T09:19:25.658Z</time></trkpt><trkpt lat="44.3323483" lon="9.2939517"><ele>144.0</ele><time>2026-04-07T09:19:26.658Z</time></trkpt><trkpt lat="44.3325183" lon="9.2937017"><ele>144.0</ele><time>2026-04-07T09:19:27.658Z</time></trkpt><trkpt lat="44.3326983" lon="9.29347"><ele>144.0</ele><time>2026-04-07T09:19:28.658Z</time></trkpt><trkpt lat="44.3328883" lon="9.29325"><ele>143.0</ele><time>2026-04-07T09:19:29.658Z</time></trkpt><trkpt lat="44.3330817" lon="9.2930383"><ele>142.0</ele><time>2026-04-07T09:19:30.658Z</time></trkpt><trkpt lat="44.3332817" lon="9.2928367"><ele>142.0</ele><time>2026-04-07T09:19:31.658Z</time></trkpt><trkpt lat="44.33349" lon="9.292645"><ele>142.0</ele><time>2026-04-07T09:19:32.658Z</time></trkpt><trkpt lat="44.3337" lon="9.2924633"><ele>138.5</ele><time>2026-04-07T09:19:33.658Z</time></trkpt><trkpt lat="44.33391" lon="9.2922817"><ele>135.0</ele><time>2026-04-07T09:19:34.659Z</time></trkpt><trkpt lat="44.3341183" lon="9.2920983"><ele>146.0</ele><time>2026-04-07T09:19:35.658Z</time></trkpt><trkpt lat="44.3343217" lon="9.2919067"><ele>157.0</ele><time>2026-04-07T09:19:36.658Z</time></trkpt><trkpt lat="44.3345233" lon="9.2917083"><ele>158.0</ele><time>2026-04-07T09:19:37.658Z</time></trkpt><trkpt lat="44.3347217" lon="9.2915017"><ele>159.0</ele><time>2026-04-07T09:19:38.658Z</time></trkpt><trkpt lat="44.334915" lon="9.2912883"><ele>159.0</ele><time>2026-04-07T09:19:39.658Z</time></trkpt><trkpt lat="44.3351133" lon="9.2910733"><ele>159.0</ele><time>2026-04-07T09:19:40.658Z</time></trkpt><trkpt lat="44.3353017" lon="9.2908483"><ele>159.0</ele><time>2026-04-07T09:19:41.658Z</time></trkpt><trkpt lat="44.33548" lon="9.2906117"><ele>159.0</ele><time>2026-04-07T09:19:42.659Z</time></trkpt><trkpt lat="44.3356667" lon="9.2903883"><ele>168.0</ele><time>2026-04-07T09:19:43.658Z</time></trkpt><trkpt lat="44.3358417" lon="9.29015"><ele>177.0</ele><time>2026-04-07T09:19:44.658Z</time></trkpt><trkpt lat="44.336015" lon="9.2899083"><ele>201.0</ele><time>2026-04-07T09:19:45.658Z</time></trkpt><trkpt lat="44.336185" lon="9.28965"><ele>225.0</ele><time>2026-04-07T09:19:46.658Z</time></trkpt><trkpt lat="44.33636" lon="9.2894017"><ele>217.0</ele><time>2026-04-07T09:19:47.658Z</time></trkpt><trkpt lat="44.336565" lon="9.2891867"><ele>209.0</ele><time>2026-04-07T09:19:48.658Z</time></trkpt><trkpt lat="44.3366983" lon="9.2889367"><ele>224.33333333333334</ele><time>2026-04-07T09:19:49.658Z</time></trkpt><trkpt lat="44.33679" lon="9.2887033"><ele>239.66666666666669</ele><time>2026-04-07T09:19:50.658Z</time></trkpt><trkpt lat="44.3368083" lon="9.2884917"><ele>255.0</ele><time>2026-04-07T09:19:51.658Z</time></trkpt><trkpt lat="44.3369117" lon="9.28828"><ele>255.0</ele><time>2026-04-07T09:19:52.658Z</time></trkpt><trkpt lat="44.337025" lon="9.2881217"><ele>255.0</ele><time>2026-04-07T09:19:53.658Z</time></trkpt><trkpt lat="44.3434167" lon="9.27512"><ele>191.0</ele><time>2026-04-07T09:20:37.659Z</time></trkpt><trkpt lat="44.3435288" lon="9.2748112"><ele>127.0</ele><time>2026-04-07T09:20:38.659Z</time></trkpt><trkpt lat="44.3436471" lon="9.2744574"><ele>115.0</ele><time>2026-04-07T09:20:39.658Z</time></trkpt><trkpt lat="44.3437598" lon="9.2741366"><ele>103.0</ele><time>2026-04-07T09:20:40.658Z</time></trkpt><trkpt lat="44.3438679" lon="9.2738343"><ele>85.0</ele><time>2026-04-07T09:20:41.658Z</time></trkpt><trkpt lat="44.3439768" lon="9.2735408"><ele>67.0</ele><time>2026-04-07T09:20:42.658Z</time></trkpt><trkpt lat="44.3440843" lon="9.2732492"><ele>77.5</ele><time>2026-04-07T09:20:43.658Z</time></trkpt><trkpt lat="44.3441849" lon="9.2729636"><ele>88.0</ele><time>2026-04-07T09:20:44.658Z</time></trkpt><trkpt lat="44.3442874" lon="9.2726732"><ele>88.0</ele><time>2026-04-07T09:20:45.658Z</time></trkpt><trkpt lat="44.3443885" lon="9.2723891"><ele>88.0</ele><time>2026-04-07T09:20:46.658Z</time></trkpt><trkpt lat="44.3444939" lon="9.2721046"><ele>96.66666666666666</ele><time>2026-04-07T09:20:47.658Z</time></trkpt><trkpt lat="44.344598" lon="9.2718247"><ele>105.33333333333333</ele><time>2026-04-07T09:20:48.658Z</time></trkpt><trkpt lat="44.3446955" lon="9.2715547"><ele>114.0</ele><time>2026-04-07T09:20:49.658Z</time></trkpt><trkpt lat="44.3447819" lon="9.2712862"><ele>138.0</ele><time>2026-04-07T09:20:50.659Z</time></trkpt><trkpt lat="44.3448615" lon="9.2710144"><ele>162.0</ele><time>2026-04-07T09:20:51.658Z</time></trkpt><trkpt lat="44.344943" lon="9.2707518"><ele>186.0</ele><time>2026-04-07T09:20:52.658Z</time></trkpt><trkpt lat="44.3450216" lon="9.2704955"><ele>195.0</ele><time>2026-04-07T09:20:53.658Z</time></trkpt><trkpt lat="44.3450944" lon="9.2702398"><ele>204.0</ele><time>2026-04-07T09:20:54.659Z</time></trkpt><trkpt lat="44.3451628" lon="9.2699845"><ele>213.0</ele><time>2026-04-07T09:20:55.658Z</time></trkpt><trkpt lat="44.3452113" lon="9.2697353"><ele>219.0</ele><time>2026-04-07T09:20:56.658Z</time></trkpt><trkpt lat="44.3452643" lon="9.2694887"><ele>225.0</ele><time>2026-04-07T09:20:57.658Z</time></trkpt><trkpt lat="44.3453161" lon="9.2692518"><ele>231.0</ele><time>2026-04-07T09:20:58.659Z</time></trkpt><trkpt lat="44.3453633" lon="9.2690247"><ele>235.66666666666669</ele><time>2026-04-07T09:20:59.658Z</time></trkpt><trkpt lat="44.3454334" lon="9.2687647"><ele>240.33333333333334</ele><time>2026-04-07T09:21:00.716Z</time></trkpt><trkpt lat="44.3454368" lon="9.2686049"><ele>245.0</ele><time>2026-04-07T09:21:01.658Z</time></trkpt><trkpt lat="44.3454742" lon="9.2683938"><ele>108.0</ele><time>2026-04-07T09:21:02.658Z</time></trkpt><trkpt lat="44.3487281" lon="9.2534415"><ele>108.0</ele><time>2026-04-07T09:21:42.93Z</time></trkpt><trkpt lat="44.348565" lon="9.253895"><ele>108.0</ele><time>2026-04-07T09:21:46.658Z</time></trkpt><trkpt lat="44.3486267" lon="9.2536617"><ele>108.0</ele><time>2026-04-07T09:21:47.658Z</time></trkpt><trkpt lat="44.3486733" lon="9.2533917"><ele>108.0</ele><time>2026-04-07T09:21:48.659Z</time></trkpt><trkpt lat="44.3487117" lon="9.25311"><ele>108.0</ele><time>2026-04-07T09:21:49.658Z</time></trkpt><trkpt lat="44.3487467" lon="9.25282"><ele>104.66666666666666</ele><time>2026-04-07T09:21:50.658Z</time></trkpt><trkpt lat="44.3487733" lon="9.25252"><ele>101.33333333333333</ele><time>2026-04-07T09:21:51.658Z</time></trkpt><trkpt lat="44.3487983" lon="9.2522183"><ele>98.0</ele><time>2026-04-07T09:21:52.659Z</time></trkpt><trkpt lat="44.348825" lon="9.2519133"><ele>96.66666666666666</ele><time>2026-04-07T09:21:53.658Z</time></trkpt><trkpt lat="44.3488433" lon="9.25161"><ele>95.33333333333333</ele><time>2026-04-07T09:21:54.658Z</time></trkpt><trkpt lat="44.3488683" lon="9.2513033"><ele>94.0</ele><time>2026-04-07T09:21:55.658Z</time></trkpt><trkpt lat="44.3488933" lon="9.2509933"><ele>102.66666666666666</ele><time>2026-04-07T09:21:56.658Z</time></trkpt><trkpt lat="44.34892" lon="9.2506817"><ele>111.33333333333333</ele><time>2026-04-07T09:21:57.658Z</time></trkpt><trkpt lat="44.3489483" lon="9.25037"><ele>120.0</ele><time>2026-04-07T09:21:58.658Z</time></trkpt><trkpt lat="44.3489917" lon="9.2500633"><ele>114.5</ele><time>2026-04-07T09:21:59.658Z</time></trkpt><trkpt lat="44.3490517" lon="9.24976"><ele>109.0</ele><time>2026-04-07T09:22:00.659Z</time></trkpt><trkpt lat="44.3491267" lon="9.2494633"><ele>109.0</ele><time>2026-04-07T09:22:01.658Z</time></trkpt><trkpt lat="44.3492183" lon="9.2491733"><ele>109.0</ele><time>2026-04-07T09:22:02.658Z</time></trkpt><trkpt lat="44.3493367" lon="9.2488867"><ele>105.0</ele><time>2026-04-07T09:22:03.658Z</time></trkpt><trkpt lat="44.3494567" lon="9.2486167"><ele>101.0</ele><time>2026-04-07T09:22:04.659Z</time></trkpt><trkpt lat="44.3495933" lon="9.2483567"><ele>99.5</ele><time>2026-04-07T09:22:05.658Z</time></trkpt><trkpt lat="44.3497483" lon="9.24812"><ele>98.0</ele><time>2026-04-07T09:22:06.659Z</time></trkpt><trkpt lat="44.34991" lon="9.2478917"><ele>98.0</ele><time>2026-04-07T09:22:07.658Z</time></trkpt><trkpt lat="44.350085" lon="9.2476667"><ele>98.0</ele><time>2026-04-07T09:22:08.658Z</time></trkpt><trkpt lat="44.3502567" lon="9.2474383"><ele>94.0</ele><time>2026-04-07T09:22:09.658Z</time></trkpt><trkpt lat="44.3504367" lon="9.2472117"><ele>90.0</ele><time>2026-04-07T09:22:10.658Z</time></trkpt><trkpt lat="44.3506117" lon="9.24698"><ele>110.5</ele><time>2026-04-07T09:22:11.658Z</time></trkpt><trkpt lat="44.3507833" lon="9.2467533"><ele>131.0</ele><time>2026-04-07T09:22:12.659Z</time></trkpt><trkpt lat="44.350955" lon="9.246525"><ele>128.0</ele><time>2026-04-07T09:22:13.658Z</time></trkpt><trkpt lat="44.3511317" lon="9.2463033"><ele>125.0</ele><time>2026-04-07T09:22:14.658Z</time></trkpt><trkpt lat="44.3513117" lon="9.2460767"><ele>128.5</ele><time>2026-04-07T09:22:15.658Z</time></trkpt><trkpt lat="44.3514933" lon="9.2458367"><ele>132.0</ele><time>2026-04-07T09:22:16.659Z</time></trkpt><trkpt lat="44.35168" lon="9.24558"><ele>116.0</ele><time>2026-04-07T09:22:17.659Z</time></trkpt><trkpt lat="44.35187" lon="9.24531"><ele>100.0</ele><time>2026-04-07T09:22:18.658Z</time></trkpt><trkpt lat="44.3519233" lon="9.2448717"><ele>73.0</ele><time>2026-04-07T09:22:19.658Z</time></trkpt><trkpt lat="44.352135" lon="9.2443033"><ele>75.0</ele><time>2026-04-07T09:22:22.658Z</time></trkpt><trkpt lat="44.3525167" lon="9.2441617"><ele>77.0</ele><time>2026-04-07T09:22:23.659Z</time></trkpt><trkpt lat="44.35283" lon="9.2439417"><ele>58.5</ele><time>2026-04-07T09:22:24.659Z</time></trkpt><trkpt lat="44.3530883" lon="9.2437033"><ele>40.0</ele><time>2026-04-07T09:22:25.658Z</time></trkpt><trkpt lat="44.3533233" lon="9.2434717"><ele>40.0</ele><time>2026-04-07T09:22:26.658Z</time></trkpt><trkpt lat="44.3535117" lon="9.2432417"><ele>40.0</ele><time>2026-04-07T09:22:27.658Z</time></trkpt><trkpt lat="44.3536967" lon="9.24301"><ele>47.0</ele><time>2026-04-07T09:22:28.658Z</time></trkpt><trkpt lat="44.35387" lon="9.242775"><ele>54.0</ele><time>2026-04-07T09:22:29.658Z</time></trkpt><trkpt lat="44.354045" lon="9.242545"><ele>63.66666666666667</ele><time>2026-04-07T09:22:30.659Z</time></trkpt><trkpt lat="44.3542133" lon="9.242325"><ele>73.33333333333334</ele><time>2026-04-07T09:22:31.658Z</time></trkpt><trkpt lat="44.3543667" lon="9.2421183"><ele>83.0</ele><time>2026-04-07T09:22:32.658Z</time></trkpt><trkpt lat="44.35453" lon="9.2418967"><ele>97.5</ele><time>2026-04-07T09:22:33.658Z</time></trkpt><trkpt lat="44.3546917" lon="9.241665"><ele>112.0</ele><time>2026-04-07T09:22:34.658Z</time></trkpt><trkpt lat="44.3548583" lon="9.2414267"><ele>129.0</ele><time>2026-04-07T09:22:35.658Z</time></trkpt><trkpt lat="44.3550283" lon="9.2411817"><ele>146.0</ele><time>2026-04-07T09:22:36.658Z</time></trkpt><trkpt lat="44.3551983" lon="9.2409483"><ele>146.0</ele><time>2026-04-07T09:22:37.658Z</time></trkpt><trkpt lat="44.3553683" lon="9.240705"><ele>146.0</ele><time>2026-04-07T09:22:38.658Z</time></trkpt><trkpt lat="44.355535" lon="9.2404533"><ele>136.5</ele><time>2026-04-07T09:22:39.658Z</time></trkpt><trkpt lat="44.3556917" lon="9.2401867"><ele>127.0</ele><time>2026-04-07T09:22:40.659Z</time></trkpt><trkpt lat="44.355845" lon="9.2399233"><ele>115.5</ele><time>2026-04-07T09:22:41.658Z</time></trkpt><trkpt lat="44.35604" lon="9.2394633"><ele>104.0</ele><time>2026-04-07T09:22:42.659Z</time></trkpt><trkpt lat="44.3562067" lon="9.238995"><ele>102.5</ele><time>2026-04-07T09:22:43.658Z</time></trkpt><trkpt lat="44.3563617" lon="9.23852"><ele>101.0</ele><time>2026-04-07T09:22:44.658Z</time></trkpt><trkpt lat="44.356495" lon="9.2381483"><ele>93.5</ele><time>2026-04-07T09:22:45.658Z</time></trkpt><trkpt lat="44.3566167" lon="9.2378133"><ele>86.0</ele><time>2026-04-07T09:22:46.658Z</time></trkpt><trkpt lat="44.3567367" lon="9.2372467"><ele>62.0</ele><time>2026-04-07T09:22:47.658Z</time></trkpt><trkpt lat="44.3568683" lon="9.2366133"><ele>48.5</ele><time>2026-04-07T09:22:48.659Z</time></trkpt><trkpt lat="44.3569733" lon="9.2361833"><ele>35.0</ele><time>2026-04-07T09:22:49.658Z</time></trkpt><trkpt lat="44.357065" lon="9.2357833"><ele>51.0</ele><time>2026-04-07T09:22:50.658Z</time></trkpt><trkpt lat="44.3584583" lon="9.2358517"><ele>51.0</ele><time>2026-04-07T09:22:54.658Z</time></trkpt><trkpt lat="44.358735" lon="9.2360333"><ele>51.0</ele><time>2026-04-07T09:22:55.658Z</time></trkpt><trkpt lat="44.3588933" lon="9.236095"><ele>50.66666666666667</ele><time>2026-04-07T09:22:56.658Z</time></trkpt><trkpt lat="44.358915" lon="9.2359083"><ele>50.333333333333336</ele><time>2026-04-07T09:22:57.658Z</time></trkpt><trkpt lat="44.3590183" lon="9.2356583"><ele>50.0</ele><time>2026-04-07T09:22:58.658Z</time></trkpt><trkpt lat="44.3591233" lon="9.235375"><ele>47.333333333333336</ele><time>2026-04-07T09:22:59.658Z</time></trkpt><trkpt lat="44.3592167" lon="9.2351"><ele>44.66666666666667</ele><time>2026-04-07T09:23:00.658Z</time></trkpt><trkpt lat="44.35931" lon="9.23482"><ele>42.0</ele><time>2026-04-07T09:23:01.658Z</time></trkpt><trkpt lat="44.3593883" lon="9.2345517"><ele>42.0</ele><time>2026-04-07T09:23:02.658Z</time></trkpt><trkpt lat="44.35945" lon="9.2342567"><ele>42.0</ele><time>2026-04-07T09:23:03.658Z</time></trkpt><trkpt lat="44.3595017" lon="9.2339717"><ele>42.0</ele><time>2026-04-07T09:23:04.658Z</time></trkpt><trkpt lat="44.359545" lon="9.2336667"><ele>58.5</ele><time>2026-04-07T09:23:05.658Z</time></trkpt><trkpt lat="44.3595717" lon="9.233355"><ele>75.0</ele><time>2026-04-07T09:23:06.658Z</time></trkpt><trkpt lat="44.3596067" lon="9.23304"><ele>89.33333333333334</ele><time>2026-04-07T09:23:07.66Z</time></trkpt><trkpt lat="44.3596467" lon="9.2327333"><ele>103.66666666666667</ele><time>2026-04-07T09:23:08.66Z</time></trkpt><trkpt lat="44.3596867" lon="9.2324233"><ele>118.0</ele><time>2026-04-07T09:23:09.659Z</time></trkpt><trkpt lat="44.3597167" lon="9.23212"><ele>126.33333333333334</ele><time>2026-04-07T09:23:10.659Z</time></trkpt><trkpt lat="44.3597417" lon="9.2318217"><ele>134.66666666666666</ele><time>2026-04-07T09:23:11.66Z</time></trkpt><trkpt lat="44.3597733" lon="9.2315183"><ele>143.0</ele><time>2026-04-07T09:23:12.659Z</time></trkpt><trkpt lat="44.359805" lon="9.2312167"><ele>143.0</ele><time>2026-04-07T09:23:13.659Z</time></trkpt><trkpt lat="44.359845" lon="9.2309033"><ele>143.0</ele><time>2026-04-07T09:23:14.659Z</time></trkpt><trkpt lat="44.359545" lon="9.22835"><ele>113.5</ele><time>2026-04-07T09:23:21.66Z</time></trkpt><trkpt lat="44.3594817" lon="9.2279733"><ele>84.0</ele><time>2026-04-07T09:23:22.659Z</time></trkpt><trkpt lat="44.3594167" lon="9.22758"><ele>84.5</ele><time>2026-04-07T09:23:23.659Z</time></trkpt><trkpt lat="44.35936" lon="9.2271967"><ele>85.0</ele><time>2026-04-07T09:23:24.659Z</time></trkpt><trkpt lat="44.358585" lon="9.22463"><ele>64.0</ele><time>2026-04-07T09:23:31.659Z</time></trkpt><trkpt lat="44.3584433" lon="9.224215"><ele>43.0</ele><time>2026-04-07T09:23:32.659Z</time></trkpt><trkpt lat="44.3583267" lon="9.2238517"><ele>41.0</ele><time>2026-04-07T09:23:33.659Z</time></trkpt><trkpt lat="44.3582267" lon="9.2234817"><ele>39.0</ele><time>2026-04-07T09:23:34.659Z</time></trkpt><trkpt lat="44.3581433" lon="9.2231333"><ele>43.0</ele><time>2026-04-07T09:23:35.66Z</time></trkpt><trkpt lat="44.358065" lon="9.2227817"><ele>47.0</ele><time>2026-04-07T09:23:36.659Z</time></trkpt><trkpt lat="44.3579983" lon="9.22244"><ele>49.0</ele><time>2026-04-07T09:23:37.659Z</time></trkpt><trkpt lat="44.357935" lon="9.2220967"><ele>51.0</ele><time>2026-04-07T09:23:38.659Z</time></trkpt><trkpt lat="44.3578667" lon="9.2217383"><ele>49.0</ele><time>2026-04-07T09:23:39.66Z</time></trkpt><trkpt lat="44.3578067" lon="9.2213967"><ele>47.0</ele><time>2026-04-07T09:23:40.659Z</time></trkpt><trkpt lat="44.3577383" lon="9.22105"><ele>47.0</ele><time>2026-04-07T09:23:41.659Z</time></trkpt><trkpt lat="44.357675" lon="9.22071"><ele>47.0</ele><time>2026-04-07T09:23:42.659Z</time></trkpt><trkpt lat="44.3576183" lon="9.2203683"><ele>44.5</ele><time>2026-04-07T09:23:43.659Z</time></trkpt><trkpt lat="44.3575683" lon="9.2200267"><ele>42.0</ele><time>2026-04-07T09:23:44.659Z</time></trkpt><trkpt lat="44.3575283" lon="9.2196767"><ele>38.0</ele><time>2026-04-07T09:23:45.659Z</time></trkpt><trkpt lat="44.3575033" lon="9.219315"><ele>34.0</ele><time>2026-04-07T09:23:46.66Z</time></trkpt><trkpt lat="44.3574883" lon="9.21896"><ele>32.5</ele><time>2026-04-07T09:23:47.659Z</time></trkpt><trkpt lat="44.357485" lon="9.2186067"><ele>31.0</ele><time>2026-04-07T09:23:48.66Z</time></trkpt><trkpt lat="44.357495" lon="9.2182567"><ele>35.5</ele><time>2026-04-07T09:23:49.659Z</time></trkpt><trkpt lat="44.357515" lon="9.2179167"><ele>40.0</ele><time>2026-04-07T09:23:50.659Z</time></trkpt><trkpt lat="44.35754" lon="9.2175867"><ele>49.0</ele><time>2026-04-07T09:23:51.659Z</time></trkpt><trkpt lat="44.3575667" lon="9.2172617"><ele>58.0</ele><time>2026-04-07T09:23:52.659Z</time></trkpt><trkpt lat="44.35762" lon="9.2169067"><ele>58.0</ele><time>2026-04-07T09:23:53.659Z</time></trkpt><trkpt lat="44.357655" lon="9.2165633"><ele>58.0</ele><time>2026-04-07T09:23:54.659Z</time></trkpt><trkpt lat="44.3576817" lon="9.21623"><ele>59.0</ele><time>2026-04-07T09:23:55.659Z</time></trkpt><trkpt lat="44.3576733" lon="9.2159317"><ele>60.0</ele><time>2026-04-07T09:23:56.659Z</time></trkpt><trkpt lat="44.3576283" lon="9.21568"><ele>61.0</ele><time>2026-04-07T09:23:57.659Z</time></trkpt><trkpt lat="44.3575617" lon="9.2154717"><ele>55.666666666666664</ele><time>2026-04-07T09:23:58.659Z</time></trkpt><trkpt lat="44.35749" lon="9.215275"><ele>50.33333333333333</ele><time>2026-04-07T09:23:59.66Z</time></trkpt><trkpt lat="44.35745" lon="9.2150167"><ele>45.0</ele><time>2026-04-07T09:24:00.66Z</time></trkpt><trkpt lat="44.35766" lon="9.2145333"><ele>36.666666666666664</ele><time>2026-04-07T09:24:01.659Z</time></trkpt><trkpt lat="44.357675" lon="9.2143267"><ele>28.333333333333336</ele><time>2026-04-07T09:24:02.659Z</time></trkpt><trkpt lat="44.3576867" lon="9.213935"><ele>20.0</ele><time>2026-04-07T09:24:03.659Z</time></trkpt><trkpt lat="44.3577183" lon="9.2135533"><ele>13.0</ele><time>2026-04-07T09:24:04.66Z</time></trkpt><trkpt lat="44.3579733" lon="9.212945"><ele>13.0</ele><time>2026-04-07T09:24:05.659Z</time></trkpt><trkpt lat="44.35803" lon="9.21252"><ele>13.0</ele><time>2026-04-07T09:24:06.659Z</time></trkpt><trkpt lat="44.358095" lon="9.2121517"><ele>17.5</ele><time>2026-04-07T09:24:07.659Z</time></trkpt><trkpt lat="44.3581633" lon="9.2118033"><ele>22.0</ele><time>2026-04-07T09:24:08.659Z</time></trkpt><trkpt lat="44.35823" lon="9.2114483"><ele>25.0</ele><time>2026-04-07T09:24:09.659Z</time></trkpt><trkpt lat="44.358305" lon="9.2111083"><ele>28.0</ele><time>2026-04-07T09:24:10.659Z</time></trkpt><trkpt lat="44.35839" lon="9.2107767"><ele>25.0</ele><time>2026-04-07T09:24:11.659Z</time></trkpt><trkpt lat="44.3584817" lon="9.2104483"><ele>22.0</ele><time>2026-04-07T09:24:12.659Z</time></trkpt><trkpt lat="44.35857" lon="9.21012"><ele>23.0</ele><time>2026-04-07T09:24:13.659Z</time></trkpt><trkpt lat="44.3586583" lon="9.2097883"><ele>24.0</ele><time>2026-04-07T09:24:14.66Z</time></trkpt><trkpt lat="44.35875" lon="9.2094567"><ele>24.0</ele><time>2026-04-07T09:24:15.66Z</time></trkpt><trkpt lat="44.3588517" lon="9.2091283"><ele>24.0</ele><time>2026-04-07T09:24:16.659Z</time></trkpt><trkpt lat="44.3589567" lon="9.2087883"><ele>26.5</ele><time>2026-04-07T09:24:17.659Z</time></trkpt><trkpt lat="44.35906" lon="9.208455"><ele>29.0</ele><time>2026-04-07T09:24:18.659Z</time></trkpt><trkpt lat="44.3591617" lon="9.20812"><ele>33.0</ele><time>2026-04-07T09:24:19.66Z</time></trkpt><trkpt lat="44.3592617" lon="9.2077883"><ele>37.0</ele><time>2026-04-07T09:24:20.66Z</time></trkpt><trkpt lat="44.35936" lon="9.2074633"><ele>37.0</ele><time>2026-04-07T09:24:21.659Z</time></trkpt><trkpt lat="44.359455" lon="9.20714"><ele>37.0</ele><time>2026-04-07T09:24:22.659Z</time></trkpt><trkpt lat="44.35955" lon="9.206825"><ele>37.0</ele><time>2026-04-07T09:24:23.659Z</time></trkpt><trkpt lat="44.359645" lon="9.2065183"><ele>37.0</ele><time>2026-04-07T09:24:24.659Z</time></trkpt><trkpt lat="44.3597417" lon="9.206215"><ele>40.5</ele><time>2026-04-07T09:24:25.659Z</time></trkpt><trkpt lat="44.3598367" lon="9.2059133"><ele>44.0</ele><time>2026-04-07T09:24:26.659Z</time></trkpt><trkpt lat="44.3599233" lon="9.2056217"><ele>44.666666666666664</ele><time>2026-04-07T09:24:27.659Z</time></trkpt><trkpt lat="44.3600083" lon="9.2053333"><ele>45.333333333333336</ele><time>2026-04-07T09:24:28.659Z</time></trkpt><trkpt lat="44.3600833" lon="9.2050417"><ele>46.0</ele><time>2026-04-07T09:24:29.659Z</time></trkpt><trkpt lat="44.3601467" lon="9.20475"><ele>46.0</ele><time>2026-04-07T09:24:30.659Z</time></trkpt><trkpt lat="44.3602083" lon="9.2044517"><ele>46.0</ele><time>2026-04-07T09:24:31.66Z</time></trkpt><trkpt lat="44.3602617" lon="9.2041433"><ele>46.0</ele><time>2026-04-07T09:24:32.659Z</time></trkpt><trkpt lat="44.3603033" lon="9.2038283"><ele>46.0</ele><time>2026-04-07T09:24:33.659Z</time></trkpt><trkpt lat="44.3603333" lon="9.2035117"><ele>46.0</ele><time>2026-04-07T09:24:34.659Z</time></trkpt><trkpt lat="44.3603633" lon="9.2031967"><ele>47.0</ele><time>2026-04-07T09:24:35.659Z</time></trkpt><trkpt lat="44.3603833" lon="9.2028867"><ele>48.0</ele><time>2026-04-07T09:24:36.659Z</time></trkpt><trkpt lat="44.3604033" lon="9.2025767"><ele>49.0</ele><time>2026-04-07T09:24:37.659Z</time></trkpt><trkpt lat="44.36042" lon="9.2022767"><ele>49.666666666666664</ele><time>2026-04-07T09:24:38.659Z</time></trkpt><trkpt lat="44.3604367" lon="9.2019733"><ele>50.33333333333333</ele><time>2026-04-07T09:24:39.659Z</time></trkpt><trkpt lat="44.3604517" lon="9.20167"><ele>51.0</ele><time>2026-04-07T09:24:40.66Z</time></trkpt><trkpt lat="44.3604667" lon="9.2013717"><ele>51.33333333333333</ele><time>2026-04-07T09:24:41.659Z</time></trkpt><trkpt lat="44.3604867" lon="9.2010717"><ele>51.666666666666664</ele><time>2026-04-07T09:24:42.66Z</time></trkpt><trkpt lat="44.3605" lon="9.2007683"><ele>52.0</ele><time>2026-04-07T09:24:43.659Z</time></trkpt><trkpt lat="44.3605167" lon="9.200465"><ele>60.0</ele><time>2026-04-07T09:24:44.659Z</time></trkpt><trkpt lat="44.3605383" lon="9.2001567"><ele>68.0</ele><time>2026-04-07T09:24:45.659Z</time></trkpt><trkpt lat="44.3605633" lon="9.199845"><ele>76.0</ele><time>2026-04-07T09:24:46.659Z</time></trkpt><trkpt lat="44.360585" lon="9.1995483"><ele>76.33333333333333</ele><time>2026-04-07T09:24:47.659Z</time></trkpt><trkpt lat="44.36061" lon="9.1992567"><ele>76.66666666666667</ele><time>2026-04-07T09:24:48.659Z</time></trkpt><trkpt lat="44.360645" lon="9.1989633"><ele>77.0</ele><time>2026-04-07T09:24:49.659Z</time></trkpt><trkpt lat="44.3606867" lon="9.198675"><ele>77.0</ele><time>2026-04-07T09:24:50.659Z</time></trkpt><trkpt lat="44.3607433" lon="9.1983883"><ele>77.0</ele><time>2026-04-07T09:24:51.659Z</time></trkpt><trkpt lat="44.3608067" lon="9.1981017"><ele>77.0</ele><time>2026-04-07T09:24:52.659Z</time></trkpt><trkpt lat="44.3608733" lon="9.1978183"><ele>74.33333333333334</ele><time>2026-04-07T09:24:53.659Z</time></trkpt><trkpt lat="44.36094" lon="9.19754"><ele>71.66666666666667</ele><time>2026-04-07T09:24:54.659Z</time></trkpt><trkpt lat="44.3610117" lon="9.1972633"><ele>69.0</ele><time>2026-04-07T09:24:55.659Z</time></trkpt><trkpt lat="44.3610817" lon="9.1969817"><ele>68.33333333333333</ele><time>2026-04-07T09:24:56.659Z</time></trkpt><trkpt lat="44.3611467" lon="9.1966967"><ele>67.66666666666666</ele><time>2026-04-07T09:24:57.659Z</time></trkpt><trkpt lat="44.3612083" lon="9.1964133"><ele>67.0</ele><time>2026-04-07T09:24:58.66Z</time></trkpt><trkpt lat="44.3612633" lon="9.1961317"><ele>67.0</ele><time>2026-04-07T09:24:59.659Z</time></trkpt><trkpt lat="44.3613033" lon="9.1958583"><ele>67.0</ele><time>2026-04-07T09:25:00.66Z</time></trkpt><trkpt lat="44.3613333" lon="9.195605"><ele>67.0</ele><time>2026-04-07T09:25:01.659Z</time></trkpt><trkpt lat="44.3613617" lon="9.1953517"><ele>76.33333333333333</ele><time>2026-04-07T09:25:02.66Z</time></trkpt><trkpt lat="44.361385" lon="9.195095"><ele>85.66666666666667</ele><time>2026-04-07T09:25:03.659Z</time></trkpt><trkpt lat="44.3614033" lon="9.1948467"><ele>95.0</ele><time>2026-04-07T09:25:04.659Z</time></trkpt><trkpt lat="44.3614133" lon="9.194605"><ele>98.33333333333334</ele><time>2026-04-07T09:25:05.659Z</time></trkpt><trkpt lat="44.3614317" lon="9.1943817"><ele>101.66666666666667</ele><time>2026-04-07T09:25:06.659Z</time></trkpt><trkpt lat="44.3614483" lon="9.1941683"><ele>105.0</ele><time>2026-04-07T09:25:07.66Z</time></trkpt><trkpt lat="44.36147" lon="9.1939567"><ele>105.0</ele><time>2026-04-07T09:25:08.659Z</time></trkpt><trkpt lat="44.3614933" lon="9.1937517"><ele>105.0</ele><time>2026-04-07T09:25:09.659Z</time></trkpt><trkpt lat="44.361515" lon="9.193545"><ele>105.0</ele><time>2026-04-07T09:25:10.659Z</time></trkpt><trkpt lat="44.3615683" lon="9.1933433"><ele>96.66666666666667</ele><time>2026-04-07T09:25:11.659Z</time></trkpt><trkpt lat="44.361605" lon="9.1931333"><ele>88.33333333333334</ele><time>2026-04-07T09:25:12.66Z</time></trkpt><trkpt lat="44.36168" lon="9.19286"><ele>80.0</ele><time>2026-04-07T09:25:13.659Z</time></trkpt><trkpt lat="44.3617183" lon="9.1926083"><ele>80.0</ele><time>2026-04-07T09:25:14.659Z</time></trkpt><trkpt lat="44.361775" lon="9.192375"><ele>80.0</ele><time>2026-04-07T09:25:15.66Z</time></trkpt><trkpt lat="44.3618233" lon="9.1921333"><ele>80.0</ele><time>2026-04-07T09:25:16.659Z</time></trkpt><trkpt lat="44.3618667" lon="9.1918867"><ele>79.0</ele><time>2026-04-07T09:25:17.659Z</time></trkpt><trkpt lat="44.3619167" lon="9.191625"><ele>78.0</ele><time>2026-04-07T09:25:18.659Z</time></trkpt><trkpt lat="44.3619617" lon="9.1913533"><ele>77.0</ele><time>2026-04-07T09:25:19.659Z</time></trkpt><trkpt lat="44.3620167" lon="9.1910733"><ele>77.0</ele><time>2026-04-07T09:25:20.659Z</time></trkpt><trkpt lat="44.3620683" lon="9.1907783"><ele>77.0</ele><time>2026-04-07T09:25:21.659Z</time></trkpt><trkpt lat="44.3621183" lon="9.1904783"><ele>77.0</ele><time>2026-04-07T09:25:22.659Z</time></trkpt><trkpt lat="44.36217" lon="9.19017"><ele>95.0</ele><time>2026-04-07T09:25:23.659Z</time></trkpt><trkpt lat="44.36222" lon="9.18986"><ele>113.0</ele><time>2026-04-07T09:25:24.659Z</time></trkpt><trkpt lat="44.36227" lon="9.1895467"><ele>113.0</ele><time>2026-04-07T09:25:25.66Z</time></trkpt><trkpt lat="44.3623217" lon="9.189235"><ele>113.0</ele><time>2026-04-07T09:25:26.66Z</time></trkpt><trkpt lat="44.3623767" lon="9.1889267"><ele>109.0</ele><time>2026-04-07T09:25:27.659Z</time></trkpt><trkpt lat="44.362435" lon="9.1886183"><ele>105.0</ele><time>2026-04-07T09:25:28.659Z</time></trkpt><trkpt lat="44.3624867" lon="9.1883167"><ele>104.33333333333334</ele><time>2026-04-07T09:25:29.659Z</time></trkpt><trkpt lat="44.362535" lon="9.1880217"><ele>103.66666666666667</ele><time>2026-04-07T09:25:30.66Z</time></trkpt><trkpt lat="44.362585" lon="9.1877267"><ele>103.0</ele><time>2026-04-07T09:25:31.659Z</time></trkpt><trkpt lat="44.3626367" lon="9.1874217"><ele>102.5</ele><time>2026-04-07T09:25:32.659Z</time></trkpt><trkpt lat="44.3626883" lon="9.1871167"><ele>102.0</ele><time>2026-04-07T09:25:33.659Z</time></trkpt><trkpt lat="44.3627483" lon="9.1868117"><ele>104.5</ele><time>2026-04-07T09:25:34.659Z</time></trkpt><trkpt lat="44.36282" lon="9.1865067"><ele>107.0</ele><time>2026-04-07T09:25:35.659Z</time></trkpt><trkpt lat="44.362895" lon="9.1862133"><ele>107.0</ele><time>2026-04-07T09:25:36.659Z</time></trkpt><trkpt lat="44.3629817" lon="9.1859283"><ele>107.0</ele><time>2026-04-07T09:25:37.66Z</time></trkpt><trkpt lat="44.3630817" lon="9.18565"><ele>107.0</ele><time>2026-04-07T09:25:38.659Z</time></trkpt><trkpt lat="44.363195" lon="9.1853833"><ele>111.33333333333333</ele><time>2026-04-07T09:25:39.659Z</time></trkpt><trkpt lat="44.36332" lon="9.1851267"><ele>115.66666666666666</ele><time>2026-04-07T09:25:40.659Z</time></trkpt><trkpt lat="44.363445" lon="9.18488"><ele>120.0</ele><time>2026-04-07T09:25:41.659Z</time></trkpt><trkpt lat="44.363565" lon="9.1846467"><ele>121.0</ele><time>2026-04-07T09:25:42.659Z</time></trkpt><trkpt lat="44.3636833" lon="9.184425"><ele>122.0</ele><time>2026-04-07T09:25:43.659Z</time></trkpt><trkpt lat="44.363795" lon="9.1842067"><ele>123.0</ele><time>2026-04-07T09:25:44.659Z</time></trkpt><trkpt lat="44.3639017" lon="9.18399"><ele>126.33333333333334</ele><time>2026-04-07T09:25:45.659Z</time></trkpt><trkpt lat="44.364" lon="9.183775"><ele>129.66666666666669</ele><time>2026-04-07T09:25:46.659Z</time></trkpt><trkpt lat="44.3640983" lon="9.18355"><ele>133.0</ele><time>2026-04-07T09:25:47.659Z</time></trkpt><trkpt lat="44.364185" lon="9.1833233"><ele>141.33333333333334</ele><time>2026-04-07T09:25:48.659Z</time></trkpt><trkpt lat="44.3642617" lon="9.1830933"><ele>149.66666666666666</ele><time>2026-04-07T09:25:49.659Z</time></trkpt><trkpt lat="44.3643483" lon="9.1828417"><ele>158.0</ele><time>2026-04-07T09:25:50.659Z</time></trkpt><trkpt lat="44.3644133" lon="9.18259"><ele>172.33333333333331</ele><time>2026-04-07T09:25:51.659Z</time></trkpt><trkpt lat="44.3644733" lon="9.1823433"><ele>186.66666666666666</ele><time>2026-04-07T09:25:52.659Z</time></trkpt><trkpt lat="44.36456" lon="9.1821367"><ele>201.0</ele><time>2026-04-07T09:25:53.659Z</time></trkpt><trkpt lat="44.3646333" lon="9.181905"><ele>204.66666666666669</ele><time>2026-04-07T09:25:54.659Z</time></trkpt><trkpt lat="44.3647067" lon="9.18168"><ele>208.33333333333334</ele><time>2026-04-07T09:25:55.659Z</time></trkpt><trkpt lat="44.3647533" lon="9.1814583"><ele>212.0</ele><time>2026-04-07T09:25:56.659Z</time></trkpt><trkpt lat="44.364805" lon="9.1812267"><ele>212.0</ele><time>2026-04-07T09:25:57.659Z</time></trkpt><trkpt lat="44.36487" lon="9.18099"><ele>212.0</ele><time>2026-04-07T09:25:58.659Z</time></trkpt><trkpt lat="44.36494" lon="9.180745"><ele>212.0</ele><time>2026-04-07T09:25:59.659Z</time></trkpt><trkpt lat="44.365005" lon="9.1805017"><ele>226.0</ele><time>2026-04-07T09:26:00.659Z</time></trkpt><trkpt lat="44.365065" lon="9.1802533"><ele>240.0</ele><time>2026-04-07T09:26:01.659Z</time></trkpt><trkpt lat="44.3651317" lon="9.179995"><ele>254.0</ele><time>2026-04-07T09:26:02.66Z</time></trkpt><trkpt lat="44.3652083" lon="9.1797533"><ele>144.0</ele><time>2026-04-07T09:26:03.659Z</time></trkpt><trkpt lat="44.3690017" lon="9.1608367"><ele>137.5</ele><time>2026-04-07T09:27:05.66Z</time></trkpt><trkpt lat="44.369055" lon="9.160325"><ele>131.0</ele><time>2026-04-07T09:27:06.659Z</time></trkpt><trkpt lat="44.369095" lon="9.159935"><ele>125.5</ele><time>2026-04-07T09:27:07.659Z</time></trkpt><trkpt lat="44.3691367" lon="9.159605"><ele>120.0</ele><time>2026-04-07T09:27:08.659Z</time></trkpt><trkpt lat="44.3691767" lon="9.1592983"><ele>118.33333333333334</ele><time>2026-04-07T09:27:09.659Z</time></trkpt><trkpt lat="44.3692183" lon="9.1589917"><ele>116.66666666666667</ele><time>2026-04-07T09:27:10.659Z</time></trkpt><trkpt lat="44.3692583" lon="9.1586817"><ele>115.0</ele><time>2026-04-07T09:27:11.659Z</time></trkpt><trkpt lat="44.3693017" lon="9.15837"><ele>109.0</ele><time>2026-04-07T09:27:12.659Z</time></trkpt><trkpt lat="44.3693483" lon="9.1580583"><ele>103.0</ele><time>2026-04-07T09:27:13.659Z</time></trkpt><trkpt lat="44.3693917" lon="9.1577483"><ele>103.0</ele><time>2026-04-07T09:27:14.66Z</time></trkpt><trkpt lat="44.3694367" lon="9.15744"><ele>103.0</ele><time>2026-04-07T09:27:15.659Z</time></trkpt><trkpt lat="44.3694917" lon="9.157135"><ele>94.0</ele><time>2026-04-07T09:27:16.659Z</time></trkpt><trkpt lat="44.3695467" lon="9.1568233"><ele>85.0</ele><time>2026-04-07T09:27:17.659Z</time></trkpt><trkpt lat="44.36961" lon="9.15651"><ele>80.0</ele><time>2026-04-07T09:27:18.659Z</time></trkpt><trkpt lat="44.3696883" lon="9.1562033"><ele>75.0</ele><time>2026-04-07T09:27:19.659Z</time></trkpt><trkpt lat="44.3697817" lon="9.1558967"><ele>91.0</ele><time>2026-04-07T09:27:20.659Z</time></trkpt><trkpt lat="44.369885" lon="9.155595"><ele>107.0</ele><time>2026-04-07T09:27:21.659Z</time></trkpt><trkpt lat="44.3700067" lon="9.1553033"><ele>107.0</ele><time>2026-04-07T09:27:22.66Z</time></trkpt><trkpt lat="44.3701417" lon="9.1550233"><ele>107.0</ele><time>2026-04-07T09:27:23.659Z</time></trkpt><trkpt lat="44.370295" lon="9.154755"><ele>109.5</ele><time>2026-04-07T09:27:24.659Z</time></trkpt><trkpt lat="44.3704617" lon="9.1545067"><ele>112.0</ele><time>2026-04-07T09:27:25.659Z</time></trkpt><trkpt lat="44.37064" lon="9.154275"><ele>112.0</ele><time>2026-04-07T09:27:26.659Z</time></trkpt><trkpt lat="44.3708267" lon="9.1540583"><ele>112.0</ele><time>2026-04-07T09:27:27.659Z</time></trkpt><trkpt lat="44.3710267" lon="9.15387"><ele>99.5</ele><time>2026-04-07T09:27:28.66Z</time></trkpt><trkpt lat="44.371225" lon="9.15369"><ele>87.0</ele><time>2026-04-07T09:27:29.659Z</time></trkpt><trkpt lat="44.3714317" lon="9.1535217"><ele>87.0</ele><time>2026-04-07T09:27:30.659Z</time></trkpt><trkpt lat="44.3716417" lon="9.1533667"><ele>87.0</ele><time>2026-04-07T09:27:31.659Z</time></trkpt><trkpt lat="44.3718583" lon="9.153205"><ele>72.5</ele><time>2026-04-07T09:27:32.659Z</time></trkpt><trkpt lat="44.3720733" lon="9.1530417"><ele>58.0</ele><time>2026-04-07T09:27:33.659Z</time></trkpt><trkpt lat="44.3722867" lon="9.1528817"><ele>58.0</ele><time>2026-04-07T09:27:34.659Z</time></trkpt><trkpt lat="44.3724933" lon="9.1527017"><ele>58.0</ele><time>2026-04-07T09:27:35.659Z</time></trkpt><trkpt lat="44.3726917" lon="9.1525083"><ele>43.5</ele><time>2026-04-07T09:27:36.659Z</time></trkpt><trkpt lat="44.3728867" lon="9.1523117"><ele>29.0</ele><time>2026-04-07T09:27:37.659Z</time></trkpt><trkpt lat="44.3730767" lon="9.1521033"><ele>29.0</ele><time>2026-04-07T09:27:38.659Z</time></trkpt><trkpt lat="44.3732617" lon="9.1518833"><ele>29.0</ele><time>2026-04-07T09:27:39.659Z</time></trkpt><trkpt lat="44.3734383" lon="9.1516483"><ele>27.0</ele><time>2026-04-07T09:27:40.659Z</time></trkpt><trkpt lat="44.3736083" lon="9.1514033"><ele>25.0</ele><time>2026-04-07T09:27:41.659Z</time></trkpt><trkpt lat="44.3737783" lon="9.151145"><ele>22.0</ele><time>2026-04-07T09:27:42.659Z</time></trkpt><trkpt lat="44.373945" lon="9.150875"><ele>19.0</ele><time>2026-04-07T09:27:43.659Z</time></trkpt><trkpt lat="44.374105" lon="9.1506"><ele>25.5</ele><time>2026-04-07T09:27:44.659Z</time></trkpt><trkpt lat="44.3742567" lon="9.150315"><ele>32.0</ele><time>2026-04-07T09:27:45.659Z</time></trkpt><trkpt lat="44.3744017" lon="9.1500217"><ele>42.0</ele><time>2026-04-07T09:27:46.659Z</time></trkpt><trkpt lat="44.37454" lon="9.1497233"><ele>52.0</ele><time>2026-04-07T09:27:47.659Z</time></trkpt><trkpt lat="44.37467" lon="9.14942"><ele>59.0</ele><time>2026-04-07T09:27:48.659Z</time></trkpt><trkpt lat="44.3748" lon="9.1491133"><ele>66.0</ele><time>2026-04-07T09:27:49.659Z</time></trkpt><trkpt lat="44.374925" lon="9.1488083"><ele>78.5</ele><time>2026-04-07T09:27:50.659Z</time></trkpt><trkpt lat="44.375055" lon="9.1485033"><ele>91.0</ele><time>2026-04-07T09:27:51.659Z</time></trkpt><trkpt lat="44.3751917" lon="9.1481983"><ele>100.5</ele><time>2026-04-07T09:27:52.659Z</time></trkpt><trkpt lat="44.3753367" lon="9.147895"><ele>110.0</ele><time>2026-04-07T09:27:53.659Z</time></trkpt><trkpt lat="44.3754883" lon="9.1475917"><ele>104.5</ele><time>2026-04-07T09:27:54.659Z</time></trkpt><trkpt lat="44.3756417" lon="9.1472917"><ele>99.0</ele><time>2026-04-07T09:27:55.659Z</time></trkpt><trkpt lat="44.3758033" lon="9.1469983"><ele>99.0</ele><time>2026-04-07T09:27:56.659Z</time></trkpt><trkpt lat="44.375965" lon="9.146715"><ele>99.0</ele><time>2026-04-07T09:27:57.659Z</time></trkpt><trkpt lat="44.3761267" lon="9.146435"><ele>93.0</ele><time>2026-04-07T09:27:58.659Z</time></trkpt><trkpt lat="44.3762883" lon="9.14615"><ele>87.0</ele><time>2026-04-07T09:27:59.659Z</time></trkpt><trkpt lat="44.3764417" lon="9.1458683"><ele>99.5</ele><time>2026-04-07T09:28:00.659Z</time></trkpt><trkpt lat="44.376585" lon="9.1455783"><ele>112.0</ele><time>2026-04-07T09:28:01.659Z</time></trkpt><trkpt lat="44.3767167" lon="9.145285"><ele>112.0</ele><time>2026-04-07T09:28:02.659Z</time></trkpt><trkpt lat="44.376835" lon="9.1449817"><ele>112.0</ele><time>2026-04-07T09:28:03.659Z</time></trkpt><trkpt lat="44.3769467" lon="9.14467"><ele>115.0</ele><time>2026-04-07T09:28:04.659Z</time></trkpt><trkpt lat="44.377045" lon="9.1443433"><ele>118.0</ele><time>2026-04-07T09:28:05.659Z</time></trkpt><trkpt lat="44.3771283" lon="9.1440083"><ele>115.0</ele><time>2026-04-07T09:28:06.66Z</time></trkpt><trkpt lat="44.3771983" lon="9.14367"><ele>112.0</ele><time>2026-04-07T09:28:07.66Z</time></trkpt><trkpt lat="44.377255" lon="9.1433267"><ele>118.5</ele><time>2026-04-07T09:28:08.659Z</time></trkpt><trkpt lat="44.377295" lon="9.142985"><ele>125.0</ele><time>2026-04-07T09:28:09.659Z</time></trkpt><trkpt lat="44.3773233" lon="9.14264"><ele>136.0</ele><time>2026-04-07T09:28:10.659Z</time></trkpt><trkpt lat="44.37735" lon="9.1422967"><ele>147.0</ele><time>2026-04-07T09:28:11.66Z</time></trkpt><trkpt lat="44.377375" lon="9.1419617"><ele>147.0</ele><time>2026-04-07T09:28:12.659Z</time></trkpt><trkpt lat="44.3774083" lon="9.141625"><ele>147.0</ele><time>2026-04-07T09:28:13.659Z</time></trkpt><trkpt lat="44.3774717" lon="9.1413017"><ele>154.5</ele><time>2026-04-07T09:28:14.659Z</time></trkpt><trkpt lat="44.3775283" lon="9.140985"><ele>162.0</ele><time>2026-04-07T09:28:15.659Z</time></trkpt><trkpt lat="44.3775867" lon="9.1406667"><ele>167.66666666666666</ele><time>2026-04-07T09:28:16.659Z</time></trkpt><trkpt lat="44.3776467" lon="9.1403567"><ele>173.33333333333331</ele><time>2026-04-07T09:28:17.659Z</time></trkpt><trkpt lat="44.37772" lon="9.1400767"><ele>179.0</ele><time>2026-04-07T09:28:18.66Z</time></trkpt><trkpt lat="44.377775" lon="9.139765"><ele>186.0</ele><time>2026-04-07T09:28:19.66Z</time></trkpt><trkpt lat="44.3778183" lon="9.1394383"><ele>193.0</ele><time>2026-04-07T09:28:20.659Z</time></trkpt><trkpt lat="44.377825" lon="9.13906"><ele>199.5</ele><time>2026-04-07T09:28:21.659Z</time></trkpt><trkpt lat="44.3778333" lon="9.13868"><ele>206.0</ele><time>2026-04-07T09:28:22.659Z</time></trkpt><trkpt lat="44.3795617" lon="9.1173282"><ele>183.5</ele><time>2026-04-07T09:29:36.659Z</time></trkpt><trkpt lat="44.3795995" lon="9.1169915"><ele>161.0</ele><time>2026-04-07T09:29:37.659Z</time></trkpt><trkpt lat="44.379626" lon="9.1166269"><ele>161.0</ele><time>2026-04-07T09:29:38.659Z</time></trkpt><trkpt lat="44.3796425" lon="9.1162505"><ele>161.0</ele><time>2026-04-07T09:29:39.659Z</time></trkpt><trkpt lat="44.3796598" lon="9.1158803"><ele>163.5</ele><time>2026-04-07T09:29:40.659Z</time></trkpt><trkpt lat="44.3796722" lon="9.1155006"><ele>166.0</ele><time>2026-04-07T09:29:41.659Z</time></trkpt><trkpt lat="44.3796897" lon="9.1151152"><ele>144.5</ele><time>2026-04-07T09:29:42.659Z</time></trkpt><trkpt lat="44.3797068" lon="9.1147212"><ele>123.0</ele><time>2026-04-07T09:29:43.659Z</time></trkpt><trkpt lat="44.379724" lon="9.1143242"><ele>121.0</ele><time>2026-04-07T09:29:44.659Z</time></trkpt><trkpt lat="44.3797501" lon="9.1139281"><ele>119.0</ele><time>2026-04-07T09:29:45.659Z</time></trkpt><trkpt lat="44.3797825" lon="9.1135345"><ele>121.5</ele><time>2026-04-07T09:29:46.659Z</time></trkpt><trkpt lat="44.379817" lon="9.1131496"><ele>124.0</ele><time>2026-04-07T09:29:47.659Z</time></trkpt><trkpt lat="44.3798454" lon="9.1127774"><ele>124.0</ele><time>2026-04-07T09:29:48.659Z</time></trkpt><trkpt lat="44.3798733" lon="9.1124164"><ele>124.0</ele><time>2026-04-07T09:29:49.659Z</time></trkpt><trkpt lat="44.379899" lon="9.1120581"><ele>124.0</ele><time>2026-04-07T09:29:50.659Z</time></trkpt><trkpt lat="44.3799315" lon="9.1116866"><ele>124.0</ele><time>2026-04-07T09:29:51.66Z</time></trkpt><trkpt lat="44.3799636" lon="9.1113039"><ele>110.0</ele><time>2026-04-07T09:29:52.659Z</time></trkpt><trkpt lat="44.379997" lon="9.1109209"><ele>96.0</ele><time>2026-04-07T09:29:53.659Z</time></trkpt><trkpt lat="44.3800369" lon="9.1105363"><ele>78.5</ele><time>2026-04-07T09:29:54.659Z</time></trkpt><trkpt lat="44.3800788" lon="9.1101526"><ele>61.0</ele><time>2026-04-07T09:29:55.659Z</time></trkpt><trkpt lat="44.3801201" lon="9.1097718"><ele>52.0</ele><time>2026-04-07T09:29:56.659Z</time></trkpt><trkpt lat="44.3801593" lon="9.1093958"><ele>43.0</ele><time>2026-04-07T09:29:57.659Z</time></trkpt><trkpt lat="44.3801952" lon="9.1090235"><ele>43.0</ele><time>2026-04-07T09:29:58.659Z</time></trkpt><trkpt lat="44.3802259" lon="9.1086535"><ele>43.0</ele><time>2026-04-07T09:29:59.66Z</time></trkpt><trkpt lat="44.3802563" lon="9.1082878"><ele>57.0</ele><time>2026-04-07T09:30:00.659Z</time></trkpt><trkpt lat="44.3802849" lon="9.1079256"><ele>71.0</ele><time>2026-04-07T09:30:01.659Z</time></trkpt><trkpt lat="44.3803158" lon="9.1075667"><ele>86.5</ele><time>2026-04-07T09:30:02.66Z</time></trkpt><trkpt lat="44.3803543" lon="9.1072138"><ele>102.0</ele><time>2026-04-07T09:30:03.659Z</time></trkpt><trkpt lat="44.3804092" lon="9.1068655"><ele>113.5</ele><time>2026-04-07T09:30:04.659Z</time></trkpt><trkpt lat="44.3804827" lon="9.1065223"><ele>125.0</ele><time>2026-04-07T09:30:05.659Z</time></trkpt><trkpt lat="44.3805774" lon="9.1061804"><ele>125.0</ele><time>2026-04-07T09:30:06.659Z</time></trkpt><trkpt lat="44.3806916" lon="9.1058429"><ele>125.0</ele><time>2026-04-07T09:30:07.659Z</time></trkpt><trkpt lat="44.3808206" lon="9.105516"><ele>133.5</ele><time>2026-04-07T09:30:08.66Z</time></trkpt><trkpt lat="44.3809675" lon="9.1052077"><ele>142.0</ele><time>2026-04-07T09:30:09.659Z</time></trkpt><trkpt lat="44.3811353" lon="9.1049131"><ele>138.5</ele><time>2026-04-07T09:30:10.659Z</time></trkpt><trkpt lat="44.3813176" lon="9.1046358"><ele>135.0</ele><time>2026-04-07T09:30:11.659Z</time></trkpt><trkpt lat="44.3815083" lon="9.1043835"><ele>135.0</ele><time>2026-04-07T09:30:12.659Z</time></trkpt><trkpt lat="44.3817143" lon="9.1041594"><ele>135.0</ele><time>2026-04-07T09:30:13.659Z</time></trkpt><trkpt lat="44.3819303" lon="9.1039566"><ele>141.5</ele><time>2026-04-07T09:30:14.659Z</time></trkpt><trkpt lat="44.3821543" lon="9.103775"><ele>148.0</ele><time>2026-04-07T09:30:15.659Z</time></trkpt><trkpt lat="44.3823783" lon="9.1036032"><ele>148.0</ele><time>2026-04-07T09:30:16.659Z</time></trkpt><trkpt lat="44.3825977" lon="9.1034328"><ele>148.0</ele><time>2026-04-07T09:30:17.659Z</time></trkpt><trkpt lat="44.3828154" lon="9.1032615"><ele>152.0</ele><time>2026-04-07T09:30:18.659Z</time></trkpt><trkpt lat="44.3830297" lon="9.1030834"><ele>156.0</ele><time>2026-04-07T09:30:19.66Z</time></trkpt><trkpt lat="44.3832379" lon="9.1028936"><ele>156.0</ele><time>2026-04-07T09:30:20.659Z</time></trkpt><trkpt lat="44.3834448" lon="9.1026933"><ele>156.0</ele><time>2026-04-07T09:30:21.659Z</time></trkpt><trkpt lat="44.3836477" lon="9.1024795"><ele>147.5</ele><time>2026-04-07T09:30:22.659Z</time></trkpt><trkpt lat="44.3838406" lon="9.1022557"><ele>139.0</ele><time>2026-04-07T09:30:23.659Z</time></trkpt><trkpt lat="44.3840244" lon="9.1020172"><ele>139.0</ele><time>2026-04-07T09:30:24.659Z</time></trkpt><trkpt lat="44.3842003" lon="9.1017679"><ele>139.0</ele><time>2026-04-07T09:30:25.659Z</time></trkpt><trkpt lat="44.3843758" lon="9.1015061"><ele>137.5</ele><time>2026-04-07T09:30:26.659Z</time></trkpt><trkpt lat="44.384545" lon="9.1012319"><ele>136.0</ele><time>2026-04-07T09:30:27.659Z</time></trkpt><trkpt lat="44.3847104" lon="9.1009591"><ele>151.0</ele><time>2026-04-07T09:30:28.659Z</time></trkpt><trkpt lat="44.3848736" lon="9.1006944"><ele>166.0</ele><time>2026-04-07T09:30:29.659Z</time></trkpt><trkpt lat="44.3850309" lon="9.1004418"><ele>166.0</ele><time>2026-04-07T09:30:30.659Z</time></trkpt><trkpt lat="44.3851842" lon="9.1001962"><ele>166.0</ele><time>2026-04-07T09:30:31.66Z</time></trkpt><trkpt lat="44.3853353" lon="9.099959"><ele>173.66666666666669</ele><time>2026-04-07T09:30:32.659Z</time></trkpt><trkpt lat="44.3854847" lon="9.0997303"><ele>181.33333333333334</ele><time>2026-04-07T09:30:33.659Z</time></trkpt><trkpt lat="44.3856352" lon="9.0995043"><ele>189.0</ele><time>2026-04-07T09:30:34.658Z</time></trkpt><trkpt lat="44.3857765" lon="9.0992747"><ele>181.33333333333334</ele><time>2026-04-07T09:30:35.658Z</time></trkpt><trkpt lat="44.3859121" lon="9.099042"><ele>173.66666666666669</ele><time>2026-04-07T09:30:36.658Z</time></trkpt><trkpt lat="44.386032" lon="9.0988086"><ele>166.0</ele><time>2026-04-07T09:30:37.658Z</time></trkpt><trkpt lat="44.3861448" lon="9.0985802"><ele>166.0</ele><time>2026-04-07T09:30:38.658Z</time></trkpt><trkpt lat="44.386243" lon="9.0983469"><ele>166.0</ele><time>2026-04-07T09:30:39.658Z</time></trkpt><trkpt lat="44.3863318" lon="9.0980999"><ele>166.0</ele><time>2026-04-07T09:30:40.658Z</time></trkpt><trkpt lat="44.3864219" lon="9.0978467"><ele>181.66666666666669</ele><time>2026-04-07T09:30:41.658Z</time></trkpt><trkpt lat="44.3865124" lon="9.0975956"><ele>197.33333333333334</ele><time>2026-04-07T09:30:42.658Z</time></trkpt><trkpt lat="44.3865909" lon="9.0973398"><ele>213.0</ele><time>2026-04-07T09:30:43.658Z</time></trkpt><trkpt lat="44.3866658" lon="9.0970929"><ele>222.33333333333331</ele><time>2026-04-07T09:30:44.658Z</time></trkpt><trkpt lat="44.3867478" lon="9.0968363"><ele>231.66666666666666</ele><time>2026-04-07T09:30:45.658Z</time></trkpt><trkpt lat="44.3868249" lon="9.0965774"><ele>241.0</ele><time>2026-04-07T09:30:46.658Z</time></trkpt><trkpt lat="44.3868967" lon="9.09632"><ele>252.0</ele><time>2026-04-07T09:30:47.658Z</time></trkpt><trkpt lat="44.3869767" lon="9.0960783"><ele>263.0</ele><time>2026-04-07T09:30:48.658Z</time></trkpt><trkpt lat="44.38851" lon="9.097395"><ele>162.0</ele><time>2026-04-07T09:30:49.658Z</time></trkpt><trkpt lat="44.3896367" lon="9.09853"><ele>162.0</ele><time>2026-04-07T09:30:50.658Z</time></trkpt><trkpt lat="44.389785" lon="9.09837"><ele>162.0</ele><time>2026-04-07T09:30:51.659Z</time></trkpt><trkpt lat="44.389655" lon="9.0982667"><ele>162.0</ele><time>2026-04-07T09:30:52.658Z</time></trkpt><trkpt lat="44.38952" lon="9.0816483"><ele>147.0</ele><time>2026-04-07T09:31:31.658Z</time></trkpt><trkpt lat="44.389535" lon="9.0812567"><ele>132.0</ele><time>2026-04-07T09:31:32.659Z</time></trkpt><trkpt lat="44.3895183" lon="9.0808583"><ele>139.0</ele><time>2026-04-07T09:31:33.659Z</time></trkpt><trkpt lat="44.3895017" lon="9.0804683"><ele>146.0</ele><time>2026-04-07T09:31:34.658Z</time></trkpt><trkpt lat="44.3894883" lon="9.0800867"><ele>150.0</ele><time>2026-04-07T09:31:35.658Z</time></trkpt><trkpt lat="44.38947" lon="9.07971"><ele>154.0</ele><time>2026-04-07T09:31:36.658Z</time></trkpt><trkpt lat="44.3894533" lon="9.0793267"><ele>157.5</ele><time>2026-04-07T09:31:37.659Z</time></trkpt><trkpt lat="44.3894367" lon="9.07894"><ele>161.0</ele><time>2026-04-07T09:31:38.658Z</time></trkpt><trkpt lat="44.3894183" lon="9.0785617"><ele>172.5</ele><time>2026-04-07T09:31:39.659Z</time></trkpt><trkpt lat="44.3893983" lon="9.0781817"><ele>184.0</ele><time>2026-04-07T09:31:40.658Z</time></trkpt><trkpt lat="44.3893783" lon="9.077805"><ele>201.0</ele><time>2026-04-07T09:31:41.658Z</time></trkpt><trkpt lat="44.3893583" lon="9.0774283"><ele>218.0</ele><time>2026-04-07T09:31:42.659Z</time></trkpt><trkpt lat="44.389335" lon="9.0770433"><ele>218.0</ele><time>2026-04-07T09:31:43.659Z</time></trkpt><trkpt lat="44.3893033" lon="9.0766733"><ele>218.0</ele><time>2026-04-07T09:31:44.658Z</time></trkpt><trkpt lat="44.389245" lon="9.0763"><ele>236.0</ele><time>2026-04-07T09:31:45.659Z</time></trkpt><trkpt lat="44.389135" lon="9.075925"><ele>254.0</ele><time>2026-04-07T09:31:46.658Z</time></trkpt><trkpt lat="44.3889767" lon="9.0755617"><ele>274.0</ele><time>2026-04-07T09:31:47.658Z</time></trkpt><trkpt lat="44.38892" lon="9.0751833"><ele>294.0</ele><time>2026-04-07T09:31:48.658Z</time></trkpt><trkpt lat="44.388855" lon="9.0748"><ele>263.0</ele><time>2026-04-07T09:31:49.659Z</time></trkpt><trkpt lat="44.3883483" lon="9.0736617"><ele>219.0</ele><time>2026-04-07T09:31:50.658Z</time></trkpt><trkpt lat="44.38775" lon="9.07244"><ele>164.0</ele><time>2026-04-07T09:31:51.658Z</time></trkpt><trkpt lat="44.38919" lon="9.0699933"><ele>171.0</ele><time>2026-04-07T09:32:03.658Z</time></trkpt><trkpt lat="44.3890533" lon="9.0695117"><ele>178.0</ele><time>2026-04-07T09:32:04.658Z</time></trkpt><trkpt lat="44.3890067" lon="9.069145"><ele>187.0</ele><time>2026-04-07T09:32:05.658Z</time></trkpt><trkpt lat="44.38898" lon="9.0687917"><ele>196.0</ele><time>2026-04-07T09:32:06.658Z</time></trkpt><trkpt lat="44.38897" lon="9.0684217"><ele>196.5</ele><time>2026-04-07T09:32:07.659Z</time></trkpt><trkpt lat="44.3889717" lon="9.06807"><ele>197.0</ele><time>2026-04-07T09:32:08.658Z</time></trkpt><trkpt lat="44.3889833" lon="9.0677183"><ele>210.5</ele><time>2026-04-07T09:32:09.659Z</time></trkpt><trkpt lat="44.38901" lon="9.0673567"><ele>224.0</ele><time>2026-04-07T09:32:10.658Z</time></trkpt><trkpt lat="44.38902" lon="9.0669917"><ele>224.0</ele><time>2026-04-07T09:32:11.659Z</time></trkpt><trkpt lat="44.3890617" lon="9.0666283"><ele>224.0</ele><time>2026-04-07T09:32:12.658Z</time></trkpt><trkpt lat="44.3891017" lon="9.0662517"><ele>243.5</ele><time>2026-04-07T09:32:13.658Z</time></trkpt><trkpt lat="44.3891433" lon="9.0658783"><ele>263.0</ele><time>2026-04-07T09:32:14.659Z</time></trkpt><trkpt lat="44.3891933" lon="9.06549"><ele>271.5</ele><time>2026-04-07T09:32:15.658Z</time></trkpt><trkpt lat="44.3892483" lon="9.065105"><ele>280.0</ele><time>2026-04-07T09:32:16.658Z</time></trkpt><trkpt lat="44.3893033" lon="9.0647233"><ele>289.0</ele><time>2026-04-07T09:32:17.659Z</time></trkpt><trkpt lat="44.389375" lon="9.064335"><ele>298.0</ele><time>2026-04-07T09:32:18.658Z</time></trkpt><trkpt lat="44.38943" lon="9.063955"><ele>299.5</ele><time>2026-04-07T09:32:19.658Z</time></trkpt><trkpt lat="44.389485" lon="9.0635783"><ele>301.0</ele><time>2026-04-07T09:32:20.658Z</time></trkpt><trkpt lat="44.3895267" lon="9.06321"><ele>304.0</ele><time>2026-04-07T09:32:21.658Z</time></trkpt><trkpt lat="44.3895983" lon="9.0628833"><ele>307.0</ele><time>2026-04-07T09:32:22.658Z</time></trkpt><trkpt lat="44.38968" lon="9.062585"><ele>335.5</ele><time>2026-04-07T09:32:23.658Z</time></trkpt><trkpt lat="44.3897333" lon="9.062225"><ele>364.0</ele><time>2026-04-07T09:32:24.659Z</time></trkpt><trkpt lat="44.3927182" lon="9.0455342"><ele>294.0</ele><time>2026-04-07T09:33:00.302Z</time></trkpt><trkpt lat="44.3927965" lon="9.0456769"><ele>224.0</ele><time>2026-04-07T09:33:06.658Z</time></trkpt><trkpt lat="44.3927765" lon="9.0453854"><ele>154.0</ele><time>2026-04-07T09:33:07.896Z</time></trkpt><trkpt lat="44.3928247" lon="9.045886"><ele>154.0</ele><time>2026-04-07T09:33:08.885Z</time></trkpt><trkpt lat="44.3928662" lon="9.0461711"><ele>154.0</ele><time>2026-04-07T09:33:09.9Z</time></trkpt><trkpt lat="44.3927465" lon="9.0439644"><ele>120.5</ele><time>2026-04-07T09:33:11.658Z</time></trkpt><trkpt lat="44.392729" lon="9.0435865"><ele>87.0</ele><time>2026-04-07T09:33:12.658Z</time></trkpt><trkpt lat="44.3927147" lon="9.0432294"><ele>76.5</ele><time>2026-04-07T09:33:13.658Z</time></trkpt><trkpt lat="44.3926948" lon="9.0428929"><ele>66.0</ele><time>2026-04-07T09:33:14.658Z</time></trkpt><trkpt lat="44.3926747" lon="9.0425635"><ele>62.5</ele><time>2026-04-07T09:33:15.658Z</time></trkpt><trkpt lat="44.3926519" lon="9.0422351"><ele>59.0</ele><time>2026-04-07T09:33:16.658Z</time></trkpt><trkpt lat="44.3926306" lon="9.0419069"><ele>65.0</ele><time>2026-04-07T09:33:17.658Z</time></trkpt><trkpt lat="44.3926077" lon="9.0415776"><ele>71.0</ele><time>2026-04-07T09:33:18.658Z</time></trkpt><trkpt lat="44.3925856" lon="9.0412491"><ele>71.0</ele><time>2026-04-07T09:33:19.658Z</time></trkpt><trkpt lat="44.3925638" lon="9.0409263"><ele>71.0</ele><time>2026-04-07T09:33:20.658Z</time></trkpt><trkpt lat="44.3925422" lon="9.0406087"><ele>95.5</ele><time>2026-04-07T09:33:21.658Z</time></trkpt><trkpt lat="44.3925205" lon="9.040288"><ele>120.0</ele><time>2026-04-07T09:33:22.658Z</time></trkpt><trkpt lat="44.3925012" lon="9.0399598"><ele>131.0</ele><time>2026-04-07T09:33:23.659Z</time></trkpt><trkpt lat="44.392485" lon="9.0396233"><ele>142.0</ele><time>2026-04-07T09:33:24.658Z</time></trkpt><trkpt lat="44.3924721" lon="9.0392833"><ele>149.5</ele><time>2026-04-07T09:33:25.658Z</time></trkpt><trkpt lat="44.3924639" lon="9.0389414"><ele>157.0</ele><time>2026-04-07T09:33:26.658Z</time></trkpt><trkpt lat="44.3924606" lon="9.0386021"><ele>173.5</ele><time>2026-04-07T09:33:27.659Z</time></trkpt><trkpt lat="44.3924645" lon="9.0382649"><ele>190.0</ele><time>2026-04-07T09:33:28.658Z</time></trkpt><trkpt lat="44.3924664" lon="9.0379319"><ele>190.0</ele><time>2026-04-07T09:33:29.659Z</time></trkpt><trkpt lat="44.3924699" lon="9.0375999"><ele>190.0</ele><time>2026-04-07T09:33:30.658Z</time></trkpt><trkpt lat="44.392476" lon="9.0372645"><ele>192.5</ele><time>2026-04-07T09:33:31.658Z</time></trkpt><trkpt lat="44.3924889" lon="9.036922"><ele>195.0</ele><time>2026-04-07T09:33:32.658Z</time></trkpt><trkpt lat="44.3925076" lon="9.0365648"><ele>186.0</ele><time>2026-04-07T09:33:33.658Z</time></trkpt><trkpt lat="44.3925254" lon="9.0362098"><ele>177.0</ele><time>2026-04-07T09:33:34.658Z</time></trkpt><trkpt lat="44.3925476" lon="9.0358569"><ele>165.0</ele><time>2026-04-07T09:33:35.659Z</time></trkpt><trkpt lat="44.3925668" lon="9.0355062"><ele>153.0</ele><time>2026-04-07T09:33:36.658Z</time></trkpt><trkpt lat="44.3925855" lon="9.0351548"><ele>153.33333333333334</ele><time>2026-04-07T09:33:37.658Z</time></trkpt><trkpt lat="44.392592" lon="9.0348433"><ele>153.66666666666669</ele><time>2026-04-07T09:33:38.659Z</time></trkpt><trkpt lat="44.3925411" lon="9.0345947"><ele>154.0</ele><time>2026-04-07T09:33:39.658Z</time></trkpt><trkpt lat="44.3925212" lon="9.0343091"><ele>159.33333333333334</ele><time>2026-04-07T09:33:40.658Z</time></trkpt><trkpt lat="44.3925174" lon="9.034008"><ele>164.66666666666666</ele><time>2026-04-07T09:33:41.658Z</time></trkpt><trkpt lat="44.3925202" lon="9.033699"><ele>170.0</ele><time>2026-04-07T09:33:42.658Z</time></trkpt><trkpt lat="44.3925287" lon="9.0333792"><ele>185.0</ele><time>2026-04-07T09:33:43.658Z</time></trkpt><trkpt lat="44.3925468" lon="9.0330544"><ele>200.0</ele><time>2026-04-07T09:33:44.658Z</time></trkpt><trkpt lat="44.3925459" lon="9.0327282"><ele>213.5</ele><time>2026-04-07T09:33:45.658Z</time></trkpt><trkpt lat="44.3925513" lon="9.0323955"><ele>227.0</ele><time>2026-04-07T09:33:46.658Z</time></trkpt><trkpt lat="44.3925517" lon="9.0320633"><ele>227.0</ele><time>2026-04-07T09:33:47.658Z</time></trkpt><trkpt lat="44.3925383" lon="9.0317517"><ele>227.0</ele><time>2026-04-07T09:33:48.658Z</time></trkpt><trkpt lat="44.3925383" lon="9.0314267"><ele>234.0</ele><time>2026-04-07T09:33:49.658Z</time></trkpt><trkpt lat="44.3925383" lon="9.0311067"><ele>241.0</ele><time>2026-04-07T09:33:50.658Z</time></trkpt><trkpt lat="44.3946417" lon="9.0208883"><ele>202.0</ele><time>2026-04-07T09:34:20.658Z</time></trkpt><trkpt lat="44.3946667" lon="9.020545"><ele>163.0</ele><time>2026-04-07T09:34:21.658Z</time></trkpt><trkpt lat="44.3947183" lon="9.0201933"><ele>172.5</ele><time>2026-04-07T09:34:22.658Z</time></trkpt><trkpt lat="44.394775" lon="9.0198317"><ele>182.0</ele><time>2026-04-07T09:34:23.658Z</time></trkpt><trkpt lat="44.3948367" lon="9.0194683"><ele>195.5</ele><time>2026-04-07T09:34:24.658Z</time></trkpt><trkpt lat="44.3948967" lon="9.0191133"><ele>209.0</ele><time>2026-04-07T09:34:25.658Z</time></trkpt><trkpt lat="44.3949533" lon="9.0187483"><ele>209.0</ele><time>2026-04-07T09:34:26.658Z</time></trkpt><trkpt lat="44.3950183" lon="9.0183617"><ele>209.0</ele><time>2026-04-07T09:34:27.658Z</time></trkpt><trkpt lat="44.3950733" lon="9.0179767"><ele>214.5</ele><time>2026-04-07T09:34:28.658Z</time></trkpt><trkpt lat="44.39513" lon="9.017605"><ele>220.0</ele><time>2026-04-07T09:34:29.658Z</time></trkpt><trkpt lat="44.3952083" lon="9.01725"><ele>220.0</ele><time>2026-04-07T09:34:30.658Z</time></trkpt><trkpt lat="44.3952683" lon="9.0168817"><ele>220.0</ele><time>2026-04-07T09:34:31.658Z</time></trkpt><trkpt lat="44.39532" lon="9.016535"><ele>208.33333333333331</ele><time>2026-04-07T09:34:32.658Z</time></trkpt><trkpt lat="44.3953833" lon="9.0162467"><ele>196.66666666666666</ele><time>2026-04-07T09:34:33.658Z</time></trkpt><trkpt lat="44.39545" lon="9.0160083"><ele>185.0</ele><time>2026-04-07T09:34:34.658Z</time></trkpt><trkpt lat="44.3955467" lon="9.0158517"><ele>175.33333333333331</ele><time>2026-04-07T09:34:35.658Z</time></trkpt><trkpt lat="44.3956233" lon="9.015795"><ele>165.66666666666666</ele><time>2026-04-07T09:34:36.658Z</time></trkpt><trkpt lat="44.3955017" lon="9.015775"><ele>156.0</ele><time>2026-04-07T09:34:37.658Z</time></trkpt><trkpt lat="44.3953483" lon="9.0153567"><ele>140.0</ele><time>2026-04-07T09:34:38.658Z</time></trkpt><trkpt lat="44.3952383" lon="9.014925"><ele>124.0</ele><time>2026-04-07T09:34:39.658Z</time></trkpt><trkpt lat="44.39523" lon="9.0142917"><ele>107.5</ele><time>2026-04-07T09:34:40.658Z</time></trkpt><trkpt lat="44.3952367" lon="9.013865"><ele>91.0</ele><time>2026-04-07T09:34:41.658Z</time></trkpt><trkpt lat="44.3952633" lon="9.01349"><ele>91.5</ele><time>2026-04-07T09:34:42.658Z</time></trkpt><trkpt lat="44.3953133" lon="9.0131067"><ele>92.0</ele><time>2026-04-07T09:34:43.658Z</time></trkpt><trkpt lat="44.3953983" lon="9.0126783"><ele>100.0</ele><time>2026-04-07T09:34:44.658Z</time></trkpt><trkpt lat="44.3954183" lon="9.01232"><ele>108.0</ele><time>2026-04-07T09:34:45.659Z</time></trkpt><trkpt lat="44.3954483" lon="9.011955"><ele>113.0</ele><time>2026-04-07T09:34:46.658Z</time></trkpt><trkpt lat="44.3954767" lon="9.011595"><ele>118.0</ele><time>2026-04-07T09:34:47.659Z</time></trkpt><trkpt lat="44.3955017" lon="9.01124"><ele>132.0</ele><time>2026-04-07T09:34:48.658Z</time></trkpt><trkpt lat="44.3955383" lon="9.0108833"><ele>146.0</ele><time>2026-04-07T09:34:49.658Z</time></trkpt><trkpt lat="44.3955783" lon="9.0105433"><ele>146.0</ele><time>2026-04-07T09:34:50.658Z</time></trkpt><trkpt lat="44.3956317" lon="9.01021"><ele>146.0</ele><time>2026-04-07T09:34:51.658Z</time></trkpt><trkpt lat="44.3957017" lon="9.0098833"><ele>141.0</ele><time>2026-04-07T09:34:52.658Z</time></trkpt><trkpt lat="44.3957917" lon="9.0095633"><ele>136.0</ele><time>2026-04-07T09:34:53.658Z</time></trkpt><trkpt lat="44.3959017" lon="9.009255"><ele>133.0</ele><time>2026-04-07T09:34:54.658Z</time></trkpt><trkpt lat="44.3960267" lon="9.0089633"><ele>130.0</ele><time>2026-04-07T09:34:55.658Z</time></trkpt><trkpt lat="44.3961617" lon="9.0086817"><ele>130.0</ele><time>2026-04-07T09:34:56.658Z</time></trkpt><trkpt lat="44.3963117" lon="9.0084217"><ele>130.0</ele><time>2026-04-07T09:34:57.658Z</time></trkpt><trkpt lat="44.3964733" lon="9.0081783"><ele>128.5</ele><time>2026-04-07T09:34:58.659Z</time></trkpt><trkpt lat="44.3966467" lon="9.0079467"><ele>127.0</ele><time>2026-04-07T09:34:59.658Z</time></trkpt><trkpt lat="44.3968333" lon="9.0077283"><ele>127.0</ele><time>2026-04-07T09:35:00.659Z</time></trkpt><trkpt lat="44.39703" lon="9.0075183"><ele>127.0</ele><time>2026-04-07T09:35:01.658Z</time></trkpt><trkpt lat="44.3972383" lon="9.00731"><ele>110.0</ele><time>2026-04-07T09:35:02.659Z</time></trkpt><trkpt lat="44.397445" lon="9.0071083"><ele>93.0</ele><time>2026-04-07T09:35:03.658Z</time></trkpt><trkpt lat="44.3976567" lon="9.0069083"><ele>93.0</ele><time>2026-04-07T09:35:04.658Z</time></trkpt><trkpt lat="44.3978567" lon="9.0067133"><ele>93.0</ele><time>2026-04-07T09:35:05.658Z</time></trkpt><trkpt lat="44.3980583" lon="9.0065217"><ele>95.5</ele><time>2026-04-07T09:35:06.658Z</time></trkpt><trkpt lat="44.398265" lon="9.006325"><ele>98.0</ele><time>2026-04-07T09:35:07.658Z</time></trkpt><trkpt lat="44.398465" lon="9.006125"><ele>98.0</ele><time>2026-04-07T09:35:08.658Z</time></trkpt><trkpt lat="44.39867" lon="9.0059233"><ele>98.0</ele><time>2026-04-07T09:35:09.658Z</time></trkpt><trkpt lat="44.398885" lon="9.0057267"><ele>121.5</ele><time>2026-04-07T09:35:10.658Z</time></trkpt><trkpt lat="44.3991033" lon="9.005535"><ele>145.0</ele><time>2026-04-07T09:35:11.658Z</time></trkpt><trkpt lat="44.3993217" lon="9.0053383"><ele>145.0</ele><time>2026-04-07T09:35:12.659Z</time></trkpt><trkpt lat="44.3995333" lon="9.0051433"><ele>145.0</ele><time>2026-04-07T09:35:13.659Z</time></trkpt><trkpt lat="44.3997417" lon="9.00495"><ele>167.5</ele><time>2026-04-07T09:35:14.66Z</time></trkpt><trkpt lat="44.3999517" lon="9.0047567"><ele>190.0</ele><time>2026-04-07T09:35:15.659Z</time></trkpt><trkpt lat="44.4001533" lon="9.0045567"><ele>190.0</ele><time>2026-04-07T09:35:16.659Z</time></trkpt><trkpt lat="44.4003567" lon="9.004355"><ele>190.0</ele><time>2026-04-07T09:35:17.66Z</time></trkpt><trkpt lat="44.40057" lon="9.0041717"><ele>177.0</ele><time>2026-04-07T09:35:18.659Z</time></trkpt><trkpt lat="44.4007917" lon="9.004"><ele>164.0</ele><time>2026-04-07T09:35:19.66Z</time></trkpt><trkpt lat="44.4009833" lon="9.0038183"><ele>164.0</ele><time>2026-04-07T09:35:20.659Z</time></trkpt><trkpt lat="44.4012083" lon="9.00363"><ele>164.0</ele><time>2026-04-07T09:35:21.659Z</time></trkpt><trkpt lat="44.4013767" lon="9.0034567"><ele>143.5</ele><time>2026-04-07T09:35:22.659Z</time></trkpt><trkpt lat="44.401545" lon="9.00329"><ele>123.0</ele><time>2026-04-07T09:35:23.659Z</time></trkpt><trkpt lat="44.40182" lon="9.00303"><ele>123.0</ele><time>2026-04-07T09:35:24.66Z</time></trkpt><trkpt lat="44.4020733" lon="9.002735"><ele>123.0</ele><time>2026-04-07T09:35:25.659Z</time></trkpt><trkpt lat="44.4022717" lon="9.0025067"><ele>117.5</ele><time>2026-04-07T09:35:26.659Z</time></trkpt><trkpt lat="44.40245" lon="9.0022983"><ele>112.0</ele><time>2026-04-07T09:35:27.66Z</time></trkpt><trkpt lat="44.4026283" lon="9.0021033"><ele>112.0</ele><time>2026-04-07T09:35:28.659Z</time></trkpt><trkpt lat="44.4028117" lon="9.0019183"><ele>112.0</ele><time>2026-04-07T09:35:29.659Z</time></trkpt><trkpt lat="44.4029917" lon="9.00174"><ele>112.0</ele><time>2026-04-07T09:35:30.659Z</time></trkpt><trkpt lat="44.40318" lon="9.0015517"><ele>124.66666666666667</ele><time>2026-04-07T09:35:31.659Z</time></trkpt><trkpt lat="44.4033583" lon="9.00137"><ele>137.33333333333334</ele><time>2026-04-07T09:35:32.659Z</time></trkpt><trkpt lat="44.4035383" lon="9.0011783"><ele>150.0</ele><time>2026-04-07T09:35:33.659Z</time></trkpt><trkpt lat="44.4037217" lon="9.0009883"><ele>157.5</ele><time>2026-04-07T09:35:34.659Z</time></trkpt><trkpt lat="44.4039067" lon="9.000795"><ele>165.0</ele><time>2026-04-07T09:35:35.659Z</time></trkpt><trkpt lat="44.4040883" lon="9.00061"><ele>165.0</ele><time>2026-04-07T09:35:36.659Z</time></trkpt><trkpt lat="44.40426" lon="9.0004417"><ele>165.0</ele><time>2026-04-07T09:35:37.659Z</time></trkpt><trkpt lat="44.4044383" lon="9.00026"><ele>165.0</ele><time>2026-04-07T09:35:38.66Z</time></trkpt><trkpt lat="44.40463" lon="9.000105"><ele>169.0</ele><time>2026-04-07T09:35:39.659Z</time></trkpt><trkpt lat="44.4048083" lon="8.9999667"><ele>173.0</ele><time>2026-04-07T09:35:40.66Z</time></trkpt><trkpt lat="44.4049733" lon="8.9998417"><ele>177.0</ele><time>2026-04-07T09:35:41.659Z</time></trkpt><trkpt lat="44.4051583" lon="8.9996767"><ele>177.0</ele><time>2026-04-07T09:35:42.659Z</time></trkpt><trkpt lat="44.40534" lon="8.999525"><ele>177.0</ele><time>2026-04-07T09:35:43.66Z</time></trkpt><trkpt lat="44.4109633" lon="8.9923767"><ele>141.0</ele><time>2026-04-07T09:36:13.659Z</time></trkpt><trkpt lat="44.411165" lon="8.9921217"><ele>105.0</ele><time>2026-04-07T09:36:14.659Z</time></trkpt><trkpt lat="44.4113783" lon="8.991855"><ele>78.0</ele><time>2026-04-07T09:36:15.66Z</time></trkpt><trkpt lat="44.4115967" lon="8.9915967"><ele>51.0</ele><time>2026-04-07T09:36:16.659Z</time></trkpt><trkpt lat="44.4117967" lon="8.99136"><ele>51.0</ele><time>2026-04-07T09:36:17.66Z</time></trkpt><trkpt lat="44.41199" lon="8.9911333"><ele>51.0</ele><time>2026-04-07T09:36:18.66Z</time></trkpt><trkpt lat="44.4121783" lon="8.9909"><ele>68.5</ele><time>2026-04-07T09:36:19.659Z</time></trkpt><trkpt lat="44.41237" lon="8.9906783"><ele>86.0</ele><time>2026-04-07T09:36:20.659Z</time></trkpt><trkpt lat="44.41256" lon="8.9904567"><ele>86.0</ele><time>2026-04-07T09:36:21.659Z</time></trkpt><trkpt lat="44.4127533" lon="8.9902333"><ele>86.0</ele><time>2026-04-07T09:36:22.659Z</time></trkpt><trkpt lat="44.4129517" lon="8.99002"><ele>107.0</ele><time>2026-04-07T09:36:23.659Z</time></trkpt><trkpt lat="44.4131617" lon="8.9898133"><ele>128.0</ele><time>2026-04-07T09:36:24.659Z</time></trkpt><trkpt lat="44.4133683" lon="8.9896067"><ele>128.0</ele><time>2026-04-07T09:36:25.659Z</time></trkpt><trkpt lat="44.413575" lon="8.9893967"><ele>128.0</ele><time>2026-04-07T09:36:26.659Z</time></trkpt><trkpt lat="44.41379" lon="8.9891817"><ele>153.0</ele><time>2026-04-07T09:36:27.659Z</time></trkpt><trkpt lat="44.413995" lon="8.9889533"><ele>178.0</ele><time>2026-04-07T09:36:28.659Z</time></trkpt><trkpt lat="44.4142" lon="8.9887317"><ele>178.0</ele><time>2026-04-07T09:36:29.659Z</time></trkpt><trkpt lat="44.4144067" lon="8.9885217"><ele>178.0</ele><time>2026-04-07T09:36:30.659Z</time></trkpt><trkpt lat="44.4146183" lon="8.988285"><ele>197.5</ele><time>2026-04-07T09:36:31.659Z</time></trkpt><trkpt lat="44.41483" lon="8.98804"><ele>217.0</ele><time>2026-04-07T09:36:32.659Z</time></trkpt><trkpt lat="44.4150467" lon="8.987775"><ele>206.5</ele><time>2026-04-07T09:36:33.659Z</time></trkpt><trkpt lat="44.41527" lon="8.987485"><ele>196.0</ele><time>2026-04-07T09:36:34.659Z</time></trkpt><trkpt lat="44.4155033" lon="8.987165"><ele>115.0</ele><time>2026-04-07T09:36:35.659Z</time></trkpt><trkpt lat="44.422365" lon="8.9774867"><ele>115.0</ele><time>2026-04-07T09:37:16.659Z</time></trkpt><trkpt lat="44.42256" lon="8.9772317"><ele>115.0</ele><time>2026-04-07T09:37:17.659Z</time></trkpt><trkpt lat="44.4227" lon="8.9770233"><ele>115.0</ele><time>2026-04-07T09:37:18.659Z</time></trkpt><trkpt lat="44.4228433" lon="8.976805"><ele>115.0</ele><time>2026-04-07T09:37:19.659Z</time></trkpt><trkpt lat="44.4230033" lon="8.9765717"><ele>115.0</ele><time>2026-04-07T09:37:20.659Z</time></trkpt><trkpt lat="44.423155" lon="8.976355"><ele>106.5</ele><time>2026-04-07T09:37:21.659Z</time></trkpt><trkpt lat="44.4233133" lon="8.9761317"><ele>98.0</ele><time>2026-04-07T09:37:22.659Z</time></trkpt><trkpt lat="44.423475" lon="8.975905"><ele>107.5</ele><time>2026-04-07T09:37:23.66Z</time></trkpt><trkpt lat="44.4236483" lon="8.97567"><ele>117.0</ele><time>2026-04-07T09:37:24.659Z</time></trkpt><trkpt lat="44.4238167" lon="8.97544"><ele>127.5</ele><time>2026-04-07T09:37:25.659Z</time></trkpt><trkpt lat="44.4239667" lon="8.9752033"><ele>138.0</ele><time>2026-04-07T09:37:26.659Z</time></trkpt><trkpt lat="44.42412" lon="8.974965"><ele>142.0</ele><time>2026-04-07T09:37:27.66Z</time></trkpt><trkpt lat="44.4242767" lon="8.9747267"><ele>146.0</ele><time>2026-04-07T09:37:28.659Z</time></trkpt><trkpt lat="44.4244317" lon="8.9744917"><ele>146.0</ele><time>2026-04-07T09:37:29.659Z</time></trkpt><trkpt lat="44.4245733" lon="8.9742583"><ele>146.0</ele><time>2026-04-07T09:37:30.659Z</time></trkpt><trkpt lat="44.4247117" lon="8.9739983"><ele>161.0</ele><time>2026-04-07T09:37:31.659Z</time></trkpt><trkpt lat="44.42486" lon="8.97375"><ele>176.0</ele><time>2026-04-07T09:37:32.659Z</time></trkpt><trkpt lat="44.425005" lon="8.9735033"><ele>175.0</ele><time>2026-04-07T09:37:33.66Z</time></trkpt><trkpt lat="44.4251617" lon="8.973245"><ele>174.0</ele><time>2026-04-07T09:37:34.659Z</time></trkpt><trkpt lat="44.4254817" lon="8.9727317"><ele>177.0</ele><time>2026-04-07T09:37:36.659Z</time></trkpt><trkpt lat="44.425655" lon="8.9724667"><ele>180.0</ele><time>2026-04-07T09:37:37.659Z</time></trkpt><trkpt lat="44.4258383" lon="8.972195"><ele>180.0</ele><time>2026-04-07T09:37:38.659Z</time></trkpt><trkpt lat="44.4260367" lon="8.9719133"><ele>180.0</ele><time>2026-04-07T09:37:39.659Z</time></trkpt><trkpt lat="44.4317317" lon="8.9624917"><ele>133.5</ele><time>2026-04-07T09:38:11.659Z</time></trkpt><trkpt lat="44.431898" lon="8.9622029"><ele>87.0</ele><time>2026-04-07T09:38:12.659Z</time></trkpt><trkpt lat="44.432063" lon="8.9619335"><ele>65.5</ele><time>2026-04-07T09:38:13.659Z</time></trkpt><trkpt lat="44.4322224" lon="8.9616616"><ele>44.0</ele><time>2026-04-07T09:38:14.659Z</time></trkpt><trkpt lat="44.4323794" lon="8.9613906"><ele>44.0</ele><time>2026-04-07T09:38:15.659Z</time></trkpt><trkpt lat="44.4325321" lon="8.9611233"><ele>44.0</ele><time>2026-04-07T09:38:16.659Z</time></trkpt><trkpt lat="44.4326817" lon="8.9608617"><ele>38.5</ele><time>2026-04-07T09:38:17.659Z</time></trkpt><trkpt lat="44.4328317" lon="8.9605933"><ele>33.0</ele><time>2026-04-07T09:38:18.66Z</time></trkpt><trkpt lat="44.4329867" lon="8.9603183"><ele>34.0</ele><time>2026-04-07T09:38:19.659Z</time></trkpt><trkpt lat="44.4331467" lon="8.960035"><ele>35.0</ele><time>2026-04-07T09:38:20.659Z</time></trkpt><trkpt lat="44.43331" lon="8.959745"><ele>35.0</ele><time>2026-04-07T09:38:21.659Z</time></trkpt><trkpt lat="44.4334783" lon="8.9594517"><ele>35.0</ele><time>2026-04-07T09:38:22.659Z</time></trkpt><trkpt lat="44.433645" lon="8.9591517"><ele>35.0</ele><time>2026-04-07T09:38:23.659Z</time></trkpt><trkpt lat="44.4338167" lon="8.9588533"><ele>35.0</ele><time>2026-04-07T09:38:24.66Z</time></trkpt><trkpt lat="44.4339883" lon="8.9585533"><ele>44.0</ele><time>2026-04-07T09:38:25.659Z</time></trkpt><trkpt lat="44.4341617" lon="8.9582483"><ele>53.0</ele><time>2026-04-07T09:38:26.659Z</time></trkpt><trkpt lat="44.4343317" lon="8.9579433"><ele>53.0</ele><time>2026-04-07T09:38:27.659Z</time></trkpt><trkpt lat="44.4345" lon="8.957635"><ele>53.0</ele><time>2026-04-07T09:38:28.659Z</time></trkpt><trkpt lat="44.4346667" lon="8.9573333"><ele>61.5</ele><time>2026-04-07T09:38:29.659Z</time></trkpt><trkpt lat="44.434825" lon="8.9570317"><ele>70.0</ele><time>2026-04-07T09:38:30.659Z</time></trkpt><trkpt lat="44.434975" lon="8.9567167"><ele>83.0</ele><time>2026-04-07T09:38:31.659Z</time></trkpt><trkpt lat="44.4351083" lon="8.9563967"><ele>96.0</ele><time>2026-04-07T09:38:32.659Z</time></trkpt><trkpt lat="44.4352333" lon="8.9560667"><ele>107.5</ele><time>2026-04-07T09:38:33.66Z</time></trkpt><trkpt lat="44.435355" lon="8.9557533"><ele>119.0</ele><time>2026-04-07T09:38:34.659Z</time></trkpt><trkpt lat="44.4355083" lon="8.9554383"><ele>125.0</ele><time>2026-04-07T09:38:35.659Z</time></trkpt><trkpt lat="44.4356617" lon="8.95512"><ele>131.0</ele><time>2026-04-07T09:38:36.659Z</time></trkpt><trkpt lat="44.4358183" lon="8.9547867"><ele>144.0</ele><time>2026-04-07T09:38:37.659Z</time></trkpt><trkpt lat="44.4359383" lon="8.9544533"><ele>157.0</ele><time>2026-04-07T09:38:38.659Z</time></trkpt><trkpt lat="44.43601" lon="8.9541017"><ele>170.5</ele><time>2026-04-07T09:38:39.66Z</time></trkpt><trkpt lat="44.43605" lon="8.9536033"><ele>184.0</ele><time>2026-04-07T09:38:40.66Z</time></trkpt><trkpt lat="44.4362333" lon="8.9528917"><ele>126.0</ele><time>2026-04-07T09:38:41.659Z</time></trkpt><trkpt lat="44.4372217" lon="8.9486183"><ele>114.0</ele><time>2026-04-07T09:38:55.659Z</time></trkpt><trkpt lat="44.4372433" lon="8.9482733"><ele>102.0</ele><time>2026-04-07T09:38:56.659Z</time></trkpt><trkpt lat="44.4372417" lon="8.9479333"><ele>102.0</ele><time>2026-04-07T09:38:57.659Z</time></trkpt><trkpt lat="44.4372333" lon="8.947595"><ele>102.0</ele><time>2026-04-07T09:38:58.659Z</time></trkpt><trkpt lat="44.4372217" lon="8.9472583"><ele>96.0</ele><time>2026-04-07T09:38:59.659Z</time></trkpt><trkpt lat="44.437205" lon="8.9469183"><ele>90.0</ele><time>2026-04-07T09:39:00.659Z</time></trkpt><trkpt lat="44.43719" lon="8.94658"><ele>103.0</ele><time>2026-04-07T09:39:01.659Z</time></trkpt><trkpt lat="44.4371733" lon="8.9462467"><ele>116.0</ele><time>2026-04-07T09:39:02.659Z</time></trkpt><trkpt lat="44.4371583" lon="8.9459133"><ele>129.5</ele><time>2026-04-07T09:39:03.66Z</time></trkpt><trkpt lat="44.437145" lon="8.9455817"><ele>143.0</ele><time>2026-04-07T09:39:04.66Z</time></trkpt><trkpt lat="44.43714" lon="8.9452517"><ele>131.0</ele><time>2026-04-07T09:39:05.659Z</time></trkpt><trkpt lat="44.4371317" lon="8.94493"><ele>119.0</ele><time>2026-04-07T09:39:06.659Z</time></trkpt><trkpt lat="44.4371233" lon="8.9446133"><ele>119.0</ele><time>2026-04-07T09:39:07.659Z</time></trkpt><trkpt lat="44.437115" lon="8.9443033"><ele>119.0</ele><time>2026-04-07T09:39:08.659Z</time></trkpt><trkpt lat="44.437105" lon="8.9440033"><ele>119.0</ele><time>2026-04-07T09:39:09.659Z</time></trkpt><trkpt lat="44.4370983" lon="8.9437117"><ele>120.66666666666666</ele><time>2026-04-07T09:39:10.659Z</time></trkpt><trkpt lat="44.4370983" lon="8.9434233"><ele>122.33333333333334</ele><time>2026-04-07T09:39:11.66Z</time></trkpt><trkpt lat="44.4371033" lon="8.9431467"><ele>124.0</ele><time>2026-04-07T09:39:12.659Z</time></trkpt><trkpt lat="44.4371233" lon="8.9428683"><ele>137.0</ele><time>2026-04-07T09:39:13.66Z</time></trkpt><trkpt lat="44.4371533" lon="8.9426067"><ele>150.0</ele><time>2026-04-07T09:39:14.659Z</time></trkpt><trkpt lat="44.4371967" lon="8.9423567"><ele>163.0</ele><time>2026-04-07T09:39:15.659Z</time></trkpt><trkpt lat="44.437245" lon="8.9421117"><ele>164.33333333333334</ele><time>2026-04-07T09:39:16.659Z</time></trkpt><trkpt lat="44.4372867" lon="8.9418767"><ele>165.66666666666666</ele><time>2026-04-07T09:39:17.659Z</time></trkpt><trkpt lat="44.4373333" lon="8.94165"><ele>167.0</ele><time>2026-04-07T09:39:18.659Z</time></trkpt><trkpt lat="44.4373867" lon="8.9414367"><ele>164.25</ele><time>2026-04-07T09:39:19.659Z</time></trkpt><trkpt lat="44.4374517" lon="8.9412483"><ele>161.5</ele><time>2026-04-07T09:39:20.659Z</time></trkpt><trkpt lat="44.4375183" lon="8.9410833"><ele>158.75</ele><time>2026-04-07T09:39:21.659Z</time></trkpt><trkpt lat="44.4375817" lon="8.940925"><ele>156.0</ele><time>2026-04-07T09:39:22.659Z</time></trkpt><trkpt lat="44.437615" lon="8.9407583"><ele>153.75</ele><time>2026-04-07T09:39:23.66Z</time></trkpt><trkpt lat="44.4376417" lon="8.9405883"><ele>151.5</ele><time>2026-04-07T09:39:24.659Z</time></trkpt><trkpt lat="44.4376633" lon="8.94041"><ele>149.25</ele><time>2026-04-07T09:39:25.66Z</time></trkpt><trkpt lat="44.4376867" lon="8.9402283"><ele>147.0</ele><time>2026-04-07T09:39:26.659Z</time></trkpt><trkpt lat="44.4376933" lon="8.9400367"><ele>147.0</ele><time>2026-04-07T09:39:27.66Z</time></trkpt><trkpt lat="44.43762" lon="8.9399067"><ele>147.0</ele><time>2026-04-07T09:39:28.659Z</time></trkpt><trkpt lat="44.4375183" lon="8.9398233"><ele>147.0</ele><time>2026-04-07T09:39:29.659Z</time></trkpt><trkpt lat="44.4372967" lon="8.94023"><ele>146.33333333333334</ele><time>2026-04-07T09:39:30.659Z</time></trkpt><trkpt lat="44.4371583" lon="8.9404317"><ele>145.66666666666669</ele><time>2026-04-07T09:39:31.659Z</time></trkpt><trkpt lat="44.437075" lon="8.9406367"><ele>145.0</ele><time>2026-04-07T09:39:32.659Z</time></trkpt><trkpt lat="44.436955" lon="8.9409467"><ele>142.66666666666669</ele><time>2026-04-07T09:39:33.659Z</time></trkpt><trkpt lat="44.4368917" lon="8.9412083"><ele>140.33333333333334</ele><time>2026-04-07T09:39:34.659Z</time></trkpt><trkpt lat="44.43683" lon="8.941435"><ele>138.0</ele><time>2026-04-07T09:39:35.66Z</time></trkpt><trkpt lat="44.4367717" lon="8.94165"><ele>136.75</ele><time>2026-04-07T09:39:36.659Z</time></trkpt><trkpt lat="44.4367133" lon="8.9418267"><ele>135.5</ele><time>2026-04-07T09:39:37.659Z</time></trkpt><trkpt lat="44.4366383" lon="8.94196"><ele>134.25</ele><time>2026-04-07T09:39:38.659Z</time></trkpt><trkpt lat="44.43655" lon="8.94205"><ele>133.0</ele><time>2026-04-07T09:39:39.659Z</time></trkpt><trkpt lat="44.4364517" lon="8.942085"><ele>133.0</ele><time>2026-04-07T09:39:40.659Z</time></trkpt><trkpt lat="44.4363517" lon="8.942095"><ele>133.0</ele><time>2026-04-07T09:39:41.659Z</time></trkpt><trkpt lat="44.4362383" lon="8.9420833"><ele>133.0</ele><time>2026-04-07T09:39:42.659Z</time></trkpt><trkpt lat="44.43612" lon="8.9420633"><ele>133.0</ele><time>2026-04-07T09:39:43.659Z</time></trkpt><trkpt lat="44.4359983" lon="8.9420383"><ele>131.75</ele><time>2026-04-07T09:39:44.659Z</time></trkpt><trkpt lat="44.4358733" lon="8.942"><ele>130.5</ele><time>2026-04-07T09:39:45.659Z</time></trkpt><trkpt lat="44.43574" lon="8.94196"><ele>129.25</ele><time>2026-04-07T09:39:46.659Z</time></trkpt><trkpt lat="44.4356117" lon="8.9419067"><ele>128.0</ele><time>2026-04-07T09:39:47.659Z</time></trkpt><trkpt lat="44.4354883" lon="8.9418733"><ele>124.75</ele><time>2026-04-07T09:39:48.659Z</time></trkpt><trkpt lat="44.435365" lon="8.9418167"><ele>121.5</ele><time>2026-04-07T09:39:49.66Z</time></trkpt><trkpt lat="44.43524" lon="8.9417617"><ele>118.25</ele><time>2026-04-07T09:39:50.659Z</time></trkpt><trkpt lat="44.4351167" lon="8.9417067"><ele>115.0</ele><time>2026-04-07T09:39:51.659Z</time></trkpt><trkpt lat="44.4344517" lon="8.9414883"><ele>115.0</ele><time>2026-04-07T09:39:56.659Z</time></trkpt><trkpt lat="44.4342967" lon="8.9414667"><ele>115.0</ele><time>2026-04-07T09:39:57.659Z</time></trkpt><trkpt lat="44.43414" lon="8.9414633"><ele>115.0</ele><time>2026-04-07T09:39:58.659Z</time></trkpt><trkpt lat="44.434005" lon="8.94146"><ele>115.0</ele><time>2026-04-07T09:39:59.659Z</time></trkpt><trkpt lat="44.433875" lon="8.9414617"><ele>118.5</ele><time>2026-04-07T09:40:00.659Z</time></trkpt><trkpt lat="44.43375" lon="8.9414783"><ele>122.0</ele><time>2026-04-07T09:40:01.659Z</time></trkpt><trkpt lat="44.4336383" lon="8.9414933"><ele>125.5</ele><time>2026-04-07T09:40:02.659Z</time></trkpt><trkpt lat="44.433535" lon="8.9415217"><ele>129.0</ele><time>2026-04-07T09:40:03.659Z</time></trkpt><trkpt lat="44.4334317" lon="8.9415583"><ele>129.0</ele><time>2026-04-07T09:40:04.659Z</time></trkpt><trkpt lat="44.4333267" lon="8.9416183"><ele>129.0</ele><time>2026-04-07T09:40:05.659Z</time></trkpt><trkpt lat="44.4332267" lon="8.94169"><ele>129.0</ele><time>2026-04-07T09:40:06.659Z</time></trkpt><trkpt lat="44.4331283" lon="8.941775"><ele>129.0</ele><time>2026-04-07T09:40:07.659Z</time></trkpt><trkpt lat="44.4330367" lon="8.94187"><ele>129.0</ele><time>2026-04-07T09:40:08.659Z</time></trkpt><trkpt lat="44.4329533" lon="8.9419833"><ele>129.0</ele><time>2026-04-07T09:40:09.659Z</time></trkpt><trkpt lat="44.4328733" lon="8.94211"><ele>129.0</ele><time>2026-04-07T09:40:10.659Z</time></trkpt><trkpt lat="44.4328033" lon="8.9422517"><ele>129.0</ele><time>2026-04-07T09:40:11.659Z</time></trkpt><trkpt lat="44.4327383" lon="8.942405"><ele>124.25</ele><time>2026-04-07T09:40:12.659Z</time></trkpt><trkpt lat="44.432685" lon="8.9425683"><ele>119.5</ele><time>2026-04-07T09:40:13.659Z</time></trkpt><trkpt lat="44.432645" lon="8.9427317"><ele>114.75</ele><time>2026-04-07T09:40:14.659Z</time></trkpt><trkpt lat="44.4326133" lon="8.942895"><ele>110.0</ele><time>2026-04-07T09:40:15.659Z</time></trkpt><trkpt lat="44.4325867" lon="8.9430567"><ele>110.0</ele><time>2026-04-07T09:40:16.659Z</time></trkpt><trkpt lat="44.4325783" lon="8.9432333"><ele>110.0</ele><time>2026-04-07T09:40:17.659Z</time></trkpt><trkpt lat="44.432575" lon="8.94342"><ele>110.0</ele><time>2026-04-07T09:40:18.659Z</time></trkpt><trkpt lat="44.4325767" lon="8.9436067"><ele>110.0</ele><time>2026-04-07T09:40:19.659Z</time></trkpt><trkpt lat="44.432585" lon="8.943795"><ele>104.25</ele><time>2026-04-07T09:40:20.659Z</time></trkpt><trkpt lat="44.4325967" lon="8.9439933"><ele>98.5</ele><time>2026-04-07T09:40:21.659Z</time></trkpt><trkpt lat="44.4326217" lon="8.9441833"><ele>92.75</ele><time>2026-04-07T09:40:22.659Z</time></trkpt><trkpt lat="44.4326517" lon="8.94437"><ele>87.0</ele><time>2026-04-07T09:40:23.659Z</time></trkpt><trkpt lat="44.4326933" lon="8.9445517"><ele>85.5</ele><time>2026-04-07T09:40:24.659Z</time></trkpt><trkpt lat="44.432745" lon="8.944725"><ele>84.0</ele><time>2026-04-07T09:40:25.659Z</time></trkpt><trkpt lat="44.4328017" lon="8.94489"><ele>82.5</ele><time>2026-04-07T09:40:26.659Z</time></trkpt><trkpt lat="44.4328633" lon="8.9450517"><ele>81.0</ele><time>2026-04-07T09:40:27.659Z</time></trkpt><trkpt lat="44.4329333" lon="8.945215"><ele>84.25</ele><time>2026-04-07T09:40:28.659Z</time></trkpt><trkpt lat="44.4330117" lon="8.945365"><ele>87.5</ele><time>2026-04-07T09:40:29.659Z</time></trkpt><trkpt lat="44.4330917" lon="8.945505"><ele>90.75</ele><time>2026-04-07T09:40:30.659Z</time></trkpt><trkpt lat="44.4331833" lon="8.9456217"><ele>94.0</ele><time>2026-04-07T09:40:31.659Z</time></trkpt><trkpt lat="44.433285" lon="8.9457167"><ele>94.0</ele><time>2026-04-07T09:40:32.659Z</time></trkpt><trkpt lat="44.43339" lon="8.9457867"><ele>94.0</ele><time>2026-04-07T09:40:33.66Z</time></trkpt><trkpt lat="44.4334983" lon="8.9458367"><ele>94.0</ele><time>2026-04-07T09:40:34.659Z</time></trkpt><trkpt lat="44.4336067" lon="8.9458633"><ele>94.0</ele><time>2026-04-07T09:40:35.659Z</time></trkpt><trkpt lat="44.433715" lon="8.9458783"><ele>94.0</ele><time>2026-04-07T09:40:36.659Z</time></trkpt><trkpt lat="44.4338233" lon="8.945885"><ele>93.80000000000001</ele><time>2026-04-07T09:40:37.66Z</time></trkpt><trkpt lat="44.43393" lon="8.9458817"><ele>93.60000000000001</ele><time>2026-04-07T09:40:38.659Z</time></trkpt><trkpt lat="44.4340383" lon="8.9458767"><ele>93.4</ele><time>2026-04-07T09:40:39.659Z</time></trkpt><trkpt lat="44.4341517" lon="8.9458683"><ele>93.2</ele><time>2026-04-07T09:40:40.659Z</time></trkpt><trkpt lat="44.4342667" lon="8.9458583"><ele>93.0</ele><time>2026-04-07T09:40:41.659Z</time></trkpt><trkpt lat="44.434385" lon="8.945845"><ele>93.0</ele><time>2026-04-07T09:40:42.659Z</time></trkpt><trkpt lat="44.4345" lon="8.945835"><ele>93.0</ele><time>2026-04-07T09:40:43.659Z</time></trkpt><trkpt lat="44.4346183" lon="8.945825"><ele>93.0</ele><time>2026-04-07T09:40:44.659Z</time></trkpt><trkpt lat="44.43474" lon="8.9458167"><ele>93.0</ele><time>2026-04-07T09:40:45.659Z</time></trkpt><trkpt lat="44.4348583" lon="8.94581"><ele>92.0</ele><time>2026-04-07T09:40:46.66Z</time></trkpt><trkpt lat="44.434975" lon="8.945805"><ele>91.0</ele><time>2026-04-07T09:40:47.66Z</time></trkpt><trkpt lat="44.4350883" lon="8.9457967"><ele>90.0</ele><time>2026-04-07T09:40:48.659Z</time></trkpt><trkpt lat="44.4352" lon="8.945785"><ele>89.0</ele><time>2026-04-07T09:40:49.659Z</time></trkpt><trkpt lat="44.43531" lon="8.9457633"><ele>89.0</ele><time>2026-04-07T09:40:50.659Z</time></trkpt><trkpt lat="44.4354167" lon="8.9457333"><ele>89.0</ele><time>2026-04-07T09:40:51.659Z</time></trkpt><trkpt lat="44.4355217" lon="8.9456867"><ele>89.0</ele><time>2026-04-07T09:40:52.659Z</time></trkpt><trkpt lat="44.4356233" lon="8.945625"><ele>89.0</ele><time>2026-04-07T09:40:53.659Z</time></trkpt><trkpt lat="44.4357217" lon="8.945545"><ele>89.0</ele><time>2026-04-07T09:40:54.659Z</time></trkpt><trkpt lat="44.43581" lon="8.9454433"><ele>87.5</ele><time>2026-04-07T09:40:55.659Z</time></trkpt><trkpt lat="44.4358917" lon="8.9453217"><ele>86.0</ele><time>2026-04-07T09:40:56.659Z</time></trkpt><trkpt lat="44.43596" lon="8.945185"><ele>84.5</ele><time>2026-04-07T09:40:57.66Z</time></trkpt><trkpt lat="44.436015" lon="8.9450317"><ele>83.0</ele><time>2026-04-07T09:40:58.659Z</time></trkpt><trkpt lat="44.43606" lon="8.9448683"><ele>83.0</ele><time>2026-04-07T09:40:59.659Z</time></trkpt><trkpt lat="44.4360883" lon="8.9447"><ele>83.0</ele><time>2026-04-07T09:41:00.659Z</time></trkpt><trkpt lat="44.4361" lon="8.9445283"><ele>83.0</ele><time>2026-04-07T09:41:01.66Z</time></trkpt><trkpt lat="44.436095" lon="8.9443517"><ele>83.0</ele><time>2026-04-07T09:41:02.659Z</time></trkpt><trkpt lat="44.4360783" lon="8.9441667"><ele>85.0</ele><time>2026-04-07T09:41:03.659Z</time></trkpt><trkpt lat="44.43603" lon="8.9439917"><ele>87.0</ele><time>2026-04-07T09:41:04.659Z</time></trkpt><trkpt lat="44.4359667" lon="8.9438217"><ele>89.0</ele><time>2026-04-07T09:41:05.659Z</time></trkpt><trkpt lat="44.435885" lon="8.9436683"><ele>91.0</ele><time>2026-04-07T09:41:06.66Z</time></trkpt><trkpt lat="44.4357817" lon="8.9435467"><ele>91.0</ele><time>2026-04-07T09:41:07.659Z</time></trkpt><trkpt lat="44.4356883" lon="8.943425"><ele>91.0</ele><time>2026-04-07T09:41:08.66Z</time></trkpt><trkpt lat="44.4355883" lon="8.943305"><ele>91.0</ele><time>2026-04-07T09:41:09.66Z</time></trkpt><trkpt lat="44.43549" lon="8.94317"><ele>91.0</ele><time>2026-04-07T09:41:10.659Z</time></trkpt><trkpt lat="44.4353967" lon="8.9430483"><ele>103.0</ele><time>2026-04-07T09:41:11.659Z</time></trkpt><trkpt lat="44.4353033" lon="8.9429283"><ele>115.0</ele><time>2026-04-07T09:41:12.659Z</time></trkpt><trkpt lat="44.4352083" lon="8.9428"><ele>127.0</ele><time>2026-04-07T09:41:13.66Z</time></trkpt><trkpt lat="44.4351067" lon="8.9426883"><ele>139.0</ele><time>2026-04-07T09:41:14.659Z</time></trkpt><trkpt lat="44.43501" lon="8.9425717"><ele>140.25</ele><time>2026-04-07T09:41:15.659Z</time></trkpt><trkpt lat="44.4349" lon="8.942455"><ele>141.5</ele><time>2026-04-07T09:41:16.66Z</time></trkpt><trkpt lat="44.4347917" lon="8.9423233"><ele>142.75</ele><time>2026-04-07T09:41:17.659Z</time></trkpt><trkpt lat="44.4347117" lon="8.9422133"><ele>144.0</ele><time>2026-04-07T09:41:18.66Z</time></trkpt><trkpt lat="44.4346367" lon="8.9421067"><ele>128.0</ele><time>2026-04-07T09:41:19.659Z</time></trkpt><trkpt lat="44.4345067" lon="8.941975"><ele>112.0</ele><time>2026-04-07T09:41:20.659Z</time></trkpt><trkpt lat="44.4330033" lon="8.9439733"><ele>103.66666666666667</ele><time>2026-04-07T09:41:31.659Z</time></trkpt><trkpt lat="44.43284" lon="8.9441583"><ele>95.33333333333334</ele><time>2026-04-07T09:41:32.659Z</time></trkpt><trkpt lat="44.4327517" lon="8.9443083"><ele>87.0</ele><time>2026-04-07T09:41:33.659Z</time></trkpt><trkpt lat="44.4326617" lon="8.9444233"><ele>85.25</ele><time>2026-04-07T09:41:34.66Z</time></trkpt><trkpt lat="44.4325667" lon="8.9445417"><ele>83.5</ele><time>2026-04-07T09:41:35.659Z</time></trkpt><trkpt lat="44.4324767" lon="8.9446567"><ele>81.75</ele><time>2026-04-07T09:41:36.66Z</time></trkpt><trkpt lat="44.432375" lon="8.944765"><ele>80.0</ele><time>2026-04-07T09:41:37.659Z</time></trkpt><trkpt lat="44.4322683" lon="8.94486"><ele>80.0</ele><time>2026-04-07T09:41:38.659Z</time></trkpt><trkpt lat="44.432175" lon="8.94493"><ele>80.0</ele><time>2026-04-07T09:41:39.66Z</time></trkpt><trkpt lat="44.4320783" lon="8.9450017"><ele>80.0</ele><time>2026-04-07T09:41:40.659Z</time></trkpt><trkpt lat="44.4319833" lon="8.9450683"><ele>80.0</ele><time>2026-04-07T09:41:41.659Z</time></trkpt><trkpt lat="44.4318967" lon="8.9451183"><ele>80.0</ele><time>2026-04-07T09:41:42.659Z</time></trkpt><trkpt lat="44.4318233" lon="8.9451583"><ele>77.0</ele><time>2026-04-07T09:41:43.659Z</time></trkpt><trkpt lat="44.431755" lon="8.9451883"><ele>74.0</ele><time>2026-04-07T09:41:44.659Z</time></trkpt><trkpt lat="44.43165" lon="8.945225"><ele>71.0</ele><time>2026-04-07T09:41:46.66Z</time></trkpt><trkpt lat="44.43156" lon="8.9452583"><ele>68.0</ele><time>2026-04-07T09:41:48.659Z</time></trkpt><trkpt lat="44.4314667" lon="8.945285"><ele>65.0</ele><time>2026-04-07T09:41:51.659Z</time></trkpt><trkpt lat="44.4313617" lon="8.9453283"><ele>62.66666666666667</ele><time>2026-04-07T09:41:53.659Z</time></trkpt><trkpt lat="44.4313" lon="8.94536"><ele>60.333333333333336</ele><time>2026-04-07T09:41:54.659Z</time></trkpt><trkpt lat="44.4312333" lon="8.9453933"><ele>58.0</ele><time>2026-04-07T09:41:55.659Z</time></trkpt><trkpt lat="44.4311683" lon="8.945425"><ele>55.66666666666667</ele><time>2026-04-07T09:41:56.659Z</time></trkpt><trkpt lat="44.4310933" lon="8.9454683"><ele>53.333333333333336</ele><time>2026-04-07T09:41:57.659Z</time></trkpt><trkpt lat="44.4310067" lon="8.94551"><ele>51.0</ele><time>2026-04-07T09:41:58.659Z</time></trkpt><trkpt lat="44.4309133" lon="8.9455567"><ele>51.0</ele><time>2026-04-07T09:41:59.66Z</time></trkpt><trkpt lat="44.4308117" lon="8.94561"><ele>51.0</ele><time>2026-04-07T09:42:00.66Z</time></trkpt><trkpt lat="44.4306983" lon="8.9456617"><ele>51.0</ele><time>2026-04-07T09:42:01.659Z</time></trkpt><trkpt lat="44.4305783" lon="8.9457067"><ele>51.0</ele><time>2026-04-07T09:42:02.66Z</time></trkpt><trkpt lat="44.4304533" lon="8.9457383"><ele>49.5</ele><time>2026-04-07T09:42:03.659Z</time></trkpt><trkpt lat="44.43032" lon="8.94575"><ele>48.0</ele><time>2026-04-07T09:42:04.659Z</time></trkpt><trkpt lat="44.4301883" lon="8.9457467"><ele>46.5</ele><time>2026-04-07T09:42:05.659Z</time></trkpt><trkpt lat="44.4300583" lon="8.9457333"><ele>45.0</ele><time>2026-04-07T09:42:06.659Z</time></trkpt><trkpt lat="44.42993" lon="8.9457217"><ele>45.0</ele><time>2026-04-07T09:42:07.66Z</time></trkpt><trkpt lat="44.4298067" lon="8.9457033"><ele>45.0</ele><time>2026-04-07T09:42:08.659Z</time></trkpt><trkpt lat="44.42968" lon="8.9456933"><ele>45.0</ele><time>2026-04-07T09:42:09.66Z</time></trkpt><trkpt lat="44.42955" lon="8.9456767"><ele>45.0</ele><time>2026-04-07T09:42:10.659Z</time></trkpt><trkpt lat="44.4294183" lon="8.9456683"><ele>49.5</ele><time>2026-04-07T09:42:11.66Z</time></trkpt><trkpt lat="44.429285" lon="8.94566"><ele>54.0</ele><time>2026-04-07T09:42:12.659Z</time></trkpt><trkpt lat="44.4291517" lon="8.9456467"><ele>58.5</ele><time>2026-04-07T09:42:13.659Z</time></trkpt><trkpt lat="44.4290183" lon="8.9456283"><ele>63.0</ele><time>2026-04-07T09:42:14.659Z</time></trkpt><trkpt lat="44.428885" lon="8.9456"><ele>68.5</ele><time>2026-04-07T09:42:15.659Z</time></trkpt><trkpt lat="44.4287533" lon="8.94558"><ele>74.0</ele><time>2026-04-07T09:42:16.659Z</time></trkpt><trkpt lat="44.4286183" lon="8.9455483"><ele>79.5</ele><time>2026-04-07T09:42:17.659Z</time></trkpt><trkpt lat="44.4285067" lon="8.94553"><ele>85.0</ele><time>2026-04-07T09:42:18.66Z</time></trkpt><trkpt lat="44.4284033" lon="8.945515"><ele>85.0</ele><time>2026-04-07T09:42:19.659Z</time></trkpt><trkpt lat="44.4282583" lon="8.9454967"><ele>85.0</ele><time>2026-04-07T09:42:20.659Z</time></trkpt><trkpt lat="44.4281017" lon="8.94546"><ele>85.0</ele><time>2026-04-07T09:42:21.659Z</time></trkpt><trkpt lat="44.4279833" lon="8.9454483"><ele>85.0</ele><time>2026-04-07T09:42:22.659Z</time></trkpt><trkpt lat="44.427855" lon="8.945425"><ele>81.0</ele><time>2026-04-07T09:42:23.659Z</time></trkpt><trkpt lat="44.4273317" lon="8.945665"><ele>32.0</ele><time>2026-04-07T09:42:30.659Z</time></trkpt><trkpt lat="44.427625" lon="8.946915"><ele>32.0</ele><time>2026-04-07T09:42:31.66Z</time></trkpt><trkpt lat="44.4275817" lon="8.9474233"><ele>32.0</ele><time>2026-04-07T09:42:32.659Z</time></trkpt><trkpt lat="44.42752" lon="8.9475517"><ele>30.400000000000002</ele><time>2026-04-07T09:42:33.659Z</time></trkpt><trkpt lat="44.4274383" lon="8.947625"><ele>28.800000000000004</ele><time>2026-04-07T09:42:34.659Z</time></trkpt><trkpt lat="44.4273533" lon="8.9476817"><ele>27.2</ele><time>2026-04-07T09:42:35.659Z</time></trkpt><trkpt lat="44.42724" lon="8.947735"><ele>25.6</ele><time>2026-04-07T09:42:36.66Z</time></trkpt><trkpt lat="44.4271283" lon="8.9477733"><ele>24.0</ele><time>2026-04-07T09:42:37.659Z</time></trkpt><trkpt lat="44.4270317" lon="8.9477733"><ele>23.6</ele><time>2026-04-07T09:42:38.659Z</time></trkpt><trkpt lat="44.4269383" lon="8.9477633"><ele>23.2</ele><time>2026-04-07T09:42:39.657Z</time></trkpt><trkpt lat="44.42685" lon="8.9477533"><ele>22.8</ele><time>2026-04-07T09:42:40.659Z</time></trkpt><trkpt lat="44.4267567" lon="8.947745"><ele>22.400000000000002</ele><time>2026-04-07T09:42:41.659Z</time></trkpt><trkpt lat="44.42666" lon="8.9477283"><ele>22.0</ele><time>2026-04-07T09:42:42.659Z</time></trkpt><trkpt lat="44.42657" lon="8.9477183"><ele>22.0</ele><time>2026-04-07T09:42:43.66Z</time></trkpt><trkpt lat="44.4264733" lon="8.9477133"><ele>22.0</ele><time>2026-04-07T09:42:44.659Z</time></trkpt><trkpt lat="44.4263783" lon="8.9476983"><ele>22.0</ele><time>2026-04-07T09:42:45.659Z</time></trkpt><trkpt lat="44.4262933" lon="8.9476667"><ele>22.0</ele><time>2026-04-07T09:42:46.659Z</time></trkpt><trkpt lat="44.4262117" lon="8.9476183"><ele>22.0</ele><time>2026-04-07T09:42:47.659Z</time></trkpt><trkpt lat="44.4261317" lon="8.94757"><ele>22.666666666666664</ele><time>2026-04-07T09:42:48.659Z</time></trkpt><trkpt lat="44.4260567" lon="8.9475233"><ele>23.333333333333332</ele><time>2026-04-07T09:42:49.659Z</time></trkpt><trkpt lat="44.4259883" lon="8.94748"><ele>24.0</ele><time>2026-04-07T09:42:50.659Z</time></trkpt><trkpt lat="44.4259167" lon="8.9474467"><ele>24.666666666666664</ele><time>2026-04-07T09:42:51.659Z</time></trkpt><trkpt lat="44.42585" lon="8.9474183"><ele>25.333333333333332</ele><time>2026-04-07T09:42:52.659Z</time></trkpt><trkpt lat="44.42579" lon="8.94739"><ele>26.0</ele><time>2026-04-07T09:42:53.659Z</time></trkpt><trkpt lat="44.4256967" lon="8.9473533"><ele>25.999999999999996</ele><time>2026-04-07T09:42:55.659Z</time></trkpt><trkpt lat="44.42562" lon="8.947335"><ele>26.0</ele><time>2026-04-07T09:42:57.659Z</time></trkpt><trkpt lat="44.4255317" lon="8.94731"><ele>26.0</ele><time>2026-04-07T09:42:59.66Z</time></trkpt><trkpt lat="44.425445" lon="8.9472967"><ele>26.0</ele><time>2026-04-07T09:43:01.66Z</time></trkpt><trkpt lat="44.42536" lon="8.947315"><ele>25.999999999999996</ele><time>2026-04-07T09:43:03.66Z</time></trkpt><trkpt lat="44.4252833" lon="8.9473367"><ele>26.0</ele><time>2026-04-07T09:43:06.66Z</time></trkpt><trkpt lat="44.4252017" lon="8.9473067"><ele>25.8</ele><time>2026-04-07T09:43:08.659Z</time></trkpt><trkpt lat="44.4251333" lon="8.947285"><ele>25.6</ele><time>2026-04-07T09:43:09.659Z</time></trkpt><trkpt lat="44.4250483" lon="8.9472633"><ele>25.4</ele><time>2026-04-07T09:43:10.659Z</time></trkpt><trkpt lat="44.4249533" lon="8.947245"><ele>25.2</ele><time>2026-04-07T09:43:11.658Z</time></trkpt><trkpt lat="44.4248467" lon="8.947225"><ele>25.0</ele><time>2026-04-07T09:43:12.658Z</time></trkpt><trkpt lat="44.4247333" lon="8.9472017"><ele>24.0</ele><time>2026-04-07T09:43:13.658Z</time></trkpt><trkpt lat="44.4246217" lon="8.94718"><ele>23.0</ele><time>2026-04-07T09:43:14.659Z</time></trkpt><trkpt lat="44.4245067" lon="8.9471667"><ele>22.0</ele><time>2026-04-07T09:43:15.658Z</time></trkpt><trkpt lat="44.4243867" lon="8.94716"><ele>21.0</ele><time>2026-04-07T09:43:16.658Z</time></trkpt><trkpt lat="44.4242683" lon="8.9471533"><ele>21.0</ele><time>2026-04-07T09:43:17.659Z</time></trkpt><trkpt lat="44.4241483" lon="8.9471433"><ele>21.0</ele><time>2026-04-07T09:43:18.659Z</time></trkpt><trkpt lat="44.4240283" lon="8.9471367"><ele>21.0</ele><time>2026-04-07T09:43:19.659Z</time></trkpt><trkpt lat="44.42391" lon="8.947125"><ele>21.0</ele><time>2026-04-07T09:43:20.659Z</time></trkpt><trkpt lat="44.4237983" lon="8.9471083"><ele>20.2</ele><time>2026-04-07T09:43:21.659Z</time></trkpt><trkpt lat="44.4236933" lon="8.9470917"><ele>19.400000000000002</ele><time>2026-04-07T09:43:22.658Z</time></trkpt><trkpt lat="44.4235917" lon="8.9470783"><ele>18.6</ele><time>2026-04-07T09:43:23.658Z</time></trkpt><trkpt lat="44.42349" lon="8.9470633"><ele>17.8</ele><time>2026-04-07T09:43:24.658Z</time></trkpt><trkpt lat="44.4233867" lon="8.9470483"><ele>17.0</ele><time>2026-04-07T09:43:25.658Z</time></trkpt><trkpt lat="44.423285" lon="8.9470333"><ele>17.0</ele><time>2026-04-07T09:43:26.658Z</time></trkpt><trkpt lat="44.4231883" lon="8.9470117"><ele>17.0</ele><time>2026-04-07T09:43:27.658Z</time></trkpt><trkpt lat="44.4230983" lon="8.9469883"><ele>17.0</ele><time>2026-04-07T09:43:28.659Z</time></trkpt><trkpt lat="44.4230217" lon="8.9469617"><ele>17.0</ele><time>2026-04-07T09:43:29.658Z</time></trkpt><trkpt lat="44.4229283" lon="8.9468817"><ele>17.0</ele><time>2026-04-07T09:43:31.658Z</time></trkpt><trkpt lat="44.4228883" lon="8.9468017"><ele>17.0</ele><time>2026-04-07T09:43:33.658Z</time></trkpt><trkpt lat="44.42285" lon="8.9467017"><ele>18.75</ele><time>2026-04-07T09:43:46.658Z</time></trkpt><trkpt lat="44.4227283" lon="8.9465633"><ele>20.5</ele><time>2026-04-07T09:43:48.658Z</time></trkpt><trkpt lat="44.4226667" lon="8.9464633"><ele>22.25</ele><time>2026-04-07T09:43:49.658Z</time></trkpt><trkpt lat="44.4225967" lon="8.9463533"><ele>24.0</ele><time>2026-04-07T09:43:50.658Z</time></trkpt><trkpt lat="44.4225233" lon="8.9462483"><ele>24.0</ele><time>2026-04-07T09:43:51.658Z</time></trkpt><trkpt lat="44.422455" lon="8.94612"><ele>24.0</ele><time>2026-04-07T09:43:52.659Z</time></trkpt><trkpt lat="44.4223883" lon="8.945995"><ele>24.0</ele><time>2026-04-07T09:43:53.658Z</time></trkpt><trkpt lat="44.4223067" lon="8.945885"><ele>24.0</ele><time>2026-04-07T09:43:54.658Z</time></trkpt><trkpt lat="44.4222233" lon="8.9457917"><ele>24.0</ele><time>2026-04-07T09:43:55.658Z</time></trkpt><trkpt lat="44.422135" lon="8.9457283"><ele>25.666666666666668</ele><time>2026-04-07T09:43:56.658Z</time></trkpt><trkpt lat="44.4220433" lon="8.9456883"><ele>27.333333333333336</ele><time>2026-04-07T09:43:57.659Z</time></trkpt><trkpt lat="44.421955" lon="8.945675"><ele>29.0</ele><time>2026-04-07T09:43:58.658Z</time></trkpt><trkpt lat="44.4218733" lon="8.9456717"><ele>30.666666666666668</ele><time>2026-04-07T09:43:59.658Z</time></trkpt><trkpt lat="44.4217983" lon="8.9456833"><ele>32.333333333333336</ele><time>2026-04-07T09:44:00.658Z</time></trkpt><trkpt lat="44.42172" lon="8.9456867"><ele>34.0</ele><time>2026-04-07T09:44:01.658Z</time></trkpt><trkpt lat="44.4216417" lon="8.94569"><ele>34.0</ele><time>2026-04-07T09:44:02.658Z</time></trkpt><trkpt lat="44.4215583" lon="8.9457"><ele>34.0</ele><time>2026-04-07T09:44:03.658Z</time></trkpt><trkpt lat="44.42147" lon="8.94568"><ele>34.0</ele><time>2026-04-07T09:44:04.658Z</time></trkpt><trkpt lat="44.4213867" lon="8.9456767"><ele>34.0</ele><time>2026-04-07T09:44:05.658Z</time></trkpt><trkpt lat="44.4212967" lon="8.9456633"><ele>34.0</ele><time>2026-04-07T09:44:06.658Z</time></trkpt><trkpt lat="44.4212117" lon="8.9456633"><ele>34.0</ele><time>2026-04-07T09:44:07.658Z</time></trkpt><trkpt lat="44.421125" lon="8.9456567"><ele>34.6</ele><time>2026-04-07T09:44:08.658Z</time></trkpt><trkpt lat="44.4210333" lon="8.9456533"><ele>35.2</ele><time>2026-04-07T09:44:09.658Z</time></trkpt><trkpt lat="44.4209467" lon="8.94565"><ele>35.800000000000004</ele><time>2026-04-07T09:44:10.658Z</time></trkpt><trkpt lat="44.4208517" lon="8.9456567"><ele>36.4</ele><time>2026-04-07T09:44:11.659Z</time></trkpt><trkpt lat="44.4207617" lon="8.9456467"><ele>37.0</ele><time>2026-04-07T09:44:12.659Z</time></trkpt><trkpt lat="44.420665" lon="8.94565"><ele>37.0</ele><time>2026-04-07T09:44:13.658Z</time></trkpt><trkpt lat="44.420575" lon="8.945655"><ele>37.0</ele><time>2026-04-07T09:44:14.658Z</time></trkpt><trkpt lat="44.4204867" lon="8.9456683"><ele>37.0</ele><time>2026-04-07T09:44:15.658Z</time></trkpt><trkpt lat="44.4204" lon="8.9456933"><ele>37.0</ele><time>2026-04-07T09:44:16.658Z</time></trkpt><trkpt lat="44.420305" lon="8.94572"><ele>37.0</ele><time>2026-04-07T09:44:17.658Z</time></trkpt><trkpt lat="44.4202067" lon="8.9457517"><ele>38.8</ele><time>2026-04-07T09:44:18.659Z</time></trkpt><trkpt lat="44.4201017" lon="8.9457767"><ele>40.6</ele><time>2026-04-07T09:44:19.658Z</time></trkpt><trkpt lat="44.419995" lon="8.94581"><ele>42.4</ele><time>2026-04-07T09:44:20.658Z</time></trkpt><trkpt lat="44.419885" lon="8.9458433"><ele>44.199999999999996</ele><time>2026-04-07T09:44:21.658Z</time></trkpt><trkpt lat="44.4197783" lon="8.9458767"><ele>46.0</ele><time>2026-04-07T09:44:22.658Z</time></trkpt><trkpt lat="44.419675" lon="8.9459133"><ele>43.333333333333336</ele><time>2026-04-07T09:44:23.659Z</time></trkpt><trkpt lat="44.41958" lon="8.9459333"><ele>40.66666666666667</ele><time>2026-04-07T09:44:24.658Z</time></trkpt><trkpt lat="44.4195" lon="8.9459533"><ele>38.0</ele><time>2026-04-07T09:44:25.658Z</time></trkpt><trkpt lat="44.4194217" lon="8.9459833"><ele>35.333333333333336</ele><time>2026-04-07T09:44:26.658Z</time></trkpt><trkpt lat="44.4193433" lon="8.9460083"><ele>32.666666666666664</ele><time>2026-04-07T09:44:27.658Z</time></trkpt><trkpt lat="44.4192617" lon="8.94603"><ele>30.0</ele><time>2026-04-07T09:44:28.658Z</time></trkpt><trkpt lat="44.41918" lon="8.9460517"><ele>30.0</ele><time>2026-04-07T09:44:29.658Z</time></trkpt><trkpt lat="44.4190933" lon="8.9460883"><ele>30.0</ele><time>2026-04-07T09:44:30.658Z</time></trkpt><trkpt lat="44.419005" lon="8.94611"><ele>30.0</ele><time>2026-04-07T09:44:31.659Z</time></trkpt><trkpt lat="44.41892" lon="8.9461283"><ele>30.0</ele><time>2026-04-07T09:44:32.658Z</time></trkpt><trkpt lat="44.418835" lon="8.9461483"><ele>30.0</ele><time>2026-04-07T09:44:33.658Z</time></trkpt><trkpt lat="44.41875" lon="8.9461367"><ele>30.0</ele><time>2026-04-07T09:44:34.658Z</time></trkpt><trkpt lat="44.4186683" lon="8.9461217"><ele>31.4</ele><time>2026-04-07T09:44:35.658Z</time></trkpt><trkpt lat="44.4185867" lon="8.9460817"><ele>32.8</ele><time>2026-04-07T09:44:36.658Z</time></trkpt><trkpt lat="44.418505" lon="8.9460217"><ele>34.2</ele><time>2026-04-07T09:44:37.659Z</time></trkpt><trkpt lat="44.4184183" lon="8.9459683"><ele>35.6</ele><time>2026-04-07T09:44:38.658Z</time></trkpt><trkpt lat="44.4183233" lon="8.94593"><ele>37.0</ele><time>2026-04-07T09:44:39.658Z</time></trkpt><trkpt lat="44.4182317" lon="8.945905"><ele>37.0</ele><time>2026-04-07T09:44:40.658Z</time></trkpt><trkpt lat="44.4181467" lon="8.9458967"><ele>37.0</ele><time>2026-04-07T09:44:41.658Z</time></trkpt><trkpt lat="44.4180567" lon="8.9459017"><ele>37.0</ele><time>2026-04-07T09:44:42.659Z</time></trkpt><trkpt lat="44.4179717" lon="8.9459117"><ele>37.0</ele><time>2026-04-07T09:44:43.659Z</time></trkpt><trkpt lat="44.4178967" lon="8.9459567"><ele>37.0</ele><time>2026-04-07T09:44:44.658Z</time></trkpt><trkpt lat="44.417835" lon="8.9460067"><ele>37.0</ele><time>2026-04-07T09:44:45.658Z</time></trkpt><trkpt lat="44.41779" lon="8.9460817"><ele>42.833333333333336</ele><time>2026-04-07T09:44:46.658Z</time></trkpt><trkpt lat="44.4177483" lon="8.94617"><ele>48.66666666666667</ele><time>2026-04-07T09:44:47.658Z</time></trkpt><trkpt lat="44.4177117" lon="8.94626"><ele>54.5</ele><time>2026-04-07T09:44:48.658Z</time></trkpt><trkpt lat="44.4176917" lon="8.946365"><ele>60.333333333333336</ele><time>2026-04-07T09:44:49.658Z</time></trkpt><trkpt lat="44.4176567" lon="8.946465"><ele>66.16666666666667</ele><time>2026-04-07T09:44:50.659Z</time></trkpt><trkpt lat="44.417615" lon="8.9465583"><ele>72.0</ele><time>2026-04-07T09:44:51.658Z</time></trkpt><trkpt lat="44.4175633" lon="8.9466433"><ele>67.66666666666667</ele><time>2026-04-07T09:44:52.658Z</time></trkpt><trkpt lat="44.417525" lon="8.9467433"><ele>63.333333333333336</ele><time>2026-04-07T09:44:53.658Z</time></trkpt><trkpt lat="44.4174683" lon="8.9468333"><ele>59.0</ele><time>2026-04-07T09:44:54.658Z</time></trkpt><trkpt lat="44.4173983" lon="8.9469"><ele>54.66666666666667</ele><time>2026-04-07T09:44:55.658Z</time></trkpt><trkpt lat="44.4173383" lon="8.94695"><ele>50.333333333333336</ele><time>2026-04-07T09:44:56.658Z</time></trkpt><trkpt lat="44.4172467" lon="8.9470283"><ele>46.0</ele><time>2026-04-07T09:44:58.658Z</time></trkpt><trkpt lat="44.4171817" lon="8.9470867"><ele>51.66666666666667</ele><time>2026-04-07T09:45:00.658Z</time></trkpt><trkpt lat="44.4171017" lon="8.947155"><ele>57.333333333333336</ele><time>2026-04-07T09:45:07.658Z</time></trkpt><trkpt lat="44.4170483" lon="8.947225"><ele>63.0</ele><time>2026-04-07T09:45:09.658Z</time></trkpt><trkpt lat="44.41696" lon="8.947305"><ele>68.66666666666667</ele><time>2026-04-07T09:45:11.658Z</time></trkpt><trkpt lat="44.4168783" lon="8.947395"><ele>74.33333333333334</ele><time>2026-04-07T09:45:13.658Z</time></trkpt><trkpt lat="44.4168183" lon="8.9474367"><ele>80.0</ele><time>2026-04-07T09:45:14.659Z</time></trkpt><trkpt lat="44.41671" lon="8.9475133"><ele>77.83333333333334</ele><time>2026-04-07T09:45:16.658Z</time></trkpt><trkpt lat="44.4165883" lon="8.9476033"><ele>75.66666666666667</ele><time>2026-04-07T09:45:18.658Z</time></trkpt><trkpt lat="44.41652" lon="8.94765"><ele>73.5</ele><time>2026-04-07T09:45:19.658Z</time></trkpt><trkpt lat="44.4164533" lon="8.9477"><ele>71.33333333333333</ele><time>2026-04-07T09:45:20.659Z</time></trkpt><trkpt lat="44.416385" lon="8.9477483"><ele>69.16666666666666</ele><time>2026-04-07T09:45:21.658Z</time></trkpt><trkpt lat="44.416315" lon="8.9477967"><ele>67.0</ele><time>2026-04-07T09:45:22.658Z</time></trkpt><trkpt lat="44.41623" lon="8.9478383"><ele>67.0</ele><time>2026-04-07T09:45:23.658Z</time></trkpt><trkpt lat="44.41613" lon="8.9478833"><ele>67.0</ele><time>2026-04-07T09:45:24.658Z</time></trkpt><trkpt lat="44.4160333" lon="8.94793"><ele>67.0</ele><time>2026-04-07T09:45:25.658Z</time></trkpt><trkpt lat="44.41594" lon="8.9479733"><ele>67.0</ele><time>2026-04-07T09:45:26.658Z</time></trkpt><trkpt lat="44.4158483" lon="8.9480217"><ele>67.0</ele><time>2026-04-07T09:45:27.658Z</time></trkpt><trkpt lat="44.4157533" lon="8.9480717"><ele>67.0</ele><time>2026-04-07T09:45:28.658Z</time></trkpt><trkpt lat="44.4156417" lon="8.9481067"><ele>67.0</ele><time>2026-04-07T09:45:29.659Z</time></trkpt><trkpt lat="44.4155267" lon="8.94814"><ele>67.0</ele><time>2026-04-07T09:45:30.658Z</time></trkpt><trkpt lat="44.4154133" lon="8.9481767"><ele>67.0</ele><time>2026-04-07T09:45:31.658Z</time></trkpt><trkpt lat="44.4153183" lon="8.948225"><ele>67.0</ele><time>2026-04-07T09:45:32.658Z</time></trkpt><trkpt lat="44.4152083" lon="8.9482733"><ele>68.8</ele><time>2026-04-07T09:45:33.658Z</time></trkpt><trkpt lat="44.4150917" lon="8.9483183"><ele>70.6</ele><time>2026-04-07T09:45:34.658Z</time></trkpt><trkpt lat="44.4150017" lon="8.9484067"><ele>72.39999999999999</ele><time>2026-04-07T09:45:35.659Z</time></trkpt><trkpt lat="44.41495" lon="8.9485067"><ele>74.2</ele><time>2026-04-07T09:45:36.658Z</time></trkpt><trkpt lat="44.4149067" lon="8.9486117"><ele>76.0</ele><time>2026-04-07T09:45:37.658Z</time></trkpt><trkpt lat="44.4148717" lon="8.948725"><ele>76.0</ele><time>2026-04-07T09:45:38.658Z</time></trkpt><trkpt lat="44.4148367" lon="8.94883"><ele>76.0</ele><time>2026-04-07T09:45:39.658Z</time></trkpt><trkpt lat="44.4147983" lon="8.948925"><ele>76.0</ele><time>2026-04-07T09:45:40.658Z</time></trkpt><trkpt lat="44.414765" lon="8.94903"><ele>76.0</ele><time>2026-04-07T09:45:41.658Z</time></trkpt><trkpt lat="44.414705" lon="8.9491117"><ele>76.0</ele><time>2026-04-07T09:45:42.659Z</time></trkpt><trkpt lat="44.414635" lon="8.9491733"><ele>76.0</ele><time>2026-04-07T09:45:43.658Z</time></trkpt><trkpt lat="44.4145567" lon="8.9492083"><ele>74.66666666666666</ele><time>2026-04-07T09:45:44.658Z</time></trkpt><trkpt lat="44.4144867" lon="8.9492383"><ele>73.33333333333333</ele><time>2026-04-07T09:45:45.658Z</time></trkpt><trkpt lat="44.4144" lon="8.9492383"><ele>72.0</ele><time>2026-04-07T09:45:46.658Z</time></trkpt><trkpt lat="44.414315" lon="8.9492167"><ele>70.66666666666667</ele><time>2026-04-07T09:45:47.658Z</time></trkpt><trkpt lat="44.414245" lon="8.9491733"><ele>69.33333333333334</ele><time>2026-04-07T09:45:48.658Z</time></trkpt><trkpt lat="44.4141783" lon="8.9491083"><ele>68.0</ele><time>2026-04-07T09:45:49.658Z</time></trkpt><trkpt lat="44.4141217" lon="8.94902"><ele>71.8</ele><time>2026-04-07T09:45:50.658Z</time></trkpt><trkpt lat="44.41409" lon="8.9489133"><ele>75.6</ele><time>2026-04-07T09:45:51.658Z</time></trkpt><trkpt lat="44.41408" lon="8.948785"><ele>79.39999999999999</ele><time>2026-04-07T09:45:52.658Z</time></trkpt><trkpt lat="44.414095" lon="8.94865"><ele>83.19999999999999</ele><time>2026-04-07T09:45:53.658Z</time></trkpt><trkpt lat="44.414095" lon="8.9485217"><ele>87.0</ele><time>2026-04-07T09:45:54.658Z</time></trkpt><trkpt lat="44.4140917" lon="8.94839"><ele>87.83333333333333</ele><time>2026-04-07T09:45:55.658Z</time></trkpt><trkpt lat="44.4140933" lon="8.9482683"><ele>88.66666666666667</ele><time>2026-04-07T09:45:56.658Z</time></trkpt><trkpt lat="44.4141017" lon="8.9481517"><ele>89.5</ele><time>2026-04-07T09:45:57.658Z</time></trkpt><trkpt lat="44.4141133" lon="8.94804"><ele>90.33333333333334</ele><time>2026-04-07T09:45:58.658Z</time></trkpt><trkpt lat="44.4141217" lon="8.947925"><ele>91.16666666666667</ele><time>2026-04-07T09:45:59.658Z</time></trkpt><trkpt lat="44.4141233" lon="8.94781"><ele>92.0</ele><time>2026-04-07T09:46:00.658Z</time></trkpt><trkpt lat="44.4141267" lon="8.9476883"><ele>92.0</ele><time>2026-04-07T09:46:01.658Z</time></trkpt><trkpt lat="44.4141233" lon="8.9475633"><ele>92.0</ele><time>2026-04-07T09:46:02.658Z</time></trkpt><trkpt lat="44.4141167" lon="8.947435"><ele>92.0</ele><time>2026-04-07T09:46:03.659Z</time></trkpt><trkpt lat="44.414125" lon="8.9473117"><ele>92.0</ele><time>2026-04-07T09:46:04.658Z</time></trkpt><trkpt lat="44.4141367" lon="8.9471833"><ele>92.0</ele><time>2026-04-07T09:46:05.659Z</time></trkpt><trkpt lat="44.4141467" lon="8.947055"><ele>92.16666666666667</ele><time>2026-04-07T09:46:06.658Z</time></trkpt><trkpt lat="44.4141533" lon="8.9469217"><ele>92.33333333333334</ele><time>2026-04-07T09:46:07.659Z</time></trkpt><trkpt lat="44.41415" lon="8.9467933"><ele>92.5</ele><time>2026-04-07T09:46:08.658Z</time></trkpt><trkpt lat="44.4141483" lon="8.9466633"><ele>92.66666666666667</ele><time>2026-04-07T09:46:09.658Z</time></trkpt><trkpt lat="44.4141317" lon="8.946545"><ele>92.83333333333333</ele><time>2026-04-07T09:46:10.658Z</time></trkpt><trkpt lat="44.4141117" lon="8.94645"><ele>93.0</ele><time>2026-04-07T09:46:11.658Z</time></trkpt><trkpt lat="44.4140783" lon="8.94633"><ele>92.5</ele><time>2026-04-07T09:46:13.658Z</time></trkpt><trkpt lat="44.4140567" lon="8.9462267"><ele>92.0</ele><time>2026-04-07T09:46:17.658Z</time></trkpt><trkpt lat="44.4140167" lon="8.9461333"><ele>91.5</ele><time>2026-04-07T09:46:30.658Z</time></trkpt><trkpt lat="44.4140067" lon="8.9460017"><ele>91.0</ele><time>2026-04-07T09:46:32.658Z</time></trkpt><trkpt lat="44.413965" lon="8.945935"><ele>90.5</ele><time>2026-04-07T09:46:33.659Z</time></trkpt><trkpt lat="44.4139267" lon="8.9458217"><ele>90.0</ele><time>2026-04-07T09:46:34.659Z</time></trkpt><trkpt lat="44.4138967" lon="8.94571"><ele>88.66666666666667</ele><time>2026-04-07T09:46:35.658Z</time></trkpt><trkpt lat="44.4138633" lon="8.9456"><ele>87.33333333333333</ele><time>2026-04-07T09:46:36.658Z</time></trkpt><trkpt lat="44.4138283" lon="8.9454933"><ele>86.0</ele><time>2026-04-07T09:46:37.658Z</time></trkpt><trkpt lat="44.4137917" lon="8.9453933"><ele>84.66666666666666</ele><time>2026-04-07T09:46:38.658Z</time></trkpt><trkpt lat="44.413755" lon="8.9452967"><ele>83.33333333333333</ele><time>2026-04-07T09:46:39.659Z</time></trkpt><trkpt lat="44.4137233" lon="8.9452033"><ele>82.0</ele><time>2026-04-07T09:46:40.658Z</time></trkpt><trkpt lat="44.4136983" lon="8.9451117"><ele>82.83333333333333</ele><time>2026-04-07T09:46:41.658Z</time></trkpt><trkpt lat="44.4136667" lon="8.945025"><ele>83.66666666666666</ele><time>2026-04-07T09:46:42.658Z</time></trkpt><trkpt lat="44.413635" lon="8.9449417"><ele>84.5</ele><time>2026-04-07T09:46:43.658Z</time></trkpt><trkpt lat="44.41358" lon="8.9447933"><ele>85.33333333333333</ele><time>2026-04-07T09:46:45.658Z</time></trkpt><trkpt lat="44.4135283" lon="8.944655"><ele>86.16666666666667</ele><time>2026-04-07T09:46:47.658Z</time></trkpt><trkpt lat="44.413515" lon="8.9445617"><ele>87.0</ele><time>2026-04-07T09:46:48.658Z</time></trkpt><trkpt lat="44.4134833" lon="8.9444767"><ele>87.0</ele><time>2026-04-07T09:46:49.658Z</time></trkpt><trkpt lat="44.4134517" lon="8.9443717"><ele>87.0</ele><time>2026-04-07T09:46:50.658Z</time></trkpt><trkpt lat="44.4134117" lon="8.9442717"><ele>87.0</ele><time>2026-04-07T09:46:51.658Z</time></trkpt><trkpt lat="44.413365" lon="8.9441633"><ele>87.0</ele><time>2026-04-07T09:46:52.659Z</time></trkpt><trkpt lat="44.413325" lon="8.944"><ele>87.0</ele><time>2026-04-07T09:46:53.659Z</time></trkpt><trkpt lat="44.413285" lon="8.94388"><ele>87.8</ele><time>2026-04-07T09:46:54.658Z</time></trkpt><trkpt lat="44.413245" lon="8.9437533"><ele>88.6</ele><time>2026-04-07T09:46:55.658Z</time></trkpt><trkpt lat="44.4132067" lon="8.9436183"><ele>89.39999999999999</ele><time>2026-04-07T09:46:56.658Z</time></trkpt><trkpt lat="44.4131633" lon="8.9434883"><ele>90.19999999999999</ele><time>2026-04-07T09:46:57.658Z</time></trkpt><trkpt lat="44.4131317" lon="8.9433683"><ele>91.0</ele><time>2026-04-07T09:46:58.658Z</time></trkpt><trkpt lat="44.413125" lon="8.94324"><ele>91.19999999999999</ele><time>2026-04-07T09:46:59.658Z</time></trkpt><trkpt lat="44.4131267" lon="8.9431133"><ele>91.39999999999999</ele><time>2026-04-07T09:47:00.658Z</time></trkpt><trkpt lat="44.4131433" lon="8.9429917"><ele>91.6</ele><time>2026-04-07T09:47:01.659Z</time></trkpt><trkpt lat="44.41317" lon="8.94287"><ele>91.8</ele><time>2026-04-07T09:47:02.659Z</time></trkpt><trkpt lat="44.4132133" lon="8.94274"><ele>92.0</ele><time>2026-04-07T09:47:03.658Z</time></trkpt><trkpt lat="44.4132567" lon="8.9425883"><ele>91.19999999999999</ele><time>2026-04-07T09:47:04.658Z</time></trkpt><trkpt lat="44.41331" lon="8.9424567"><ele>90.4</ele><time>2026-04-07T09:47:05.659Z</time></trkpt><trkpt lat="44.4133633" lon="8.9423333"><ele>89.6</ele><time>2026-04-07T09:47:06.658Z</time></trkpt><trkpt lat="44.413425" lon="8.942215"><ele>88.80000000000001</ele><time>2026-04-07T09:47:07.659Z</time></trkpt><trkpt lat="44.41348" lon="8.94209"><ele>88.0</ele><time>2026-04-07T09:47:08.658Z</time></trkpt><trkpt lat="44.4135233" lon="8.9419783"><ele>88.0</ele><time>2026-04-07T09:47:09.658Z</time></trkpt><trkpt lat="44.413565" lon="8.9418783"><ele>88.0</ele><time>2026-04-07T09:47:10.658Z</time></trkpt><trkpt lat="44.413595" lon="8.9417733"><ele>88.0</ele><time>2026-04-07T09:47:11.658Z</time></trkpt><trkpt lat="44.41363" lon="8.9416917"><ele>88.0</ele><time>2026-04-07T09:47:12.658Z</time></trkpt><trkpt lat="44.41368" lon="8.941545"><ele>88.0</ele><time>2026-04-07T09:47:14.658Z</time></trkpt><trkpt lat="44.4137117" lon="8.9414533"><ele>88.0</ele><time>2026-04-07T09:47:15.658Z</time></trkpt><trkpt lat="44.4137583" lon="8.941365"><ele>87.5</ele><time>2026-04-07T09:47:16.659Z</time></trkpt><trkpt lat="44.413795" lon="8.941265"><ele>87.0</ele><time>2026-04-07T09:47:17.658Z</time></trkpt><trkpt lat="44.41384" lon="8.941165"><ele>86.5</ele><time>2026-04-07T09:47:18.658Z</time></trkpt><trkpt lat="44.41389" lon="8.9410667"><ele>86.0</ele><time>2026-04-07T09:47:19.658Z</time></trkpt><trkpt lat="44.41394" lon="8.940965"><ele>85.5</ele><time>2026-04-07T09:47:20.658Z</time></trkpt><trkpt lat="44.41398" lon="8.9408683"><ele>85.0</ele><time>2026-04-07T09:47:21.658Z</time></trkpt><trkpt lat="44.4140117" lon="8.940765"><ele>85.0</ele><time>2026-04-07T09:47:22.658Z</time></trkpt><trkpt lat="44.4140167" lon="8.940665"><ele>85.0</ele><time>2026-04-07T09:47:23.658Z</time></trkpt><trkpt lat="44.4139817" lon="8.9405867"><ele>85.0</ele><time>2026-04-07T09:47:24.658Z</time></trkpt><trkpt lat="44.4139333" lon="8.940525"><ele>85.0</ele><time>2026-04-07T09:47:25.658Z</time></trkpt><trkpt lat="44.4138683" lon="8.9404617"><ele>85.0</ele><time>2026-04-07T09:47:26.658Z</time></trkpt><trkpt lat="44.4137967" lon="8.940395"><ele>85.0</ele><time>2026-04-07T09:47:27.659Z</time></trkpt><trkpt lat="44.4137267" lon="8.9403233"><ele>84.0</ele><time>2026-04-07T09:47:28.658Z</time></trkpt><trkpt lat="44.41368" lon="8.94024"><ele>83.0</ele><time>2026-04-07T09:47:29.658Z</time></trkpt><trkpt lat="44.4136517" lon="8.94015"><ele>82.0</ele><time>2026-04-07T09:47:30.659Z</time></trkpt><trkpt lat="44.41365" lon="8.9400567"><ele>81.0</ele><time>2026-04-07T09:47:31.658Z</time></trkpt><trkpt lat="44.41366" lon="8.939955"><ele>80.0</ele><time>2026-04-07T09:47:32.659Z</time></trkpt><trkpt lat="44.4136533" lon="8.939785"><ele>79.0</ele><time>2026-04-07T09:47:34.658Z</time></trkpt><trkpt lat="44.413635" lon="8.9396967"><ele>78.83333333333333</ele><time>2026-04-07T09:47:35.658Z</time></trkpt><trkpt lat="44.4136067" lon="8.9396017"><ele>78.66666666666666</ele><time>2026-04-07T09:47:36.658Z</time></trkpt><trkpt lat="44.41357" lon="8.939505"><ele>78.5</ele><time>2026-04-07T09:47:37.659Z</time></trkpt><trkpt lat="44.41352" lon="8.93942"><ele>78.33333333333333</ele><time>2026-04-07T09:47:38.658Z</time></trkpt><trkpt lat="44.4134533" lon="8.9393483"><ele>78.16666666666667</ele><time>2026-04-07T09:47:39.658Z</time></trkpt><trkpt lat="44.41339" lon="8.9392783"><ele>78.0</ele><time>2026-04-07T09:47:40.658Z</time></trkpt><trkpt lat="44.41333" lon="8.9392017"><ele>78.0</ele><time>2026-04-07T09:47:41.658Z</time></trkpt><trkpt lat="44.413285" lon="8.939125"><ele>78.0</ele><time>2026-04-07T09:47:42.658Z</time></trkpt><trkpt lat="44.4132383" lon="8.9389733"><ele>78.0</ele><time>2026-04-07T09:47:44.659Z</time></trkpt><trkpt lat="44.4132633" lon="8.9388117"><ele>78.0</ele><time>2026-04-07T09:47:46.658Z</time></trkpt><trkpt lat="44.4132967" lon="8.9387167"><ele>78.0</ele><time>2026-04-07T09:47:47.658Z</time></trkpt><trkpt lat="44.4133367" lon="8.93862"><ele>78.0</ele><time>2026-04-07T09:47:48.658Z</time></trkpt><trkpt lat="44.4133667" lon="8.9385167"><ele>78.0</ele><time>2026-04-07T09:47:49.658Z</time></trkpt><trkpt lat="44.4133983" lon="8.938415"><ele>78.0</ele><time>2026-04-07T09:47:50.658Z</time></trkpt><trkpt lat="44.4134283" lon="8.93831"><ele>78.0</ele><time>2026-04-07T09:47:51.658Z</time></trkpt><trkpt lat="44.4134567" lon="8.938205"><ele>78.0</ele><time>2026-04-07T09:47:52.658Z</time></trkpt><trkpt lat="44.4134917" lon="8.9381117"><ele>78.0</ele><time>2026-04-07T09:47:53.658Z</time></trkpt><trkpt lat="44.4135333" lon="8.9380417"><ele>79.0</ele><time>2026-04-07T09:47:54.658Z</time></trkpt><trkpt lat="44.4135883" lon="8.9379933"><ele>80.0</ele><time>2026-04-07T09:47:55.658Z</time></trkpt><trkpt lat="44.4136583" lon="8.9379717"><ele>81.0</ele><time>2026-04-07T09:47:56.658Z</time></trkpt><trkpt lat="44.4137383" lon="8.937975"><ele>82.0</ele><time>2026-04-07T09:47:57.658Z</time></trkpt><trkpt lat="44.4138183" lon="8.9379883"><ele>83.0</ele><time>2026-04-07T09:47:58.658Z</time></trkpt><trkpt lat="44.4138967" lon="8.938005"><ele>84.0</ele><time>2026-04-07T09:47:59.658Z</time></trkpt><trkpt lat="44.4139633" lon="8.9380033"><ele>85.0</ele><time>2026-04-07T09:48:00.658Z</time></trkpt><trkpt lat="44.4140283" lon="8.938"><ele>85.71428571428572</ele><time>2026-04-07T09:48:01.658Z</time></trkpt><trkpt lat="44.4140983" lon="8.938015"><ele>86.42857142857142</ele><time>2026-04-07T09:48:02.658Z</time></trkpt><trkpt lat="44.4141633" lon="8.938035"><ele>87.14285714285714</ele><time>2026-04-07T09:48:03.658Z</time></trkpt><trkpt lat="44.4142283" lon="8.9380683"><ele>87.85714285714286</ele><time>2026-04-07T09:48:04.658Z</time></trkpt><trkpt lat="44.414295" lon="8.9380967"><ele>88.57142857142858</ele><time>2026-04-07T09:48:05.658Z</time></trkpt><trkpt lat="44.41436" lon="8.9381383"><ele>89.28571428571428</ele><time>2026-04-07T09:48:06.658Z</time></trkpt><trkpt lat="44.4144267" lon="8.938185"><ele>90.0</ele><time>2026-04-07T09:48:07.658Z</time></trkpt><trkpt lat="44.4144933" lon="8.9382133"><ele>90.0</ele><time>2026-04-07T09:48:08.658Z</time></trkpt><trkpt lat="44.414565" lon="8.9382117"><ele>90.0</ele><time>2026-04-07T09:48:09.658Z</time></trkpt><trkpt lat="44.4146383" lon="8.9381883"><ele>90.0</ele><time>2026-04-07T09:48:10.658Z</time></trkpt><trkpt lat="44.414695" lon="8.938135"><ele>90.0</ele><time>2026-04-07T09:48:11.659Z</time></trkpt><trkpt lat="44.4147683" lon="8.9379967"><ele>90.0</ele><time>2026-04-07T09:48:13.658Z</time></trkpt><trkpt lat="44.4147933" lon="8.937915"><ele>90.0</ele><time>2026-04-07T09:48:14.658Z</time></trkpt><trkpt lat="44.4148067" lon="8.9378283"><ele>90.66666666666667</ele><time>2026-04-07T09:48:15.658Z</time></trkpt><trkpt lat="44.4148083" lon="8.9377317"><ele>91.33333333333333</ele><time>2026-04-07T09:48:16.658Z</time></trkpt><trkpt lat="44.4147967" lon="8.937635"><ele>92.0</ele><time>2026-04-07T09:48:17.658Z</time></trkpt><trkpt lat="44.4147833" lon="8.9375383"><ele>92.66666666666666</ele><time>2026-04-07T09:48:18.658Z</time></trkpt><trkpt lat="44.4147467" lon="8.93735"><ele>93.33333333333333</ele><time>2026-04-07T09:48:20.658Z</time></trkpt><trkpt lat="44.4147267" lon="8.9372467"><ele>94.0</ele><time>2026-04-07T09:48:21.658Z</time></trkpt><trkpt lat="44.4147117" lon="8.9371383"><ele>94.0</ele><time>2026-04-07T09:48:22.658Z</time></trkpt><trkpt lat="44.4146917" lon="8.9370417"><ele>94.0</ele><time>2026-04-07T09:48:23.658Z</time></trkpt><trkpt lat="44.4146733" lon="8.9369467"><ele>94.0</ele><time>2026-04-07T09:48:24.659Z</time></trkpt><trkpt lat="44.4146583" lon="8.9368467"><ele>94.0</ele><time>2026-04-07T09:48:25.659Z</time></trkpt><trkpt lat="44.4146417" lon="8.936745"><ele>94.0</ele><time>2026-04-07T09:48:26.658Z</time></trkpt><trkpt lat="44.414625" lon="8.93664"><ele>94.0</ele><time>2026-04-07T09:48:27.658Z</time></trkpt><trkpt lat="44.4146083" lon="8.9365467"><ele>94.0</ele><time>2026-04-07T09:48:28.658Z</time></trkpt><trkpt lat="44.4145933" lon="8.9364533"><ele>94.14285714285714</ele><time>2026-04-07T09:48:29.658Z</time></trkpt><trkpt lat="44.414585" lon="8.9363533"><ele>94.28571428571428</ele><time>2026-04-07T09:48:30.658Z</time></trkpt><trkpt lat="44.41459" lon="8.93625"><ele>94.42857142857143</ele><time>2026-04-07T09:48:31.658Z</time></trkpt><trkpt lat="44.414605" lon="8.9361567"><ele>94.57142857142857</ele><time>2026-04-07T09:48:32.659Z</time></trkpt><trkpt lat="44.4146417" lon="8.9360717"><ele>94.71428571428572</ele><time>2026-04-07T09:48:33.658Z</time></trkpt><trkpt lat="44.4146967" lon="8.9360183"><ele>94.85714285714286</ele><time>2026-04-07T09:48:34.658Z</time></trkpt><trkpt lat="44.4147583" lon="8.9359683"><ele>95.0</ele><time>2026-04-07T09:48:35.658Z</time></trkpt><trkpt lat="44.4148283" lon="8.9359283"><ele>95.0</ele><time>2026-04-07T09:48:36.659Z</time></trkpt><trkpt lat="44.4149017" lon="8.93589"><ele>95.0</ele><time>2026-04-07T09:48:37.658Z</time></trkpt><trkpt lat="44.4149783" lon="8.9358517"><ele>95.0</ele><time>2026-04-07T09:48:38.659Z</time></trkpt><trkpt lat="44.4150467" lon="8.9358067"><ele>95.0</ele><time>2026-04-07T09:48:39.658Z</time></trkpt><trkpt lat="44.4151233" lon="8.935775"><ele>95.0</ele><time>2026-04-07T09:48:40.658Z</time></trkpt><trkpt lat="44.4152017" lon="8.9357583"><ele>95.0</ele><time>2026-04-07T09:48:41.659Z</time></trkpt><trkpt lat="44.4152783" lon="8.93574"><ele>93.5</ele><time>2026-04-07T09:48:42.658Z</time></trkpt><trkpt lat="44.4153483" lon="8.9357183"><ele>92.0</ele><time>2026-04-07T09:48:43.658Z</time></trkpt><trkpt lat="44.4154183" lon="8.9356967"><ele>90.5</ele><time>2026-04-07T09:48:44.658Z</time></trkpt><trkpt lat="44.41549" lon="8.9356717"><ele>89.0</ele><time>2026-04-07T09:48:45.658Z</time></trkpt><trkpt lat="44.41556" lon="8.93565"><ele>87.5</ele><time>2026-04-07T09:48:46.658Z</time></trkpt><trkpt lat="44.415665" lon="8.9356033"><ele>86.0</ele><time>2026-04-07T09:48:48.658Z</time></trkpt><trkpt lat="44.415775" lon="8.9355517"><ele>86.0</ele><time>2026-04-07T09:48:50.658Z</time></trkpt><trkpt lat="44.4158817" lon="8.9354717"><ele>86.0</ele><time>2026-04-07T09:48:52.658Z</time></trkpt><trkpt lat="44.4159567" lon="8.9354767"><ele>86.0</ele><time>2026-04-07T09:48:53.658Z</time></trkpt><trkpt lat="44.4160233" lon="8.9354917"><ele>86.0</ele><time>2026-04-07T09:48:54.658Z</time></trkpt><trkpt lat="44.4161033" lon="8.9355533"><ele>86.0</ele><time>2026-04-07T09:48:55.658Z</time></trkpt><trkpt lat="44.4161733" lon="8.9356767"><ele>86.0</ele><time>2026-04-07T09:48:56.658Z</time></trkpt><trkpt lat="44.416235" lon="8.935815"><ele>86.0</ele><time>2026-04-07T09:48:57.658Z</time></trkpt><trkpt lat="44.4162983" lon="8.93594"><ele>86.0</ele><time>2026-04-07T09:48:58.658Z</time></trkpt><trkpt lat="44.4163683" lon="8.936085"><ele>86.0</ele><time>2026-04-07T09:48:59.658Z</time></trkpt><trkpt lat="44.4164467" lon="8.9362283"><ele>91.0</ele><time>2026-04-07T09:49:00.658Z</time></trkpt><trkpt lat="44.4165133" lon="8.9363767"><ele>96.0</ele><time>2026-04-07T09:49:01.659Z</time></trkpt><trkpt lat="44.41658" lon="8.93651"><ele>101.0</ele><time>2026-04-07T09:49:02.659Z</time></trkpt><trkpt lat="44.4166467" lon="8.9366433"><ele>106.0</ele><time>2026-04-07T09:49:03.658Z</time></trkpt><trkpt lat="44.4167183" lon="8.9367733"><ele>109.75</ele><time>2026-04-07T09:49:04.658Z</time></trkpt><trkpt lat="44.41678" lon="8.936905"><ele>113.5</ele><time>2026-04-07T09:49:05.658Z</time></trkpt><trkpt lat="44.4168933" lon="8.9369983"><ele>117.25</ele><time>2026-04-07T09:49:06.658Z</time></trkpt><trkpt lat="44.41699" lon="8.9370983"><ele>121.0</ele><time>2026-04-07T09:49:07.658Z</time></trkpt><trkpt lat="44.4170917" lon="8.9371983"><ele>121.0</ele><time>2026-04-07T09:49:08.658Z</time></trkpt><trkpt lat="44.417185" lon="8.9373083"><ele>121.0</ele><time>2026-04-07T09:49:09.658Z</time></trkpt><trkpt lat="44.41728" lon="8.9374117"><ele>121.0</ele><time>2026-04-07T09:49:10.658Z</time></trkpt><trkpt lat="44.4173683" lon="8.93752"><ele>121.0</ele><time>2026-04-07T09:49:11.658Z</time></trkpt><trkpt lat="44.417465" lon="8.9376117"><ele>135.0</ele><time>2026-04-07T09:49:12.658Z</time></trkpt><trkpt lat="44.4175567" lon="8.9377"><ele>135.0</ele><time>2026-04-07T09:49:13.658Z</time></trkpt><trkpt lat="44.4176317" lon="8.9377867"><ele>135.0</ele><time>2026-04-07T09:49:14.658Z</time></trkpt><trkpt lat="44.4176967" lon="8.93786"><ele>135.0</ele><time>2026-04-07T09:49:15.658Z</time></trkpt><trkpt lat="44.417725" lon="8.93794"><ele>135.0</ele><time>2026-04-07T09:49:16.658Z</time></trkpt><trkpt lat="44.4177483" lon="8.938055"><ele>135.0</ele><time>2026-04-07T09:49:18.658Z</time></trkpt></trkseg></trk></gpx>